
Distance (Route):
Temperature : 16.8°C
Humidity : 57.2%
Pressure : 871.4hPa| Receiver | Frames | First received | Last received |
|---|---|---|---|
| DK7TD | 946 | 2026-09-03 10:47:54 | 2026-09-03 13:22:08 |
| DO3MHA-12 | 585 | 2026-09-03 11:20:00 | 2026-09-03 14:15:47 |
| DO3MHA-11 | 533 | 2026-09-03 11:20:44 | 2026-09-03 14:17:02 |
| DM0DOS-11 | 401 | 2026-09-03 11:19:59 | 2026-09-03 13:10:24 |
| DL1XH-west | 135 | 2026-09-03 12:13:54 | 2026-09-03 12:39:04 |
| DJ8HS-15 | 111 | 2026-09-03 11:20:12 | 2026-09-03 13:09:12 |
| DB0UT-7 | 101 | 2026-09-03 11:21:46 | 2026-09-03 13:44:47 |
| IW2NTF | 100 | 2026-09-03 11:32:20 | 2026-09-03 13:07:18 |
| OE5DXL-15 | 95 | 2026-09-03 11:25:45 | 2026-09-03 13:56:30 |
| NBG1-10 | 87 | 2026-09-03 11:22:13 | 2026-09-03 13:58:08 |
| DB0ND-19 | 84 | 2026-09-03 10:47:19 | 2026-09-03 13:52:34 |
| OE5DRO-10 | 84 | 2026-09-03 11:23:18 | 2026-09-03 13:41:34 |
| DL1XH1-15 | 76 | 2026-09-03 12:15:37 | 2026-09-03 12:37:14 |
| DL6DJ-15 | 74 | 2026-09-03 11:16:44 | 2026-09-03 13:57:47 |
| OE5MMP-10 | 74 | 2026-09-03 12:00:14 | 2026-09-03 12:44:38 |
| DL9SK-14 | 73 | 2026-09-03 10:47:21 | 2026-09-03 13:46:54 |
| PG1ADW-2 | 72 | 2026-09-03 11:30:42 | 2026-09-03 13:09:15 |
| DG1MJG | 68 | 2026-09-03 11:22:07 | 2026-09-03 14:09:34 |
| AZAK | 67 | 2026-09-03 10:47:10 | 2026-09-03 13:10:02 |
| DB0NH | 65 | 2026-09-03 11:31:07 | 2026-09-03 13:57:37 |
| DK5PH-5 | 64 | 2026-09-03 11:20:34 | 2026-09-03 13:25:37 |
| DF8AY | 62 | 2026-09-03 12:23:46 | 2026-09-03 12:39:46 |
| DF7PN | 61 | 2026-09-03 10:55:44 | 2026-09-03 13:27:58 |
| DF1GD-15 | 60 | 2026-09-03 11:21:33 | 2026-09-03 13:25:53 |
| DM7RM-13 | 59 | 2026-09-03 11:23:57 | 2026-09-03 13:34:01 |
| DG1MFX-10 | 57 | 2026-09-03 13:22:38 | 2026-09-03 14:10:43 |
| BIOWL1-15 | 43 | 2026-09-03 11:13:20 | 2026-09-03 12:59:10 |
| OE3JTB-15 | 39 | 2026-09-03 11:22:06 | 2026-09-03 13:42:17 |
| DF3TZ-5 | 31 | 2026-09-03 10:49:44 | 2026-09-03 13:39:28 |
| BAUMI2-15 | 27 | 2026-09-03 12:01:39 | 2026-09-03 12:47:26 |
| DO9HM | 26 | 2026-09-03 11:29:58 | 2026-09-03 13:10:25 |
| DN1GJH-1 | 23 | 2026-09-03 11:20:52 | 2026-09-03 13:36:55 |
| DH7VM-15 | 21 | 2026-09-03 11:28:57 | 2026-09-03 13:38:35 |
| DJ2DS-15 | 20 | 2026-09-03 12:07:31 | 2026-09-03 12:39:10 |
| DL1NUX | 17 | 2026-09-03 12:17:42 | 2026-09-03 13:13:19 |
| SONCRA | 13 | 2026-09-03 11:52:52 | 2026-09-03 12:39:57 |
| PETON7-10 | 12 | 2026-09-03 12:16:02 | 2026-09-03 12:35:05 |
| OM5KV | 10 | 2026-09-03 12:17:29 | 2026-09-03 12:32:05 |
| OE9MKV-15 | 8 | 2026-09-03 11:35:34 | 2026-09-03 12:21:43 |
| DO9LL-15 | 8 | 2026-09-03 11:51:18 | 2026-09-03 12:45:42 |
| SONDE2-11 | 8 | 2026-09-03 12:01:07 | 2026-09-03 12:34:14 |
| KANTATE | 7 | 2026-09-03 11:21:25 | 2026-09-03 12:51:22 |
| DJTTGO | 6 | 2026-09-03 11:46:07 | 2026-09-03 12:49:21 |
| OE5WHR-10 | 5 | 2026-09-03 12:09:53 | 2026-09-03 12:19:19 |
| DL8DAS-14 | 4 | 2026-09-03 12:10:37 | 2026-09-03 12:30:47 |
| HARRO8 | 3 | 2026-09-03 11:03:48 | 2026-09-03 11:53:45 |
| BIOWL9-15 | 1 | 2026-09-03 12:05:10 | 2026-09-03 12:05:10 |
| SO1NDE-10 | 1 | 2026-09-03 12:17:40 | 2026-09-03 12:17:40 |
| DF9NV-10 | 1 | 2026-09-03 12:44:14 | 2026-09-03 12:44:14 |
| Receiver | Date | Latitude | Longitude | Direction | Speed | Altitude | Climb | Temperature | Humidity | Pressure | Voltage | Killtimer | Uptime | BKT | XDATA |
|---|---|---|---|---|---|---|---|---|---|---|---|---|---|---|---|
| DO3MHA-11 | 2026-09-03 14:17:02 | 47.62536 | 11.38779 | 146° | 20km/h | 1398m | -1.1m/s | 16.8°C | 57.2% | 871.4hPa | 2.7V | 00:00:00 | 03:47:28 | 00:00:00 | |
| DO3MHA-11 | 2026-09-03 14:16:57 | 47.62557 | 11.38768 | 170° | 13km/h | 1403m | -0.5m/s | 16.8°C | 57.4% | 870.9hPa | 2.7V | 06:46:00 | 03:47:23 | 00:00:00 | |
| DO3MHA-11 | 2026-09-03 14:16:55 | 47.62563 | 11.38767 | 167° | 9km/h | 1405m | -0.7m/s | 16.8°C | 57.6% | 870.7hPa | 2.7V | 00:00:00 | 03:47:21 | 00:00:00 | |
| DO3MHA-11 | 2026-09-03 14:16:53 | 47.62567 | 11.38765 | 156° | 9km/h | 1406m | -0.6m/s | 16.8°C | 57.7% | 870.5hPa | 2.7V | 00:00:00 | 03:47:19 | 00:00:00 | |
| DO3MHA-11 | 2026-09-03 14:16:51 | 47.62571 | 11.38762 | 150° | 13km/h | 1408m | -0.9m/s | 16.8°C | 57.6% | 870.4hPa | 2.7V | 00:00:00 | 03:47:17 | 00:00:00 | |
| DO3MHA-11 | 2026-09-03 14:16:47 | 47.62583 | 11.38750 | 151° | 16km/h | 1411m | -0.9m/s | 16.7°C | 57.7% | 870.1hPa | 2.7V | 00:00:00 | 03:47:13 | 00:00:00 | |
| DO3MHA-11 | 2026-09-03 14:16:45 | 47.62590 | 11.38744 | 153° | 16km/h | 1413m | -0.8m/s | 16.7°C | 57.7% | 869.9hPa | 2.7V | 00:00:00 | 03:47:11 | 00:00:00 | |
| DO3MHA-11 | 2026-09-03 14:16:41 | 47.62605 | 11.38730 | 140° | 18km/h | 1417m | -1.3m/s | 16.7°C | 57.9% | 869.7hPa | 2.7V | 06:46:00 | 03:47:07 | 00:00:00 | |
| DO3MHA-11 | 2026-09-03 14:16:37 | 47.62621 | 11.38713 | 152° | 20km/h | 1422m | -0.9m/s | 16.7°C | 58.0% | 869.3hPa | 2.7V | 00:00:00 | 03:47:03 | 00:00:00 | |
| DO3MHA-11 | 2026-09-03 14:16:35 | 47.62630 | 11.38706 | 158° | 22km/h | 1423m | -1.1m/s | 16.7°C | 58.1% | 869.1hPa | 2.7V | 00:00:00 | 03:47:01 | 00:00:00 | |
| DO3MHA-11 | 2026-09-03 14:16:11 | 47.62701 | 11.38634 | 131° | 22km/h | 1440m | -0.8m/s | 16.5°C | 58.6% | 867.8hPa | 2.7V | 00:00:00 | 03:46:37 | 00:00:00 | |
| DO3MHA-11 | 2026-09-03 14:16:06 | 47.62722 | 11.38603 | 140° | 22km/h | 1448m | -2.2m/s | 16.5°C | 58.9% | 867.0hPa | 2.7V | 00:00:00 | 03:46:32 | 00:00:00 | |
| DO3MHA-11 | 2026-09-03 14:16:04 | 47.62730 | 11.38592 | 142° | 22km/h | 1453m | -2.5m/s | 16.4°C | 58.8% | 866.7hPa | 2.7V | 00:00:00 | 03:46:30 | 00:00:00 | |
| DO3MHA-11 | 2026-09-03 14:16:02 | 47.62739 | 11.38582 | 143° | 24km/h | 1458m | -2.7m/s | 16.3°C | 59.0% | 866.0hPa | 2.7V | 00:00:00 | 03:46:28 | 00:00:00 | |
| DO3MHA-11 | 2026-09-03 14:15:59 | 47.62755 | 11.38570 | 149° | 24km/h | 1466m | -2.8m/s | 16.3°C | 59.3% | 865.1hPa | 2.7V | 06:47:00 | 03:46:25 | 00:00:00 | |
| DO3MHA-11 | 2026-09-03 14:15:57 | 47.62765 | 11.38561 | 151° | 24km/h | 1471m | -2.5m/s | 16.2°C | 59.5% | 864.6hPa | 2.7V | 00:00:00 | 03:46:23 | 00:00:00 | |
| DO3MHA-11 | 2026-09-03 14:15:55 | 47.62776 | 11.38553 | 155° | 24km/h | 1476m | -2.3m/s | 16.1°C | 59.9% | 864.0hPa | 2.7V | 00:00:00 | 03:46:21 | 00:00:00 | |
| DO3MHA-11 | 2026-09-03 14:15:53 | 47.62787 | 11.38546 | 158° | 20km/h | 1480m | -2.6m/s | 16.0°C | 59.9% | 863.2hPa | 2.7V | 00:00:00 | 03:46:19 | 00:00:00 | |
| DO3MHA-11 | 2026-09-03 14:15:51 | 47.62796 | 11.38540 | 162° | 20km/h | 1485m | -3.0m/s | 16.0°C | 60.0% | 862.9hPa | 2.7V | 00:00:00 | 03:46:17 | 00:00:00 | |
| DO3MHA-11 | 2026-09-03 14:15:49 | 47.62806 | 11.38535 | 151° | 22km/h | 1491m | -3.0m/s | 16.0°C | 60.2% | 862.3hPa | 2.7V | 00:00:00 | 03:46:15 | 00:00:00 | |
| DO3MHA-12 | 2026-09-03 14:15:47 | 47.62816 | 11.38526 | 151° | 24km/h | 1497m | -2.9m/s | 15.9°C | 60.4% | 861.7hPa | 2.7V | 06:47:00 | 03:46:13 | 00:00:00 | |
| DO3MHA-11 | 2026-09-03 14:15:47 | 47.62816 | 11.38526 | 151° | 26km/h | 1497m | -2.9m/s | 15.9°C | 60.4% | 861.7hPa | 2.7V | 00:00:00 | 03:46:13 | 00:00:00 | |
| DO3MHA-11 | 2026-09-03 14:15:43 | 47.62839 | 11.38512 | 159° | 24km/h | 1511m | -3.3m/s | 15.8°C | 60.8% | 860.4hPa | 2.7V | 06:47:00 | 03:46:09 | 00:00:00 | |
| DO3MHA-12 | 2026-09-03 14:15:43 | 47.62839 | 11.38512 | 159° | 24km/h | 1511m | -3.3m/s | 15.8°C | 60.8% | 860.4hPa | 2.7V | 00:00:00 | 03:46:09 | 00:00:00 | |
| DO3MHA-11 | 2026-09-03 14:15:38 | 47.62866 | 11.38495 | 148° | 24km/h | 1526m | -2.1m/s | 15.7°C | 61.1% | 859.1hPa | 2.7V | 00:00:00 | 03:46:04 | 00:00:00 | |
| DO3MHA-12 | 2026-09-03 14:15:38 | 47.62866 | 11.38495 | 148° | 24km/h | 1526m | -2.1m/s | 15.7°C | 61.1% | 859.1hPa | 2.7V | 00:00:00 | 03:46:04 | 00:00:00 | |
| DO3MHA-11 | 2026-09-03 14:15:32 | 47.62890 | 11.38461 | 135° | 24km/h | 1540m | -2.6m/s | 15.5°C | 61.6% | 857.7hPa | 2.7V | 00:00:00 | 03:45:58 | 00:00:00 | |
| DO3MHA-12 | 2026-09-03 14:15:29 | 47.62903 | 11.38442 | 138° | 26km/h | 1548m | -3.5m/s | 15.5°C | 62.0% | 856.9hPa | 2.7V | 00:00:00 | 03:45:55 | 00:00:00 | |
| DO3MHA-11 | 2026-09-03 14:15:27 | 47.62912 | 11.38429 | 135° | 26km/h | 1555m | -3.0m/s | 15.5°C | 62.1% | 856.3hPa | 2.7V | 00:00:00 | 03:45:53 | 00:00:00 | |
| DO3MHA-12 | 2026-09-03 14:15:24 | 47.62927 | 11.38408 | 136° | 26km/h | 1563m | -2.8m/s | 15.4°C | 62.3% | 855.3hPa | 2.7V | 00:00:00 | 03:45:50 | 00:00:00 | |
| DO3MHA-11 | 2026-09-03 14:15:22 | 47.62936 | 11.38396 | 141° | 27km/h | 1569m | -2.7m/s | 15.3°C | 62.6% | 854.7hPa | 2.7V | 00:00:00 | 03:45:48 | 00:00:00 | |
| DO3MHA-12 | 2026-09-03 14:15:19 | 47.62952 | 11.38377 | 143° | 27km/h | 1579m | -2.9m/s | 15.1°C | 60.9% | 853.7hPa | 2.7V | 00:00:00 | 03:45:45 | 00:00:00 | |
| DO3MHA-11 | 2026-09-03 14:15:17 | 47.62963 | 11.38364 | 142° | 27km/h | 1585m | -3.2m/s | 15.0°C | 60.4% | 853.1hPa | 2.7V | 00:00:00 | 03:45:43 | 00:00:00 | |
| DO3MHA-12 | 2026-09-03 14:15:14 | 47.62979 | 11.38345 | 142° | 29km/h | 1595m | -3.3m/s | 14.9°C | 61.9% | 852.1hPa | 2.7V | 00:00:00 | 03:45:40 | 00:00:00 | |
| DO3MHA-11 | 2026-09-03 14:15:12 | 47.62991 | 11.38332 | 147° | 29km/h | 1601m | -2.9m/s | 14.9°C | 62.4% | 851.6hPa | 2.7V | 00:00:00 | 03:45:38 | 00:00:00 | |
| DO3MHA-12 | 2026-09-03 14:15:09 | 47.63010 | 11.38317 | 158° | 27km/h | 1611m | -3.1m/s | 14.8°C | 61.2% | 850.6hPa | 2.7V | 06:48:00 | 03:45:35 | 00:00:00 | |
| DO3MHA-11 | 2026-09-03 14:15:07 | 47.63023 | 11.38309 | 159° | 29km/h | 1617m | -3.4m/s | 14.8°C | 61.8% | 849.9hPa | 2.7V | 06:48:00 | 03:45:33 | 00:00:00 | |
| DO3MHA-12 | 2026-09-03 14:15:04 | 47.63043 | 11.38296 | 155° | 29km/h | 1626m | -2.7m/s | 14.7°C | 62.4% | 848.9hPa | 2.7V | 00:00:00 | 03:45:30 | 00:00:00 | |
| DO3MHA-11 | 2026-09-03 14:15:02 | 47.63057 | 11.38287 | 159° | 26km/h | 1632m | -2.6m/s | 14.7°C | 61.0% | 848.4hPa | 2.7V | 00:00:00 | 03:45:28 | 00:00:00 | |
| DO3MHA-12 | 2026-09-03 14:14:59 | 47.63076 | 11.38278 | 165° | 22km/h | 1640m | -2.4m/s | 14.6°C | 63.1% | 847.8hPa | 2.7V | 00:00:00 | 03:45:25 | 00:00:00 | |
| DO3MHA-11 | 2026-09-03 14:14:57 | 47.63087 | 11.38273 | 166° | 22km/h | 1645m | -2.7m/s | 14.5°C | 61.0% | 847.2hPa | 2.7V | 00:00:00 | 03:45:23 | 00:00:00 | |
| DO3MHA-12 | 2026-09-03 14:14:54 | 47.63104 | 11.38267 | 166° | 22km/h | 1653m | -2.8m/s | 14.4°C | 61.6% | 846.4hPa | 2.7V | 00:00:00 | 03:45:20 | 00:00:00 | |
| DO3MHA-11 | 2026-09-03 14:14:52 | 47.63115 | 11.38263 | 166° | 20km/h | 1659m | -2.8m/s | 14.3°C | 62.3% | 845.9hPa | 2.7V | 00:00:00 | 03:45:18 | 00:00:00 | |
| DO3MHA-12 | 2026-09-03 14:14:49 | 47.63130 | 11.38256 | 163° | 16km/h | 1665m | -1.5m/s | 14.2°C | 62.5% | 845.1hPa | 2.7V | 00:00:00 | 03:45:15 | 00:00:00 | |
| DO3MHA-11 | 2026-09-03 14:14:47 | 47.63138 | 11.38252 | 159° | 16km/h | 1669m | -2.1m/s | 14.2°C | 61.9% | 844.7hPa | 2.7V | 00:00:00 | 03:45:13 | 00:00:00 | |
| DO3MHA-12 | 2026-09-03 14:14:44 | 47.63150 | 11.38245 | 159° | 18km/h | 1675m | -1.7m/s | 14.2°C | 62.5% | 844.2hPa | 2.7V | 00:00:00 | 03:45:10 | 00:00:00 | |
| DO3MHA-11 | 2026-09-03 14:14:42 | 47.63158 | 11.38240 | 149° | 18km/h | 1679m | -1.8m/s | 14.2°C | 62.5% | 843.7hPa | 2.7V | 00:00:00 | 03:45:08 | 00:00:00 | |
| DO3MHA-12 | 2026-09-03 14:14:39 | 47.63168 | 11.38227 | 135° | 18km/h | 1684m | -1.6m/s | 14.1°C | 62.0% | 843.3hPa | 2.7V | 00:00:00 | 03:45:05 | 00:00:00 | |
| DO3MHA-11 | 2026-09-03 14:14:37 | 47.63175 | 11.38216 | 135° | 16km/h | 1688m | -1.6m/s | 14.0°C | 62.3% | 842.9hPa | 2.7V | 00:00:00 | 03:45:03 | 00:00:00 | |
| DO3MHA-12 | 2026-09-03 14:14:34 | 47.63184 | 11.38203 | 138° | 22km/h | 1693m | -1.8m/s | 14.0°C | 63.9% | 842.3hPa | 2.7V | 06:48:00 | 03:45:00 | 00:00:00 | |
| DO3MHA-11 | 2026-09-03 14:14:32 | 47.63191 | 11.38194 | 138° | 26km/h | 1697m | -2.0m/s | 14.0°C | 63.5% | 842.0hPa | 2.7V | 06:48:00 | 03:44:58 | 00:00:00 | |
| DO3MHA-12 | 2026-09-03 14:14:29 | 47.63204 | 11.38175 | 135° | 26km/h | 1704m | -2.5m/s | 14.0°C | 62.6% | 841.3hPa | 2.7V | 00:00:00 | 03:44:55 | 00:00:00 | |
| DO3MHA-11 | 2026-09-03 14:14:27 | 47.63214 | 11.38160 | 132° | 24km/h | 1709m | -3.0m/s | 13.9°C | 62.8% | 840.7hPa | 2.7V | 00:00:00 | 03:44:53 | 00:00:00 | |
| DO3MHA-12 | 2026-09-03 14:14:24 | 47.63225 | 11.38139 | 126° | 22km/h | 1717m | -2.6m/s | 13.8°C | 63.2% | 839.9hPa | 2.7V | 00:00:00 | 03:44:50 | 00:00:00 | |
| DO3MHA-11 | 2026-09-03 14:14:22 | 47.63231 | 11.38126 | 125° | 24km/h | 1723m | -2.8m/s | 13.7°C | 63.2% | 839.4hPa | 2.7V | 00:00:00 | 03:44:48 | 00:00:00 | |
| DO3MHA-12 | 2026-09-03 14:14:19 | 47.63241 | 11.38105 | 128° | 29km/h | 1731m | -2.6m/s | 13.7°C | 63.5% | 838.5hPa | 2.7V | 00:00:00 | 03:44:45 | 00:00:00 | |
| DO3MHA-11 | 2026-09-03 14:14:17 | 47.63250 | 11.38090 | 132° | 29km/h | 1737m | -2.6m/s | 13.6°C | 63.8% | 838.1hPa | 2.7V | 00:00:00 | 03:44:43 | 00:00:00 | |
| DO3MHA-12 | 2026-09-03 14:14:14 | 47.63266 | 11.38066 | 138° | 26km/h | 1745m | -2.4m/s | 13.5°C | 64.5% | 837.2hPa | 2.7V | 00:00:00 | 03:44:40 | 00:00:00 | |
| DO3MHA-11 | 2026-09-03 14:14:12 | 47.63276 | 11.38051 | 136° | 20km/h | 1750m | -2.1m/s | 13.5°C | 64.7% | 836.8hPa | 2.7V | 00:00:00 | 03:44:38 | 00:00:00 | |
| DO3MHA-12 | 2026-09-03 14:14:09 | 47.63288 | 11.38034 | 135° | 20km/h | 1757m | -2.5m/s | 13.4°C | 65.1% | 836.1hPa | 2.7V | 00:00:00 | 03:44:35 | 00:00:00 | |
| DO3MHA-11 | 2026-09-03 14:14:07 | 47.63294 | 11.38023 | 129° | 24km/h | 1761m | -1.8m/s | 13.4°C | 65.0% | 835.6hPa | 2.7V | 00:00:00 | 03:44:33 | 00:00:00 | |
| DO3MHA-12 | 2026-09-03 14:14:04 | 47.63304 | 11.38002 | 124° | 27km/h | 1767m | -2.0m/s | 13.4°C | 64.6% | 835.1hPa | 2.7V | 00:00:00 | 03:44:30 | 00:00:00 | |
| DO3MHA-11 | 2026-09-03 14:14:02 | 47.63312 | 11.37985 | 124° | 27km/h | 1771m | -1.6m/s | 13.3°C | 64.5% | 834.7hPa | 2.7V | 00:00:00 | 03:44:28 | 00:00:00 | |
| DO3MHA-12 | 2026-09-03 14:13:59 | 47.63323 | 11.37958 | 121° | 26km/h | 1776m | -1.8m/s | 13.2°C | 65.2% | 834.2hPa | 2.7V | 06:49:00 | 03:44:25 | 00:00:00 | |
| DO3MHA-11 | 2026-09-03 14:13:57 | 47.63330 | 11.37941 | 118° | 26km/h | 1780m | -2.0m/s | 13.2°C | 65.4% | 833.8hPa | 2.7V | 06:49:00 | 03:44:23 | 00:00:00 | |
| DO3MHA-12 | 2026-09-03 14:13:54 | 47.63338 | 11.37916 | 113° | 26km/h | 1787m | -1.9m/s | 13.2°C | 65.1% | 833.2hPa | 2.7V | 00:00:00 | 03:44:20 | 00:00:00 | |
| DO3MHA-11 | 2026-09-03 14:13:52 | 47.63342 | 11.37899 | 116° | 27km/h | 1791m | -2.3m/s | 13.1°C | 65.1% | 832.7hPa | 2.7V | 00:00:00 | 03:44:18 | 00:00:00 | |
| DO3MHA-12 | 2026-09-03 14:13:49 | 47.63352 | 11.37873 | 120° | 29km/h | 1799m | -2.2m/s | 13.0°C | 65.4% | 832.0hPa | 2.7V | 00:00:00 | 03:44:15 | 00:00:00 | |
| DO3MHA-12 | 2026-09-03 14:13:44 | 47.63373 | 11.37830 | 136° | 24km/h | 1811m | -2.2m/s | 12.9°C | 65.8% | 830.9hPa | 2.7V | 00:00:00 | 03:44:10 | 00:00:00 | |
| DO3MHA-11 | 2026-09-03 14:13:42 | 47.63382 | 11.37816 | 134° | 20km/h | 1815m | -1.8m/s | 12.9°C | 66.1% | 830.5hPa | 2.7V | 00:00:00 | 03:44:08 | 00:00:00 | |
| DO3MHA-12 | 2026-09-03 14:13:39 | 47.63392 | 11.37798 | 126° | 20km/h | 1821m | -1.7m/s | 12.8°C | 66.7% | 829.8hPa | 2.7V | 00:00:00 | 03:44:05 | 00:00:00 | |
| DO3MHA-11 | 2026-09-03 14:13:37 | 47.63397 | 11.37786 | 121° | 20km/h | 1826m | -2.4m/s | 12.7°C | 67.0% | 829.3hPa | 2.7V | 00:00:00 | 03:44:03 | 00:00:00 | |
| DO3MHA-12 | 2026-09-03 14:13:34 | 47.63405 | 11.37768 | 120° | 20km/h | 1832m | -2.0m/s | 12.7°C | 67.1% | 828.7hPa | 2.7V | 00:00:00 | 03:44:00 | 00:00:00 | |
| DO3MHA-11 | 2026-09-03 14:13:32 | 47.63409 | 11.37755 | 115° | 22km/h | 1836m | -1.7m/s | 12.6°C | 67.2% | 828.1hPa | 2.7V | 00:00:00 | 03:43:58 | 00:00:00 | |
| DO3MHA-12 | 2026-09-03 14:13:29 | 47.63416 | 11.37733 | 116° | 20km/h | 1842m | -1.7m/s | 12.6°C | 67.1% | 827.6hPa | 2.7V | 00:00:00 | 03:43:55 | 00:00:00 | |
| DO3MHA-11 | 2026-09-03 14:13:27 | 47.63420 | 11.37719 | 123° | 20km/h | 1845m | -1.8m/s | 12.6°C | 67.2% | 827.3hPa | 2.7V | 00:00:00 | 03:43:53 | 00:00:00 | |
| DO3MHA-12 | 2026-09-03 14:13:24 | 47.63430 | 11.37703 | 138° | 18km/h | 1850m | -1.8m/s | 12.5°C | 67.5% | 826.9hPa | 2.7V | 06:50:00 | 03:43:50 | 00:00:00 | |
| DO3MHA-11 | 2026-09-03 14:13:21 | 47.63439 | 11.37686 | 121° | 20km/h | 1853m | -1.3m/s | 12.5°C | 67.6% | 826.3hPa | 2.7V | 06:50:00 | 03:43:47 | 00:00:00 | |
| DO3MHA-12 | 2026-09-03 14:13:19 | 47.63443 | 11.37673 | 114° | 24km/h | 1857m | -1.8m/s | 12.4°C | 67.9% | 826.0hPa | 2.7V | 00:00:00 | 03:43:45 | 00:00:00 | |
| DO3MHA-11 | 2026-09-03 14:13:16 | 47.63449 | 11.37651 | 114° | 27km/h | 1863m | -2.5m/s | 12.4°C | 67.8% | 825.4hPa | 2.7V | 00:00:00 | 03:43:42 | 00:00:00 | |
| DO3MHA-12 | 2026-09-03 14:13:14 | 47.63455 | 11.37632 | 118° | 29km/h | 1868m | -2.2m/s | 12.4°C | 67.9% | 825.2hPa | 2.7V | 00:00:00 | 03:43:40 | 00:00:00 | |
| DO3MHA-11 | 2026-09-03 14:13:11 | 47.63466 | 11.37603 | 118° | 29km/h | 1874m | -2.1m/s | 12.3°C | 68.1% | 824.6hPa | 2.7V | 00:00:00 | 03:43:37 | 00:00:00 | |
| DO3MHA-12 | 2026-09-03 14:13:09 | 47.63473 | 11.37583 | 121° | 29km/h | 1878m | -1.7m/s | 12.3°C | 68.1% | 824.2hPa | 2.7V | 00:00:00 | 03:43:35 | 00:00:00 | |
| DO3MHA-11 | 2026-09-03 14:13:06 | 47.63483 | 11.37553 | 117° | 31km/h | 1884m | -1.8m/s | 12.2°C | 68.7% | 823.7hPa | 2.7V | 00:00:00 | 03:43:32 | 00:00:00 | |
| DO3MHA-12 | 2026-09-03 14:13:04 | 47.63491 | 11.37534 | 119° | 31km/h | 1888m | -1.1m/s | 12.2°C | 68.7% | 823.3hPa | 2.7V | 00:00:00 | 03:43:30 | 00:00:00 | |
| DO3MHA-11 | 2026-09-03 14:13:01 | 47.63502 | 11.37503 | 119° | 31km/h | 1893m | -1.5m/s | 12.1°C | 69.1% | 822.6hPa | 2.7V | 00:00:00 | 03:43:27 | 00:00:00 | |
| DO3MHA-12 | 2026-09-03 14:12:59 | 47.63509 | 11.37482 | 116° | 31km/h | 1897m | -2.2m/s | 12.1°C | 69.4% | 822.4hPa | 2.7V | 00:00:00 | 03:43:25 | 00:00:00 | |
| DO3MHA-11 | 2026-09-03 14:12:56 | 47.63518 | 11.37451 | 115° | 31km/h | 1905m | -2.0m/s | 12.0°C | 69.6% | 821.7hPa | 2.7V | 00:00:00 | 03:43:22 | 00:00:00 | |
| DO3MHA-12 | 2026-09-03 14:12:54 | 47.63524 | 11.37430 | 115° | 33km/h | 1909m | -2.4m/s | 12.0°C | 69.8% | 821.3hPa | 2.7V | 00:00:00 | 03:43:20 | 00:00:00 | |
| DO3MHA-11 | 2026-09-03 14:12:51 | 47.63536 | 11.37398 | 123° | 33km/h | 1916m | -1.7m/s | 11.9°C | 70.1% | 820.7hPa | 2.7V | 00:00:00 | 03:43:17 | 00:00:00 | |
| DO3MHA-12 | 2026-09-03 14:12:49 | 47.63544 | 11.37377 | 122° | 33km/h | 1920m | -1.7m/s | 11.9°C | 70.2% | 820.2hPa | 2.7V | 06:50:00 | 03:43:15 | 00:00:00 | |
| DO3MHA-11 | 2026-09-03 14:12:46 | 47.63556 | 11.37345 | 120° | 31km/h | 1926m | -1.7m/s | 11.8°C | 70.6% | 819.7hPa | 2.7V | 06:50:00 | 03:43:12 | 00:00:00 | |
| DO3MHA-12 | 2026-09-03 14:12:44 | 47.63563 | 11.37324 | 118° | 31km/h | 1930m | -1.4m/s | 11.8°C | 70.8% | 819.3hPa | 2.7V | 00:00:00 | 03:43:10 | 00:00:00 | |
| DO3MHA-11 | 2026-09-03 14:12:41 | 47.63577 | 11.37295 | 130° | 29km/h | 1934m | -1.4m/s | 11.7°C | 70.6% | 818.8hPa | 2.7V | 00:00:00 | 03:43:07 | 00:00:00 | |
| DO3MHA-12 | 2026-09-03 14:12:39 | 47.63587 | 11.37278 | 135° | 29km/h | 1937m | -1.5m/s | 11.8°C | 70.4% | 818.5hPa | 2.7V | 00:00:00 | 03:43:05 | 00:00:00 | |
| DO3MHA-12 | 2026-09-03 14:12:34 | 47.63613 | 11.37238 | 133° | 29km/h | 1947m | -2.0m/s | 11.8°C | 68.8% | 817.4hPa | 2.7V | 00:00:00 | 03:43:00 | 00:00:00 | |
| DO3MHA-11 | 2026-09-03 14:12:31 | 47.63628 | 11.37214 | 131° | 27km/h | 1954m | -2.3m/s | 11.7°C | 69.4% | 816.8hPa | 2.7V | 00:00:00 | 03:42:57 | 00:00:00 | |
| DO3MHA-12 | 2026-09-03 14:12:29 | 47.63636 | 11.37197 | 123° | 26km/h | 1958m | -2.0m/s | 11.7°C | 69.4% | 816.6hPa | 2.7V | 00:00:00 | 03:42:55 | 00:00:00 | |
| DO3MHA-11 | 2026-09-03 14:12:26 | 47.63643 | 11.37170 | 103° | 27km/h | 1964m | -1.9m/s | 11.6°C | 69.6% | 815.9hPa | 2.7V | 00:00:00 | 03:42:52 | 00:00:00 | |
| DO3MHA-12 | 2026-09-03 14:12:24 | 47.63646 | 11.37150 | 101° | 27km/h | 1968m | -2.3m/s | 11.6°C | 70.0% | 815.5hPa | 2.7V | 00:00:00 | 03:42:50 | 00:00:00 | |
| DO3MHA-11 | 2026-09-03 14:12:21 | 47.63651 | 11.37120 | 107° | 26km/h | 1974m | -2.2m/s | 11.6°C | 69.5% | 814.9hPa | 2.7V | 00:00:00 | 03:42:47 | 00:00:00 | |
| DO3MHA-12 | 2026-09-03 14:12:19 | 47.63655 | 11.37103 | 109° | 26km/h | 1979m | -1.8m/s | 11.5°C | 69.6% | 814.6hPa | 2.7V | 00:00:00 | 03:42:45 | 00:00:00 | |
| DO3MHA-11 | 2026-09-03 14:12:16 | 47.63660 | 11.37076 | 105° | 26km/h | 1985m | -1.5m/s | 11.5°C | 69.7% | 814.2hPa | 2.7V | 00:00:00 | 03:42:42 | 00:00:00 | |
| DO3MHA-12 | 2026-09-03 14:12:14 | 47.63663 | 11.37057 | 103° | 26km/h | 1989m | -1.5m/s | 11.4°C | 70.2% | 813.7hPa | 2.7V | 06:51:00 | 03:42:40 | 00:00:00 | |
| DO3MHA-11 | 2026-09-03 14:12:11 | 47.63668 | 11.37029 | 107° | 24km/h | 1995m | -2.5m/s | 11.3°C | 70.4% | 813.1hPa | 2.7V | 06:51:00 | 03:42:37 | 00:00:00 | |
| DO3MHA-12 | 2026-09-03 14:12:09 | 47.63671 | 11.37012 | 108° | 27km/h | 1999m | -1.5m/s | 11.3°C | 70.8% | 812.7hPa | 2.7V | 00:00:00 | 03:42:35 | 00:00:00 | |
| DO3MHA-11 | 2026-09-03 14:12:06 | 47.63677 | 11.36985 | 104° | 33km/h | 2006m | -1.6m/s | 11.2°C | 71.1% | 812.1hPa | 2.7V | 00:00:00 | 03:42:32 | 00:00:00 | |
| DO3MHA-12 | 2026-09-03 14:12:04 | 47.63681 | 11.36963 | 110° | 35km/h | 2010m | -1.6m/s | 11.2°C | 71.1% | 811.7hPa | 2.7V | 00:00:00 | 03:42:30 | 00:00:00 | |
| DO3MHA-11 | 2026-09-03 14:12:01 | 47.63691 | 11.36927 | 116° | 35km/h | 2016m | -1.8m/s | 11.1°C | 71.8% | 811.2hPa | 2.7V | 00:00:00 | 03:42:27 | 00:00:00 | |
| DO3MHA-12 | 2026-09-03 14:11:59 | 47.63699 | 11.36904 | 120° | 37km/h | 2020m | -1.8m/s | 11.1°C | 72.1% | 810.8hPa | 2.7V | 00:00:00 | 03:42:25 | 00:00:00 | |
| DO3MHA-11 | 2026-09-03 14:11:56 | 47.63712 | 11.36868 | 115° | 37km/h | 2025m | -2.2m/s | 11.0°C | 72.3% | 810.1hPa | 2.7V | 00:00:00 | 03:42:22 | 00:00:00 | |
| DO3MHA-12 | 2026-09-03 14:11:54 | 47.63720 | 11.36843 | 114° | 37km/h | 2029m | -1.5m/s | 11.0°C | 72.3% | 809.6hPa | 2.7V | 00:00:00 | 03:42:20 | 00:00:00 | |
| DO3MHA-11 | 2026-09-03 14:11:51 | 47.63733 | 11.36806 | 120° | 33km/h | 2035m | -1.5m/s | 10.9°C | 72.8% | 809.2hPa | 2.7V | 00:00:00 | 03:42:17 | 00:00:00 | |
| DO3MHA-12 | 2026-09-03 14:11:49 | 47.63742 | 11.36783 | 123° | 27km/h | 2038m | -1.6m/s | 10.9°C | 71.8% | 808.8hPa | 2.7V | 00:00:00 | 03:42:15 | 00:00:00 | |
| DO3MHA-11 | 2026-09-03 14:11:46 | 47.63753 | 11.36755 | 117° | 26km/h | 2043m | -1.1m/s | 10.9°C | 72.5% | 808.3hPa | 2.7V | 00:00:00 | 03:42:12 | 00:00:00 | |
| DO3MHA-12 | 2026-09-03 14:11:44 | 47.63759 | 11.36738 | 113° | 26km/h | 2046m | -1.9m/s | 10.9°C | 71.8% | 808.0hPa | 2.7V | 00:00:00 | 03:42:10 | 00:00:00 | |
| DO3MHA-11 | 2026-09-03 14:11:41 | 47.63768 | 11.36712 | 122° | 27km/h | 2053m | -1.3m/s | 11.0°C | 71.0% | 807.4hPa | 2.7V | 00:00:00 | 03:42:07 | 00:00:00 | |
| DO3MHA-12 | 2026-09-03 14:11:39 | 47.63776 | 11.36695 | 125° | 27km/h | 2056m | -2.0m/s | 10.9°C | 71.2% | 807.1hPa | 2.7V | 06:51:00 | 03:42:05 | 00:00:00 | |
| DO3MHA-11 | 2026-09-03 14:11:36 | 47.63788 | 11.36669 | 125° | 27km/h | 2062m | -2.6m/s | 10.9°C | 71.2% | 806.6hPa | 2.7V | 06:51:00 | 03:42:02 | 00:00:00 | |
| DO3MHA-12 | 2026-09-03 14:11:34 | 47.63795 | 11.36651 | 116° | 27km/h | 2067m | -1.5m/s | 10.8°C | 71.4% | 806.2hPa | 2.7V | 00:00:00 | 03:42:00 | 00:00:00 | |
| DO3MHA-11 | 2026-09-03 14:11:31 | 47.63801 | 11.36623 | 103° | 27km/h | 2073m | -2.2m/s | 10.8°C | 71.7% | 805.5hPa | 2.7V | 00:00:00 | 03:41:57 | 00:00:00 | |
| DO3MHA-12 | 2026-09-03 14:11:29 | 47.63803 | 11.36602 | 98° | 27km/h | 2078m | -2.2m/s | 10.7°C | 71.9% | 805.1hPa | 2.7V | 00:00:00 | 03:41:55 | 00:00:00 | |
| DO3MHA-11 | 2026-09-03 14:11:26 | 47.63806 | 11.36573 | 99° | 26km/h | 2085m | -2.0m/s | 10.6°C | 72.2% | 804.5hPa | 2.7V | 00:00:00 | 03:41:52 | 00:00:00 | |
| DO3MHA-12 | 2026-09-03 14:11:24 | 47.63808 | 11.36553 | 101° | 26km/h | 2089m | -2.0m/s | 10.6°C | 72.3% | 804.0hPa | 2.7V | 00:00:00 | 03:41:50 | 00:00:00 | |
| DO3MHA-11 | 2026-09-03 14:11:21 | 47.63813 | 11.36527 | 105° | 27km/h | 2096m | -2.0m/s | 10.5°C | 72.7% | 803.2hPa | 2.7V | 00:00:00 | 03:41:47 | 00:00:00 | |
| DO3MHA-12 | 2026-09-03 14:11:19 | 47.63815 | 11.36508 | 99° | 31km/h | 2100m | -2.0m/s | 10.5°C | 72.6% | 802.8hPa | 2.7V | 00:00:00 | 03:41:45 | 00:00:00 | |
| DO3MHA-11 | 2026-09-03 14:11:16 | 47.63819 | 11.36475 | 100° | 33km/h | 2107m | -2.1m/s | 10.5°C | 72.7% | 802.3hPa | 2.7V | 00:00:00 | 03:41:42 | 00:00:00 | |
| DO3MHA-12 | 2026-09-03 14:11:14 | 47.63823 | 11.36450 | 108° | 33km/h | 2111m | -1.5m/s | 10.4°C | 73.0% | 801.9hPa | 2.7V | 00:00:00 | 03:41:40 | 00:00:00 | |
| DO3MHA-11 | 2026-09-03 14:11:11 | 47.63832 | 11.36417 | 118° | 33km/h | 2115m | -0.9m/s | 10.4°C | 73.1% | 801.5hPa | 2.7V | 00:00:00 | 03:41:37 | 00:00:00 | |
| DO3MHA-12 | 2026-09-03 14:11:09 | 47.63840 | 11.36395 | 116° | 35km/h | 2117m | -1.3m/s | 10.4°C | 73.2% | 801.4hPa | 2.7V | 00:00:00 | 03:41:35 | 00:00:00 | |
| DO3MHA-11 | 2026-09-03 14:11:06 | 47.63850 | 11.36360 | 114° | 35km/h | 2122m | -1.9m/s | 10.3°C | 73.6% | 800.7hPa | 2.7V | 00:00:00 | 03:41:32 | 00:00:00 | |
| DO3MHA-12 | 2026-09-03 14:11:04 | 47.63857 | 11.36335 | 112° | 31km/h | 2127m | -2.0m/s | 10.2°C | 74.2% | 800.2hPa | 2.7V | 06:52:00 | 03:41:30 | 00:00:00 | |
| DO3MHA-11 | 2026-09-03 14:11:01 | 47.63866 | 11.36301 | 114° | 26km/h | 2133m | -2.0m/s | 10.1°C | 74.8% | 799.6hPa | 2.7V | 06:52:00 | 03:41:27 | 00:00:00 | |
| DO3MHA-12 | 2026-09-03 14:10:59 | 47.63871 | 11.36284 | 106° | 24km/h | 2138m | -1.8m/s | 10.0°C | 75.0% | 799.3hPa | 2.7V | 00:00:00 | 03:41:25 | 00:00:00 | |
| DO3MHA-11 | 2026-09-03 14:10:56 | 47.63873 | 11.36258 | 92° | 26km/h | 2144m | -2.1m/s | 10.0°C | 75.2% | 798.7hPa | 2.7V | 00:00:00 | 03:41:22 | 00:00:00 | |
| DO3MHA-12 | 2026-09-03 14:10:54 | 47.63874 | 11.36238 | 94° | 26km/h | 2149m | -2.6m/s | 9.9°C | 75.2% | 798.1hPa | 2.7V | 00:00:00 | 03:41:20 | 00:00:00 | |
| DO3MHA-11 | 2026-09-03 14:10:51 | 47.63874 | 11.36210 | 93° | 24km/h | 2156m | -2.0m/s | 9.9°C | 75.5% | 797.5hPa | 2.7V | 00:00:00 | 03:41:17 | 00:00:00 | |
| DO3MHA-12 | 2026-09-03 14:10:49 | 47.63875 | 11.36192 | 99° | 24km/h | 2160m | -2.4m/s | 9.8°C | 75.6% | 796.9hPa | 2.7V | 00:00:00 | 03:41:15 | 00:00:00 | |
| DO3MHA-11 | 2026-09-03 14:10:46 | 47.63876 | 11.36166 | 94° | 26km/h | 2167m | -1.8m/s | 9.8°C | 75.9% | 796.5hPa | 2.7V | 00:00:00 | 03:41:12 | 00:00:00 | |
| DO3MHA-12 | 2026-09-03 14:10:44 | 47.63877 | 11.36147 | 94° | 26km/h | 2170m | -2.1m/s | 9.8°C | 75.6% | 796.1hPa | 2.7V | 00:00:00 | 03:41:10 | 00:00:00 | |
| DG1MFX-10 | 2026-09-03 14:10:43 | 47.63877 | 11.36147 | 95° | 26km/h | 2170m | -2.1m/s | 9.9°C | 74.8% | 796.1hPa | 2.7V | 00:00:00 | 00:00:00 | 00:00:00 | |
| DO3MHA-11 | 2026-09-03 14:10:41 | 47.63878 | 11.36119 | 95° | 22km/h | 2177m | -2.0m/s | 9.8°C | 75.7% | 795.4hPa | 2.7V | 00:00:00 | 03:41:07 | 00:00:00 | |
| DO3MHA-12 | 2026-09-03 14:10:39 | 47.63880 | 11.36102 | 100° | 22km/h | 2181m | -2.0m/s | 9.9°C | 75.7% | 795.2hPa | 2.7V | 00:00:00 | 03:41:05 | 00:00:00 | |
| DO3MHA-11 | 2026-09-03 14:10:36 | 47.63883 | 11.36078 | 92° | 26km/h | 2188m | -1.9m/s | 9.8°C | 75.9% | 794.4hPa | 2.7V | 00:00:00 | 03:41:02 | 00:00:00 | |
| DO3MHA-12 | 2026-09-03 14:10:34 | 47.63883 | 11.36060 | 89° | 31km/h | 2191m | -1.7m/s | 9.8°C | 76.0% | 793.9hPa | 2.7V | 00:00:00 | 03:41:00 | 00:00:00 | |
| DO3MHA-11 | 2026-09-03 14:10:31 | 47.63884 | 11.36027 | 96° | 33km/h | 2196m | -1.3m/s | 9.7°C | 76.3% | 793.4hPa | 2.7V | 00:00:00 | 03:40:57 | 00:00:00 | |
| DO3MHA-12 | 2026-09-03 14:10:29 | 47.63887 | 11.36002 | 104° | 33km/h | 2200m | -1.4m/s | 9.7°C | 76.5% | 793.1hPa | 2.7V | 06:52:00 | 03:40:55 | 00:00:00 | |
| DO3MHA-11 | 2026-09-03 14:10:26 | 47.63894 | 11.35967 | 108° | 35km/h | 2205m | -1.8m/s | 9.7°C | 76.8% | 792.6hPa | 2.7V | 06:53:00 | 03:40:52 | 00:00:00 | |
| DO3MHA-12 | 2026-09-03 14:10:24 | 47.63899 | 11.35943 | 102° | 35km/h | 2209m | -2.0m/s | 9.6°C | 76.9% | 792.2hPa | 2.7V | 00:00:00 | 03:40:50 | 00:00:00 | |
| DO3MHA-11 | 2026-09-03 14:10:21 | 47.63904 | 11.35903 | 102° | 33km/h | 2215m | -2.0m/s | 9.6°C | 77.0% | 791.7hPa | 2.7V | 00:00:00 | 03:40:47 | 00:00:00 | |
| DO3MHA-12 | 2026-09-03 14:10:19 | 47.63908 | 11.35878 | 109° | 27km/h | 2220m | -2.2m/s | 9.5°C | 77.3% | 791.4hPa | 2.7V | 00:00:00 | 03:40:45 | 00:00:00 | |
| DO3MHA-11 | 2026-09-03 14:10:16 | 47.63915 | 11.35848 | 107° | 24km/h | 2226m | -2.0m/s | 9.5°C | 77.6% | 790.7hPa | 2.7V | 00:00:00 | 03:40:42 | 00:00:00 | |
| DO3MHA-12 | 2026-09-03 14:10:14 | 47.63918 | 11.35831 | 95° | 24km/h | 2230m | -1.9m/s | 9.4°C | 77.8% | 790.4hPa | 2.7V | 00:00:00 | 03:40:40 | 00:00:00 | |
| DO3MHA-11 | 2026-09-03 14:10:11 | 47.63917 | 11.35803 | 90° | 24km/h | 2235m | -2.0m/s | 9.4°C | 78.2% | 789.7hPa | 2.7V | 00:00:00 | 03:40:37 | 00:00:00 | |
| DO3MHA-12 | 2026-09-03 14:10:09 | 47.63917 | 11.35785 | 87° | 22km/h | 2239m | -1.9m/s | 9.4°C | 78.4% | 789.3hPa | 2.7V | 00:00:00 | 03:40:35 | 00:00:00 | |
| DO3MHA-11 | 2026-09-03 14:10:06 | 47.63918 | 11.35759 | 103° | 22km/h | 2245m | -2.4m/s | 9.3°C | 78.6% | 788.8hPa | 2.7V | 00:00:00 | 03:40:32 | 00:00:00 | |
| DO3MHA-12 | 2026-09-03 14:10:04 | 47.63919 | 11.35743 | 99° | 22km/h | 2249m | -1.9m/s | 9.3°C | 79.0% | 788.4hPa | 2.7V | 00:00:00 | 03:40:30 | 00:00:00 | |
| DO3MHA-11 | 2026-09-03 14:10:01 | 47.63921 | 11.35718 | 87° | 24km/h | 2255m | -1.7m/s | 9.2°C | 79.2% | 787.8hPa | 2.7V | 00:00:00 | 03:40:27 | 00:00:00 | |
| DO3MHA-12 | 2026-09-03 14:09:59 | 47.63919 | 11.35700 | 84° | 24km/h | 2258m | -2.0m/s | 9.2°C | 79.4% | 787.4hPa | 2.7V | 00:00:00 | 03:40:25 | 00:00:00 | |
| DO3MHA-11 | 2026-09-03 14:09:56 | 47.63918 | 11.35673 | 91° | 20km/h | 2264m | -2.0m/s | 9.2°C | 81.0% | 786.8hPa | 2.7V | 00:00:00 | 03:40:22 | 00:00:00 | |
| DO3MHA-12 | 2026-09-03 14:09:54 | 47.63919 | 11.35657 | 97° | 20km/h | 2268m | -1.9m/s | 9.1°C | 81.2% | 786.4hPa | 2.7V | 06:53:00 | 03:40:20 | 00:00:00 | |
| DO3MHA-11 | 2026-09-03 14:09:51 | 47.63921 | 11.35634 | 95° | 20km/h | 2274m | -2.4m/s | 9.0°C | 81.3% | 785.7hPa | 2.7V | 06:53:00 | 03:40:17 | 00:00:00 | |
| DO3MHA-12 | 2026-09-03 14:09:49 | 47.63921 | 11.35619 | 90° | 20km/h | 2279m | -2.7m/s | 9.0°C | 81.3% | 785.3hPa | 2.7V | 00:00:00 | 03:40:15 | 00:00:00 | |
| DO3MHA-11 | 2026-09-03 14:09:46 | 47.63920 | 11.35595 | 87° | 20km/h | 2287m | -2.3m/s | 9.0°C | 81.5% | 784.7hPa | 2.7V | 00:00:00 | 03:40:12 | 00:00:00 | |
| DO3MHA-12 | 2026-09-03 14:09:44 | 47.63920 | 11.35580 | 98° | 20km/h | 2291m | -1.8m/s | 8.9°C | 81.5% | 784.4hPa | 2.7V | 00:00:00 | 03:40:10 | 00:00:00 | |
| DO3MHA-11 | 2026-09-03 14:09:41 | 47.63922 | 11.35559 | 99° | 18km/h | 2297m | -1.8m/s | 8.9°C | 81.6% | 783.8hPa | 2.7V | 00:00:00 | 03:40:07 | 00:00:00 | |
| DO3MHA-12 | 2026-09-03 14:09:39 | 47.63923 | 11.35545 | 91° | 20km/h | 2301m | -1.7m/s | 8.9°C | 81.8% | 783.4hPa | 2.7V | 00:00:00 | 03:40:05 | 00:00:00 | |
| DO3MHA-11 | 2026-09-03 14:09:36 | 47.63922 | 11.35523 | 81° | 27km/h | 2307m | -2.1m/s | 8.8°C | 82.1% | 782.6hPa | 2.7V | 00:00:00 | 03:40:02 | 00:00:00 | |
| DG1MJG | 2026-09-03 14:09:34 | 47.63921 | 11.35514 | 84° | 26km/h | 2309m | -2.4m/s | 8.9°C | 81.3% | 782.6hPa | 2.7V | 00:00:00 | 00:00:00 | 00:00:00 | |
| DO3MHA-11 | 2026-09-03 14:09:31 | 47.63922 | 11.35472 | 101° | 31km/h | 2316m | -2.1m/s | 8.8°C | 82.5% | 781.7hPa | 2.7V | 00:00:00 | 03:39:57 | 00:00:00 | |
| DO3MHA-12 | 2026-09-03 14:09:29 | 47.63925 | 11.35449 | 103° | 31km/h | 2320m | -1.8m/s | 8.7°C | 82.5% | 781.3hPa | 2.7V | 00:00:00 | 03:39:55 | 00:00:00 | |
| DO3MHA-11 | 2026-09-03 14:09:26 | 47.63929 | 11.35415 | 93° | 31km/h | 2326m | -2.3m/s | 8.7°C | 82.7% | 780.6hPa | 2.7V | 00:00:00 | 03:39:52 | 00:00:00 | |
| DO3MHA-12 | 2026-09-03 14:09:24 | 47.63929 | 11.35392 | 89° | 29km/h | 2331m | -1.9m/s | 8.8°C | 80.1% | 780.4hPa | 2.7V | 00:00:00 | 03:39:50 | 00:00:00 | |
| DO3MHA-11 | 2026-09-03 14:09:21 | 47.63930 | 11.35357 | 101° | 27km/h | 2337m | -1.9m/s | 8.8°C | 79.1% | 779.7hPa | 2.7V | 00:00:00 | 03:39:47 | 00:00:00 | |
| DO3MHA-12 | 2026-09-03 14:09:19 | 47.63933 | 11.35337 | 107° | 27km/h | 2341m | -2.0m/s | 8.8°C | 79.0% | 779.4hPa | 2.7V | 06:54:00 | 03:39:45 | 00:00:00 | |
| DO3MHA-11 | 2026-09-03 14:09:16 | 47.63939 | 11.35308 | 107° | 29km/h | 2346m | -1.8m/s | 8.8°C | 79.1% | 778.8hPa | 2.7V | 06:54:00 | 03:39:42 | 00:00:00 | |
| DO3MHA-12 | 2026-09-03 14:09:14 | 47.63943 | 11.35288 | 105° | 29km/h | 2350m | -2.0m/s | 8.8°C | 79.1% | 778.5hPa | 2.7V | 00:00:00 | 03:39:40 | 00:00:00 | |
| DO3MHA-11 | 2026-09-03 14:09:11 | 47.63949 | 11.35254 | 105° | 26km/h | 2357m | -2.2m/s | 8.8°C | 79.4% | 777.8hPa | 2.7V | 00:00:00 | 03:39:37 | 00:00:00 | |
| DO3MHA-12 | 2026-09-03 14:09:09 | 47.63953 | 11.35234 | 110° | 22km/h | 2361m | -2.0m/s | 8.7°C | 79.9% | 777.4hPa | 2.7V | 00:00:00 | 03:39:35 | 00:00:00 | |
| DO3MHA-11 | 2026-09-03 14:09:06 | 47.63958 | 11.35209 | 104° | 20km/h | 2367m | -2.0m/s | 8.7°C | 80.3% | 776.7hPa | 2.7V | 00:00:00 | 03:39:32 | 00:00:00 | |
| DO3MHA-12 | 2026-09-03 14:09:04 | 47.63959 | 11.35195 | 88° | 20km/h | 2371m | -1.9m/s | 8.6°C | 80.7% | 776.4hPa | 2.7V | 00:00:00 | 03:39:30 | 00:00:00 | |
| DO3MHA-12 | 2026-09-03 14:08:59 | 47.63955 | 11.35156 | 82° | 18km/h | 2381m | -2.1m/s | 8.6°C | 80.8% | 775.4hPa | 2.7V | 00:00:00 | 03:39:25 | 00:00:00 | |
| DO3MHA-11 | 2026-09-03 14:08:56 | 47.63953 | 11.35136 | 86° | 20km/h | 2387m | -2.0m/s | 8.5°C | 80.8% | 774.9hPa | 2.7V | 00:00:00 | 03:39:22 | 00:00:00 | |
| DO3MHA-12 | 2026-09-03 14:08:54 | 47.63952 | 11.35122 | 80° | 26km/h | 2391m | -1.9m/s | 8.4°C | 81.1% | 774.5hPa | 2.7V | 00:00:00 | 03:39:20 | 00:00:00 | |
| DO3MHA-11 | 2026-09-03 14:08:51 | 47.63949 | 11.35095 | 85° | 29km/h | 2396m | -2.0m/s | 8.3°C | 82.0% | 774.0hPa | 2.7V | 00:00:00 | 03:39:17 | 00:00:00 | |
| DO3MHA-12 | 2026-09-03 14:08:49 | 47.63949 | 11.35073 | 91° | 31km/h | 2400m | -2.1m/s | 8.3°C | 81.9% | 773.6hPa | 2.7V | 00:00:00 | 03:39:15 | 00:00:00 | |
| DO3MHA-11 | 2026-09-03 14:08:46 | 47.63949 | 11.35038 | 91° | 31km/h | 2406m | -1.9m/s | 8.2°C | 82.3% | 772.9hPa | 2.7V | 00:00:00 | 03:39:12 | 00:00:00 | |
| DO3MHA-12 | 2026-09-03 14:08:44 | 47.63949 | 11.35015 | 86° | 31km/h | 2410m | -1.9m/s | 8.2°C | 82.5% | 772.8hPa | 2.7V | 06:54:00 | 03:39:10 | 00:00:00 | |
| DG1MJG | 2026-09-03 14:08:43 | 47.63949 | 11.35015 | 86° | 31km/h | 2410m | -1.9m/s | 8.2°C | 81.6% | 772.8hPa | 2.7V | 00:00:00 | 00:00:00 | 00:00:00 | |
| DO3MHA-11 | 2026-09-03 14:08:41 | 47.63947 | 11.34980 | 88° | 33km/h | 2416m | -1.9m/s | 8.1°C | 82.7% | 772.2hPa | 2.7V | 06:54:00 | 03:39:07 | 00:00:00 | |
| DO3MHA-12 | 2026-09-03 14:08:39 | 47.63947 | 11.34955 | 97° | 29km/h | 2419m | -1.9m/s | 8.0°C | 83.1% | 771.9hPa | 2.7V | 00:00:00 | 03:39:05 | 00:00:00 | |
| DO3MHA-11 | 2026-09-03 14:08:36 | 47.63953 | 11.34921 | 107° | 24km/h | 2424m | -1.4m/s | 8.0°C | 83.3% | 771.3hPa | 2.7V | 00:00:00 | 03:39:02 | 00:00:00 | |
| DO3MHA-12 | 2026-09-03 14:08:34 | 47.63956 | 11.34904 | 99° | 22km/h | 2427m | -1.4m/s | 8.0°C | 83.4% | 771.1hPa | 2.7V | 00:00:00 | 03:39:00 | 00:00:00 | |
| DO3MHA-11 | 2026-09-03 14:08:31 | 47.63956 | 11.34880 | 88° | 20km/h | 2431m | -1.6m/s | 8.0°C | 83.4% | 770.7hPa | 2.7V | 00:00:00 | 03:38:57 | 00:00:00 | |
| DO3MHA-12 | 2026-09-03 14:08:29 | 47.63956 | 11.34864 | 92° | 20km/h | 2435m | -1.5m/s | 7.9°C | 83.6% | 770.3hPa | 2.7V | 00:00:00 | 03:38:55 | 00:00:00 | |
| DO3MHA-11 | 2026-09-03 14:08:26 | 47.63958 | 11.34843 | 104° | 20km/h | 2439m | -1.7m/s | 7.9°C | 83.8% | 769.9hPa | 2.7V | 00:00:00 | 03:38:52 | 00:00:00 | |
| DO3MHA-12 | 2026-09-03 14:08:24 | 47.63960 | 11.34829 | 100° | 24km/h | 2442m | -1.4m/s | 7.9°C | 83.9% | 769.7hPa | 2.7V | 00:00:00 | 03:38:50 | 00:00:00 | |
| DO3MHA-11 | 2026-09-03 14:08:21 | 47.63960 | 11.34803 | 85° | 27km/h | 2447m | -1.8m/s | 7.8°C | 84.1% | 769.2hPa | 2.7V | 00:00:00 | 03:38:47 | 00:00:00 | |
| DO3MHA-12 | 2026-09-03 14:08:19 | 47.63958 | 11.34783 | 81° | 27km/h | 2450m | -1.7m/s | 7.8°C | 84.3% | 768.9hPa | 2.7V | 00:00:00 | 03:38:45 | 00:00:00 | |
| DO3MHA-11 | 2026-09-03 14:08:16 | 47.63954 | 11.34752 | 76° | 26km/h | 2454m | -1.5m/s | 7.7°C | 84.3% | 768.4hPa | 2.7V | 00:00:00 | 03:38:42 | 00:00:00 | |
| DO3MHA-12 | 2026-09-03 14:08:14 | 47.63951 | 11.34733 | 77° | 27km/h | 2458m | -1.8m/s | 7.7°C | 84.3% | 768.2hPa | 2.7V | 00:00:00 | 03:38:40 | 00:00:00 | |
| DO3MHA-11 | 2026-09-03 14:08:11 | 47.63947 | 11.34703 | 81° | 31km/h | 2463m | -1.7m/s | 7.7°C | 84.2% | 767.7hPa | 2.7V | 00:00:00 | 03:38:37 | 00:00:00 | |
| DO3MHA-12 | 2026-09-03 14:08:09 | 47.63945 | 11.34680 | 87° | 33km/h | 2466m | -1.4m/s | 7.7°C | 83.7% | 767.4hPa | 2.7V | 06:55:00 | 03:38:35 | 00:00:00 | |
| DO3MHA-11 | 2026-09-03 14:08:06 | 47.63946 | 11.34644 | 98° | 29km/h | 2471m | -1.2m/s | 7.7°C | 82.2% | 767.1hPa | 2.7V | 06:55:00 | 03:38:32 | 00:00:00 | |
| DO3MHA-12 | 2026-09-03 14:08:04 | 47.63949 | 11.34622 | 106° | 27km/h | 2473m | -1.4m/s | 7.6°C | 82.2% | 766.9hPa | 2.7V | 00:00:00 | 03:38:30 | 00:00:00 | |
| DO3MHA-11 | 2026-09-03 14:08:01 | 47.63955 | 11.34593 | 112° | 27km/h | 2478m | -1.0m/s | 7.6°C | 82.8% | 766.4hPa | 2.7V | 00:00:00 | 03:38:27 | 00:00:00 | |
| DO3MHA-12 | 2026-09-03 14:07:59 | 47.63959 | 11.34574 | 109° | 29km/h | 2480m | -1.8m/s | 7.6°C | 82.5% | 766.0hPa | 2.7V | 00:00:00 | 03:38:25 | 00:00:00 | |
| DG1MJG | 2026-09-03 14:07:57 | 47.63962 | 11.34564 | 109° | 31km/h | 2482m | -0.9m/s | 0°C | 0% | 0hPa | 2.7V | 00:00:00 | 00:00:00 | 00:00:00 | |
| DO3MHA-11 | 2026-09-03 14:07:56 | 47.63967 | 11.34542 | 111° | 27km/h | 2484m | -1.6m/s | 7.5°C | 82.8% | 765.7hPa | 2.7V | 00:00:00 | 03:38:22 | 00:00:00 | |
| DO3MHA-12 | 2026-09-03 14:07:54 | 47.63972 | 11.34522 | 110° | 24km/h | 2487m | -1.4m/s | 7.5°C | 84.2% | 765.3hPa | 2.7V | 00:00:00 | 03:38:20 | 00:00:00 | |
| DO3MHA-11 | 2026-09-03 14:07:51 | 47.63978 | 11.34496 | 99° | 24km/h | 2492m | -1.5m/s | 7.5°C | 84.2% | 765.0hPa | 2.7V | 00:00:00 | 03:38:17 | 00:00:00 | |
| DO3MHA-12 | 2026-09-03 14:07:49 | 47.63978 | 11.34480 | 88° | 26km/h | 2494m | -2.1m/s | 7.4°C | 84.4% | 764.7hPa | 2.7V | 00:00:00 | 03:38:15 | 00:00:00 | |
| DO3MHA-11 | 2026-09-03 14:07:46 | 47.63976 | 11.34451 | 82° | 26km/h | 2499m | -2.0m/s | 7.4°C | 84.6% | 764.3hPa | 2.7V | 00:00:00 | 03:38:12 | 00:00:00 | |
| DO3MHA-12 | 2026-09-03 14:07:44 | 47.63974 | 11.34432 | 83° | 26km/h | 2503m | -1.4m/s | 7.4°C | 84.9% | 764.0hPa | 2.7V | 00:00:00 | 03:38:10 | 00:00:00 | |
| DO3MHA-11 | 2026-09-03 14:07:41 | 47.63970 | 11.34405 | 80° | 29km/h | 2508m | -1.7m/s | 7.3°C | 85.5% | 763.4hPa | 2.7V | 00:00:00 | 03:38:07 | 00:00:00 | |
| DO3MHA-12 | 2026-09-03 14:07:39 | 47.63968 | 11.34384 | 84° | 31km/h | 2511m | -2.0m/s | 7.3°C | 85.5% | 763.2hPa | 2.7V | 00:00:00 | 03:38:05 | 00:00:00 | |
| DO3MHA-11 | 2026-09-03 14:07:36 | 47.63968 | 11.34349 | 98° | 33km/h | 2516m | -1.2m/s | 7.2°C | 86.1% | 762.8hPa | 2.7V | 00:00:00 | 03:38:02 | 00:00:00 | |
| DO3MHA-12 | 2026-09-03 14:07:34 | 47.63971 | 11.34325 | 103° | 33km/h | 2519m | -1.9m/s | 7.2°C | 86.2% | 762.5hPa | 2.7V | 06:55:00 | 03:38:00 | 00:00:00 | |
| DO3MHA-11 | 2026-09-03 14:07:31 | 47.63976 | 11.34289 | 101° | 35km/h | 2525m | -1.6m/s | 7.2°C | 86.3% | 762.1hPa | 2.7V | 06:55:00 | 03:37:57 | 00:00:00 | |
| DO3MHA-12 | 2026-09-03 14:07:29 | 47.63980 | 11.34264 | 102° | 33km/h | 2529m | -2.0m/s | 7.2°C | 86.2% | 761.8hPa | 2.7V | 00:00:00 | 03:37:55 | 00:00:00 | |
| DO3MHA-11 | 2026-09-03 14:07:26 | 47.63985 | 11.34228 | 108° | 26km/h | 2534m | -1.4m/s | 7.1°C | 86.8% | 761.3hPa | 2.7V | 00:00:00 | 03:37:52 | 00:00:00 | |
| DO3MHA-12 | 2026-09-03 14:07:24 | 47.63990 | 11.34208 | 106° | 22km/h | 2537m | -2.1m/s | 7.1°C | 86.8% | 761.0hPa | 2.7V | 00:00:00 | 03:37:50 | 00:00:00 | |
| DO3MHA-11 | 2026-09-03 14:07:21 | 47.63993 | 11.34183 | 93° | 20km/h | 2542m | -1.7m/s | 7.1°C | 86.3% | 760.6hPa | 2.7V | 00:00:00 | 03:37:47 | 00:00:00 | |
| DO3MHA-12 | 2026-09-03 14:07:19 | 47.63993 | 11.34168 | 91° | 20km/h | 2545m | -1.9m/s | 7.0°C | 86.5% | 760.2hPa | 2.7V | 00:00:00 | 03:37:45 | 00:00:00 | |
| DO3MHA-11 | 2026-09-03 14:07:16 | 47.63995 | 11.34146 | 102° | 20km/h | 2551m | -1.9m/s | 7.0°C | 86.6% | 759.7hPa | 2.7V | 00:00:00 | 03:37:42 | 00:00:00 | |
| DO3MHA-12 | 2026-09-03 14:07:14 | 47.63997 | 11.34131 | 98° | 24km/h | 2555m | -1.6m/s | 6.9°C | 86.8% | 759.2hPa | 2.7V | 00:00:00 | 03:37:40 | 00:00:00 | |
| DO3MHA-11 | 2026-09-03 14:07:11 | 47.63997 | 11.34107 | 86° | 29km/h | 2560m | -1.2m/s | 6.9°C | 87.4% | 758.8hPa | 2.7V | 00:00:00 | 03:37:37 | 00:00:00 | |
| DO3MHA-12 | 2026-09-03 14:07:09 | 47.63996 | 11.34086 | 85° | 29km/h | 2562m | -1.3m/s | 6.8°C | 87.5% | 758.6hPa | 2.7V | 00:00:00 | 03:37:35 | 00:00:00 | |
| DO3MHA-11 | 2026-09-03 14:07:06 | 47.63994 | 11.34052 | 85° | 29km/h | 2568m | -2.0m/s | 6.8°C | 87.6% | 758.1hPa | 2.7V | 00:00:00 | 03:37:32 | 00:00:00 | |
| DO3MHA-12 | 2026-09-03 14:07:04 | 47.63992 | 11.34030 | 82° | 31km/h | 2573m | -1.6m/s | 6.8°C | 88.2% | 757.7hPa | 2.7V | 00:00:00 | 03:37:30 | 00:00:00 | |
| DO3MHA-11 | 2026-09-03 14:07:01 | 47.63990 | 11.33996 | 92° | 33km/h | 2578m | -2.0m/s | 6.7°C | 88.6% | 757.2hPa | 2.7V | 00:00:00 | 03:37:27 | 00:00:00 | |
| DO3MHA-12 | 2026-09-03 14:06:59 | 47.63992 | 11.33971 | 99° | 33km/h | 2582m | -1.7m/s | 6.7°C | 89.2% | 756.9hPa | 2.7V | 06:56:00 | 03:37:25 | 00:00:00 | |
| DO3MHA-11 | 2026-09-03 14:06:56 | 47.63999 | 11.33935 | 106° | 33km/h | 2587m | -1.5m/s | 6.6°C | 89.3% | 756.4hPa | 2.7V | 06:56:00 | 03:37:22 | 00:00:00 | |
| DO3MHA-12 | 2026-09-03 14:06:54 | 47.64003 | 11.33911 | 108° | 33km/h | 2591m | -1.7m/s | 6.6°C | 89.7% | 755.9hPa | 2.7V | 00:00:00 | 03:37:20 | 00:00:00 | |
| DO3MHA-11 | 2026-09-03 14:06:51 | 47.64010 | 11.33876 | 107° | 29km/h | 2598m | -2.0m/s | 6.6°C | 90.9% | 755.4hPa | 2.7V | 00:00:00 | 03:37:17 | 00:00:00 | |
| DO3MHA-12 | 2026-09-03 14:06:49 | 47.64015 | 11.33853 | 111° | 29km/h | 2602m | -2.1m/s | 6.6°C | 91.2% | 755.1hPa | 2.7V | 00:00:00 | 03:37:15 | 00:00:00 | |
| DO3MHA-11 | 2026-09-03 14:06:45 | 47.64024 | 11.33813 | 99° | 31km/h | 2610m | -1.1m/s | 6.5°C | 91.6% | 754.5hPa | 2.7V | 00:00:00 | 03:37:11 | 00:00:00 | |
| DO3MHA-12 | 2026-09-03 14:06:44 | 47.64025 | 11.33802 | 93° | 33km/h | 2611m | -1.3m/s | 6.5°C | 91.9% | 754.4hPa | 2.7V | 00:00:00 | 03:37:10 | 00:00:00 | |
| DO3MHA-11 | 2026-09-03 14:06:40 | 47.64025 | 11.33754 | 93° | 33km/h | 2618m | -1.8m/s | 6.5°C | 92.2% | 753.7hPa | 2.7V | 00:00:00 | 03:37:06 | 00:00:00 | |
| DO3MHA-12 | 2026-09-03 14:06:39 | 47.64026 | 11.33740 | 97° | 33km/h | 2619m | -1.7m/s | 6.4°C | 92.3% | 753.4hPa | 2.7V | 00:00:00 | 03:37:05 | 00:00:00 | |
| DO3MHA-11 | 2026-09-03 14:06:35 | 47.64027 | 11.33691 | 92° | 35km/h | 2627m | -1.9m/s | 6.4°C | 92.4% | 752.9hPa | 2.7V | 00:00:00 | 03:37:01 | 00:00:00 | |
| DO3MHA-12 | 2026-09-03 14:06:34 | 47.64028 | 11.33679 | 92° | 35km/h | 2629m | -2.0m/s | 6.4°C | 92.5% | 752.6hPa | 2.7V | 00:00:00 | 03:37:00 | 00:00:00 | |
| DO3MHA-11 | 2026-09-03 14:06:30 | 47.64028 | 11.33626 | 90° | 35km/h | 2636m | -1.6m/s | 6.3°C | 92.9% | 752.0hPa | 2.7V | 00:00:00 | 03:36:56 | 00:00:00 | |
| DO3MHA-12 | 2026-09-03 14:06:29 | 47.64028 | 11.33612 | 90° | 35km/h | 2638m | -1.7m/s | 6.3°C | 92.7% | 751.7hPa | 2.7V | 00:00:00 | 03:36:55 | 00:00:00 | |
| DO3MHA-11 | 2026-09-03 14:06:25 | 47.64027 | 11.33560 | 86° | 37km/h | 2644m | -1.7m/s | 6.2°C | 92.9% | 751.3hPa | 2.7V | 00:00:00 | 03:36:51 | 00:00:00 | |
| DO3MHA-12 | 2026-09-03 14:06:24 | 47.64027 | 11.33548 | 92° | 37km/h | 2646m | -1.6m/s | 6.2°C | 92.8% | 751.1hPa | 2.7V | 06:57:00 | 03:36:50 | 00:00:00 | |
| DO3MHA-11 | 2026-09-03 14:06:20 | 47.64029 | 11.33492 | 97° | 40km/h | 2653m | -1.9m/s | 6.3°C | 92.1% | 750.4hPa | 2.7V | 06:57:00 | 03:36:46 | 00:00:00 | |
| DO3MHA-12 | 2026-09-03 14:06:19 | 47.64030 | 11.33478 | 98° | 40km/h | 2654m | -1.8m/s | 6.3°C | 91.8% | 750.1hPa | 2.7V | 00:00:00 | 03:36:45 | 00:00:00 | |
| DG1MJG | 2026-09-03 14:06:17 | 47.64031 | 11.33463 | 93° | 40km/h | 2656m | -1.9m/s | 6.4°C | 0% | 750.2hPa | 2.7V | 00:00:00 | 00:00:00 | 00:00:00 | |
| DO3MHA-11 | 2026-09-03 14:06:15 | 47.64032 | 11.33419 | 93° | 38km/h | 2662m | -2.0m/s | 6.3°C | 91.5% | 749.7hPa | 2.7V | 00:00:00 | 03:36:41 | 00:00:00 | |
| DO3MHA-12 | 2026-09-03 14:06:14 | 47.64033 | 11.33404 | 95° | 38km/h | 2664m | -1.6m/s | 6.3°C | 91.7% | 749.5hPa | 2.7V | 00:00:00 | 03:36:40 | 00:00:00 | |
| DO3MHA-11 | 2026-09-03 14:06:10 | 47.64040 | 11.33348 | 107° | 31km/h | 2670m | -1.0m/s | 6.4°C | 88.6% | 748.9hPa | 2.7V | 00:00:00 | 03:36:36 | 00:00:00 | |
| DO3MHA-12 | 2026-09-03 14:06:09 | 47.64043 | 11.33336 | 107° | 31km/h | 2671m | -1.5m/s | 6.4°C | 88.1% | 748.8hPa | 2.7V | 00:00:00 | 03:36:35 | 00:00:00 | |
| DO3MHA-11 | 2026-09-03 14:06:05 | 47.64047 | 11.33292 | 89° | 31km/h | 2677m | -1.5m/s | 6.4°C | 87.1% | 748.4hPa | 2.7V | 00:00:00 | 03:36:31 | 00:00:00 | |
| DO3MHA-12 | 2026-09-03 14:06:04 | 47.64046 | 11.33280 | 89° | 31km/h | 2678m | -1.2m/s | 6.4°C | 87.2% | 748.1hPa | 2.7V | 00:00:00 | 03:36:30 | 00:00:00 | |
| DO3MHA-11 | 2026-09-03 14:06:00 | 47.64044 | 11.33232 | 85° | 31km/h | 2684m | -1.1m/s | 6.4°C | 87.0% | 747.6hPa | 2.7V | 00:00:00 | 03:36:26 | 00:00:00 | |
| DO3MHA-12 | 2026-09-03 14:05:59 | 47.64043 | 11.33221 | 86° | 31km/h | 2685m | -1.4m/s | 6.4°C | 86.7% | 747.5hPa | 2.7V | 00:00:00 | 03:36:25 | 00:00:00 | |
| DO3MHA-11 | 2026-09-03 14:05:55 | 47.64040 | 11.33173 | 83° | 37km/h | 2690m | -1.3m/s | 6.3°C | 86.2% | 746.8hPa | 2.7V | 00:00:00 | 03:36:21 | 00:00:00 | |
| DO3MHA-12 | 2026-09-03 14:05:54 | 47.64038 | 11.33160 | 83° | 37km/h | 2692m | -1.6m/s | 6.3°C | 86.3% | 746.8hPa | 2.7V | 00:00:00 | 03:36:20 | 00:00:00 | |
| DO3MHA-11 | 2026-09-03 14:05:50 | 47.64034 | 11.33104 | 81° | 35km/h | 2698m | -1.7m/s | 6.4°C | 84.3% | 746.0hPa | 2.7V | 00:00:00 | 03:36:16 | 00:00:00 | |
| DO3MHA-12 | 2026-09-03 14:05:49 | 47.64032 | 11.33091 | 80° | 35km/h | 2700m | -2.1m/s | 6.4°C | 83.5% | 746.0hPa | 2.7V | 06:57:00 | 03:36:15 | 00:00:00 | |
| DG1MJG | 2026-09-03 14:05:46 | 47.64030 | 11.33065 | 83° | 35km/h | 2704m | -2.4m/s | 6.4°C | 82.3% | 745.8hPa | 2.7V | 00:00:00 | 00:00:00 | 00:00:00 | |
| DO3MHA-11 | 2026-09-03 14:05:45 | 47.64027 | 11.33039 | 83° | 40km/h | 2708m | -1.8m/s | 6.3°C | 83.7% | 745.3hPa | 2.7V | 06:57:00 | 03:36:11 | 00:00:00 | |
| DO3MHA-12 | 2026-09-03 14:05:44 | 47.64026 | 11.33025 | 83° | 40km/h | 2710m | -1.7m/s | 6.3°C | 83.7% | 745.2hPa | 2.7V | 00:00:00 | 03:36:10 | 00:00:00 | |
| DG1MFX-10 | 2026-09-03 14:05:43 | 47.64026 | 11.33025 | 83° | 38km/h | 2710m | -1.8m/s | 6.4°C | 82.5% | 745.2hPa | 2.7V | 06:58:00 | 00:00:00 | 00:00:00 | |
| DO3MHA-11 | 2026-09-03 14:05:40 | 47.64025 | 11.32963 | 96° | 42km/h | 2716m | -1.0m/s | 6.3°C | 83.1% | 744.6hPa | 2.7V | 00:00:00 | 03:36:06 | 00:00:00 | |
| DO3MHA-12 | 2026-09-03 14:05:39 | 47.64027 | 11.32948 | 99° | 42km/h | 2717m | -1.1m/s | 6.3°C | 82.7% | 744.5hPa | 2.7V | 00:00:00 | 03:36:05 | 00:00:00 | |
| DO3MHA-11 | 2026-09-03 14:05:35 | 47.64034 | 11.32887 | 102° | 42km/h | 2723m | -1.3m/s | 6.3°C | 81.7% | 744.0hPa | 2.7V | 00:00:00 | 03:36:01 | 00:00:00 | |
| DO3MHA-11 | 2026-09-03 14:05:30 | 47.64044 | 11.32810 | 102° | 35km/h | 2730m | -1.5m/s | 6.3°C | 81.2% | 743.3hPa | 2.7V | 00:00:00 | 03:35:56 | 00:00:00 | |
| DO3MHA-12 | 2026-09-03 14:05:29 | 47.64046 | 11.32796 | 100° | 33km/h | 2731m | -1.2m/s | 6.3°C | 81.4% | 743.2hPa | 2.7V | 00:00:00 | 03:35:55 | 00:00:00 | |
| DO3MHA-11 | 2026-09-03 14:05:25 | 47.64048 | 11.32747 | 87° | 33km/h | 2736m | -1.8m/s | 6.3°C | 80.8% | 742.8hPa | 2.7V | 00:00:00 | 03:35:51 | 00:00:00 | |
| DO3MHA-12 | 2026-09-03 14:05:24 | 47.64047 | 11.32735 | 83° | 33km/h | 2738m | -1.6m/s | 6.3°C | 80.1% | 742.5hPa | 2.7V | 00:00:00 | 03:35:50 | 00:00:00 | |
| DG1MFX-10 | 2026-09-03 14:05:23 | 47.64047 | 11.32735 | 83° | 35km/h | 2738m | -1.7m/s | 6.4°C | 79.0% | 742.6hPa | 2.7V | 00:00:00 | 00:00:00 | 00:00:00 | |
| DO3MHA-11 | 2026-09-03 14:05:20 | 47.64043 | 11.32686 | 83° | 33km/h | 2745m | -1.6m/s | 6.4°C | 77.2% | 742.0hPa | 2.7V | 00:00:00 | 03:35:46 | 00:00:00 | |
| DO3MHA-12 | 2026-09-03 14:05:19 | 47.64042 | 11.32674 | 82° | 35km/h | 2747m | -1.3m/s | 6.5°C | 73.1% | 741.8hPa | 2.7V | 00:00:00 | 03:35:45 | 00:00:00 | |
| DO3MHA-12 | 2026-09-03 14:05:14 | 47.64035 | 11.32606 | 81° | 42km/h | 2755m | -1.4m/s | 6.4°C | 74.4% | 741.0hPa | 2.7V | 06:58:00 | 03:35:40 | 00:00:00 | |
| DO3MHA-11 | 2026-09-03 14:05:10 | 47.64032 | 11.32542 | 89° | 44km/h | 2761m | -1.3m/s | 6.4°C | 73.5% | 740.6hPa | 2.7V | 06:58:00 | 03:35:36 | 00:00:00 | |
| DO3MHA-12 | 2026-09-03 14:05:09 | 47.64032 | 11.32526 | 90° | 46km/h | 2763m | -1.5m/s | 6.4°C | 74.6% | 740.4hPa | 2.7V | 00:00:00 | 03:35:35 | 00:00:00 | |
| DO3MHA-11 | 2026-09-03 14:05:05 | 47.64029 | 11.32459 | 87° | 46km/h | 2769m | -1.7m/s | 6.4°C | 72.2% | 739.8hPa | 2.7V | 00:00:00 | 03:35:31 | 00:00:00 | |
| DO3MHA-12 | 2026-09-03 14:05:04 | 47.64029 | 11.32442 | 89° | 46km/h | 2771m | -1.7m/s | 6.4°C | 72.6% | 739.7hPa | 2.7V | 00:00:00 | 03:35:30 | 00:00:00 | |
| DG1MFX-10 | 2026-09-03 14:05:02 | 47.64029 | 11.32424 | 90° | 46km/h | 2773m | -1.7m/s | 6.4°C | 72.4% | 739.6hPa | 2.7V | 00:00:00 | 00:00:00 | 00:00:00 | |
| DO3MHA-11 | 2026-09-03 14:05:00 | 47.64030 | 11.32373 | 96° | 44km/h | 2778m | -1.9m/s | 6.3°C | 72.5% | 739.0hPa | 2.7V | 00:00:00 | 03:35:26 | 00:00:00 | |
| DO3MHA-12 | 2026-09-03 14:04:59 | 47.64031 | 11.32357 | 96° | 42km/h | 2780m | -2.1m/s | 6.3°C | 71.6% | 738.9hPa | 2.7V | 00:00:00 | 03:35:25 | 00:00:00 | |
| DO3MHA-11 | 2026-09-03 14:04:55 | 47.64036 | 11.32293 | 97° | 44km/h | 2788m | -2.1m/s | 6.3°C | 69.3% | 738.1hPa | 2.7V | 00:00:00 | 03:35:21 | 00:00:00 | |
| DO3MHA-12 | 2026-09-03 14:04:54 | 47.64037 | 11.32277 | 97° | 42km/h | 2790m | -2.2m/s | 6.3°C | 69.1% | 738.0hPa | 2.7V | 00:00:00 | 03:35:20 | 00:00:00 | |
| DO3MHA-11 | 2026-09-03 14:04:50 | 47.64042 | 11.32213 | 95° | 37km/h | 2800m | -1.3m/s | 6.3°C | 67.9% | 737.2hPa | 2.7V | 00:00:00 | 03:35:16 | 00:00:00 | |
| DO3MHA-12 | 2026-09-03 14:04:49 | 47.64042 | 11.32199 | 93° | 35km/h | 2801m | -1.7m/s | 6.2°C | 68.3% | 737.1hPa | 2.7V | 00:00:00 | 03:35:15 | 00:00:00 | |
| DO3MHA-11 | 2026-09-03 14:04:45 | 47.64042 | 11.32147 | 92° | 35km/h | 2810m | -1.7m/s | 6.2°C | 68.7% | 736.4hPa | 2.7V | 00:00:00 | 03:35:11 | 00:00:00 | |
| DO3MHA-12 | 2026-09-03 14:04:44 | 47.64043 | 11.32134 | 91° | 35km/h | 2811m | -1.8m/s | 6.1°C | 71.9% | 736.1hPa | 2.7V | 00:00:00 | 03:35:10 | 00:00:00 | |
| DO3MHA-11 | 2026-09-03 14:04:40 | 47.64044 | 11.32083 | 89° | 38km/h | 2818m | -1.9m/s | 6.2°C | 65.8% | 735.5hPa | 2.7V | 00:00:00 | 03:35:06 | 00:00:00 | |
| DO3MHA-12 | 2026-09-03 14:04:39 | 47.64044 | 11.32069 | 86° | 38km/h | 2820m | -2.2m/s | 6.2°C | 64.6% | 735.4hPa | 2.7V | 06:58:00 | 03:35:05 | 00:00:00 | |
| DO3MHA-11 | 2026-09-03 14:04:35 | 47.64038 | 11.32012 | 82° | 40km/h | 2828m | -2.0m/s | 6.1°C | 64.8% | 734.6hPa | 2.7V | 06:58:00 | 03:35:01 | 00:00:00 | |
| DO3MHA-12 | 2026-09-03 14:04:34 | 47.64036 | 11.31997 | 80° | 40km/h | 2830m | -2.0m/s | 6.1°C | 64.6% | 734.5hPa | 2.7V | 00:00:00 | 03:35:00 | 00:00:00 | |
| DO3MHA-11 | 2026-09-03 14:04:30 | 47.64030 | 11.31937 | 80° | 44km/h | 2839m | -2.1m/s | 6.0°C | 64.6% | 733.6hPa | 2.7V | 00:00:00 | 03:34:56 | 00:00:00 | |
| DO3MHA-12 | 2026-09-03 14:04:29 | 47.64028 | 11.31922 | 79° | 44km/h | 2841m | -2.3m/s | 5.9°C | 65.1% | 733.5hPa | 2.7V | 00:00:00 | 03:34:55 | 00:00:00 | |
| DO3MHA-11 | 2026-09-03 14:04:25 | 47.64019 | 11.31857 | 80° | 42km/h | 2850m | -2.2m/s | 5.9°C | 66.4% | 732.6hPa | 2.7V | 00:00:00 | 03:34:51 | 00:00:00 | |
| DO3MHA-12 | 2026-09-03 14:04:24 | 47.64018 | 11.31841 | 81° | 42km/h | 2852m | -2.4m/s | 5.8°C | 66.4% | 732.5hPa | 2.7V | 00:00:00 | 03:34:50 | 00:00:00 | |
| DO3MHA-11 | 2026-09-03 14:04:20 | 47.64010 | 11.31780 | 81° | 42km/h | 2860m | -2.0m/s | 5.8°C | 65.2% | 731.8hPa | 2.7V | 00:00:00 | 03:34:46 | 00:00:00 | |
| DO3MHA-12 | 2026-09-03 14:04:19 | 47.64008 | 11.31765 | 78° | 42km/h | 2862m | -2.2m/s | 5.8°C | 65.0% | 731.6hPa | 2.7V | 00:00:00 | 03:34:45 | 00:00:00 | |
| DG1MFX-10 | 2026-09-03 14:04:17 | 47.64006 | 11.31749 | 80° | 44km/h | 2864m | -2.1m/s | 5.9°C | 63.5% | 731.4hPa | 2.7V | 06:59:00 | 00:00:00 | 00:00:00 | |
| DO3MHA-11 | 2026-09-03 14:04:15 | 47.63999 | 11.31704 | 77° | 40km/h | 2871m | -2.3m/s | 5.8°C | 62.5% | 730.8hPa | 2.7V | 00:00:00 | 03:34:41 | 00:00:00 | |
| DO3MHA-12 | 2026-09-03 14:04:14 | 47.63997 | 11.31690 | 76° | 40km/h | 2873m | -2.3m/s | 5.8°C | 63.1% | 730.6hPa | 2.7V | 00:00:00 | 03:34:40 | 00:00:00 | |
| DO3MHA-11 | 2026-09-03 14:04:10 | 47.63988 | 11.31632 | 77° | 47km/h | 2882m | -1.7m/s | 5.8°C | 60.7% | 730.0hPa | 2.7V | 00:00:00 | 03:34:36 | 00:00:00 | |
| DO3MHA-12 | 2026-09-03 14:04:09 | 47.63986 | 11.31616 | 76° | 49km/h | 2883m | -1.4m/s | 5.8°C | 61.5% | 729.8hPa | 2.7V | 00:00:00 | 03:34:35 | 00:00:00 | |
| DO3MHA-11 | 2026-09-03 14:04:05 | 47.63976 | 11.31543 | 84° | 53km/h | 2890m | -2.0m/s | 5.7°C | 62.3% | 729.2hPa | 2.7V | 00:00:00 | 03:34:31 | 00:00:00 | |
| DO3MHA-12 | 2026-09-03 14:04:04 | 47.63975 | 11.31523 | 86° | 55km/h | 2892m | -2.4m/s | 5.7°C | 60.0% | 729.0hPa | 2.7V | 06:59:00 | 03:34:30 | 00:00:00 | |
| DO3MHA-11 | 2026-09-03 14:04:00 | 47.63973 | 11.31442 | 87° | 57km/h | 2901m | -1.5m/s | 5.7°C | 57.1% | 728.3hPa | 2.7V | 06:59:00 | 03:34:26 | 00:00:00 | |
| DO3MHA-12 | 2026-09-03 14:03:59 | 47.63972 | 11.31421 | 87° | 55km/h | 2903m | -1.7m/s | 5.7°C | 58.0% | 728.0hPa | 2.7V | 00:00:00 | 03:34:25 | 00:00:00 | |
| DG1MFX-10 | 2026-09-03 14:03:56 | 47.63971 | 11.31379 | 89° | 57km/h | 2907m | -2.3m/s | 5.7°C | 56.9% | 727.9hPa | 2.7V | 06:59:00 | 00:00:00 | 00:00:00 | |
| DO3MHA-11 | 2026-09-03 14:03:55 | 47.63971 | 11.31338 | 91° | 51km/h | 2911m | -2.0m/s | 5.6°C | 58.7% | 727.4hPa | 2.7V | 00:00:00 | 03:34:21 | 00:00:00 | |
| DO3MHA-12 | 2026-09-03 14:03:54 | 47.63971 | 11.31318 | 93° | 49km/h | 2914m | -2.2m/s | 5.6°C | 58.6% | 727.1hPa | 2.7V | 00:00:00 | 03:34:20 | 00:00:00 | |
| DO3MHA-11 | 2026-09-03 14:03:50 | 47.63975 | 11.31243 | 96° | 47km/h | 2923m | -2.5m/s | 5.5°C | 59.6% | 726.4hPa | 2.7V | 00:00:00 | 03:34:16 | 00:00:00 | |
| DO3MHA-12 | 2026-09-03 14:03:49 | 47.63976 | 11.31225 | 96° | 46km/h | 2925m | -2.8m/s | 5.5°C | 58.7% | 726.1hPa | 2.7V | 00:00:00 | 03:34:15 | 00:00:00 | |
| DO3MHA-11 | 2026-09-03 14:03:45 | 47.63979 | 11.31156 | 92° | 44km/h | 2935m | -2.2m/s | 5.4°C | 58.5% | 725.3hPa | 2.7V | 00:00:00 | 03:34:11 | 00:00:00 | |
| DO3MHA-12 | 2026-09-03 14:03:44 | 47.63979 | 11.31140 | 87° | 44km/h | 2937m | -2.1m/s | 5.4°C | 58.4% | 725.2hPa | 2.7V | 00:00:00 | 03:34:10 | 00:00:00 | |
| DO3MHA-11 | 2026-09-03 14:03:40 | 47.63974 | 11.31075 | 83° | 44km/h | 2947m | -2.3m/s | 5.3°C | 58.1% | 724.5hPa | 2.7V | 00:00:00 | 03:34:06 | 00:00:00 | |
| DO3MHA-12 | 2026-09-03 14:03:39 | 47.63973 | 11.31059 | 84° | 46km/h | 2949m | -2.3m/s | 5.3°C | 58.4% | 724.3hPa | 2.7V | 00:00:00 | 03:34:05 | 00:00:00 | |
| DO3MHA-11 | 2026-09-03 14:03:35 | 47.63967 | 11.30992 | 81° | 47km/h | 2961m | -2.4m/s | 5.2°C | 58.4% | 723.2hPa | 2.7V | 00:00:00 | 03:34:01 | 00:00:00 | |
| DO3MHA-12 | 2026-09-03 14:03:34 | 47.63964 | 11.30975 | 80° | 47km/h | 2964m | -2.7m/s | 5.2°C | 58.2% | 723.0hPa | 2.7V | 00:00:00 | 03:34:00 | 00:00:00 | |
| DO3MHA-11 | 2026-09-03 14:03:30 | 47.63956 | 11.30905 | 82° | 49km/h | 2975m | -2.8m/s | 5.2°C | 54.4% | 722.1hPa | 2.7V | 00:00:00 | 03:33:56 | 00:00:00 | |
| DO3MHA-11 | 2026-09-03 14:03:25 | 47.63947 | 11.30814 | 82° | 51km/h | 2990m | -2.9m/s | 5.1°C | 52.7% | 720.7hPa | 2.7V | 00:00:00 | 03:33:51 | 00:00:00 | |
| DO3MHA-12 | 2026-09-03 14:03:24 | 47.63945 | 11.30794 | 81° | 49km/h | 2993m | -3.1m/s | 4.9°C | 55.9% | 720.4hPa | 2.7V | 00:00:00 | 03:33:50 | 00:00:00 | |
| DO3MHA-11 | 2026-09-03 14:03:20 | 47.63937 | 11.30721 | 81° | 51km/h | 3005m | -2.8m/s | 4.9°C | 53.3% | 719.4hPa | 2.7V | 00:00:00 | 03:33:46 | 00:00:00 | |
| DO3MHA-12 | 2026-09-03 14:03:19 | 47.63935 | 11.30703 | 83° | 51km/h | 3008m | -3.3m/s | 4.8°C | 58.0% | 719.1hPa | 2.7V | 00:00:00 | 03:33:45 | 00:00:00 | |
| DO3MHA-11 | 2026-09-03 14:03:15 | 47.63929 | 11.30626 | 83° | 51km/h | 3021m | -2.7m/s | 4.7°C | 56.0% | 718.0hPa | 2.7V | 00:00:00 | 03:33:41 | 00:00:00 | |
| DO3MHA-12 | 2026-09-03 14:03:14 | 47.63927 | 11.30606 | 82° | 51km/h | 3024m | -2.4m/s | 4.7°C | 55.3% | 717.8hPa | 2.7V | 00:00:00 | 03:33:40 | 00:00:00 | |
| DO3MHA-11 | 2026-09-03 14:03:10 | 47.63921 | 11.30529 | 83° | 55km/h | 3035m | -2.2m/s | 4.8°C | 49.8% | 716.8hPa | 2.7V | 00:00:00 | 03:33:36 | 00:00:00 | |
| DO3MHA-12 | 2026-09-03 14:03:09 | 47.63919 | 11.30510 | 84° | 57km/h | 3037m | -2.2m/s | 4.8°C | 54.0% | 716.6hPa | 2.7V | 07:00:00 | 03:33:35 | 00:00:00 | |
| DG1MJG | 2026-09-03 14:03:08 | 47.63919 | 11.30510 | 85° | 55km/h | 3037m | -2.2m/s | 4.8°C | 53.2% | 716.6hPa | 2.7V | 07:00:00 | 00:00:00 | 00:00:00 | |
| DO3MHA-11 | 2026-09-03 14:03:05 | 47.63913 | 11.30426 | 84° | 57km/h | 3048m | -2.7m/s | 4.5°C | 52.7% | 715.7hPa | 2.7V | 07:00:00 | 03:33:31 | 00:00:00 | |
| DO3MHA-12 | 2026-09-03 14:02:59 | 47.63902 | 11.30301 | 83° | 58km/h | 3063m | -2.3m/s | 4.5°C | 50.8% | 714.3hPa | 2.7V | 00:00:00 | 03:33:25 | 00:00:00 | |
| DO3MHA-11 | 2026-09-03 14:02:54 | 47.63897 | 11.30193 | 88° | 57km/h | 3074m | -1.9m/s | 4.4°C | 48.6% | 713.2hPa | 2.7V | 00:00:00 | 03:33:20 | 00:00:00 | |
| DO3MHA-12 | 2026-09-03 14:02:49 | 47.63891 | 11.30087 | 84° | 57km/h | 3085m | -3.1m/s | 4.1°C | 59.8% | 712.2hPa | 2.7V | 00:00:00 | 03:33:15 | 00:00:00 | |
| DO3MHA-11 | 2026-09-03 14:02:44 | 47.63886 | 11.29979 | 87° | 58km/h | 3101m | -2.8m/s | 4.1°C | 58.6% | 710.8hPa | 2.7V | 00:00:00 | 03:33:10 | 00:00:00 | |
| DG1MFX-10 | 2026-09-03 14:02:43 | 47.63886 | 11.29979 | 88° | 58km/h | 3101m | -2.9m/s | 4.1°C | 57.7% | 710.8hPa | 2.7V | 00:00:00 | 00:00:00 | 00:00:00 | |
| DO3MHA-11 | 2026-09-03 14:02:39 | 47.63883 | 11.29869 | 90° | 60km/h | 3116m | -2.9m/s | 4.3°C | 40.8% | 709.5hPa | 2.7V | 00:00:00 | 03:33:05 | 00:00:00 | |
| DG1MJG | 2026-09-03 14:02:37 | 47.63883 | 11.29846 | 91° | 60km/h | 3119m | -2.4m/s | 4.3°C | 40.4% | 709.3hPa | 2.7V | 00:00:00 | 00:00:00 | 00:00:00 | |
| DO3MHA-12 | 2026-09-03 14:02:34 | 47.63884 | 11.29756 | 91° | 60km/h | 3130m | -2.5m/s | 4.1°C | 41.7% | 708.2hPa | 2.7V | 00:00:00 | 03:33:00 | 00:00:00 | |
| DO3MHA-12 | 2026-09-03 14:02:29 | 47.63888 | 11.29643 | 98° | 62km/h | 3146m | -3.0m/s | 3.9°C | 40.9% | 706.7hPa | 2.7V | 07:00:00 | 03:32:55 | 00:00:00 | |
| DO3MHA-11 | 2026-09-03 14:02:24 | 47.63899 | 11.29529 | 98° | 62km/h | 3161m | -3.0m/s | 3.8°C | 42.6% | 705.3hPa | 2.7V | 07:01:00 | 03:32:50 | 00:00:00 | |
| DO3MHA-12 | 2026-09-03 14:02:19 | 47.63911 | 11.29415 | 102° | 53km/h | 3177m | -2.8m/s | 3.6°C | 42.4% | 703.9hPa | 2.7V | 00:00:00 | 03:32:45 | 00:00:00 | |
| DO3MHA-12 | 2026-09-03 14:02:14 | 47.63922 | 11.29320 | 95° | 57km/h | 3190m | -2.9m/s | 3.5°C | 44.0% | 702.7hPa | 2.7V | 00:00:00 | 03:32:40 | 00:00:00 | |
| DO3MHA-12 | 2026-09-03 14:02:09 | 47.63927 | 11.29214 | 97° | 60km/h | 3204m | -2.9m/s | 3.4°C | 44.1% | 701.4hPa | 2.7V | 00:00:00 | 03:32:35 | 00:00:00 | |
| DO3MHA-11 | 2026-09-03 14:02:04 | 47.63935 | 11.29099 | 95° | 62km/h | 3219m | -2.9m/s | 3.2°C | 45.3% | 700.3hPa | 2.7V | 00:00:00 | 03:32:30 | 00:00:00 | |
| DG1MJG | 2026-09-03 14:02:00 | 47.63941 | 11.29031 | 102° | 62km/h | 3228m | -3.2m/s | 0°C | 0% | 0hPa | 2.7V | 00:00:00 | 00:00:00 | 00:00:00 | |
| DO3MHA-11 | 2026-09-03 14:01:59 | 47.63947 | 11.28986 | 103° | 58km/h | 3234m | -3.1m/s | 3.0°C | 46.5% | 699.0hPa | 2.7V | 00:00:00 | 03:32:25 | 00:00:00 | |
| DO3MHA-12 | 2026-09-03 14:01:54 | 47.63965 | 11.28878 | 103° | 58km/h | 3250m | -3.0m/s | 3.0°C | 40.4% | 697.5hPa | 2.7V | 00:00:00 | 03:32:20 | 00:00:00 | |
| DO3MHA-12 | 2026-09-03 14:01:49 | 47.63983 | 11.28772 | 107° | 53km/h | 3266m | -3.2m/s | 3.0°C | 40.3% | 696.2hPa | 2.7V | 07:01:00 | 03:32:15 | 00:00:00 | |
| DO3MHA-12 | 2026-09-03 14:01:44 | 47.64003 | 11.28677 | 109° | 53km/h | 3282m | -3.4m/s | 3.1°C | 32.5% | 694.7hPa | 2.7V | 00:00:00 | 03:32:10 | 00:00:00 | |
| DO3MHA-12 | 2026-09-03 14:01:39 | 47.64025 | 11.28584 | 110° | 51km/h | 3300m | -3.4m/s | 3.0°C | 30.9% | 693.3hPa | 2.7V | 00:00:00 | 03:32:05 | 00:00:00 | |
| DO3MHA-12 | 2026-09-03 14:01:34 | 47.64047 | 11.28492 | 111° | 53km/h | 3317m | -3.3m/s | 2.9°C | 30.3% | 691.8hPa | 2.7V | 00:00:00 | 03:32:00 | 00:00:00 | |
| DO3MHA-12 | 2026-09-03 14:01:29 | 47.64072 | 11.28399 | 112° | 53km/h | 3334m | -3.3m/s | 2.8°C | 27.4% | 690.4hPa | 2.7V | 00:00:00 | 03:31:55 | 00:00:00 | |
| DG1MJG | 2026-09-03 14:01:26 | 47.64082 | 11.28362 | 113° | 53km/h | 3341m | -3.3m/s | 2.8°C | 27.0% | 689.8hPa | 2.7V | 07:02:00 | 00:00:00 | 00:00:00 | |
| DO3MHA-11 | 2026-09-03 14:01:24 | 47.64097 | 11.28306 | 113° | 53km/h | 3351m | -3.5m/s | 2.8°C | 22.9% | 689.0hPa | 2.7V | 00:00:00 | 03:31:50 | 00:00:00 | |
| DO3MHA-11 | 2026-09-03 14:01:19 | 47.64124 | 11.28216 | 113° | 55km/h | 3368m | -3.1m/s | 2.9°C | 13.9% | 687.5hPa | 2.7V | 00:00:00 | 03:31:45 | 00:00:00 | |
| DO3MHA-12 | 2026-09-03 14:01:14 | 47.64151 | 11.28122 | 115° | 55km/h | 3385m | -3.3m/s | 3.0°C | 11.6% | 686.1hPa | 2.7V | 00:00:00 | 03:31:40 | 00:00:00 | |
| DO3MHA-12 | 2026-09-03 14:01:09 | 47.64180 | 11.28027 | 114° | 53km/h | 3401m | -3.3m/s | 3.0°C | 14.9% | 684.6hPa | 2.7V | 07:02:00 | 03:31:35 | 00:00:00 | |
| DO3MHA-12 | 2026-09-03 14:01:04 | 47.64207 | 11.27937 | 113° | 46km/h | 3418m | -3.3m/s | 2.9°C | 26.8% | 683.3hPa | 2.7V | 00:00:00 | 03:31:30 | 00:00:00 | |
| DO3MHA-12 | 2026-09-03 14:00:59 | 47.64224 | 11.27854 | 104° | 46km/h | 3434m | -3.2m/s | 2.7°C | 33.4% | 681.9hPa | 2.7V | 00:00:00 | 03:31:25 | 00:00:00 | |
| DG1MJG | 2026-09-03 14:00:55 | 47.64233 | 11.27806 | 108° | 44km/h | 3444m | -3.2m/s | 2.6°C | 34.7% | 681.1hPa | 2.7V | 07:03:00 | 00:00:00 | 00:00:00 | |
| DO3MHA-12 | 2026-09-03 14:00:54 | 47.64240 | 11.27773 | 107° | 46km/h | 3451m | -3.4m/s | 2.5°C | 36.6% | 680.6hPa | 2.7V | 00:00:00 | 03:31:20 | 00:00:00 | |
| DO3MHA-12 | 2026-09-03 14:00:49 | 47.64255 | 11.27691 | 106° | 44km/h | 3467m | -3.1m/s | 2.4°C | 42.7% | 679.1hPa | 2.7V | 00:00:00 | 03:31:15 | 00:00:00 | |
| DO3MHA-11 | 2026-09-03 14:00:44 | 47.64271 | 11.27611 | 106° | 53km/h | 3484m | -3.2m/s | 2.2°C | 46.2% | 677.8hPa | 2.7V | 00:00:00 | 03:31:10 | 00:00:00 | |
| DO3MHA-11 | 2026-09-03 14:00:39 | 47.64289 | 11.27516 | 107° | 55km/h | 3501m | -3.4m/s | 2.0°C | 47.0% | 676.4hPa | 2.7V | 00:00:00 | 03:31:05 | 00:00:00 | |
| DO3MHA-12 | 2026-09-03 14:00:34 | 47.64308 | 11.27419 | 108° | 57km/h | 3518m | -3.2m/s | 1.8°C | 48.3% | 675.0hPa | 2.7V | 00:00:00 | 03:31:00 | 00:00:00 | |
| DO3MHA-12 | 2026-09-03 14:00:29 | 47.64332 | 11.27320 | 111° | 55km/h | 3535m | -3.4m/s | 1.7°C | 52.3% | 673.6hPa | 2.7V | 07:02:00 | 03:30:55 | 00:00:00 | |
| DG1MJG | 2026-09-03 14:00:25 | 47.64345 | 11.27261 | 109° | 55km/h | 3545m | -3.5m/s | 0°C | 0% | 672.9hPa | 2.7V | 07:03:00 | 00:00:00 | 00:00:00 | |
| DO3MHA-12 | 2026-09-03 14:00:24 | 47.64355 | 11.27222 | 112° | 55km/h | 3552m | -3.2m/s | 1.5°C | 58.1% | 672.1hPa | 2.7V | 00:00:00 | 03:30:50 | 00:00:00 | |
| DG1MFX-10 | 2026-09-03 14:00:22 | 47.64360 | 11.27203 | 115° | 57km/h | 3555m | -3.1m/s | 1.5°C | 56.6% | 671.9hPa | 2.7V | 00:00:00 | 00:00:00 | 00:00:00 | |
| DO3MHA-12 | 2026-09-03 14:00:19 | 47.64385 | 11.27128 | 116° | 57km/h | 3569m | -3.1m/s | 1.3°C | 63.3% | 670.7hPa | 2.7V | 00:00:00 | 03:30:45 | 00:00:00 | |
| DO3MHA-12 | 2026-09-03 14:00:14 | 47.64415 | 11.27032 | 118° | 51km/h | 3585m | -3.1m/s | 1.2°C | 87.4% | 669.4hPa | 2.7V | 00:00:00 | 03:30:40 | 00:00:00 | |
| DO3MHA-12 | 2026-09-03 14:00:09 | 47.64446 | 11.26951 | 121° | 49km/h | 3602m | -3.5m/s | 1.2°C | 92.0% | 668.1hPa | 2.7V | 00:00:00 | 03:30:35 | 00:00:00 | |
| DO3MHA-11 | 2026-09-03 14:00:04 | 47.64477 | 11.26871 | 119° | 44km/h | 3620m | -3.2m/s | 1.0°C | 95.8% | 666.6hPa | 2.7V | 00:00:00 | 03:30:30 | 00:00:00 | |
| DO3MHA-11 | 2026-09-03 13:59:59 | 47.64504 | 11.26799 | 120° | 42km/h | 3635m | -2.8m/s | 0.9°C | 97.8% | 665.3hPa | 2.7V | 00:00:00 | 03:30:25 | 00:00:00 | |
| DG1MJG | 2026-09-03 13:59:55 | 47.64519 | 11.26757 | 115° | 42km/h | 3645m | -3.3m/s | 0°C | 0% | 0hPa | 2.7V | 00:00:00 | 00:00:00 | 00:00:00 | |
| DO3MHA-12 | 2026-09-03 13:59:54 | 47.64526 | 11.26727 | 108° | 49km/h | 3652m | -3.4m/s | 0.7°C | 0% | 664.0hPa | 2.7V | 00:00:00 | 03:30:20 | 00:00:00 | |
| DO3MHA-12 | 2026-09-03 13:59:49 | 47.64545 | 11.26637 | 111° | 55km/h | 3668m | -3.4m/s | 0.5°C | 0% | 662.6hPa | 2.7V | 07:03:00 | 03:30:15 | 00:00:00 | |
| DO3MHA-12 | 2026-09-03 13:59:44 | 47.64570 | 11.26540 | 108° | 55km/h | 3686m | -3.4m/s | 0.5°C | 0% | 661.1hPa | 2.7V | 00:00:00 | 03:30:10 | 00:00:00 | |
| DO3MHA-11 | 2026-09-03 13:59:39 | 47.64594 | 11.26444 | 116° | 53km/h | 3703m | -3.3m/s | 0.2°C | 0% | 659.7hPa | 2.7V | 00:00:00 | 03:30:05 | 00:00:00 | |
| DO3MHA-12 | 2026-09-03 13:59:34 | 47.64626 | 11.26356 | 119° | 53km/h | 3719m | -3.8m/s | 0.2°C | 97.6% | 658.3hPa | 2.7V | 00:00:00 | 03:30:00 | 00:00:00 | |
| DG1MFX-10 | 2026-09-03 13:59:32 | 47.64632 | 11.26338 | 119° | 55km/h | 3723m | -3.6m/s | 0.1°C | 88.6% | 658.1hPa | 2.7V | 00:00:00 | 00:00:00 | 00:00:00 | |
| DO3MHA-12 | 2026-09-03 13:59:29 | 47.64659 | 11.26269 | 123° | 51km/h | 3736m | -3.1m/s | -0.0°C | 93.4% | 656.9hPa | 2.7V | 00:00:00 | 03:29:55 | 00:00:00 | |
| DG1MJG | 2026-09-03 13:59:25 | 47.64686 | 11.26202 | 120° | 51km/h | 3748m | -3.3m/s | -0.2°C | 90.7% | 655.9hPa | 2.7V | 07:04:00 | 00:00:00 | 00:00:00 | |
| DO3MHA-11 | 2026-09-03 13:59:24 | 47.64693 | 11.26185 | 121° | 51km/h | 3752m | -3.3m/s | -0.2°C | 92.4% | 655.5hPa | 2.7V | 00:00:00 | 03:29:50 | 00:00:00 | |
| DO3MHA-11 | 2026-09-03 13:59:19 | 47.64727 | 11.26103 | 124° | 51km/h | 3769m | -3.1m/s | -0.4°C | 91.6% | 654.1hPa | 2.7V | 00:00:00 | 03:29:45 | 00:00:00 | |
| DO3MHA-12 | 2026-09-03 13:59:14 | 47.64762 | 11.26023 | 122° | 51km/h | 3785m | -3.4m/s | -0.6°C | 92.0% | 652.9hPa | 2.7V | 00:00:00 | 03:29:40 | 00:00:00 | |
| DO3MHA-12 | 2026-09-03 13:59:09 | 47.64799 | 11.25945 | 129° | 51km/h | 3802m | -3.5m/s | -0.7°C | 93.9% | 651.6hPa | 2.7V | 07:04:00 | 03:29:35 | 00:00:00 | |
| DO3MHA-12 | 2026-09-03 13:59:04 | 47.64837 | 11.25867 | 128° | 49km/h | 3820m | -3.3m/s | -0.9°C | 92.4% | 650.3hPa | 2.7V | 00:00:00 | 03:29:30 | 00:00:00 | |
| DO3MHA-12 | 2026-09-03 13:58:59 | 47.64875 | 11.25795 | 129° | 49km/h | 3838m | -3.4m/s | -1.1°C | 92.1% | 648.9hPa | 2.7V | 00:00:00 | 03:29:25 | 00:00:00 | |
| DO3MHA-12 | 2026-09-03 13:58:54 | 47.64915 | 11.25725 | 130° | 47km/h | 3855m | -3.3m/s | -1.3°C | 92.8% | 647.5hPa | 2.7V | 00:00:00 | 03:29:20 | 00:00:00 | |
| DG1MJG | 2026-09-03 13:58:52 | 47.64923 | 11.25712 | 132° | 46km/h | 3859m | -3.6m/s | -1.4°C | 91.1% | 647.2hPa | 2.7V | 07:04:00 | 00:00:00 | 00:00:00 | |
| DO3MHA-12 | 2026-09-03 13:58:49 | 47.64955 | 11.25657 | 130° | 47km/h | 3872m | -2.6m/s | -1.4°C | 95.8% | 646.1hPa | 2.7V | 00:00:00 | 03:29:15 | 00:00:00 | |
| DG1MFX-10 | 2026-09-03 13:58:45 | 47.64978 | 11.25615 | 129° | 46km/h | 3881m | -2.6m/s | -1.2°C | 97.4% | 645.5hPa | 2.7V | 07:04:00 | 00:00:00 | 00:00:00 | |
| DO3MHA-11 | 2026-09-03 13:58:44 | 47.64991 | 11.25588 | 122° | 42km/h | 3887m | -3.5m/s | -1.2°C | 0% | 644.9hPa | 2.7V | 00:00:00 | 03:29:10 | 00:00:00 | |
| DO3MHA-12 | 2026-09-03 13:58:34 | 47.65054 | 11.25455 | 122° | 40km/h | 3920m | -2.6m/s | -1.0°C | 0% | 642.3hPa | 2.7V | 00:00:00 | 03:29:00 | 00:00:00 | |
| DO3MHA-12 | 2026-09-03 13:58:29 | 47.65081 | 11.25390 | 123° | 42km/h | 3933m | -1.5m/s | -1.0°C | 0% | 641.2hPa | 2.7V | 07:04:00 | 03:28:55 | 00:00:00 | |
| DO3MHA-12 | 2026-09-03 13:58:24 | 47.65108 | 11.25320 | 118° | 53km/h | 3944m | -2.1m/s | -1.0°C | 0% | 640.3hPa | 2.7V | 00:00:00 | 03:28:50 | 00:00:00 | |
| DG1MJG | 2026-09-03 13:58:21 | 47.65120 | 11.25286 | 118° | 53km/h | 3949m | -2.0m/s | -1.0°C | 0% | 640.0hPa | 2.6V | 07:05:00 | 00:00:00 | 00:00:00 | |
| DO3MHA-12 | 2026-09-03 13:58:19 | 47.65139 | 11.25232 | 117° | 51km/h | 3956m | -2.4m/s | -1.3°C | 0% | 639.3hPa | 2.6V | 00:00:00 | 03:28:45 | 00:00:00 | |
| DO3MHA-12 | 2026-09-03 13:58:14 | 47.65166 | 11.25145 | 115° | 49km/h | 3969m | -2.9m/s | -1.1°C | 0% | 638.4hPa | 2.6V | 00:00:00 | 03:28:40 | 00:00:00 | |
| DO3MHA-12 | 2026-09-03 13:58:09 | 47.65192 | 11.25064 | 118° | 47km/h | 3985m | -3.1m/s | -1.1°C | 0% | 637.2hPa | 2.6V | 00:00:00 | 03:28:35 | 00:00:00 | |
| NBG1-10 | 2026-09-03 13:58:08 | 47.65198 | 11.25048 | 118° | 53km/h | 3988m | -3.5m/s | -1.1°C | 0% | 636.8hPa | 2.7V | 00:00:00 | 03:28:34 | 00:00:00 | |
| DO3MHA-11 | 2026-09-03 13:58:04 | 47.65219 | 11.24984 | 115° | 51km/h | 4001m | -3.2m/s | -1.2°C | 0% | 635.8hPa | 2.7V | 00:00:00 | 03:28:30 | 00:00:00 | |
| DL6DJ-15 | 2026-09-03 13:57:47 | 47.65333 | 11.24628 | 114° | 57km/h | 4059m | -2.1m/s | -1.7°C | 100.0% | 631.3hPa | 2.7V | 00:00:00 | 00:00:00 | 00:00:00 | |
| DO3MHA-11 | 2026-09-03 13:57:44 | 47.65333 | 11.24628 | 115° | 58km/h | 4059m | -2.1m/s | -1.6°C | 0% | 631.2hPa | 2.7V | 07:05:00 | 03:28:10 | 00:00:00 | |
| DO3MHA-12 | 2026-09-03 13:57:43 | 47.65340 | 11.24608 | 115° | 58km/h | 4061m | -2.5m/s | -1.7°C | 0% | 631.1hPa | 2.7V | 00:00:00 | 03:28:09 | 00:00:00 | |
| DO3MHA-11 | 2026-09-03 13:57:39 | 47.65365 | 11.24530 | 119° | 58km/h | 4074m | -3.6m/s | -1.9°C | 89.2% | 630.1hPa | 2.7V | 00:00:00 | 03:28:05 | 00:00:00 | |
| DO3MHA-12 | 2026-09-03 13:57:38 | 47.65373 | 11.24511 | 122° | 58km/h | 4078m | -3.4m/s | -1.8°C | 89.9% | 629.8hPa | 2.7V | 00:00:00 | 03:28:04 | 00:00:00 | |
| DB0NH | 2026-09-03 13:57:37 | 47.65381 | 11.24492 | 123° | 51km/h | 4081m | -3.9m/s | -1.8°C | 82.1% | 629.5hPa | 2.7V | 00:00:00 | 03:28:03 | 00:00:00 | |
| NBG1-10 | 2026-09-03 13:57:35 | 47.65397 | 11.24456 | 125° | 49km/h | 4088m | -3.2m/s | -1.9°C | 83.8% | 628.9hPa | 2.7V | 00:00:00 | 03:28:01 | 00:00:00 | |
| DO3MHA-11 | 2026-09-03 13:57:34 | 47.65405 | 11.24438 | 125° | 55km/h | 4092m | -3.1m/s | -1.9°C | 84.1% | 628.7hPa | 2.7V | 00:00:00 | 03:28:00 | 00:00:00 | |
| DO3MHA-11 | 2026-09-03 13:57:24 | 47.65483 | 11.24273 | 126° | 55km/h | 4130m | -2.9m/s | -2.0°C | 77.1% | 625.7hPa | 2.7V | 00:00:00 | 03:27:50 | 00:00:00 | |
| DO3MHA-12 | 2026-09-03 13:57:23 | 47.65491 | 11.24257 | 125° | 55km/h | 4133m | -3.3m/s | -2.0°C | 69.0% | 625.4hPa | 2.7V | 00:00:00 | 03:27:49 | 00:00:00 | |
| DG1MJG | 2026-09-03 13:57:20 | 47.65507 | 11.24223 | 125° | 57km/h | 4140m | -3.2m/s | -2.1°C | 63.8% | 624.9hPa | 2.7V | 07:06:00 | 00:00:00 | 00:00:00 | |
| DO3MHA-11 | 2026-09-03 13:57:19 | 47.65523 | 11.24189 | 126° | 51km/h | 4147m | -4.1m/s | -2.0°C | 54.5% | 624.2hPa | 2.7V | 00:00:00 | 03:27:45 | 00:00:00 | |
| DO3MHA-12 | 2026-09-03 13:57:18 | 47.65531 | 11.24173 | 127° | 49km/h | 4151m | -3.4m/s | -2.1°C | 60.8% | 623.9hPa | 2.7V | 00:00:00 | 03:27:44 | 00:00:00 | |
| DO3MHA-11 | 2026-09-03 13:57:14 | 47.65560 | 11.24113 | 126° | 46km/h | 4164m | -3.2m/s | -2.1°C | 56.4% | 622.9hPa | 2.7V | 00:00:00 | 03:27:40 | 00:00:00 | |
| DO3MHA-12 | 2026-09-03 13:57:13 | 47.65567 | 11.24098 | 125° | 46km/h | 4168m | -3.6m/s | -2.1°C | 56.8% | 622.6hPa | 2.7V | 00:00:00 | 03:27:39 | 00:00:00 | |
| DO3MHA-11 | 2026-09-03 13:57:09 | 47.65591 | 11.24042 | 119° | 47km/h | 4182m | -3.6m/s | -2.3°C | 58.9% | 621.4hPa | 2.7V | 00:00:00 | 03:27:35 | 00:00:00 | |
| DO3MHA-12 | 2026-09-03 13:57:08 | 47.65597 | 11.24027 | 120° | 49km/h | 4186m | -3.6m/s | -2.3°C | 58.9% | 621.2hPa | 2.7V | 07:06:00 | 03:27:34 | 00:00:00 | |
| DB0NH | 2026-09-03 13:57:07 | 47.65602 | 11.24012 | 119° | 51km/h | 4189m | -3.6m/s | -2.3°C | 57.5% | 621.0hPa | 2.7V | 07:06:00 | 03:27:33 | 00:00:00 | |
| DO3MHA-11 | 2026-09-03 13:57:04 | 47.65620 | 11.23963 | 119° | 47km/h | 4199m | -3.0m/s | -2.4°C | 56.8% | 620.2hPa | 2.7V | 07:06:00 | 03:27:30 | 00:00:00 | |
| DO3MHA-12 | 2026-09-03 13:57:03 | 47.65626 | 11.23947 | 118° | 47km/h | 4202m | -2.6m/s | -2.4°C | 54.0% | 620.0hPa | 2.7V | 00:00:00 | 03:27:29 | 00:00:00 | |
| NBG1-10 | 2026-09-03 13:57:02 | 47.65632 | 11.23931 | 119° | 53km/h | 4205m | -2.8m/s | -2.4°C | 51.5% | 619.7hPa | 2.7V | 00:00:00 | 03:27:28 | 00:00:00 | |
| DL6DJ-15 | 2026-09-03 13:56:45 | 47.65757 | 11.23644 | 121° | 57km/h | 4263m | -3.7m/s | -3.5°C | 87.0% | 615.1hPa | 2.7V | 00:00:00 | 00:00:00 | 00:00:00 | |
| DO3MHA-12 | 2026-09-03 13:56:43 | 47.65764 | 11.23626 | 122° | 53km/h | 4267m | -3.9m/s | -3.5°C | 90.4% | 614.7hPa | 2.7V | 00:00:00 | 03:27:09 | 00:00:00 | |
| DO3MHA-11 | 2026-09-03 13:56:42 | 47.65771 | 11.23609 | 123° | 53km/h | 4271m | -3.4m/s | -3.5°C | 89.2% | 614.4hPa | 2.7V | 00:00:00 | 03:27:08 | 00:00:00 | |
| DO3MHA-12 | 2026-09-03 13:56:38 | 47.65799 | 11.23542 | 123° | 55km/h | 4282m | -2.7m/s | -3.8°C | 93.4% | 613.5hPa | 2.7V | 00:00:00 | 03:27:04 | 00:00:00 | |
| DO3MHA-11 | 2026-09-03 13:56:37 | 47.65806 | 11.23524 | 121° | 55km/h | 4285m | -2.7m/s | -3.8°C | 93.7% | 613.2hPa | 2.7V | 00:00:00 | 03:27:03 | 00:00:00 | |
| DO3MHA-12 | 2026-09-03 13:56:33 | 47.65834 | 11.23453 | 118° | 51km/h | 4298m | -3.5m/s | -4.0°C | 96.3% | 612.2hPa | 2.7V | 00:00:00 | 03:26:59 | 00:00:00 | |
| DO3MHA-11 | 2026-09-03 13:56:32 | 47.65840 | 11.23436 | 116° | 49km/h | 4302m | -3.1m/s | -4.0°C | 97.3% | 612.0hPa | 2.6V | 00:00:00 | 03:26:58 | 00:00:00 | |
| OE5DXL-15 | 2026-09-03 13:56:30 | 47.65851 | 11.23402 | 116° | 55km/h | 4308m | -3.6m/s | -4.1°C | 96.7% | 611.5hPa | 2.7V | 00:00:00 | 00:00:00 | 00:00:00 | |
| DO3MHA-12 | 2026-09-03 13:56:28 | 47.65862 | 11.23369 | 118° | 49km/h | 4315m | -3.2m/s | -4.2°C | 0% | 610.9hPa | 2.7V | 00:00:00 | 03:26:54 | 00:00:00 | |
| DO3MHA-11 | 2026-09-03 13:56:27 | 47.65868 | 11.23354 | 122° | 51km/h | 4318m | -3.2m/s | -4.2°C | 0% | 610.6hPa | 2.7V | 00:00:00 | 03:26:53 | 00:00:00 | |
| DO3MHA-12 | 2026-09-03 13:56:23 | 47.65894 | 11.23288 | 120° | 53km/h | 4333m | -4.2m/s | -4.3°C | 0% | 609.5hPa | 2.7V | 07:07:00 | 03:26:49 | 00:00:00 | |
| DO3MHA-11 | 2026-09-03 13:56:22 | 47.65900 | 11.23272 | 116° | 53km/h | 4337m | -3.9m/s | -4.3°C | 0% | 609.2hPa | 2.7V | 07:07:00 | 03:26:48 | 00:00:00 | |
| DO3MHA-12 | 2026-09-03 13:56:18 | 47.65920 | 11.23197 | 109° | 55km/h | 4351m | -3.2m/s | -4.3°C | 0% | 608.0hPa | 2.7V | 00:00:00 | 03:26:44 | 00:00:00 | |
| DO3MHA-11 | 2026-09-03 13:56:17 | 47.65924 | 11.23177 | 109° | 55km/h | 4355m | -3.5m/s | -4.4°C | 0% | 607.9hPa | 2.7V | 00:00:00 | 03:26:43 | 00:00:00 | |
| NBG1-10 | 2026-09-03 13:56:16 | 47.65928 | 11.23158 | 108° | 64km/h | 4358m | -3.1m/s | -4.4°C | 0% | 607.5hPa | 2.7V | 00:00:00 | 03:26:42 | 00:00:00 | |
| DO3MHA-12 | 2026-09-03 13:56:13 | 47.65942 | 11.23101 | 112° | 62km/h | 4368m | -3.5m/s | -4.4°C | 0% | 606.7hPa | 2.7V | 00:00:00 | 03:26:39 | 00:00:00 | |
| DO3MHA-11 | 2026-09-03 13:56:12 | 47.65948 | 11.23080 | 115° | 64km/h | 4372m | -3.6m/s | -4.5°C | 0% | 606.5hPa | 2.7V | 00:00:00 | 03:26:38 | 00:00:00 | |
| DO3MHA-12 | 2026-09-03 13:56:08 | 47.65977 | 11.22993 | 119° | 66km/h | 4386m | -3.3m/s | -4.5°C | 0% | 605.5hPa | 2.7V | 00:00:00 | 03:26:34 | 00:00:00 | |
| DO3MHA-11 | 2026-09-03 13:56:07 | 47.65985 | 11.22972 | 120° | 66km/h | 4390m | -3.2m/s | -4.5°C | 0% | 605.2hPa | 2.7V | 00:00:00 | 03:26:33 | 00:00:00 | |
| DO3MHA-12 | 2026-09-03 13:56:03 | 47.66019 | 11.22889 | 121° | 64km/h | 4404m | -3.1m/s | -4.6°C | 0% | 604.1hPa | 2.7V | 00:00:00 | 03:26:29 | 00:00:00 | |
| DO3MHA-11 | 2026-09-03 13:56:02 | 47.66027 | 11.22868 | 119° | 64km/h | 4408m | -3.1m/s | -4.7°C | 0% | 603.8hPa | 2.7V | 00:00:00 | 03:26:28 | 00:00:00 | |
| DO3MHA-12 | 2026-09-03 13:55:58 | 47.66062 | 11.22787 | 124° | 66km/h | 4421m | -2.9m/s | -4.7°C | 0% | 602.9hPa | 2.7V | 00:00:00 | 03:26:24 | 00:00:00 | |
| DO3MHA-11 | 2026-09-03 13:55:56 | 47.66080 | 11.22745 | 123° | 66km/h | 4427m | -2.8m/s | -4.6°C | 97.8% | 602.4hPa | 2.7V | 00:00:00 | 03:26:22 | 00:00:00 | |
| DO3MHA-12 | 2026-09-03 13:55:52 | 47.66115 | 11.22660 | 122° | 66km/h | 4438m | -2.6m/s | -4.4°C | 83.8% | 601.4hPa | 2.7V | 00:00:00 | 03:26:18 | 00:00:00 | |
| DO3MHA-11 | 2026-09-03 13:55:51 | 47.66124 | 11.22638 | 121° | 64km/h | 4441m | -2.8m/s | -4.5°C | 84.1% | 601.2hPa | 2.7V | 00:00:00 | 03:26:17 | 00:00:00 | |
| DO3MHA-12 | 2026-09-03 13:55:47 | 47.66161 | 11.22560 | 131° | 64km/h | 4452m | -2.9m/s | -4.7°C | 87.3% | 600.4hPa | 2.7V | 00:00:00 | 03:26:13 | 00:00:00 | |
| DO3MHA-11 | 2026-09-03 13:55:46 | 47.66171 | 11.22541 | 128° | 64km/h | 4455m | -2.8m/s | -4.8°C | 87.1% | 600.1hPa | 2.7V | 00:00:00 | 03:26:12 | 00:00:00 | |
| DO3MHA-12 | 2026-09-03 13:55:42 | 47.66211 | 11.22464 | 128° | 66km/h | 4466m | -2.6m/s | -4.8°C | 88.2% | 599.2hPa | 2.7V | 07:07:00 | 03:26:08 | 00:00:00 | |
| DO3MHA-11 | 2026-09-03 13:55:41 | 47.66221 | 11.22443 | 125° | 66km/h | 4469m | -2.5m/s | -4.8°C | 87.1% | 599.2hPa | 2.7V | 07:07:00 | 03:26:07 | 00:00:00 | |
| DG1MFX-10 | 2026-09-03 13:55:38 | 47.66241 | 11.22403 | 126° | 69km/h | 4474m | -2.6m/s | -4.8°C | 82.4% | 598.8hPa | 2.7V | 00:00:00 | 00:00:00 | 00:00:00 | |
| DB0NH | 2026-09-03 13:55:37 | 47.66261 | 11.22364 | 128° | 64km/h | 4478m | -2.7m/s | -4.7°C | 83.0% | 598.3hPa | 2.7V | 00:00:00 | 03:26:03 | 00:00:00 | |
| DO3MHA-11 | 2026-09-03 13:55:36 | 47.66272 | 11.22344 | 132° | 68km/h | 4481m | -2.7m/s | -4.7°C | 81.9% | 598.0hPa | 2.7V | 00:00:00 | 03:26:02 | 00:00:00 | |
| DO3MHA-12 | 2026-09-03 13:55:27 | 47.66368 | 11.22171 | 132° | 66km/h | 4503m | -2.6m/s | -4.7°C | 77.3% | 596.0hPa | 2.7V | 00:00:00 | 03:25:53 | 00:00:00 | |
| OE5DXL-15 | 2026-09-03 13:55:23 | 47.66412 | 11.22098 | 131° | 66km/h | 4514m | -2.7m/s | -4.7°C | 82.0% | 595.2hPa | 2.7V | 00:00:00 | 00:00:00 | 00:00:00 | |
| DO3MHA-12 | 2026-09-03 13:55:22 | 47.66423 | 11.22079 | 132° | 68km/h | 4517m | -2.8m/s | -4.6°C | 76.0% | 594.9hPa | 2.7V | 00:00:00 | 03:25:48 | 00:00:00 | |
| DO3MHA-12 | 2026-09-03 13:55:17 | 47.66478 | 11.21984 | 131° | 62km/h | 4530m | -2.4m/s | -4.4°C | 46.9% | 594.1hPa | 2.7V | 00:00:00 | 03:25:43 | 00:00:00 | |
| DO3MHA-12 | 2026-09-03 13:55:12 | 47.66524 | 11.21889 | 123° | 60km/h | 4542m | -2.4m/s | -4.2°C | 33.7% | 593.0hPa | 2.7V | 00:00:00 | 03:25:38 | 00:00:00 | |
| DL6DJ-15 | 2026-09-03 13:55:11 | 47.66532 | 11.21869 | 122° | 60km/h | 4544m | -2.8m/s | -4.3°C | 31.0% | 592.9hPa | 2.7V | 00:00:00 | 00:00:00 | 00:00:00 | |
| DB0NH | 2026-09-03 13:55:07 | 47.66567 | 11.21794 | 125° | 73km/h | 4554m | -2.4m/s | -4.2°C | 27.6% | 592.1hPa | 2.7V | 00:00:00 | 03:25:33 | 00:00:00 | |
| DO3MHA-12 | 2026-09-03 13:54:57 | 47.66657 | 11.21580 | 123° | 73km/h | 4579m | -2.6m/s | -4.2°C | 26.1% | 590.2hPa | 2.7V | 07:08:00 | 03:25:23 | 00:00:00 | |
| OE5DXL-15 | 2026-09-03 13:54:53 | 47.66697 | 11.21487 | 124° | 75km/h | 4590m | -2.9m/s | -4.3°C | 26.2% | 589.4hPa | 2.7V | 07:08:00 | 00:00:00 | 00:00:00 | |
| DO3MHA-12 | 2026-09-03 13:54:52 | 47.66706 | 11.21464 | 121° | 73km/h | 4592m | -3.0m/s | -4.2°C | 26.8% | 589.2hPa | 2.6V | 00:00:00 | 03:25:18 | 00:00:00 | |
| DO3MHA-11 | 2026-09-03 13:54:47 | 47.66755 | 11.21348 | 123° | 77km/h | 4605m | -2.9m/s | -4.3°C | 24.4% | 588.3hPa | 2.6V | 00:00:00 | 03:25:13 | 00:00:00 | |
| DG1MJG | 2026-09-03 13:54:46 | 47.66755 | 11.21348 | 124° | 71km/h | 4605m | -2.9m/s | -4.3°C | 23.7% | 588.4hPa | 2.6V | 07:09:00 | 00:00:00 | 00:00:00 | |
| DG1MFX-10 | 2026-09-03 13:54:43 | 47.66788 | 11.21278 | 128° | 77km/h | 4613m | -2.8m/s | -4.3°C | 28.5% | 587.7hPa | 2.6V | 07:09:00 | 00:00:00 | 00:00:00 | |
| DO3MHA-12 | 2026-09-03 13:54:42 | 47.66812 | 11.21232 | 127° | 80km/h | 4618m | -2.4m/s | -4.3°C | 36.4% | 587.3hPa | 2.6V | 00:00:00 | 03:25:08 | 00:00:00 | |
| DO3MHA-12 | 2026-09-03 13:54:37 | 47.66872 | 11.21112 | 128° | 78km/h | 4630m | -2.4m/s | -4.5°C | 67.1% | 586.4hPa | 2.6V | 00:00:00 | 03:25:03 | 00:00:00 | |
| NBG1-10 | 2026-09-03 13:54:34 | 47.66909 | 11.21040 | 131° | 75km/h | 4638m | -2.6m/s | -4.5°C | 76.4% | 585.8hPa | 2.6V | 00:00:00 | 03:25:00 | 00:00:00 | |
| DO3MHA-12 | 2026-09-03 13:54:32 | 47.66936 | 11.20997 | 135° | 78km/h | 4643m | -2.0m/s | -4.6°C | 81.9% | 585.5hPa | 2.6V | 00:00:00 | 03:24:58 | 00:00:00 | |
| DO3MHA-12 | 2026-09-03 13:54:27 | 47.67006 | 11.20892 | 135° | 78km/h | 4655m | -2.5m/s | -4.9°C | 92.5% | 584.6hPa | 2.6V | 00:00:00 | 03:24:53 | 00:00:00 | |
| OE5DXL-15 | 2026-09-03 13:54:23 | 47.67062 | 11.20808 | 136° | 78km/h | 4665m | -2.1m/s | -4.6°C | 0% | 583.8hPa | 2.7V | 00:00:00 | 00:00:00 | 00:00:00 | |
| DO3MHA-12 | 2026-09-03 13:54:22 | 47.67075 | 11.20788 | 135° | 69km/h | 4667m | -1.8m/s | -4.5°C | 0% | 583.7hPa | 2.7V | 00:00:00 | 03:24:48 | 00:00:00 | |
| DO3MHA-12 | 2026-09-03 13:54:17 | 47.67133 | 11.20693 | 131° | 66km/h | 4678m | -2.7m/s | -4.6°C | 0% | 582.9hPa | 2.7V | 07:09:00 | 03:24:43 | 00:00:00 | |
| DG1MJG | 2026-09-03 13:54:15 | 47.67144 | 11.20675 | 132° | 68km/h | 4680m | -2.4m/s | -4.7°C | 97.7% | 582.7hPa | 2.7V | 07:09:00 | 00:00:00 | 00:00:00 | |
| DO3MHA-12 | 2026-09-03 13:54:12 | 47.67186 | 11.20595 | 124° | 77km/h | 4690m | -2.2m/s | -4.6°C | 99.1% | 582.0hPa | 2.7V | 00:00:00 | 03:24:38 | 00:00:00 | |
| DL6DJ-15 | 2026-09-03 13:54:09 | 47.67219 | 11.20525 | 125° | 78km/h | 4696m | -2.3m/s | -4.7°C | 95.5% | 581.6hPa | 2.7V | 00:00:00 | 00:00:00 | 00:00:00 | |
| DO3MHA-11 | 2026-09-03 13:54:07 | 47.67243 | 11.20477 | 131° | 80km/h | 4701m | -2.2m/s | -4.6°C | 96.2% | 581.2hPa | 2.7V | 00:00:00 | 03:24:33 | 00:00:00 | |
| DO3MHA-12 | 2026-09-03 13:54:02 | 47.67314 | 11.20368 | 134° | 82km/h | 4710m | -1.6m/s | -4.6°C | 95.4% | 580.5hPa | 2.7V | 00:00:00 | 03:24:28 | 00:00:00 | |
| NBG1-10 | 2026-09-03 13:54:01 | 47.67328 | 11.20345 | 135° | 75km/h | 4712m | -2.4m/s | -4.6°C | 95.6% | 580.3hPa | 2.7V | 00:00:00 | 03:24:27 | 00:00:00 | |
| DO3MHA-12 | 2026-09-03 13:53:57 | 47.67386 | 11.20258 | 135° | 73km/h | 4721m | -2.0m/s | -4.6°C | 94.3% | 579.6hPa | 2.7V | 00:00:00 | 03:24:23 | 00:00:00 | |
| DO3MHA-12 | 2026-09-03 13:53:52 | 47.67447 | 11.20156 | 129° | 69km/h | 4731m | -2.0m/s | -4.7°C | 92.6% | 579.0hPa | 2.7V | 00:00:00 | 03:24:18 | 00:00:00 | |
| DO3MHA-12 | 2026-09-03 13:53:47 | 47.67505 | 11.20058 | 131° | 71km/h | 4741m | -2.5m/s | -4.7°C | 90.7% | 578.2hPa | 2.7V | 00:00:00 | 03:24:13 | 00:00:00 | |
| OE5DXL-15 | 2026-09-03 13:53:45 | 47.67527 | 11.20016 | 127° | 78km/h | 4746m | -1.9m/s | -4.7°C | 90.7% | 577.9hPa | 2.7V | 00:00:00 | 00:00:00 | 00:00:00 | |
| DG1MJG | 2026-09-03 13:53:44 | 47.67527 | 11.20016 | 127° | 71km/h | 4746m | -1.9m/s | -4.8°C | 88.5% | 577.9hPa | 2.7V | 07:09:00 | 00:00:00 | 00:00:00 | |
| DO3MHA-12 | 2026-09-03 13:53:42 | 47.67559 | 11.19947 | 123° | 73km/h | 4752m | -2.3m/s | -4.8°C | 90.7% | 577.5hPa | 2.7V | 00:00:00 | 03:24:08 | 00:00:00 | |
| DG1MFX-10 | 2026-09-03 13:53:41 | 47.67559 | 11.19947 | 124° | 75km/h | 4752m | -2.3m/s | -4.8°C | 88.5% | 577.5hPa | 2.7V | 00:00:00 | 00:00:00 | 00:00:00 | |
| DL6DJ-15 | 2026-09-03 13:53:38 | 47.67600 | 11.19856 | 123° | 71km/h | 4760m | -2.1m/s | -4.9°C | 87.0% | 577.0hPa | 2.7V | 00:00:00 | 00:00:00 | 00:00:00 | |
| DO3MHA-12 | 2026-09-03 13:53:37 | 47.67610 | 11.19833 | 125° | 75km/h | 4763m | -2.0m/s | -4.8°C | 88.5% | 576.9hPa | 2.7V | 07:09:00 | 03:24:03 | 00:00:00 | |
| DO3MHA-12 | 2026-09-03 13:53:32 | 47.67663 | 11.19714 | 123° | 78km/h | 4772m | -2.4m/s | -4.9°C | 87.5% | 576.0hPa | 2.7V | 00:00:00 | 03:23:58 | 00:00:00 | |
| NBG1-10 | 2026-09-03 13:53:28 | 47.67705 | 11.19615 | 122° | 77km/h | 4780m | -1.8m/s | -4.9°C | 86.4% | 575.5hPa | 2.7V | 00:00:00 | 03:23:54 | 00:00:00 | |
| DO3MHA-12 | 2026-09-03 13:53:27 | 47.67715 | 11.19590 | 123° | 80km/h | 4782m | -2.0m/s | -4.9°C | 85.9% | 575.3hPa | 2.7V | 00:00:00 | 03:23:53 | 00:00:00 | |
| DO3MHA-12 | 2026-09-03 13:53:22 | 47.67773 | 11.19464 | 126° | 84km/h | 4791m | -1.8m/s | -4.9°C | 85.4% | 574.6hPa | 2.7V | 00:00:00 | 03:23:48 | 00:00:00 | |
| DO3MHA-12 | 2026-09-03 13:53:17 | 47.67833 | 11.19333 | 124° | 82km/h | 4801m | -2.2m/s | -5.0°C | 85.6% | 573.9hPa | 2.7V | 00:00:00 | 03:23:43 | 00:00:00 | |
| DG1MJG | 2026-09-03 13:53:14 | 47.67858 | 11.19282 | 128° | 82km/h | 4805m | -2.2m/s | -5.1°C | 82.6% | 573.6hPa | 2.7V | 07:10:00 | 00:00:00 | 00:00:00 | |
| DG1MFX-10 | 2026-09-03 13:53:13 | 47.67871 | 11.19258 | 130° | 82km/h | 4807m | -1.9m/s | -5.1°C | 82.7% | 573.6hPa | 2.7V | 00:00:00 | 00:00:00 | 00:00:00 | |
| DO3MHA-12 | 2026-09-03 13:53:12 | 47.67897 | 11.19214 | 132° | 77km/h | 4811m | -1.3m/s | -5.0°C | 84.1% | 573.2hPa | 2.7V | 00:00:00 | 03:23:38 | 00:00:00 | |
| DB0NH | 2026-09-03 13:53:11 | 47.67910 | 11.19192 | 133° | 75km/h | 4812m | -1.9m/s | -5.0°C | 83.6% | 573.1hPa | 2.7V | 00:00:00 | 03:23:37 | 00:00:00 | |
| DO3MHA-12 | 2026-09-03 13:53:07 | 47.67962 | 11.19108 | 132° | 75km/h | 4820m | -1.5m/s | -5.1°C | 82.6% | 572.6hPa | 2.7V | 00:00:00 | 03:23:33 | 00:00:00 | |
| DO3MHA-12 | 2026-09-03 13:53:02 | 47.68023 | 11.19003 | 130° | 69km/h | 4829m | -2.0m/s | -5.1°C | 82.7% | 571.9hPa | 2.7V | 00:00:00 | 03:23:28 | 00:00:00 | |
| DO3MHA-12 | 2026-09-03 13:52:57 | 47.68077 | 11.18901 | 132° | 69km/h | 4839m | -1.8m/s | -5.1°C | 85.0% | 571.2hPa | 2.7V | 07:10:00 | 03:23:23 | 00:00:00 | |
| NBG1-10 | 2026-09-03 13:52:55 | 47.68100 | 11.18862 | 131° | 77km/h | 4843m | -2.3m/s | -5.2°C | 84.5% | 570.8hPa | 2.7V | 00:00:00 | 03:23:21 | 00:00:00 | |
| DG1MFX-10 | 2026-09-03 13:52:53 | 47.68111 | 11.18843 | 132° | 69km/h | 4845m | -2.3m/s | -5.2°C | 82.1% | 570.8hPa | 2.7V | 00:00:00 | 00:00:00 | 00:00:00 | |
| DO3MHA-12 | 2026-09-03 13:52:52 | 47.68132 | 11.18801 | 126° | 73km/h | 4849m | -2.2m/s | -5.2°C | 85.0% | 570.5hPa | 2.7V | 00:00:00 | 03:23:18 | 00:00:00 | |
| DO3MHA-12 | 2026-09-03 13:52:47 | 47.68180 | 11.18686 | 120° | 73km/h | 4859m | -2.0m/s | -5.2°C | 82.4% | 569.8hPa | 2.7V | 00:00:00 | 03:23:13 | 00:00:00 | |
| DO3MHA-12 | 2026-09-03 13:52:42 | 47.68227 | 11.18565 | 121° | 80km/h | 4869m | -2.1m/s | -5.3°C | 83.0% | 569.0hPa | 2.7V | 00:00:00 | 03:23:08 | 00:00:00 | |
| DO3MHA-12 | 2026-09-03 13:52:37 | 47.68286 | 11.18441 | 129° | 82km/h | 4877m | -2.4m/s | -5.3°C | 81.8% | 568.5hPa | 2.7V | 00:00:00 | 03:23:03 | 00:00:00 | |
| DO3MHA-11 | 2026-09-03 13:52:36 | 47.68299 | 11.18417 | 130° | 82km/h | 4880m | -1.9m/s | -5.3°C | 81.7% | 568.3hPa | 2.7V | 00:00:00 | 03:23:02 | 00:00:00 | |
| DB0ND-19 | 2026-09-03 13:52:34 | 47.68325 | 11.18368 | 127° | 82km/h | 4883m | -1.7m/s | -5.4°C | 79.6% | 568.1hPa | 2.7V | 00:00:00 | 00:00:00 | 00:00:00 | |
| DO3MHA-12 | 2026-09-03 13:52:32 | 47.68351 | 11.18318 | 128° | 80km/h | 4887m | -1.9m/s | -5.4°C | 81.4% | 567.7hPa | 2.7V | 00:00:00 | 03:22:58 | 00:00:00 | |
| DO3MHA-11 | 2026-09-03 13:52:31 | 47.68363 | 11.18293 | 128° | 78km/h | 4889m | -2.3m/s | -5.4°C | 81.3% | 567.5hPa | 2.7V | 00:00:00 | 03:22:57 | 00:00:00 | |
| DO3MHA-12 | 2026-09-03 13:52:27 | 47.68414 | 11.18202 | 131° | 77km/h | 4897m | -2.0m/s | -5.4°C | 81.0% | 567.0hPa | 2.7V | 00:00:00 | 03:22:53 | 00:00:00 | |
| DO3MHA-11 | 2026-09-03 13:52:26 | 47.68427 | 11.18181 | 131° | 77km/h | 4899m | -2.3m/s | -5.5°C | 81.0% | 566.9hPa | 2.7V | 00:00:00 | 03:22:52 | 00:00:00 | |
| DO3MHA-12 | 2026-09-03 13:52:22 | 47.68478 | 11.18093 | 131° | 78km/h | 4906m | -2.2m/s | -5.5°C | 83.2% | 566.3hPa | 2.7V | 00:00:00 | 03:22:48 | 00:00:00 | |
| DO3MHA-11 | 2026-09-03 13:52:21 | 47.68491 | 11.18071 | 131° | 77km/h | 4909m | -2.3m/s | -5.5°C | 82.7% | 566.2hPa | 2.7V | 00:00:00 | 03:22:47 | 00:00:00 | |
| DO3MHA-12 | 2026-09-03 13:52:17 | 47.68540 | 11.17982 | 128° | 71km/h | 4916m | -1.7m/s | -5.6°C | 86.4% | 565.6hPa | 2.7V | 07:11:00 | 03:22:43 | 00:00:00 | |
| DO3MHA-11 | 2026-09-03 13:52:16 | 47.68551 | 11.17960 | 127° | 71km/h | 4918m | -1.6m/s | -5.6°C | 86.4% | 565.5hPa | 2.7V | 07:11:00 | 03:22:42 | 00:00:00 | |
| DG1MJG | 2026-09-03 13:52:13 | 47.68573 | 11.17918 | 129° | 71km/h | 4921m | -2.3m/s | -5.7°C | 84.0% | 565.2hPa | 2.7V | 07:11:00 | 00:00:00 | 00:00:00 | |
| DO3MHA-12 | 2026-09-03 13:52:12 | 47.68595 | 11.17876 | 131° | 73km/h | 4925m | -2.1m/s | -5.7°C | 85.2% | 565.0hPa | 2.7V | 00:00:00 | 03:22:38 | 00:00:00 | |
| DO3MHA-11 | 2026-09-03 13:52:11 | 47.68607 | 11.17855 | 130° | 73km/h | 4927m | -2.1m/s | -5.7°C | 84.7% | 564.8hPa | 2.7V | 00:00:00 | 03:22:37 | 00:00:00 | |
| DB0NH | 2026-09-03 13:52:10 | 47.68619 | 11.17834 | 129° | 78km/h | 4930m | -1.5m/s | -5.7°C | 84.5% | 564.6hPa | 2.7V | 07:11:00 | 03:22:36 | 00:00:00 | |
| DO3MHA-12 | 2026-09-03 13:52:07 | 47.68651 | 11.17767 | 122° | 73km/h | 4935m | -2.0m/s | -5.7°C | 82.4% | 564.2hPa | 2.7V | 00:00:00 | 03:22:33 | 00:00:00 | |
| DO3MHA-11 | 2026-09-03 13:52:05 | 47.68670 | 11.17719 | 120° | 75km/h | 4939m | -2.1m/s | -5.7°C | 80.5% | 563.9hPa | 2.7V | 00:00:00 | 03:22:31 | 00:00:00 | |
| DB0ND-19 | 2026-09-03 13:52:03 | 47.68688 | 11.17673 | 120° | 71km/h | 4944m | -2.0m/s | -5.8°C | 77.3% | 563.7hPa | 2.7V | 00:00:00 | 00:00:00 | 00:00:00 | |
| DO3MHA-12 | 2026-09-03 13:52:02 | 47.68697 | 11.17649 | 122° | 75km/h | 4946m | -2.2m/s | -5.7°C | 79.1% | 563.5hPa | 2.7V | 00:00:00 | 03:22:28 | 00:00:00 | |
| DG1MFX-10 | 2026-09-03 13:52:01 | 47.68697 | 11.17649 | 123° | 71km/h | 4946m | -2.2m/s | -5.8°C | 77.1% | 563.6hPa | 2.7V | 07:11:00 | 00:00:00 | 00:00:00 | |
| DO3MHA-12 | 2026-09-03 13:51:57 | 47.68747 | 11.17528 | 120° | 80km/h | 4957m | -2.0m/s | -5.8°C | 76.1% | 562.6hPa | 2.7V | 00:00:00 | 03:22:23 | 00:00:00 | |
| DO3MHA-12 | 2026-09-03 13:51:52 | 47.68796 | 11.17398 | 120° | 78km/h | 4967m | -1.9m/s | -5.9°C | 74.5% | 561.9hPa | 2.7V | 00:00:00 | 03:22:18 | 00:00:00 | |
| NBG1-10 | 2026-09-03 13:51:49 | 47.68825 | 11.17322 | 121° | 84km/h | 4973m | -2.2m/s | -5.9°C | 72.2% | 561.5hPa | 2.7V | 00:00:00 | 03:22:15 | 00:00:00 | |
| DO3MHA-11 | 2026-09-03 13:51:47 | 47.68846 | 11.17271 | 123° | 84km/h | 4977m | -2.0m/s | -5.9°C | 67.8% | 561.1hPa | 2.7V | 00:00:00 | 03:22:13 | 00:00:00 | |
| DO3MHA-12 | 2026-09-03 13:51:42 | 47.68906 | 11.17140 | 125° | 86km/h | 4988m | -2.1m/s | -5.9°C | 63.2% | 560.3hPa | 2.7V | 00:00:00 | 03:22:08 | 00:00:00 | |
| DB0NH | 2026-09-03 13:51:40 | 47.68931 | 11.17087 | 125° | 84km/h | 4992m | -2.0m/s | -5.8°C | 58.6% | 560.1hPa | 2.7V | 00:00:00 | 03:22:06 | 00:00:00 | |
| DG1MFX-10 | 2026-09-03 13:51:39 | 47.68931 | 11.17087 | 126° | 86km/h | 4992m | -2.1m/s | -5.9°C | 57.0% | 560.1hPa | 2.7V | 07:12:00 | 00:00:00 | 00:00:00 | |
| DO3MHA-12 | 2026-09-03 13:51:37 | 47.68969 | 11.17009 | 129° | 86km/h | 4999m | -2.3m/s | -5.8°C | 52.4% | 559.6hPa | 2.7V | 07:11:00 | 03:22:03 | 00:00:00 | |
| OE5DXL-15 | 2026-09-03 13:51:35 | 47.68996 | 11.16959 | 130° | 80km/h | 5004m | -2.5m/s | -5.8°C | 51.5% | 559.3hPa | 2.7V | 00:00:00 | 00:00:00 | 00:00:00 | |
| DB0ND-19 | 2026-09-03 13:51:32 | 47.69036 | 11.16882 | 127° | 88km/h | 5011m | -2.4m/s | -5.8°C | 50.5% | 558.8hPa | 2.7V | 00:00:00 | 00:00:00 | 00:00:00 | |
| DO3MHA-12 | 2026-09-03 13:51:29 | 47.69074 | 11.16804 | 128° | 84km/h | 5018m | -2.2m/s | -5.8°C | 52.2% | 558.3hPa | 2.7V | 00:00:00 | 03:21:55 | 00:00:00 | |
| DO3MHA-11 | 2026-09-03 13:51:28 | 47.69088 | 11.16779 | 130° | 82km/h | 5020m | -1.9m/s | -5.8°C | 52.9% | 558.1hPa | 2.7V | 07:12:00 | 03:21:54 | 00:00:00 | |
| DO3MHA-12 | 2026-09-03 13:51:19 | 47.69212 | 11.16569 | 131° | 80km/h | 5040m | -2.3m/s | -6.0°C | 60.9% | 556.6hPa | 2.7V | 00:00:00 | 03:21:45 | 00:00:00 | |
| DO3MHA-11 | 2026-09-03 13:51:18 | 47.69225 | 11.16547 | 133° | 78km/h | 5043m | -2.7m/s | -6.0°C | 62.1% | 556.5hPa | 2.7V | 00:00:00 | 03:21:44 | 00:00:00 | |
| NBG1-10 | 2026-09-03 13:51:16 | 47.69251 | 11.16503 | 132° | 77km/h | 5048m | -2.5m/s | -6.1°C | 63.6% | 556.1hPa | 2.7V | 00:00:00 | 03:21:42 | 00:00:00 | |
| DG1MJG | 2026-09-03 13:51:12 | 47.69292 | 11.16437 | 132° | 82km/h | 5055m | -2.1m/s | -6.2°C | 62.8% | 555.6hPa | 2.7V | 07:12:00 | 00:00:00 | 00:00:00 | |
| DB0NH | 2026-09-03 13:51:10 | 47.69334 | 11.16370 | 133° | 77km/h | 5063m | -2.6m/s | -6.2°C | 65.2% | 555.1hPa | 2.7V | 00:00:00 | 03:21:36 | 00:00:00 | |
| DO3MHA-12 | 2026-09-03 13:51:09 | 47.69346 | 11.16349 | 131° | 71km/h | 5065m | -2.6m/s | -6.3°C | 65.4% | 555.0hPa | 2.7V | 00:00:00 | 03:21:35 | 00:00:00 | |
| DO3MHA-11 | 2026-09-03 13:51:08 | 47.69359 | 11.16327 | 132° | 71km/h | 5068m | -2.5m/s | -6.3°C | 65.5% | 554.7hPa | 2.7V | 00:00:00 | 03:21:34 | 00:00:00 | |
| OE5DXL-15 | 2026-09-03 13:51:05 | 47.69393 | 11.16265 | 129° | 78km/h | 5076m | -2.8m/s | -6.3°C | 66.1% | 554.2hPa | 2.6V | 00:00:00 | 00:00:00 | 00:00:00 | |
| DB0ND-19 | 2026-09-03 13:51:01 | 47.69438 | 11.16184 | 130° | 69km/h | 5087m | -2.8m/s | -6.5°C | 65.1% | 553.5hPa | 2.6V | 00:00:00 | 00:00:00 | 00:00:00 | |
| DO3MHA-12 | 2026-09-03 13:50:59 | 47.69461 | 11.16142 | 129° | 77km/h | 5093m | -2.6m/s | -6.5°C | 67.2% | 553.1hPa | 2.6V | 00:00:00 | 03:21:25 | 00:00:00 | |
| DO3MHA-11 | 2026-09-03 13:50:58 | 47.69472 | 11.16121 | 126° | 77km/h | 5095m | -2.4m/s | -6.5°C | 67.2% | 553.0hPa | 2.6V | 00:00:00 | 03:21:24 | 00:00:00 | |
| DO3MHA-12 | 2026-09-03 13:50:49 | 47.69564 | 11.15901 | 123° | 84km/h | 5118m | -2.7m/s | -6.7°C | 67.8% | 551.3hPa | 2.6V | 00:00:00 | 03:21:15 | 00:00:00 | |
| DO3MHA-11 | 2026-09-03 13:50:48 | 47.69576 | 11.15876 | 125° | 84km/h | 5120m | -2.1m/s | -6.7°C | 68.0% | 551.1hPa | 2.6V | 00:00:00 | 03:21:14 | 00:00:00 | |
| NBG1-10 | 2026-09-03 13:50:43 | 47.69643 | 11.15753 | 130° | 78km/h | 5133m | -2.4m/s | -6.8°C | 67.2% | 550.3hPa | 2.6V | 07:12:00 | 03:21:09 | 00:00:00 | |
| DG1MJG | 2026-09-03 13:50:42 | 47.69642 | 11.15753 | 130° | 86km/h | 5133m | -2.5m/s | -6.9°C | 65.3% | 550.4hPa | 2.7V | 07:13:00 | 00:00:00 | 00:00:00 | |
| DG1MFX-10 | 2026-09-03 13:50:41 | 47.69657 | 11.15728 | 131° | 86km/h | 5136m | -3.0m/s | -6.9°C | 65.2% | 550.2hPa | 2.7V | 00:00:00 | 00:00:00 | 00:00:00 | |
| DB0NH | 2026-09-03 13:50:40 | 47.69684 | 11.15678 | 129° | 78km/h | 5141m | -2.8m/s | -6.9°C | 66.4% | 549.7hPa | 2.7V | 00:00:00 | 03:21:06 | 00:00:00 | |
| DO3MHA-12 | 2026-09-03 13:50:39 | 47.69697 | 11.15653 | 128° | 80km/h | 5144m | -2.7m/s | -6.9°C | 66.3% | 549.6hPa | 2.7V | 00:00:00 | 03:21:05 | 00:00:00 | |
| DO3MHA-11 | 2026-09-03 13:50:38 | 47.69711 | 11.15628 | 130° | 80km/h | 5147m | -2.5m/s | -6.9°C | 66.5% | 549.3hPa | 2.7V | 00:00:00 | 03:21:04 | 00:00:00 | |
| OE5DXL-15 | 2026-09-03 13:50:35 | 47.69751 | 11.15560 | 134° | 77km/h | 5154m | -2.7m/s | -7.0°C | 65.8% | 548.8hPa | 2.7V | 07:12:00 | 00:00:00 | 00:00:00 | |
| DO3MHA-12 | 2026-09-03 13:50:29 | 47.69834 | 11.15426 | 132° | 77km/h | 5170m | -3.0m/s | -7.1°C | 61.5% | 547.7hPa | 2.7V | 00:00:00 | 03:20:55 | 00:00:00 | |
| DO3MHA-11 | 2026-09-03 13:50:28 | 47.69848 | 11.15403 | 132° | 75km/h | 5173m | -2.6m/s | -7.1°C | 60.5% | 547.5hPa | 2.7V | 00:00:00 | 03:20:54 | 00:00:00 | |
| DG1MFX-10 | 2026-09-03 13:50:21 | 47.69924 | 11.15277 | 134° | 75km/h | 5189m | -2.9m/s | -7.3°C | 60.4% | 546.5hPa | 2.7V | 00:00:00 | 00:00:00 | 00:00:00 | |
| DO3MHA-12 | 2026-09-03 13:50:19 | 47.69963 | 11.15215 | 134° | 75km/h | 5198m | -2.7m/s | -7.3°C | 63.4% | 545.9hPa | 2.7V | 07:13:00 | 03:20:45 | 00:00:00 | |
| DO3MHA-11 | 2026-09-03 13:50:18 | 47.69976 | 11.15194 | 131° | 75km/h | 5200m | -3.1m/s | -7.3°C | 63.7% | 545.7hPa | 2.6V | 00:00:00 | 03:20:44 | 00:00:00 | |
| DG1MJG | 2026-09-03 13:50:11 | 47.70040 | 11.15056 | 122° | 75km/h | 5217m | -2.9m/s | -7.5°C | 64.5% | 544.7hPa | 2.6V | 07:13:00 | 00:00:00 | 00:00:00 | |
| DB0NH | 2026-09-03 13:50:10 | 47.70060 | 11.15008 | 123° | 80km/h | 5222m | -2.3m/s | -7.5°C | 67.3% | 544.3hPa | 2.6V | 00:00:00 | 03:20:36 | 00:00:00 | |
| DO3MHA-12 | 2026-09-03 13:50:09 | 47.70070 | 11.14985 | 122° | 84km/h | 5225m | -2.8m/s | -7.5°C | 68.2% | 544.1hPa | 2.6V | 00:00:00 | 03:20:35 | 00:00:00 | |
| DO3MHA-11 | 2026-09-03 13:50:08 | 47.70080 | 11.14961 | 122° | 86km/h | 5228m | -2.8m/s | -7.5°C | 68.2% | 543.9hPa | 2.6V | 07:13:00 | 03:20:34 | 00:00:00 | |
| OE5DXL-15 | 2026-09-03 13:50:03 | 47.70137 | 11.14832 | 126° | 80km/h | 5241m | -2.6m/s | -7.6°C | 68.0% | 543.0hPa | 2.7V | 00:00:00 | 00:00:00 | 00:00:00 | |
| DO3MHA-12 | 2026-09-03 13:49:59 | 47.70189 | 11.14723 | 125° | 84km/h | 5252m | -2.8m/s | -7.7°C | 68.8% | 542.2hPa | 2.7V | 00:00:00 | 03:20:25 | 00:00:00 | |
| DO3MHA-11 | 2026-09-03 13:49:58 | 47.70202 | 11.14695 | 125° | 82km/h | 5255m | -2.9m/s | -7.7°C | 68.0% | 542.0hPa | 2.7V | 00:00:00 | 03:20:24 | 00:00:00 | |
| DG1MFX-10 | 2026-09-03 13:49:52 | 47.70268 | 11.14563 | 130° | 82km/h | 5268m | -2.5m/s | -7.8°C | 66.4% | 541.1hPa | 2.7V | 07:14:00 | 00:00:00 | 00:00:00 | |
| DO3MHA-12 | 2026-09-03 13:49:49 | 47.70317 | 11.14473 | 130° | 75km/h | 5278m | -2.7m/s | -7.8°C | 66.4% | 540.4hPa | 2.7V | 00:00:00 | 03:20:15 | 00:00:00 | |
| DO3MHA-11 | 2026-09-03 13:49:48 | 47.70330 | 11.14451 | 130° | 75km/h | 5280m | -2.5m/s | -7.8°C | 66.6% | 540.2hPa | 2.6V | 00:00:00 | 03:20:14 | 00:00:00 | |
| DG1MJG | 2026-09-03 13:49:41 | 47.70398 | 11.14315 | 124° | 75km/h | 5296m | -2.7m/s | -7.9°C | 67.0% | 539.2hPa | 2.6V | 07:14:00 | 00:00:00 | 00:00:00 | |
| DB0NH | 2026-09-03 13:49:40 | 47.70419 | 11.14268 | 123° | 80km/h | 5301m | -2.5m/s | -7.9°C | 69.1% | 538.7hPa | 2.6V | 00:00:00 | 03:20:06 | 00:00:00 | |
| DO3MHA-12 | 2026-09-03 13:49:39 | 47.70429 | 11.14245 | 124° | 77km/h | 5304m | -2.5m/s | -7.9°C | 69.5% | 538.6hPa | 2.6V | 00:00:00 | 03:20:05 | 00:00:00 | |
| NBG1-10 | 2026-09-03 13:49:37 | 47.70450 | 11.14198 | 124° | 82km/h | 5309m | -2.6m/s | -7.9°C | 69.2% | 538.2hPa | 2.6V | 00:00:00 | 03:20:03 | 00:00:00 | |
| OE5DXL-15 | 2026-09-03 13:49:33 | 47.70490 | 11.14100 | 120° | 82km/h | 5320m | -2.7m/s | -8.0°C | 68.8% | 537.5hPa | 2.6V | 00:00:00 | 00:00:00 | 00:00:00 | |
| DO3MHA-12 | 2026-09-03 13:49:29 | 47.70530 | 11.13999 | 122° | 80km/h | 5330m | -2.4m/s | -8.0°C | 66.9% | 536.8hPa | 2.6V | 00:00:00 | 03:19:55 | 00:00:00 | |
| DO3MHA-11 | 2026-09-03 13:49:28 | 47.70540 | 11.13975 | 122° | 80km/h | 5333m | -2.5m/s | -8.1°C | 67.0% | 536.6hPa | 2.6V | 00:00:00 | 03:19:54 | 00:00:00 | |
| DG1MFX-10 | 2026-09-03 13:49:27 | 47.70540 | 11.13975 | 122° | 77km/h | 5333m | -2.6m/s | -8.1°C | 65.1% | 536.7hPa | 2.6V | 07:14:00 | 00:00:00 | 00:00:00 | |
| DO3MHA-12 | 2026-09-03 13:49:19 | 47.70634 | 11.13740 | 121° | 84km/h | 5356m | -2.5m/s | -8.2°C | 69.9% | 535.0hPa | 2.6V | 00:00:00 | 03:19:45 | 00:00:00 | |
| DO3MHA-11 | 2026-09-03 13:49:18 | 47.70644 | 11.13714 | 121° | 84km/h | 5359m | -2.7m/s | -8.3°C | 70.6% | 534.8hPa | 2.7V | 00:00:00 | 03:19:44 | 00:00:00 | |
| DB0NH | 2026-09-03 13:49:10 | 47.70732 | 11.13496 | 122° | 89km/h | 5379m | -2.4m/s | -8.4°C | 70.6% | 533.4hPa | 2.7V | 00:00:00 | 03:19:36 | 00:00:00 | |
| DO3MHA-12 | 2026-09-03 13:49:09 | 47.70744 | 11.13469 | 123° | 88km/h | 5382m | -2.4m/s | -8.4°C | 70.7% | 533.3hPa | 2.7V | 00:00:00 | 03:19:35 | 00:00:00 | |
| DO3MHA-11 | 2026-09-03 13:49:08 | 47.70756 | 11.13441 | 124° | 88km/h | 5385m | -2.5m/s | -8.4°C | 71.4% | 533.0hPa | 2.7V | 00:00:00 | 03:19:34 | 00:00:00 | |
| DG1MFX-10 | 2026-09-03 13:49:06 | 47.70769 | 11.13414 | 125° | 89km/h | 5387m | -2.7m/s | -8.5°C | 70.4% | 533.0hPa | 2.7V | 00:00:00 | 00:00:00 | 00:00:00 | |
| NBG1-10 | 2026-09-03 13:49:04 | 47.70806 | 11.13331 | 124° | 89km/h | 5395m | -2.4m/s | -8.5°C | 74.5% | 532.4hPa | 2.7V | 00:00:00 | 03:19:30 | 00:00:00 | |
| OE5DXL-15 | 2026-09-03 13:49:03 | 47.70819 | 11.13303 | 123° | 89km/h | 5397m | -2.4m/s | -8.5°C | 75.1% | 532.1hPa | 2.7V | 00:00:00 | 00:00:00 | 00:00:00 | |
| DL6DJ-15 | 2026-09-03 13:48:58 | 47.70880 | 11.13165 | 125° | 89km/h | 5411m | -2.6m/s | -8.6°C | 73.8% | 531.3hPa | 2.7V | 00:00:00 | 00:00:00 | 00:00:00 | |
| DB0ND-19 | 2026-09-03 13:48:57 | 47.70998 | 11.12916 | 127° | 91km/h | 5433m | -2.6m/s | -8.8°C | 76.2% | 529.7hPa | 2.7V | 00:00:00 | 00:00:00 | 00:00:00 | |
| DO3MHA-12 | 2026-09-03 13:48:49 | 47.70998 | 11.12916 | 128° | 91km/h | 5433m | -2.6m/s | -8.8°C | 78.6% | 529.7hPa | 2.7V | 00:00:00 | 03:19:15 | 00:00:00 | |
| DO3MHA-11 | 2026-09-03 13:48:48 | 47.71012 | 11.12888 | 128° | 91km/h | 5436m | -2.4m/s | -8.8°C | 78.4% | 529.6hPa | 2.7V | 07:14:00 | 03:19:14 | 00:00:00 | |
| DG1MFX-10 | 2026-09-03 13:48:41 | 47.71096 | 11.12726 | 131° | 89km/h | 5450m | -2.5m/s | -9.0°C | 77.1% | 528.6hPa | 2.7V | 00:00:00 | 00:00:00 | 00:00:00 | |
| DB0NH | 2026-09-03 13:48:40 | 47.71125 | 11.12675 | 132° | 86km/h | 5456m | -2.5m/s | -9.0°C | 79.8% | 528.2hPa | 2.7V | 00:00:00 | 03:19:06 | 00:00:00 | |
| DO3MHA-12 | 2026-09-03 13:48:39 | 47.71140 | 11.12650 | 131° | 89km/h | 5458m | -2.6m/s | -9.0°C | 79.7% | 528.0hPa | 2.7V | 00:00:00 | 03:19:05 | 00:00:00 | |
| DO3MHA-11 | 2026-09-03 13:48:38 | 47.71155 | 11.12624 | 130° | 89km/h | 5461m | -2.5m/s | -9.0°C | 79.8% | 527.9hPa | 2.7V | 00:00:00 | 03:19:04 | 00:00:00 | |
| OE5DXL-15 | 2026-09-03 13:48:33 | 47.71229 | 11.12495 | 133° | 82km/h | 5474m | -2.6m/s | -9.0°C | 80.1% | 527.0hPa | 2.6V | 00:00:00 | 00:00:00 | 00:00:00 | |
| NBG1-10 | 2026-09-03 13:48:31 | 47.71259 | 11.12446 | 133° | 82km/h | 5478m | -2.6m/s | -9.0°C | 79.9% | 526.6hPa | 2.7V | 00:00:00 | 03:18:57 | 00:00:00 | |
| DO3MHA-12 | 2026-09-03 13:48:29 | 47.71290 | 11.12396 | 133° | 89km/h | 5484m | -2.4m/s | -9.1°C | 80.1% | 526.3hPa | 2.7V | 00:00:00 | 03:18:55 | 00:00:00 | |
| DL6DJ-15 | 2026-09-03 13:48:27 | 47.71321 | 11.12347 | 132° | 89km/h | 5489m | -2.7m/s | -9.2°C | 77.3% | 526.0hPa | 2.7V | 00:00:00 | 00:00:00 | 00:00:00 | |
| DB0ND-19 | 2026-09-03 13:48:26 | 47.71352 | 11.12298 | 134° | 88km/h | 5494m | -2.6m/s | -9.2°C | 75.4% | 525.7hPa | 2.7V | 00:00:00 | 00:00:00 | 00:00:00 | |
| DG1MFX-10 | 2026-09-03 13:48:21 | 47.71399 | 11.12228 | 136° | 88km/h | 5502m | -2.5m/s | -9.1°C | 60.9% | 525.1hPa | 2.7V | 07:15:00 | 00:00:00 | 00:00:00 | |
| DO3MHA-12 | 2026-09-03 13:48:19 | 47.71445 | 11.12158 | 135° | 78km/h | 5510m | -2.6m/s | -9.1°C | 56.4% | 524.6hPa | 2.7V | 00:00:00 | 03:18:45 | 00:00:00 | |
| DO3MHA-11 | 2026-09-03 13:48:18 | 47.71459 | 11.12135 | 134° | 77km/h | 5512m | -2.3m/s | -9.1°C | 56.0% | 524.4hPa | 2.6V | 00:00:00 | 03:18:44 | 00:00:00 | |
| DB0NH | 2026-09-03 13:48:10 | 47.71563 | 11.11964 | 133° | 86km/h | 5533m | -2.7m/s | -9.3°C | 56.3% | 523.0hPa | 2.6V | 07:15:00 | 03:18:36 | 00:00:00 | |
| DO3MHA-12 | 2026-09-03 13:48:09 | 47.71576 | 11.11943 | 132° | 78km/h | 5535m | -2.8m/s | -9.4°C | 56.3% | 522.8hPa | 2.6V | 00:00:00 | 03:18:35 | 00:00:00 | |
| DO3MHA-11 | 2026-09-03 13:48:08 | 47.71588 | 11.11921 | 130° | 78km/h | 5538m | -2.4m/s | -9.4°C | 56.3% | 522.6hPa | 2.6V | 00:00:00 | 03:18:34 | 00:00:00 | |
| OE5DXL-15 | 2026-09-03 13:48:03 | 47.71649 | 11.11801 | 127° | 82km/h | 5551m | -2.6m/s | -9.5°C | 56.9% | 521.8hPa | 2.6V | 00:00:00 | 00:00:00 | 00:00:00 | |
| DB0ND-19 | 2026-09-03 13:47:55 | 47.71746 | 11.11606 | 125° | 80km/h | 5572m | -2.7m/s | -9.7°C | 58.4% | 520.4hPa | 2.6V | 00:00:00 | 00:00:00 | 00:00:00 | |
| DG1MFX-10 | 2026-09-03 13:47:53 | 47.71758 | 11.11581 | 126° | 80km/h | 5574m | -2.7m/s | -9.7°C | 59.0% | 520.3hPa | 2.6V | 07:15:00 | 00:00:00 | 00:00:00 | |
| DO3MHA-12 | 2026-09-03 13:47:49 | 47.71817 | 11.11458 | 127° | 89km/h | 5588m | -2.3m/s | -9.8°C | 63.7% | 519.3hPa | 2.6V | 00:00:00 | 03:18:15 | 00:00:00 | |
| DO3MHA-11 | 2026-09-03 13:47:48 | 47.71830 | 11.11432 | 129° | 89km/h | 5590m | -2.3m/s | -9.9°C | 64.0% | 519.2hPa | 2.7V | 00:00:00 | 03:18:14 | 00:00:00 | |
| DO3MHA-12 | 2026-09-03 13:47:39 | 47.71960 | 11.11198 | 130° | 88km/h | 5613m | -2.5m/s | -10.0°C | 75.9% | 517.6hPa | 2.7V | 07:15:00 | 03:18:05 | 00:00:00 | |
| DO3MHA-11 | 2026-09-03 13:47:38 | 47.71974 | 11.11173 | 132° | 86km/h | 5616m | -2.5m/s | -10.1°C | 77.9% | 517.4hPa | 2.7V | 00:00:00 | 03:18:04 | 00:00:00 | |
| DB0NH | 2026-09-03 13:47:33 | 47.72051 | 11.11058 | 136° | 80km/h | 5629m | -2.7m/s | -10.1°C | 79.3% | 516.6hPa | 2.7V | 00:00:00 | 03:17:59 | 00:00:00 | |
| OE5DXL-15 | 2026-09-03 13:47:32 | 47.72066 | 11.11036 | 136° | 80km/h | 5631m | -2.6m/s | -10.1°C | 80.5% | 516.4hPa | 2.7V | 00:00:00 | 00:00:00 | 00:00:00 | |
| DO3MHA-12 | 2026-09-03 13:47:29 | 47.72114 | 11.10967 | 136° | 77km/h | 5639m | -2.7m/s | -10.2°C | 85.4% | 515.9hPa | 2.7V | 00:00:00 | 03:17:55 | 00:00:00 | |
| DO3MHA-11 | 2026-09-03 13:47:28 | 47.72129 | 11.10945 | 136° | 75km/h | 5642m | -2.6m/s | -10.2°C | 85.2% | 515.7hPa | 2.7V | 07:16:00 | 03:17:54 | 00:00:00 | |
| NBG1-10 | 2026-09-03 13:47:25 | 47.72169 | 11.10883 | 133° | 82km/h | 5650m | -2.5m/s | -10.2°C | 86.3% | 515.1hPa | 2.7V | 00:00:00 | 03:17:51 | 00:00:00 | |
| DB0ND-19 | 2026-09-03 13:47:24 | 47.72195 | 11.10842 | 131° | 73km/h | 5655m | -2.7m/s | -10.3°C | 83.2% | -1.0hPa | 2.7V | 00:00:00 | 00:00:00 | 00:00:00 | |
| DO3MHA-12 | 2026-09-03 13:47:19 | 47.72245 | 11.10759 | 132° | 78km/h | 5666m | -2.7m/s | -10.3°C | 85.7% | 514.0hPa | 2.7V | 00:00:00 | 03:17:45 | 00:00:00 | |
| DO3MHA-11 | 2026-09-03 13:47:18 | 47.72258 | 11.10737 | 130° | 78km/h | 5669m | -2.7m/s | -10.3°C | 85.0% | 513.9hPa | 2.7V | 00:00:00 | 03:17:44 | 00:00:00 | |
| DO3MHA-12 | 2026-09-03 13:47:09 | 47.72364 | 11.10521 | 126° | 86km/h | 5694m | -2.6m/s | -10.3°C | 82.5% | 512.2hPa | 2.7V | 00:00:00 | 03:17:35 | 00:00:00 | |
| DO3MHA-11 | 2026-09-03 13:47:08 | 47.72377 | 11.10495 | 126° | 86km/h | 5696m | -2.8m/s | -10.3°C | 82.6% | 512.0hPa | 2.7V | 00:00:00 | 03:17:34 | 00:00:00 | |
| DB0NH | 2026-09-03 13:47:03 | 47.72439 | 11.10366 | 126° | 88km/h | 5711m | -2.8m/s | -10.4°C | 82.7% | 511.1hPa | 2.7V | 00:00:00 | 03:17:29 | 00:00:00 | |
| OE5DXL-15 | 2026-09-03 13:47:02 | 47.72451 | 11.10340 | 127° | 88km/h | 5714m | -2.9m/s | -10.4°C | 82.3% | 510.9hPa | 2.7V | 00:00:00 | 00:00:00 | 00:00:00 | |
| DL9SK-14 | 2026-09-03 13:46:54 | 47.72671 | 11.09921 | 128° | 89km/h | 5762m | -3.5m/s | -10.8°C | 81.4% | 507.8hPa | 2.7V | 00:00:00 | 00:00:00 | 00:00:00 | |
| NBG1-10 | 2026-09-03 13:46:52 | 47.72586 | 11.10080 | 128° | 84km/h | 5743m | -3.0m/s | -10.5°C | 82.6% | 508.9hPa | 2.7V | 00:00:00 | 03:17:18 | 00:00:00 | |
| DO3MHA-12 | 2026-09-03 13:46:49 | 47.72628 | 11.10001 | 129° | 89km/h | 5752m | -3.0m/s | -10.6°C | 83.0% | 508.4hPa | 2.7V | 00:00:00 | 03:17:15 | 00:00:00 | |
| DO3MHA-11 | 2026-09-03 13:46:48 | 47.72642 | 11.09974 | 129° | 89km/h | 5756m | -3.3m/s | -10.6°C | 83.2% | 508.2hPa | 2.7V | 00:00:00 | 03:17:14 | 00:00:00 | |
| DG1MFX-10 | 2026-09-03 13:46:44 | 47.72685 | 11.09895 | 130° | 89km/h | 5766m | -3.6m/s | -10.8°C | 81.4% | 507.5hPa | 2.7V | 00:00:00 | 00:00:00 | 00:00:00 | |
| DO3MHA-12 | 2026-09-03 13:46:39 | 47.72777 | 11.09750 | 136° | 82km/h | 5787m | -3.4m/s | -10.9°C | 83.0% | 506.1hPa | 2.7V | 00:00:00 | 03:17:05 | 00:00:00 | |
| DO3MHA-11 | 2026-09-03 13:46:38 | 47.72792 | 11.09727 | 136° | 82km/h | 5790m | -3.5m/s | -10.9°C | 82.7% | 505.9hPa | 2.7V | 00:00:00 | 03:17:04 | 00:00:00 | |
| DG1MJG | 2026-09-03 13:46:37 | 47.72792 | 11.09727 | 136° | 88km/h | 5790m | -3.6m/s | -11.0°C | 80.0% | 505.9hPa | 2.7V | 07:17:00 | 00:00:00 | 00:00:00 | |
| DB0NH | 2026-09-03 13:46:33 | 47.72868 | 11.09616 | 135° | 86km/h | 5807m | -3.4m/s | -11.0°C | 80.7% | 504.8hPa | 2.7V | 00:00:00 | 03:16:59 | 00:00:00 | |
| OE5DXL-15 | 2026-09-03 13:46:32 | 47.72882 | 11.09595 | 135° | 78km/h | 5810m | -3.2m/s | -11.1°C | 80.5% | 504.5hPa | 2.7V | 07:16:00 | 00:00:00 | 00:00:00 | |
| DO3MHA-12 | 2026-09-03 13:46:29 | 47.72924 | 11.09533 | 136° | 77km/h | 5820m | -3.2m/s | -11.1°C | 79.7% | 503.9hPa | 2.7V | 00:00:00 | 03:16:55 | 00:00:00 | |
| DO3MHA-11 | 2026-09-03 13:46:28 | 47.72938 | 11.09513 | 137° | 77km/h | 5824m | -3.0m/s | -11.2°C | 80.2% | 503.6hPa | 2.7V | 00:00:00 | 03:16:54 | 00:00:00 | |
| DL9SK-14 | 2026-09-03 13:46:23 | 47.73008 | 11.09409 | 131° | 75km/h | 5840m | -3.0m/s | -11.3°C | -1.0% | -1.0hPa | 2.7V | 00:00:00 | 00:00:00 | 00:00:00 | |
| DG1MFX-10 | 2026-09-03 13:46:21 | 47.73021 | 11.09388 | 132° | 75km/h | 5843m | -3.2m/s | -11.3°C | 76.7% | 502.4hPa | 2.7V | 00:00:00 | 00:00:00 | 00:00:00 | |
| DO3MHA-12 | 2026-09-03 13:46:19 | 47.73057 | 11.09324 | 131° | 77km/h | 5853m | -3.0m/s | -11.3°C | 79.6% | 501.7hPa | 2.7V | 07:17:00 | 03:16:45 | 00:00:00 | |
| DO3MHA-11 | 2026-09-03 13:46:18 | 47.73069 | 11.09303 | 132° | 78km/h | 5856m | -3.1m/s | -11.3°C | 79.8% | 501.5hPa | 2.7V | 00:00:00 | 03:16:44 | 00:00:00 | |
| DO3MHA-12 | 2026-09-03 13:46:09 | 47.73178 | 11.09097 | 125° | 84km/h | 5883m | -3.1m/s | -11.5°C | 79.9% | 499.8hPa | 2.7V | 00:00:00 | 03:16:35 | 00:00:00 | |
| DO3MHA-11 | 2026-09-03 13:46:08 | 47.73190 | 11.09072 | 125° | 86km/h | 5886m | -2.9m/s | -11.5°C | 79.1% | 499.6hPa | 2.7V | 07:17:00 | 03:16:34 | 00:00:00 | |
| DG1MJG | 2026-09-03 13:46:07 | 47.73190 | 11.09071 | 125° | 80km/h | 5886m | -3.0m/s | -11.6°C | 76.5% | 499.7hPa | 2.7V | 07:17:00 | 00:00:00 | 00:00:00 | |
| OE5DXL-15 | 2026-09-03 13:46:02 | 47.73264 | 11.08918 | 129° | 89km/h | 5904m | -2.8m/s | -11.7°C | 78.8% | 498.4hPa | 2.7V | 00:00:00 | 00:00:00 | 00:00:00 | |
| DO3MHA-12 | 2026-09-03 13:45:59 | 47.73306 | 11.08840 | 129° | 91km/h | 5913m | -2.9m/s | -11.7°C | 78.0% | 497.7hPa | 2.7V | 00:00:00 | 03:16:25 | 00:00:00 | |
| DO3MHA-11 | 2026-09-03 13:45:58 | 47.73321 | 11.08813 | 129° | 91km/h | 5916m | -2.8m/s | -11.7°C | 76.7% | 497.6hPa | 2.7V | 00:00:00 | 03:16:24 | 00:00:00 | |
| DG1MFX-10 | 2026-09-03 13:45:56 | 47.73335 | 11.08787 | 130° | 89km/h | 5919m | -2.9m/s | -11.7°C | 70.4% | 497.5hPa | 2.7V | 00:00:00 | 00:00:00 | 00:00:00 | |
| DO3MHA-12 | 2026-09-03 13:45:49 | 47.73452 | 11.08575 | 128° | 93km/h | 5941m | -2.8m/s | -11.7°C | 66.4% | 496.0hPa | 2.7V | 00:00:00 | 03:16:15 | 00:00:00 | |
| DO3MHA-11 | 2026-09-03 13:45:48 | 47.73467 | 11.08548 | 129° | 93km/h | 5944m | -2.6m/s | -11.8°C | 66.3% | 495.8hPa | 2.6V | 00:00:00 | 03:16:14 | 00:00:00 | |
| NBG1-10 | 2026-09-03 13:45:46 | 47.73496 | 11.08493 | 130° | 84km/h | 5949m | -2.8m/s | -11.8°C | 66.9% | 495.4hPa | 2.6V | 00:00:00 | 03:16:12 | 00:00:00 | |
| DO3MHA-12 | 2026-09-03 13:45:39 | 47.73602 | 11.08306 | 135° | 82km/h | 5970m | -2.9m/s | -12.0°C | 68.4% | 494.1hPa | 2.7V | 00:00:00 | 03:16:05 | 00:00:00 | |
| DO3MHA-11 | 2026-09-03 13:45:38 | 47.73618 | 11.08283 | 137° | 80km/h | 5973m | -2.8m/s | -12.0°C | 68.0% | 493.9hPa | 2.7V | 00:00:00 | 03:16:04 | 00:00:00 | |
| DG1MJG | 2026-09-03 13:45:37 | 47.73618 | 11.08283 | 137° | 86km/h | 5973m | -2.9m/s | -12.0°C | 65.7% | 494.0hPa | 2.7V | 07:18:00 | 00:00:00 | 00:00:00 | |
| OE5DXL-15 | 2026-09-03 13:45:32 | 47.73705 | 11.08153 | 132° | 82km/h | 5989m | -2.1m/s | -12.2°C | 69.1% | 492.9hPa | 2.7V | 00:00:00 | 00:00:00 | 00:00:00 | |
| DO3MHA-12 | 2026-09-03 13:45:29 | 47.73743 | 11.08084 | 127° | 78km/h | 5995m | -2.3m/s | -12.2°C | 67.0% | 492.4hPa | 2.7V | 00:00:00 | 03:15:55 | 00:00:00 | |
| DO3MHA-11 | 2026-09-03 13:45:28 | 47.73755 | 11.08060 | 127° | 78km/h | 5998m | -2.3m/s | -12.3°C | 68.4% | 492.2hPa | 2.7V | 00:00:00 | 03:15:54 | 00:00:00 | |
| DL6DJ-15 | 2026-09-03 13:45:21 | 47.73839 | 11.07897 | 125° | 78km/h | 6016m | -2.6m/s | -12.5°C | 64.5% | 491.2hPa | 2.7V | 00:00:00 | 00:00:00 | 00:00:00 | |
| DB0ND-19 | 2026-09-03 13:45:20 | 47.73863 | 11.07849 | 126° | 80km/h | 6022m | -2.8m/s | -12.5°C | -1.0% | -1.0hPa | 2.7V | 00:00:00 | 00:00:00 | 00:00:00 | |
| DO3MHA-12 | 2026-09-03 13:45:19 | 47.73863 | 11.07849 | 127° | 82km/h | 6022m | -2.8m/s | -12.5°C | 68.4% | 490.7hPa | 2.7V | 00:00:00 | 03:15:45 | 00:00:00 | |
| DO3MHA-11 | 2026-09-03 13:45:18 | 47.73875 | 11.07824 | 127° | 82km/h | 6025m | -2.6m/s | -12.5°C | 68.7% | 490.6hPa | 2.7V | 00:00:00 | 03:15:44 | 00:00:00 | |
| NBG1-10 | 2026-09-03 13:45:13 | 47.73936 | 11.07699 | 125° | 88km/h | 6037m | -2.4m/s | -12.6°C | 69.1% | 489.7hPa | 2.7V | 00:00:00 | 03:15:39 | 00:00:00 | |
| DO3MHA-12 | 2026-09-03 13:45:09 | 47.73983 | 11.07598 | 126° | 88km/h | 6047m | -2.7m/s | -12.7°C | 70.5% | 489.0hPa | 2.7V | 00:00:00 | 03:15:35 | 00:00:00 | |
| DO3MHA-11 | 2026-09-03 13:45:08 | 47.73995 | 11.07572 | 126° | 88km/h | 6050m | -2.7m/s | -12.7°C | 70.4% | 488.9hPa | 2.7V | 00:00:00 | 03:15:34 | 00:00:00 | |
| DG1MJG | 2026-09-03 13:45:07 | 47.73995 | 11.07572 | 126° | 84km/h | 6050m | -2.7m/s | -12.8°C | 67.9% | 489.0hPa | 2.7V | 07:18:00 | 00:00:00 | 00:00:00 | |
| OE5DXL-15 | 2026-09-03 13:45:02 | 47.74073 | 11.07412 | 126° | 88km/h | 6066m | -2.7m/s | -12.9°C | 72.0% | 487.9hPa | 2.7V | 00:00:00 | 00:00:00 | 00:00:00 | |
| DL6DJ-15 | 2026-09-03 13:44:50 | 47.74268 | 11.07075 | 133° | 86km/h | 6101m | -2.7m/s | -13.3°C | 69.3% | 485.7hPa | 2.7V | 00:00:00 | 00:00:00 | 00:00:00 | |
| DB0ND-19 | 2026-09-03 13:44:49 | 47.74343 | 11.06958 | 133° | 84km/h | 6114m | -2.8m/s | -13.5°C | -1.0% | -1.0hPa | 2.7V | 00:00:00 | 00:00:00 | 00:00:00 | |
| DO3MHA-11 | 2026-09-03 13:44:48 | 47.74283 | 11.07051 | 134° | 84km/h | 6104m | -2.5m/s | -13.3°C | 71.6% | 485.5hPa | 2.7V | 07:18:00 | 03:15:14 | 00:00:00 | |
| DB0UT-7 | 2026-09-03 13:44:47 | 47.74298 | 11.07028 | 134° | 93km/h | 6106m | -2.0m/s | -13.3°C | 71.4% | 485.3hPa | 2.7V | 00:00:00 | 00:00:00 | 00:00:00 | |
| DG1MFX-10 | 2026-09-03 13:44:43 | 47.74343 | 11.06958 | 135° | 84km/h | 6114m | -2.8m/s | -13.5°C | 69.3% | 484.8hPa | 2.7V | 07:19:00 | 00:00:00 | 00:00:00 | |
| NBG1-10 | 2026-09-03 13:44:40 | 47.74399 | 11.06868 | 133° | 82km/h | 6126m | -3.2m/s | -13.5°C | 72.0% | 484.1hPa | 2.7V | 00:00:00 | 03:15:06 | 00:00:00 | |
| DO3MHA-12 | 2026-09-03 13:44:39 | 47.74413 | 11.06845 | 133° | 80km/h | 6129m | -2.9m/s | -13.6°C | 72.1% | 483.9hPa | 2.7V | 00:00:00 | 03:15:05 | 00:00:00 | |
| DO3MHA-11 | 2026-09-03 13:44:38 | 47.74427 | 11.06823 | 133° | 80km/h | 6131m | -2.8m/s | -13.5°C | 72.6% | 483.7hPa | 2.7V | 00:00:00 | 03:15:04 | 00:00:00 | |
| OE5DXL-15 | 2026-09-03 13:44:32 | 47.74503 | 11.06683 | 129° | 91km/h | 6148m | -2.6m/s | -13.7°C | 72.0% | 482.6hPa | 2.7V | 00:00:00 | 00:00:00 | 00:00:00 | |
| DO3MHA-12 | 2026-09-03 13:44:29 | 47.74542 | 11.06612 | 128° | 80km/h | 6156m | -2.6m/s | -13.8°C | 73.2% | 482.2hPa | 2.7V | 00:00:00 | 03:14:55 | 00:00:00 | |
| DO3MHA-11 | 2026-09-03 13:44:28 | 47.74554 | 11.06588 | 128° | 80km/h | 6158m | -2.9m/s | -13.8°C | 73.3% | 482.0hPa | 2.7V | 00:00:00 | 03:14:54 | 00:00:00 | |
| DB0NH | 2026-09-03 13:44:27 | 47.74567 | 11.06564 | 127° | 89km/h | 6161m | -2.6m/s | -13.8°C | 73.5% | 481.9hPa | 2.7V | 00:00:00 | 03:14:53 | 00:00:00 | |
| DG1MFX-10 | 2026-09-03 13:44:22 | 47.74617 | 11.06469 | 130° | 80km/h | 6173m | -3.1m/s | -14.0°C | 75.5% | 481.1hPa | 2.7V | 07:19:00 | 00:00:00 | 00:00:00 | |
| DO3MHA-12 | 2026-09-03 13:44:19 | 47.74667 | 11.06374 | 127° | 82km/h | 6185m | -3.4m/s | -14.1°C | 75.5% | 480.3hPa | 2.7V | 00:00:00 | 03:14:45 | 00:00:00 | |
| DB0ND-19 | 2026-09-03 13:44:18 | 47.74691 | 11.06326 | 126° | 78km/h | 6192m | -3.7m/s | 0°C | -1.0% | -1.0hPa | 2.7V | 00:00:00 | 00:00:00 | 00:00:00 | |
| DO3MHA-12 | 2026-09-03 13:44:09 | 47.74787 | 11.06120 | 123° | 89km/h | 6221m | -3.9m/s | -14.3°C | 73.6% | 478.1hPa | 2.7V | 00:00:00 | 03:14:35 | 00:00:00 | |
| DO3MHA-11 | 2026-09-03 13:44:08 | 47.74798 | 11.06093 | 123° | 91km/h | 6225m | -3.6m/s | -14.3°C | 73.4% | 477.8hPa | 2.7V | 00:00:00 | 03:14:34 | 00:00:00 | |
| NBG1-10 | 2026-09-03 13:44:07 | 47.74810 | 11.06066 | 123° | 91km/h | 6229m | -3.7m/s | -14.3°C | 73.7% | 477.7hPa | 2.7V | 00:00:00 | 03:14:33 | 00:00:00 | |
| DG1MJG | 2026-09-03 13:44:05 | 47.74822 | 11.06039 | 124° | 86km/h | 6232m | -3.8m/s | -14.4°C | 71.0% | 477.4hPa | 2.6V | 07:20:00 | 00:00:00 | 00:00:00 | |
| DO3MHA-12 | 2026-09-03 13:43:59 | 47.74910 | 11.05836 | 124° | 99km/h | 6258m | -3.9m/s | -14.6°C | 75.3% | 475.8hPa | 2.6V | 00:00:00 | 03:14:25 | 00:00:00 | |
| DO3MHA-11 | 2026-09-03 13:43:58 | 47.74923 | 11.05806 | 125° | 99km/h | 6262m | -3.7m/s | -14.7°C | 75.6% | 475.5hPa | 2.6V | 00:00:00 | 03:14:24 | 00:00:00 | |
| DO3MHA-12 | 2026-09-03 13:43:49 | 47.75059 | 11.05541 | 130° | 91km/h | 6294m | -3.4m/s | -14.9°C | 76.2% | 473.5hPa | 2.6V | 00:00:00 | 03:14:15 | 00:00:00 | |
| DO3MHA-11 | 2026-09-03 13:43:48 | 47.75075 | 11.05513 | 131° | 89km/h | 6297m | -3.3m/s | -15.0°C | 76.9% | 473.3hPa | 2.6V | 00:00:00 | 03:14:14 | 00:00:00 | |
| DB0UT-7 | 2026-09-03 13:43:40 | 47.75196 | 11.05308 | 132° | 88km/h | 6323m | -3.2m/s | -15.2°C | 77.8% | 471.7hPa | 2.6V | 00:00:00 | 03:14:06 | 00:00:00 | |
| DO3MHA-12 | 2026-09-03 13:43:39 | 47.75210 | 11.05284 | 132° | 86km/h | 6326m | -3.4m/s | -15.3°C | 78.2% | 471.5hPa | 2.6V | 07:19:00 | 03:14:05 | 00:00:00 | |
| DO3MHA-11 | 2026-09-03 13:43:38 | 47.75224 | 11.05260 | 132° | 86km/h | 6330m | -3.4m/s | -15.3°C | 78.3% | 471.2hPa | 2.6V | 00:00:00 | 03:14:04 | 00:00:00 | |
| OE5DXL-15 | 2026-09-03 13:43:37 | 47.75238 | 11.05237 | 132° | 88km/h | 6333m | -3.3m/s | -15.3°C | 78.4% | 471.0hPa | 2.6V | 00:00:00 | 00:00:00 | 00:00:00 | |
| NBG1-10 | 2026-09-03 13:43:34 | 47.75279 | 11.05164 | 127° | 89km/h | 6343m | -3.1m/s | -15.5°C | 79.1% | 470.5hPa | 2.7V | 00:00:00 | 03:14:00 | 00:00:00 | |
| DG1MFX-10 | 2026-09-03 13:43:33 | 47.75280 | 11.05164 | 128° | 84km/h | 6343m | -3.1m/s | -15.5°C | 76.1% | 470.5hPa | 2.7V | 07:20:00 | 00:00:00 | 00:00:00 | |
| DO3MHA-12 | 2026-09-03 13:43:29 | 47.75339 | 11.05028 | 122° | 89km/h | 6359m | -3.8m/s | -15.6°C | 79.5% | 469.4hPa | 2.7V | 00:00:00 | 03:13:55 | 00:00:00 | |
| DO3MHA-11 | 2026-09-03 13:43:28 | 47.75351 | 11.05000 | 123° | 89km/h | 6363m | -3.5m/s | -15.6°C | 79.0% | 469.2hPa | 2.7V | 07:20:00 | 03:13:54 | 00:00:00 | |
| DO3MHA-12 | 2026-09-03 13:43:19 | 47.75458 | 11.04744 | 122° | 88km/h | 6392m | -3.0m/s | -15.9°C | 80.2% | 467.3hPa | 2.7V | 00:00:00 | 03:13:45 | 00:00:00 | |
| DO3MHA-11 | 2026-09-03 13:43:18 | 47.75470 | 11.04716 | 122° | 89km/h | 6395m | -2.9m/s | -15.9°C | 79.9% | 467.2hPa | 2.7V | 00:00:00 | 03:13:44 | 00:00:00 | |
| DG1MFX-10 | 2026-09-03 13:43:13 | 47.75516 | 11.04602 | 122° | 89km/h | 6407m | -3.1m/s | -16.1°C | 77.4% | 466.5hPa | 2.7V | 00:00:00 | 00:00:00 | 00:00:00 | |
| DB0UT-7 | 2026-09-03 13:43:10 | 47.75563 | 11.04488 | 122° | 95km/h | 6420m | -3.1m/s | -16.2°C | 81.0% | 465.6hPa | 2.7V | 00:00:00 | 00:00:00 | 00:00:00 | |
| DO3MHA-12 | 2026-09-03 13:43:09 | 47.75575 | 11.04459 | 123° | 97km/h | 6423m | -2.9m/s | -16.2°C | 80.7% | 465.4hPa | 2.6V | 00:00:00 | 03:13:35 | 00:00:00 | |
| DO3MHA-11 | 2026-09-03 13:43:08 | 47.75588 | 11.04429 | 123° | 97km/h | 6426m | -3.0m/s | -16.2°C | 81.1% | 465.2hPa | 2.6V | 00:00:00 | 03:13:34 | 00:00:00 | |
| OE5DXL-15 | 2026-09-03 13:43:07 | 47.75601 | 11.04399 | 124° | 95km/h | 6429m | -3.2m/s | -16.2°C | 81.3% | 465.1hPa | 2.7V | 00:00:00 | 00:00:00 | 00:00:00 | |
| DG1MJG | 2026-09-03 13:43:04 | 47.75642 | 11.04308 | 124° | 97km/h | 6439m | -3.2m/s | -16.3°C | 78.9% | 464.5hPa | 2.7V | 07:20:00 | 00:00:00 | 00:00:00 | |
| NBG1-10 | 2026-09-03 13:43:01 | 47.75682 | 11.04216 | 124° | 93km/h | 6449m | -3.4m/s | -16.4°C | 83.1% | 463.8hPa | 2.7V | 00:00:00 | 03:13:27 | 00:00:00 | |
| DO3MHA-12 | 2026-09-03 13:42:59 | 47.75710 | 11.04154 | 125° | 100km/h | 6456m | -3.6m/s | -16.4°C | 82.7% | 463.3hPa | 2.7V | 00:00:00 | 03:13:25 | 00:00:00 | |
| DO3MHA-11 | 2026-09-03 13:42:58 | 47.75725 | 11.04123 | 125° | 99km/h | 6460m | -3.4m/s | -16.4°C | 82.4% | 463.1hPa | 2.7V | 00:00:00 | 03:13:24 | 00:00:00 | |
| DG1MFX-10 | 2026-09-03 13:42:52 | 47.75797 | 11.03966 | 127° | 100km/h | 6477m | -3.3m/s | -16.7°C | 80.2% | 462.2hPa | 2.7V | 00:00:00 | 00:00:00 | 00:00:00 | |
| DO3MHA-12 | 2026-09-03 13:42:49 | 47.75857 | 11.03852 | 130° | 88km/h | 6489m | -2.9m/s | -16.8°C | 84.9% | 461.4hPa | 2.7V | 00:00:00 | 03:13:15 | 00:00:00 | |
| DO3MHA-11 | 2026-09-03 13:42:48 | 47.75871 | 11.03826 | 130° | 88km/h | 6492m | -3.1m/s | -16.9°C | 84.5% | 461.2hPa | 2.7V | 00:00:00 | 03:13:14 | 00:00:00 | |
| DB0UT-7 | 2026-09-03 13:42:40 | 47.75986 | 11.03622 | 125° | 95km/h | 6518m | -3.1m/s | -17.0°C | 84.8% | 459.6hPa | 2.7V | 00:00:00 | 03:13:06 | 00:00:00 | |
| DO3MHA-12 | 2026-09-03 13:42:39 | 47.75998 | 11.03594 | 123° | 91km/h | 6522m | -3.1m/s | -17.1°C | 85.2% | 459.4hPa | 2.7V | 00:00:00 | 03:13:05 | 00:00:00 | |
| DO3MHA-11 | 2026-09-03 13:42:38 | 47.76010 | 11.03566 | 122° | 91km/h | 6525m | -3.1m/s | -17.1°C | 85.5% | 459.2hPa | 2.7V | 00:00:00 | 03:13:04 | 00:00:00 | |
| OE5DXL-15 | 2026-09-03 13:42:37 | 47.76022 | 11.03536 | 121° | 97km/h | 6528m | -3.2m/s | -17.1°C | 85.8% | 459.0hPa | 2.6V | 00:00:00 | 03:13:03 | 00:00:00 | |
| DB0NH | 2026-09-03 13:42:34 | 47.76058 | 11.03449 | 122° | 97km/h | 6538m | -3.2m/s | -17.2°C | 86.2% | 458.4hPa | 2.6V | 00:00:00 | 03:13:00 | 00:00:00 | |
| DG1MJG | 2026-09-03 13:42:33 | 47.76069 | 11.03420 | 122° | 91km/h | 6541m | -3.3m/s | -17.3°C | 83.3% | 458.3hPa | 2.6V | 07:20:00 | 00:00:00 | 00:00:00 | |
| DG1MFX-10 | 2026-09-03 13:42:32 | 47.76069 | 11.03420 | 122° | 91km/h | 6541m | -3.3m/s | -17.3°C | 83.3% | 458.3hPa | 2.6V | 00:00:00 | 00:00:00 | 00:00:00 | |
| DO3MHA-12 | 2026-09-03 13:42:29 | 47.76118 | 11.03299 | 121° | 95km/h | 6554m | -3.1m/s | -17.2°C | 86.3% | 457.4hPa | 2.6V | 00:00:00 | 03:12:55 | 00:00:00 | |
| DO3MHA-11 | 2026-09-03 13:42:28 | 47.76130 | 11.03269 | 121° | 95km/h | 6557m | -3.0m/s | -17.3°C | 86.7% | 457.2hPa | 2.6V | 00:00:00 | 03:12:54 | 00:00:00 | |
| DO3MHA-12 | 2026-09-03 13:42:19 | 47.76246 | 11.02995 | 127° | 100km/h | 6585m | -2.9m/s | -17.4°C | 84.5% | 455.6hPa | 2.6V | 07:21:00 | 03:12:45 | 00:00:00 | |
| DO3MHA-11 | 2026-09-03 13:42:18 | 47.76261 | 11.02965 | 128° | 100km/h | 6588m | -3.0m/s | -17.4°C | 84.1% | 455.4hPa | 2.6V | 00:00:00 | 03:12:44 | 00:00:00 | |
| OE3JTB-15 | 2026-09-03 13:42:17 | 47.76277 | 11.02934 | 128° | 97km/h | 6591m | -3.1m/s | -17.3°C | 83.3% | 455.3hPa | 2.6V | 00:00:00 | 03:12:43 | 00:00:00 | |
| DG1MFX-10 | 2026-09-03 13:42:11 | 47.76355 | 11.02784 | 131° | 99km/h | 6607m | -3.0m/s | -17.5°C | 80.3% | 454.4hPa | 2.6V | 00:00:00 | 00:00:00 | 00:00:00 | |
| DB0UT-7 | 2026-09-03 13:42:10 | 47.76387 | 11.02729 | 132° | 97km/h | 6612m | -2.9m/s | -17.4°C | 83.0% | 453.8hPa | 2.6V | 00:00:00 | 00:00:00 | 00:00:00 | |
| DO3MHA-12 | 2026-09-03 13:42:09 | 47.76403 | 11.02701 | 132° | 95km/h | 6616m | -3.2m/s | -17.4°C | 83.1% | 453.7hPa | 2.6V | 00:00:00 | 03:12:35 | 00:00:00 | |
| DO3MHA-11 | 2026-09-03 13:42:08 | 47.76419 | 11.02674 | 131° | 97km/h | 6618m | -2.9m/s | -17.4°C | 82.9% | 453.5hPa | 2.6V | 07:21:00 | 03:12:34 | 00:00:00 | |
| OE5DXL-15 | 2026-09-03 13:42:07 | 47.76435 | 11.02647 | 131° | 95km/h | 6621m | -2.8m/s | -17.5°C | 83.4% | 453.4hPa | 2.6V | 07:21:00 | 00:00:00 | 00:00:00 | |
| DB0NH | 2026-09-03 13:42:03 | 47.76499 | 11.02539 | 132° | 95km/h | 6634m | -3.0m/s | -17.6°C | 83.7% | 452.6hPa | 2.7V | 07:21:00 | 03:12:29 | 00:00:00 | |
| DG1MJG | 2026-09-03 13:42:01 | 47.76515 | 11.02513 | 133° | 93km/h | 6637m | -3.0m/s | -17.7°C | 80.7% | 452.5hPa | 2.7V | 07:21:00 | 00:00:00 | 00:00:00 | |
| DO3MHA-12 | 2026-09-03 13:41:59 | 47.76564 | 11.02432 | 132° | 99km/h | 6646m | -2.9m/s | -17.7°C | 84.0% | 451.9hPa | 2.7V | 00:00:00 | 03:12:25 | 00:00:00 | |
| DO3MHA-11 | 2026-09-03 13:41:58 | 47.76580 | 11.02405 | 133° | 99km/h | 6649m | -3.3m/s | -17.6°C | 83.9% | 451.7hPa | 2.7V | 00:00:00 | 03:12:24 | 00:00:00 | |
| NBG1-10 | 2026-09-03 13:41:55 | 47.76630 | 11.02325 | 134° | 91km/h | 6658m | -3.1m/s | -17.7°C | 84.2% | 451.1hPa | 2.7V | 07:21:00 | 03:12:21 | 00:00:00 | |
| DG1MFX-10 | 2026-09-03 13:41:50 | 47.76698 | 11.02217 | 134° | 99km/h | 6671m | -3.2m/s | -17.8°C | 80.7% | 450.5hPa | 2.7V | 00:00:00 | 00:00:00 | 00:00:00 | |
| DO3MHA-12 | 2026-09-03 13:41:49 | 47.76732 | 11.02164 | 135° | 93km/h | 6677m | -3.1m/s | -17.7°C | 84.1% | 450.0hPa | 2.7V | 00:00:00 | 03:12:15 | 00:00:00 | |
| DO3MHA-11 | 2026-09-03 13:41:48 | 47.76750 | 11.02138 | 135° | 93km/h | 6680m | -3.0m/s | -17.7°C | 84.1% | 449.8hPa | 2.6V | 00:00:00 | 03:12:14 | 00:00:00 | |
| DL9SK-14 | 2026-09-03 13:41:44 | 47.76836 | 11.02013 | 136° | 93km/h | 6696m | -3.2m/s | 0°C | -1.0% | 448.9hPa | 2.6V | 00:00:00 | 00:00:00 | 00:00:00 | |
| DB0UT-7 | 2026-09-03 13:41:40 | 47.76886 | 11.01942 | 137° | 88km/h | 6705m | -3.0m/s | -17.8°C | 83.6% | 448.3hPa | 2.6V | 00:00:00 | 03:12:06 | 00:00:00 | |
| DO3MHA-12 | 2026-09-03 13:41:39 | 47.76903 | 11.01919 | 138° | 89km/h | 6708m | -3.3m/s | -17.8°C | 83.8% | 448.1hPa | 2.7V | 00:00:00 | 03:12:05 | 00:00:00 | |
| DO3MHA-11 | 2026-09-03 13:41:38 | 47.76920 | 11.01896 | 138° | 89km/h | 6711m | -3.1m/s | -17.7°C | 84.1% | 447.9hPa | 2.7V | 00:00:00 | 03:12:04 | 00:00:00 | |
| OE5DXL-15 | 2026-09-03 13:41:37 | 47.76936 | 11.01873 | 138° | 88km/h | 6714m | -3.0m/s | -17.7°C | 84.3% | 447.7hPa | 2.6V | 00:00:00 | 00:00:00 | 00:00:00 | |
| OE5DRO-10 | 2026-09-03 13:41:34 | 47.76987 | 11.01805 | 138° | 88km/h | 6723m | -2.8m/s | -17.6°C | 84.1% | 447.2hPa | 2.6V | 00:00:00 | 00:00:00 | 00:00:00 | |
| DB0NH | 2026-09-03 13:41:33 | 47.77003 | 11.01783 | 138° | 88km/h | 6726m | -2.8m/s | -17.6°C | 84.3% | 447.0hPa | 2.6V | 00:00:00 | 03:11:59 | 00:00:00 | |
| DG1MJG | 2026-09-03 13:41:31 | 47.77020 | 11.01761 | 139° | 88km/h | 6729m | -2.8m/s | -17.6°C | 80.9% | 447.0hPa | 2.6V | 07:22:00 | 00:00:00 | 00:00:00 | |
| DG1MFX-10 | 2026-09-03 13:41:30 | 47.77037 | 11.01738 | 139° | 88km/h | 6732m | -2.6m/s | -17.5°C | 81.0% | 446.7hPa | 2.6V | 07:22:00 | 00:00:00 | 00:00:00 | |
| DO3MHA-12 | 2026-09-03 13:41:29 | 47.77070 | 11.01694 | 139° | 88km/h | 6737m | -2.6m/s | -17.4°C | 84.5% | 446.4hPa | 2.6V | 00:00:00 | 03:11:55 | 00:00:00 | |
| DO3MHA-11 | 2026-09-03 13:41:28 | 47.77086 | 11.01672 | 139° | 88km/h | 6740m | -2.6m/s | -17.3°C | 84.6% | 446.2hPa | 2.6V | 00:00:00 | 03:11:54 | 00:00:00 | |
| NBG1-10 | 2026-09-03 13:41:22 | 47.77185 | 11.01541 | 139° | 86km/h | 6755m | -2.6m/s | -16.9°C | 85.0% | 445.3hPa | 2.6V | 00:00:00 | 03:11:48 | 00:00:00 | |
| OE3JTB-15 | 2026-09-03 13:41:19 | 47.77235 | 11.01476 | 140° | 86km/h | 6763m | -2.7m/s | -16.6°C | 85.0% | 444.8hPa | 2.6V | 00:00:00 | 00:00:00 | 00:00:00 | |
| DO3MHA-11 | 2026-09-03 13:41:18 | 47.77252 | 11.01455 | 140° | 88km/h | 6766m | -2.7m/s | -16.5°C | 85.1% | 444.6hPa | 2.6V | 00:00:00 | 03:11:44 | 00:00:00 | |
| DL6DJ-15 | 2026-09-03 13:41:12 | 47.77355 | 11.01327 | 140° | 86km/h | 6782m | -2.6m/s | -16.5°C | 82.0% | 443.8hPa | 2.6V | 00:00:00 | 00:00:00 | 00:00:00 | |
| DB0UT-7 | 2026-09-03 13:41:10 | 47.77389 | 11.01286 | 141° | 86km/h | 6787m | -2.5m/s | -16.5°C | 85.2% | 443.4hPa | 2.6V | 00:00:00 | 00:00:00 | 00:00:00 | |
| DO3MHA-12 | 2026-09-03 13:41:09 | 47.77406 | 11.01265 | 141° | 86km/h | 6790m | -2.6m/s | -16.5°C | 85.4% | 443.2hPa | 2.6V | 00:00:00 | 03:11:35 | 00:00:00 | |
| DO3MHA-11 | 2026-09-03 13:41:08 | 47.77424 | 11.01243 | 142° | 86km/h | 6792m | -2.6m/s | -16.5°C | 86.1% | 443.1hPa | 2.6V | 00:00:00 | 03:11:34 | 00:00:00 | |
| OE5DXL-15 | 2026-09-03 13:41:07 | 47.77441 | 11.01223 | 141° | 86km/h | 6795m | -2.8m/s | -16.6°C | 86.0% | 443.0hPa | 2.7V | 00:00:00 | 00:00:00 | 00:00:00 | |
| OE5DRO-10 | 2026-09-03 13:41:06 | 47.77458 | 11.01202 | 141° | 84km/h | 6798m | -2.6m/s | -16.6°C | 85.8% | 442.8hPa | 2.7V | 00:00:00 | 00:00:00 | 00:00:00 | |
| DB0NH | 2026-09-03 13:41:03 | 47.77508 | 11.01142 | 142° | 88km/h | 6806m | -2.6m/s | -16.5°C | 85.3% | 442.4hPa | 2.7V | 00:00:00 | 03:11:29 | 00:00:00 | |
| DG1MJG | 2026-09-03 13:41:01 | 47.77525 | 11.01122 | 143° | 86km/h | 6809m | -2.4m/s | -16.6°C | 81.6% | 442.2hPa | 2.7V | 07:22:00 | 00:00:00 | 00:00:00 | |
| DO3MHA-12 | 2026-09-03 13:40:59 | 47.77576 | 11.01062 | 142° | 82km/h | 6817m | -2.7m/s | -16.5°C | 84.7% | 441.6hPa | 2.7V | 07:22:00 | 03:11:25 | 00:00:00 | |
| DO3MHA-11 | 2026-09-03 13:40:58 | 47.77592 | 11.01042 | 141° | 82km/h | 6819m | -2.5m/s | -16.5°C | 84.7% | 441.5hPa | 2.7V | 00:00:00 | 03:11:24 | 00:00:00 | |
| OE3JTB-15 | 2026-09-03 13:40:50 | 47.77716 | 11.00878 | 136° | 93km/h | 6840m | -2.4m/s | -16.8°C | 86.2% | 440.4hPa | 2.7V | 00:00:00 | 03:11:16 | 00:00:00 | |
| DO3MHA-12 | 2026-09-03 13:40:49 | 47.77731 | 11.00856 | 135° | 88km/h | 6843m | -2.4m/s | -16.8°C | 86.1% | 440.2hPa | 2.7V | 00:00:00 | 03:11:15 | 00:00:00 | |
| DO3MHA-11 | 2026-09-03 13:40:48 | 47.77746 | 11.00832 | 134° | 89km/h | 6845m | -2.2m/s | -16.8°C | 86.1% | 440.0hPa | 2.7V | 07:22:00 | 03:11:14 | 00:00:00 | |
| OE5DRO-10 | 2026-09-03 13:40:47 | 47.77761 | 11.00809 | 134° | 93km/h | 6847m | -2.5m/s | -16.8°C | 86.0% | 439.9hPa | 2.7V | 07:22:00 | 00:00:00 | 00:00:00 | |
| DL6DJ-15 | 2026-09-03 13:40:41 | 47.77870 | 11.00643 | 134° | 95km/h | 6865m | -2.5m/s | -16.8°C | 80.0% | 438.9hPa | 2.7V | 00:00:00 | 00:00:00 | 00:00:00 | |
| DB0UT-7 | 2026-09-03 13:40:40 | 47.77870 | 11.00643 | 135° | 97km/h | 6865m | -2.4m/s | -16.7°C | 83.3% | 438.8hPa | 2.7V | 07:22:00 | 03:11:06 | 00:00:00 | |
| DO3MHA-12 | 2026-09-03 13:40:39 | 47.77887 | 11.00618 | 135° | 95km/h | 6867m | -2.5m/s | -16.8°C | 83.2% | 438.8hPa | 2.7V | 00:00:00 | 03:11:05 | 00:00:00 | |
| DO3MHA-11 | 2026-09-03 13:40:38 | 47.77904 | 11.00592 | 135° | 95km/h | 6870m | -2.6m/s | -16.8°C | 83.5% | 438.6hPa | 2.7V | 00:00:00 | 03:11:04 | 00:00:00 | |
| OE5DXL-15 | 2026-09-03 13:40:37 | 47.77920 | 11.00567 | 135° | 97km/h | 6873m | -2.3m/s | -16.9°C | 83.2% | 438.4hPa | 2.7V | 00:00:00 | 00:00:00 | 00:00:00 | |
| DB0NH | 2026-09-03 13:40:33 | 47.77987 | 11.00466 | 136° | 97km/h | 6882m | -2.3m/s | -16.8°C | 82.4% | 437.8hPa | 2.7V | 00:00:00 | 03:10:59 | 00:00:00 | |
| DG1MJG | 2026-09-03 13:40:30 | 47.78022 | 11.00415 | 137° | 97km/h | 6887m | -2.5m/s | -16.9°C | 78.9% | 437.6hPa | 2.7V | 07:23:00 | 00:00:00 | 00:00:00 | |
| DO3MHA-12 | 2026-09-03 13:40:29 | 47.78057 | 11.00364 | 136° | 97km/h | 6892m | -2.3m/s | -16.9°C | 82.4% | 437.2hPa | 2.7V | 00:00:00 | 03:10:55 | 00:00:00 | |
| DO3MHA-11 | 2026-09-03 13:40:28 | 47.78074 | 11.00339 | 136° | 97km/h | 6894m | -2.3m/s | -17.0°C | 83.1% | 437.1hPa | 2.7V | 00:00:00 | 03:10:54 | 00:00:00 | |
| OE3JTB-15 | 2026-09-03 13:40:21 | 47.78200 | 11.00165 | 137° | 97km/h | 6911m | -2.5m/s | -17.1°C | 83.0% | 436.2hPa | 2.7V | 07:23:00 | 00:00:00 | 00:00:00 | |
| DO3MHA-12 | 2026-09-03 13:40:19 | 47.78235 | 11.00114 | 137° | 97km/h | 6916m | -2.4m/s | -17.1°C | 82.6% | 435.9hPa | 2.6V | 00:00:00 | 03:10:45 | 00:00:00 | |
| DO3MHA-11 | 2026-09-03 13:40:18 | 47.78253 | 11.00090 | 137° | 97km/h | 6919m | -2.2m/s | -17.1°C | 82.7% | 435.7hPa | 2.6V | 00:00:00 | 03:10:44 | 00:00:00 | |
| NBG1-10 | 2026-09-03 13:40:16 | 47.78289 | 11.00040 | 137° | 95km/h | 6923m | -2.3m/s | -17.2°C | 83.0% | 435.4hPa | 2.6V | 00:00:00 | 03:10:42 | 00:00:00 | |
| DB0UT-7 | 2026-09-03 13:40:10 | 47.78394 | 10.99889 | 138° | 93km/h | 6937m | -2.1m/s | -17.3°C | 83.0% | 434.7hPa | 2.6V | 00:00:00 | 00:00:00 | 00:00:00 | |
| DO3MHA-12 | 2026-09-03 13:40:09 | 47.78412 | 10.99864 | 137° | 97km/h | 6939m | -2.4m/s | -17.3°C | 83.3% | 434.6hPa | 2.7V | 00:00:00 | 03:10:35 | 00:00:00 | |
| DO3MHA-11 | 2026-09-03 13:40:08 | 47.78430 | 10.99840 | 137° | 97km/h | 6942m | -2.3m/s | -17.4°C | 83.4% | 434.4hPa | 2.7V | 00:00:00 | 03:10:34 | 00:00:00 | |
| OE5DXL-15 | 2026-09-03 13:40:07 | 47.78447 | 10.99815 | 137° | 93km/h | 6944m | -2.3m/s | -17.4°C | 83.7% | 434.3hPa | 2.7V | 00:00:00 | 00:00:00 | 00:00:00 | |
| DB0NH | 2026-09-03 13:40:03 | 47.78519 | 10.99719 | 141° | 91km/h | 6953m | -2.2m/s | -17.5°C | 84.1% | 433.7hPa | 2.7V | 00:00:00 | 03:10:29 | 00:00:00 | |
| DG1MJG | 2026-09-03 13:40:00 | 47.78558 | 10.99673 | 142° | 97km/h | 6958m | -2.5m/s | -17.5°C | 80.2% | 433.5hPa | 2.7V | 07:23:00 | 00:00:00 | 00:00:00 | |
| DO3MHA-12 | 2026-09-03 13:39:59 | 47.78595 | 10.99626 | 140° | 97km/h | 6963m | -2.4m/s | -17.5°C | 83.8% | 433.2hPa | 2.7V | 00:00:00 | 03:10:25 | 00:00:00 | |
| DO3MHA-11 | 2026-09-03 13:39:58 | 47.78614 | 10.99602 | 140° | 95km/h | 6965m | -2.2m/s | -17.5°C | 83.7% | 433.0hPa | 2.7V | 00:00:00 | 03:10:24 | 00:00:00 | |
| OE3JTB-15 | 2026-09-03 13:39:52 | 47.78728 | 10.99467 | 142° | 88km/h | 6979m | -2.3m/s | -17.6°C | 83.5% | 432.2hPa | 2.7V | 00:00:00 | 00:00:00 | 00:00:00 | |
| DO3MHA-12 | 2026-09-03 13:39:49 | 47.78784 | 10.99401 | 143° | 88km/h | 6986m | -2.2m/s | -17.7°C | 82.0% | 431.8hPa | 2.7V | 00:00:00 | 03:10:15 | 00:00:00 | |
| DO3MHA-11 | 2026-09-03 13:39:48 | 47.78803 | 10.99380 | 144° | 88km/h | 6988m | -2.3m/s | -17.7°C | 82.5% | 431.7hPa | 2.6V | 00:00:00 | 03:10:14 | 00:00:00 | |
| NBG1-10 | 2026-09-03 13:39:43 | 47.78892 | 10.99282 | 144° | 86km/h | 7000m | -2.4m/s | -17.8°C | 82.2% | 431.0hPa | 2.6V | 00:00:00 | 03:10:09 | 00:00:00 | |
| DB0UT-7 | 2026-09-03 13:39:40 | 47.78945 | 10.99223 | 143° | 86km/h | 7008m | -2.5m/s | -17.9°C | 81.7% | 430.6hPa | 2.6V | 00:00:00 | 03:10:06 | 00:00:00 | |
| DO3MHA-12 | 2026-09-03 13:39:39 | 47.78963 | 10.99203 | 143° | 86km/h | 7010m | -2.3m/s | -17.9°C | 81.8% | 430.4hPa | 2.6V | 07:23:00 | 03:10:05 | 00:00:00 | |
| DO3MHA-11 | 2026-09-03 13:39:38 | 47.78980 | 10.99184 | 143° | 86km/h | 7013m | -2.6m/s | -17.9°C | 82.0% | 430.3hPa | 2.6V | 00:00:00 | 03:10:04 | 00:00:00 | |
| OE5DXL-15 | 2026-09-03 13:39:37 | 47.78997 | 10.99164 | 143° | 88km/h | 7015m | -2.2m/s | -17.9°C | 82.4% | 430.1hPa | 2.6V | 00:00:00 | 00:00:00 | 00:00:00 | |
| OE5DRO-10 | 2026-09-03 13:39:36 | 47.79015 | 10.99144 | 143° | 93km/h | 7018m | -2.5m/s | -17.9°C | 82.5% | 430.0hPa | 2.6V | 00:00:00 | 00:00:00 | 00:00:00 | |
| DB0NH | 2026-09-03 13:39:33 | 47.79066 | 10.99083 | 139° | 88km/h | 7025m | -2.4m/s | -18.0°C | 83.0% | 429.6hPa | 2.6V | 00:00:00 | 03:09:59 | 00:00:00 | |
| DG1MFX-10 | 2026-09-03 13:39:32 | 47.79066 | 10.99083 | 140° | 84km/h | 7025m | -2.4m/s | -18.1°C | 79.6% | 429.6hPa | 2.6V | 07:24:00 | 00:00:00 | 00:00:00 | |
| DO3MHA-12 | 2026-09-03 13:39:29 | 47.79129 | 10.98999 | 140° | 86km/h | 7035m | -2.4m/s | -18.1°C | 82.0% | 429.0hPa | 2.6V | 00:00:00 | 03:09:55 | 00:00:00 | |
| DF3TZ-5 | 2026-09-03 13:39:28 | 47.79161 | 10.98957 | 138° | 84km/h | 7040m | -2.4m/s | -18.2°C | 78.4% | 428.8hPa | 2.6V | 00:00:00 | 00:00:00 | 00:00:00 | |
| OE3JTB-15 | 2026-09-03 13:39:23 | 47.79224 | 10.98868 | 136° | 95km/h | 7050m | -2.4m/s | -18.1°C | 81.3% | 428.1hPa | 2.6V | 00:00:00 | 03:09:49 | 00:00:00 | |
| DO3MHA-12 | 2026-09-03 13:39:19 | 47.79286 | 10.98779 | 136° | 88km/h | 7060m | -2.6m/s | -18.2°C | 80.5% | 427.5hPa | 2.6V | 00:00:00 | 03:09:45 | 00:00:00 | |
| DO3MHA-11 | 2026-09-03 13:39:18 | 47.79301 | 10.98756 | 135° | 89km/h | 7063m | -2.6m/s | -18.1°C | 80.4% | 427.4hPa | 2.6V | 00:00:00 | 03:09:44 | 00:00:00 | |
| DG1MFX-10 | 2026-09-03 13:39:12 | 47.79377 | 10.98638 | 135° | 86km/h | 7075m | -2.5m/s | -18.2°C | 77.4% | 426.7hPa | 2.6V | 07:24:00 | 00:00:00 | 00:00:00 | |
| DB0UT-7 | 2026-09-03 13:39:10 | 47.79425 | 10.98565 | 134° | 102km/h | 7083m | -2.2m/s | -18.2°C | 81.0% | 426.2hPa | 2.6V | 00:00:00 | 00:00:00 | 00:00:00 | |
| DO3MHA-12 | 2026-09-03 13:39:09 | 47.79441 | 10.98539 | 134° | 100km/h | 7085m | -2.2m/s | -18.2°C | 80.6% | 426.1hPa | 2.6V | 00:00:00 | 03:09:35 | 00:00:00 | |
| DO3MHA-11 | 2026-09-03 13:39:08 | 47.79458 | 10.98513 | 134° | 100km/h | 7087m | -2.2m/s | -18.2°C | 80.6% | 425.9hPa | 2.6V | 00:00:00 | 03:09:34 | 00:00:00 | |
| OE5DXL-15 | 2026-09-03 13:39:07 | 47.79476 | 10.98486 | 134° | 102km/h | 7089m | -2.4m/s | -18.2°C | 80.6% | 425.9hPa | 2.6V | 00:00:00 | 00:00:00 | 00:00:00 | |
| DB0NH | 2026-09-03 13:39:03 | 47.79545 | 10.98380 | 136° | 104km/h | 7099m | -2.6m/s | -18.3°C | 81.5% | 425.3hPa | 2.6V | 00:00:00 | 03:09:29 | 00:00:00 | |
| DF3TZ-5 | 2026-09-03 13:38:57 | 47.79678 | 10.98195 | 136° | 102km/h | 7118m | -2.5m/s | -18.4°C | 77.6% | -1.0hPa | 2.6V | 00:00:00 | 00:00:00 | 00:00:00 | |
| OE3JTB-15 | 2026-09-03 13:38:54 | 47.79717 | 10.98143 | 140° | 102km/h | 7123m | -2.9m/s | -18.4°C | 81.7% | 424.0hPa | 2.6V | 00:00:00 | 00:00:00 | 00:00:00 | |
| DG1MFX-10 | 2026-09-03 13:38:51 | 47.79757 | 10.98093 | 141° | 104km/h | 7128m | -2.4m/s | -18.5°C | 78.4% | 423.6hPa | 2.6V | 07:25:00 | 00:00:00 | 00:00:00 | |
| DO3MHA-12 | 2026-09-03 13:38:49 | 47.79818 | 10.98018 | 140° | 104km/h | 7136m | -2.2m/s | -18.6°C | 82.2% | 423.2hPa | 2.6V | 00:00:00 | 03:09:15 | 00:00:00 | |
| DO3MHA-11 | 2026-09-03 13:38:48 | 47.79838 | 10.97992 | 139° | 104km/h | 7138m | -2.4m/s | -18.6°C | 81.7% | 423.1hPa | 2.6V | 00:00:00 | 03:09:14 | 00:00:00 | |
| DB0UT-7 | 2026-09-03 13:38:40 | 47.79997 | 10.97786 | 139° | 110km/h | 7157m | -2.5m/s | -18.7°C | 80.9% | 422.0hPa | 2.6V | 00:00:00 | 03:09:06 | 00:00:00 | |
| DO3MHA-12 | 2026-09-03 13:38:39 | 47.80017 | 10.97760 | 139° | 102km/h | 7160m | -2.9m/s | -18.8°C | 81.1% | 421.9hPa | 2.6V | 00:00:00 | 03:09:05 | 00:00:00 | |
| DO3MHA-11 | 2026-09-03 13:38:38 | 47.80037 | 10.97734 | 139° | 102km/h | 7163m | -2.8m/s | -18.8°C | 80.5% | 421.6hPa | 2.6V | 00:00:00 | 03:09:04 | 00:00:00 | |
| OE5DXL-15 | 2026-09-03 13:38:37 | 47.80057 | 10.97708 | 138° | 100km/h | 7166m | -2.7m/s | -18.7°C | 80.2% | 421.5hPa | 2.6V | 00:00:00 | 00:00:00 | 00:00:00 | |
| DH7VM-15 | 2026-09-03 13:38:35 | 47.80076 | 10.97682 | 138° | 104km/h | 7168m | -2.3m/s | -18.7°C | 75.7% | 421.4hPa | 2.6V | 07:25:00 | 00:00:00 | 00:00:00 | |
| DB0NH | 2026-09-03 13:38:33 | 47.80132 | 10.97602 | 136° | 102km/h | 7174m | -2.2m/s | -18.8°C | 80.4% | 421.0hPa | 2.6V | 00:00:00 | 03:08:59 | 00:00:00 | |
| DG1MFX-10 | 2026-09-03 13:38:31 | 47.80150 | 10.97575 | 137° | 100km/h | 7177m | -3.1m/s | -18.8°C | 75.9% | 420.9hPa | 2.6V | 07:25:00 | 00:00:00 | 00:00:00 | |
| DO3MHA-12 | 2026-09-03 13:38:29 | 47.80204 | 10.97496 | 136° | 99km/h | 7184m | -2.4m/s | -18.8°C | 79.3% | 420.4hPa | 2.6V | 00:00:00 | 03:08:55 | 00:00:00 | |
| DO3MHA-11 | 2026-09-03 13:38:28 | 47.80221 | 10.97470 | 136° | 99km/h | 7187m | -2.7m/s | -18.8°C | 78.7% | 420.3hPa | 2.6V | 00:00:00 | 03:08:54 | 00:00:00 | |
| DF3TZ-5 | 2026-09-03 13:38:26 | 47.80275 | 10.97391 | 135° | 99km/h | 7195m | -2.7m/s | -18.9°C | -1.0% | -1.0hPa | 2.6V | 00:00:00 | 00:00:00 | 00:00:00 | |
| OE3JTB-15 | 2026-09-03 13:38:25 | 47.80275 | 10.97391 | 136° | 104km/h | 7195m | -2.7m/s | -18.9°C | 79.6% | 419.9hPa | 2.6V | 00:00:00 | 00:00:00 | 00:00:00 | |
| OE5DRO-10 | 2026-09-03 13:38:23 | 47.80311 | 10.97339 | 136° | 106km/h | 7201m | -2.4m/s | -18.9°C | 79.8% | 419.6hPa | 2.6V | 00:00:00 | 00:00:00 | 00:00:00 | |
| DO3MHA-12 | 2026-09-03 13:38:19 | 47.80381 | 10.97238 | 137° | 102km/h | 7211m | -2.5m/s | -19.0°C | 79.8% | 419.0hPa | 2.6V | 07:25:00 | 03:08:45 | 00:00:00 | |
| DO3MHA-11 | 2026-09-03 13:38:18 | 47.80399 | 10.97212 | 136° | 102km/h | 7213m | -2.6m/s | -19.0°C | 79.6% | 418.9hPa | 2.6V | 00:00:00 | 03:08:44 | 00:00:00 | |
| DH7VM-15 | 2026-09-03 13:38:15 | 47.80435 | 10.97161 | 137° | 99km/h | 7218m | -2.2m/s | -19.1°C | 75.7% | 418.6hPa | 2.6V | 07:25:00 | 00:00:00 | 00:00:00 | |
| DO3MHA-12 | 2026-09-03 13:38:09 | 47.80570 | 10.96977 | 138° | 108km/h | 7236m | -2.4m/s | -19.0°C | 79.0% | 417.6hPa | 2.6V | 00:00:00 | 03:08:35 | 00:00:00 | |
| DO3MHA-11 | 2026-09-03 13:38:08 | 47.80590 | 10.96950 | 138° | 110km/h | 7238m | -2.5m/s | -19.1°C | 79.0% | 417.4hPa | 2.6V | 07:25:00 | 03:08:34 | 00:00:00 | |
| OE5DXL-15 | 2026-09-03 13:38:07 | 47.80610 | 10.96923 | 139° | 111km/h | 7241m | -2.5m/s | -19.1°C | 78.4% | 417.3hPa | 2.6V | 07:25:00 | 00:00:00 | 00:00:00 | |
| DL9SK-14 | 2026-09-03 13:38:06 | 47.80631 | 10.96897 | 138° | 108km/h | 7243m | -2.7m/s | -19.1°C | 73.3% | 417.2hPa | 2.6V | 00:00:00 | 00:00:00 | 00:00:00 | |
| DB0ND-19 | 2026-09-03 13:38:05 | 47.80652 | 10.96870 | 139° | 108km/h | 7246m | -2.8m/s | -19.1°C | 72.8% | 417.0hPa | 2.6V | 00:00:00 | 00:00:00 | 00:00:00 | |
| NBG1-10 | 2026-09-03 13:38:04 | 47.80673 | 10.96843 | 140° | 113km/h | 7249m | -2.6m/s | -19.0°C | 75.9% | 416.8hPa | 2.6V | 00:00:00 | 03:08:30 | 00:00:00 | |
| DB0NH | 2026-09-03 13:38:03 | 47.80693 | 10.96816 | 139° | 113km/h | 7251m | -2.6m/s | -19.0°C | 76.3% | 416.7hPa | 2.6V | 07:25:00 | 03:08:29 | 00:00:00 | |
| OE5DRO-10 | 2026-09-03 13:38:02 | 47.80714 | 10.96788 | 139° | 110km/h | 7254m | -2.5m/s | -19.1°C | 76.7% | 416.5hPa | 2.6V | 00:00:00 | 00:00:00 | 00:00:00 | |
| DO3MHA-12 | 2026-09-03 13:37:59 | 47.80776 | 10.96707 | 140° | 111km/h | 7262m | -2.7m/s | -19.1°C | 74.8% | 416.0hPa | 2.6V | 00:00:00 | 03:08:25 | 00:00:00 | |
| DO3MHA-11 | 2026-09-03 13:37:58 | 47.80798 | 10.96680 | 141° | 111km/h | 7265m | -2.8m/s | -19.1°C | 75.5% | 415.9hPa | 2.6V | 00:00:00 | 03:08:24 | 00:00:00 | |
| DG1MJG | 2026-09-03 13:37:57 | 47.80798 | 10.96680 | 141° | 111km/h | 7265m | -2.8m/s | -19.2°C | 72.2% | 416.0hPa | 2.6V | 07:26:00 | 00:00:00 | 00:00:00 | |
| OE3JTB-15 | 2026-09-03 13:37:56 | 47.80842 | 10.96627 | 141° | 113km/h | 7271m | -2.7m/s | -19.1°C | 74.7% | 415.6hPa | 2.6V | 00:00:00 | 03:08:22 | 00:00:00 | |
| DO3MHA-12 | 2026-09-03 13:37:49 | 47.80993 | 10.96436 | 140° | 113km/h | 7290m | -2.7m/s | -19.3°C | 75.4% | 414.5hPa | 2.6V | 00:00:00 | 03:08:15 | 00:00:00 | |
| DO3MHA-11 | 2026-09-03 13:37:48 | 47.81015 | 10.96409 | 140° | 113km/h | 7293m | -2.6m/s | -19.3°C | 76.0% | 414.4hPa | 2.6V | 00:00:00 | 03:08:14 | 00:00:00 | |
| DB0UT-7 | 2026-09-03 13:37:46 | 47.81059 | 10.96355 | 142° | 111km/h | 7298m | -2.8m/s | -19.4°C | 75.2% | 414.1hPa | 2.6V | 00:00:00 | 00:00:00 | 00:00:00 | |
| DO3MHA-12 | 2026-09-03 13:37:39 | 47.81219 | 10.96170 | 143° | 115km/h | 7318m | -2.9m/s | -19.5°C | 74.1% | 412.9hPa | 2.6V | 00:00:00 | 03:08:05 | 00:00:00 | |
| DO3MHA-11 | 2026-09-03 13:37:38 | 47.81242 | 10.96143 | 144° | 113km/h | 7321m | -3.1m/s | -19.5°C | 73.5% | 412.8hPa | 2.6V | 00:00:00 | 03:08:04 | 00:00:00 | |
| OE5DXL-15 | 2026-09-03 13:37:37 | 47.81266 | 10.96118 | 144° | 108km/h | 7324m | -3.0m/s | -19.5°C | 72.8% | 412.6hPa | 2.6V | 00:00:00 | 00:00:00 | 00:00:00 | |
| OE5DRO-10 | 2026-09-03 13:37:36 | 47.81289 | 10.96092 | 144° | 110km/h | 7327m | -3.0m/s | -19.5°C | 72.8% | 412.4hPa | 2.6V | 00:00:00 | 00:00:00 | 00:00:00 | |
| DL6DJ-15 | 2026-09-03 13:37:35 | 47.81313 | 10.96067 | 143° | 115km/h | 7330m | -2.9m/s | -19.5°C | 68.6% | 412.3hPa | 2.6V | 00:00:00 | 00:00:00 | 00:00:00 | |
| DB0NH | 2026-09-03 13:37:33 | 47.81360 | 10.96015 | 144° | 117km/h | 7336m | -3.0m/s | -19.5°C | 71.2% | 411.9hPa | 2.6V | 00:00:00 | 03:07:59 | 00:00:00 | |
| NBG1-10 | 2026-09-03 13:37:31 | 47.81407 | 10.95966 | 146° | 106km/h | 7342m | -2.7m/s | -19.5°C | 71.1% | 411.6hPa | 2.6V | 07:25:00 | 03:07:57 | 00:00:00 | |
| DO3MHA-12 | 2026-09-03 13:37:29 | 47.81453 | 10.95921 | 147° | 108km/h | 7348m | -2.9m/s | -19.5°C | 70.7% | 411.3hPa | 2.6V | 00:00:00 | 03:07:55 | 00:00:00 | |
| DO3MHA-11 | 2026-09-03 13:37:28 | 47.81477 | 10.95898 | 147° | 106km/h | 7351m | -3.0m/s | -19.6°C | 70.2% | 411.1hPa | 2.6V | 00:00:00 | 03:07:54 | 00:00:00 | |
| DG1MJG | 2026-09-03 13:37:27 | 47.81500 | 10.95875 | 148° | 111km/h | 7354m | -2.9m/s | -19.7°C | 66.9% | 411.0hPa | 2.6V | 07:26:00 | 00:00:00 | 00:00:00 | |
| DO3MHA-12 | 2026-09-03 13:37:19 | 47.81679 | 10.95698 | 147° | 102km/h | 7376m | -2.9m/s | -19.8°C | 69.6% | 409.7hPa | 2.6V | 00:00:00 | 03:07:45 | 00:00:00 | |
| DO3MHA-11 | 2026-09-03 13:37:18 | 47.81701 | 10.95676 | 146° | 102km/h | 7379m | -2.9m/s | -19.8°C | 69.5% | 409.6hPa | 2.5V | 00:00:00 | 03:07:44 | 00:00:00 | |
| OE5DRO-10 | 2026-09-03 13:37:17 | 47.81722 | 10.95654 | 146° | 104km/h | 7382m | -2.8m/s | -19.9°C | 69.2% | 409.4hPa | 2.5V | 00:00:00 | 00:00:00 | 00:00:00 | |
| DB0UT-7 | 2026-09-03 13:37:16 | 47.81743 | 10.95632 | 145° | 106km/h | 7385m | -2.9m/s | -19.8°C | 69.0% | 409.3hPa | 2.6V | 00:00:00 | 03:07:42 | 00:00:00 | |
| DG1MFX-10 | 2026-09-03 13:37:14 | 47.81764 | 10.95609 | 145° | 102km/h | 7388m | -2.7m/s | -19.9°C | 64.7% | 409.2hPa | 2.6V | 00:00:00 | 00:00:00 | 00:00:00 | |
| DH7VM-15 | 2026-09-03 13:37:11 | 47.81826 | 10.95541 | 145° | 102km/h | 7396m | -2.8m/s | -19.9°C | 63.3% | 408.7hPa | 2.6V | 00:00:00 | 00:00:00 | 00:00:00 | |
| DO3MHA-11 | 2026-09-03 13:37:08 | 47.81909 | 10.95447 | 141° | 104km/h | 7408m | -2.7m/s | -19.9°C | 65.2% | 408.0hPa | 2.6V | 00:00:00 | 03:07:34 | 00:00:00 | |
| OE5DXL-15 | 2026-09-03 13:37:07 | 47.81929 | 10.95422 | 141° | 110km/h | 7410m | -2.8m/s | -19.9°C | 65.3% | 407.8hPa | 2.6V | 00:00:00 | 00:00:00 | 00:00:00 | |
| DL6DJ-15 | 2026-09-03 13:37:04 | 47.82011 | 10.95324 | 141° | 102km/h | 7422m | -2.8m/s | -20.1°C | 62.4% | 407.3hPa | 2.6V | 00:00:00 | 00:00:00 | 00:00:00 | |
| DO3MHA-12 | 2026-09-03 13:36:59 | 47.82092 | 10.95222 | 140° | 110km/h | 7433m | -2.8m/s | -20.1°C | 65.2% | 406.5hPa | 2.6V | 07:26:00 | 03:07:25 | 00:00:00 | |
| DO3MHA-11 | 2026-09-03 13:36:58 | 47.82112 | 10.95196 | 140° | 110km/h | 7436m | -2.9m/s | -20.1°C | 65.5% | 406.5hPa | 2.6V | 00:00:00 | 03:07:24 | 00:00:00 | |
| DN1GJH-1 | 2026-09-03 13:36:55 | 47.82154 | 10.95144 | 141° | 108km/h | 7441m | -2.9m/s | -20.3°C | 62.0% | 406.3hPa | 2.6V | 07:26:00 | 00:00:00 | 00:00:00 | |
| DG1MFX-10 | 2026-09-03 13:36:53 | 47.82195 | 10.95090 | 140° | 111km/h | 7447m | -2.8m/s | -20.2°C | 61.2% | 405.9hPa | 2.6V | 00:00:00 | 00:00:00 | 00:00:00 | |
| DO3MHA-12 | 2026-09-03 13:36:49 | 47.82301 | 10.94953 | 139° | 113km/h | 7462m | -3.0m/s | -20.3°C | 64.8% | 405.0hPa | 2.6V | 00:00:00 | 03:07:15 | 00:00:00 | |
| DO3MHA-11 | 2026-09-03 13:36:48 | 47.82322 | 10.94925 | 139° | 115km/h | 7465m | -2.7m/s | -20.3°C | 65.1% | 404.9hPa | 2.5V | 07:26:00 | 03:07:14 | 00:00:00 | |
| DB0UT-7 | 2026-09-03 13:36:46 | 47.82365 | 10.94868 | 139° | 119km/h | 7470m | -2.7m/s | -20.3°C | 65.6% | 404.5hPa | 2.5V | 00:00:00 | 00:00:00 | 00:00:00 | |
| DO3MHA-12 | 2026-09-03 13:36:39 | 47.82517 | 10.94667 | 139° | 119km/h | 7490m | -2.8m/s | -20.4°C | 64.4% | 403.4hPa | 2.6V | 00:00:00 | 03:07:05 | 00:00:00 | |
| OE5DXL-15 | 2026-09-03 13:36:37 | 47.82561 | 10.94608 | 139° | 117km/h | 7497m | -3.1m/s | -20.5°C | 64.7% | 403.1hPa | 2.6V | 00:00:00 | 00:00:00 | 00:00:00 | |
| DL6DJ-15 | 2026-09-03 13:36:33 | 47.82675 | 10.94463 | 141° | 120km/h | 7511m | -2.7m/s | -20.7°C | 63.5% | 402.3hPa | 2.6V | 00:00:00 | 00:00:00 | 00:00:00 | |
| DB0ND-19 | 2026-09-03 13:36:32 | 47.82699 | 10.94434 | 142° | 122km/h | 7514m | -2.7m/s | -20.7°C | 63.7% | 402.2hPa | 2.6V | 00:00:00 | 00:00:00 | 00:00:00 | |
| DO3MHA-12 | 2026-09-03 13:36:29 | 47.82748 | 10.94378 | 142° | 119km/h | 7520m | -2.8m/s | -20.7°C | 68.4% | 401.9hPa | 2.6V | 00:00:00 | 03:06:55 | 00:00:00 | |
| DO3MHA-11 | 2026-09-03 13:36:28 | 47.82773 | 10.94349 | 142° | 119km/h | 7523m | -2.9m/s | -20.7°C | 68.7% | 401.7hPa | 2.6V | 00:00:00 | 03:06:54 | 00:00:00 | |
| DN1GJH-1 | 2026-09-03 13:36:26 | 47.82797 | 10.94321 | 143° | 122km/h | 7526m | -3.0m/s | -20.8°C | 65.5% | 401.5hPa | 2.6V | 00:00:00 | 00:00:00 | 00:00:00 | |
| NBG1-10 | 2026-09-03 13:36:25 | 47.82846 | 10.94267 | 145° | 110km/h | 7532m | -2.8m/s | -20.8°C | 69.2% | 401.2hPa | 2.6V | 00:00:00 | 03:06:51 | 00:00:00 | |
| DG1MJG | 2026-09-03 13:36:24 | 47.82871 | 10.94241 | 146° | 119km/h | 7535m | -3.0m/s | -20.9°C | 66.2% | 401.1hPa | 2.6V | 07:27:00 | 00:00:00 | 00:00:00 | |
| OE5DRO-10 | 2026-09-03 13:36:20 | 47.82969 | 10.94141 | 146° | 110km/h | 7547m | -3.2m/s | -21.0°C | 70.0% | 400.4hPa | 2.6V | 00:00:00 | 00:00:00 | 00:00:00 | |
| DO3MHA-12 | 2026-09-03 13:36:19 | 47.82993 | 10.94116 | 146° | 111km/h | 7550m | -3.3m/s | -21.0°C | 69.6% | 400.2hPa | 2.5V | 00:00:00 | 03:06:45 | 00:00:00 | |
| DO3MHA-11 | 2026-09-03 13:36:18 | 47.83017 | 10.94091 | 146° | 111km/h | 7553m | -3.1m/s | -21.0°C | 69.2% | 400.0hPa | 2.6V | 00:00:00 | 03:06:44 | 00:00:00 | |
| DB0UT-7 | 2026-09-03 13:36:16 | 47.83064 | 10.94043 | 146° | 108km/h | 7559m | -2.8m/s | -21.0°C | 69.0% | 399.7hPa | 2.6V | 07:27:00 | 03:06:42 | 00:00:00 | |
| DO3MHA-12 | 2026-09-03 13:36:09 | 47.83224 | 10.93875 | 145° | 106km/h | 7579m | -2.9m/s | -21.1°C | 66.7% | 398.6hPa | 2.6V | 00:00:00 | 03:06:35 | 00:00:00 | |
| DO3MHA-11 | 2026-09-03 13:36:08 | 47.83247 | 10.93852 | 145° | 106km/h | 7583m | -3.0m/s | -21.1°C | 66.7% | 398.4hPa | 2.6V | 00:00:00 | 03:06:34 | 00:00:00 | |
| OE5DXL-15 | 2026-09-03 13:36:07 | 47.83269 | 10.93829 | 145° | 110km/h | 7585m | -2.7m/s | -21.1°C | 67.0% | 398.3hPa | 2.6V | 00:00:00 | 00:00:00 | 00:00:00 | |
| DH7VM-15 | 2026-09-03 13:36:06 | 47.83269 | 10.93829 | 146° | 108km/h | 7585m | -2.8m/s | -21.2°C | 63.7% | 398.3hPa | 2.5V | 00:00:00 | 00:00:00 | 00:00:00 | |
| DL6DJ-15 | 2026-09-03 13:36:02 | 47.83398 | 10.93685 | 142° | 104km/h | 7603m | -3.0m/s | -21.4°C | 64.0% | 397.4hPa | 2.5V | 00:00:00 | 00:00:00 | 00:00:00 | |
| OE5DRO-10 | 2026-09-03 13:36:01 | 47.83397 | 10.93685 | 143° | 108km/h | 7603m | -2.9m/s | -21.3°C | 67.3% | 397.3hPa | 2.5V | 00:00:00 | 00:00:00 | 00:00:00 | |
| DO3MHA-12 | 2026-09-03 13:35:59 | 47.83440 | 10.93637 | 143° | 106km/h | 7609m | -3.0m/s | -21.4°C | 67.4% | 397.0hPa | 2.5V | 00:00:00 | 03:06:25 | 00:00:00 | |
| DO3MHA-11 | 2026-09-03 13:35:58 | 47.83460 | 10.93613 | 142° | 106km/h | 7612m | -3.0m/s | -21.4°C | 67.2% | 396.8hPa | 2.5V | 00:00:00 | 03:06:24 | 00:00:00 | |
| DG1MJG | 2026-09-03 13:35:53 | 47.83541 | 10.93510 | 140° | 104km/h | 7624m | -3.2m/s | -21.5°C | 62.3% | 396.2hPa | 2.5V | 07:27:00 | 00:00:00 | 00:00:00 | |
| NBG1-10 | 2026-09-03 13:35:52 | 47.83581 | 10.93458 | 140° | 117km/h | 7630m | -3.0m/s | -21.5°C | 65.3% | 395.9hPa | 2.5V | 00:00:00 | 03:06:18 | 00:00:00 | |
| DO3MHA-12 | 2026-09-03 13:35:49 | 47.83642 | 10.93377 | 137° | 115km/h | 7639m | -2.9m/s | -21.6°C | 65.2% | 395.4hPa | 2.6V | 00:00:00 | 03:06:15 | 00:00:00 | |
| DO3MHA-11 | 2026-09-03 13:35:48 | 47.83663 | 10.93347 | 137° | 115km/h | 7642m | -2.8m/s | -21.6°C | 64.3% | 395.2hPa | 2.5V | 00:00:00 | 03:06:14 | 00:00:00 | |
| DB0UT-7 | 2026-09-03 13:35:46 | 47.83705 | 10.93289 | 137° | 119km/h | 7648m | -2.9m/s | -21.7°C | 64.9% | 394.9hPa | 2.5V | 00:00:00 | 00:00:00 | 00:00:00 | |
| OE5DRO-10 | 2026-09-03 13:35:42 | 47.83789 | 10.93172 | 138° | 120km/h | 7660m | -2.9m/s | -21.8°C | 66.2% | 394.3hPa | 2.5V | 00:00:00 | 00:00:00 | 00:00:00 | |
| DO3MHA-12 | 2026-09-03 13:35:39 | 47.83857 | 10.93083 | 139° | 120km/h | 7669m | -3.1m/s | -21.9°C | 65.7% | 393.8hPa | 2.5V | 07:27:00 | 03:06:05 | 00:00:00 | |
| DO3MHA-11 | 2026-09-03 13:35:38 | 47.83879 | 10.93053 | 138° | 120km/h | 7672m | -3.1m/s | -21.9°C | 65.5% | 393.6hPa | 2.5V | 00:00:00 | 03:06:04 | 00:00:00 | |
| OE5DXL-15 | 2026-09-03 13:35:37 | 47.83902 | 10.93023 | 139° | 120km/h | 7675m | -3.1m/s | -22.0°C | 65.2% | 393.4hPa | 2.6V | 00:00:00 | 00:00:00 | 00:00:00 | |
| DL9SK-14 | 2026-09-03 13:35:31 | 47.84066 | 10.92817 | 139° | 120km/h | 7697m | -3.0m/s | -22.1°C | 60.2% | 392.3hPa | 2.6V | 00:00:00 | 00:00:00 | 00:00:00 | |
| DL6DJ-15 | 2026-09-03 13:35:30 | 47.84066 | 10.92817 | 139° | 120km/h | 7697m | -3.0m/s | -22.1°C | 60.2% | 392.3hPa | 2.6V | 00:00:00 | 00:00:00 | 00:00:00 | |
| DO3MHA-12 | 2026-09-03 13:35:29 | 47.84089 | 10.92788 | 141° | 120km/h | 7700m | -3.3m/s | -22.1°C | 62.5% | 392.1hPa | 2.6V | 00:00:00 | 03:05:55 | 00:00:00 | |
| DO3MHA-11 | 2026-09-03 13:35:28 | 47.84113 | 10.92759 | 142° | 120km/h | 7703m | -3.0m/s | -22.1°C | 63.1% | 392.0hPa | 2.6V | 07:28:00 | 03:05:54 | 00:00:00 | |
| OE5DRO-10 | 2026-09-03 13:35:23 | 47.84235 | 10.92620 | 143° | 120km/h | 7718m | -3.1m/s | -22.1°C | 60.0% | 391.1hPa | 2.6V | 00:00:00 | 00:00:00 | 00:00:00 | |
| DG1MJG | 2026-09-03 13:35:22 | 47.84235 | 10.92620 | 144° | 120km/h | 7718m | -3.2m/s | -22.2°C | 56.9% | 391.2hPa | 2.5V | 07:28:00 | 00:00:00 | 00:00:00 | |
| DO3MHA-12 | 2026-09-03 13:35:19 | 47.84333 | 10.92515 | 145° | 119km/h | 7731m | -3.1m/s | -22.2°C | 58.4% | 390.4hPa | 2.5V | 00:00:00 | 03:05:45 | 00:00:00 | |
| DO3MHA-11 | 2026-09-03 13:35:18 | 47.84357 | 10.92489 | 145° | 120km/h | 7734m | -3.1m/s | -22.2°C | 58.7% | 390.3hPa | 2.5V | 00:00:00 | 03:05:44 | 00:00:00 | |
| DB0NH | 2026-09-03 13:35:16 | 47.84406 | 10.92436 | 145° | 117km/h | 7740m | -3.2m/s | -22.3°C | 59.1% | 390.0hPa | 2.5V | 00:00:00 | 03:05:42 | 00:00:00 | |
| DO3MHA-12 | 2026-09-03 13:35:09 | 47.84579 | 10.92254 | 145° | 120km/h | 7761m | -3.3m/s | -22.5°C | 59.9% | 388.8hPa | 2.5V | 00:00:00 | 03:05:35 | 00:00:00 | |
| DO3MHA-11 | 2026-09-03 13:35:08 | 47.84604 | 10.92227 | 145° | 120km/h | 7765m | -3.1m/s | -22.5°C | 59.9% | 388.6hPa | 2.5V | 00:00:00 | 03:05:34 | 00:00:00 | |
| OE5DRO-10 | 2026-09-03 13:35:04 | 47.84704 | 10.92123 | 145° | 113km/h | 7777m | -2.8m/s | -22.6°C | 59.7% | 388.0hPa | 2.5V | 00:00:00 | 00:00:00 | 00:00:00 | |
| DL9SK-14 | 2026-09-03 13:35:00 | 47.84829 | 10.91995 | 146° | 115km/h | 7792m | -3.0m/s | -22.8°C | 57.0% | 387.3hPa | 2.5V | 00:00:00 | 00:00:00 | 00:00:00 | |
| DO3MHA-12 | 2026-09-03 13:34:59 | 47.84829 | 10.91995 | 147° | 113km/h | 7792m | -2.9m/s | -22.8°C | 60.2% | 387.2hPa | 2.5V | 00:00:00 | 03:05:25 | 00:00:00 | |
| DO3MHA-11 | 2026-09-03 13:34:58 | 47.84853 | 10.91971 | 147° | 111km/h | 7795m | -3.1m/s | -22.8°C | 60.4% | 387.0hPa | 2.5V | 00:00:00 | 03:05:24 | 00:00:00 | |
| OE5DXL-15 | 2026-09-03 13:34:57 | 47.84878 | 10.91947 | 147° | 113km/h | 7798m | -2.9m/s | -22.8°C | 60.3% | 386.9hPa | 2.5V | 00:00:00 | 00:00:00 | 00:00:00 | |
| DG1MJG | 2026-09-03 13:34:51 | 47.84994 | 10.91824 | 143° | 108km/h | 7812m | -2.8m/s | -23.1°C | 57.7% | 386.2hPa | 2.5V | 07:28:00 | 00:00:00 | 00:00:00 | |
| DO3MHA-12 | 2026-09-03 13:34:49 | 47.85059 | 10.91748 | 142° | 111km/h | 7821m | -2.9m/s | -23.1°C | 60.2% | 385.6hPa | 2.5V | 00:00:00 | 03:05:15 | 00:00:00 | |
| DO3MHA-11 | 2026-09-03 13:34:48 | 47.85081 | 10.91723 | 142° | 111km/h | 7825m | -3.0m/s | -23.1°C | 59.5% | 385.5hPa | 2.5V | 00:00:00 | 03:05:14 | 00:00:00 | |
| DB0UT-7 | 2026-09-03 13:34:46 | 47.85124 | 10.91669 | 140° | 117km/h | 7830m | -2.8m/s | -23.1°C | 58.4% | 385.2hPa | 2.5V | 00:00:00 | 00:00:00 | 00:00:00 | |
| OE5DRO-10 | 2026-09-03 13:34:45 | 47.85145 | 10.91642 | 140° | 115km/h | 7833m | -2.8m/s | -23.1°C | 57.9% | 385.1hPa | 2.5V | 00:00:00 | 00:00:00 | 00:00:00 | |
| DO3MHA-12 | 2026-09-03 13:34:39 | 47.85274 | 10.91479 | 139° | 117km/h | 7851m | -3.0m/s | -23.2°C | 57.4% | 384.1hPa | 2.5V | 00:00:00 | 03:05:05 | 00:00:00 | |
| DO3MHA-11 | 2026-09-03 13:34:38 | 47.85296 | 10.91451 | 139° | 117km/h | 7854m | -3.0m/s | -23.3°C | 56.9% | 384.0hPa | 2.5V | 00:00:00 | 03:05:04 | 00:00:00 | |
| DO3MHA-12 | 2026-09-03 13:34:29 | 47.85494 | 10.91188 | 139° | 122km/h | 7881m | -3.0m/s | -23.3°C | 54.3% | 382.6hPa | 2.6V | 00:00:00 | 03:04:55 | 00:00:00 | |
| DO3MHA-11 | 2026-09-03 13:34:28 | 47.85517 | 10.91158 | 139° | 122km/h | 7884m | -3.0m/s | -23.4°C | 54.6% | 382.4hPa | 2.6V | 00:00:00 | 03:04:54 | 00:00:00 | |
| OE5DXL-15 | 2026-09-03 13:34:27 | 47.85539 | 10.91128 | 139° | 124km/h | 7887m | -3.0m/s | -23.4°C | 54.6% | 382.2hPa | 2.6V | 00:00:00 | 00:00:00 | 00:00:00 | |
| OE5DRO-10 | 2026-09-03 13:34:24 | 47.85608 | 10.91036 | 139° | 126km/h | 7896m | -3.0m/s | -23.4°C | 54.9% | 381.7hPa | 2.6V | 07:29:00 | 00:00:00 | 00:00:00 | |
| DG1MJG | 2026-09-03 13:34:21 | 47.85654 | 10.90975 | 139° | 120km/h | 7902m | -2.9m/s | -23.5°C | 51.8% | 381.5hPa | 2.5V | 07:29:00 | 00:00:00 | 00:00:00 | |
| DO3MHA-12 | 2026-09-03 13:34:19 | 47.85724 | 10.90882 | 139° | 126km/h | 7911m | -2.9m/s | -23.5°C | 54.5% | 381.0hPa | 2.5V | 07:29:00 | 03:04:45 | 00:00:00 | |
| DO3MHA-11 | 2026-09-03 13:34:18 | 47.85747 | 10.90851 | 139° | 126km/h | 7914m | -2.9m/s | -23.6°C | 54.7% | 380.8hPa | 2.6V | 00:00:00 | 03:04:44 | 00:00:00 | |
| DB0UT-7 | 2026-09-03 13:34:16 | 47.85795 | 10.90788 | 139° | 124km/h | 7920m | -2.8m/s | -23.6°C | 55.0% | 380.6hPa | 2.6V | 00:00:00 | 03:04:42 | 00:00:00 | |
| NBG1-10 | 2026-09-03 13:34:13 | 47.85867 | 10.90695 | 141° | 124km/h | 7929m | -2.9m/s | -23.7°C | 55.3% | 380.1hPa | 2.6V | 00:00:00 | 03:04:39 | 00:00:00 | |
| DO3MHA-12 | 2026-09-03 13:34:09 | 47.85968 | 10.90574 | 142° | 126km/h | 7940m | -2.8m/s | -23.8°C | 55.9% | 379.4hPa | 2.5V | 00:00:00 | 03:04:35 | 00:00:00 | |
| DO3MHA-11 | 2026-09-03 13:34:08 | 47.85993 | 10.90544 | 142° | 126km/h | 7943m | -2.8m/s | -23.9°C | 56.2% | 379.3hPa | 2.5V | 07:29:00 | 03:04:34 | 00:00:00 | |
| OE5DRO-10 | 2026-09-03 13:34:05 | 47.86070 | 10.90458 | 145° | 124km/h | 7952m | -2.8m/s | -23.9°C | 56.4% | 378.9hPa | 2.5V | 00:00:00 | 00:00:00 | 00:00:00 | |
| DM7RM-13 | 2026-09-03 13:34:01 | 47.86147 | 10.90375 | 145° | 126km/h | 7961m | -2.9m/s | -24.1°C | 53.8% | 378.4hPa | 2.5V | 00:00:00 | 00:00:00 | 00:00:00 | |
| DO3MHA-12 | 2026-09-03 13:33:59 | 47.86224 | 10.90292 | 145° | 122km/h | 7970m | -3.0m/s | -24.1°C | 57.9% | 378.0hPa | 2.5V | 00:00:00 | 03:04:25 | 00:00:00 | |
| DO3MHA-11 | 2026-09-03 13:33:58 | 47.86249 | 10.90265 | 145° | 122km/h | 7973m | -2.8m/s | -24.2°C | 58.1% | 377.8hPa | 2.5V | 00:00:00 | 03:04:24 | 00:00:00 | |
| OE5DXL-15 | 2026-09-03 13:33:57 | 47.86274 | 10.90239 | 145° | 117km/h | 7975m | -2.9m/s | -24.2°C | 58.3% | 377.7hPa | 2.5V | 07:29:00 | 00:00:00 | 00:00:00 | |
| DG1MJG | 2026-09-03 13:33:50 | 47.86425 | 10.90079 | 146° | 120km/h | 7993m | -2.9m/s | -24.4°C | 55.1% | 376.8hPa | 2.5V | 07:30:00 | 00:00:00 | 00:00:00 | |
| DO3MHA-12 | 2026-09-03 13:33:49 | 47.86475 | 10.90026 | 145° | 120km/h | 7999m | -2.8m/s | -24.4°C | 58.6% | 376.5hPa | 2.5V | 00:00:00 | 03:04:15 | 00:00:00 | |
| DO3MHA-11 | 2026-09-03 13:33:48 | 47.86501 | 10.89999 | 145° | 120km/h | 8002m | -2.7m/s | -24.4°C | 59.0% | 376.2hPa | 2.6V | 00:00:00 | 03:04:14 | 00:00:00 | |
| DB0UT-7 | 2026-09-03 13:33:46 | 47.86551 | 10.89945 | 145° | 117km/h | 8007m | -2.8m/s | -24.5°C | 59.3% | 375.9hPa | 2.6V | 00:00:00 | 00:00:00 | 00:00:00 | |
| DN1GJH-1 | 2026-09-03 13:33:43 | 47.86601 | 10.89893 | 146° | 119km/h | 8013m | -2.8m/s | -24.6°C | 56.5% | 375.7hPa | 2.5V | 00:00:00 | 00:00:00 | 00:00:00 | |
| NBG1-10 | 2026-09-03 13:33:40 | 47.86700 | 10.89790 | 145° | 119km/h | 8025m | -3.0m/s | -24.7°C | 60.1% | 375.0hPa | 2.5V | 00:00:00 | 03:04:06 | 00:00:00 | |
| DO3MHA-12 | 2026-09-03 13:33:39 | 47.86724 | 10.89764 | 145° | 115km/h | 8028m | -2.9m/s | -24.7°C | 60.5% | 374.9hPa | 2.5V | 00:00:00 | 03:04:05 | 00:00:00 | |
| DO3MHA-11 | 2026-09-03 13:33:38 | 47.86748 | 10.89738 | 145° | 115km/h | 8031m | -2.9m/s | -24.7°C | 60.4% | 374.7hPa | 2.5V | 00:00:00 | 03:04:04 | 00:00:00 | |
| DO3MHA-12 | 2026-09-03 13:33:29 | 47.86955 | 10.89503 | 140° | 117km/h | 8057m | -2.9m/s | -25.0°C | 62.1% | 373.4hPa | 2.6V | 00:00:00 | 03:03:55 | 00:00:00 | |
| DL9SK-14 | 2026-09-03 13:33:27 | 47.87020 | 10.89420 | 139° | 113km/h | 8066m | -2.9m/s | -25.1°C | 59.1% | 373.0hPa | 2.6V | 00:00:00 | 00:00:00 | 00:00:00 | |
| DB0ND-19 | 2026-09-03 13:33:26 | 47.87020 | 10.89420 | 139° | 113km/h | 8066m | -2.9m/s | -25.1°C | 59.1% | 373.0hPa | 2.6V | 00:00:00 | 00:00:00 | 00:00:00 | |
| DO3MHA-12 | 2026-09-03 13:33:19 | 47.87174 | 10.89210 | 137° | 122km/h | 8088m | -2.9m/s | -25.2°C | 64.1% | 371.8hPa | 2.6V | 00:00:00 | 03:03:45 | 00:00:00 | |
| DO3MHA-11 | 2026-09-03 13:33:17 | 47.87219 | 10.89147 | 137° | 124km/h | 8094m | -2.9m/s | -25.2°C | 63.8% | 371.5hPa | 2.5V | 00:00:00 | 03:03:43 | 00:00:00 | |
| DB0NH | 2026-09-03 13:33:16 | 47.87242 | 10.89116 | 137° | 126km/h | 8096m | -2.8m/s | -25.2°C | 64.0% | 371.4hPa | 2.5V | 07:30:00 | 03:03:42 | 00:00:00 | |
| DH7VM-15 | 2026-09-03 13:33:12 | 47.87310 | 10.89019 | 137° | 122km/h | 8105m | -2.8m/s | -25.4°C | 61.0% | 371.0hPa | 2.5V | 00:00:00 | 00:00:00 | 00:00:00 | |
| DO3MHA-12 | 2026-09-03 13:33:09 | 47.87400 | 10.88890 | 137° | 126km/h | 8117m | -2.8m/s | -25.4°C | 66.7% | 370.3hPa | 2.5V | 00:00:00 | 03:03:35 | 00:00:00 | |
| OE5DRO-10 | 2026-09-03 13:33:08 | 47.87423 | 10.88858 | 137° | 128km/h | 8120m | -2.9m/s | -25.5°C | 68.3% | 370.1hPa | 2.5V | 00:00:00 | 00:00:00 | 00:00:00 | |
| NBG1-10 | 2026-09-03 13:33:07 | 47.87447 | 10.88825 | 137° | 126km/h | 8123m | -3.3m/s | -25.5°C | 68.4% | 370.0hPa | 2.5V | 07:30:00 | 03:03:33 | 00:00:00 | |
| DL6DJ-15 | 2026-09-03 13:32:55 | 47.87812 | 10.88351 | 141° | 128km/h | 8167m | -2.8m/s | -25.9°C | 77.9% | 367.9hPa | 2.5V | 00:00:00 | 00:00:00 | 00:00:00 | |
| DO3MHA-12 | 2026-09-03 13:32:49 | 47.87888 | 10.88261 | 142° | 122km/h | 8176m | -3.2m/s | -26.0°C | 84.0% | 367.4hPa | 2.5V | 00:00:00 | 03:03:15 | 00:00:00 | |
| DO3MHA-11 | 2026-09-03 13:32:47 | 47.87938 | 10.88203 | 143° | 120km/h | 8181m | -2.9m/s | -26.0°C | 84.3% | 367.0hPa | 2.6V | 07:30:00 | 03:03:13 | 00:00:00 | |
| DB0NH | 2026-09-03 13:32:46 | 47.87962 | 10.88175 | 143° | 119km/h | 8184m | -2.7m/s | -25.9°C | 83.8% | 366.9hPa | 2.6V | 00:00:00 | 03:03:12 | 00:00:00 | |
| DO3MHA-12 | 2026-09-03 13:32:39 | 47.88134 | 10.87983 | 144° | 119km/h | 8205m | -2.9m/s | -26.0°C | 78.1% | 365.9hPa | 2.5V | 00:00:00 | 03:03:05 | 00:00:00 | |
| DO3MHA-11 | 2026-09-03 13:32:37 | 47.88182 | 10.87929 | 144° | 117km/h | 8211m | -3.0m/s | -26.0°C | 78.0% | 365.6hPa | 2.5V | 00:00:00 | 03:03:03 | 00:00:00 | |
| NBG1-10 | 2026-09-03 13:32:34 | 47.88256 | 10.87846 | 142° | 122km/h | 8220m | -2.8m/s | -26.2°C | 78.5% | 365.1hPa | 2.5V | 00:00:00 | 03:03:00 | 00:00:00 | |
| OE5DRO-10 | 2026-09-03 13:32:30 | 47.88345 | 10.87732 | 139° | 120km/h | 8231m | -3.0m/s | -26.4°C | 76.0% | 364.6hPa | 2.6V | 00:00:00 | 00:00:00 | 00:00:00 | |
| DO3MHA-12 | 2026-09-03 13:32:29 | 47.88367 | 10.87704 | 139° | 115km/h | 8234m | -2.9m/s | -26.3°C | 75.5% | 364.5hPa | 2.6V | 00:00:00 | 03:02:55 | 00:00:00 | |
| DO3MHA-11 | 2026-09-03 13:32:27 | 47.88410 | 10.87647 | 139° | 117km/h | 8239m | -3.0m/s | -26.4°C | 74.8% | 364.1hPa | 2.6V | 00:00:00 | 03:02:53 | 00:00:00 | |
| DB0ND-19 | 2026-09-03 13:32:24 | 47.88475 | 10.87559 | 136° | 115km/h | 8248m | -2.9m/s | -26.5°C | 69.8% | 363.8hPa | 2.6V | 00:00:00 | 00:00:00 | 00:00:00 | |
| DO3MHA-12 | 2026-09-03 13:32:19 | 47.88582 | 10.87407 | 136° | 126km/h | 8262m | -2.7m/s | -26.6°C | 73.5% | 363.0hPa | 2.6V | 00:00:00 | 03:02:45 | 00:00:00 | |
| DG1MJG | 2026-09-03 13:32:18 | 47.88582 | 10.87407 | 137° | 122km/h | 8262m | -2.8m/s | -26.7°C | 69.3% | 363.1hPa | 2.5V | 07:31:00 | 00:00:00 | 00:00:00 | |
| DO3MHA-11 | 2026-09-03 13:32:17 | 47.88627 | 10.87342 | 136° | 128km/h | 8268m | -2.8m/s | -26.6°C | 73.3% | 362.8hPa | 2.5V | 00:00:00 | 03:02:43 | 00:00:00 | |
| DB0UT-7 | 2026-09-03 13:32:16 | 47.88651 | 10.87309 | 136° | 131km/h | 8271m | -2.8m/s | -26.6°C | 73.2% | 362.5hPa | 2.5V | 07:31:00 | 03:02:42 | 00:00:00 | |
| OE5DRO-10 | 2026-09-03 13:32:11 | 47.88766 | 10.87143 | 137° | 131km/h | 8286m | -2.9m/s | -26.7°C | 72.9% | 361.8hPa | 2.5V | 00:00:00 | 00:00:00 | 00:00:00 | |
| DO3MHA-12 | 2026-09-03 13:32:09 | 47.88814 | 10.87076 | 137° | 131km/h | 8291m | -2.9m/s | -26.7°C | 71.2% | 361.6hPa | 2.5V | 00:00:00 | 03:02:35 | 00:00:00 | |
| OE5DXL-15 | 2026-09-03 13:32:08 | 47.88838 | 10.87042 | 137° | 131km/h | 8294m | -2.8m/s | -26.8°C | 71.8% | 361.4hPa | 2.5V | 00:00:00 | 00:00:00 | 00:00:00 | |
| DO3MHA-11 | 2026-09-03 13:32:07 | 47.88861 | 10.87008 | 137° | 131km/h | 8297m | -3.0m/s | -26.8°C | 72.4% | 361.2hPa | 2.5V | 00:00:00 | 03:02:33 | 00:00:00 | |
| DB0ND-19 | 2026-09-03 13:31:53 | 47.89211 | 10.86553 | 139° | 131km/h | 8337m | -2.7m/s | -27.2°C | 65.6% | 359.3hPa | 2.5V | 00:00:00 | 00:00:00 | 00:00:00 | |
| OE5DRO-10 | 2026-09-03 13:31:52 | 47.89237 | 10.86520 | 140° | 133km/h | 8340m | -2.8m/s | -27.2°C | 69.5% | 359.1hPa | 2.5V | 07:31:00 | 00:00:00 | 00:00:00 | |
| DO3MHA-12 | 2026-09-03 13:31:49 | 47.89314 | 10.86423 | 141° | 133km/h | 8349m | -2.8m/s | -27.3°C | 69.1% | 358.7hPa | 2.5V | 00:00:00 | 03:02:15 | 00:00:00 | |
| DG1MJG | 2026-09-03 13:31:48 | 47.89314 | 10.86423 | 141° | 133km/h | 8349m | -2.9m/s | -27.4°C | 65.0% | 358.7hPa | 2.5V | 07:32:00 | 00:00:00 | 00:00:00 | |
| DO3MHA-11 | 2026-09-03 13:31:47 | 47.89365 | 10.86359 | 140° | 133km/h | 8355m | -2.9m/s | -27.4°C | 68.8% | 358.4hPa | 2.5V | 00:00:00 | 03:02:13 | 00:00:00 | |
| DB0UT-7 | 2026-09-03 13:31:46 | 47.89390 | 10.86327 | 140° | 130km/h | 8357m | -2.7m/s | -27.4°C | 68.5% | 358.3hPa | 2.5V | 00:00:00 | 00:00:00 | 00:00:00 | |
| DO3MHA-12 | 2026-09-03 13:31:39 | 47.89570 | 10.86100 | 140° | 131km/h | 8378m | -2.9m/s | -27.5°C | 61.8% | 357.2hPa | 2.5V | 07:31:00 | 03:02:05 | 00:00:00 | |
| OE5DXL-15 | 2026-09-03 13:31:38 | 47.89596 | 10.86068 | 141° | 124km/h | 8381m | -2.8m/s | -27.5°C | 61.0% | 357.1hPa | 2.5V | 00:00:00 | 00:00:00 | 00:00:00 | |
| DO3MHA-11 | 2026-09-03 13:31:37 | 47.89622 | 10.86037 | 142° | 131km/h | 8384m | -2.9m/s | -27.5°C | 60.6% | 356.9hPa | 2.5V | 00:00:00 | 03:02:03 | 00:00:00 | |
| OE5DRO-10 | 2026-09-03 13:31:33 | 47.89728 | 10.85914 | 143° | 126km/h | 8395m | -2.8m/s | -27.6°C | 60.1% | 356.4hPa | 2.6V | 00:00:00 | 00:00:00 | 00:00:00 | |
| DO3MHA-12 | 2026-09-03 13:31:29 | 47.89833 | 10.85796 | 145° | 126km/h | 8406m | -2.5m/s | -27.7°C | 59.8% | 355.8hPa | 2.5V | 00:00:00 | 03:01:55 | 00:00:00 | |
| NBG1-10 | 2026-09-03 13:31:28 | 47.89859 | 10.85768 | 145° | 124km/h | 8409m | -2.6m/s | -27.7°C | 59.0% | 355.7hPa | 2.5V | 00:00:00 | 03:01:54 | 00:00:00 | |
| DO3MHA-11 | 2026-09-03 13:31:27 | 47.89886 | 10.85740 | 145° | 124km/h | 8412m | -2.8m/s | -27.7°C | 57.8% | 355.6hPa | 2.5V | 07:32:00 | 03:01:53 | 00:00:00 | |
| DL6DJ-15 | 2026-09-03 13:31:22 | 47.90015 | 10.85601 | 144° | 120km/h | 8424m | -2.4m/s | -27.9°C | 53.1% | 355.0hPa | 2.5V | 00:00:00 | 00:00:00 | 00:00:00 | |
| DL9SK-14 | 2026-09-03 13:31:21 | 47.90040 | 10.85574 | 144° | 120km/h | 8427m | -2.5m/s | -27.9°C | 52.9% | 354.9hPa | 2.5V | 00:00:00 | 00:00:00 | 00:00:00 | |
| DO3MHA-12 | 2026-09-03 13:31:19 | 47.90090 | 10.85521 | 145° | 120km/h | 8432m | -2.4m/s | -27.9°C | 54.8% | 354.6hPa | 2.5V | 00:00:00 | 03:01:45 | 00:00:00 | |
| DG1MJG | 2026-09-03 13:31:18 | 47.90090 | 10.85521 | 146° | 122km/h | 8432m | -2.5m/s | -28.0°C | 51.2% | 354.6hPa | 2.6V | 07:32:00 | 00:00:00 | 00:00:00 | |
| DO3MHA-11 | 2026-09-03 13:31:17 | 47.90140 | 10.85468 | 145° | 120km/h | 8437m | -2.5m/s | -27.9°C | 53.9% | 354.3hPa | 2.6V | 00:00:00 | 03:01:43 | 00:00:00 | |
| DB0NH | 2026-09-03 13:31:16 | 47.90164 | 10.85442 | 145° | 124km/h | 8439m | -2.7m/s | -27.9°C | 53.6% | 354.2hPa | 2.6V | 00:00:00 | 03:01:42 | 00:00:00 | |
| OE5DRO-10 | 2026-09-03 13:31:14 | 47.90213 | 10.85391 | 145° | 124km/h | 8445m | -2.8m/s | -28.0°C | 53.7% | 353.9hPa | 2.5V | 00:00:00 | 00:00:00 | 00:00:00 | |
| DH7VM-15 | 2026-09-03 13:31:13 | 47.90213 | 10.85391 | 146° | 117km/h | 8445m | -2.9m/s | -28.0°C | 50.2% | 353.9hPa | 2.5V | 00:00:00 | 00:00:00 | 00:00:00 | |
| DO3MHA-12 | 2026-09-03 13:31:09 | 47.90340 | 10.85259 | 145° | 124km/h | 8460m | -3.2m/s | -28.1°C | 55.1% | 353.2hPa | 2.5V | 00:00:00 | 03:01:35 | 00:00:00 | |
| DO3MHA-11 | 2026-09-03 13:31:07 | 47.90392 | 10.85206 | 145° | 124km/h | 8466m | -2.8m/s | -28.2°C | 55.1% | 352.9hPa | 2.5V | 00:00:00 | 03:01:33 | 00:00:00 | |
| DM7RM-13 | 2026-09-03 13:31:02 | 47.90494 | 10.85096 | 145° | 124km/h | 8478m | -3.0m/s | -28.5°C | 51.6% | 352.3hPa | 2.6V | 00:00:00 | 00:00:00 | 00:00:00 | |
| DB0ND-19 | 2026-09-03 13:30:51 | 47.90828 | 10.84747 | 145° | 124km/h | 8517m | -3.1m/s | -28.6°C | 49.8% | 350.4hPa | 2.6V | 00:00:00 | 00:00:00 | 00:00:00 | |
| DL9SK-14 | 2026-09-03 13:30:50 | 47.90828 | 10.84747 | 145° | 124km/h | 8517m | -3.1m/s | -28.6°C | 49.8% | 350.4hPa | 2.6V | 00:00:00 | 00:00:00 | 00:00:00 | |
| DO3MHA-12 | 2026-09-03 13:30:49 | 47.90854 | 10.84720 | 147° | 120km/h | 8520m | -2.8m/s | -28.5°C | 52.5% | 350.2hPa | 2.6V | 00:00:00 | 03:01:15 | 00:00:00 | |
| DG1MJG | 2026-09-03 13:30:48 | 47.90854 | 10.84720 | 147° | 124km/h | 8520m | -2.8m/s | -28.6°C | 49.0% | 350.3hPa | 2.5V | 07:32:00 | 00:00:00 | 00:00:00 | |
| DO3MHA-11 | 2026-09-03 13:30:47 | 47.90906 | 10.84668 | 147° | 119km/h | 8526m | -3.1m/s | -28.6°C | 54.3% | 349.9hPa | 2.5V | 00:00:00 | 03:01:13 | 00:00:00 | |
| DB0UT-7 | 2026-09-03 13:30:46 | 47.90932 | 10.84643 | 147° | 115km/h | 8529m | -3.2m/s | -28.7°C | 55.5% | 349.7hPa | 2.5V | 00:00:00 | 00:00:00 | 00:00:00 | |
| OE5DXL-15 | 2026-09-03 13:30:45 | 47.90959 | 10.84617 | 147° | 115km/h | 8532m | -3.0m/s | -28.7°C | 55.8% | 349.6hPa | 2.6V | 00:00:00 | 00:00:00 | 00:00:00 | |
| DO3MHA-12 | 2026-09-03 13:30:39 | 47.91105 | 10.84461 | 142° | 113km/h | 8550m | -2.9m/s | -28.8°C | 49.8% | 348.8hPa | 2.6V | 00:00:00 | 03:01:05 | 00:00:00 | |
| DO3MHA-11 | 2026-09-03 13:30:37 | 47.91151 | 10.84408 | 143° | 113km/h | 8556m | -2.9m/s | -28.7°C | 49.4% | 348.4hPa | 2.6V | 00:00:00 | 03:01:03 | 00:00:00 | |
| OE5DRO-10 | 2026-09-03 13:30:36 | 47.91173 | 10.84382 | 144° | 113km/h | 8559m | -2.7m/s | -28.7°C | 49.1% | 348.4hPa | 2.6V | 00:00:00 | 00:00:00 | 00:00:00 | |
| DO3MHA-12 | 2026-09-03 13:30:29 | 47.91334 | 10.84206 | 147° | 113km/h | 8580m | -2.9m/s | -29.0°C | 50.3% | 347.3hPa | 2.5V | 00:00:00 | 03:00:55 | 00:00:00 | |
| DO3MHA-11 | 2026-09-03 13:30:27 | 47.91382 | 10.84158 | 146° | 113km/h | 8586m | -3.2m/s | -29.1°C | 50.5% | 347.0hPa | 2.5V | 00:00:00 | 03:00:53 | 00:00:00 | |
| NBG1-10 | 2026-09-03 13:30:22 | 47.91497 | 10.84030 | 144° | 115km/h | 8603m | -3.3m/s | -29.3°C | 51.5% | 346.3hPa | 2.5V | 00:00:00 | 03:00:48 | 00:00:00 | |
| DB0ND-19 | 2026-09-03 13:30:20 | 47.91567 | 10.83954 | 143° | 113km/h | 8612m | -3.4m/s | -29.5°C | 48.7% | 345.8hPa | 2.5V | 00:00:00 | 00:00:00 | 00:00:00 | |
| DO3MHA-12 | 2026-09-03 13:30:19 | 47.91567 | 10.83954 | 144° | 113km/h | 8613m | -3.3m/s | -29.4°C | 52.3% | 345.7hPa | 2.5V | 07:33:00 | 03:00:45 | 00:00:00 | |
| DO3MHA-11 | 2026-09-03 13:30:17 | 47.91613 | 10.83903 | 144° | 113km/h | 8619m | -3.2m/s | -29.5°C | 52.2% | 345.4hPa | 2.5V | 00:00:00 | 03:00:43 | 00:00:00 | |
| DB0UT-7 | 2026-09-03 13:30:16 | 47.91636 | 10.83877 | 144° | 115km/h | 8622m | -3.4m/s | -29.5°C | 52.2% | 345.3hPa | 2.5V | 00:00:00 | 03:00:42 | 00:00:00 | |
| OE5DXL-15 | 2026-09-03 13:30:15 | 47.91660 | 10.83852 | 145° | 119km/h | 8626m | -3.4m/s | -29.5°C | 52.7% | 345.1hPa | 2.5V | 00:00:00 | 00:00:00 | 00:00:00 | |
| DO3MHA-12 | 2026-09-03 13:30:09 | 47.91797 | 10.83701 | 143° | 111km/h | 8648m | -4.7m/s | -29.7°C | 53.5% | 344.0hPa | 2.5V | 00:00:00 | 03:00:35 | 00:00:00 | |
| DH7VM-15 | 2026-09-03 13:30:08 | 47.91797 | 10.83701 | 144° | 111km/h | 8648m | -4.7m/s | -29.7°C | 49.8% | 344.0hPa | 2.5V | 00:00:00 | 00:00:00 | 00:00:00 | |
| DO3MHA-11 | 2026-09-03 13:30:07 | 47.91841 | 10.83651 | 144° | 111km/h | 8657m | -4.2m/s | -29.7°C | 53.9% | 343.6hPa | 2.5V | 07:33:00 | 03:00:33 | 00:00:00 | |
| DB0ND-19 | 2026-09-03 13:29:49 | 47.92283 | 10.83135 | 145° | 124km/h | 8728m | -3.9m/s | -30.6°C | 51.7% | 340.2hPa | 2.6V | 00:00:00 | 00:00:00 | 00:00:00 | |
| DL9SK-14 | 2026-09-03 13:29:48 | 47.92283 | 10.83135 | 145° | 124km/h | 8728m | -3.9m/s | -30.6°C | 51.7% | 340.2hPa | 2.6V | 00:00:00 | 00:00:00 | 00:00:00 | |
| DO3MHA-11 | 2026-09-03 13:29:47 | 47.92309 | 10.83107 | 145° | 126km/h | 8732m | -3.6m/s | -30.5°C | 56.2% | 340.0hPa | 2.6V | 00:00:00 | 03:00:13 | 00:00:00 | |
| DB0UT-7 | 2026-09-03 13:29:46 | 47.92335 | 10.83080 | 145° | 119km/h | 8736m | -3.6m/s | -30.5°C | 56.6% | 339.8hPa | 2.6V | 00:00:00 | 00:00:00 | 00:00:00 | |
| OE5DXL-15 | 2026-09-03 13:29:44 | 47.92388 | 10.83026 | 147° | 119km/h | 8743m | -3.6m/s | -30.6°C | 57.4% | 339.4hPa | 2.6V | 00:00:00 | 00:00:00 | 00:00:00 | |
| DO3MHA-12 | 2026-09-03 13:29:39 | 47.92521 | 10.82899 | 147° | 119km/h | 8761m | -3.6m/s | -30.7°C | 57.9% | 338.6hPa | 2.6V | 00:00:00 | 03:00:05 | 00:00:00 | |
| DO3MHA-11 | 2026-09-03 13:29:37 | 47.92574 | 10.82848 | 147° | 117km/h | 8769m | -3.8m/s | -30.8°C | 58.8% | 338.2hPa | 2.6V | 00:00:00 | 03:00:03 | 00:00:00 | |
| DO3MHA-12 | 2026-09-03 13:29:29 | 47.92775 | 10.82660 | 148° | 115km/h | 8798m | -3.7m/s | -31.2°C | 61.6% | 336.8hPa | 2.5V | 00:00:00 | 02:59:55 | 00:00:00 | |
| DO3MHA-11 | 2026-09-03 13:29:27 | 47.92825 | 10.82614 | 148° | 113km/h | 8805m | -3.4m/s | -31.2°C | 62.2% | 336.5hPa | 2.5V | 00:00:00 | 02:59:53 | 00:00:00 | |
| DM7RM-13 | 2026-09-03 13:29:25 | 47.92850 | 10.82590 | 149° | 117km/h | 8808m | -3.6m/s | -31.3°C | 58.3% | 336.4hPa | 2.5V | 07:34:00 | 00:00:00 | 00:00:00 | |
| OE3JTB-15 | 2026-09-03 13:29:20 | 47.92998 | 10.82454 | 148° | 111km/h | 8829m | -3.3m/s | -31.4°C | 63.1% | 335.3hPa | 2.5V | 00:00:00 | 00:00:00 | 00:00:00 | |
| DO3MHA-12 | 2026-09-03 13:29:19 | 47.93021 | 10.82432 | 148° | 111km/h | 8833m | -3.6m/s | -31.4°C | 63.3% | 335.2hPa | 2.5V | 00:00:00 | 02:59:45 | 00:00:00 | |
| DB0ND-19 | 2026-09-03 13:29:18 | 47.93068 | 10.82387 | 146° | 110km/h | 8840m | -3.3m/s | -31.5°C | 58.1% | 334.9hPa | 2.5V | 00:00:00 | 00:00:00 | 00:00:00 | |
| DO3MHA-11 | 2026-09-03 13:29:17 | 47.93068 | 10.82386 | 147° | 113km/h | 8840m | -3.3m/s | -31.5°C | 62.5% | 334.8hPa | 2.5V | 00:00:00 | 02:59:43 | 00:00:00 | |
| DB0UT-7 | 2026-09-03 13:29:16 | 47.93091 | 10.82363 | 146° | 119km/h | 8843m | -3.2m/s | -31.6°C | 60.6% | 334.6hPa | 2.5V | 00:00:00 | 02:59:42 | 00:00:00 | |
| DG1MJG | 2026-09-03 13:29:15 | 47.93091 | 10.82363 | 146° | 111km/h | 8843m | -3.3m/s | -31.6°C | 56.3% | 334.7hPa | 2.5V | 07:34:00 | 00:00:00 | 00:00:00 | |
| OE5DXL-15 | 2026-09-03 13:29:14 | 47.93136 | 10.82313 | 142° | 119km/h | 8850m | -3.1m/s | -31.7°C | 59.8% | 334.3hPa | 2.5V | 07:34:00 | 00:00:00 | 00:00:00 | |
| DO3MHA-12 | 2026-09-03 13:29:09 | 47.93248 | 10.82175 | 141° | 117km/h | 8865m | -3.0m/s | -31.7°C | 59.0% | 333.6hPa | 2.6V | 00:00:00 | 02:59:35 | 00:00:00 | |
| DO3MHA-11 | 2026-09-03 13:29:07 | 47.93292 | 10.82119 | 140° | 119km/h | 8871m | -3.0m/s | -31.7°C | 58.8% | 333.3hPa | 2.6V | 00:00:00 | 02:59:33 | 00:00:00 | |
| DM7RM-13 | 2026-09-03 13:29:05 | 47.93315 | 10.82091 | 141° | 119km/h | 8875m | -3.1m/s | -31.8°C | 54.8% | 333.2hPa | 2.5V | 07:34:00 | 00:00:00 | 00:00:00 | |
| DL6DJ-15 | 2026-09-03 13:28:47 | 47.93789 | 10.81524 | 141° | 120km/h | 8938m | -3.3m/s | -32.5°C | 58.0% | 330.2hPa | 2.5V | 00:00:00 | 00:00:00 | 00:00:00 | |
| DB0NH | 2026-09-03 13:28:46 | 47.93789 | 10.81524 | 142° | 120km/h | 8938m | -3.2m/s | -32.5°C | 62.4% | 330.1hPa | 2.5V | 00:00:00 | 02:59:12 | 00:00:00 | |
| OE5DXL-15 | 2026-09-03 13:28:45 | 47.93813 | 10.81496 | 143° | 111km/h | 8942m | -3.2m/s | -32.5°C | 62.1% | 330.0hPa | 2.5V | 00:00:00 | 00:00:00 | 00:00:00 | |
| DM7RM-13 | 2026-09-03 13:28:44 | 47.93813 | 10.81495 | 143° | 122km/h | 8942m | -3.3m/s | -32.5°C | 57.7% | 330.0hPa | 2.5V | 00:00:00 | 00:00:00 | 00:00:00 | |
| NBG1-10 | 2026-09-03 13:28:43 | 47.93862 | 10.81439 | 142° | 119km/h | 8948m | -3.4m/s | -32.6°C | 62.4% | 329.7hPa | 2.5V | 07:34:00 | 02:59:09 | 00:00:00 | |
| OE5DRO-10 | 2026-09-03 13:28:42 | 47.93886 | 10.81410 | 141° | 122km/h | 8951m | -3.1m/s | -32.6°C | 62.1% | 329.5hPa | 2.5V | 00:00:00 | 00:00:00 | 00:00:00 | |
| DO3MHA-12 | 2026-09-03 13:28:39 | 47.93958 | 10.81326 | 144° | 124km/h | 8961m | -3.3m/s | -32.7°C | 62.4% | 329.1hPa | 2.5V | 00:00:00 | 02:59:05 | 00:00:00 | |
| DO3MHA-11 | 2026-09-03 13:28:37 | 47.94008 | 10.81272 | 146° | 124km/h | 8968m | -3.2m/s | -32.7°C | 62.6% | 328.8hPa | 2.5V | 00:00:00 | 02:59:03 | 00:00:00 | |
| DO3MHA-12 | 2026-09-03 13:28:29 | 47.94215 | 10.81062 | 147° | 119km/h | 8994m | -3.2m/s | -32.9°C | 62.9% | 327.6hPa | 2.6V | 00:00:00 | 02:58:55 | 00:00:00 | |
| DO3MHA-11 | 2026-09-03 13:28:27 | 47.94266 | 10.81010 | 147° | 119km/h | 9000m | -3.2m/s | -33.0°C | 63.0% | 327.2hPa | 2.6V | 00:00:00 | 02:58:53 | 00:00:00 | |
| OE5DRO-10 | 2026-09-03 13:28:23 | 47.94368 | 10.80915 | 149° | 113km/h | 9013m | -2.9m/s | -33.1°C | 63.0% | 326.6hPa | 2.6V | 00:00:00 | 00:00:00 | 00:00:00 | |
| DM7RM-13 | 2026-09-03 13:28:21 | 47.94393 | 10.80892 | 150° | 115km/h | 9016m | -3.2m/s | -33.2°C | 58.3% | 326.6hPa | 2.6V | 00:00:00 | 00:00:00 | 00:00:00 | |
| DO3MHA-12 | 2026-09-03 13:28:19 | 47.94468 | 10.80823 | 149° | 113km/h | 9025m | -3.2m/s | -33.2°C | 62.0% | 326.1hPa | 2.6V | 00:00:00 | 02:58:45 | 00:00:00 | |
| DO3MHA-11 | 2026-09-03 13:28:17 | 47.94519 | 10.80776 | 149° | 111km/h | 9032m | -3.1m/s | -33.3°C | 61.9% | 325.8hPa | 2.5V | 00:00:00 | 02:58:43 | 00:00:00 | |
| DB0ND-19 | 2026-09-03 13:28:16 | 47.94567 | 10.80732 | 148° | 110km/h | 9038m | -3.1m/s | -33.3°C | 57.0% | 325.5hPa | 2.5V | 00:00:00 | 00:00:00 | 00:00:00 | |
| DL9SK-14 | 2026-09-03 13:28:15 | 47.94591 | 10.80710 | 148° | 111km/h | 9041m | -3.3m/s | -33.4°C | 56.8% | 325.4hPa | 2.5V | 00:00:00 | 00:00:00 | 00:00:00 | |
| DG1MJG | 2026-09-03 13:28:13 | 47.94592 | 10.80710 | 150° | 111km/h | 9041m | -3.3m/s | -33.4°C | 56.8% | 325.4hPa | 2.5V | 07:35:00 | 00:00:00 | 00:00:00 | |
| DO3MHA-12 | 2026-09-03 13:28:09 | 47.94713 | 10.80599 | 148° | 108km/h | 9057m | -3.1m/s | -33.5°C | 61.3% | 324.6hPa | 2.5V | 00:00:00 | 02:58:35 | 00:00:00 | |
| DO3MHA-11 | 2026-09-03 13:28:07 | 47.94759 | 10.80554 | 147° | 106km/h | 9064m | -3.1m/s | -33.5°C | 61.5% | 324.3hPa | 2.5V | 00:00:00 | 02:58:33 | 00:00:00 | |
| DF7PN | 2026-09-03 13:27:58 | 47.95216 | 10.80043 | 139° | 108km/h | 9135m | -3.7m/s | -34.2°C | 56.2% | 321.0hPa | 2.5V | 00:00:00 | 00:00:00 | 00:00:00 | |
| DL6DJ-15 | 2026-09-03 13:27:44 | 47.95258 | 10.79989 | 139° | 110km/h | 9143m | -3.8m/s | -34.2°C | 55.2% | 320.7hPa | 2.5V | 00:00:00 | 00:00:00 | 00:00:00 | |
| DG1MJG | 2026-09-03 13:27:43 | 47.95258 | 10.79990 | 140° | 110km/h | 9143m | -3.8m/s | -34.2°C | 55.2% | 320.7hPa | 2.5V | 07:36:00 | 00:00:00 | 00:00:00 | |
| DO3MHA-12 | 2026-09-03 13:27:39 | 47.95363 | 10.79861 | 144° | 104km/h | 9162m | -4.1m/s | -34.2°C | 59.2% | 319.8hPa | 2.5V | 07:35:00 | 02:58:05 | 00:00:00 | |
| DM7RM-13 | 2026-09-03 13:27:38 | 47.95363 | 10.79861 | 144° | 104km/h | 9162m | -4.1m/s | -34.3°C | 54.7% | 319.8hPa | 2.5V | 00:00:00 | 00:00:00 | 00:00:00 | |
| NBG1-10 | 2026-09-03 13:27:37 | 47.95406 | 10.79815 | 146° | 110km/h | 9170m | -3.9m/s | -34.3°C | 58.7% | 319.4hPa | 2.5V | 00:00:00 | 02:58:03 | 00:00:00 | |
| DG1MFX-10 | 2026-09-03 13:27:35 | 47.95428 | 10.79792 | 146° | 104km/h | 9174m | -4.3m/s | -34.4°C | 54.0% | 319.3hPa | 2.5V | 07:36:00 | 00:00:00 | 00:00:00 | |
| OE5DXL-15 | 2026-09-03 13:27:30 | 47.95556 | 10.79655 | 145° | 111km/h | 9197m | -3.6m/s | -34.4°C | 57.5% | 318.2hPa | 2.5V | 00:00:00 | 00:00:00 | 00:00:00 | |
| DO3MHA-12 | 2026-09-03 13:27:29 | 47.95578 | 10.79632 | 146° | 106km/h | 9201m | -3.3m/s | -34.5°C | 57.4% | 318.0hPa | 2.5V | 00:00:00 | 02:57:55 | 00:00:00 | |
| DO3MHA-11 | 2026-09-03 13:27:27 | 47.95622 | 10.79589 | 147° | 110km/h | 9207m | -3.6m/s | -34.6°C | 57.6% | 317.7hPa | 2.5V | 07:36:00 | 02:57:53 | 00:00:00 | |
| OE5DRO-10 | 2026-09-03 13:27:26 | 47.95644 | 10.79568 | 148° | 113km/h | 9211m | -3.4m/s | -34.6°C | 57.7% | 317.5hPa | 2.5V | 00:00:00 | 00:00:00 | 00:00:00 | |
| DH7VM-15 | 2026-09-03 13:27:23 | 47.95687 | 10.79526 | 149° | 102km/h | 9218m | -3.3m/s | -34.7°C | 53.6% | 317.2hPa | 2.5V | 00:00:00 | 00:00:00 | 00:00:00 | |
| DO3MHA-12 | 2026-09-03 13:27:19 | 47.95806 | 10.79417 | 147° | 119km/h | 9235m | -3.3m/s | -34.8°C | 61.3% | 316.5hPa | 2.5V | 00:00:00 | 02:57:45 | 00:00:00 | |
| DO3MHA-11 | 2026-09-03 13:27:17 | 47.95856 | 10.79364 | 143° | 115km/h | 9241m | -3.2m/s | -34.9°C | 61.2% | 316.2hPa | 2.5V | 00:00:00 | 02:57:43 | 00:00:00 | |
| DB0UT-7 | 2026-09-03 13:27:16 | 47.95881 | 10.79336 | 141° | 111km/h | 9245m | -3.8m/s | -35.0°C | 61.2% | 316.0hPa | 2.5V | 00:00:00 | 02:57:42 | 00:00:00 | |
| DG1MFX-10 | 2026-09-03 13:27:15 | 47.95881 | 10.79336 | 142° | 122km/h | 9245m | -3.8m/s | -35.0°C | 56.5% | 316.0hPa | 2.5V | 07:36:00 | 00:00:00 | 00:00:00 | |
| DL6DJ-15 | 2026-09-03 13:27:13 | 47.95950 | 10.79246 | 136° | 117km/h | 9256m | -3.8m/s | -35.1°C | 57.2% | 315.6hPa | 2.5V | 00:00:00 | 00:00:00 | 00:00:00 | |
| DG1MJG | 2026-09-03 13:27:12 | 47.95950 | 10.79245 | 138° | 119km/h | 9256m | -3.8m/s | -35.1°C | 57.3% | 315.5hPa | 2.5V | 07:36:00 | 00:00:00 | 00:00:00 | |
| DO3MHA-12 | 2026-09-03 13:27:09 | 47.96031 | 10.79129 | 137° | 108km/h | 9270m | -3.3m/s | -35.2°C | 61.4% | 314.8hPa | 2.5V | 00:00:00 | 02:57:35 | 00:00:00 | |
| DO3MHA-11 | 2026-09-03 13:27:07 | 47.96070 | 10.79078 | 141° | 111km/h | 9277m | -3.4m/s | -35.2°C | 62.0% | 314.5hPa | 2.5V | 00:00:00 | 02:57:33 | 00:00:00 | |
| NBG1-10 | 2026-09-03 13:27:04 | 47.96132 | 10.79011 | 148° | 113km/h | 9287m | -3.4m/s | -35.2°C | 64.0% | 314.1hPa | 2.6V | 00:00:00 | 02:57:30 | 00:00:00 | |
| DF7PN | 2026-09-03 13:26:56 | 47.96322 | 10.78796 | 135° | 117km/h | 9315m | -3.7m/s | -35.5°C | 58.8% | 312.9hPa | 2.6V | 00:00:00 | 00:00:00 | 00:00:00 | |
| DG1MFX-10 | 2026-09-03 13:26:55 | 47.96322 | 10.78796 | 136° | 117km/h | 9315m | -3.7m/s | -35.5°C | 58.8% | 312.9hPa | 2.6V | 07:37:00 | 00:00:00 | 00:00:00 | |
| DO3MHA-12 | 2026-09-03 13:26:49 | 47.96458 | 10.78604 | 144° | 117km/h | 9340m | -3.4m/s | -35.7°C | 64.4% | 311.7hPa | 2.6V | 00:00:00 | 02:57:15 | 00:00:00 | |
| OE5DRO-10 | 2026-09-03 13:26:48 | 47.96479 | 10.78582 | 146° | 111km/h | 9343m | -3.1m/s | -35.7°C | 64.7% | 311.6hPa | 2.6V | 07:36:00 | 00:00:00 | 00:00:00 | |
| DO3MHA-11 | 2026-09-03 13:26:47 | 47.96502 | 10.78558 | 147° | 119km/h | 9347m | -3.3m/s | -35.7°C | 65.5% | 311.4hPa | 2.5V | 00:00:00 | 02:57:13 | 00:00:00 | |
| DB0NH | 2026-09-03 13:26:46 | 47.96525 | 10.78534 | 146° | 117km/h | 9350m | -3.5m/s | -35.8°C | 66.1% | 311.3hPa | 2.5V | 00:00:00 | 02:57:12 | 00:00:00 | |
| DL6DJ-15 | 2026-09-03 13:26:42 | 47.96623 | 10.78423 | 138° | 124km/h | 9364m | -3.4m/s | -35.9°C | 61.0% | 310.7hPa | 2.5V | 00:00:00 | 00:00:00 | 00:00:00 | |
| DG1MJG | 2026-09-03 13:26:41 | 47.96623 | 10.78423 | 140° | 124km/h | 9364m | -3.4m/s | -35.9°C | 61.0% | 310.7hPa | 2.5V | 07:37:00 | 00:00:00 | 00:00:00 | |
| DM7RM-13 | 2026-09-03 13:26:40 | 47.96646 | 10.78392 | 138° | 122km/h | 9367m | -3.5m/s | -36.0°C | 60.8% | 310.5hPa | 2.5V | 00:00:00 | 00:00:00 | 00:00:00 | |
| DO3MHA-12 | 2026-09-03 13:26:39 | 47.96690 | 10.78328 | 134° | 106km/h | 9374m | -3.7m/s | -36.0°C | 65.9% | 310.2hPa | 2.5V | 00:00:00 | 02:57:05 | 00:00:00 | |
| DO3MHA-11 | 2026-09-03 13:26:37 | 47.96730 | 10.78264 | 133° | 104km/h | 9382m | -3.7m/s | -36.0°C | 65.4% | 309.9hPa | 2.5V | 00:00:00 | 02:57:03 | 00:00:00 | |
| DG1MFX-10 | 2026-09-03 13:26:35 | 47.96749 | 10.78234 | 134° | 110km/h | 9386m | -3.9m/s | -36.1°C | 60.1% | 309.7hPa | 2.5V | 07:37:00 | 00:00:00 | 00:00:00 | |
| NBG1-10 | 2026-09-03 13:26:31 | 47.96840 | 10.78097 | 140° | 111km/h | 9406m | -3.8m/s | -36.1°C | 63.2% | 308.7hPa | 2.5V | 00:00:00 | 02:56:57 | 00:00:00 | |
| DO3MHA-12 | 2026-09-03 13:26:29 | 47.96880 | 10.78050 | 144° | 117km/h | 9413m | -3.4m/s | -36.1°C | 63.8% | 308.4hPa | 2.5V | 00:00:00 | 02:56:55 | 00:00:00 | |
| DO3MHA-11 | 2026-09-03 13:26:27 | 47.96924 | 10.78003 | 145° | 119km/h | 9420m | -3.4m/s | -36.2°C | 65.2% | 308.1hPa | 2.5V | 00:00:00 | 02:56:53 | 00:00:00 | |
| DF7PN | 2026-09-03 13:26:25 | 47.96972 | 10.77950 | 141° | 120km/h | 9427m | -3.4m/s | -36.3°C | 60.0% | 307.9hPa | 2.5V | 00:00:00 | 00:00:00 | 00:00:00 | |
| DO3MHA-12 | 2026-09-03 13:26:19 | 47.97104 | 10.77760 | 132° | 106km/h | 9448m | -3.4m/s | -36.4°C | 62.1% | 306.8hPa | 2.5V | 07:37:00 | 02:56:45 | 00:00:00 | |
| DO3MHA-11 | 2026-09-03 13:26:17 | 47.97140 | 10.77699 | 132° | 110km/h | 9456m | -3.8m/s | -36.4°C | 62.3% | 306.5hPa | 2.5V | 00:00:00 | 02:56:43 | 00:00:00 | |
| DB0NH | 2026-09-03 13:26:16 | 47.97158 | 10.77671 | 134° | 111km/h | 9459m | -3.6m/s | -36.4°C | 62.5% | 306.4hPa | 2.5V | 00:00:00 | 02:56:42 | 00:00:00 | |
| DG1MFX-10 | 2026-09-03 13:26:14 | 47.97175 | 10.77644 | 137° | 99km/h | 9463m | -3.5m/s | -36.5°C | 57.8% | 306.2hPa | 2.5V | 00:00:00 | 00:00:00 | 00:00:00 | |
| DM7RM-13 | 2026-09-03 13:26:13 | 47.97194 | 10.77619 | 140° | 99km/h | 9466m | -3.5m/s | -36.6°C | 58.4% | 306.1hPa | 2.5V | 00:00:00 | 00:00:00 | 00:00:00 | |
| DL9SK-14 | 2026-09-03 13:26:11 | 47.97279 | 10.77521 | 142° | 115km/h | 9479m | -3.4m/s | -36.7°C | 59.4% | 305.6hPa | 2.5V | 00:00:00 | 00:00:00 | 00:00:00 | |
| OE5DRO-10 | 2026-09-03 13:26:10 | 47.97279 | 10.77521 | 143° | 113km/h | 9480m | -3.3m/s | -36.6°C | 64.7% | 305.5hPa | 2.5V | 00:00:00 | 00:00:00 | 00:00:00 | |
| DO3MHA-12 | 2026-09-03 13:26:09 | 47.97303 | 10.77493 | 141° | 115km/h | 9483m | -3.2m/s | -36.7°C | 64.5% | 305.4hPa | 2.5V | 00:00:00 | 02:56:35 | 00:00:00 | |
| DO3MHA-11 | 2026-09-03 13:26:07 | 47.97349 | 10.77433 | 137° | 110km/h | 9490m | -3.5m/s | -36.8°C | 64.3% | 305.0hPa | 2.5V | 07:37:00 | 02:56:33 | 00:00:00 | |
| DF7PN | 2026-09-03 13:25:54 | 47.97607 | 10.77061 | 141° | 117km/h | 9536m | -3.7m/s | -37.2°C | 60.5% | 303.0hPa | 2.5V | 00:00:00 | 00:00:00 | 00:00:00 | |
| DF1GD-15 | 2026-09-03 13:25:53 | 47.97607 | 10.77060 | 143° | 117km/h | 9536m | -3.7m/s | -37.2°C | 0% | 0hPa | 2.5V | 00:00:00 | 00:00:00 | 00:00:00 | |
| OE5DRO-10 | 2026-09-03 13:25:51 | 47.97677 | 10.76970 | 136° | 113km/h | 9547m | -3.8m/s | -37.3°C | 65.6% | 302.5hPa | 2.5V | 00:00:00 | 00:00:00 | 00:00:00 | |
| DO3MHA-12 | 2026-09-03 13:25:49 | 47.97719 | 10.76904 | 132° | 106km/h | 9555m | -3.6m/s | -37.3°C | 65.6% | 302.2hPa | 2.5V | 00:00:00 | 02:56:15 | 00:00:00 | |
| DO3MHA-11 | 2026-09-03 13:25:47 | 47.97758 | 10.76838 | 131° | 106km/h | 9562m | -3.6m/s | -37.4°C | 66.0% | 301.9hPa | 2.5V | 00:00:00 | 02:56:13 | 00:00:00 | |
| OE3JTB-15 | 2026-09-03 13:25:46 | 47.97775 | 10.76806 | 131° | 111km/h | 9566m | -3.6m/s | -37.5°C | 66.4% | 301.7hPa | 2.5V | 00:00:00 | 02:56:12 | 00:00:00 | |
| DG1MFX-10 | 2026-09-03 13:25:45 | 47.97775 | 10.76806 | 131° | 108km/h | 9566m | -3.6m/s | -37.5°C | 61.0% | 301.7hPa | 2.5V | 00:00:00 | 00:00:00 | 00:00:00 | |
| DL9SK-14 | 2026-09-03 13:25:40 | 47.97909 | 10.76623 | 142° | 110km/h | 9592m | -3.9m/s | -37.7°C | 60.6% | 300.6hPa | 2.5V | 00:00:00 | 00:00:00 | 00:00:00 | |
| DO3MHA-12 | 2026-09-03 13:25:39 | 47.97909 | 10.76623 | 143° | 119km/h | 9592m | -3.9m/s | -37.7°C | 66.0% | 300.5hPa | 2.5V | 00:00:00 | 02:56:05 | 00:00:00 | |
| DK5PH-5 | 2026-09-03 13:25:37 | 47.97956 | 10.76569 | 142° | 115km/h | 9600m | -3.7m/s | -37.7°C | 64.9% | 300.2hPa | 2.5V | 00:00:00 | 02:56:03 | 00:00:00 | |
| OE5DRO-10 | 2026-09-03 13:25:32 | 47.98068 | 10.76408 | 132° | 115km/h | 9618m | -3.5m/s | -37.9°C | 64.6% | 299.4hPa | 2.5V | 00:00:00 | 00:00:00 | 00:00:00 | |
| DM7RM-13 | 2026-09-03 13:25:31 | 47.98068 | 10.76408 | 132° | 120km/h | 9618m | -3.6m/s | -37.9°C | 59.3% | 299.4hPa | 2.5V | 00:00:00 | 00:00:00 | 00:00:00 | |
| DO3MHA-12 | 2026-09-03 13:25:29 | 47.98123 | 10.76311 | 131° | 111km/h | 9629m | -3.4m/s | -37.9°C | 65.9% | 298.9hPa | 2.5V | 00:00:00 | 02:55:55 | 00:00:00 | |
| NBG1-10 | 2026-09-03 13:25:25 | 47.98197 | 10.76203 | 141° | 117km/h | 9643m | -3.4m/s | -38.1°C | 66.7% | 298.3hPa | 2.5V | 00:00:00 | 02:55:51 | 00:00:00 | |
| DG1MFX-10 | 2026-09-03 13:25:24 | 47.98197 | 10.76203 | 141° | 104km/h | 9643m | -3.4m/s | -38.1°C | 61.1% | 298.4hPa | 2.5V | 00:00:00 | 00:00:00 | 00:00:00 | |
| DF7PN | 2026-09-03 13:25:23 | 47.98240 | 10.76152 | 142° | 113km/h | 9650m | -3.4m/s | -38.2°C | 60.6% | 298.1hPa | 2.5V | 00:00:00 | 00:00:00 | 00:00:00 | |
| OE5DXL-15 | 2026-09-03 13:25:21 | 47.98287 | 10.76096 | 141° | 119km/h | 9657m | -3.4m/s | -38.2°C | 65.4% | 297.7hPa | 2.5V | 00:00:00 | 00:00:00 | 00:00:00 | |
| DO3MHA-12 | 2026-09-03 13:25:19 | 47.98335 | 10.76034 | 138° | 115km/h | 9664m | -3.6m/s | -38.2°C | 65.0% | 297.4hPa | 2.5V | 00:00:00 | 02:55:45 | 00:00:00 | |
| DO3MHA-11 | 2026-09-03 13:25:17 | 47.98382 | 10.75967 | 135° | 111km/h | 9671m | -3.5m/s | -38.3°C | 65.0% | 297.1hPa | 2.5V | 00:00:00 | 02:55:43 | 00:00:00 | |
| DB0UT-7 | 2026-09-03 13:25:16 | 47.98403 | 10.75933 | 133° | 117km/h | 9675m | -3.6m/s | -38.2°C | 65.0% | 296.9hPa | 2.5V | 00:00:00 | 02:55:42 | 00:00:00 | |
| OE5DRO-10 | 2026-09-03 13:25:13 | 47.98462 | 10.75835 | 132° | 117km/h | 9686m | -3.4m/s | -38.4°C | 66.9% | 296.4hPa | 2.5V | 00:00:00 | 00:00:00 | 00:00:00 | |
| DG1MJG | 2026-09-03 13:25:10 | 47.98499 | 10.75778 | 137° | 104km/h | 9692m | -3.6m/s | -38.5°C | 61.4% | 296.2hPa | 2.5V | 07:38:00 | 00:00:00 | 00:00:00 | |
| DL9SK-14 | 2026-09-03 13:25:09 | 47.98560 | 10.75701 | 142° | 110km/h | 9703m | -3.8m/s | -38.5°C | 60.9% | 295.7hPa | 2.5V | 00:00:00 | 00:00:00 | 00:00:00 | |
| DK5PH-5 | 2026-09-03 13:25:07 | 47.98582 | 10.75675 | 143° | 120km/h | 9707m | -3.8m/s | -38.5°C | 66.6% | 295.5hPa | 2.5V | 00:00:00 | 02:55:33 | 00:00:00 | |
| DF1GD-15 | 2026-09-03 13:25:05 | 47.98606 | 10.75649 | 144° | 119km/h | 9711m | -3.8m/s | 0°C | 0% | 0hPa | 2.5V | 07:38:00 | 00:00:00 | 00:00:00 | |
| DG1MFX-10 | 2026-09-03 13:25:03 | 47.98655 | 10.75591 | 141° | 128km/h | 9719m | -3.7m/s | -38.6°C | 60.0% | 295.1hPa | 2.5V | 00:00:00 | 00:00:00 | 00:00:00 | |
| DO3MHA-12 | 2026-09-03 13:24:59 | 47.98771 | 10.75422 | 132° | 111km/h | 9737m | -3.3m/s | -38.8°C | 65.6% | 294.3hPa | 2.5V | 07:38:00 | 02:55:25 | 00:00:00 | |
| DO3MHA-11 | 2026-09-03 13:24:57 | 47.98811 | 10.75354 | 131° | 111km/h | 9743m | -3.3m/s | -38.8°C | 65.7% | 294.0hPa | 2.5V | 00:00:00 | 02:55:23 | 00:00:00 | |
| OE5DRO-10 | 2026-09-03 13:24:54 | 47.98867 | 10.75262 | 135° | 119km/h | 9753m | -3.5m/s | -38.9°C | 67.0% | 293.5hPa | 2.5V | 00:00:00 | 00:00:00 | 00:00:00 | |
| NBG1-10 | 2026-09-03 13:24:52 | 47.98906 | 10.75208 | 140° | 120km/h | 9761m | -3.4m/s | -38.9°C | 67.8% | 293.2hPa | 2.6V | 00:00:00 | 02:55:18 | 00:00:00 | |
| OE5DXL-15 | 2026-09-03 13:24:51 | 47.98928 | 10.75182 | 142° | 124km/h | 9764m | -3.6m/s | -38.9°C | 67.6% | 293.1hPa | 2.6V | 00:00:00 | 00:00:00 | 00:00:00 | |
| DO3MHA-12 | 2026-09-03 13:24:49 | 47.98974 | 10.75129 | 143° | 128km/h | 9771m | -3.6m/s | -39.0°C | 67.4% | 292.7hPa | 2.6V | 00:00:00 | 02:55:15 | 00:00:00 | |
| DB0UT-7 | 2026-09-03 13:24:46 | 47.99049 | 10.75041 | 141° | 120km/h | 9782m | -3.8m/s | -39.1°C | 66.6% | 292.3hPa | 2.5V | 00:00:00 | 00:00:00 | 00:00:00 | |
| DG1MFX-10 | 2026-09-03 13:24:43 | 47.99098 | 10.74975 | 138° | 131km/h | 9790m | -3.8m/s | -39.2°C | 60.2% | 292.0hPa | 2.6V | 00:00:00 | 00:00:00 | 00:00:00 | |
| DF1GD-15 | 2026-09-03 13:24:42 | 47.99122 | 10.74940 | 136° | 131km/h | 9794m | -3.9m/s | 0°C | 0% | 0hPa | 2.6V | 07:38:00 | 00:00:00 | 00:00:00 | |
| DO3MHA-12 | 2026-09-03 13:24:39 | 47.99208 | 10.74801 | 131° | 117km/h | 9808m | -3.5m/s | -39.4°C | 65.9% | 291.2hPa | 2.6V | 00:00:00 | 02:55:05 | 00:00:00 | |
| DL6DJ-15 | 2026-09-03 13:24:38 | 47.99227 | 10.74769 | 131° | 111km/h | 9812m | -3.8m/s | -39.4°C | 60.3% | 291.1hPa | 2.6V | 00:00:00 | 00:00:00 | 00:00:00 | |
| DO3MHA-11 | 2026-09-03 13:24:37 | 47.99246 | 10.74738 | 134° | 120km/h | 9816m | -3.5m/s | -39.4°C | 66.3% | 290.9hPa | 2.6V | 00:00:00 | 02:55:03 | 00:00:00 | |
| OE5DRO-10 | 2026-09-03 13:24:35 | 47.99285 | 10.74682 | 139° | 120km/h | 9823m | -3.3m/s | -39.4°C | 66.5% | 290.6hPa | 2.5V | 00:00:00 | 00:00:00 | 00:00:00 | |
| DO3MHA-12 | 2026-09-03 13:24:29 | 47.99428 | 10.74510 | 139° | 124km/h | 9844m | -3.7m/s | -39.6°C | 64.9% | 289.7hPa | 2.5V | 00:00:00 | 02:54:55 | 00:00:00 | |
| DO3MHA-11 | 2026-09-03 13:24:27 | 47.99477 | 10.74442 | 136° | 119km/h | 9851m | -3.7m/s | -39.6°C | 64.1% | 289.4hPa | 2.5V | 00:00:00 | 02:54:53 | 00:00:00 | |
| DM7RM-13 | 2026-09-03 13:24:25 | 47.99501 | 10.74406 | 135° | 131km/h | 9855m | -3.7m/s | -39.7°C | 58.5% | 289.3hPa | 2.5V | 07:39:00 | 00:00:00 | 00:00:00 | |
| DG1MFX-10 | 2026-09-03 13:24:22 | 47.99565 | 10.74300 | 132° | 119km/h | 9865m | -3.3m/s | -39.9°C | 59.0% | 288.8hPa | 2.5V | 07:39:00 | 00:00:00 | 00:00:00 | |
| DF7PN | 2026-09-03 13:24:21 | 47.99623 | 10.74205 | 135° | 108km/h | 9876m | -3.6m/s | -39.9°C | 59.8% | 288.3hPa | 2.5V | 00:00:00 | 00:00:00 | 00:00:00 | |
| DO3MHA-12 | 2026-09-03 13:24:19 | 47.99643 | 10.74177 | 138° | 122km/h | 9879m | -3.5m/s | -39.9°C | 65.7% | 288.2hPa | 2.5V | 00:00:00 | 02:54:45 | 00:00:00 | |
| DO3MHA-11 | 2026-09-03 13:24:17 | 47.99685 | 10.74122 | 141° | 128km/h | 9887m | -3.3m/s | -39.9°C | 64.8% | 287.9hPa | 2.6V | 00:00:00 | 02:54:43 | 00:00:00 | |
| DB0UT-7 | 2026-09-03 13:24:16 | 47.99708 | 10.74095 | 142° | 124km/h | 9890m | -3.5m/s | -40.0°C | 65.5% | 287.7hPa | 2.6V | 07:39:00 | 02:54:42 | 00:00:00 | |
| DO3MHA-12 | 2026-09-03 13:24:09 | 47.99880 | 10.73872 | 134° | 119km/h | 9913m | -3.1m/s | -40.3°C | 65.7% | 286.7hPa | 2.6V | 00:00:00 | 02:54:35 | 00:00:00 | |
| DG1MJG | 2026-09-03 13:24:08 | 47.99880 | 10.73872 | 134° | 133km/h | 9913m | -3.2m/s | -40.3°C | 59.8% | 286.8hPa | 2.6V | 07:39:00 | 00:00:00 | 00:00:00 | |
| DO3MHA-11 | 2026-09-03 13:24:07 | 47.99924 | 10.73799 | 131° | 117km/h | 9919m | -3.1m/s | -40.3°C | 66.4% | 286.5hPa | 2.6V | 00:00:00 | 02:54:33 | 00:00:00 | |
| OE3JTB-15 | 2026-09-03 13:24:06 | 47.99945 | 10.73763 | 131° | 120km/h | 9922m | -3.0m/s | -40.3°C | 66.3% | 286.3hPa | 2.5V | 00:00:00 | 00:00:00 | 00:00:00 | |
| DM7RM-13 | 2026-09-03 13:24:03 | 47.99984 | 10.73698 | 135° | 113km/h | 9929m | -3.4m/s | -40.4°C | 60.9% | 286.2hPa | 2.5V | 07:39:00 | 00:00:00 | 00:00:00 | |
| DG1MFX-10 | 2026-09-03 13:24:01 | 48.00025 | 10.73640 | 140° | 111km/h | 9936m | -3.4m/s | -40.5°C | 60.7% | 285.9hPa | 2.5V | 07:39:00 | 00:00:00 | 00:00:00 | |
| DF7PN | 2026-09-03 13:23:50 | 48.00339 | 10.73236 | 132° | 120km/h | 9980m | -3.2m/s | -41.0°C | 63.5% | 284.0hPa | 2.5V | 00:00:00 | 00:00:00 | 00:00:00 | |
| DO3MHA-12 | 2026-09-03 13:23:49 | 48.00339 | 10.73236 | 133° | 117km/h | 9980m | -3.1m/s | -41.0°C | 69.7% | 284.0hPa | 2.5V | 00:00:00 | 02:54:15 | 00:00:00 | |
| DB0UT-7 | 2026-09-03 13:23:46 | 48.00400 | 10.73142 | 137° | 126km/h | 9991m | -3.9m/s | -40.9°C | 69.9% | 283.5hPa | 2.5V | 00:00:00 | 00:00:00 | 00:00:00 | |
| DM7RM-13 | 2026-09-03 13:23:42 | 48.00465 | 10.73060 | 144° | 115km/h | 10001m | -3.3m/s | -41.1°C | 63.7% | 283.1hPa | 2.5V | 07:40:00 | 00:00:00 | 00:00:00 | |
| DG1MFX-10 | 2026-09-03 13:23:41 | 48.00489 | 10.73033 | 145° | 119km/h | 10005m | -3.7m/s | -41.1°C | 63.8% | 283.0hPa | 2.5V | 00:00:00 | 00:00:00 | 00:00:00 | |
| DH7VM-15 | 2026-09-03 13:23:40 | 48.00513 | 10.73006 | 145° | 122km/h | 10009m | -3.7m/s | -41.1°C | 63.8% | 282.8hPa | 2.5V | 00:00:00 | 00:00:00 | 00:00:00 | |
| DO3MHA-12 | 2026-09-03 13:23:39 | 48.00565 | 10.72951 | 144° | 131km/h | 10016m | -3.6m/s | -41.1°C | 69.8% | 282.4hPa | 2.5V | 07:39:00 | 02:54:05 | 00:00:00 | |
| DG1MJG | 2026-09-03 13:23:38 | 48.00564 | 10.72951 | 145° | 128km/h | 10016m | -3.6m/s | -41.2°C | 63.6% | 282.5hPa | 2.5V | 07:40:00 | 00:00:00 | 00:00:00 | |
| DO3MHA-11 | 2026-09-03 13:23:37 | 48.00618 | 10.72891 | 142° | 130km/h | 10023m | -3.2m/s | -41.2°C | 68.9% | 282.2hPa | 2.5V | 00:00:00 | 02:54:03 | 00:00:00 | |
| DL6DJ-15 | 2026-09-03 13:23:36 | 48.00644 | 10.72858 | 139° | 135km/h | 10026m | -3.3m/s | -41.2°C | 62.6% | 282.0hPa | 2.5V | 00:00:00 | 00:00:00 | 00:00:00 | |
| DL9SK-14 | 2026-09-03 13:23:35 | 48.00670 | 10.72825 | 138° | 137km/h | 10029m | -3.7m/s | -41.3°C | 62.6% | 281.9hPa | 2.5V | 00:00:00 | 00:00:00 | 00:00:00 | |
| DO3MHA-12 | 2026-09-03 13:23:29 | 48.00807 | 10.72618 | 135° | 124km/h | 10051m | -3.4m/s | -41.4°C | 70.7% | 280.9hPa | 2.5V | 00:00:00 | 02:53:55 | 00:00:00 | |
| DO3MHA-11 | 2026-09-03 13:23:27 | 48.00849 | 10.72559 | 140° | 128km/h | 10058m | -3.6m/s | -41.5°C | 72.8% | 280.7hPa | 2.5V | 07:40:00 | 02:53:53 | 00:00:00 | |
| OE5DXL-15 | 2026-09-03 13:23:26 | 48.00871 | 10.72532 | 142° | 130km/h | 10062m | -3.1m/s | -41.5°C | 73.1% | 280.5hPa | 2.5V | 07:40:00 | 00:00:00 | 00:00:00 | |
| DM7RM-13 | 2026-09-03 13:23:22 | 48.00945 | 10.72449 | 145° | 128km/h | 10072m | -3.1m/s | -41.7°C | 68.6% | 280.1hPa | 2.5V | 07:40:00 | 00:00:00 | 00:00:00 | |
| DG1MFX-10 | 2026-09-03 13:23:21 | 48.00999 | 10.72389 | 143° | 135km/h | 10079m | -4.2m/s | -41.7°C | 68.8% | 279.9hPa | 2.5V | 00:00:00 | 00:00:00 | 00:00:00 | |
| DO3MHA-12 | 2026-09-03 13:23:19 | 48.01053 | 10.72323 | 140° | 131km/h | 10087m | -3.7m/s | -41.7°C | 74.5% | 279.5hPa | 2.5V | 00:00:00 | 02:53:45 | 00:00:00 | |
| DO3MHA-11 | 2026-09-03 13:23:17 | 48.01105 | 10.72252 | 136° | 126km/h | 10094m | -3.6m/s | -41.8°C | 73.8% | 279.2hPa | 2.5V | 00:00:00 | 02:53:43 | 00:00:00 | |
| DB0UT-7 | 2026-09-03 13:23:16 | 48.01130 | 10.72215 | 135° | 126km/h | 10098m | -3.6m/s | -41.9°C | 73.3% | 279.0hPa | 2.5V | 00:00:00 | 02:53:42 | 00:00:00 | |
| NBG1-10 | 2026-09-03 13:23:13 | 48.01199 | 10.72103 | 132° | 126km/h | 10108m | -3.8m/s | -42.0°C | 72.2% | 278.6hPa | 2.6V | 00:00:00 | 02:53:39 | 00:00:00 | |
| DO3MHA-12 | 2026-09-03 13:23:09 | 48.01280 | 10.71970 | 136° | 124km/h | 10124m | -3.4m/s | -42.1°C | 72.1% | 277.9hPa | 2.6V | 00:00:00 | 02:53:35 | 00:00:00 | |
| DG1MJG | 2026-09-03 13:23:08 | 48.01280 | 10.71970 | 137° | 111km/h | 10124m | -3.4m/s | -42.1°C | 65.6% | 278.0hPa | 2.6V | 07:40:00 | 00:00:00 | 00:00:00 | |
| DK5PH-5 | 2026-09-03 13:23:07 | 48.01322 | 10.71914 | 141° | 128km/h | 10131m | -3.7m/s | -42.1°C | 70.8% | 277.7hPa | 2.6V | 00:00:00 | 02:53:33 | 00:00:00 | |
| DL6DJ-15 | 2026-09-03 13:23:05 | 48.01395 | 10.71833 | 144° | 126km/h | 10142m | -3.7m/s | -42.3°C | 63.4% | 277.3hPa | 2.6V | 00:00:00 | 00:00:00 | 00:00:00 | |
| OE3JTB-15 | 2026-09-03 13:23:04 | 48.01395 | 10.71833 | 145° | 144km/h | 10142m | -3.6m/s | -42.2°C | 69.9% | 277.2hPa | 2.6V | 00:00:00 | 00:00:00 | 00:00:00 | |
| DM7RM-13 | 2026-09-03 13:23:01 | 48.01448 | 10.71774 | 143° | 135km/h | 10149m | -3.5m/s | -42.3°C | 64.5% | 277.0hPa | 2.6V | 07:40:00 | 00:00:00 | 00:00:00 | |
| DF3TZ-5 | 2026-09-03 13:22:54 | 48.01638 | 10.71484 | 130° | 119km/h | 10181m | -4.6m/s | -42.7°C | -1.0% | 275.6hPa | 2.6V | 00:00:00 | 00:00:00 | 00:00:00 | |
| DO3MHA-12 | 2026-09-03 13:22:49 | 48.01741 | 10.71334 | 142° | 133km/h | 10200m | -2.8m/s | -42.7°C | 71.8% | 274.9hPa | 2.6V | 00:00:00 | 02:53:15 | 00:00:00 | |
| DO3MHA-11 | 2026-09-03 13:22:47 | 48.01790 | 10.71277 | 143° | 135km/h | 10206m | -2.9m/s | -42.7°C | 73.2% | 274.7hPa | 2.5V | 00:00:00 | 02:53:13 | 00:00:00 | |
| DB0UT-7 | 2026-09-03 13:22:46 | 48.01817 | 10.71246 | 142° | 128km/h | 10209m | -3.2m/s | -42.8°C | 72.9% | 274.5hPa | 2.5V | 00:00:00 | 00:00:00 | 00:00:00 | |
| OE5DRO-10 | 2026-09-03 13:22:41 | 48.01946 | 10.71068 | 133° | 128km/h | 10227m | -3.7m/s | -43.1°C | 71.9% | 273.7hPa | 2.5V | 00:00:00 | 00:00:00 | 00:00:00 | |
| NBG1-10 | 2026-09-03 13:22:40 | 48.01969 | 10.71030 | 131° | 128km/h | 10231m | -4.1m/s | -43.1°C | 71.6% | 273.6hPa | 2.5V | 00:00:00 | 02:53:06 | 00:00:00 | |
| DO3MHA-12 | 2026-09-03 13:22:39 | 48.01991 | 10.70991 | 130° | 120km/h | 10235m | -3.9m/s | -43.2°C | 71.5% | 273.5hPa | 2.5V | 00:00:00 | 02:53:05 | 00:00:00 | |
| DG1MFX-10 | 2026-09-03 13:22:38 | 48.01990 | 10.70991 | 131° | 131km/h | 10235m | -4.0m/s | -43.2°C | 64.8% | 273.5hPa | 2.5V | 07:41:00 | 00:00:00 | 00:00:00 | |
| DO3MHA-11 | 2026-09-03 13:22:37 | 48.02031 | 10.70918 | 131° | 122km/h | 10243m | -3.6m/s | -43.2°C | 71.5% | 273.0hPa | 2.5V | 00:00:00 | 02:53:03 | 00:00:00 | |
| DL6DJ-15 | 2026-09-03 13:22:34 | 48.02112 | 10.70795 | 139° | 113km/h | 10256m | -3.4m/s | -43.3°C | 66.5% | 272.6hPa | 2.6V | 00:00:00 | 00:00:00 | 00:00:00 | |
| DL9SK-14 | 2026-09-03 13:22:33 | 48.02112 | 10.70795 | 139° | 113km/h | 10256m | -3.4m/s | -43.3°C | 66.5% | 272.6hPa | 2.6V | 00:00:00 | 00:00:00 | 00:00:00 | |
| DO3MHA-12 | 2026-09-03 13:22:29 | 48.02209 | 10.70677 | 141° | 131km/h | 10271m | -3.3m/s | -43.4°C | 73.2% | 272.0hPa | 2.6V | 00:00:00 | 02:52:55 | 00:00:00 | |
| DO3MHA-11 | 2026-09-03 13:22:27 | 48.02262 | 10.70610 | 138° | 126km/h | 10278m | -3.6m/s | -43.5°C | 73.2% | 271.7hPa | 2.6V | 00:00:00 | 02:52:53 | 00:00:00 | |
| DK7TD | 2026-09-03 13:22:08 | 48.02700 | 10.69963 | 131° | 137km/h | 10349m | -4m/s | -44.1°C | 68.2% | 268.9hPa | 2.6V | 07:41:21 | 02:52:34 | 00:00:00 | |
| DK7TD | 2026-09-03 13:21:57 | 48.02938 | 10.69608 | 142° | 130km/h | 10390m | -3.8m/s | -44.5°C | 65.8% | 267.2hPa | 2.5V | 07:42:12 | 02:52:23 | 00:00:00 | |
| DK7TD | 2026-09-03 13:21:47 | 48.03181 | 10.69252 | 130° | 120km/h | 10429m | -3.8m/s | -44.8°C | 65.7% | 265.7hPa | 2.5V | 07:42:12 | 02:52:13 | 00:00:00 | |
| DF7PN | 2026-09-03 13:21:45 | 48.03220 | 10.69186 | 133° | 113km/h | 10436m | -3.7m/s | -44.9°C | 59.2% | 265.3hPa | 2.5V | 00:00:00 | 00:00:00 | 00:00:00 | |
| DK7TD | 2026-09-03 13:21:36 | 48.03439 | 10.68909 | 136° | 141km/h | 10469m | -3.6m/s | -45.2°C | 65.5% | 264hPa | 2.5V | 07:42:12 | 02:52:02 | 00:00:00 | |
| DK7TD | 2026-09-03 13:21:26 | 48.03657 | 10.68565 | 141° | 120km/h | 10507m | -3.9m/s | -45.5°C | 65.9% | 262.5hPa | 2.5V | 07:42:12 | 02:51:52 | 00:00:00 | |
| DK7TD | 2026-09-03 13:21:16 | 48.03912 | 10.68226 | 131° | 133km/h | 10546m | -3.8m/s | -45.9°C | 64.7% | 261hPa | 2.5V | 07:42:12 | 02:51:42 | 00:00:00 | |
| DK7TD | 2026-09-03 13:21:07 | 48.04144 | 10.67913 | 142° | 137km/h | 10584m | -4.1m/s | -46.2°C | 64.6% | 259.5hPa | 2.5V | 07:43:03 | 02:51:32 | 00:00:00 | |
| DK7TD | 2026-09-03 13:20:55 | 48.04413 | 10.67525 | 138° | 120km/h | 10624m | -3.7m/s | -46.6°C | 65.3% | 258hPa | 2.5V | 07:43:03 | 02:51:21 | 00:00:00 | |
| DK7TD | 2026-09-03 13:20:45 | 48.04676 | 10.67195 | 135° | 144km/h | 10661m | -4m/s | -46.9°C | 66.1% | 256.6hPa | 2.5V | 07:43:03 | 02:51:11 | 00:00:00 | |
| DK7TD | 2026-09-03 13:20:34 | 48.04934 | 10.66824 | 144° | 131km/h | 10704m | -4.1m/s | -47.2°C | 63.5% | 254.8hPa | 2.5V | 07:43:03 | 02:51:00 | 00:00:00 | |
| DK7TD | 2026-09-03 13:20:23 | 48.05212 | 10.66434 | 135° | 120km/h | 10749m | -3.8m/s | -47.7°C | 62.8% | 253.1hPa | 2.5V | 07:43:54 | 02:50:49 | 00:00:00 | |
| DK7TD | 2026-09-03 13:20:12 | 48.05497 | 10.66079 | 133° | 141km/h | 10792m | -3.6m/s | -48°C | 65% | 251.4hPa | 2.6V | 07:43:54 | 02:50:38 | 00:00:00 | |
| DK7TD | 2026-09-03 13:20:01 | 48.05762 | 10.65729 | 144° | 139km/h | 10834m | -4.1m/s | -48.4°C | 65.6% | 249.8hPa | 2.6V | 07:43:54 | 02:50:27 | 00:00:00 | |
| DK7TD | 2026-09-03 13:19:51 | 48.06015 | 10.65370 | 137° | 122km/h | 10873m | -3.6m/s | -48.8°C | 64.2% | 248.4hPa | 2.5V | 07:43:54 | 02:50:17 | 00:00:00 | |
| DF3TZ-5 | 2026-09-03 13:19:48 | 48.06140 | 10.65225 | 144° | 135km/h | 10892m | -3.8m/s | -49.0°C | -1.0% | -1.0hPa | 2.6V | 00:00:00 | 00:00:00 | 00:00:00 | |
| DK7TD | 2026-09-03 13:19:41 | 48.06283 | 10.65054 | 137° | 150km/h | 10912m | -3.8m/s | -49.2°C | 66.3% | 246.8hPa | 2.6V | 07:43:54 | 02:50:07 | 00:00:00 | |
| DK7TD | 2026-09-03 13:19:31 | 48.06526 | 10.64698 | 143° | 124km/h | 10951m | -3.9m/s | -49.4°C | 65.1% | 245.4hPa | 2.5V | 07:44:45 | 02:49:57 | 00:00:00 | |
| DK7TD | 2026-09-03 13:19:21 | 48.06806 | 10.64370 | 135° | 142km/h | 10991m | -4.1m/s | -49.8°C | 66.3% | 243.9hPa | 2.5V | 07:44:45 | 02:49:47 | 00:00:00 | |
| DK7TD | 2026-09-03 13:19:11 | 48.07061 | 10.64052 | 146° | 144km/h | 11030m | -3.8m/s | -50.1°C | 69.5% | 242.4hPa | 2.5V | 07:44:45 | 02:49:37 | 00:00:00 | |
| DK7TD | 2026-09-03 13:19:00 | 48.07364 | 10.63655 | 138° | 128km/h | 11071m | -3.6m/s | -50.6°C | 71.4% | 240.9hPa | 2.5V | 07:44:45 | 02:49:26 | 00:00:00 | |
| DK7TD | 2026-09-03 13:18:49 | 48.07678 | 10.63297 | 138° | 155km/h | 11114m | -3.9m/s | -50.9°C | 72.4% | 239.3hPa | 2.5V | 07:44:45 | 02:49:15 | 00:00:00 | |
| DK7TD | 2026-09-03 13:18:39 | 48.07937 | 10.62956 | 146° | 139km/h | 11152m | -3.8m/s | -51.3°C | 70.9% | 237.9hPa | 2.5V | 07:45:36 | 02:49:05 | 00:00:00 | |
| DK7TD | 2026-09-03 13:18:28 | 48.08257 | 10.62556 | 136° | 137km/h | 11195m | -3.7m/s | -51.7°C | 69.3% | 236.4hPa | 2.5V | 07:45:36 | 02:48:54 | 00:00:00 | |
| DK7TD | 2026-09-03 13:18:17 | 48.08567 | 10.62216 | 144° | 157km/h | 11241m | -4.2m/s | -52°C | 68.4% | 234.7hPa | 2.5V | 07:45:36 | 02:48:43 | 00:00:00 | |
| DK7TD | 2026-09-03 13:18:06 | 48.08875 | 10.61819 | 145° | 133km/h | 11284m | -3.5m/s | -52.4°C | 66.5% | 233.1hPa | 2.5V | 07:45:36 | 02:48:32 | 00:00:00 | |
| DK7TD | 2026-09-03 13:17:56 | 48.09187 | 10.61489 | 139° | 161km/h | 11320m | -3.5m/s | -52.7°C | 65.1% | 231.8hPa | 2.5V | 07:45:36 | 02:48:22 | 00:00:00 | |
| DK7TD | 2026-09-03 13:17:45 | 48.09495 | 10.61118 | 148° | 148km/h | 11361m | -4.1m/s | -53°C | 65.2% | 230.4hPa | 2.5V | 07:46:27 | 02:48:11 | 00:00:00 | |
| DK7TD | 2026-09-03 13:17:35 | 48.09809 | 10.60755 | 137° | 146km/h | 11401m | -3.8m/s | -53.5°C | 65.4% | 228.9hPa | 2.6V | 07:46:27 | 02:48:01 | 00:00:00 | |
| DK7TD | 2026-09-03 13:17:25 | 48.10110 | 10.60432 | 145° | 162km/h | 11438m | -4.2m/s | -53.8°C | 67.3% | 227.6hPa | 2.6V | 07:46:27 | 02:47:51 | 00:00:00 | |
| DK7TD | 2026-09-03 13:17:15 | 48.10435 | 10.60040 | 145° | 139km/h | 11478m | -3.8m/s | -54.1°C | 69.4% | 226.2hPa | 2.6V | 07:46:27 | 02:47:40 | 00:00:00 | |
| DK7TD | 2026-09-03 13:17:03 | 48.10799 | 10.59675 | 141° | 168km/h | 11522m | -3.8m/s | -54.5°C | 71.3% | 224.6hPa | 2.6V | 07:46:27 | 02:47:29 | 00:00:00 | |
| DK7TD | 2026-09-03 13:16:52 | 48.11134 | 10.59300 | 149° | 159km/h | 11561m | -3.7m/s | -54.8°C | 73.2% | 223.2hPa | 2.6V | 07:47:18 | 02:47:18 | 00:00:00 | |
| DL9SK-14 | 2026-09-03 13:16:52 | 48.11168 | 10.59268 | 148° | 162km/h | 11564m | -3.6m/s | -54.9°C | 66.0% | 223.2hPa | 2.6V | 00:00:00 | 00:00:00 | 00:00:00 | |
| DK7TD | 2026-09-03 13:16:41 | 48.11494 | 10.58886 | 140° | 144km/h | 11600m | -3.6m/s | -55.1°C | 70.1% | 221.9hPa | 2.6V | 07:47:18 | 02:47:07 | 00:00:00 | |
| DK7TD | 2026-09-03 13:16:30 | 48.11852 | 10.58517 | 141° | 170km/h | 11640m | -3.4m/s | -55.5°C | 69.4% | 220.5hPa | 2.6V | 07:47:18 | 02:46:56 | 00:00:00 | |
| DK7TD | 2026-09-03 13:16:21 | 48.12153 | 10.58163 | 149° | 153km/h | 11677m | -3.8m/s | -55.8°C | 68.9% | 219.3hPa | 2.5V | 07:47:18 | 02:46:46 | 00:00:00 | |
| DK7TD | 2026-09-03 13:16:09 | 48.12513 | 10.57754 | 140° | 146km/h | 11717m | -3.7m/s | -56.2°C | 68.7% | 217.9hPa | 2.5V | 07:48:09 | 02:46:35 | 00:00:00 | |
| DK7TD | 2026-09-03 13:15:58 | 48.12876 | 10.57378 | 140° | 172km/h | 11757m | -3.7m/s | -56.6°C | 69.7% | 216.5hPa | 2.5V | 07:48:09 | 02:46:24 | 00:00:00 | |
| DK7TD | 2026-09-03 13:15:48 | 48.13179 | 10.57024 | 149° | 155km/h | 11793m | -4m/s | -56.8°C | 70% | 215.3hPa | 2.5V | 07:48:09 | 02:46:14 | 00:00:00 | |
| DK7TD | 2026-09-03 13:15:37 | 48.13541 | 10.56613 | 139° | 146km/h | 11833m | -3.6m/s | -57.3°C | 70.5% | 213.9hPa | 2.5V | 07:48:09 | 02:46:03 | 00:00:00 | |
| DK7TD | 2026-09-03 13:15:26 | 48.13896 | 10.56250 | 144° | 173km/h | 11874m | -3.7m/s | -57.6°C | 71.3% | 212.5hPa | 2.5V | 07:48:09 | 02:45:52 | 00:00:00 | |
| DK7TD | 2026-09-03 13:15:16 | 48.14238 | 10.55846 | 149° | 151km/h | 11913m | -3.7m/s | -57.9°C | 71.2% | 211.2hPa | 2.5V | 07:49:00 | 02:45:41 | 00:00:00 | |
| DK7TD | 2026-09-03 13:15:04 | 48.14612 | 10.55438 | 138° | 155km/h | 11955m | -3.7m/s | -58.5°C | 69.8% | 209.8hPa | 2.5V | 07:49:00 | 02:45:30 | 00:00:00 | |
| DK7TD | 2026-09-03 13:14:54 | 48.14932 | 10.55104 | 147° | 172km/h | 11992m | -3.9m/s | -58.7°C | 70.9% | 208.6hPa | 2.5V | 07:49:00 | 02:45:20 | 00:00:00 | |
| DL6DJ-15 | 2026-09-03 13:14:48 | 48.15174 | 10.54823 | 137° | 162km/h | 12019m | -3.3m/s | -59.1°C | 60.9% | 207.7hPa | 2.5V | 00:00:00 | 00:00:00 | 00:00:00 | |
| DL9SK-14 | 2026-09-03 13:14:47 | 48.15174 | 10.54823 | 137° | 162km/h | 12019m | -3.3m/s | -59.1°C | 60.9% | 207.7hPa | 2.5V | 00:00:00 | 00:00:00 | 00:00:00 | |
| DK7TD | 2026-09-03 13:14:43 | 48.15290 | 10.54669 | 142° | 146km/h | 12034m | -3.5m/s | -59.2°C | 69.4% | 207.2hPa | 2.5V | 07:49:00 | 02:45:09 | 00:00:00 | |
| DK7TD | 2026-09-03 13:14:33 | 48.15631 | 10.54331 | 142° | 177km/h | 12071m | -3.8m/s | -59.5°C | 67.7% | 206hPa | 2.5V | 07:49:00 | 02:44:59 | 00:00:00 | |
| DK7TD | 2026-09-03 13:14:23 | 48.15946 | 10.53966 | 149° | 161km/h | 12108m | -3.8m/s | -59.8°C | 67.8% | 204.7hPa | 2.6V | 07:49:51 | 02:44:49 | 00:00:00 | |
| DK7TD | 2026-09-03 13:14:12 | 48.16323 | 10.53545 | 140° | 151km/h | 12150m | -3.8m/s | -60.2°C | 70.1% | 203.4hPa | 2.6V | 07:49:51 | 02:44:38 | 00:00:00 | |
| DK7TD | 2026-09-03 13:14:02 | 48.16665 | 10.53214 | 146° | 179km/h | 12188m | -3.9m/s | -60.5°C | 70.9% | 202.1hPa | 2.6V | 07:49:51 | 02:44:28 | 00:00:00 | |
| DK7TD | 2026-09-03 13:13:52 | 48.16993 | 10.52834 | 148° | 151km/h | 12225m | -3.8m/s | -60.8°C | 69.7% | 200.9hPa | 2.5V | 07:49:51 | 02:44:18 | 00:00:00 | |
| DB0ND-19 | 2026-09-03 13:13:47 | 48.17211 | 10.52641 | 147° | 179km/h | 12248m | -3.9m/s | -60.9°C | 62.6% | 200.2hPa | 2.5V | 00:00:00 | 00:00:00 | 00:00:00 | |
| DL6DJ-15 | 2026-09-03 13:13:46 | 48.17249 | 10.52603 | 145° | 181km/h | 12252m | -3.9m/s | -61.0°C | 62.1% | 200.1hPa | 2.5V | 00:00:00 | 00:00:00 | 00:00:00 | |
| DL9SK-14 | 2026-09-03 13:13:45 | 48.17249 | 10.52603 | 145° | 181km/h | 12252m | -3.9m/s | -61.0°C | 62.1% | 200.1hPa | 2.5V | 00:00:00 | 00:00:00 | 00:00:00 | |
| DK7TD | 2026-09-03 13:13:41 | 48.17389 | 10.52439 | 140° | 166km/h | 12267m | -3.6m/s | -61.2°C | 69.1% | 199.6hPa | 2.5V | 07:49:51 | 02:44:07 | 00:00:00 | |
| DK7TD | 2026-09-03 13:13:30 | 48.17756 | 10.52076 | 149° | 175km/h | 12308m | -3.8m/s | -61.4°C | 68.6% | 198.2hPa | 2.5V | 07:50:42 | 02:43:56 | 00:00:00 | |
| DK7TD | 2026-09-03 13:13:19 | 48.18127 | 10.51668 | 147° | 148km/h | 12351m | -4.2m/s | -61.9°C | 66.1% | 196.8hPa | 2.5V | 07:50:42 | 02:43:45 | 00:00:00 | |
| DL1NUX | 2026-09-03 13:13:19 | 48.18301 | 10.51519 | 150° | 172km/h | 12371m | -3.8m/s | -62°C | 69.8% | 196.2hPa | 2.5V | 08:30:00 | 02:43:40 | 00:00:00 | |
| DK7TD | 2026-09-03 13:13:08 | 48.18516 | 10.51294 | 141° | 164km/h | 12394m | -3.9m/s | -62.3°C | 62.3% | 195.5hPa | 2.5V | 07:50:42 | 02:43:34 | 00:00:00 | |
| DK7TD | 2026-09-03 13:12:57 | 48.18884 | 10.50944 | 150° | 173km/h | 12439m | -4.2m/s | -62.6°C | 58.3% | 194hPa | 2.5V | 07:50:42 | 02:43:23 | 00:00:00 | |
| DK7TD | 2026-09-03 13:12:47 | 48.19223 | 10.50580 | 148° | 148km/h | 12479m | -3.7m/s | -62.9°C | 53.6% | 192.8hPa | 2.5V | 07:50:42 | 02:43:13 | 00:00:00 | |
| DB0ND-19 | 2026-09-03 13:12:45 | 48.19325 | 10.50494 | 151° | 161km/h | 12491m | -3.9m/s | -63.0°C | 46.0% | 192.4hPa | 2.5V | 00:00:00 | 00:00:00 | 00:00:00 | |
| DK7TD | 2026-09-03 13:12:36 | 48.19624 | 10.50214 | 142° | 173km/h | 12524m | -4m/s | -63.3°C | 50.4% | 191.3hPa | 2.5V | 07:51:33 | 02:43:02 | 00:00:00 | |
| DK7TD | 2026-09-03 13:12:25 | 48.19997 | 10.49848 | 150° | 177km/h | 12568m | -4.3m/s | -63.7°C | 49.7% | 190hPa | 2.5V | 07:51:33 | 02:42:51 | 00:00:00 | |
| DK7TD | 2026-09-03 13:12:15 | 48.20353 | 10.49464 | 144° | 151km/h | 12610m | -4.2m/s | -64.2°C | 47.5% | 188.7hPa | 2.5V | 07:51:33 | 02:42:41 | 00:00:00 | |
| DK7TD | 2026-09-03 13:12:04 | 48.20745 | 10.49097 | 142° | 175km/h | 12657m | -4.2m/s | -64.6°C | 46.8% | 187.2hPa | 2.5V | 07:51:33 | 02:42:30 | 00:00:00 | |
| DK7TD | 2026-09-03 13:11:53 | 48.21103 | 10.48724 | 152° | 166km/h | 12704m | -3.9m/s | -64.7°C | 45.5% | 185.8hPa | 2.5V | 07:52:24 | 02:42:19 | 00:00:00 | |
| DK7TD | 2026-09-03 13:11:42 | 48.21482 | 10.48337 | 144° | 144km/h | 12752m | -4.9m/s | -65.1°C | 44.4% | 184.4hPa | 2.5V | 07:52:24 | 02:42:08 | 00:00:00 | |
| DK7TD | 2026-09-03 13:11:32 | 48.21817 | 10.48042 | 145° | 166km/h | 12795m | -4m/s | -64.4°C | 42.5% | 183.1hPa | 2.6V | 07:52:24 | 02:41:58 | 00:00:00 | |
| DK7TD | 2026-09-03 13:11:21 | 48.22149 | 10.47702 | 153° | 141km/h | 12844m | -4.3m/s | -64°C | 35.7% | 181.6hPa | 2.5V | 07:52:24 | 02:41:47 | 00:00:00 | |
| DK7TD | 2026-09-03 13:11:11 | 48.22464 | 10.47400 | 142° | 146km/h | 12887m | -4.5m/s | -63.5°C | 28.5% | 180.3hPa | 2.6V | 07:52:24 | 02:41:37 | 00:00:00 | |
| DK7TD | 2026-09-03 13:11:00 | 48.22752 | 10.47022 | 137° | 119km/h | 12940m | -4.8m/s | -61.7°C | 19.6% | 178.7hPa | 2.5V | 07:53:15 | 02:41:26 | 00:00:00 | |
| DK7TD | 2026-09-03 13:10:50 | 48.22989 | 10.46749 | 139° | 137km/h | 12983m | -3.9m/s | -59.9°C | 16.3% | 177.6hPa | 2.5V | 07:53:15 | 02:41:16 | 00:00:00 | |
| DK7TD | 2026-09-03 13:10:40 | 48.23202 | 10.46391 | 129° | 106km/h | 13030m | -4.4m/s | -59°C | 13.8% | 176.2hPa | 2.6V | 07:53:15 | 02:41:06 | 00:00:00 | |
| DK7TD | 2026-09-03 13:10:29 | 48.23443 | 10.46047 | 129° | 133km/h | 13077m | -4.8m/s | -58.6°C | 13.7% | 174.9hPa | 2.5V | 07:53:15 | 02:40:55 | 00:00:00 | |
| DO3MHA-12 | 2026-09-03 13:10:29 | 48.23443 | 10.46047 | 130° | 115km/h | 13077m | -4.8m/s | -58.5°C | 14.2% | 174.8hPa | 2.5V | 00:00:00 | 02:40:55 | 00:00:00 | |
| DO9HM | 2026-09-03 13:10:25 | 48.23501 | 10.45929 | 125° | 122km/h | 13091m | -4.4m/s | -58.7°C | 9.6% | 174.5hPa | 2.5V | 00:00:00 | 00:00:00 | 00:00:00 | |
| DM0DOS-11 | 2026-09-03 13:10:24 | 48.23584 | 10.45766 | 135° | 106km/h | 13112m | -4m/s | -58.6°C | 15.7% | 173.9hPa | 2.5V | 07:53:07 | 02:40:47 | 00:00:00 | |
| DK7TD | 2026-09-03 13:10:18 | 48.23649 | 10.45680 | 139° | 124km/h | 13124m | -4.3m/s | -58.7°C | 14.5% | 173.6hPa | 2.6V | 07:53:15 | 02:40:44 | 00:00:00 | |
| DK7TD | 2026-09-03 13:10:09 | 48.23861 | 10.45291 | 122° | 120km/h | 13169m | -4.2m/s | -59.3°C | 14.2% | 172.3hPa | 2.5V | 07:54:06 | 02:40:34 | 00:00:00 | |
| DL9SK-14 | 2026-09-03 13:10:08 | 48.23877 | 10.45254 | 122° | 111km/h | 13173m | -4.3m/s | -59.3°C | 10.4% | 172.2hPa | 2.5V | 00:00:00 | 00:00:00 | 00:00:00 | |
| DK5PH-5 | 2026-09-03 13:10:07 | 48.23877 | 10.45253 | 123° | 128km/h | 13173m | -4.3m/s | -59.2°C | 15.3% | 172.2hPa | 2.5V | 00:00:00 | 02:40:33 | 00:00:00 | |
| DO9HM | 2026-09-03 13:10:06 | 48.23893 | 10.45219 | 127° | 108km/h | 13177m | -4.0m/s | -59.2°C | 10.8% | 172.1hPa | 2.5V | 00:00:00 | 00:00:00 | 00:00:00 | |
| DO3MHA-11 | 2026-09-03 13:10:04 | 48.23949 | 10.45126 | 137° | 133km/h | 13189m | -3.8m/s | -59.2°C | 16.5% | 171.7hPa | 2.5V | 07:53:00 | 02:40:29 | 00:00:00 | |
| AZAK | 2026-09-03 13:10:02 | 48.23949 | 10.45126 | 137° | 117km/h | 13189m | -3.9m/s | -59.2°C | 11.3% | 171.8hPa | 2.5V | 07:54:00 | 00:00:00 | 00:00:00 | |
| NBG1-10 | 2026-09-03 13:10:01 | 48.23994 | 10.45062 | 137° | 128km/h | 13197m | -4.3m/s | -59.3°C | 16.3% | 171.5hPa | 2.5V | 00:00:00 | 02:40:27 | 00:00:00 | |
| DM0DOS-11 | 2026-09-03 13:10:00 | 48.24090 | 10.44909 | 128° | 142km/h | 13214m | -4.4m/s | -59.5°C | 15.3% | 171.1hPa | 2.5V | 07:53:31 | 02:40:23 | 00:00:00 | |
| DK7TD | 2026-09-03 13:09:57 | 48.24090 | 10.44909 | 129° | 142km/h | 13214m | -4.4m/s | -59.5°C | 14.4% | 171.1hPa | 2.5V | 07:54:06 | 02:40:23 | 00:00:00 | |
| DF7PN | 2026-09-03 13:09:51 | 48.24202 | 10.44658 | 122° | 117km/h | 13240m | -4.1m/s | -59.7°C | 10.2% | 170.4hPa | 2.6V | 00:00:00 | 00:00:00 | 00:00:00 | |
| DM0DOS-11 | 2026-09-03 13:09:47 | 48.24366 | 10.44394 | 137° | 135km/h | 13274m | -4.8m/s | -59.9°C | 15.5% | 169.4hPa | 2.6V | 07:53:45 | 02:40:09 | 00:00:00 | |
| DK7TD | 2026-09-03 13:09:46 | 48.24295 | 10.44493 | 136° | 120km/h | 13260m | -4.4m/s | -59.8°C | 13.6% | 169.8hPa | 2.5V | 07:54:06 | 02:40:12 | 00:00:00 | |
| DK7TD | 2026-09-03 13:09:36 | 48.24525 | 10.44111 | 122° | 131km/h | 13302m | -3.8m/s | -60.1°C | 12.1% | 168.7hPa | 2.6V | 07:54:06 | 02:40:02 | 00:00:00 | |
| OE5DRO-10 | 2026-09-03 13:09:36 | 48.24525 | 10.44110 | 123° | 128km/h | 13302m | -3.8m/s | -60.0°C | 14.0% | 168.7hPa | 2.5V | 00:00:00 | 00:00:00 | 00:00:00 | |
| DM0DOS-11 | 2026-09-03 13:09:35 | 48.24575 | 10.43991 | 122° | 119km/h | 13316m | -4.9m/s | -60.1°C | 13.2% | 168.3hPa | 2.5V | 07:53:55 | 02:39:59 | 00:00:00 | |
| DK7TD | 2026-09-03 13:09:26 | 48.24710 | 10.43760 | 137° | 131km/h | 13347m | -3.8m/s | -59.3°C | 10.7% | 167.5hPa | 2.6V | 07:54:06 | 02:39:52 | 00:00:00 | |
| DM0DOS-11 | 2026-09-03 13:09:24 | 48.24829 | 10.43562 | 126° | 142km/h | 13367m | -4.5m/s | -59.1°C | 11.3% | 167hPa | 2.5V | 07:54:07 | 02:39:47 | 00:00:00 | |
| DK7TD | 2026-09-03 13:09:15 | 48.24934 | 10.43319 | 126° | 110km/h | 13393m | -3.9m/s | -59.2°C | 8.6% | 166.2hPa | 2.5V | 07:54:57 | 02:39:41 | 00:00:00 | |
| PG1ADW-2 | 2026-09-03 13:09:15 | 48.24934 | 10.43319 | 126° | 124km/h | 13394m | -3.8m/s | -59.1°C | 10.5% | 166.2hPa | 2.5V | 07:54:00 | 00:00:00 | 00:00:00 | |
| DM7RM-13 | 2026-09-03 13:09:14 | 48.24934 | 10.43319 | 127° | 110km/h | 13394m | -3.9m/s | -59.2°C | 6.4% | 166.2hPa | 2.6V | 07:54:00 | 00:00:00 | 00:00:00 | |
| DO3MHA-11 | 2026-09-03 13:09:13 | 48.24969 | 10.43255 | 134° | 131km/h | 13401m | -3.9m/s | -59.1°C | 10.5% | 166.0hPa | 2.6V | 00:00:00 | 02:39:39 | 00:00:00 | |
| DJ8HS-15 | 2026-09-03 13:09:12 | 48.24989 | 10.43225 | 136° | 126km/h | 13405m | -4.1m/s | -59.1°C | 10.4% | 165.9hPa | 2.6V | 00:00:00 | 02:39:38 | 00:00:00 | |
| DM0DOS-11 | 2026-09-03 13:09:11 | 48.25082 | 10.43091 | 134° | 139km/h | 13422m | -4.4m/s | -59.3°C | 10.2% | 165.5hPa | 2.6V | 07:54:20 | 02:39:34 | 00:00:00 | |
| DK7TD | 2026-09-03 13:09:04 | 48.25175 | 10.42926 | 125° | 139km/h | 13440m | -3.9m/s | -59.4°C | 7.3% | 165hPa | 2.5V | 07:54:57 | 02:39:30 | 00:00:00 | |
| DM0DOS-11 | 2026-09-03 13:09:03 | 48.25282 | 10.42704 | 131° | 108km/h | 13463m | -4.7m/s | -59.7°C | 9.6% | 164.4hPa | 2.5V | 07:54:30 | 02:39:24 | 00:00:00 | |
| DK7TD | 2026-09-03 13:08:53 | 48.25389 | 10.42555 | 141° | 128km/h | 13486m | -4.3m/s | -60°C | 5.2% | 163.8hPa | 2.5V | 07:54:57 | 02:39:19 | 00:00:00 | |
| DO3MHA-11 | 2026-09-03 13:08:53 | 48.25389 | 10.42555 | 142° | 137km/h | 13486m | -4.2m/s | -60.0°C | 8.8% | 163.8hPa | 2.6V | 00:00:00 | 02:39:19 | 00:00:00 | |
| DJ8HS-15 | 2026-09-03 13:08:52 | 48.25414 | 10.42524 | 141° | 124km/h | 13491m | -4.4m/s | -59.9°C | 8.6% | 163.6hPa | 2.6V | 00:00:00 | 02:39:18 | 00:00:00 | |
| DO3MHA-12 | 2026-09-03 13:08:49 | 48.25496 | 10.42419 | 138° | 126km/h | 13504m | -4.5m/s | -59.6°C | 8.4% | 163.3hPa | 2.6V | 00:00:00 | 02:39:15 | 00:00:00 | |
| DB0UT-7 | 2026-09-03 13:08:46 | 48.25572 | 10.42301 | 131° | 115km/h | 13517m | -3.7m/s | -59.1°C | 7.9% | 163.0hPa | 2.5V | 00:00:00 | 00:00:00 | 00:00:00 | |
| DM0DOS-11 | 2026-09-03 13:08:43 | 48.25731 | 10.42051 | 141° | 108km/h | 13553m | -5.3m/s | -58.1°C | 6.4% | 162hPa | 2.5V | 07:54:50 | 02:39:04 | 00:00:00 | |
| DK7TD | 2026-09-03 13:08:43 | 48.25633 | 10.42194 | 131° | 113km/h | 13528m | -4m/s | -58.5°C | 3.3% | 162.7hPa | 2.5V | 07:54:57 | 02:39:09 | 00:00:00 | |
| DK7TD | 2026-09-03 13:08:32 | 48.25880 | 10.41893 | 141° | 135km/h | 13579m | -3.6m/s | -57.8°C | 2.1% | 161.4hPa | 2.6V | 07:54:57 | 02:38:58 | 00:00:00 | |
| DJ8HS-15 | 2026-09-03 13:08:32 | 48.25880 | 10.41893 | 141° | 113km/h | 13579m | -3.5m/s | -57.7°C | 6.2% | 161.3hPa | 2.5V | 00:00:00 | 02:38:58 | 00:00:00 | |
| DM0DOS-11 | 2026-09-03 13:08:28 | 48.25974 | 10.41752 | 131° | 124km/h | 13595m | -4.7m/s | -56.9°C | 5.1% | 161hPa | 2.5V | 07:55:00 | 02:38:54 | 00:00:00 | |
| DM0DOS-11 | 2026-09-03 13:08:23 | 48.26161 | 10.41481 | 148° | 104km/h | 13643m | -4.1m/s | -56.1°C | 4.9% | 159.7hPa | 2.5V | 07:55:10 | 02:38:44 | 00:00:00 | |
| DK7TD | 2026-09-03 13:08:21 | 48.26101 | 10.41544 | 140° | 93km/h | 13630m | -4.8m/s | -56.2°C | 1.1% | 160hPa | 2.6V | 07:55:48 | 02:38:47 | 00:00:00 | |
| AZAK | 2026-09-03 13:08:20 | 48.26101 | 10.41544 | 140° | 93km/h | 13630m | -4.8m/s | -56.2°C | 1.8% | 160.0hPa | 2.5V | 07:55:00 | 00:00:00 | 00:00:00 | |
| DO3MHA-12 | 2026-09-03 13:08:19 | 48.26139 | 10.41501 | 148° | 117km/h | 13639m | -4.2m/s | -56.1°C | 4.8% | 159.7hPa | 2.5V | 00:00:00 | 02:38:45 | 00:00:00 | |
| DF7PN | 2026-09-03 13:08:18 | 48.26161 | 10.41481 | 148° | 102km/h | 13643m | -4.1m/s | -56.1°C | 1.9% | 159.7hPa | 2.6V | 00:00:00 | 00:00:00 | 00:00:00 | |
| DB0UT-7 | 2026-09-03 13:08:16 | 48.26208 | 10.41439 | 150° | 102km/h | 13652m | -4.5m/s | -55.9°C | 4.9% | 159.5hPa | 2.6V | 07:55:00 | 02:38:42 | 00:00:00 | |
| PG1ADW-2 | 2026-09-03 13:08:15 | 48.26234 | 10.41416 | 148° | 106km/h | 13657m | -4.8m/s | -55.9°C | 5.0% | 159.3hPa | 2.5V | 00:00:00 | 00:00:00 | 00:00:00 | |
| DM0DOS-11 | 2026-09-03 13:08:13 | 48.26394 | 10.41206 | 130° | 102km/h | 13688m | -4.2m/s | -55.7°C | 4.5% | 158.6hPa | 2.5V | 07:55:20 | 02:38:34 | 00:00:00 | |
| DK7TD | 2026-09-03 13:08:10 | 48.26356 | 10.41269 | 134° | 119km/h | 13679m | -4.2m/s | -55.7°C | 1% | 158.8hPa | 2.6V | 07:55:48 | 02:38:36 | 00:00:00 | |
| DK7TD | 2026-09-03 13:07:59 | 48.26552 | 10.41013 | 151° | 100km/h | 13731m | -4.3m/s | -55.1°C | 1% | 157.5hPa | 2.6V | 07:55:48 | 02:38:25 | 00:00:00 | |
| DK7TD | 2026-09-03 13:07:48 | 48.26758 | 10.40727 | 136° | 77km/h | 13781m | -5m/s | -54.8°C | 0.8% | 156.2hPa | 2.6V | 07:55:48 | 02:38:14 | 00:00:00 | |
| DF7PN | 2026-09-03 13:07:47 | 48.26788 | 10.40691 | 145° | 75km/h | 13791m | -4.7m/s | -54.7°C | 1.7% | 156.0hPa | 2.5V | 00:00:00 | 00:00:00 | 00:00:00 | |
| DK7TD | 2026-09-03 13:07:37 | 48.26963 | 10.40491 | 130° | 100km/h | 13831m | -5.1m/s | -54.8°C | 0.8% | 155hPa | 2.5V | 07:56:39 | 02:38:03 | 00:00:00 | |
| DK5PH-5 | 2026-09-03 13:07:37 | 48.26963 | 10.40491 | 130° | 86km/h | 13831m | -5.0m/s | -54.7°C | 4.2% | 155.0hPa | 2.5V | 00:00:00 | 02:38:03 | 00:00:00 | |
| DH7VM-15 | 2026-09-03 13:07:36 | 48.26962 | 10.40491 | 131° | 100km/h | 13831m | -5.1m/s | -54.8°C | 1.6% | 155.0hPa | 2.5V | 00:00:00 | 00:00:00 | 00:00:00 | |
| PG1ADW-2 | 2026-09-03 13:07:35 | 48.26992 | 10.40435 | 127° | 88km/h | 13841m | -5.2m/s | -54.9°C | 4.2% | 154.7hPa | 2.5V | 00:00:00 | 00:00:00 | 00:00:00 | |
| DB0ND-19 | 2026-09-03 13:07:34 | 48.27017 | 10.40384 | 126° | 75km/h | 13852m | -5.0m/s | -54.9°C | 1.6% | 154.5hPa | 2.5V | 00:00:00 | 00:00:00 | 00:00:00 | |
| DL9SK-14 | 2026-09-03 13:07:33 | 48.27029 | 10.40362 | 129° | 69km/h | 13856m | -4.8m/s | -54.9°C | 1.6% | 154.4hPa | 2.5V | 00:00:00 | 00:00:00 | 00:00:00 | |
| DJ8HS-15 | 2026-09-03 13:07:32 | 48.27029 | 10.40362 | 130° | 84km/h | 13857m | -4.7m/s | -54.9°C | 4.3% | 154.3hPa | 2.5V | 00:00:00 | 02:37:58 | 00:00:00 | |
| DO9HM | 2026-09-03 13:07:31 | 48.27040 | 10.40342 | 136° | 68km/h | 13861m | -4.7m/s | -54.9°C | 1.7% | 154.3hPa | 2.5V | 00:00:00 | 00:00:00 | 00:00:00 | |
| DO3MHA-12 | 2026-09-03 13:07:29 | 48.27067 | 10.40310 | 147° | 93km/h | 13871m | -4.6m/s | -54.7°C | 4.6% | 154.0hPa | 2.5V | 00:00:00 | 02:37:55 | 00:00:00 | |
| DM0DOS-11 | 2026-09-03 13:07:28 | 48.27101 | 10.40279 | 149° | 86km/h | 13879m | -4.7m/s | -54.7°C | 4.7% | 153.8hPa | 2.5V | 07:56:01 | 02:37:53 | 00:00:00 | |
| DK7TD | 2026-09-03 13:07:27 | 48.27101 | 10.40279 | 150° | 86km/h | 13879m | -4.7m/s | -54.7°C | 1.1% | 153.8hPa | 2.5V | 07:56:39 | 02:37:53 | 00:00:00 | |
| OE5DRO-10 | 2026-09-03 13:07:26 | 48.27120 | 10.40262 | 149° | 89km/h | 13884m | -4.8m/s | -54.6°C | 4.6% | 153.7hPa | 2.5V | 00:00:00 | 00:00:00 | 00:00:00 | |
| DO3MHA-11 | 2026-09-03 13:07:23 | 48.27180 | 10.40194 | 138° | 89km/h | 13899m | -4.8m/s | -54.5°C | 4.3% | 153.3hPa | 2.5V | 07:56:00 | 02:37:49 | 00:00:00 | |
| DM0DOS-11 | 2026-09-03 13:07:21 | 48.27281 | 10.39994 | 122° | 77km/h | 13934m | -4.8m/s | -54.7°C | 4.3% | 152.5hPa | 2.5V | 07:56:12 | 02:37:42 | 00:00:00 | |
| DO3MHA-12 | 2026-09-03 13:07:19 | 48.27246 | 10.40076 | 124° | 80km/h | 13919m | -5.1m/s | -54.5°C | 4.1% | 152.8hPa | 2.5V | 00:00:00 | 02:37:45 | 00:00:00 | |
| IW2NTF | 2026-09-03 13:07:18 | 48.27291 | 10.39971 | 125° | 71km/h | 13938m | -4.8m/s | -54.7°C | 4.4% | 152.4hPa | 2.5V | 07:56:13 | 02:37:41 | 00:00:00 | |
| DK7TD | 2026-09-03 13:07:16 | 48.27281 | 10.39994 | 122° | 77km/h | 13934m | -4.8m/s | -54.7°C | 0.9% | 152.5hPa | 2.5V | 07:56:39 | 02:37:42 | 00:00:00 | |
| DF7PN | 2026-09-03 13:07:16 | 48.27291 | 10.39971 | 125° | 69km/h | 13939m | -4.8m/s | -54.7°C | 1.7% | 152.4hPa | 2.5V | 00:00:00 | 00:00:00 | 00:00:00 | |
| PG1ADW-2 | 2026-09-03 13:07:15 | 48.27291 | 10.39971 | 126° | 89km/h | 13939m | -4.8m/s | -54.6°C | 4.4% | 152.4hPa | 2.5V | 00:00:00 | 02:37:41 | 00:00:00 | |
| DO3MHA-11 | 2026-09-03 13:07:13 | 48.27314 | 10.39932 | 138° | 95km/h | 13948m | -4.6m/s | -54.6°C | 4.5% | 152.2hPa | 2.6V | 00:00:00 | 02:37:39 | 00:00:00 | |
| DJ8HS-15 | 2026-09-03 13:07:12 | 48.27328 | 10.39915 | 143° | 89km/h | 13953m | -4.5m/s | -54.5°C | 4.6% | 152.1hPa | 2.6V | 07:56:00 | 02:37:38 | 00:00:00 | |
| DM7RM-13 | 2026-09-03 13:07:11 | 48.27328 | 10.39915 | 144° | 75km/h | 13953m | -4.5m/s | -54.6°C | 1.8% | 152.1hPa | 2.5V | 07:56:00 | 00:00:00 | 00:00:00 | |
| OE5DXL-15 | 2026-09-03 13:07:10 | 48.27362 | 10.39878 | 145° | 95km/h | 13961m | -4.4m/s | -54.6°C | 4.7% | 151.9hPa | 2.5V | 00:00:00 | 00:00:00 | 00:00:00 | |
| DO3MHA-12 | 2026-09-03 13:07:09 | 48.27380 | 10.39857 | 143° | 100km/h | 13966m | -4.7m/s | -54.6°C | 4.7% | 151.8hPa | 2.5V | 00:00:00 | 02:37:35 | 00:00:00 | |
| DM0DOS-11 | 2026-09-03 13:07:08 | 48.27439 | 10.39780 | 134° | 108km/h | 13981m | -5.4m/s | -54.7°C | 4.5% | 151.4hPa | 2.5V | 07:56:22 | 02:37:32 | 00:00:00 | |
| DK7TD | 2026-09-03 13:07:05 | 48.27458 | 10.39750 | 132° | 108km/h | 13986m | -5.4m/s | -54.8°C | 1.1% | 151.3hPa | 2.5V | 07:56:39 | 02:37:31 | 00:00:00 | |
| DK7TD | 2026-09-03 13:06:55 | 48.27586 | 10.39473 | 137° | 71km/h | 14035m | -4.9m/s | -55.1°C | 1.1% | 150.2hPa | 2.6V | 07:56:39 | 02:37:21 | 00:00:00 | |
| DM0DOS-11 | 2026-09-03 13:06:55 | 48.27651 | 10.39397 | 143° | 95km/h | 14056m | -5.1m/s | -55.2°C | 4.9% | 149.6hPa | 2.5V | 07:56:37 | 02:37:17 | 00:00:00 | |
| DK7TD | 2026-09-03 13:06:46 | 48.27764 | 10.39226 | 124° | 106km/h | 14086m | -4.8m/s | -55.2°C | 1.2% | 149hPa | 2.6V | 07:57:30 | 02:37:11 | 00:00:00 | |
| DF7PN | 2026-09-03 13:06:45 | 48.27778 | 10.39193 | 120° | 100km/h | 14091m | -4.9m/s | -55.3°C | 1.8% | 148.8hPa | 2.5V | 00:00:00 | 00:00:00 | 00:00:00 | |
| NBG1-10 | 2026-09-03 13:06:43 | 48.27790 | 10.39161 | 119° | 89km/h | 14096m | -4.9m/s | -55.2°C | 4.6% | 148.7hPa | 2.5V | 07:56:00 | 02:37:09 | 00:00:00 | |
| DM0DOS-11 | 2026-09-03 13:06:41 | 48.27845 | 10.39038 | 136° | 71km/h | 14120m | -4.9m/s | -55.1°C | 4.7% | 148.1hPa | 2.5V | 07:56:50 | 02:37:04 | 00:00:00 | |
| DK7TD | 2026-09-03 13:06:35 | 48.27912 | 10.38963 | 144° | 97km/h | 14141m | -5.1m/s | -55.2°C | 1.5% | 147.7hPa | 2.6V | 07:57:30 | 02:37:00 | 00:00:00 | |
| DK7TD | 2026-09-03 13:06:25 | 48.28072 | 10.38684 | 125° | 71km/h | 14191m | -5.3m/s | -55.6°C | 1.4% | 146.5hPa | 2.5V | 07:57:30 | 02:36:50 | 00:00:00 | |
| DK7TD | 2026-09-03 13:06:13 | 48.28247 | 10.38449 | 128° | 104km/h | 14247m | -5.4m/s | -55.4°C | 1.5% | 145.2hPa | 2.5V | 07:57:30 | 02:36:39 | 00:00:00 | |
| DK7TD | 2026-09-03 13:06:02 | 48.28381 | 10.38191 | 143° | 86km/h | 14303m | -4.5m/s | -55.3°C | 1.8% | 144hPa | 2.5V | 07:57:30 | 02:36:28 | 00:00:00 | |
| DK7TD | 2026-09-03 13:05:51 | 48.28526 | 10.37876 | 113° | 73km/h | 14361m | -5.3m/s | -55.6°C | 1.6% | 142.7hPa | 2.5V | 07:58:21 | 02:36:17 | 00:00:00 | |
| DK7TD | 2026-09-03 13:05:41 | 48.28654 | 10.37660 | 128° | 100km/h | 14412m | -5m/s | -55.6°C | 1.8% | 141.5hPa | 2.6V | 07:58:21 | 02:36:07 | 00:00:00 | |
| DK7TD | 2026-09-03 13:05:30 | 48.28757 | 10.37382 | 137° | 66km/h | 14468m | -5.1m/s | -55.7°C | 1.8% | 140.2hPa | 2.6V | 07:58:21 | 02:35:56 | 00:00:00 | |
| DL6DJ-15 | 2026-09-03 13:05:29 | 48.28785 | 10.37346 | 138° | 80km/h | 14477m | -4.7m/s | -55.8°C | 2.2% | 140.1hPa | 2.6V | 00:00:00 | 00:00:00 | 00:00:00 | |
| DL9SK-14 | 2026-09-03 13:05:28 | 48.28785 | 10.37346 | 138° | 80km/h | 14477m | -4.7m/s | -55.8°C | 2.2% | 140.1hPa | 2.6V | 00:00:00 | 00:00:00 | 00:00:00 | |
| DN1GJH-1 | 2026-09-03 13:05:27 | 48.28785 | 10.37345 | 140° | 82km/h | 14478m | -4.7m/s | -55.8°C | 2.3% | 140.1hPa | 2.6V | 07:58:00 | 00:00:00 | 00:00:00 | |
| DO3MHA-12 | 2026-09-03 13:05:24 | 48.28847 | 10.37242 | 124° | 78km/h | 14496m | -4.8m/s | -55.8°C | 5.1% | 139.6hPa | 2.6V | 00:00:00 | 02:35:50 | 00:00:00 | |
| DO3MHA-11 | 2026-09-03 13:05:22 | 48.28871 | 10.37180 | 117° | 69km/h | 14506m | -5.3m/s | -56.0°C | 5.0% | 139.3hPa | 2.6V | 00:00:00 | 02:35:48 | 00:00:00 | |
| DM0DOS-11 | 2026-09-03 13:05:21 | 48.28910 | 10.37015 | 107° | 60km/h | 14540m | -5.5m/s | -55.9°C | 5% | 138.6hPa | 2.6V | 07:58:12 | 02:35:42 | 00:00:00 | |
| DK7TD | 2026-09-03 13:05:20 | 48.28888 | 10.37119 | 110° | 84km/h | 14517m | -5.4m/s | -56°C | 1.6% | 139.1hPa | 2.6V | 07:58:21 | 02:35:46 | 00:00:00 | |
| DK7TD | 2026-09-03 13:05:10 | 48.28964 | 10.36907 | 136° | 77km/h | 14569m | -4.6m/s | -55.7°C | 2% | 138hPa | 2.6V | 07:58:21 | 02:35:36 | 00:00:00 | |
| OE5DXL-15 | 2026-09-03 13:05:10 | 48.28964 | 10.36907 | 137° | 77km/h | 14570m | -4.6m/s | -55.7°C | 5.4% | 138.0hPa | 2.5V | 07:58:00 | 00:00:00 | 00:00:00 | |
| DM0DOS-11 | 2026-09-03 13:05:09 | 48.29018 | 10.36804 | 119° | 93km/h | 14590m | -5.1m/s | -55.8°C | 5.1% | 137.6hPa | 2.5V | 07:58:22 | 02:35:32 | 00:00:00 | |
| DO9HM | 2026-09-03 13:05:08 | 48.28978 | 10.36886 | 134° | 84km/h | 14575m | -5.0m/s | -55.7°C | 2.3% | 137.9hPa | 2.6V | 00:00:00 | 00:00:00 | 00:00:00 | |
| DK5PH-5 | 2026-09-03 13:05:07 | 48.29006 | 10.36833 | 125° | 75km/h | 14585m | -5.1m/s | -55.7°C | 5.2% | 137.6hPa | 2.6V | 00:00:00 | 02:35:33 | 00:00:00 | |
| DN1GJH-1 | 2026-09-03 13:05:06 | 48.29006 | 10.36833 | 126° | 91km/h | 14585m | -5.2m/s | -55.7°C | 2.2% | 137.7hPa | 2.6V | 07:58:00 | 00:00:00 | 00:00:00 | |
| DO3MHA-12 | 2026-09-03 13:05:04 | 48.29038 | 10.36741 | 111° | 68km/h | 14600m | -5.3m/s | -55.9°C | 5.1% | 137.3hPa | 2.6V | 00:00:00 | 02:35:30 | 00:00:00 | |
| DO3MHA-11 | 2026-09-03 13:05:02 | 48.29051 | 10.36680 | 105° | 69km/h | 14611m | -5.1m/s | -56.0°C | 5.1% | 137.0hPa | 2.6V | 00:00:00 | 02:35:28 | 00:00:00 | |
| DM0DOS-11 | 2026-09-03 13:05:01 | 48.29095 | 10.36537 | 134° | 66km/h | 14646m | -5.4m/s | -56.1°C | 5.5% | 136.4hPa | 2.5V | 07:58:33 | 02:35:21 | 00:00:00 | |
| DK7TD | 2026-09-03 13:04:59 | 48.29063 | 10.36606 | 109° | 57km/h | 14626m | -4.8m/s | -56.1°C | 2% | 136.8hPa | 2.5V | 07:59:12 | 02:35:25 | 00:00:00 | |
| DB0ND-19 | 2026-09-03 13:04:59 | 48.29076 | 10.36570 | 124° | 53km/h | 14636m | -5.2m/s | -56.1°C | 2.3% | 136.6hPa | 2.5V | 00:00:00 | 00:00:00 | 00:00:00 | |
| DL9SK-14 | 2026-09-03 13:04:57 | 48.29076 | 10.36570 | 124° | 53km/h | 14636m | -5.2m/s | -56.1°C | 2.3% | 136.6hPa | 2.5V | 00:00:00 | 00:00:00 | 00:00:00 | |
| DF1GD-15 | 2026-09-03 13:04:56 | 48.29084 | 10.36554 | 133° | 58km/h | 14641m | -5.3m/s | -56.0°C | 2.4% | 136.5hPa | 2.5V | 07:59:00 | 00:00:00 | 00:00:00 | |
| DO3MHA-12 | 2026-09-03 13:04:54 | 48.29107 | 10.36518 | 136° | 86km/h | 14651m | -5.2m/s | -56.1°C | 5.5% | 136.2hPa | 2.5V | 07:58:00 | 02:35:20 | 00:00:00 | |
| AZAK | 2026-09-03 13:04:53 | 48.29121 | 10.36497 | 135° | 80km/h | 14657m | -5.4m/s | -56.2°C | 2.3% | 136.1hPa | 2.5V | 07:59:00 | 00:00:00 | 00:00:00 | |
| DJ8HS-15 | 2026-09-03 13:04:52 | 48.29135 | 10.36473 | 131° | 80km/h | 14662m | -5.1m/s | -56.1°C | 5.4% | 135.9hPa | 2.5V | 00:00:00 | 02:35:18 | 00:00:00 | |
| DM0DOS-11 | 2026-09-03 13:04:50 | 48.29199 | 10.36291 | 105° | 82km/h | 14692m | -5.2m/s | -56.3°C | 5.1% | 135.3hPa | 2.5V | 07:58:42 | 02:35:12 | 00:00:00 | |
| DK7TD | 2026-09-03 13:04:49 | 48.29174 | 10.36386 | 117° | 95km/h | 14677m | -5.1m/s | -56.2°C | 1.8% | 135.7hPa | 2.5V | 07:59:12 | 02:35:15 | 00:00:00 | |
| DK7TD | 2026-09-03 13:04:39 | 48.29264 | 10.36120 | 137° | 77km/h | 14733m | -5.5m/s | -56.1°C | 1.8% | 134.5hPa | 2.6V | 07:59:12 | 02:35:04 | 00:00:00 | |
| DK7TD | 2026-09-03 13:04:28 | 48.29390 | 10.35833 | 107° | 82km/h | 14786m | -5.2m/s | -56.5°C | 1.6% | 133.3hPa | 2.5V | 07:59:12 | 02:34:54 | 00:00:00 | |
| DK7TD | 2026-09-03 13:04:18 | 48.29488 | 10.35623 | 135° | 89km/h | 14840m | -5m/s | -56.2°C | 1.8% | 132.2hPa | 2.5V | 07:59:12 | 02:34:44 | 00:00:00 | |
| DK7TD | 2026-09-03 13:04:07 | 48.29591 | 10.35309 | 113° | 57km/h | 14898m | -5.6m/s | -56.4°C | 1.4% | 131hPa | 2.5V | 08:00:03 | 02:34:33 | 00:00:00 | |
| DK7TD | 2026-09-03 13:03:57 | 48.29705 | 10.35087 | 116° | 93km/h | 14950m | -5.6m/s | -56.4°C | 1.5% | 130hPa | 2.5V | 08:00:03 | 02:34:23 | 00:00:00 | |
| DB0ND-19 | 2026-09-03 13:03:57 | 48.29705 | 10.35087 | 115° | 93km/h | 14950m | -5.6m/s | -56.4°C | 1.9% | 130.0hPa | 2.5V | 00:00:00 | 00:00:00 | 00:00:00 | |
| DM0DOS-11 | 2026-09-03 13:03:55 | 48.29741 | 10.34906 | 100° | 68km/h | 14985m | -5.7m/s | -56.6°C | 4.8% | 129.2hPa | 2.5V | 07:59:37 | 02:34:17 | 00:00:00 | |
| DK7TD | 2026-09-03 13:03:47 | 48.29760 | 10.34826 | 126° | 55km/h | 15006m | -4.9m/s | -56.5°C | 1.6% | 128.8hPa | 2.5V | 08:00:03 | 02:34:13 | 00:00:00 | |
| DB0NH | 2026-09-03 13:03:46 | 48.29769 | 10.34809 | 132° | 82km/h | 15011m | -4.8m/s | -56.4°C | 5.2% | 128.6hPa | 2.6V | 00:00:00 | 02:34:12 | 00:00:00 | |
| DO3MHA-12 | 2026-09-03 13:03:44 | 48.29792 | 10.34771 | 133° | 88km/h | 15021m | -5.2m/s | -56.4°C | 5.2% | 128.5hPa | 2.6V | 00:00:00 | 02:34:10 | 00:00:00 | |
| DM0DOS-11 | 2026-09-03 13:03:41 | 48.29845 | 10.34662 | 118° | 95km/h | 15043m | -5.9m/s | -56.7°C | 4.9% | 128hPa | 2.6V | 07:59:48 | 02:34:06 | 00:00:00 | |
| DK7TD | 2026-09-03 13:03:36 | 48.29876 | 10.34530 | 101° | 84km/h | 15066m | -5.2m/s | -57.1°C | 1.4% | 127.6hPa | 2.5V | 08:00:03 | 02:34:02 | 00:00:00 | |
| DK7TD | 2026-09-03 13:03:25 | 48.29966 | 10.34272 | 125° | 97km/h | 15123m | -5.6m/s | -57°C | 1.6% | 126.5hPa | 2.6V | 08:00:03 | 02:33:51 | 00:00:00 | |
| NBG1-10 | 2026-09-03 13:03:25 | 48.29966 | 10.34272 | 125° | 78km/h | 15123m | -5.6m/s | -57.0°C | 5.3% | 126.4hPa | 2.6V | 00:00:00 | 02:33:51 | 00:00:00 | |
| DO3MHA-12 | 2026-09-03 13:03:24 | 48.29980 | 10.34241 | 122° | 86km/h | 15129m | -5.6m/s | -57.0°C | 5.2% | 126.3hPa | 2.6V | 00:00:00 | 02:33:50 | 00:00:00 | |
| DM0DOS-11 | 2026-09-03 13:03:21 | 48.30041 | 10.33961 | 110° | 60km/h | 15175m | -5.5m/s | -57.2°C | 5.1% | 125.4hPa | 2.6V | 08:00:13 | 02:33:41 | 00:00:00 | |
| DO3MHA-11 | 2026-09-03 13:03:20 | 48.30019 | 10.34102 | 106° | 71km/h | 15150m | -5.1m/s | -57.2°C | 5.1% | 125.8hPa | 2.6V | 00:00:00 | 02:33:46 | 00:00:00 | |
| DO9HM | 2026-09-03 13:03:19 | 48.30025 | 10.34068 | 103° | 88km/h | 15156m | -4.9m/s | -57.3°C | 2.0% | 125.8hPa | 2.6V | 08:00:00 | 00:00:00 | 00:00:00 | |
| DB0UT-7 | 2026-09-03 13:03:16 | 48.30036 | 10.33984 | 105° | 77km/h | 15171m | -5.2m/s | -57.2°C | 5.1% | 125.4hPa | 2.6V | 00:00:00 | 02:33:42 | 00:00:00 | |
| DK7TD | 2026-09-03 13:03:16 | 48.30041 | 10.33961 | 111° | 60km/h | 15176m | -5.5m/s | -57.2°C | 1.5% | 125.4hPa | 2.6V | 08:00:54 | 02:33:41 | 00:00:00 | |
| DO3MHA-12 | 2026-09-03 13:03:14 | 48.30047 | 10.33940 | 118° | 80km/h | 15181m | -5.4m/s | -57.2°C | 5.2% | 125.3hPa | 2.6V | 08:00:00 | 02:33:40 | 00:00:00 | |
| DF1GD-15 | 2026-09-03 13:03:13 | 48.30047 | 10.33940 | 118° | 58km/h | 15181m | -5.5m/s | -57.2°C | 2.0% | 125.3hPa | 2.5V | 08:00:00 | 00:00:00 | 00:00:00 | |
| DJ8HS-15 | 2026-09-03 13:03:12 | 48.30064 | 10.33902 | 130° | 77km/h | 15192m | -5.8m/s | -57.2°C | 5.3% | 125.0hPa | 2.5V | 00:00:00 | 02:33:38 | 00:00:00 | |
| DM0DOS-11 | 2026-09-03 13:03:10 | 48.30148 | 10.33759 | 124° | 100km/h | 15226m | -5.3m/s | -57.1°C | 5.4% | 124.4hPa | 2.5V | 08:00:22 | 02:33:32 | 00:00:00 | |
| DK7TD | 2026-09-03 13:03:04 | 48.30173 | 10.33693 | 115° | 99km/h | 15236m | -5.1m/s | -56.9°C | 1.5% | 124.2hPa | 2.6V | 08:00:54 | 02:33:30 | 00:00:00 | |
| DO3MHA-12 | 2026-09-03 13:03:04 | 48.30173 | 10.33693 | 115° | 71km/h | 15237m | -5.0m/s | -56.8°C | 5.3% | 124.1hPa | 2.5V | 00:00:00 | 02:33:30 | 00:00:00 | |
| DM0DOS-11 | 2026-09-03 13:03:00 | 48.30220 | 10.33483 | 121° | 53km/h | 15279m | -5.9m/s | -56.4°C | 4.9% | 123.3hPa | 2.5V | 08:00:32 | 02:33:22 | 00:00:00 | |
| DB0ND-19 | 2026-09-03 13:02:55 | 48.30228 | 10.33466 | 129° | 53km/h | 15285m | -5.6m/s | -56.3°C | 1.9% | 123.2hPa | 2.5V | 00:00:00 | 00:00:00 | 00:00:00 | |
| DF1GD-15 | 2026-09-03 13:02:54 | 48.30238 | 10.33450 | 136° | 58km/h | 15291m | -5.7m/s | -56.3°C | 2.0% | 123.1hPa | 2.5V | 08:00:00 | 00:00:00 | 00:00:00 | |
| DK7TD | 2026-09-03 13:02:54 | 48.30249 | 10.33434 | 138° | 64km/h | 15296m | -5.3m/s | -56.2°C | 1.6% | 123hPa | 2.5V | 08:00:54 | 02:33:19 | 00:00:00 | |
| OE5DRO-10 | 2026-09-03 13:02:53 | 48.30249 | 10.33434 | 139° | 69km/h | 15297m | -5.2m/s | -56.2°C | 5.1% | 123.0hPa | 2.5V | 00:00:00 | 00:00:00 | 00:00:00 | |
| NBG1-10 | 2026-09-03 13:02:52 | 48.30262 | 10.33417 | 140° | 73km/h | 15302m | -5.0m/s | -56.2°C | 5.2% | 122.9hPa | 2.5V | 08:00:00 | 02:33:18 | 00:00:00 | |
| DM0DOS-11 | 2026-09-03 13:02:50 | 48.30342 | 10.33261 | 113° | 91km/h | 15331m | -5.3m/s | -56.2°C | 5% | 122.4hPa | 2.5V | 08:00:42 | 02:33:12 | 00:00:00 | |
| DK7TD | 2026-09-03 13:02:42 | 48.30367 | 10.33142 | 101° | 71km/h | 15354m | -5.7m/s | -56.4°C | 1.4% | 121.9hPa | 2.5V | 08:00:54 | 02:33:08 | 00:00:00 | |
| DM0DOS-11 | 2026-09-03 13:02:40 | 48.30393 | 10.33027 | 130° | 51km/h | 15387m | -5.2m/s | -56.2°C | 5.2% | 121.3hPa | 2.5V | 08:00:52 | 02:33:02 | 00:00:00 | |
| DK7TD | 2026-09-03 13:02:31 | 48.30454 | 10.32928 | 127° | 88km/h | 15413m | -5.8m/s | -56.3°C | 1.5% | 120.8hPa | 2.5V | 08:01:45 | 02:32:57 | 00:00:00 | |
| DK7TD | 2026-09-03 13:02:21 | 48.30515 | 10.32654 | 112° | 47km/h | 15468m | -5.4m/s | -56.4°C | 1.4% | 119.8hPa | 2.5V | 08:01:45 | 02:32:47 | 00:00:00 | |
| DK7TD | 2026-09-03 13:02:11 | 48.30627 | 10.32393 | 104° | 86km/h | 15527m | -5.1m/s | -56.5°C | 1.3% | 118.6hPa | 2.6V | 08:01:45 | 02:32:36 | 00:00:00 | |
| OE5DXL-15 | 2026-09-03 13:02:10 | 48.30627 | 10.32392 | 104° | 66km/h | 15527m | -5.1m/s | -56.4°C | 4.9% | 118.6hPa | 2.5V | 00:00:00 | 00:00:00 | 00:00:00 | |
| AZAK | 2026-09-03 13:02:08 | 48.30631 | 10.32362 | 101° | 80km/h | 15532m | -5.0m/s | -56.5°C | 1.8% | 118.6hPa | 2.5V | 08:01:00 | 00:00:00 | 00:00:00 | |
| DO3MHA-11 | 2026-09-03 13:02:07 | 48.30637 | 10.32308 | 99° | 58km/h | 15542m | -5.3m/s | -56.4°C | 4.8% | 118.3hPa | 2.5V | 00:00:00 | 02:32:33 | 00:00:00 | |
| OE5DRO-10 | 2026-09-03 13:02:05 | 48.30642 | 10.32266 | 108° | 68km/h | 15553m | -5.6m/s | -56.2°C | 4.8% | 118.1hPa | 2.5V | 00:00:00 | 00:00:00 | 00:00:00 | |
| DO3MHA-12 | 2026-09-03 13:02:04 | 48.30647 | 10.32248 | 117° | 71km/h | 15559m | -5.5m/s | -56.2°C | 4.8% | 118.0hPa | 2.5V | 00:00:00 | 02:32:30 | 00:00:00 | |
| DM0DOS-11 | 2026-09-03 13:02:02 | 48.30725 | 10.32124 | 129° | 88km/h | 15597m | -5.3m/s | -56.3°C | 5.1% | 117.3hPa | 2.5V | 08:01:31 | 02:32:23 | 00:00:00 | |
| DK7TD | 2026-09-03 13:02:00 | 48.30697 | 10.32168 | 137° | 75km/h | 15587m | -5.5m/s | -56.4°C | 1.6% | 117.5hPa | 2.6V | 08:01:45 | 02:32:25 | 00:00:00 | |
| DB0ND-19 | 2026-09-03 13:01:53 | 48.30767 | 10.32006 | 107° | 82km/h | 15617m | -5.1m/s | -56.6°C | 1.8% | 116.9hPa | 2.6V | 00:00:00 | 00:00:00 | 00:00:00 | |
| DJ8HS-15 | 2026-09-03 13:01:52 | 48.30773 | 10.31976 | 104° | 69km/h | 15623m | -5.3m/s | -56.7°C | 4.9% | 116.8hPa | 2.6V | 00:00:00 | 02:32:18 | 00:00:00 | |
| IW2NTF | 2026-09-03 13:01:51 | 48.30783 | 10.31905 | 105° | 53km/h | 15639m | -5.5m/s | -56.6°C | 4.9% | 116.5hPa | 2.6V | 08:01:39 | 02:32:15 | 00:00:00 | |
| DK7TD | 2026-09-03 13:01:49 | 48.30783 | 10.31905 | 106° | 53km/h | 15639m | -5.5m/s | -56.6°C | 1.3% | 116.5hPa | 2.6V | 08:01:45 | 02:32:15 | 00:00:00 | |
| AZAK | 2026-09-03 13:01:49 | 48.30788 | 10.31888 | 114° | 46km/h | 15645m | -5.6m/s | -56.6°C | 1.8% | 116.4hPa | 2.6V | 08:01:00 | 00:00:00 | 00:00:00 | |
| DO3MHA-11 | 2026-09-03 13:01:48 | 48.30793 | 10.31872 | 124° | 69km/h | 15650m | -5.5m/s | -56.5°C | 4.9% | 116.2hPa | 2.6V | 00:00:00 | 02:32:13 | 00:00:00 | |
| NBG1-10 | 2026-09-03 13:01:46 | 48.30800 | 10.31859 | 134° | 66km/h | 15656m | -5.5m/s | -56.4°C | 4.9% | 116.2hPa | 2.6V | 00:00:00 | 02:32:12 | 00:00:00 | |
| DO3MHA-12 | 2026-09-03 13:01:44 | 48.30820 | 10.31834 | 144° | 80km/h | 15667m | -5.5m/s | -56.5°C | 5.0% | 116.0hPa | 2.6V | 08:01:00 | 02:32:10 | 00:00:00 | |
| IW2NTF | 2026-09-03 13:01:41 | 48.30893 | 10.31737 | 129° | 89km/h | 15694m | -5.8m/s | -56.5°C | 5% | 115.5hPa | 2.6V | 08:01:49 | 02:32:05 | 00:00:00 | |
| DK7TD | 2026-09-03 13:01:38 | 48.30907 | 10.31710 | 124° | 91km/h | 15700m | -5.9m/s | -56.6°C | 1.5% | 115.4hPa | 2.5V | 08:02:36 | 02:32:04 | 00:00:00 | |
| DK5PH-5 | 2026-09-03 13:01:37 | 48.30919 | 10.31681 | 120° | 58km/h | 15706m | -5.4m/s | -56.6°C | 5.0% | 115.2hPa | 2.5V | 00:00:00 | 02:32:03 | 00:00:00 | |
| DM0DOS-11 | 2026-09-03 13:01:35 | 48.30942 | 10.31598 | 107° | 68km/h | 15721m | -4.9m/s | -56.9°C | 4.9% | 115hPa | 2.6V | 08:01:54 | 02:32:00 | 00:00:00 | |
| DO3MHA-12 | 2026-09-03 13:01:34 | 48.30942 | 10.31598 | 108° | 53km/h | 15721m | -4.8m/s | -56.8°C | 4.9% | 115.0hPa | 2.6V | 00:00:00 | 02:32:00 | 00:00:00 | |
| DJ8HS-15 | 2026-09-03 13:01:32 | 48.30951 | 10.31556 | 111° | 58km/h | 15731m | -5.0m/s | -56.9°C | 4.9% | 114.8hPa | 2.6V | 00:00:00 | 02:31:58 | 00:00:00 | |
| IW2NTF | 2026-09-03 13:01:31 | 48.30968 | 10.31514 | 135° | 42km/h | 15748m | -6.1m/s | -56.9°C | 5% | 114.5hPa | 2.6V | 08:01:59 | 02:31:55 | 00:00:00 | |
| DO9HM | 2026-09-03 13:01:31 | 48.30956 | 10.31539 | 117° | 44km/h | 15736m | -5.6m/s | -56.9°C | 1.8% | 114.8hPa | 2.6V | 00:00:00 | 00:00:00 | 00:00:00 | |
| DF1GD-15 | 2026-09-03 13:01:30 | 48.30956 | 10.31539 | 117° | 44km/h | 15736m | -5.6m/s | -56.9°C | 1.8% | 114.8hPa | 2.6V | 08:02:00 | 00:00:00 | 00:00:00 | |
| DM0DOS-11 | 2026-09-03 13:01:29 | 48.31027 | 10.31456 | 144° | 73km/h | 15777m | -5.2m/s | -56.7°C | 5.3% | 114hPa | 2.6V | 08:02:04 | 02:31:50 | 00:00:00 | |
| DK7TD | 2026-09-03 13:01:28 | 48.30976 | 10.31503 | 144° | 46km/h | 15754m | -6.2m/s | -56.9°C | 1.4% | 114.4hPa | 2.5V | 08:02:36 | 02:31:54 | 00:00:00 | |
| DO3MHA-11 | 2026-09-03 13:01:27 | 48.30986 | 10.31493 | 149° | 71km/h | 15761m | -6.1m/s | -56.8°C | 5.2% | 114.2hPa | 2.5V | 08:02:00 | 02:31:53 | 00:00:00 | |
| AZAK | 2026-09-03 13:01:26 | 48.30986 | 10.31493 | 150° | 51km/h | 15761m | -6.1m/s | -56.9°C | 1.9% | 114.3hPa | 2.6V | 08:02:00 | 00:00:00 | 00:00:00 | |
| DO3MHA-12 | 2026-09-03 13:01:24 | 48.31027 | 10.31456 | 145° | 71km/h | 15777m | -5.1m/s | -56.7°C | 5.3% | 113.9hPa | 2.6V | 00:00:00 | 02:31:50 | 00:00:00 | |
| OE3JTB-15 | 2026-09-03 13:01:22 | 48.31057 | 10.31416 | 132° | 57km/h | 15787m | -4.5m/s | -56.7°C | 5.2% | 113.8hPa | 2.6V | 00:00:00 | 00:00:00 | 00:00:00 | |
| IW2NTF | 2026-09-03 13:01:20 | 48.31107 | 10.31249 | 103° | 49km/h | 15826m | -6.2m/s | -56.6°C | 4.7% | 113.1hPa | 2.6V | 08:02:13 | 02:31:41 | 00:00:00 | |
| DK7TD | 2026-09-03 13:01:17 | 48.31100 | 10.31290 | 106° | 62km/h | 15814m | -6m/s | -56.8°C | 1.2% | 113.3hPa | 2.5V | 08:02:36 | 02:31:43 | 00:00:00 | |
| DB0UT-7 | 2026-09-03 13:01:16 | 48.31104 | 10.31268 | 104° | 53km/h | 15820m | -5.9m/s | -56.7°C | 4.7% | 113.2hPa | 2.6V | 00:00:00 | 02:31:42 | 00:00:00 | |
| PG1ADW-2 | 2026-09-03 13:01:15 | 48.31110 | 10.31232 | 106° | 37km/h | 15832m | -5.9m/s | 0°C | 0% | 0hPa | 2.6V | 00:00:00 | 00:00:00 | 00:00:00 | |
| DO3MHA-12 | 2026-09-03 13:01:14 | 48.31110 | 10.31232 | 106° | 51km/h | 15832m | -5.9m/s | -56.5°C | 4.7% | 112.9hPa | 2.6V | 00:00:00 | 02:31:40 | 00:00:00 | |
| NBG1-10 | 2026-09-03 13:01:13 | 48.31113 | 10.31218 | 113° | 57km/h | 15838m | -5.6m/s | -56.5°C | 4.7% | 112.9hPa | 2.5V | 00:00:00 | 02:31:39 | 00:00:00 | |
| DJ8HS-15 | 2026-09-03 13:01:12 | 48.31117 | 10.31207 | 125° | 55km/h | 15843m | -5.7m/s | -56.5°C | 4.8% | 112.8hPa | 2.5V | 00:00:00 | 02:31:38 | 00:00:00 | |
| DH7VM-15 | 2026-09-03 13:01:11 | 48.31117 | 10.31207 | 125° | 33km/h | 15843m | -5.7m/s | -56.5°C | 1.7% | 112.8hPa | 2.6V | 00:00:00 | 00:00:00 | 00:00:00 | |
| IW2NTF | 2026-09-03 13:01:10 | 48.31192 | 10.31123 | 133° | 77km/h | 15882m | -5.7m/s | -56.4°C | 4.8% | 112.1hPa | 2.6V | 08:02:23 | 02:31:31 | 00:00:00 | |
| DK7TD | 2026-09-03 13:01:06 | 48.31178 | 10.31142 | 140° | 71km/h | 15876m | -5.4m/s | -56.4°C | 1.3% | 112.2hPa | 2.5V | 08:02:36 | 02:31:32 | 00:00:00 | |
| DO3MHA-12 | 2026-09-03 13:01:04 | 48.31204 | 10.31101 | 128° | 60km/h | 15887m | -5.4m/s | -56.4°C | 4.8% | 112.0hPa | 2.6V | 00:00:00 | 02:31:30 | 00:00:00 | |
| DF7PN | 2026-09-03 13:01:03 | 48.31216 | 10.31076 | 120° | 77km/h | 15893m | -5.6m/s | -56.5°C | 1.7% | 112.0hPa | 2.6V | 00:00:00 | 00:00:00 | 00:00:00 | |
| IW2NTF | 2026-09-03 13:01:00 | 48.31245 | 10.30904 | 101° | 33km/h | 15939m | -5.8m/s | -57.1°C | 4.8% | 111.1hPa | 2.6V | 08:02:33 | 02:31:21 | 00:00:00 | |
| DK7TD | 2026-09-03 13:00:56 | 48.31243 | 10.30917 | 96° | 38km/h | 15933m | -6m/s | -57.1°C | 1% | 111.2hPa | 2.5V | 08:02:36 | 02:31:22 | 00:00:00 | |
| DB0ND-19 | 2026-09-03 13:00:51 | 48.31264 | 10.30866 | 142° | 42km/h | 15963m | -5.6m/s | -57.2°C | 1.8% | 110.7hPa | 2.6V | 00:00:00 | 00:00:00 | 00:00:00 | |
| DM0DOS-11 | 2026-09-03 13:00:50 | 48.31284 | 10.30840 | 136° | 62km/h | 15973m | -4.6m/s | -57.3°C | 5.2% | 110.5hPa | 2.6V | 08:02:39 | 02:31:15 | 00:00:00 | |
| DK7TD | 2026-09-03 13:00:45 | 48.31323 | 10.30749 | 110° | 75km/h | 15994m | -5.9m/s | -57.4°C | 1% | 110.1hPa | 2.6V | 08:03:27 | 02:31:11 | 00:00:00 | |
| DO3MHA-12 | 2026-09-03 13:00:44 | 48.31328 | 10.30723 | 104° | 47km/h | 16000m | -5.9m/s | -57.3°C | 4.7% | 110.0hPa | 2.6V | 00:00:00 | 02:31:10 | 00:00:00 | |
| DM7RM-13 | 2026-09-03 13:00:42 | 48.31332 | 10.30697 | 99° | 69km/h | 16006m | -6.1m/s | -57.4°C | 1.6% | 109.9hPa | 2.5V | 08:03:00 | 00:00:00 | 00:00:00 | |
| DM0DOS-11 | 2026-09-03 13:00:40 | 48.31335 | 10.30579 | 122° | 27km/h | 16047m | -5.8m/s | -57.1°C | 4.8% | 109.2hPa | 2.5V | 08:02:52 | 02:31:02 | 00:00:00 | |
| DK7TD | 2026-09-03 13:00:35 | 48.31340 | 10.30570 | 134° | 33km/h | 16053m | -5.7m/s | -57.1°C | 1% | 109.1hPa | 2.6V | 08:03:27 | 02:31:01 | 00:00:00 | |
| DO3MHA-12 | 2026-09-03 13:00:34 | 48.31347 | 10.30560 | 139° | 68km/h | 16058m | -5.5m/s | -57.1°C | 4.9% | 109.0hPa | 2.6V | 00:00:00 | 02:31:00 | 00:00:00 | |
| DJ8HS-15 | 2026-09-03 13:00:32 | 48.31365 | 10.30535 | 136° | 60km/h | 16069m | -5.6m/s | -57.2°C | 4.9% | 108.8hPa | 2.6V | 00:00:00 | 02:30:58 | 00:00:00 | |
| DM0DOS-11 | 2026-09-03 13:00:30 | 48.31428 | 10.30366 | 101° | 77km/h | 16110m | -5.8m/s | -57.2°C | 4.6% | 108.1hPa | 2.6V | 08:03:03 | 02:30:51 | 00:00:00 | |
| DF1GD-15 | 2026-09-03 13:00:29 | 48.31387 | 10.30497 | 128° | 71km/h | 16080m | -5.7m/s | -57.3°C | 1.6% | 108.6hPa | 2.5V | 08:03:00 | 00:00:00 | 00:00:00 | |
| IW2NTF | 2026-09-03 13:00:28 | 48.31432 | 10.30313 | 91° | 64km/h | 16121m | -5.5m/s | -57.4°C | 4.6% | 107.9hPa | 2.5V | 08:03:05 | 02:30:49 | 00:00:00 | |
| DK7TD | 2026-09-03 13:00:25 | 48.31428 | 10.30366 | 102° | 77km/h | 16110m | -5.8m/s | -57.2°C | 0.8% | 108.1hPa | 2.6V | 08:03:27 | 02:30:51 | 00:00:00 | |
| DO3MHA-12 | 2026-09-03 13:00:24 | 48.31431 | 10.30338 | 97° | 49km/h | 16116m | -5.5m/s | -57.3°C | 4.6% | 108.0hPa | 2.6V | 00:00:00 | 02:30:50 | 00:00:00 | |
| DM7RM-13 | 2026-09-03 13:00:21 | 48.31432 | 10.30290 | 90° | 55km/h | 16127m | -5.2m/s | -57.4°C | 1.5% | 107.9hPa | 2.6V | 08:03:00 | 00:00:00 | 00:00:00 | |
| DM0DOS-11 | 2026-09-03 13:00:20 | 48.31461 | 10.30193 | 137° | 55km/h | 16165m | -6m/s | -57.1°C | 5% | 107.1hPa | 2.6V | 08:03:13 | 02:30:41 | 00:00:00 | |
| IW2NTF | 2026-09-03 13:00:20 | 48.31483 | 10.30160 | 133° | 69km/h | 16177m | -5.8m/s | -57.1°C | 5% | 107hPa | 2.5V | 08:03:15 | 02:30:39 | 00:00:00 | |
| DK7TD | 2026-09-03 13:00:14 | 48.31472 | 10.30178 | 136° | 62km/h | 16171m | -6.2m/s | -57.1°C | 0.9% | 107.1hPa | 2.6V | 08:03:27 | 02:30:40 | 00:00:00 | |
| DO3MHA-12 | 2026-09-03 13:00:14 | 48.31472 | 10.30178 | 137° | 78km/h | 16171m | -6.1m/s | -57.1°C | 4.9% | 107.0hPa | 2.6V | 08:03:00 | 02:30:40 | 00:00:00 | |
| DJ8HS-15 | 2026-09-03 13:00:12 | 48.31496 | 10.30140 | 131° | 71km/h | 16183m | -5.6m/s | -57.1°C | 4.9% | 106.8hPa | 2.5V | 00:00:00 | 02:30:38 | 00:00:00 | |
| OE5DXL-15 | 2026-09-03 13:00:10 | 48.31519 | 10.30090 | 122° | 69km/h | 16194m | -5.7m/s | -57.0°C | 4.8% | 106.6hPa | 2.5V | 00:00:00 | 00:00:00 | 00:00:00 | |
| DM0DOS-11 | 2026-09-03 13:00:09 | 48.31555 | 10.29939 | 97° | 77km/h | 16223m | -6.3m/s | -56.7°C | 4.3% | 106.1hPa | 2.5V | 08:03:23 | 02:30:31 | 00:00:00 | |
| IW2NTF | 2026-09-03 13:00:07 | 48.31559 | 10.29864 | 96° | 53km/h | 16241m | -5.5m/s | -56.6°C | 4.5% | 105.9hPa | 2.6V | 08:03:26 | 02:30:28 | 00:00:00 | |
| DK7TD | 2026-09-03 13:00:03 | 48.31558 | 10.29886 | 94° | 62km/h | 16236m | -5.9m/s | -56.6°C | 0.6% | 106hPa | 2.6V | 08:03:27 | 02:30:29 | 00:00:00 | |
| DF7PN | 2026-09-03 13:00:01 | 48.31566 | 10.29829 | 117° | 44km/h | 16252m | -4.9m/s | -56.5°C | 1.4% | 105.7hPa | 2.5V | 00:00:00 | 00:00:00 | 00:00:00 | |
| DM0DOS-11 | 2026-09-03 12:59:57 | 48.31633 | 10.29727 | 132° | 82km/h | 16287m | -6.6m/s | 0°C | 0% | 0hPa | 2.5V | 08:03:34 | 02:30:20 | 00:00:00 | |
| DK7TD | 2026-09-03 12:59:52 | 48.31660 | 10.29675 | 123° | 91km/h | 16300m | -5.7m/s | -56.7°C | 0.9% | 104.9hPa | 2.6V | 08:04:18 | 02:30:18 | 00:00:00 | |
| DB0ND-19 | 2026-09-03 12:59:49 | 48.31688 | 10.29582 | 105° | 84km/h | 16315m | -5.2m/s | -56.8°C | 1.4% | 104.6hPa | 2.5V | 00:00:00 | 00:00:00 | 00:00:00 | |
| DL6DJ-15 | 2026-09-03 12:59:47 | 48.31699 | 10.29502 | 102° | 58km/h | 16332m | -5.9m/s | -56.6°C | 1.4% | 104.4hPa | 2.5V | 00:00:00 | 00:00:00 | 00:00:00 | |
| DK7TD | 2026-09-03 12:59:42 | 48.31730 | 10.29422 | 140° | 53km/h | 16363m | -6.6m/s | -56°C | 0.6% | 103.9hPa | 2.5V | 08:04:18 | 02:30:07 | 00:00:00 | |
| DK7TD | 2026-09-03 12:59:31 | 48.31857 | 10.29199 | 109° | 80km/h | 16424m | -6m/s | -55.9°C | 0.5% | 102.9hPa | 2.6V | 08:04:18 | 02:29:57 | 00:00:00 | |
| DK7TD | 2026-09-03 12:59:20 | 48.31928 | 10.29015 | 145° | 69km/h | 16494m | -6.2m/s | -55.7°C | 0.6% | 101.7hPa | 2.6V | 08:04:18 | 02:29:46 | 00:00:00 | |
| BIOWL1-15 | 2026-09-03 12:59:10 | 48.32019 | 10.28778 | 97° | 49km/h | 16558m | -6.6m/s | 0°C | 0% | 0hPa | 2.5V | 08:04:18 | 02:29:36 | 00:00:00 | |
| BIOWL1-15 | 2026-09-03 12:59:04 | 48.32102 | 10.28648 | 136° | 78km/h | 16623m | -6.7m/s | 0°C | 0% | 0hPa | 2.5V | 18:12:15 | 02:29:26 | 00:00:00 | |
| DK7TD | 2026-09-03 12:58:59 | 48.32116 | 10.28626 | 131° | 82km/h | 16630m | -6.6m/s | -55.9°C | 0.6% | 99.6hPa | 2.5V | 08:05:09 | 02:29:25 | 00:00:00 | |
| DK7TD | 2026-09-03 12:58:48 | 48.32173 | 10.28393 | 129° | 31km/h | 16704m | -6.7m/s | -56°C | 0.6% | 98.4hPa | 2.5V | 08:05:09 | 02:29:14 | 00:00:00 | |
| DB0ND-19 | 2026-09-03 12:58:47 | 48.32187 | 10.28376 | 147° | 44km/h | 16717m | -6.6m/s | -55.9°C | 1.3% | 98.2hPa | 2.5V | 00:00:00 | 00:00:00 | 00:00:00 | |
| DB0NH | 2026-09-03 12:58:46 | 48.32187 | 10.28376 | 148° | 60km/h | 16717m | -6.5m/s | -55.9°C | 4.5% | 98.1hPa | 2.5V | 00:00:00 | 02:29:12 | 00:00:00 | |
| AZAK | 2026-09-03 12:58:45 | 48.32209 | 10.28354 | 145° | 62km/h | 16730m | -6.3m/s | -55.9°C | 1.4% | 98.0hPa | 2.5V | 08:05:00 | 00:00:00 | 00:00:00 | |
| DO3MHA-12 | 2026-09-03 12:58:44 | 48.32209 | 10.28354 | 145° | 73km/h | 16730m | -6.3m/s | -55.9°C | 4.6% | 98.0hPa | 2.5V | 08:04:00 | 02:29:10 | 00:00:00 | |
| IW2NTF | 2026-09-03 12:58:42 | 48.32278 | 10.28188 | 100° | 73km/h | 16776m | -7.2m/s | -56.3°C | 4.3% | 97.3hPa | 2.5V | 08:04:51 | 02:29:03 | 00:00:00 | |
| DK7TD | 2026-09-03 12:58:37 | 48.32278 | 10.28188 | 101° | 73km/h | 16776m | -7.2m/s | -56.3°C | 0.5% | 97.3hPa | 2.5V | 08:05:09 | 02:29:03 | 00:00:00 | |
| DK7TD | 2026-09-03 12:58:26 | 48.32320 | 10.28024 | 143° | 57km/h | 16850m | -7.2m/s | -56°C | 0.6% | 96.2hPa | 2.5V | 08:05:09 | 02:28:52 | 00:00:00 | |
| DO3MHA-12 | 2026-09-03 12:58:24 | 48.32343 | 10.27992 | 134° | 68km/h | 16865m | -6.7m/s | -56.1°C | 4.4% | 95.9hPa | 2.5V | 00:00:00 | 02:28:50 | 00:00:00 | |
| AZAK | 2026-09-03 12:58:23 | 48.32343 | 10.27992 | 134° | 69km/h | 16865m | -6.7m/s | -56.1°C | 1.4% | 96.0hPa | 2.5V | 08:05:00 | 00:00:00 | 00:00:00 | |
| IW2NTF | 2026-09-03 12:58:19 | 48.32392 | 10.27777 | 90° | 42km/h | 16924m | -6.8m/s | -56.3°C | 4.3% | 95.1hPa | 2.5V | 08:05:13 | 02:28:41 | 00:00:00 | |
| DK7TD | 2026-09-03 12:58:16 | 48.32392 | 10.27795 | 90° | 51km/h | 16918m | -6.8m/s | -56.3°C | 0.6% | 95.1hPa | 2.5V | 08:06:00 | 02:28:42 | 00:00:00 | |
| DK7TD | 2026-09-03 12:58:06 | 48.32465 | 10.27676 | 139° | 73km/h | 16986m | -7m/s | -56.9°C | 0.7% | 94.2hPa | 2.6V | 08:06:00 | 02:28:32 | 00:00:00 | |
| DK7TD | 2026-09-03 12:57:55 | 48.32530 | 10.27440 | 105° | 27km/h | 17059m | -7.2m/s | -57.2°C | 0.7% | 93.1hPa | 2.5V | 08:06:00 | 02:28:21 | 00:00:00 | |
| NBG1-10 | 2026-09-03 12:57:55 | 48.32530 | 10.27440 | 105° | 44km/h | 17059m | -7.1m/s | -57.2°C | 4.5% | 93.0hPa | 2.5V | 08:05:00 | 02:28:21 | 00:00:00 | |
| DO3MHA-12 | 2026-09-03 12:57:54 | 48.32532 | 10.27431 | 123° | 51km/h | 17066m | -6.9m/s | -57.2°C | 4.4% | 92.9hPa | 2.5V | 00:00:00 | 02:28:20 | 00:00:00 | |
| DJ8HS-15 | 2026-09-03 12:57:52 | 48.32542 | 10.27418 | 152° | 49km/h | 17081m | -7.2m/s | -57.3°C | 4.4% | 92.7hPa | 2.5V | 00:00:00 | 02:28:18 | 00:00:00 | |
| DM0DOS-11 | 2026-09-03 12:57:51 | 48.32561 | 10.27405 | 154° | 49km/h | 17094m | -6.5m/s | -57.4°C | 4.5% | 92.5hPa | 2.5V | 08:05:38 | 02:28:16 | 00:00:00 | |
| DK7TD | 2026-09-03 12:57:45 | 48.32622 | 10.27324 | 123° | 73km/h | 17126m | -6.7m/s | -57.5°C | 0.7% | 92.1hPa | 2.5V | 08:06:00 | 02:28:11 | 00:00:00 | |
| DB0ND-19 | 2026-09-03 12:57:45 | 48.32631 | 10.27300 | 115° | 71km/h | 17133m | -6.6m/s | -57.5°C | 1.4% | 92.0hPa | 2.6V | 00:00:00 | 00:00:00 | 00:00:00 | |
| DK7TD | 2026-09-03 12:57:35 | 48.32653 | 10.27152 | 126° | 26km/h | 17192m | -6.6m/s | -57.8°C | 0.7% | 91.1hPa | 2.6V | 08:06:00 | 02:28:01 | 00:00:00 | |
| PG1ADW-2 | 2026-09-03 12:57:35 | 48.32653 | 10.27152 | 126° | 40km/h | 17192m | -6.5m/s | -57.7°C | 4.7% | 91.1hPa | 2.5V | 00:00:00 | 02:28:01 | 00:00:00 | |
| DO3MHA-12 | 2026-09-03 12:57:34 | 48.32658 | 10.27144 | 138° | 40km/h | 17198m | -6.2m/s | -57.8°C | 4.7% | 91.0hPa | 2.5V | 00:00:00 | 02:28:00 | 00:00:00 | |
| DJ8HS-15 | 2026-09-03 12:57:32 | 48.32672 | 10.27129 | 150° | 37km/h | 17210m | -5.6m/s | -57.9°C | 4.7% | 90.8hPa | 2.5V | 00:00:00 | 02:27:58 | 00:00:00 | |
| DM0DOS-11 | 2026-09-03 12:57:31 | 48.32714 | 10.27097 | 156° | 44km/h | 17235m | -6.6m/s | -58.2°C | 4.8% | 90.5hPa | 2.5V | 08:06:00 | 02:27:54 | 00:00:00 | |
| DK7TD | 2026-09-03 12:57:24 | 48.32746 | 10.27076 | 152° | 26km/h | 17261m | -6.3m/s | -58.3°C | 0.7% | 90.2hPa | 2.6V | 08:06:51 | 02:27:50 | 00:00:00 | |
| DK7TD | 2026-09-03 12:57:13 | 48.32795 | 10.26960 | 120° | 44km/h | 17329m | -6.3m/s | -57.6°C | 0.6% | 89.2hPa | 2.5V | 08:06:51 | 02:27:39 | 00:00:00 | |
| DL9SK-14 | 2026-09-03 12:57:12 | 48.32808 | 10.26930 | 126° | 49km/h | 17342m | -5.8m/s | -57.6°C | 1.4% | 89.0hPa | 2.5V | 00:00:00 | 00:00:00 | 00:00:00 | |
| DM0DOS-11 | 2026-09-03 12:57:11 | 48.32824 | 10.26901 | 131° | 49km/h | 17354m | -5.9m/s | -57.6°C | 4.8% | 88.8hPa | 2.5V | 08:06:19 | 02:27:35 | 00:00:00 | |
| OE5DXL-15 | 2026-09-03 12:57:10 | 48.32816 | 10.26915 | 130° | 33km/h | 17348m | -6.2m/s | -57.5°C | 4.7% | 88.9hPa | 2.5V | 00:00:00 | 00:00:00 | 00:00:00 | |
| DK5PH-5 | 2026-09-03 12:57:07 | 48.32842 | 10.26874 | 140° | 29km/h | 17367m | -5.7m/s | -57.6°C | 4.7% | 88.6hPa | 2.5V | 00:00:00 | 02:27:33 | 00:00:00 | |
| IW2NTF | 2026-09-03 12:57:04 | 48.32905 | 10.26814 | 152° | 47km/h | 17404m | -6.1m/s | -57.6°C | 4.6% | 88.1hPa | 2.5V | 08:06:27 | 02:27:27 | 00:00:00 | |
| DK7TD | 2026-09-03 12:57:03 | 48.32884 | 10.26831 | 151° | 49km/h | 17391m | -6m/s | -57.8°C | 0.6% | 88.3hPa | 2.6V | 08:06:51 | 02:27:29 | 00:00:00 | |
| AZAK | 2026-09-03 12:57:00 | 48.32905 | 10.26814 | 154° | 47km/h | 17404m | -6.1m/s | -57.6°C | 1.3% | 88.1hPa | 2.5V | 08:06:00 | 00:00:00 | 00:00:00 | |
| DO3MHA-11 | 2026-09-03 12:56:57 | 48.32944 | 10.26790 | 162° | 24km/h | 17429m | -5.8m/s | -57.3°C | 4.4% | 87.7hPa | 2.5V | 08:06:00 | 02:27:23 | 00:00:00 | |
| DM7RM-13 | 2026-09-03 12:56:56 | 48.32944 | 10.26790 | 162° | 35km/h | 17429m | -5.9m/s | -57.3°C | 1.3% | 87.8hPa | 2.6V | 08:06:00 | 00:00:00 | 00:00:00 | |
| IW2NTF | 2026-09-03 12:56:54 | 48.32982 | 10.26772 | 155° | 18km/h | 17467m | -6.1m/s | -57.3°C | 4.5% | 87.2hPa | 2.6V | 08:06:37 | 02:27:17 | 00:00:00 | |
| DK7TD | 2026-09-03 12:56:52 | 48.32978 | 10.26775 | 158° | 22km/h | 17460m | -6.5m/s | -57.3°C | 0.5% | 87.4hPa | 2.6V | 08:06:51 | 02:27:18 | 00:00:00 | |
| DJ8HS-15 | 2026-09-03 12:56:52 | 48.32977 | 10.26775 | 159° | 22km/h | 17461m | -6.5m/s | -57.3°C | 4.5% | 87.3hPa | 2.6V | 00:00:00 | 02:27:18 | 00:00:00 | |
| NBG1-10 | 2026-09-03 12:56:49 | 48.32990 | 10.26765 | 148° | 33km/h | 17479m | -5.8m/s | -57.3°C | 4.5% | 87.0hPa | 2.6V | 00:00:00 | 02:27:15 | 00:00:00 | |
| DO3MHA-11 | 2026-09-03 12:56:47 | 48.32997 | 10.26758 | 136° | 20km/h | 17492m | -6.2m/s | -57.2°C | 4.5% | 86.9hPa | 2.6V | 00:00:00 | 02:27:13 | 00:00:00 | |
| DB0UT-7 | 2026-09-03 12:56:46 | 48.32999 | 10.26754 | 132° | 35km/h | 17498m | -6.0m/s | -57.1°C | 4.5% | 86.8hPa | 2.6V | 00:00:00 | 00:00:00 | 00:00:00 | |
| IW2NTF | 2026-09-03 12:56:44 | 48.33007 | 10.26726 | 104° | 20km/h | 17528m | -6.8m/s | -57.1°C | 4.5% | 86.4hPa | 2.6V | 08:06:47 | 02:27:07 | 00:00:00 | |
| DK7TD | 2026-09-03 12:56:42 | 48.33006 | 10.26733 | 106° | 18km/h | 17522m | -5.8m/s | -57°C | 0.5% | 86.5hPa | 2.6V | 08:06:51 | 02:27:08 | 00:00:00 | |
| DL9SK-14 | 2026-09-03 12:56:41 | 48.33008 | 10.26718 | 99° | 24km/h | 17535m | -5.8m/s | -57.1°C | 1.2% | 86.3hPa | 2.5V | 00:00:00 | 00:00:00 | 00:00:00 | |
| OE5DXL-15 | 2026-09-03 12:56:40 | 48.33008 | 10.26718 | 100° | 44km/h | 17535m | -5.8m/s | -57.0°C | 4.4% | 86.3hPa | 2.5V | 00:00:00 | 00:00:00 | 00:00:00 | |
| AZAK | 2026-09-03 12:56:39 | 48.33008 | 10.26718 | 100° | 24km/h | 17535m | -5.8m/s | -57.1°C | 1.2% | 86.3hPa | 2.6V | 08:06:00 | 00:00:00 | 00:00:00 | |
| DO3MHA-11 | 2026-09-03 12:56:37 | 48.33011 | 10.26686 | 99° | 35km/h | 17553m | -6.1m/s | -57.0°C | 4.3% | 86.0hPa | 2.6V | 00:00:00 | 02:27:03 | 00:00:00 | |
| DM7RM-13 | 2026-09-03 12:56:35 | 48.33013 | 10.26675 | 100° | 33km/h | 17560m | -6.2m/s | -57.0°C | 1.2% | 86.0hPa | 2.6V | 08:07:00 | 00:00:00 | 00:00:00 | |
| IW2NTF | 2026-09-03 12:56:34 | 48.33019 | 10.26612 | 98° | 35km/h | 17590m | -5.5m/s | -57.1°C | 4.3% | 85.6hPa | 2.6V | 08:06:57 | 02:26:57 | 00:00:00 | |
| DK7TD | 2026-09-03 12:56:32 | 48.33018 | 10.26625 | 98° | 35km/h | 17584m | -6.3m/s | -57.1°C | 0.4% | 85.7hPa | 2.6V | 08:07:42 | 02:26:58 | 00:00:00 | |
| DJ8HS-15 | 2026-09-03 12:56:32 | 48.33018 | 10.26625 | 99° | 49km/h | 17584m | -6.3m/s | -57.0°C | 4.3% | 85.6hPa | 2.6V | 00:00:00 | 02:26:58 | 00:00:00 | |
| DO3MHA-11 | 2026-09-03 12:56:27 | 48.33023 | 10.26553 | 97° | 47km/h | 17614m | -5.9m/s | -57.0°C | 4.3% | 85.2hPa | 2.6V | 00:00:00 | 02:26:53 | 00:00:00 | |
| IW2NTF | 2026-09-03 12:56:24 | 48.33030 | 10.26453 | 96° | 49km/h | 17651m | -6.2m/s | -57.5°C | 4.6% | 84.7hPa | 2.6V | 08:07:07 | 02:26:47 | 00:00:00 | |
| DK7TD | 2026-09-03 12:56:22 | 48.33029 | 10.26453 | 97° | 49km/h | 17651m | -6.2m/s | -57.5°C | 0.5% | 84.7hPa | 2.6V | 08:07:42 | 02:26:47 | 00:00:00 | |
| DM0DOS-11 | 2026-09-03 12:56:19 | 48.33038 | 10.26372 | 100° | 58km/h | 17675m | -6.4m/s | -57.5°C | 4.6% | 84.4hPa | 2.5V | 08:07:11 | 02:26:43 | 00:00:00 | |
| OE5DRO-10 | 2026-09-03 12:56:18 | 48.33035 | 10.26393 | 100° | 62km/h | 17670m | -5.8m/s | -57.5°C | 4.6% | 84.5hPa | 2.5V | 08:07:00 | 00:00:00 | 00:00:00 | |
| DO3MHA-11 | 2026-09-03 12:56:17 | 48.33037 | 10.26372 | 101° | 64km/h | 17676m | -6.4m/s | -57.5°C | 4.6% | 84.4hPa | 2.5V | 00:00:00 | 02:26:43 | 00:00:00 | |
| DB0UT-7 | 2026-09-03 12:56:16 | 48.33040 | 10.26349 | 100° | 57km/h | 17682m | -5.9m/s | -57.4°C | 4.5% | 84.3hPa | 2.5V | 00:00:00 | 02:26:42 | 00:00:00 | |
| IW2NTF | 2026-09-03 12:56:14 | 48.33059 | 10.26234 | 109° | 66km/h | 17712m | -6.3m/s | -57.2°C | 4.3% | 83.9hPa | 2.5V | 08:07:17 | 02:26:37 | 00:00:00 | |
| DO3MHA-12 | 2026-09-03 12:56:14 | 48.33045 | 10.26304 | 103° | 66km/h | 17694m | -6.1m/s | -57.4°C | 4.4% | 84.1hPa | 2.6V | 00:00:00 | 02:26:40 | 00:00:00 | |
| DM0DOS-11 | 2026-09-03 12:56:12 | 48.33094 | 10.26119 | 118° | 64km/h | 17743m | -6.1m/s | -57.2°C | 4.4% | 83.5hPa | 2.6V | 08:07:22 | 02:26:32 | 00:00:00 | |
| DK7TD | 2026-09-03 12:56:11 | 48.33059 | 10.26234 | 110° | 66km/h | 17712m | -6.3m/s | -57.2°C | 0.3% | 83.9hPa | 2.5V | 08:07:42 | 02:26:37 | 00:00:00 | |
| DB0NH | 2026-09-03 12:56:11 | 48.33059 | 10.26234 | 110° | 55km/h | 17713m | -6.3m/s | -57.2°C | 4.3% | 83.9hPa | 2.6V | 00:00:00 | 02:26:37 | 00:00:00 | |
| DL9SK-14 | 2026-09-03 12:56:10 | 48.33072 | 10.26187 | 114° | 68km/h | 17724m | -6.4m/s | -57.2°C | 1.1% | 83.8hPa | 2.6V | 00:00:00 | 00:00:00 | 00:00:00 | |
| DL6DJ-15 | 2026-09-03 12:56:09 | 48.33072 | 10.26187 | 114° | 68km/h | 17724m | -6.4m/s | -57.2°C | 1.1% | 83.8hPa | 2.6V | 00:00:00 | 00:00:00 | 00:00:00 | |
| DO3MHA-11 | 2026-09-03 12:56:07 | 48.33086 | 10.26141 | 117° | 55km/h | 17737m | -6.5m/s | -57.3°C | 4.4% | 83.6hPa | 2.6V | 00:00:00 | 02:26:33 | 00:00:00 | |
| IW2NTF | 2026-09-03 12:56:04 | 48.33130 | 10.26021 | 121° | 53km/h | 17773m | -6.1m/s | -57.3°C | 4.6% | 83.2hPa | 2.6V | 08:07:27 | 02:26:27 | 00:00:00 | |
| DK7TD | 2026-09-03 12:56:00 | 48.33137 | 10.26004 | 123° | 51km/h | 17779m | -5.5m/s | -57.3°C | 0.5% | 83.1hPa | 2.5V | 08:07:42 | 02:26:26 | 00:00:00 | |
| DL1NUX | 2026-09-03 12:56:00 | 48.33167 | 10.25946 | 129° | 49km/h | 17802m | -5.7m/s | -57.5°C | 4.7% | 82.7hPa | 2.6V | 08:30:00 | 02:26:22 | 00:00:00 | |
| OE5DRO-10 | 2026-09-03 12:55:59 | 48.33145 | 10.25988 | 126° | 49km/h | 17785m | -6.2m/s | -57.4°C | 4.6% | 82.9hPa | 2.5V | 00:00:00 | 00:00:00 | 00:00:00 | |
| AZAK | 2026-09-03 12:55:58 | 48.33144 | 10.25988 | 126° | 49km/h | 17785m | -6.3m/s | -57.5°C | 1.2% | 83.0hPa | 2.5V | 08:07:00 | 00:00:00 | 00:00:00 | |
| DO3MHA-11 | 2026-09-03 12:55:57 | 48.33159 | 10.25960 | 129° | 49km/h | 17797m | -6.2m/s | -57.5°C | 4.7% | 82.8hPa | 2.5V | 00:00:00 | 02:26:23 | 00:00:00 | |
| IW2NTF | 2026-09-03 12:55:56 | 48.33205 | 10.25876 | 130° | 49km/h | 17834m | -6.2m/s | -57.5°C | 4.7% | 82.3hPa | 2.5V | 08:07:37 | 02:26:17 | 00:00:00 | |
| DO3MHA-12 | 2026-09-03 12:55:54 | 48.33182 | 10.25918 | 130° | 49km/h | 17816m | -6.0m/s | -57.6°C | 4.8% | 82.5hPa | 2.6V | 00:00:00 | 02:26:20 | 00:00:00 | |
| DM0DOS-11 | 2026-09-03 12:55:52 | 48.33231 | 10.25833 | 133° | 51km/h | 17852m | -6.3m/s | -56.5°C | 4.3% | 82.1hPa | 2.6V | 08:07:40 | 02:26:14 | 00:00:00 | |
| DK7TD | 2026-09-03 12:55:49 | 48.33222 | 10.25848 | 132° | 51km/h | 17845m | -5.6m/s | -56.8°C | 0.3% | 82.1hPa | 2.6V | 08:07:42 | 02:26:15 | 00:00:00 | |
| DO3MHA-11 | 2026-09-03 12:55:47 | 48.33240 | 10.25819 | 136° | 51km/h | 17858m | -6.2m/s | -56.4°C | 4.3% | 82.0hPa | 2.5V | 00:00:00 | 02:26:13 | 00:00:00 | |
| DB0UT-7 | 2026-09-03 12:55:46 | 48.33249 | 10.25806 | 138° | 37km/h | 17864m | -6.0m/s | -56.3°C | 4.3% | 81.9hPa | 2.5V | 00:00:00 | 00:00:00 | 00:00:00 | |
| DO3MHA-12 | 2026-09-03 12:55:44 | 48.33269 | 10.25780 | 139° | 49km/h | 17876m | -6.0m/s | -56.2°C | 4.2% | 81.7hPa | 2.5V | 08:07:00 | 02:26:10 | 00:00:00 | |
| NBG1-10 | 2026-09-03 12:55:43 | 48.33279 | 10.25767 | 140° | 29km/h | 17882m | -6.4m/s | -56.2°C | 4.2% | 81.7hPa | 2.5V | 00:00:00 | 02:26:09 | 00:00:00 | |
| PG1ADW-2 | 2026-09-03 12:55:42 | 48.33288 | 10.25754 | 141° | 33km/h | 17889m | -6.2m/s | -56.2°C | 4.2% | 81.6hPa | 2.5V | 00:00:00 | 00:00:00 | 00:00:00 | |
| DB0NH | 2026-09-03 12:55:41 | 48.33298 | 10.25742 | 142° | 29km/h | 17895m | -5.9m/s | -56.2°C | 4.2% | 81.5hPa | 2.5V | 00:00:00 | 02:26:07 | 00:00:00 | |
| OE5DXL-15 | 2026-09-03 12:55:40 | 48.33308 | 10.25730 | 143° | 27km/h | 17901m | -5.9m/s | -56.2°C | 4.2% | 81.4hPa | 2.5V | 00:00:00 | 00:00:00 | 00:00:00 | |
| DM0DOS-11 | 2026-09-03 12:55:39 | 48.33328 | 10.25710 | 146° | 47km/h | 17912m | -6.2m/s | -56.2°C | 4.1% | 81.3hPa | 2.5V | 08:07:50 | 02:26:04 | 00:00:00 | |
| DK7TD | 2026-09-03 12:55:38 | 48.33328 | 10.25710 | 146° | 47km/h | 17912m | -6.3m/s | -56.2°C | 0.2% | 81.3hPa | 2.5V | 08:08:33 | 02:26:04 | 00:00:00 | |
| DK5PH-5 | 2026-09-03 12:55:37 | 48.33338 | 10.25700 | 149° | 24km/h | 17919m | -5.8m/s | -56.2°C | 4.1% | 81.2hPa | 2.5V | 00:00:00 | 02:26:03 | 00:00:00 | |
| DM7RM-13 | 2026-09-03 12:55:35 | 48.33358 | 10.25682 | 153° | 44km/h | 17931m | -6.5m/s | -56.2°C | 1.1% | 81.1hPa | 2.6V | 08:08:00 | 00:00:00 | 00:00:00 | |
| DO3MHA-12 | 2026-09-03 12:55:34 | 48.33368 | 10.25675 | 153° | 33km/h | 17938m | -6.4m/s | -56.1°C | 4.0% | 80.9hPa | 2.6V | 00:00:00 | 02:26:00 | 00:00:00 | |
| DM0DOS-11 | 2026-09-03 12:55:33 | 48.33416 | 10.25641 | 154° | 29km/h | 17976m | -6.4m/s | -56°C | 4.2% | 80.5hPa | 2.6V | 08:08:00 | 02:25:54 | 00:00:00 | |
| DK7TD | 2026-09-03 12:55:27 | 48.33423 | 10.25636 | 150° | 26km/h | 17982m | -5.9m/s | -56°C | 0.3% | 80.4hPa | 2.6V | 08:08:33 | 02:25:53 | 00:00:00 | |
| DO3MHA-11 | 2026-09-03 12:55:27 | 48.33423 | 10.25636 | 151° | 22km/h | 17982m | -5.9m/s | -55.9°C | 4.2% | 80.4hPa | 2.6V | 08:08:00 | 02:25:53 | 00:00:00 | |
| DO3MHA-12 | 2026-09-03 12:55:24 | 48.33438 | 10.25620 | 143° | 18km/h | 18001m | -6.5m/s | -55.7°C | 4.1% | 80.2hPa | 2.5V | 00:00:00 | 02:25:50 | 00:00:00 | |
| DF1GD-15 | 2026-09-03 12:55:22 | 48.33442 | 10.25615 | 137° | 22km/h | 18007m | -5.9m/s | -55.7°C | 1.0% | 80.1hPa | 2.5V | 08:08:00 | 00:00:00 | 00:00:00 | |
| DF7PN | 2026-09-03 12:55:21 | 48.33449 | 10.25603 | 130° | 18km/h | 18019m | -5.9m/s | -55.7°C | 1.0% | 80.0hPa | 2.5V | 00:00:00 | 00:00:00 | 00:00:00 | |
| DM0DOS-11 | 2026-09-03 12:55:19 | 48.33458 | 10.25586 | 122° | 18km/h | 18038m | -6.6m/s | -55.7°C | 4.1% | 79.7hPa | 2.5V | 08:08:10 | 02:25:44 | 00:00:00 | |
| DK7TD | 2026-09-03 12:55:17 | 48.33460 | 10.25581 | 127° | 16km/h | 18045m | -6.1m/s | -55.7°C | 0.1% | 79.7hPa | 2.5V | 08:08:33 | 02:25:43 | 00:00:00 | |
| DO3MHA-11 | 2026-09-03 12:55:17 | 48.33460 | 10.25581 | 128° | 15km/h | 18045m | -6.1m/s | -55.7°C | 4.0% | 79.6hPa | 2.6V | 00:00:00 | 02:25:43 | 00:00:00 | |
| DB0UT-7 | 2026-09-03 12:55:16 | 48.33462 | 10.25576 | 127° | 35km/h | 18051m | -6.9m/s | -55.7°C | 4.0% | 79.5hPa | 2.6V | 00:00:00 | 02:25:42 | 00:00:00 | |
| DO3MHA-12 | 2026-09-03 12:55:14 | 48.33466 | 10.25568 | 125° | 16km/h | 18064m | -6.2m/s | -55.7°C | 4.0% | 79.3hPa | 2.6V | 00:00:00 | 02:25:40 | 00:00:00 | |
| DM7RM-13 | 2026-09-03 12:55:13 | 48.33466 | 10.25568 | 126° | 13km/h | 18064m | -6.3m/s | -55.8°C | 1.0% | 79.4hPa | 2.6V | 08:08:00 | 00:00:00 | 00:00:00 | |
| DM0DOS-11 | 2026-09-03 12:55:12 | 48.33473 | 10.25540 | 91° | 16km/h | 18104m | -6.5m/s | -55.6°C | 4% | 78.9hPa | 2.6V | 08:08:20 | 02:25:34 | 00:00:00 | |
| DK7TD | 2026-09-03 12:55:07 | 48.33473 | 10.25534 | 90° | 20km/h | 18110m | -6.8m/s | -55.5°C | 0.2% | 78.8hPa | 2.6V | 08:08:33 | 02:25:33 | 00:00:00 | |
| DK7TD | 2026-09-03 12:54:57 | 48.33486 | 10.25400 | 107° | 51km/h | 18177m | -7.8m/s | -55.4°C | 0.1% | 78hPa | 2.5V | 08:08:33 | 02:25:23 | 00:00:00 | |
| DK7TD | 2026-09-03 12:54:46 | 48.33577 | 10.25238 | 147° | 46km/h | 18249m | -6.1m/s | -55.6°C | 0.1% | 77.1hPa | 2.6V | 08:09:24 | 02:25:12 | 00:00:00 | |
| DK7TD | 2026-09-03 12:54:35 | 48.33658 | 10.25165 | 141° | 22km/h | 18322m | -6.8m/s | -55.1°C | 0% | 76.2hPa | 2.5V | 08:09:24 | 02:25:01 | 00:00:00 | |
| DK7TD | 2026-09-03 12:54:24 | 48.33695 | 10.25061 | 114° | 40km/h | 18396m | -7.2m/s | -55.1°C | 0% | 75.4hPa | 2.6V | 08:09:24 | 02:24:50 | 00:00:00 | |
| DK7TD | 2026-09-03 12:54:14 | 48.33748 | 10.24911 | 126° | 49km/h | 18463m | -6.6m/s | -55.4°C | 0.1% | 74.6hPa | 2.5V | 08:09:24 | 02:24:40 | 00:00:00 | |
| DK7TD | 2026-09-03 12:54:04 | 48.33851 | 10.24799 | 158° | 49km/h | 18532m | -7.3m/s | -55.5°C | 0.2% | 73.8hPa | 2.6V | 08:09:24 | 02:24:30 | 00:00:00 | |
| NBG1-10 | 2026-09-03 12:54:04 | 48.33851 | 10.24799 | 158° | 16km/h | 18533m | -7.3m/s | -55.5°C | 4.1% | 73.7hPa | 2.6V | 00:00:00 | 02:24:30 | 00:00:00 | |
| PG1ADW-2 | 2026-09-03 12:53:59 | 48.33901 | 10.24779 | 172° | 13km/h | 18568m | -7.5m/s | -55.3°C | 4.0% | 73.3hPa | 2.6V | 00:00:00 | 00:00:00 | 00:00:00 | |
| DN1GJH-1 | 2026-09-03 12:53:58 | 48.33901 | 10.24779 | 173° | 33km/h | 18568m | -7.6m/s | -55.4°C | 1.0% | 73.4hPa | 2.6V | 00:00:00 | 00:00:00 | 00:00:00 | |
| DM0DOS-11 | 2026-09-03 12:53:56 | 48.33936 | 10.24772 | 173° | 15km/h | 18611m | -6.8m/s | -55.5°C | 4.1% | 72.9hPa | 2.6V | 08:09:35 | 02:24:19 | 00:00:00 | |
| DK7TD | 2026-09-03 12:53:54 | 48.33932 | 10.24772 | 173° | 18km/h | 18604m | -7.4m/s | -55.5°C | 0.2% | 73hPa | 2.6V | 08:10:15 | 02:24:20 | 00:00:00 | |
| DF7PN | 2026-09-03 12:53:48 | 48.33951 | 10.24769 | 174° | 7km/h | 18647m | -6.7m/s | -55.3°C | 1.0% | 72.4hPa | 2.6V | 00:00:00 | 00:00:00 | 00:00:00 | |
| DK7TD | 2026-09-03 12:53:43 | 48.33957 | 10.24766 | 131° | 2km/h | 18682m | -7.6m/s | -55.1°C | 0.1% | 72hPa | 2.6V | 08:10:15 | 02:24:09 | 00:00:00 | |
| DB0NH | 2026-09-03 12:53:41 | 48.33957 | 10.24765 | 103° | 26km/h | 18697m | -7.2m/s | -54.8°C | 3.9% | 71.8hPa | 2.6V | 00:00:00 | 02:24:07 | 00:00:00 | |
| OE5DXL-15 | 2026-09-03 12:53:40 | 48.33957 | 10.24764 | 136° | 26km/h | 18704m | -6.8m/s | -54.8°C | 3.9% | 71.7hPa | 2.6V | 00:00:00 | 02:24:06 | 00:00:00 | |
| PG1ADW-2 | 2026-09-03 12:53:39 | 48.33957 | 10.24764 | 98° | 20km/h | 18711m | -7.6m/s | -54.9°C | 3.9% | 71.7hPa | 2.6V | 00:00:00 | 00:00:00 | 00:00:00 | |
| DF1GD-15 | 2026-09-03 12:53:38 | 48.33957 | 10.24764 | 99° | 2km/h | 18711m | -7.6m/s | -55.0°C | 1.0% | 71.7hPa | 2.6V | 08:10:00 | 00:00:00 | 00:00:00 | |
| IW2NTF | 2026-09-03 12:53:37 | 48.33953 | 10.24751 | 52° | 11km/h | 18753m | -6.8m/s | -55°C | 4.1% | 71.2hPa | 2.6V | 08:09:55 | 02:23:59 | 00:00:00 | |
| DK7TD | 2026-09-03 12:53:32 | 48.33952 | 10.24748 | 52° | 13km/h | 18760m | -7.5m/s | -55.1°C | 0.2% | 71.2hPa | 2.6V | 08:10:15 | 02:23:58 | 00:00:00 | |
| DJ8HS-15 | 2026-09-03 12:53:32 | 48.33951 | 10.24748 | 52° | 33km/h | 18760m | -7.4m/s | -55.0°C | 4.1% | 71.1hPa | 2.6V | 00:00:00 | 02:23:58 | 00:00:00 | |
| NBG1-10 | 2026-09-03 12:53:31 | 48.33949 | 10.24743 | 55° | 33km/h | 18767m | -7.0m/s | -54.9°C | 4.0% | 71.0hPa | 2.6V | 00:00:00 | 02:23:57 | 00:00:00 | |
| IW2NTF | 2026-09-03 12:53:28 | 48.33936 | 10.24667 | 95° | 37km/h | 18827m | -7.5m/s | -54.4°C | 3.6% | 70.4hPa | 2.6V | 08:10:05 | 02:23:49 | 00:00:00 | |
| DK7TD | 2026-09-03 12:53:21 | 48.33940 | 10.24639 | 107° | 40km/h | 18842m | -7.8m/s | -54.5°C | 0% | 70.2hPa | 2.6V | 08:10:15 | 02:23:47 | 00:00:00 | |
| PG1ADW-2 | 2026-09-03 12:53:19 | 48.33948 | 10.24610 | 119° | 33km/h | 18857m | -7.8m/s | -54.4°C | 3.8% | 70.0hPa | 2.6V | 08:10:00 | 02:23:45 | 00:00:00 | |
| DF7PN | 2026-09-03 12:53:17 | 48.33966 | 10.24571 | 133° | 42km/h | 18879m | -6.7m/s | -54.5°C | 1.0% | 69.8hPa | 2.6V | 00:00:00 | 00:00:00 | 00:00:00 | |
| IW2NTF | 2026-09-03 12:53:16 | 48.33989 | 10.24540 | 143° | 38km/h | 18901m | -7.8m/s | -54.7°C | 3.9% | 69.6hPa | 2.6V | 08:10:15 | 02:23:39 | 00:00:00 | |
| DB0UT-7 | 2026-09-03 12:53:16 | 48.33966 | 10.24571 | 134° | 31km/h | 18879m | -6.7m/s | -54.5°C | 4.0% | 69.8hPa | 2.6V | 08:10:00 | 02:23:42 | 00:00:00 | |
| DO3MHA-11 | 2026-09-03 12:53:15 | 48.33974 | 10.24559 | 138° | 35km/h | 18887m | -7.6m/s | -54.6°C | 4.0% | 69.7hPa | 2.6V | 00:00:00 | 02:23:41 | 00:00:00 | |
| DM0DOS-11 | 2026-09-03 12:53:14 | 48.34021 | 10.24514 | 156° | 31km/h | 18930m | -7.5m/s | -54.5°C | 3.9% | 69.3hPa | 2.6V | 08:10:19 | 02:23:35 | 00:00:00 | |
| DK7TD | 2026-09-03 12:53:11 | 48.34005 | 10.24525 | 153° | 35km/h | 18916m | -7.4m/s | -54.9°C | 0.2% | 69.4hPa | 2.6V | 08:11:06 | 02:23:37 | 00:00:00 | |
| DB0NH | 2026-09-03 12:53:11 | 48.34005 | 10.24525 | 153° | 29km/h | 18916m | -7.4m/s | -54.8°C | 4.0% | 69.4hPa | 2.6V | 00:00:00 | 02:23:37 | 00:00:00 | |
| OE5DXL-15 | 2026-09-03 12:53:10 | 48.34013 | 10.24519 | 154° | 29km/h | 18923m | -6.8m/s | -54.8°C | 3.9% | 69.3hPa | 2.6V | 00:00:00 | 00:00:00 | 00:00:00 | |
| DM7RM-13 | 2026-09-03 12:53:08 | 48.34021 | 10.24514 | 158° | 31km/h | 18930m | -7.5m/s | -54.6°C | 1.0% | 69.3hPa | 2.6V | 08:11:00 | 00:00:00 | 00:00:00 | |
| DK5PH-5 | 2026-09-03 12:53:07 | 48.34035 | 10.24506 | 162° | 29km/h | 18945m | -7.3m/s | -54.5°C | 3.9% | 69.1hPa | 2.6V | 00:00:00 | 02:23:33 | 00:00:00 | |
| DO3MHA-11 | 2026-09-03 12:53:05 | 48.34048 | 10.24499 | 162° | 26km/h | 18959m | -7.4m/s | -54.5°C | 3.9% | 68.9hPa | 2.6V | 00:00:00 | 02:23:31 | 00:00:00 | |
| IW2NTF | 2026-09-03 12:53:03 | 48.34061 | 10.24493 | 160° | 26km/h | 18974m | -7m/s | -54.5°C | 3.9% | 68.8hPa | 2.6V | 08:30:00 | 02:23:29 | 00:00:00 | |
| DK7TD | 2026-09-03 12:53:00 | 48.34078 | 10.24482 | 156° | 26km/h | 18996m | -7.3m/s | -54.4°C | 0.1% | 68.6hPa | 2.6V | 08:11:06 | 02:23:26 | 00:00:00 | |
| DM0DOS-11 | 2026-09-03 12:53:00 | 48.34108 | 10.24463 | 160° | 27km/h | 19033m | -8m/s | -54.3°C | 3.8% | 68.2hPa | 2.6V | 08:10:33 | 02:23:21 | 00:00:00 | |
| PG1ADW-2 | 2026-09-03 12:52:59 | 48.34084 | 10.24478 | 155° | 31km/h | 19004m | -7.5m/s | -54.3°C | 3.8% | 68.4hPa | 2.5V | 00:00:00 | 00:00:00 | 00:00:00 | |
| NBG1-10 | 2026-09-03 12:52:58 | 48.34090 | 10.24474 | 156° | 35km/h | 19011m | -7.0m/s | -54.3°C | 3.8% | 68.4hPa | 2.5V | 08:10:00 | 02:23:24 | 00:00:00 | |
| DF1GD-15 | 2026-09-03 12:52:57 | 48.34090 | 10.24474 | 156° | 24km/h | 19011m | -7.1m/s | -54.3°C | 1.0% | 68.4hPa | 2.6V | 08:11:00 | 00:00:00 | 00:00:00 | |
| IW2NTF | 2026-09-03 12:52:56 | 48.34121 | 10.24456 | 158° | 27km/h | 19047m | -7m/s | -54.2°C | 3.8% | 68hPa | 2.6V | 08:30:00 | 02:23:19 | 00:00:00 | |
| DK7TD | 2026-09-03 12:52:50 | 48.34141 | 10.24444 | 157° | 31km/h | 19070m | -8m/s | -54°C | 0% | 67.8hPa | 2.6V | 08:11:06 | 02:23:16 | 00:00:00 | |
| DF7PN | 2026-09-03 12:52:46 | 48.34179 | 10.24421 | 158° | 33km/h | 19108m | -7.0m/s | -54.2°C | 0.9% | 67.4hPa | 2.6V | 00:00:00 | 00:00:00 | 00:00:00 | |
| IW2NTF | 2026-09-03 12:52:43 | 48.34195 | 10.24413 | 164° | 35km/h | 19122m | -7.1m/s | -54.3°C | 3.8% | 67.2hPa | 2.6V | 08:30:00 | 02:23:09 | 00:00:00 | |
| DB0NH | 2026-09-03 12:52:41 | 48.34212 | 10.24406 | 162° | 37km/h | 19137m | -7.0m/s | -54.3°C | 3.8% | 67.0hPa | 2.6V | 00:00:00 | 02:23:07 | 00:00:00 | |
| DM0DOS-11 | 2026-09-03 12:52:40 | 48.34269 | 10.24377 | 158° | 44km/h | 19181m | -7.7m/s | -54.4°C | 3.8% | 66.6hPa | 2.6V | 08:10:53 | 02:23:01 | 00:00:00 | |
| DK7TD | 2026-09-03 12:52:40 | 48.34220 | 10.24402 | 162° | 37km/h | 19144m | -7.8m/s | -54.4°C | 0.1% | 67hPa | 2.6V | 08:11:06 | 02:23:06 | 00:00:00 | |
| OE5DXL-15 | 2026-09-03 12:52:40 | 48.34220 | 10.24402 | 162° | 37km/h | 19144m | -7.8m/s | -54.3°C | 3.8% | 66.9hPa | 2.6V | 00:00:00 | 00:00:00 | 00:00:00 | |
| PG1ADW-2 | 2026-09-03 12:52:39 | 48.34229 | 10.24398 | 163° | 40km/h | 19152m | -7.2m/s | -54.4°C | 3.8% | 66.8hPa | 2.6V | 00:00:00 | 00:00:00 | 00:00:00 | |
| DK5PH-5 | 2026-09-03 12:52:37 | 48.34248 | 10.24388 | 160° | 37km/h | 19166m | -7.3m/s | -54.3°C | 3.8% | 66.7hPa | 2.6V | 00:00:00 | 02:23:03 | 00:00:00 | |
| IW2NTF | 2026-09-03 12:52:36 | 48.34310 | 10.24350 | 156° | 44km/h | 19211m | -7.5m/s | -54.6°C | 3.9% | 66.3hPa | 2.6V | 08:30:00 | 02:22:57 | 00:00:00 | |
| DK7TD | 2026-09-03 12:52:29 | 48.34330 | 10.24337 | 156° | 42km/h | 19226m | -8.1m/s | -54.7°C | 0.1% | 66.1hPa | 2.6V | 08:11:06 | 02:22:55 | 00:00:00 | |
| DM0DOS-11 | 2026-09-03 12:52:28 | 48.34366 | 10.24317 | 164° | 35km/h | 19256m | -7.4m/s | -54.5°C | 3.9% | 65.8hPa | 2.6V | 08:11:03 | 02:22:51 | 00:00:00 | |
| DO3MHA-11 | 2026-09-03 12:52:25 | 48.34366 | 10.24317 | 165° | 35km/h | 19256m | -7.4m/s | -54.5°C | 3.9% | 65.8hPa | 2.6V | 08:11:00 | 02:22:51 | 00:00:00 | |
| IW2NTF | 2026-09-03 12:52:24 | 48.34417 | 10.24301 | 166° | 35km/h | 19301m | -8m/s | -54.2°C | 3.8% | 65.4hPa | 2.6V | 08:30:00 | 02:22:45 | 00:00:00 | |
| DK7TD | 2026-09-03 12:52:18 | 48.34425 | 10.24298 | 171° | 35km/h | 19309m | -7.1m/s | -54.2°C | 0.1% | 65.3hPa | 2.6V | 08:11:57 | 02:22:44 | 00:00:00 | |
| DM0DOS-11 | 2026-09-03 12:52:17 | 48.34451 | 10.24294 | 176° | 31km/h | 19332m | -8m/s | -54.2°C | 3.8% | 65.1hPa | 2.6V | 08:11:13 | 02:22:41 | 00:00:00 | |
| DK7TD | 2026-09-03 12:52:07 | 48.34507 | 10.24295 | 184° | 26km/h | 19393m | -7.1m/s | -54°C | 0% | 64.5hPa | 2.6V | 08:11:57 | 02:22:33 | 00:00:00 | |
| DK5PH-5 | 2026-09-03 12:52:07 | 48.34507 | 10.24295 | 185° | 22km/h | 19393m | -7.1m/s | -53.9°C | 3.7% | 64.4hPa | 2.6V | 00:00:00 | 02:22:33 | 00:00:00 | |
| OE5DRO-10 | 2026-09-03 12:52:06 | 48.34513 | 10.24296 | 194° | 16km/h | 19400m | -6.9m/s | -53.9°C | 3.7% | 64.3hPa | 2.6V | 00:00:00 | 00:00:00 | 00:00:00 | |
| DO3MHA-11 | 2026-09-03 12:52:05 | 48.34519 | 10.24298 | 191° | 16km/h | 19407m | -7.3m/s | -54.0°C | 3.8% | 64.3hPa | 2.6V | 00:00:00 | 02:22:31 | 00:00:00 | |
| DO3MHA-12 | 2026-09-03 12:52:04 | 48.34525 | 10.24301 | 198° | 15km/h | 19415m | -7.2m/s | -54.0°C | 3.8% | 64.2hPa | 2.6V | 00:00:00 | 02:22:30 | 00:00:00 | |
| DB0ND-19 | 2026-09-03 12:52:03 | 48.34531 | 10.24303 | 203° | 18km/h | 19422m | -7.7m/s | -54.0°C | 0.9% | 64.2hPa | 2.6V | 00:00:00 | 00:00:00 | 00:00:00 | |
| DL6DJ-15 | 2026-09-03 12:52:01 | 48.34542 | 10.24314 | 232° | 15km/h | 19445m | -7.0m/s | -54.0°C | 0.9% | 63.9hPa | 2.6V | 00:00:00 | 00:00:00 | 00:00:00 | |
| DM0DOS-11 | 2026-09-03 12:51:59 | 48.34545 | 10.24336 | 310° | 5km/h | 19492m | -7.5m/s | -54.1°C | 3.8% | 63.5hPa | 2.6V | 08:11:34 | 02:22:20 | 00:00:00 | |
| DK7TD | 2026-09-03 12:51:56 | 48.34547 | 10.24331 | 284° | 7km/h | 19476m | -7.5m/s | -54°C | 0% | 63.6hPa | 2.6V | 08:11:57 | 02:22:22 | 00:00:00 | |
| DO3MHA-11 | 2026-09-03 12:51:55 | 48.34546 | 10.24334 | 298° | 16km/h | 19484m | -7.5m/s | -54.0°C | 3.8% | 63.5hPa | 2.6V | 00:00:00 | 02:22:21 | 00:00:00 | |
| DO3MHA-12 | 2026-09-03 12:51:54 | 48.34545 | 10.24336 | 311° | 18km/h | 19492m | -7.4m/s | -54.0°C | 3.8% | 63.4hPa | 2.6V | 00:00:00 | 02:22:20 | 00:00:00 | |
| DJ8HS-15 | 2026-09-03 12:51:52 | 48.34541 | 10.24336 | 24° | 29km/h | 19507m | -7.1m/s | -54.1°C | 3.8% | 63.3hPa | 2.6V | 00:00:00 | 02:22:18 | 00:00:00 | |
| AZAK | 2026-09-03 12:51:50 | 48.34538 | 10.24333 | 43° | 15km/h | 19514m | -7.7m/s | -54.2°C | 0.9% | 63.3hPa | 2.6V | 08:11:00 | 00:00:00 | 00:00:00 | |
| DM0DOS-11 | 2026-09-03 12:51:49 | 48.34525 | 10.24272 | 100° | 33km/h | 19567m | -7.9m/s | -54.2°C | 3.7% | 62.7hPa | 2.6V | 08:11:44 | 02:22:10 | 00:00:00 | |
| DK7TD | 2026-09-03 12:51:45 | 48.34525 | 10.24285 | 84° | 35km/h | 19560m | -7.1m/s | -54.2°C | 0% | 62.8hPa | 2.6V | 08:11:57 | 02:22:11 | 00:00:00 | |
| DO3MHA-11 | 2026-09-03 12:51:45 | 48.34525 | 10.24285 | 84° | 37km/h | 19560m | -7.1m/s | -54.1°C | 3.7% | 62.7hPa | 2.6V | 00:00:00 | 02:22:11 | 00:00:00 | |
| DF7PN | 2026-09-03 12:51:44 | 48.34527 | 10.24259 | 102° | 35km/h | 19575m | -8.0m/s | -54.3°C | 0.9% | 62.6hPa | 2.6V | 00:00:00 | 00:00:00 | 00:00:00 | |
| DB0NH | 2026-09-03 12:51:41 | 48.34534 | 10.24232 | 121° | 18km/h | 19592m | -7.6m/s | -54.3°C | 3.8% | 62.5hPa | 2.6V | 00:00:00 | 02:22:07 | 00:00:00 | |
| OE5DXL-15 | 2026-09-03 12:51:40 | 48.34540 | 10.24221 | 133° | 18km/h | 19600m | -8.0m/s | -54.3°C | 3.8% | 62.4hPa | 2.6V | 00:00:00 | 00:00:00 | 00:00:00 | |
| DM0DOS-11 | 2026-09-03 12:51:39 | 48.34584 | 10.24192 | 189° | 27km/h | 19646m | -8m/s | -54.6°C | 3.9% | 62hPa | 2.6V | 08:11:54 | 02:22:00 | 00:00:00 | |
| DK7TD | 2026-09-03 12:51:35 | 48.34577 | 10.24191 | 183° | 27km/h | 19638m | -7.8m/s | -54.6°C | 0.1% | 62hPa | 2.6V | 08:11:57 | 02:22:01 | 00:00:00 | |
| DO3MHA-11 | 2026-09-03 12:51:35 | 48.34577 | 10.24191 | 184° | 16km/h | 19638m | -7.8m/s | -54.6°C | 3.9% | 62.0hPa | 2.6V | 00:00:00 | 02:22:01 | 00:00:00 | |
| DO3MHA-12 | 2026-09-03 12:51:34 | 48.34584 | 10.24192 | 190° | 15km/h | 19646m | -7.9m/s | -54.5°C | 3.9% | 61.9hPa | 2.6V | 00:00:00 | 02:22:00 | 00:00:00 | |
| DJ8HS-15 | 2026-09-03 12:51:32 | 48.34595 | 10.24198 | 213° | 13km/h | 19662m | -7.6m/s | -54.6°C | 4.0% | 61.7hPa | 2.6V | 00:00:00 | 02:21:58 | 00:00:00 | |
| AZAK | 2026-09-03 12:51:30 | 48.34603 | 10.24206 | 219° | 16km/h | 19678m | -8.0m/s | -54.4°C | 1.0% | 61.6hPa | 2.6V | 08:12:00 | 00:00:00 | 00:00:00 | |
| DM0DOS-11 | 2026-09-03 12:51:29 | 48.34608 | 10.24217 | 68° | 5km/h | 19725m | -7.6m/s | -53.9°C | 3.8% | 61.2hPa | 2.6V | 08:12:04 | 02:21:50 | 00:00:00 | |
| DK7TD | 2026-09-03 12:51:24 | 48.34608 | 10.24217 | 69° | 5km/h | 19725m | -7.6m/s | -53.9°C | 0% | 61.2hPa | 2.6V | 08:12:48 | 02:21:50 | 00:00:00 | |
| DO3MHA-12 | 2026-09-03 12:51:24 | 48.34608 | 10.24217 | 69° | 13km/h | 19725m | -7.6m/s | -53.9°C | 3.8% | 61.2hPa | 2.6V | 00:00:00 | 02:21:50 | 00:00:00 | |
| KANTATE | 2026-09-03 12:51:22 | 48.34607 | 10.24214 | 78° | 7km/h | 19733m | -7.4m/s | -54.0°C | 0.9% | 61.1hPa | 2.6V | 00:00:00 | 00:00:00 | 00:00:00 | |
| DM0DOS-11 | 2026-09-03 12:51:19 | 48.34602 | 10.24168 | 82° | 16km/h | 19802m | -7.4m/s | -53.9°C | 3.8% | 60.4hPa | 2.6V | 08:12:14 | 02:21:40 | 00:00:00 | |
| DK7TD | 2026-09-03 12:51:13 | 48.34601 | 10.24162 | 80° | 18km/h | 19810m | -8m/s | -53.8°C | 0% | 60.4hPa | 2.6V | 08:12:48 | 02:21:39 | 00:00:00 | |
| DJ8HS-15 | 2026-09-03 12:51:12 | 48.34600 | 10.24155 | 75° | 27km/h | 19818m | -7.3m/s | -53.6°C | 3.7% | 60.2hPa | 2.6V | 00:00:00 | 02:21:38 | 00:00:00 | |
| DB0NH | 2026-09-03 12:51:11 | 48.34599 | 10.24149 | 72° | 24km/h | 19826m | -8.1m/s | -53.5°C | 3.7% | 60.2hPa | 2.6V | 00:00:00 | 02:21:37 | 00:00:00 | |
| AZAK | 2026-09-03 12:51:10 | 48.34597 | 10.24142 | 76° | 20km/h | 19834m | -7.9m/s | -53.5°C | 0.8% | 60.2hPa | 2.6V | 08:12:00 | 00:00:00 | 00:00:00 | |
| DM0DOS-11 | 2026-09-03 12:51:09 | 48.34587 | 10.24088 | 80° | 33km/h | 19880m | -8.3m/s | -53.6°C | 3.6% | 59.7hPa | 2.6V | 08:12:24 | 02:21:30 | 00:00:00 | |
| DK7TD | 2026-09-03 12:51:03 | 48.34586 | 10.24075 | 86° | 35km/h | 19888m | -7.6m/s | -53.6°C | 0% | 59.6hPa | 2.6V | 08:12:48 | 02:21:29 | 00:00:00 | |
| DB0ND-19 | 2026-09-03 12:51:01 | 48.34586 | 10.24048 | 93° | 37km/h | 19904m | -8.2m/s | -53.7°C | 0.9% | 59.5hPa | 2.6V | 00:00:00 | 00:00:00 | 00:00:00 | |
| DM0DOS-11 | 2026-09-03 12:50:59 | 48.34606 | 10.23969 | 127° | 24km/h | 19959m | -7.6m/s | -54°C | 3.7% | 59hPa | 2.6V | 08:12:34 | 02:21:20 | 00:00:00 | |
| DK7TD | 2026-09-03 12:50:52 | 48.34614 | 10.23956 | 137° | 20km/h | 19975m | -8m/s | -54.1°C | 0% | 58.9hPa | 2.6V | 08:12:48 | 02:21:18 | 00:00:00 | |
| DF3TZ-5 | 2026-09-03 12:50:49 | 48.34631 | 10.23934 | 138° | 15km/h | 20014m | -7.7m/s | -54.1°C | 0.9% | 58.5hPa | 2.6V | 00:00:00 | 00:00:00 | 00:00:00 | |
| DM0DOS-11 | 2026-09-03 12:50:49 | 48.34639 | 10.23922 | 130° | 9km/h | 20046m | -8.5m/s | -53.9°C | 3.7% | 58.2hPa | 2.7V | 08:12:45 | 02:21:09 | 00:00:00 | |
| DK7TD | 2026-09-03 12:50:42 | 48.34641 | 10.23920 | 126° | 7km/h | 20054m | -7.5m/s | -54°C | 0.1% | 58.1hPa | 2.6V | 08:12:48 | 02:21:08 | 00:00:00 | |
| DK7TD | 2026-09-03 12:50:31 | 48.34624 | 10.23898 | 24° | 24km/h | 20142m | -8.7m/s | -54.7°C | 0.1% | 57.3hPa | 2.6V | 08:13:39 | 02:20:57 | 00:00:00 | |
| DK7TD | 2026-09-03 12:50:20 | 48.34551 | 10.23781 | 72° | 55km/h | 20232m | -8.7m/s | -55.2°C | 0.1% | 56.5hPa | 2.6V | 08:13:39 | 02:20:46 | 00:00:00 | |
| PG1ADW-2 | 2026-09-03 12:50:19 | 48.34547 | 10.23761 | 77° | 37km/h | 20241m | -8.1m/s | -55.2°C | 3.9% | 56.4hPa | 2.6V | 08:13:00 | 00:00:00 | 00:00:00 | |
| DF3TZ-5 | 2026-09-03 12:50:18 | 48.34545 | 10.23740 | 84° | 55km/h | 20249m | -8.6m/s | -55.3°C | 0.9% | 56.3hPa | 2.6V | 00:00:00 | 00:00:00 | 00:00:00 | |
| DB0UT-7 | 2026-09-03 12:50:16 | 48.34545 | 10.23698 | 99° | 40km/h | 20266m | -8.4m/s | -55.3°C | 3.9% | 56.1hPa | 2.6V | 00:00:00 | 02:20:42 | 00:00:00 | |
| DO3MHA-11 | 2026-09-03 12:50:15 | 48.34548 | 10.23677 | 106° | 33km/h | 20275m | -8.7m/s | -55.4°C | 3.8% | 56.1hPa | 2.6V | 00:00:00 | 02:20:41 | 00:00:00 | |
| DO3MHA-12 | 2026-09-03 12:50:14 | 48.34553 | 10.23658 | 113° | 29km/h | 20283m | -8.4m/s | -55.4°C | 3.9% | 56.0hPa | 2.6V | 00:00:00 | 02:20:40 | 00:00:00 | |
| DM0DOS-11 | 2026-09-03 12:50:13 | 48.34587 | 10.23586 | 109° | 7km/h | 20345m | -8.1m/s | -55.7°C | 4.3% | 55.5hPa | 2.6V | 08:13:21 | 02:20:33 | 00:00:00 | |
| DK7TD | 2026-09-03 12:50:09 | 48.34582 | 10.23595 | 137° | 24km/h | 20328m | -8.5m/s | -55.5°C | 0.2% | 55.6hPa | 2.6V | 08:13:39 | 02:20:35 | 00:00:00 | |
| DK5PH-5 | 2026-09-03 12:50:07 | 48.34587 | 10.23586 | 110° | 42km/h | 20345m | -8.1m/s | -55.7°C | 4.3% | 55.5hPa | 2.7V | 00:00:00 | 02:20:33 | 00:00:00 | |
| AZAK | 2026-09-03 12:50:06 | 48.34587 | 10.23586 | 111° | 7km/h | 20345m | -8.1m/s | -55.7°C | 1.0% | 55.5hPa | 2.7V | 08:13:00 | 00:00:00 | 00:00:00 | |
| DO3MHA-11 | 2026-09-03 12:50:05 | 48.34585 | 10.23579 | 54° | 37km/h | 20363m | -8.9m/s | -55.8°C | 4.4% | 55.3hPa | 2.7V | 00:00:00 | 02:20:31 | 00:00:00 | |
| DO3MHA-12 | 2026-09-03 12:50:04 | 48.34582 | 10.23573 | 53° | 40km/h | 20372m | -9.2m/s | -55.8°C | 4.4% | 55.2hPa | 2.7V | 00:00:00 | 02:20:30 | 00:00:00 | |
| DM7RM-13 | 2026-09-03 12:50:03 | 48.34582 | 10.23573 | 54° | 20km/h | 20372m | -9.2m/s | -55.9°C | 1.1% | 55.3hPa | 2.7V | 08:13:00 | 00:00:00 | 00:00:00 | |
| DM0DOS-11 | 2026-09-03 12:50:02 | 48.34558 | 10.23484 | 84° | 47km/h | 20433m | -8.5m/s | -55.9°C | 4.3% | 54.7hPa | 2.7V | 08:13:31 | 02:20:23 | 00:00:00 | |
| DK7TD | 2026-09-03 12:49:58 | 48.34560 | 10.23501 | 79° | 44km/h | 20425m | -8.7m/s | -56°C | 0.4% | 54.8hPa | 2.6V | 08:13:39 | 02:20:24 | 00:00:00 | |
| DL9SK-14 | 2026-09-03 12:49:57 | 48.34558 | 10.23465 | 91° | 49km/h | 20442m | -9.3m/s | -55.7°C | 1.0% | 54.7hPa | 2.6V | 00:00:00 | 00:00:00 | 00:00:00 | |
| DL6DJ-15 | 2026-09-03 12:49:56 | 48.34558 | 10.23465 | 91° | 49km/h | 20442m | -9.3m/s | -55.7°C | 1.0% | 54.7hPa | 2.6V | 00:00:00 | 00:00:00 | 00:00:00 | |
| DO3MHA-11 | 2026-09-03 12:49:55 | 48.34558 | 10.23446 | 94° | 55km/h | 20451m | -8.1m/s | -55.6°C | 4.2% | 54.6hPa | 2.6V | 00:00:00 | 02:20:21 | 00:00:00 | |
| DO3MHA-12 | 2026-09-03 12:49:54 | 48.34559 | 10.23427 | 99° | 55km/h | 20460m | -8.6m/s | -55.4°C | 4.2% | 54.5hPa | 2.6V | 00:00:00 | 02:20:20 | 00:00:00 | |
| OE5DRO-10 | 2026-09-03 12:49:53 | 48.34562 | 10.23408 | 104° | 46km/h | 20468m | -8.7m/s | -55.4°C | 4.2% | 54.4hPa | 2.6V | 00:00:00 | 00:00:00 | 00:00:00 | |
| DM0DOS-11 | 2026-09-03 12:49:52 | 48.34596 | 10.23294 | 126° | 55km/h | 20520m | -8.4m/s | -55.1°C | 4.1% | 54hPa | 2.6V | 08:13:41 | 02:20:13 | 00:00:00 | |
| DK7TD | 2026-09-03 12:49:48 | 48.34588 | 10.23311 | 121° | 57km/h | 20511m | -9m/s | -55.3°C | 0.3% | 54.1hPa | 2.6V | 08:14:30 | 02:20:14 | 00:00:00 | |
| DF3TZ-5 | 2026-09-03 12:49:47 | 48.34596 | 10.23294 | 126° | 55km/h | 20520m | -8.4m/s | -55.2°C | 1.0% | 54.0hPa | 2.6V | 00:00:00 | 00:00:00 | 00:00:00 | |
| DB0UT-7 | 2026-09-03 12:49:46 | 48.34604 | 10.23278 | 133° | 31km/h | 20529m | -8.9m/s | -55.0°C | 4.1% | 53.9hPa | 2.6V | 00:00:00 | 00:00:00 | 00:00:00 | |
| DO3MHA-11 | 2026-09-03 12:49:45 | 48.34614 | 10.23264 | 138° | 40km/h | 20537m | -8.4m/s | -55.0°C | 4.0% | 53.8hPa | 2.6V | 00:00:00 | 02:20:11 | 00:00:00 | |
| DO3MHA-12 | 2026-09-03 12:49:44 | 48.34623 | 10.23251 | 144° | 38km/h | 20546m | -9.2m/s | -54.9°C | 4.0% | 53.7hPa | 2.6V | 08:13:00 | 02:20:10 | 00:00:00 | |
| DM0DOS-11 | 2026-09-03 12:49:42 | 48.34700 | 10.23227 | 195° | 31km/h | 20614m | -8.3m/s | -54.2°C | 3.9% | 53.2hPa | 2.6V | 08:13:52 | 02:20:02 | 00:00:00 | |
| DK7TD | 2026-09-03 12:49:37 | 48.34692 | 10.23225 | 188° | 33km/h | 20606m | -8.9m/s | -54.3°C | 0.2% | 53.2hPa | 2.6V | 08:14:30 | 02:20:03 | 00:00:00 | |
| DK5PH-5 | 2026-09-03 12:49:37 | 48.34692 | 10.23225 | 188° | 26km/h | 20606m | -8.8m/s | -54.2°C | 3.9% | 53.2hPa | 2.6V | 08:13:00 | 02:20:03 | 00:00:00 | |
| DO3MHA-11 | 2026-09-03 12:49:35 | 48.34706 | 10.23230 | 201° | 13km/h | 20623m | -9.1m/s | -54.2°C | 3.9% | 53.0hPa | 2.6V | 00:00:00 | 02:20:01 | 00:00:00 | |
| DO3MHA-12 | 2026-09-03 12:49:34 | 48.34712 | 10.23234 | 205° | 13km/h | 20632m | -8.8m/s | -54.2°C | 4.0% | 53.0hPa | 2.6V | 00:00:00 | 02:20:00 | 00:00:00 | |
| DJ8HS-15 | 2026-09-03 12:49:32 | 48.34720 | 10.23240 | 220° | 27km/h | 20650m | -7.8m/s | -54.3°C | 4.0% | 52.8hPa | 2.6V | 00:00:00 | 02:19:58 | 00:00:00 | |
| DH7VM-15 | 2026-09-03 12:49:30 | 48.34722 | 10.23242 | 228° | 5km/h | 20658m | -8.7m/s | -54.3°C | 0.9% | 52.8hPa | 2.6V | 00:00:00 | 00:00:00 | 00:00:00 | |
| DM0DOS-11 | 2026-09-03 12:49:29 | 48.34716 | 10.23233 | 52° | 18km/h | 20703m | -9.1m/s | -54.1°C | 3.8% | 52.4hPa | 2.6V | 08:14:02 | 02:19:52 | 00:00:00 | |
| DK7TD | 2026-09-03 12:49:26 | 48.34715 | 10.23233 | 53° | 18km/h | 20703m | -9.1m/s | -54.1°C | 0.1% | 52.4hPa | 2.6V | 08:14:30 | 02:19:52 | 00:00:00 | |
| AZAK | 2026-09-03 12:49:26 | 48.34716 | 10.23233 | 53° | 18km/h | 20704m | -9.1m/s | -54.1°C | 0.9% | 52.4hPa | 2.6V | 08:14:00 | 00:00:00 | 00:00:00 | |
| DO3MHA-11 | 2026-09-03 12:49:25 | 48.34713 | 10.23227 | 63° | 37km/h | 20713m | -9.5m/s | -54.0°C | 3.8% | 52.3hPa | 2.6V | 08:14:00 | 02:19:51 | 00:00:00 | |
| DO3MHA-12 | 2026-09-03 12:49:24 | 48.34710 | 10.23218 | 74° | 38km/h | 20723m | -9.8m/s | -54.0°C | 3.8% | 52.2hPa | 2.7V | 00:00:00 | 02:19:50 | 00:00:00 | |
| DB0ND-19 | 2026-09-03 12:49:23 | 48.34709 | 10.23207 | 78° | 29km/h | 20732m | -8.9m/s | -54.1°C | 0.9% | 52.2hPa | 2.7V | 00:00:00 | 00:00:00 | 00:00:00 | |
| DM7RM-13 | 2026-09-03 12:49:22 | 48.34709 | 10.23207 | 79° | 31km/h | 20732m | -8.9m/s | -54.1°C | 0.9% | 52.2hPa | 2.7V | 08:14:00 | 00:00:00 | 00:00:00 | |
| DJTTGO | 2026-09-03 12:49:21 | 48.34708 | 10.23195 | 90° | 35km/h | 20741m | -9.3m/s | -54.1°C | 0.8% | 52.1hPa | 2.7V | 00:00:00 | 00:00:00 | 00:00:00 | |
| DM0DOS-11 | 2026-09-03 12:49:19 | 48.34731 | 10.23114 | 134° | 40km/h | 20797m | -10m/s | -54°C | 3.8% | 51.7hPa | 2.7V | 08:14:12 | 02:19:42 | 00:00:00 | |
| DK7TD | 2026-09-03 12:49:16 | 48.34731 | 10.23114 | 135° | 40km/h | 20797m | -10m/s | -54°C | 0% | 51.7hPa | 2.7V | 08:14:30 | 02:19:42 | 00:00:00 | |
| DO3MHA-11 | 2026-09-03 12:49:15 | 48.34739 | 10.23104 | 144° | 24km/h | 20806m | -8.6m/s | -53.9°C | 3.8% | 51.6hPa | 2.6V | 00:00:00 | 02:19:41 | 00:00:00 | |
| DO3MHA-12 | 2026-09-03 12:49:14 | 48.34747 | 10.23096 | 152° | 22km/h | 20815m | -9.7m/s | -53.9°C | 3.8% | 51.5hPa | 2.6V | 00:00:00 | 02:19:40 | 00:00:00 | |
| DJ8HS-15 | 2026-09-03 12:49:12 | 48.34762 | 10.23088 | 170° | 24km/h | 20834m | -8.5m/s | -53.9°C | 3.8% | 51.3hPa | 2.6V | 00:00:00 | 02:19:38 | 00:00:00 | |
| DO9HM | 2026-09-03 12:49:11 | 48.34762 | 10.23088 | 171° | 29km/h | 20834m | -8.5m/s | -54.0°C | 0.9% | 51.4hPa | 2.6V | 00:00:00 | 00:00:00 | 00:00:00 | |
| DB0NH | 2026-09-03 12:49:10 | 48.34775 | 10.23088 | 190° | 31km/h | 20853m | -9.5m/s | -53.8°C | 3.8% | 51.2hPa | 2.6V | 00:00:00 | 02:19:36 | 00:00:00 | |
| DM0DOS-11 | 2026-09-03 12:49:09 | 48.34784 | 10.23103 | 282° | 15km/h | 20889m | -8.5m/s | -53.4°C | 3.6% | 50.9hPa | 2.7V | 08:14:22 | 02:19:32 | 00:00:00 | |
| DK7TD | 2026-09-03 12:49:05 | 48.34782 | 10.23108 | 306° | 16km/h | 20898m | -10m/s | -53.4°C | 0% | 50.9hPa | 2.7V | 08:14:30 | 02:19:31 | 00:00:00 | |
| DK7TD | 2026-09-03 12:48:55 | 48.34729 | 10.23106 | 32° | 31km/h | 20989m | -9m/s | -53.8°C | 0% | 50.2hPa | 2.6V | 08:15:21 | 02:19:21 | 00:00:00 | |
| DL9SK-14 | 2026-09-03 12:48:55 | 48.34722 | 10.23099 | 35° | 31km/h | 20999m | -9.2m/s | -53.9°C | 0.9% | 50.1hPa | 2.6V | 00:00:00 | 00:00:00 | 00:00:00 | |
| DO3MHA-12 | 2026-09-03 12:48:54 | 48.34722 | 10.23099 | 36° | 38km/h | 20999m | -9.2m/s | -53.8°C | 3.8% | 50.1hPa | 2.6V | 00:00:00 | 02:19:20 | 00:00:00 | |
| DM0DOS-11 | 2026-09-03 12:48:52 | 48.34704 | 10.23071 | 52° | 37km/h | 21025m | -8.6m/s | -53.8°C | 3.8% | 49.9hPa | 2.6V | 08:14:37 | 02:19:17 | 00:00:00 | |
| DK7TD | 2026-09-03 12:48:44 | 48.34680 | 10.22967 | 88° | 46km/h | 21088m | -9.2m/s | -53.6°C | 0% | 49.4hPa | 2.7V | 08:15:21 | 02:19:10 | 00:00:00 | |
| DO3MHA-12 | 2026-09-03 12:48:44 | 48.34680 | 10.22967 | 88° | 42km/h | 21088m | -9.1m/s | -53.5°C | 3.6% | 49.3hPa | 2.7V | 00:00:00 | 02:19:10 | 00:00:00 | |
| DM7RM-13 | 2026-09-03 12:48:42 | 48.34680 | 10.22950 | 96° | 46km/h | 21098m | -9.3m/s | -53.6°C | 0.9% | 49.3hPa | 2.6V | 08:15:00 | 00:00:00 | 00:00:00 | |
| DM0DOS-11 | 2026-09-03 12:48:41 | 48.34685 | 10.22917 | 108° | 46km/h | 21115m | -8.9m/s | -53.6°C | 3.6% | 49.2hPa | 2.6V | 08:14:47 | 02:19:07 | 00:00:00 | |
| DB0NH | 2026-09-03 12:48:40 | 48.34690 | 10.22901 | 117° | 33km/h | 21125m | -9.6m/s | -53.5°C | 3.6% | 49.1hPa | 2.7V | 00:00:00 | 02:19:06 | 00:00:00 | |
| PG1ADW-2 | 2026-09-03 12:48:39 | 48.34695 | 10.22887 | 125° | 29km/h | 21134m | -9.3m/s | -53.5°C | 3.7% | 49.0hPa | 2.7V | 00:00:00 | 00:00:00 | 00:00:00 | |
| DK5PH-5 | 2026-09-03 12:48:38 | 48.34710 | 10.22865 | 146° | 31km/h | 21152m | -9.0m/s | -53.4°C | 3.7% | 48.8hPa | 2.7V | 00:00:00 | 02:19:03 | 00:00:00 | |
| DM0DOS-11 | 2026-09-03 12:48:35 | 48.34751 | 10.22854 | 220° | 16km/h | 21211m | -9.4m/s | -53.4°C | 3.8% | 48.4hPa | 2.7V | 08:14:57 | 02:18:57 | 00:00:00 | |
| DK7TD | 2026-09-03 12:48:33 | 48.34741 | 10.22849 | 184° | 27km/h | 21191m | -9.3m/s | -53.4°C | 0.1% | 48.5hPa | 2.6V | 08:15:21 | 02:18:59 | 00:00:00 | |
| DK7TD | 2026-09-03 12:48:23 | 48.34717 | 10.22866 | 37° | 35km/h | 21288m | -9.8m/s | -53.5°C | 0% | 47.8hPa | 2.6V | 08:15:21 | 02:18:49 | 00:00:00 | |
| DM7RM-13 | 2026-09-03 12:48:22 | 48.34717 | 10.22866 | 38° | 35km/h | 21288m | -9.8m/s | -53.5°C | 0.8% | 47.8hPa | 2.6V | 08:15:00 | 00:00:00 | 00:00:00 | |
| DB0ND-19 | 2026-09-03 12:48:21 | 48.34706 | 10.22845 | 66° | 37km/h | 21307m | -9.7m/s | -53.6°C | 0.8% | 47.7hPa | 2.6V | 00:00:00 | 00:00:00 | 00:00:00 | |
| DM0DOS-11 | 2026-09-03 12:48:20 | 48.34713 | 10.22773 | 126° | 42km/h | 21354m | -8.8m/s | -52.9°C | 3.4% | 47.4hPa | 2.6V | 08:15:12 | 02:18:42 | 00:00:00 | |
| DK7TD | 2026-09-03 12:48:13 | 48.34743 | 10.22736 | 159° | 37km/h | 21394m | -9.4m/s | -53°C | 0% | 47.1hPa | 2.6V | 08:15:21 | 02:18:38 | 00:00:00 | |
| DJ8HS-15 | 2026-09-03 12:48:12 | 48.34743 | 10.22736 | 160° | 24km/h | 21395m | -9.4m/s | -53.0°C | 3.5% | 47.0hPa | 2.6V | 00:00:00 | 02:18:38 | 00:00:00 | |
| DH7VM-15 | 2026-09-03 12:48:11 | 48.34743 | 10.22736 | 160° | 37km/h | 21395m | -9.4m/s | -53.0°C | 0.8% | 47.1hPa | 2.6V | 08:15:00 | 00:00:00 | 00:00:00 | |
| DM0DOS-11 | 2026-09-03 12:48:10 | 48.34775 | 10.22741 | 257° | 9km/h | 21456m | -9.1m/s | -53.2°C | 3.8% | 46.6hPa | 2.6V | 08:15:22 | 02:18:32 | 00:00:00 | |
| DK7TD | 2026-09-03 12:48:02 | 48.34764 | 10.22744 | 23° | 22km/h | 21495m | -11.1m/s | -53.4°C | 0.2% | 46.4hPa | 2.6V | 08:16:12 | 02:18:28 | 00:00:00 | |
| NBG1-10 | 2026-09-03 12:48:01 | 48.34760 | 10.22740 | 31° | 29km/h | 21506m | -10.0m/s | -53.3°C | 3.7% | 46.2hPa | 2.6V | 08:15:00 | 02:18:27 | 00:00:00 | |
| DM0DOS-11 | 2026-09-03 12:47:59 | 48.34743 | 10.22699 | 89° | 29km/h | 21555m | -10.1m/s | -53.4°C | 3.7% | 45.9hPa | 2.6V | 08:15:32 | 02:18:22 | 00:00:00 | |
| DK7TD | 2026-09-03 12:47:52 | 48.34752 | 10.22654 | 114° | 35km/h | 21593m | -8.8m/s | -53.2°C | 0.1% | 45.6hPa | 2.6V | 08:16:12 | 02:18:18 | 00:00:00 | |
| DB0ND-19 | 2026-09-03 12:47:50 | 48.34760 | 10.22629 | 117° | 37km/h | 21612m | -10.0m/s | -53.2°C | 0.9% | 45.5hPa | 2.6V | 00:00:00 | 00:00:00 | 00:00:00 | |
| DF1GD-15 | 2026-09-03 12:47:47 | 48.34768 | 10.22602 | 112° | 38km/h | 21631m | -10.4m/s | -53.2°C | 0.9% | 45.4hPa | 2.6V | 08:16:00 | 00:00:00 | 00:00:00 | |
| DB0UT-7 | 2026-09-03 12:47:46 | 48.34773 | 10.22575 | 101° | 29km/h | 21651m | -9.1m/s | -53.0°C | 3.9% | 45.2hPa | 2.6V | 00:00:00 | 00:00:00 | 00:00:00 | |
| DO3MHA-11 | 2026-09-03 12:47:45 | 48.34774 | 10.22562 | 93° | 29km/h | 21661m | -9.8m/s | -52.9°C | 3.8% | 45.1hPa | 2.6V | 00:00:00 | 02:18:11 | 00:00:00 | |
| DO3MHA-12 | 2026-09-03 12:47:44 | 48.34774 | 10.22549 | 86° | 27km/h | 21670m | -9.1m/s | -52.6°C | 3.7% | 45.0hPa | 2.6V | 00:00:00 | 02:18:10 | 00:00:00 | |
| DF3TZ-5 | 2026-09-03 12:47:43 | 48.34770 | 10.22526 | 64° | 29km/h | 21689m | -10.1m/s | -52.6°C | 0.8% | 44.9hPa | 2.6V | 00:00:00 | 00:00:00 | 00:00:00 | |
| DM0DOS-11 | 2026-09-03 12:47:42 | 48.34738 | 10.22498 | 345° | 26km/h | 21747m | -9.5m/s | -51.7°C | 3.2% | 44.5hPa | 2.6V | 08:15:52 | 02:18:02 | 00:00:00 | |
| DK7TD | 2026-09-03 12:47:41 | 48.34766 | 10.22516 | 57° | 29km/h | 21698m | -9.7m/s | -52.4°C | 0% | 44.9hPa | 2.6V | 08:16:12 | 02:18:07 | 00:00:00 | |
| DB0NH | 2026-09-03 12:47:40 | 48.34762 | 10.22508 | 46° | 31km/h | 21708m | -10.0m/s | -52.1°C | 3.5% | 44.8hPa | 2.6V | 00:00:00 | 02:18:06 | 00:00:00 | |
| PG1ADW-2 | 2026-09-03 12:47:39 | 48.34756 | 10.22501 | 30° | 29km/h | 21718m | -9.1m/s | -51.9°C | 3.4% | 44.7hPa | 2.6V | 00:00:00 | 00:00:00 | 00:00:00 | |
| DK5PH-5 | 2026-09-03 12:47:37 | 48.34745 | 10.22497 | 1° | 31km/h | 21738m | -9.6m/s | -51.7°C | 3.3% | 44.5hPa | 2.6V | 00:00:00 | 02:18:03 | 00:00:00 | |
| DF7PN | 2026-09-03 12:47:36 | 48.34732 | 10.22502 | 328° | 24km/h | 21758m | -10.2m/s | -51.7°C | 0.7% | 44.5hPa | 2.6V | 00:00:00 | 00:00:00 | 00:00:00 | |
| DO3MHA-11 | 2026-09-03 12:47:35 | 48.34732 | 10.22502 | 329° | 27km/h | 21758m | -10.1m/s | -51.7°C | 3.2% | 44.4hPa | 2.6V | 00:00:00 | 02:18:01 | 00:00:00 | |
| DO3MHA-12 | 2026-09-03 12:47:34 | 48.34727 | 10.22508 | 316° | 29km/h | 21768m | -10.6m/s | -51.7°C | 3.2% | 44.3hPa | 2.6V | 00:00:00 | 02:18:00 | 00:00:00 | |
| DJ8HS-15 | 2026-09-03 12:47:32 | 48.34721 | 10.22524 | 280° | 31km/h | 21789m | -9.7m/s | -51.6°C | 3.2% | 44.2hPa | 2.6V | 00:00:00 | 02:17:58 | 00:00:00 | |
| DM0DOS-11 | 2026-09-03 12:47:31 | 48.34748 | 10.22563 | 173° | 31km/h | 21849m | -11.2m/s | -51.7°C | 3.4% | 43.8hPa | 2.6V | 08:16:02 | 02:17:52 | 00:00:00 | |
| DK7TD | 2026-09-03 12:47:30 | 48.34723 | 10.22544 | 239° | 27km/h | 21808m | -11.6m/s | -51.6°C | 0% | 44.1hPa | 2.6V | 08:16:12 | 02:17:56 | 00:00:00 | |
| NBG1-10 | 2026-09-03 12:47:28 | 48.34733 | 10.22559 | 209° | 31km/h | 21829m | -9.6m/s | -51.6°C | 3.3% | 43.9hPa | 2.6V | 00:00:00 | 02:17:54 | 00:00:00 | |
| BAUMI2-15 | 2026-09-03 12:47:26 | 48.34748 | 10.22563 | 174° | 33km/h | 21849m | -11.2m/s | -51.7°C | 3.4% | 43.8hPa | 2.6V | 00:00:00 | 02:17:52 | 00:00:00 | |
| DO3MHA-11 | 2026-09-03 12:47:25 | 48.34756 | 10.22561 | 162° | 33km/h | 21860m | -10.0m/s | -51.7°C | 3.4% | 43.7hPa | 2.6V | 00:00:00 | 02:17:51 | 00:00:00 | |
| DO3MHA-12 | 2026-09-03 12:47:24 | 48.34763 | 10.22555 | 146° | 33km/h | 21870m | -9.4m/s | -51.6°C | 3.4% | 43.7hPa | 2.6V | 00:00:00 | 02:17:50 | 00:00:00 | |
| DL9SK-14 | 2026-09-03 12:47:22 | 48.34776 | 10.22525 | 100° | 31km/h | 21901m | -10.4m/s | -51.9°C | 0.7% | 43.5hPa | 2.6V | 00:00:00 | 00:00:00 | 00:00:00 | |
| DM0DOS-11 | 2026-09-03 12:47:21 | 48.34758 | 10.22475 | 23° | 33km/h | 21951m | -9m/s | -52.4°C | 3.5% | 43.1hPa | 2.6V | 08:16:12 | 02:17:42 | 00:00:00 | |
| DK7TD | 2026-09-03 12:47:19 | 48.34775 | 10.22501 | 67° | 33km/h | 21921m | -11m/s | -52.3°C | 0% | 43.4hPa | 2.6V | 08:16:12 | 02:17:45 | 00:00:00 | |
| PG1ADW-2 | 2026-09-03 12:47:19 | 48.34775 | 10.22501 | 67° | 29km/h | 21921m | -10.9m/s | -52.2°C | 3.5% | 43.3hPa | 2.6V | 08:16:00 | 00:00:00 | 00:00:00 | |
| DB0UT-7 | 2026-09-03 12:47:16 | 48.34758 | 10.22475 | 24° | 31km/h | 21951m | -9.0m/s | -52.4°C | 3.5% | 43.1hPa | 2.6V | 00:00:00 | 02:17:42 | 00:00:00 | |
| DO3MHA-12 | 2026-09-03 12:47:14 | 48.34742 | 10.22470 | 360° | 29km/h | 21972m | -9.5m/s | -52.3°C | 3.4% | 43.0hPa | 2.6V | 00:00:00 | 02:17:40 | 00:00:00 | |
| DJ8HS-15 | 2026-09-03 12:47:12 | 48.34725 | 10.22477 | 334° | 31km/h | 21991m | -9.7m/s | -52.4°C | 3.4% | 42.8hPa | 2.7V | 08:16:00 | 02:17:38 | 00:00:00 | |
| DM0DOS-11 | 2026-09-03 12:47:11 | 48.34700 | 10.22529 | 264° | 22km/h | 22052m | -10m/s | -52.4°C | 3.4% | 42.5hPa | 2.7V | 08:16:22 | 02:17:32 | 00:00:00 | |
| DK7TD | 2026-09-03 12:47:09 | 48.34705 | 10.22501 | 306° | 31km/h | 22022m | -9.5m/s | -52.2°C | 0% | 42.7hPa | 2.6V | 08:17:03 | 02:17:35 | 00:00:00 | |
| DK5PH-5 | 2026-09-03 12:47:07 | 48.34700 | 10.22520 | 281° | 31km/h | 22042m | -10.3m/s | -52.2°C | 3.4% | 42.5hPa | 2.7V | 00:00:00 | 02:17:33 | 00:00:00 | |
| BAUMI2-15 | 2026-09-03 12:47:06 | 48.34699 | 10.22529 | 265° | 22km/h | 22052m | -9.9m/s | -52.3°C | 3.4% | 42.4hPa | 2.7V | 00:00:00 | 02:17:32 | 00:00:00 | |
| DO3MHA-11 | 2026-09-03 12:47:05 | 48.34701 | 10.22536 | 242° | 29km/h | 22062m | -8.7m/s | -52.4°C | 3.5% | 42.4hPa | 2.7V | 00:00:00 | 02:17:31 | 00:00:00 | |
| DO3MHA-12 | 2026-09-03 12:47:04 | 48.34704 | 10.22542 | 216° | 31km/h | 22071m | -10.3m/s | -52.5°C | 3.6% | 42.3hPa | 2.7V | 00:00:00 | 02:17:30 | 00:00:00 | |
| OE5DRO-10 | 2026-09-03 12:47:02 | 48.34715 | 10.22547 | 181° | 31km/h | 22091m | -9.1m/s | -52.5°C | 3.6% | 42.2hPa | 2.7V | 00:00:00 | 00:00:00 | 00:00:00 | |
| DM0DOS-11 | 2026-09-03 12:47:01 | 48.34749 | 10.22497 | 95° | 40km/h | 22157m | -11.4m/s | -52.5°C | 3.6% | 41.8hPa | 2.7V | 08:16:32 | 02:17:22 | 00:00:00 | |
| DK7TD | 2026-09-03 12:46:58 | 48.34742 | 10.22524 | 128° | 38km/h | 22135m | -10.4m/s | -52.5°C | 0.1% | 41.9hPa | 2.6V | 08:17:03 | 02:17:24 | 00:00:00 | |
| BAUMI2-15 | 2026-09-03 12:46:56 | 48.34749 | 10.22497 | 96° | 38km/h | 22157m | -11.4m/s | -52.4°C | 3.6% | 41.7hPa | 2.6V | 00:00:00 | 02:17:22 | 00:00:00 | |
| DO3MHA-11 | 2026-09-03 12:46:55 | 48.34749 | 10.22482 | 84° | 29km/h | 22167m | -9.7m/s | -52.4°C | 3.6% | 41.6hPa | 2.6V | 00:00:00 | 02:17:21 | 00:00:00 | |
| DO3MHA-12 | 2026-09-03 12:46:54 | 48.34747 | 10.22468 | 69° | 29km/h | 22177m | -8.6m/s | -52.5°C | 3.6% | 41.6hPa | 2.7V | 00:00:00 | 02:17:20 | 00:00:00 | |
| DJ8HS-15 | 2026-09-03 12:46:52 | 48.34735 | 10.22447 | 35° | 35km/h | 22196m | -11.6m/s | -52.7°C | 3.6% | 41.5hPa | 2.7V | 00:00:00 | 02:17:18 | 00:00:00 | |
| DM0DOS-11 | 2026-09-03 12:46:51 | 48.34705 | 10.22455 | 271° | 24km/h | 22260m | -8.9m/s | -51.8°C | 3.3% | 41.1hPa | 2.7V | 08:16:42 | 02:17:12 | 00:00:00 | |
| DK7TD | 2026-09-03 12:46:47 | 48.34706 | 10.22448 | 298° | 20km/h | 22250m | -10.7m/s | -52.1°C | 0% | 41.2hPa | 2.7V | 08:17:03 | 02:17:13 | 00:00:00 | |
| DB0UT-7 | 2026-09-03 12:46:46 | 48.34705 | 10.22455 | 272° | 33km/h | 22260m | -8.9m/s | -51.8°C | 3.3% | 41.1hPa | 2.6V | 00:00:00 | 00:00:00 | 00:00:00 | |
| DO3MHA-11 | 2026-09-03 12:46:45 | 48.34706 | 10.22464 | 246° | 40km/h | 22270m | -10.1m/s | -51.8°C | 3.3% | 41.0hPa | 2.6V | 00:00:00 | 02:17:11 | 00:00:00 | |
| DO3MHA-12 | 2026-09-03 12:46:44 | 48.34710 | 10.22474 | 231° | 40km/h | 22281m | -11.0m/s | -51.7°C | 3.3% | 41.0hPa | 2.6V | 08:16:00 | 02:17:10 | 00:00:00 | |
| OE5DRO-10 | 2026-09-03 12:46:43 | 48.34716 | 10.22482 | 219° | 35km/h | 22291m | -10.3m/s | -51.7°C | 3.3% | 40.9hPa | 2.6V | 08:16:00 | 00:00:00 | 00:00:00 | |
| DM0DOS-11 | 2026-09-03 12:46:41 | 48.34784 | 10.22471 | 131° | 40km/h | 22366m | -11.9m/s | -52.1°C | 3.6% | 40.5hPa | 2.7V | 08:16:52 | 02:17:02 | 00:00:00 | |
| DK7TD | 2026-09-03 12:46:37 | 48.34776 | 10.22482 | 144° | 44km/h | 22354m | -11.3m/s | -52°C | 0% | 40.5hPa | 2.6V | 08:17:03 | 02:17:03 | 00:00:00 | |
| DK5PH-5 | 2026-09-03 12:46:37 | 48.34776 | 10.22482 | 144° | 31km/h | 22354m | -11.2m/s | -51.9°C | 3.6% | 40.5hPa | 2.6V | 00:00:00 | 02:17:03 | 00:00:00 | |
| BAUMI2-15 | 2026-09-03 12:46:36 | 48.34784 | 10.22471 | 132° | 33km/h | 22366m | -11.8m/s | -52.0°C | 3.6% | 40.4hPa | 2.7V | 00:00:00 | 02:17:02 | 00:00:00 | |
| DO3MHA-11 | 2026-09-03 12:46:35 | 48.34790 | 10.22459 | 121° | 29km/h | 22377m | -10.1m/s | -52.1°C | 3.6% | 40.3hPa | 2.7V | 00:00:00 | 02:17:01 | 00:00:00 | |
| DO3MHA-12 | 2026-09-03 12:46:34 | 48.34793 | 10.22447 | 104° | 27km/h | 22386m | -8.4m/s | -52.3°C | 3.6% | 40.3hPa | 2.7V | 00:00:00 | 02:17:00 | 00:00:00 | |
| DF7PN | 2026-09-03 12:46:33 | 48.34791 | 10.22425 | 57° | 26km/h | 22406m | -11.5m/s | -52.5°C | 0.7% | 40.2hPa | 2.7V | 00:00:00 | 00:00:00 | 00:00:00 | |
| DJ8HS-15 | 2026-09-03 12:46:32 | 48.34791 | 10.22425 | 58° | 33km/h | 22406m | -11.4m/s | -52.5°C | 3.6% | 40.2hPa | 2.7V | 00:00:00 | 02:16:58 | 00:00:00 | |
| BAUMI2-15 | 2026-09-03 12:46:31 | 48.34787 | 10.22418 | 45° | 26km/h | 22417m | -9.9m/s | -52.2°C | 3.5% | 40.1hPa | 2.7V | 00:00:00 | 02:16:57 | 00:00:00 | |
| DJTTGO | 2026-09-03 12:46:28 | 48.34776 | 10.22412 | 358° | 26km/h | 22435m | -9.2m/s | -51.9°C | 0.7% | 40.0hPa | 2.7V | 00:00:00 | 00:00:00 | 00:00:00 | |
| DM0DOS-11 | 2026-09-03 12:46:27 | 48.34758 | 10.22425 | 314° | 29km/h | 22467m | -10.4m/s | -51.7°C | 3.3% | 39.8hPa | 2.7V | 08:17:02 | 02:16:52 | 00:00:00 | |
| DK7TD | 2026-09-03 12:46:26 | 48.34758 | 10.22425 | 314° | 29km/h | 22467m | -10.4m/s | -51.7°C | 0% | 39.8hPa | 2.7V | 08:17:03 | 02:16:52 | 00:00:00 | |
| BAUMI2-15 | 2026-09-03 12:46:26 | 48.34758 | 10.22425 | 315° | 31km/h | 22468m | -10.3m/s | -51.7°C | 3.3% | 39.8hPa | 2.7V | 00:00:00 | 02:16:52 | 00:00:00 | |
| DO3MHA-11 | 2026-09-03 12:46:25 | 48.34753 | 10.22434 | 299° | 35km/h | 22478m | -9.4m/s | -51.7°C | 3.2% | 39.7hPa | 2.7V | 08:17:00 | 02:16:51 | 00:00:00 | |
| DO3MHA-12 | 2026-09-03 12:46:24 | 48.34751 | 10.22445 | 281° | 37km/h | 22488m | -12.1m/s | -51.8°C | 3.3% | 39.6hPa | 2.6V | 00:00:00 | 02:16:50 | 00:00:00 | |
| NBG1-10 | 2026-09-03 12:46:22 | 48.34751 | 10.22468 | 252° | 29km/h | 22510m | -10.1m/s | -51.7°C | 3.3% | 39.5hPa | 2.6V | 00:00:00 | 02:16:48 | 00:00:00 | |
| DM0DOS-11 | 2026-09-03 12:46:21 | 48.34798 | 10.22503 | 174° | 40km/h | 22569m | -11.3m/s | -51.9°C | 3.4% | 39.2hPa | 2.7V | 08:17:12 | 02:16:42 | 00:00:00 | |
| DK7TD | 2026-09-03 12:46:15 | 48.34808 | 10.22501 | 170° | 40km/h | 22580m | -10.9m/s | -51.9°C | 0% | 39.1hPa | 2.7V | 08:17:54 | 02:16:41 | 00:00:00 | |
| DO3MHA-11 | 2026-09-03 12:46:15 | 48.34808 | 10.22501 | 171° | 26km/h | 22580m | -10.8m/s | -51.9°C | 3.4% | 39.1hPa | 2.7V | 00:00:00 | 02:16:41 | 00:00:00 | |
| DO3MHA-12 | 2026-09-03 12:46:14 | 48.34817 | 10.22498 | 163° | 24km/h | 22591m | -10.9m/s | -51.9°C | 3.4% | 39.0hPa | 2.7V | 00:00:00 | 02:16:40 | 00:00:00 | |
| DJ8HS-15 | 2026-09-03 12:46:12 | 48.34834 | 10.22486 | 144° | 27km/h | 22611m | -10.6m/s | -52.2°C | 3.5% | 38.9hPa | 2.6V | 00:00:00 | 02:16:38 | 00:00:00 | |
| BAUMI2-15 | 2026-09-03 12:46:11 | 48.34839 | 10.22479 | 135° | 20km/h | 22622m | -9.8m/s | -52.2°C | 3.5% | 38.8hPa | 2.6V | 00:00:00 | 02:16:37 | 00:00:00 | |
| DF3TZ-5 | 2026-09-03 12:46:10 | 48.34845 | 10.22465 | 98° | 16km/h | 22640m | -9.1m/s | -52.6°C | 0.8% | 38.8hPa | 2.6V | 00:00:00 | 00:00:00 | 00:00:00 | |
| DM0DOS-11 | 2026-09-03 12:46:07 | 48.34840 | 10.22449 | 36° | 16km/h | 22671m | -10.5m/s | -52.8°C | 3.6% | 38.6hPa | 2.6V | 08:17:22 | 02:16:32 | 00:00:00 | |
| DK7TD | 2026-09-03 12:46:04 | 48.34831 | 10.22446 | 354° | 24km/h | 22691m | -10.5m/s | -52.7°C | 0% | 38.5hPa | 2.7V | 08:17:54 | 02:16:30 | 00:00:00 | |
| DO3MHA-12 | 2026-09-03 12:46:04 | 48.34830 | 10.22446 | 355° | 33km/h | 22691m | -10.4m/s | -52.6°C | 3.5% | 38.4hPa | 2.6V | 00:00:00 | 02:16:30 | 00:00:00 | |
| DF7PN | 2026-09-03 12:46:02 | 48.34811 | 10.22458 | 323° | 33km/h | 22722m | -9.3m/s | -52.6°C | 0.7% | 38.2hPa | 2.6V | 00:00:00 | 00:00:00 | 00:00:00 | |
| DM0DOS-11 | 2026-09-03 12:46:01 | 48.34789 | 10.22516 | 272° | 37km/h | 22773m | -9.9m/s | -52.9°C | 3.6% | 38hPa | 2.6V | 08:17:32 | 02:16:22 | 00:00:00 | |
| DK7TD | 2026-09-03 12:45:54 | 48.34791 | 10.22540 | 256° | 29km/h | 22794m | -10m/s | -52.8°C | 0% | 37.9hPa | 2.6V | 08:17:54 | 02:16:20 | 00:00:00 | |
| DL9SK-14 | 2026-09-03 12:45:49 | 48.34817 | 10.22569 | 168° | 20km/h | 22854m | -10.2m/s | -52.7°C | 0.8% | 37.5hPa | 2.7V | 00:00:00 | 00:00:00 | 00:00:00 | |
| DL6DJ-15 | 2026-09-03 12:45:48 | 48.34817 | 10.22569 | 168° | 20km/h | 22854m | -10.2m/s | -52.7°C | 0.8% | 37.5hPa | 2.7V | 00:00:00 | 00:00:00 | 00:00:00 | |
| DM0DOS-11 | 2026-09-03 12:45:47 | 48.34828 | 10.22564 | 155° | 22km/h | 22875m | -10.1m/s | -52.8°C | 3.6% | 37.4hPa | 2.7V | 08:17:42 | 02:16:12 | 00:00:00 | |
| DB0ND-19 | 2026-09-03 12:45:46 | 48.34828 | 10.22564 | 155° | 22km/h | 22875m | -10.1m/s | -52.8°C | 0.8% | 37.4hPa | 2.7V | 00:00:00 | 00:00:00 | 00:00:00 | |
| DK7TD | 2026-09-03 12:45:43 | 48.34841 | 10.22546 | 124° | 26km/h | 22905m | -10.4m/s | -52.8°C | 0% | 37.2hPa | 2.7V | 08:17:54 | 02:16:09 | 00:00:00 | |
| DO9LL-15 | 2026-09-03 12:45:42 | 48.34845 | 10.22537 | 119° | 33km/h | 22915m | -9.4m/s | -52.8°C | 3.7% | 37.1hPa | 2.7V | 00:00:00 | 02:16:08 | 00:00:00 | |
| BAUMI2-15 | 2026-09-03 12:45:41 | 48.34847 | 10.22527 | 111° | 31km/h | 22924m | -8.9m/s | -52.9°C | 3.7% | 37.1hPa | 2.7V | 00:00:00 | 02:16:07 | 00:00:00 | |
| DB0NH | 2026-09-03 12:45:40 | 48.34850 | 10.22517 | 106° | 31km/h | 22933m | -9.6m/s | -52.9°C | 3.7% | 37.0hPa | 2.7V | 00:00:00 | 02:16:06 | 00:00:00 | |
| PG1ADW-2 | 2026-09-03 12:45:39 | 48.34852 | 10.22506 | 106° | 38km/h | 22944m | -10.2m/s | -52.9°C | 3.7% | 36.9hPa | 2.7V | 00:00:00 | 00:00:00 | 00:00:00 | |
| AZAK | 2026-09-03 12:45:38 | 48.34852 | 10.22506 | 107° | 31km/h | 22944m | -10.2m/s | -52.9°C | 0.8% | 37.0hPa | 2.7V | 08:17:00 | 00:00:00 | 00:00:00 | |
| DM0DOS-11 | 2026-09-03 12:45:37 | 48.34858 | 10.22469 | 102° | 35km/h | 22972m | -10.2m/s | -53°C | 3.7% | 36.8hPa | 2.7V | 08:17:52 | 02:16:02 | 00:00:00 | |
| DK7TD | 2026-09-03 12:45:33 | 48.34870 | 10.22412 | 111° | 42km/h | 23012m | -10.5m/s | -52.9°C | 0% | 36.6hPa | 2.7V | 08:18:45 | 02:15:58 | 00:00:00 | |
| DJ8HS-15 | 2026-09-03 12:45:32 | 48.34870 | 10.22412 | 111° | 33km/h | 23012m | -10.5m/s | -52.8°C | 3.6% | 36.5hPa | 2.6V | 00:00:00 | 02:15:58 | 00:00:00 | |
| DM0DOS-11 | 2026-09-03 12:45:31 | 48.34909 | 10.22335 | 148° | 40km/h | 23072m | -10.2m/s | -52.7°C | 3.6% | 36.2hPa | 2.6V | 08:18:02 | 02:15:52 | 00:00:00 | |
| DK7TD | 2026-09-03 12:45:22 | 48.34946 | 10.22318 | 182° | 37km/h | 23113m | -10.2m/s | -52.5°C | 0% | 36hPa | 2.7V | 08:18:45 | 02:15:48 | 00:00:00 | |
| DK7TD | 2026-09-03 12:45:12 | 48.34986 | 10.22367 | 7° | 9km/h | 23227m | -10.2m/s | -52.1°C | 0% | 35.4hPa | 2.7V | 08:18:45 | 02:15:37 | 00:00:00 | |
| DM0DOS-11 | 2026-09-03 12:45:11 | 48.34977 | 10.22349 | 80° | 16km/h | 23279m | -10.9m/s | -52.4°C | 3.5% | 35.1hPa | 2.7V | 08:18:22 | 02:15:32 | 00:00:00 | |
| DK7TD | 2026-09-03 12:45:00 | 48.34976 | 10.22313 | 95° | 16km/h | 23340m | -11m/s | -52.6°C | 0% | 34.8hPa | 2.7V | 08:18:45 | 02:15:26 | 00:00:00 | |
| DO3MHA-12 | 2026-09-03 12:45:00 | 48.34976 | 10.22312 | 96° | 15km/h | 23341m | -10.9m/s | -52.5°C | 3.6% | 34.7hPa | 2.7V | 00:00:00 | 02:15:26 | 00:00:00 | |
| PG1ADW-2 | 2026-09-03 12:44:59 | 48.34977 | 10.22306 | 98° | 20km/h | 23351m | -9.9m/s | -52.5°C | 3.6% | 34.6hPa | 2.7V | 00:00:00 | 00:00:00 | 00:00:00 | |
| DM0DOS-11 | 2026-09-03 12:44:57 | 48.34977 | 10.22289 | 86° | 15km/h | 23382m | -10.3m/s | -52.5°C | 3.6% | 34.5hPa | 2.7V | 08:18:32 | 02:15:22 | 00:00:00 | |
| AZAK | 2026-09-03 12:44:56 | 48.34977 | 10.22295 | 89° | 15km/h | 23371m | -10.5m/s | -52.6°C | 0.8% | 34.6hPa | 2.6V | 08:18:00 | 00:00:00 | 00:00:00 | |
| DM7RM-13 | 2026-09-03 12:44:54 | 48.34977 | 10.22283 | 86° | 15km/h | 23392m | -10.6m/s | -52.4°C | 0.8% | 34.5hPa | 2.6V | 08:18:00 | 00:00:00 | 00:00:00 | |
| DO3MHA-11 | 2026-09-03 12:44:53 | 48.34975 | 10.22272 | 74° | 18km/h | 23413m | -11.1m/s | -52.2°C | 3.5% | 34.3hPa | 2.6V | 08:18:00 | 02:15:19 | 00:00:00 | |
| DJ8HS-15 | 2026-09-03 12:44:52 | 48.34974 | 10.22267 | 77° | 29km/h | 23423m | -9.8m/s | -52.1°C | 3.5% | 34.3hPa | 2.7V | 00:00:00 | 02:15:18 | 00:00:00 | |
| DM0DOS-11 | 2026-09-03 12:44:51 | 48.34970 | 10.22228 | 86° | 22km/h | 23484m | -9.7m/s | -52.2°C | 3.6% | 34hPa | 2.7V | 08:18:42 | 02:15:12 | 00:00:00 | |
| DK7TD | 2026-09-03 12:44:49 | 48.34972 | 10.22250 | 81° | 16km/h | 23453m | -11m/s | -52.3°C | 0% | 34.2hPa | 2.7V | 08:18:45 | 02:15:15 | 00:00:00 | |
| DL6DJ-15 | 2026-09-03 12:44:46 | 48.34971 | 10.22228 | 86° | 20km/h | 23484m | -9.7m/s | -52.2°C | 0.7% | 34.0hPa | 2.6V | 00:00:00 | 00:00:00 | 00:00:00 | |
| DK7TD | 2026-09-03 12:44:38 | 48.34989 | 10.22145 | 134° | 35km/h | 23569m | -11.4m/s | -52°C | 0% | 33.5hPa | 2.6V | 08:19:36 | 02:15:04 | 00:00:00 | |
| OE5MMP-10 | 2026-09-03 12:44:38 | 48.34988 | 10.22145 | 135° | 46km/h | 23570m | -11.3m/s | -51.9°C | 3.4% | 33.5hPa | 2.7V | 00:00:00 | 02:15:04 | 00:00:00 | |
| DM0DOS-11 | 2026-09-03 12:44:37 | 48.35004 | 10.22129 | 157° | 40km/h | 23591m | -10.3m/s | -51.8°C | 3.4% | 33.4hPa | 2.7V | 08:18:52 | 02:15:02 | 00:00:00 | |
| DK5PH-5 | 2026-09-03 12:44:37 | 48.34996 | 10.22136 | 146° | 29km/h | 23581m | -10.8m/s | -51.8°C | 3.4% | 33.4hPa | 2.6V | 00:00:00 | 02:15:03 | 00:00:00 | |
| AZAK | 2026-09-03 12:44:35 | 48.35004 | 10.22129 | 158° | 40km/h | 23591m | -10.3m/s | -51.8°C | 0.7% | 33.4hPa | 2.6V | 08:19:00 | 00:00:00 | 00:00:00 | |
| DO3MHA-11 | 2026-09-03 12:44:33 | 48.35037 | 10.22121 | 183° | 44km/h | 23624m | -10.5m/s | -51.7°C | 3.4% | 33.2hPa | 2.6V | 00:00:00 | 02:14:59 | 00:00:00 | |
| DM0DOS-11 | 2026-09-03 12:44:32 | 48.35111 | 10.22173 | 233° | 38km/h | 23705m | -10.3m/s | -51.6°C | 3.4% | 32.8hPa | 2.6V | 08:19:02 | 02:14:52 | 00:00:00 | |
| DK7TD | 2026-09-03 12:44:27 | 48.35104 | 10.22162 | 223° | 42km/h | 23694m | -11.3m/s | -51.6°C | 0% | 32.9hPa | 2.6V | 08:19:36 | 02:14:53 | 00:00:00 | |
| OE5MMP-10 | 2026-09-03 12:44:25 | 48.35115 | 10.22184 | 245° | 16km/h | 23716m | -11.3m/s | -51.6°C | 3.5% | 32.7hPa | 2.6V | 00:00:00 | 02:14:51 | 00:00:00 | |
| DO3MHA-11 | 2026-09-03 12:44:23 | 48.35119 | 10.22203 | 263° | 15km/h | 23738m | -10.5m/s | -51.7°C | 3.5% | 32.6hPa | 2.6V | 00:00:00 | 02:14:49 | 00:00:00 | |
| DF1GD-15 | 2026-09-03 12:44:22 | 48.35119 | 10.22203 | 263° | 22km/h | 23738m | -10.5m/s | -51.7°C | 0.8% | 32.7hPa | 2.6V | 08:19:00 | 00:00:00 | 00:00:00 | |
| DO3MHA-12 | 2026-09-03 12:44:20 | 48.35119 | 10.22220 | 285° | 16km/h | 23771m | -11.7m/s | -51.7°C | 3.5% | 32.5hPa | 2.6V | 00:00:00 | 02:14:46 | 00:00:00 | |
| PG1ADW-2 | 2026-09-03 12:44:19 | 48.35118 | 10.22223 | 307° | 18km/h | 23782m | -9.9m/s | -51.6°C | 3.5% | 32.4hPa | 2.6V | 08:19:00 | 00:00:00 | 00:00:00 | |
| DM0DOS-11 | 2026-09-03 12:44:17 | 48.35113 | 10.22232 | 320° | 13km/h | 23813m | -10.5m/s | -51.7°C | 3.5% | 32.3hPa | 2.7V | 08:19:12 | 02:14:42 | 00:00:00 | |
| DK7TD | 2026-09-03 12:44:17 | 48.35115 | 10.22229 | 313° | 11km/h | 23803m | -10.3m/s | -51.6°C | 0% | 32.3hPa | 2.6V | 08:19:36 | 02:14:43 | 00:00:00 | |
| DB0UT-7 | 2026-09-03 12:44:16 | 48.35113 | 10.22232 | 321° | 22km/h | 23813m | -10.4m/s | -51.7°C | 3.5% | 32.2hPa | 2.7V | 08:19:00 | 02:14:42 | 00:00:00 | |
| OE5MMP-10 | 2026-09-03 12:44:15 | 48.35110 | 10.22235 | 320° | 22km/h | 23824m | -10.9m/s | -51.7°C | 3.5% | 32.2hPa | 2.7V | 00:00:00 | 02:14:41 | 00:00:00 | |
| DF9NV-10 | 2026-09-03 12:44:14 | 48.35110 | 10.22235 | 321° | 15km/h | 23824m | -11.0m/s | 0°C | 0% | 0hPa | 2.6V | 00:00:00 | 00:00:00 | 00:00:00 | |
| DO3MHA-11 | 2026-09-03 12:44:13 | 48.35103 | 10.22245 | 315° | 22km/h | 23845m | -10.6m/s | -51.5°C | 3.6% | 32.1hPa | 2.6V | 00:00:00 | 02:14:39 | 00:00:00 | |
| DJ8HS-15 | 2026-09-03 12:44:12 | 48.35099 | 10.22251 | 317° | 22km/h | 23855m | -10.2m/s | -51.4°C | 3.6% | 32.0hPa | 2.6V | 08:19:00 | 02:14:38 | 00:00:00 | |
| DM0DOS-11 | 2026-09-03 12:44:10 | 48.35070 | 10.22279 | 9° | 16km/h | 23924m | -10.8m/s | -51.4°C | 3.5% | 31.7hPa | 2.6V | 08:19:22 | 02:14:32 | 00:00:00 | |
| DK7TD | 2026-09-03 12:44:06 | 48.35070 | 10.22279 | 10° | 16km/h | 23924m | -10.8m/s | -51.4°C | 0% | 31.7hPa | 2.6V | 08:19:36 | 02:14:32 | 00:00:00 | |
| DF3TZ-5 | 2026-09-03 12:44:06 | 48.35066 | 10.22277 | 36° | 13km/h | 23935m | -11.4m/s | -51.5°C | 0.7% | 31.7hPa | 2.6V | 00:00:00 | 00:00:00 | 00:00:00 | |
| OE5MMP-10 | 2026-09-03 12:44:05 | 48.35066 | 10.22277 | 37° | 20km/h | 23935m | -11.4m/s | -51.4°C | 3.5% | 31.6hPa | 2.6V | 00:00:00 | 02:14:31 | 00:00:00 | |
| DO3MHA-11 | 2026-09-03 12:44:03 | 48.35063 | 10.22267 | 77° | 22km/h | 23957m | -10.9m/s | -51.1°C | 3.4% | 31.5hPa | 2.6V | 00:00:00 | 02:14:29 | 00:00:00 | |
| DF1GD-15 | 2026-09-03 12:44:02 | 48.35063 | 10.22267 | 78° | 16km/h | 23957m | -11.0m/s | -51.1°C | 0.7% | 31.6hPa | 2.6V | 08:19:00 | 00:00:00 | 00:00:00 | |
| PG1ADW-2 | 2026-09-03 12:44:00 | 48.35064 | 10.22236 | 99° | 26km/h | 24002m | -10.5m/s | -50.4°C | 3.2% | 31.3hPa | 2.6V | 00:00:00 | 02:14:25 | 00:00:00 | |
| DM0DOS-11 | 2026-09-03 12:43:57 | 48.35070 | 10.22211 | 119° | 24km/h | 24036m | -10.9m/s | -50.3°C | 3.3% | 31.2hPa | 2.6V | 08:19:32 | 02:14:22 | 00:00:00 | |
| DK7TD | 2026-09-03 12:43:55 | 48.35073 | 10.22203 | 127° | 22km/h | 24047m | -11.2m/s | -50.3°C | 0% | 31.1hPa | 2.6V | 08:19:36 | 02:14:21 | 00:00:00 | |
| OE5MMP-10 | 2026-09-03 12:43:55 | 48.35073 | 10.22203 | 127° | 27km/h | 24047m | -11.1m/s | -50.3°C | 3.3% | 31.1hPa | 2.7V | 00:00:00 | 02:14:21 | 00:00:00 | |
| AZAK | 2026-09-03 12:43:54 | 48.35073 | 10.22203 | 128° | 22km/h | 24047m | -11.2m/s | -50.3°C | 0.7% | 31.2hPa | 2.7V | 08:19:00 | 00:00:00 | 00:00:00 | |
| DO3MHA-11 | 2026-09-03 12:43:53 | 48.35082 | 10.22192 | 149° | 27km/h | 24068m | -10.3m/s | -50.4°C | 3.2% | 31.0hPa | 2.7V | 00:00:00 | 02:14:19 | 00:00:00 | |
| DJ8HS-15 | 2026-09-03 12:43:52 | 48.35087 | 10.22188 | 159° | 29km/h | 24079m | -10.8m/s | -50.5°C | 3.3% | 31.0hPa | 2.6V | 00:00:00 | 02:14:18 | 00:00:00 | |
| DM0DOS-11 | 2026-09-03 12:43:51 | 48.35128 | 10.22166 | 149° | 29km/h | 24149m | -12.4m/s | -50°C | 3.3% | 30.6hPa | 2.6V | 08:19:42 | 02:14:12 | 00:00:00 | |
| DK7TD | 2026-09-03 12:43:44 | 48.35139 | 10.22154 | 131° | 26km/h | 24172m | -11.2m/s | -50°C | 0% | 30.6hPa | 2.7V | 08:20:27 | 02:14:10 | 00:00:00 | |
| DL6DJ-15 | 2026-09-03 12:43:44 | 48.35139 | 10.22154 | 131° | 26km/h | 24172m | -11.2m/s | -50.0°C | 0.6% | 30.6hPa | 2.6V | 00:00:00 | 00:00:00 | 00:00:00 | |
| DO3MHA-11 | 2026-09-03 12:43:43 | 48.35142 | 10.22146 | 114° | 29km/h | 24183m | -10.4m/s | -50.0°C | 3.4% | 30.4hPa | 2.6V | 00:00:00 | 02:14:09 | 00:00:00 | |
| DB0ND-19 | 2026-09-03 12:43:42 | 48.35144 | 10.22127 | 83° | 26km/h | 24204m | -10.0m/s | -50.1°C | 0.6% | 30.4hPa | 2.6V | 00:00:00 | 00:00:00 | 00:00:00 | |
| DO3MHA-12 | 2026-09-03 12:43:40 | 48.35142 | 10.22117 | 74° | 27km/h | 24214m | -10.1m/s | -50.0°C | 3.3% | 30.3hPa | 2.6V | 08:19:00 | 02:14:06 | 00:00:00 | |
| PG1ADW-2 | 2026-09-03 12:43:39 | 48.35140 | 10.22106 | 69° | 22km/h | 24225m | -11.5m/s | -49.8°C | 3.3% | 30.3hPa | 2.6V | 00:00:00 | 00:00:00 | 00:00:00 | |
| DM0DOS-11 | 2026-09-03 12:43:37 | 48.35131 | 10.22070 | 76° | 33km/h | 24261m | -11.4m/s | -49.1°C | 3% | 30.1hPa | 2.6V | 08:19:52 | 02:14:02 | 00:00:00 | |
| DK7TD | 2026-09-03 12:43:34 | 48.35128 | 10.22047 | 81° | 27km/h | 24285m | -11.1m/s | -48.9°C | 0% | 30hPa | 2.6V | 08:20:27 | 02:14:00 | 00:00:00 | |
| DO3MHA-11 | 2026-09-03 12:43:33 | 48.35128 | 10.22038 | 90° | 18km/h | 24296m | -10.7m/s | -49.0°C | 3.0% | 29.9hPa | 2.7V | 00:00:00 | 02:13:59 | 00:00:00 | |
| OE5MMP-10 | 2026-09-03 12:43:32 | 48.35128 | 10.22030 | 102° | 18km/h | 24307m | -10.7m/s | -49.1°C | 3.0% | 29.9hPa | 2.7V | 00:00:00 | 02:13:58 | 00:00:00 | |
| DM0DOS-11 | 2026-09-03 12:43:31 | 48.35147 | 10.22006 | 155° | 18km/h | 24377m | -13m/s | -49.1°C | 3% | 29.6hPa | 2.7V | 08:20:02 | 02:13:52 | 00:00:00 | |
| DK7TD | 2026-09-03 12:43:23 | 48.35159 | 10.21996 | 146° | 18km/h | 24413m | -12.6m/s | -49.2°C | 0% | 29.4hPa | 2.7V | 08:20:27 | 02:13:49 | 00:00:00 | |
| DO3MHA-11 | 2026-09-03 12:43:23 | 48.35159 | 10.21996 | 147° | 26km/h | 24414m | -12.5m/s | -49.2°C | 3.1% | 29.4hPa | 2.7V | 08:20:00 | 02:13:49 | 00:00:00 | |
| OE5MMP-10 | 2026-09-03 12:43:21 | 48.35165 | 10.21986 | 129° | 29km/h | 24437m | -11.4m/s | -49.2°C | 3.2% | 29.3hPa | 2.7V | 00:00:00 | 02:13:47 | 00:00:00 | |
| DO3MHA-12 | 2026-09-03 12:43:20 | 48.35168 | 10.21980 | 118° | 33km/h | 24448m | -11.9m/s | -49.2°C | 3.2% | 29.2hPa | 2.7V | 00:00:00 | 02:13:46 | 00:00:00 | |
| PG1ADW-2 | 2026-09-03 12:43:19 | 48.35169 | 10.21973 | 104° | 29km/h | 24460m | -10.3m/s | -49.2°C | 3.2% | 29.2hPa | 2.7V | 00:00:00 | 00:00:00 | 00:00:00 | |
| DM0DOS-11 | 2026-09-03 12:43:17 | 48.35170 | 10.21944 | 86° | 31km/h | 24491m | -9.9m/s | -49°C | 3.1% | 29.1hPa | 2.6V | 08:20:12 | 02:13:42 | 00:00:00 | |
| DK7TD | 2026-09-03 12:43:12 | 48.35170 | 10.21885 | 96° | 44km/h | 24536m | -14m/s | -48.9°C | 0% | 28.9hPa | 2.7V | 08:20:27 | 02:13:38 | 00:00:00 | |
| DJ8HS-15 | 2026-09-03 12:43:12 | 48.35170 | 10.21885 | 97° | 31km/h | 24537m | -13.9m/s | -48.8°C | 3.0% | 28.8hPa | 2.7V | 00:00:00 | 02:13:38 | 00:00:00 | |
| DM0DOS-11 | 2026-09-03 12:43:11 | 48.35199 | 10.21826 | 183° | 26km/h | 24615m | -10.5m/s | -48.5°C | 2.9% | 28.5hPa | 2.7V | 08:20:22 | 02:13:32 | 00:00:00 | |
| DK7TD | 2026-09-03 12:43:01 | 48.35213 | 10.21856 | 283° | 20km/h | 24680m | -13.4m/s | -48.2°C | 0% | 28.2hPa | 2.7V | 08:20:27 | 02:13:27 | 00:00:00 | |
| OE5MMP-10 | 2026-09-03 12:43:01 | 48.35213 | 10.21856 | 284° | 35km/h | 24681m | -13.4m/s | -48.1°C | 3.0% | 28.2hPa | 2.7V | 00:00:00 | 02:13:27 | 00:00:00 | |
| DO3MHA-12 | 2026-09-03 12:43:00 | 48.35210 | 10.21862 | 316° | 38km/h | 24695m | -15.1m/s | -48.2°C | 2.9% | 28.1hPa | 2.7V | 00:00:00 | 02:13:26 | 00:00:00 | |
| PG1ADW-2 | 2026-09-03 12:42:59 | 48.35206 | 10.21867 | 335° | 40km/h | 24709m | -12.2m/s | -48.2°C | 3.0% | 28.1hPa | 2.7V | 00:00:00 | 00:00:00 | 00:00:00 | |
| DM0DOS-11 | 2026-09-03 12:42:57 | 48.35184 | 10.21862 | 30° | 38km/h | 24747m | -11.4m/s | -48.5°C | 3% | 28hPa | 2.7V | 08:20:32 | 02:13:22 | 00:00:00 | |
| DK7TD | 2026-09-03 12:42:51 | 48.35155 | 10.21788 | 78° | 51km/h | 24814m | -13.1m/s | -48.1°C | 0% | 27.7hPa | 2.6V | 08:21:18 | 02:13:17 | 00:00:00 | |
| DO3MHA-12 | 2026-09-03 12:42:50 | 48.35154 | 10.21768 | 88° | 42km/h | 24827m | -13.8m/s | -48.1°C | 2.9% | 27.6hPa | 2.7V | 00:00:00 | 02:13:16 | 00:00:00 | |
| DM0DOS-11 | 2026-09-03 12:42:47 | 48.35166 | 10.21702 | 129° | 40km/h | 24880m | -11.8m/s | -48.2°C | 2.9% | 27.4hPa | 2.7V | 08:20:42 | 02:13:12 | 00:00:00 | |
| DK7TD | 2026-09-03 12:42:41 | 48.35208 | 10.21681 | 186° | 38km/h | 24941m | -12.9m/s | -48°C | 0% | 27.1hPa | 2.7V | 08:21:18 | 02:13:07 | 00:00:00 | |
| DK7TD | 2026-09-03 12:42:31 | 48.35237 | 10.21748 | 344° | 26km/h | 25073m | -14.7m/s | -48.3°C | 0% | 26.6hPa | 2.6V | 08:21:18 | 02:12:57 | 00:00:00 | |
| DK7TD | 2026-09-03 12:42:20 | 48.35178 | 10.21687 | 83° | 31km/h | 25214m | -12.4m/s | -48.7°C | 0% | 26hPa | 2.6V | 08:21:18 | 02:12:46 | 00:00:00 | |
| DO3MHA-12 | 2026-09-03 12:42:20 | 48.35178 | 10.21687 | 84° | 35km/h | 25214m | -12.4m/s | -48.6°C | 3.0% | 26.0hPa | 2.6V | 00:00:00 | 02:12:46 | 00:00:00 | |
| PG1ADW-2 | 2026-09-03 12:42:19 | 48.35177 | 10.21675 | 83° | 31km/h | 25226m | -11.7m/s | -48.6°C | 3.0% | 25.9hPa | 2.6V | 00:00:00 | 00:00:00 | 00:00:00 | |
| DF1GD-15 | 2026-09-03 12:42:18 | 48.35177 | 10.21675 | 83° | 33km/h | 25226m | -11.8m/s | -48.7°C | 0.6% | 26.0hPa | 2.7V | 08:21:00 | 00:00:00 | 00:00:00 | |
| DM0DOS-11 | 2026-09-03 12:42:17 | 48.35174 | 10.21633 | 84° | 42km/h | 25263m | -12.9m/s | -48.4°C | 2.9% | 25.8hPa | 2.7V | 08:21:12 | 02:12:42 | 00:00:00 | |
| OE5DRO-10 | 2026-09-03 12:42:17 | 48.35175 | 10.21648 | 86° | 29km/h | 25251m | -12.7m/s | -48.5°C | 2.9% | 25.9hPa | 2.6V | 00:00:00 | 00:00:00 | 00:00:00 | |
| BAUMI2-15 | 2026-09-03 12:42:16 | 48.35174 | 10.21633 | 85° | 38km/h | 25264m | -12.8m/s | -48.4°C | 2.9% | 25.8hPa | 2.6V | 00:00:00 | 02:12:42 | 00:00:00 | |
| DJ8HS-15 | 2026-09-03 12:42:12 | 48.35179 | 10.21576 | 113° | 27km/h | 25321m | -12.5m/s | -48.0°C | 2.7% | 25.5hPa | 2.6V | 00:00:00 | 02:12:38 | 00:00:00 | |
| DL6DJ-15 | 2026-09-03 12:42:11 | 48.35187 | 10.21561 | 154° | 22km/h | 25346m | -12.9m/s | -48.3°C | 0.5% | 25.5hPa | 2.6V | 00:00:00 | 00:00:00 | 00:00:00 | |
| DM0DOS-11 | 2026-09-03 12:42:10 | 48.35209 | 10.21574 | 228° | 29km/h | 25400m | -13.8m/s | -48.3°C | 2.8% | 25.3hPa | 2.6V | 08:21:22 | 02:12:32 | 00:00:00 | |
| DK7TD | 2026-09-03 12:42:10 | 48.35187 | 10.21561 | 155° | 22km/h | 25346m | -12.9m/s | -48.3°C | 0% | 25.5hPa | 2.7V | 08:21:18 | 02:12:36 | 00:00:00 | |
| DK7TD | 2026-09-03 12:41:59 | 48.35212 | 10.21640 | 314° | 26km/h | 25497m | -12.2m/s | -48.6°C | 0% | 24.9hPa | 2.7V | 08:22:09 | 02:12:25 | 00:00:00 | |
| PG1ADW-2 | 2026-09-03 12:41:59 | 48.35212 | 10.21640 | 315° | 33km/h | 25497m | -12.2m/s | -48.6°C | 3.0% | 24.9hPa | 2.6V | 00:00:00 | 00:00:00 | 00:00:00 | |
| NBG1-10 | 2026-09-03 12:41:58 | 48.35206 | 10.21646 | 328° | 37km/h | 25510m | -12.8m/s | -48.6°C | 3.0% | 24.8hPa | 2.6V | 00:00:00 | 02:12:24 | 00:00:00 | |
| DM0DOS-11 | 2026-09-03 12:41:57 | 48.35194 | 10.21654 | 339° | 27km/h | 25536m | -12.8m/s | -48.8°C | 3% | 24.8hPa | 2.6V | 08:21:32 | 02:12:22 | 00:00:00 | |
| DF7PN | 2026-09-03 12:41:53 | 48.35172 | 10.21662 | 350° | 29km/h | 25576m | -13.1m/s | -49.0°C | 0.6% | 24.6hPa | 2.7V | 00:00:00 | 00:00:00 | 00:00:00 | |
| DJ8HS-15 | 2026-09-03 12:41:52 | 48.35165 | 10.21664 | 350° | 37km/h | 25590m | -13.3m/s | -49.0°C | 3.0% | 24.5hPa | 2.7V | 00:00:00 | 02:12:18 | 00:00:00 | |
| OE5MMP-10 | 2026-09-03 12:41:51 | 48.35157 | 10.21665 | 354° | 35km/h | 25602m | -11.7m/s | -49.0°C | 3.1% | 24.5hPa | 2.7V | 00:00:00 | 02:12:17 | 00:00:00 | |
| DM0DOS-11 | 2026-09-03 12:41:50 | 48.35117 | 10.21675 | 340° | 33km/h | 25665m | -12.1m/s | -49°C | 3% | 24.3hPa | 2.7V | 08:21:42 | 02:12:12 | 00:00:00 | |
| DK7TD | 2026-09-03 12:41:48 | 48.35133 | 10.21670 | 353° | 33km/h | 25639m | -12.2m/s | -49.1°C | 0% | 24.4hPa | 2.6V | 08:22:09 | 02:12:14 | 00:00:00 | |
| DB0UT-7 | 2026-09-03 12:41:46 | 48.35117 | 10.21675 | 341° | 42km/h | 25665m | -12.1m/s | -49.0°C | 3.0% | 24.2hPa | 2.7V | 00:00:00 | 00:00:00 | 00:00:00 | |
| OE5MMP-10 | 2026-09-03 12:41:41 | 48.35081 | 10.21717 | 306° | 42km/h | 25726m | -11.7m/s | -48.6°C | 2.9% | 24.0hPa | 2.7V | 00:00:00 | 02:12:07 | 00:00:00 | |
| DL6DJ-15 | 2026-09-03 12:41:40 | 48.35069 | 10.21744 | 301° | 42km/h | 25750m | -12.9m/s | -48.6°C | 0.6% | 23.9hPa | 2.6V | 00:00:00 | 00:00:00 | 00:00:00 | |
| DO3MHA-11 | 2026-09-03 12:41:39 | 48.35069 | 10.21744 | 302° | 40km/h | 25750m | -12.9m/s | -48.5°C | 2.9% | 23.9hPa | 2.6V | 00:00:00 | 02:12:05 | 00:00:00 | |
| DM0DOS-11 | 2026-09-03 12:41:38 | 48.35049 | 10.21781 | 322° | 42km/h | 25792m | -13.6m/s | -48.7°C | 2.9% | 23.8hPa | 2.6V | 08:21:52 | 02:12:02 | 00:00:00 | |
| DK7TD | 2026-09-03 12:41:38 | 48.35063 | 10.21758 | 305° | 44km/h | 25763m | -14m/s | -48.6°C | 0% | 23.9hPa | 2.6V | 08:22:09 | 02:12:04 | 00:00:00 | |
| DK7TD | 2026-09-03 12:41:27 | 48.34958 | 10.21775 | 19° | 47km/h | 25910m | -13.2m/s | -49.3°C | 0% | 23.4hPa | 2.7V | 08:22:09 | 02:11:53 | 00:00:00 | |
| DM0DOS-11 | 2026-09-03 12:41:27 | 48.34946 | 10.21768 | 22° | 49km/h | 25923m | -12.7m/s | -49.3°C | 3.1% | 23.3hPa | 2.6V | 08:22:02 | 02:11:52 | 00:00:00 | |
| NBG1-10 | 2026-09-03 12:41:25 | 48.34935 | 10.21761 | 25° | 40km/h | 25936m | -13.7m/s | -49.2°C | 3.1% | 23.2hPa | 2.6V | 00:00:00 | 02:11:51 | 00:00:00 | |
| DF7PN | 2026-09-03 12:41:22 | 48.34903 | 10.21735 | 33° | 46km/h | 25974m | -13.1m/s | -49.4°C | 0.6% | 23.1hPa | 2.6V | 00:00:00 | 00:00:00 | 00:00:00 | |
| OE5MMP-10 | 2026-09-03 12:41:21 | 48.34893 | 10.21726 | 36° | 44km/h | 25987m | -11.9m/s | -49.5°C | 3.2% | 23.0hPa | 2.6V | 00:00:00 | 02:11:47 | 00:00:00 | |
| DM0DOS-11 | 2026-09-03 12:41:21 | 48.34856 | 10.21665 | 56° | 44km/h | 26052m | -14.6m/s | -49.5°C | 3.2% | 22.9hPa | 2.7V | 08:22:12 | 02:11:42 | 00:00:00 | |
| DO3MHA-12 | 2026-09-03 12:41:20 | 48.34884 | 10.21715 | 42° | 44km/h | 25999m | -12.4m/s | -49.5°C | 3.2% | 23.0hPa | 2.6V | 00:00:00 | 02:11:46 | 00:00:00 | |
| DO3MHA-11 | 2026-09-03 12:41:19 | 48.34877 | 10.21704 | 48° | 44km/h | 26013m | -13.8m/s | -49.5°C | 3.2% | 23.0hPa | 2.6V | 00:00:00 | 02:11:45 | 00:00:00 | |
| DB0UT-7 | 2026-09-03 12:41:16 | 48.34856 | 10.21665 | 57° | 37km/h | 26052m | -14.5m/s | -49.4°C | 3.2% | 22.8hPa | 2.7V | 00:00:00 | 02:11:42 | 00:00:00 | |
| DK7TD | 2026-09-03 12:41:16 | 48.34856 | 10.21665 | 57° | 44km/h | 26052m | -14.6m/s | -49.5°C | 0% | 22.9hPa | 2.7V | 08:23:00 | 02:11:42 | 00:00:00 | |
| DF1GD-15 | 2026-09-03 12:41:15 | 48.34856 | 10.21665 | 58° | 44km/h | 26052m | -14.6m/s | -49.5°C | 0.7% | 22.9hPa | 2.6V | 08:23:00 | 00:00:00 | 00:00:00 | |
| DJ8HS-15 | 2026-09-03 12:41:12 | 48.34831 | 10.21607 | 57° | 37km/h | 26105m | -12.1m/s | -48.9°C | 3.1% | 22.6hPa | 2.6V | 08:22:00 | 02:11:38 | 00:00:00 | |
| OE5MMP-10 | 2026-09-03 12:41:11 | 48.34825 | 10.21593 | 57° | 38km/h | 26118m | -13.2m/s | -49.0°C | 3.2% | 22.6hPa | 2.7V | 00:00:00 | 02:11:37 | 00:00:00 | |
| DB0NH | 2026-09-03 12:41:10 | 48.34819 | 10.21580 | 58° | 35km/h | 26131m | -12.8m/s | -48.9°C | 3.1% | 22.6hPa | 2.6V | 00:00:00 | 02:11:36 | 00:00:00 | |
| AZAK | 2026-09-03 12:41:09 | 48.34814 | 10.21567 | 58° | 40km/h | 26143m | -11.8m/s | -48.9°C | 0.6% | 22.5hPa | 2.6V | 08:23:00 | 00:00:00 | 00:00:00 | |
| DM0DOS-11 | 2026-09-03 12:41:08 | 48.34798 | 10.21531 | 56° | 37km/h | 26180m | -12m/s | -48.5°C | 3% | 22.4hPa | 2.6V | 08:22:22 | 02:11:32 | 00:00:00 | |
| DK7TD | 2026-09-03 12:41:05 | 48.34793 | 10.21520 | 56° | 37km/h | 26193m | -13.2m/s | -48.4°C | 0% | 22.4hPa | 2.7V | 08:23:00 | 02:11:31 | 00:00:00 | |
| OE5MMP-10 | 2026-09-03 12:41:01 | 48.34775 | 10.21475 | 67° | 35km/h | 26245m | -12.6m/s | -48.2°C | 2.9% | 22.1hPa | 2.6V | 00:00:00 | 02:11:27 | 00:00:00 | |
| DM0DOS-11 | 2026-09-03 12:41:00 | 48.34762 | 10.21415 | 79° | 35km/h | 26308m | -13.3m/s | -48.3°C | 3% | 22hPa | 2.6V | 08:22:32 | 02:11:22 | 00:00:00 | |
| DK7TD | 2026-09-03 12:40:54 | 48.34761 | 10.21389 | 88° | 35km/h | 26333m | -12.5m/s | -48.2°C | 0% | 21.9hPa | 2.6V | 08:23:00 | 02:11:20 | 00:00:00 | |
| DF1GD-15 | 2026-09-03 12:40:54 | 48.34761 | 10.21402 | 87° | 35km/h | 26321m | -12.5m/s | -48.2°C | 0.6% | 22.0hPa | 2.6V | 08:23:00 | 00:00:00 | 00:00:00 | |
| DJ8HS-15 | 2026-09-03 12:40:52 | 48.34761 | 10.21362 | 99° | 31km/h | 26359m | -12.5m/s | -48.0°C | 2.9% | 21.8hPa | 2.6V | 00:00:00 | 02:11:18 | 00:00:00 | |
| OE5MMP-10 | 2026-09-03 12:40:51 | 48.34763 | 10.21349 | 101° | 31km/h | 26372m | -12.6m/s | -48.0°C | 2.9% | 21.7hPa | 2.6V | 00:00:00 | 02:11:17 | 00:00:00 | |
| DO3MHA-12 | 2026-09-03 12:40:50 | 48.34765 | 10.21336 | 106° | 31km/h | 26385m | -13.4m/s | -47.8°C | 2.9% | 21.7hPa | 2.6V | 00:00:00 | 02:11:16 | 00:00:00 | |
| DO3MHA-11 | 2026-09-03 12:40:49 | 48.34768 | 10.21324 | 114° | 31km/h | 26398m | -12.7m/s | -47.8°C | 2.8% | 21.6hPa | 2.6V | 00:00:00 | 02:11:15 | 00:00:00 | |
| AZAK | 2026-09-03 12:40:48 | 48.34768 | 10.21324 | 114° | 35km/h | 26398m | -12.8m/s | -47.9°C | 0.5% | 21.7hPa | 2.7V | 08:23:00 | 00:00:00 | 00:00:00 | |
| DM0DOS-11 | 2026-09-03 12:40:47 | 48.34781 | 10.21293 | 134° | 31km/h | 26437m | -12.8m/s | -48.1°C | 2.9% | 21.6hPa | 2.7V | 08:22:42 | 02:11:12 | 00:00:00 | |
| DK7TD | 2026-09-03 12:40:44 | 48.34793 | 10.21279 | 152° | 29km/h | 26463m | -13.8m/s | -48.1°C | 0% | 21.5hPa | 2.6V | 08:23:00 | 02:11:10 | 00:00:00 | |
| OE5DRO-10 | 2026-09-03 12:40:42 | 48.34806 | 10.21273 | 174° | 35km/h | 26490m | -13.3m/s | -48.0°C | 2.9% | 21.3hPa | 2.6V | 00:00:00 | 00:00:00 | 00:00:00 | |
| DM0DOS-11 | 2026-09-03 12:40:41 | 48.34840 | 10.21301 | 246° | 27km/h | 26571m | -13.3m/s | -48.1°C | 3% | 21.1hPa | 2.6V | 08:22:52 | 02:11:02 | 00:00:00 | |
| DK7TD | 2026-09-03 12:40:33 | 48.34841 | 10.21335 | 285° | 33km/h | 26611m | -13.8m/s | -48°C | 0% | 21hPa | 2.7V | 08:23:00 | 02:10:59 | 00:00:00 | |
| DJ8HS-15 | 2026-09-03 12:40:32 | 48.34838 | 10.21346 | 298° | 49km/h | 26625m | -14.0m/s | -47.8°C | 3.0% | 20.9hPa | 2.6V | 00:00:00 | 02:10:58 | 00:00:00 | |
| OE5MMP-10 | 2026-09-03 12:40:31 | 48.34833 | 10.21357 | 311° | 47km/h | 26639m | -13.3m/s | -47.7°C | 2.9% | 20.8hPa | 2.6V | 00:00:00 | 02:10:57 | 00:00:00 | |
| DM0DOS-11 | 2026-09-03 12:40:30 | 48.34785 | 10.21384 | 2° | 47km/h | 26706m | -13.2m/s | -47.3°C | 2.8% | 20.7hPa | 2.6V | 08:23:02 | 02:10:52 | 00:00:00 | |
| DK7TD | 2026-09-03 12:40:22 | 48.34735 | 10.21358 | 34° | 57km/h | 26758m | -13.5m/s | -47.5°C | 0% | 20.5hPa | 2.7V | 08:23:51 | 02:10:48 | 00:00:00 | |
| OE5MMP-10 | 2026-09-03 12:40:21 | 48.34724 | 10.21345 | 39° | 51km/h | 26772m | -12.7m/s | -47.5°C | 2.8% | 20.4hPa | 2.7V | 00:00:00 | 02:10:47 | 00:00:00 | |
| DM0DOS-11 | 2026-09-03 12:40:20 | 48.34682 | 10.21261 | 69° | 51km/h | 26838m | -13.5m/s | -47.3°C | 2.7% | 20.2hPa | 2.7V | 08:23:12 | 02:10:42 | 00:00:00 | |
| DK7TD | 2026-09-03 12:40:11 | 48.34679 | 10.21180 | 112° | 35km/h | 26903m | -13m/s | -47.3°C | 0% | 20.1hPa | 2.7V | 08:23:51 | 02:10:37 | 00:00:00 | |
| DK7TD | 2026-09-03 12:40:01 | 48.34712 | 10.21173 | 296° | 26km/h | 27040m | -13.1m/s | -47.5°C | 0% | 19.6hPa | 2.6V | 08:23:51 | 02:10:27 | 00:00:00 | |
| SONCRA | 2026-09-03 12:39:57 | 48.34684 | 10.21208 | 336° | 46km/h | 27093m | -13.3m/s | -47.6°C | 0.5% | 19.5hPa | 2.6V | 00:00:00 | 00:00:00 | 00:00:00 | |
| DM0DOS-11 | 2026-09-03 12:39:56 | 48.34672 | 10.21214 | 342° | 51km/h | 27106m | -13.5m/s | -47.7°C | 2.9% | 19.4hPa | 2.6V | 08:23:32 | 02:10:22 | 00:00:00 | |
| DF1GD-15 | 2026-09-03 12:39:53 | 48.34646 | 10.21222 | 357° | 57km/h | 27134m | -13.6m/s | -47.8°C | 0.6% | 19.3hPa | 2.7V | 08:23:00 | 00:00:00 | 00:00:00 | |
| DJ8HS-15 | 2026-09-03 12:39:52 | 48.34617 | 10.21220 | 11° | 49km/h | 27160m | -13.3m/s | -48.1°C | 3.0% | 19.2hPa | 2.7V | 00:00:00 | 02:10:18 | 00:00:00 | |
| DM0DOS-11 | 2026-09-03 12:39:51 | 48.34546 | 10.21152 | 56° | 55km/h | 27241m | -14m/s | -48.3°C | 2.9% | 19hPa | 2.7V | 08:23:42 | 02:10:12 | 00:00:00 | |
| DK7TD | 2026-09-03 12:39:50 | 48.34589 | 10.21207 | 25° | 58km/h | 27187m | -13.1m/s | -48.4°C | 0% | 19.2hPa | 2.6V | 08:23:51 | 02:10:16 | 00:00:00 | |
| DF8AY | 2026-09-03 12:39:46 | 48.34546 | 10.21152 | 56° | 55km/h | 27241m | -14m/s | -48.3°C | 0% | 19hPa | 2.7V | 08:23:51 | 02:10:12 | 00:00:00 | |
| DB0UT-7 | 2026-09-03 12:39:46 | 48.34546 | 10.21151 | 57° | 38km/h | 27241m | -14.0m/s | -48.2°C | 2.9% | 19.0hPa | 2.7V | 08:23:00 | 00:00:00 | 00:00:00 | |
| OE5DRO-10 | 2026-09-03 12:39:45 | 48.34539 | 10.21134 | 64° | 42km/h | 27255m | -13.5m/s | -48.1°C | 2.8% | 19.0hPa | 2.7V | 08:23:00 | 00:00:00 | 00:00:00 | |
| DM7RM-13 | 2026-09-03 12:39:44 | 48.34539 | 10.21134 | 64° | 55km/h | 27255m | -13.5m/s | -48.2°C | 0.6% | 19.0hPa | 2.6V | 08:23:00 | 00:00:00 | 00:00:00 | |
| DM0DOS-11 | 2026-09-03 12:39:41 | 48.34562 | 10.20995 | 152° | 44km/h | 27376m | -13.8m/s | -47.8°C | 2.9% | 18.6hPa | 2.6V | 08:23:52 | 02:10:02 | 00:00:00 | |
| DK7TD | 2026-09-03 12:39:39 | 48.34538 | 10.21028 | 121° | 44km/h | 27336m | -13.3m/s | -47.9°C | 0% | 18.8hPa | 2.7V | 08:23:51 | 02:10:05 | 00:00:00 | |
| DF8AY | 2026-09-03 12:39:35 | 48.34582 | 10.20984 | 169° | 42km/h | 27403m | -13.9m/s | -47.8°C | 0% | 18.6hPa | 2.7V | 08:24:42 | 02:10:00 | 00:00:00 | |
| DJ8HS-15 | 2026-09-03 12:39:33 | 48.34603 | 10.20982 | 185° | 31km/h | 27430m | -13.4m/s | -47.8°C | 2.9% | 18.4hPa | 2.6V | 00:00:00 | 02:09:58 | 00:00:00 | |
| DM0DOS-11 | 2026-09-03 12:39:31 | 48.34649 | 10.21017 | 228° | 29km/h | 27510m | -13.2m/s | -48.3°C | 3% | 18.3hPa | 2.6V | 08:24:02 | 02:09:52 | 00:00:00 | |
| DK7TD | 2026-09-03 12:39:28 | 48.34637 | 10.21001 | 216° | 33km/h | 27484m | -13.1m/s | -48.3°C | 0% | 18.3hPa | 2.7V | 08:24:42 | 02:09:54 | 00:00:00 | |
| DF8AY | 2026-09-03 12:39:24 | 48.34657 | 10.21035 | 237° | 27km/h | 27537m | -13m/s | -48.3°C | 0% | 0hPa | 2.6V | 08:24:42 | 02:09:50 | 00:00:00 | |
| DO9LL-15 | 2026-09-03 12:39:24 | 48.34657 | 10.21035 | 238° | 35km/h | 27537m | -12.9m/s | -48.2°C | 3.0% | 18.1hPa | 2.7V | 00:00:00 | 02:09:50 | 00:00:00 | |
| DM7RM-13 | 2026-09-03 12:39:23 | 48.34657 | 10.21035 | 238° | 27km/h | 27537m | -13.0m/s | -48.3°C | 0.6% | 18.2hPa | 2.7V | 08:24:00 | 00:00:00 | 00:00:00 | |
| DM0DOS-11 | 2026-09-03 12:39:21 | 48.34689 | 10.21103 | 223° | 27km/h | 27642m | -13.4m/s | -48.1°C | 3% | 17.9hPa | 2.7V | 08:24:12 | 02:09:42 | 00:00:00 | |
| DK7TD | 2026-09-03 12:39:17 | 48.34684 | 10.21095 | 227° | 29km/h | 27629m | -12.9m/s | -48.1°C | 0% | 17.9hPa | 2.7V | 08:24:42 | 02:09:43 | 00:00:00 | |
| DF8AY | 2026-09-03 12:39:15 | 48.34707 | 10.21122 | 209° | 29km/h | 27682m | -13.7m/s | -47.8°C | 0% | 0hPa | 2.6V | 08:24:42 | 02:09:39 | 00:00:00 | |
| NBG1-10 | 2026-09-03 12:39:13 | 48.34706 | 10.21122 | 209° | 38km/h | 27683m | -13.7m/s | -47.8°C | 3.0% | 17.7hPa | 2.7V | 00:00:00 | 02:09:39 | 00:00:00 | |
| DJ8HS-15 | 2026-09-03 12:39:12 | 48.34713 | 10.21127 | 205° | 35km/h | 27696m | -13.2m/s | -47.7°C | 2.9% | 17.7hPa | 2.7V | 00:00:00 | 02:09:38 | 00:00:00 | |
| OE5MMP-10 | 2026-09-03 12:39:11 | 48.34721 | 10.21132 | 201° | 31km/h | 27710m | -13.6m/s | -47.8°C | 3.0% | 17.7hPa | 2.7V | 08:24:00 | 02:09:37 | 00:00:00 | |
| DJ2DS-15 | 2026-09-03 12:39:10 | 48.34728 | 10.21136 | 198° | 37km/h | 27723m | -13.8m/s | -47.8°C | 3.0% | 17.6hPa | 2.6V | 00:00:00 | 02:09:36 | 00:00:00 | |
| DM0DOS-11 | 2026-09-03 12:39:09 | 48.34759 | 10.21144 | 181° | 31km/h | 27778m | -13.4m/s | -47.9°C | 3% | 17.5hPa | 2.6V | 08:24:22 | 02:09:32 | 00:00:00 | |
| DK7TD | 2026-09-03 12:39:07 | 48.34751 | 10.21143 | 187° | 31km/h | 27764m | -13.7m/s | -47.8°C | 0% | 17.6hPa | 2.7V | 08:24:42 | 02:09:33 | 00:00:00 | |
| DL1XH-west | 2026-09-03 12:39:04 | 48.34798 | 10.21137 | 164° | 33km/h | 27846m | -13.3m/s | -47.5°C | 0% | 17.4hPa | 2.6V | 08:24:42 | 02:09:27 | 00:00:00 | |
| DF8AY | 2026-09-03 12:39:04 | 48.34782 | 10.21142 | 171° | 31km/h | 27818m | -13.5m/s | -47.8°C | 0% | 0hPa | 2.7V | 08:24:42 | 02:09:29 | 00:00:00 | |
| DK7TD | 2026-09-03 12:38:56 | 48.34842 | 10.21113 | 159° | 40km/h | 27913m | -13.3m/s | -47.2°C | 0% | 17.2hPa | 2.6V | 08:24:42 | 02:09:22 | 00:00:00 | |
| DF8AY | 2026-09-03 12:38:53 | 48.34882 | 10.21093 | 166° | 46km/h | 27967m | -14.1m/s | 0°C | 0% | 0hPa | 2.7V | 08:24:42 | 02:09:18 | 00:00:00 | |
| DL1XH-west | 2026-09-03 12:38:51 | 48.34893 | 10.21090 | 169° | 46km/h | 27981m | -13.8m/s | -46.8°C | 0% | 17hPa | 2.6V | 08:24:42 | 02:09:17 | 00:00:00 | |
| DK7TD | 2026-09-03 12:38:45 | 48.34963 | 10.21085 | 187° | 44km/h | 28065m | -14.4m/s | -46.7°C | 0% | 16.8hPa | 2.6V | 08:25:33 | 02:09:11 | 00:00:00 | |
| DL1XH-west | 2026-09-03 12:38:40 | 48.35008 | 10.21104 | 212° | 27km/h | 28135m | -13.7m/s | -47.1°C | 0% | 16.6hPa | 2.7V | 08:26:24 | 02:09:06 | 00:00:00 | |
| DO3MHA-12 | 2026-09-03 12:38:40 | 48.35008 | 10.21104 | 213° | 22km/h | 28135m | -13.6m/s | -47.1°C | 2.8% | 16.6hPa | 2.7V | 00:00:00 | 02:09:06 | 00:00:00 | |
| DO3MHA-11 | 2026-09-03 12:38:39 | 48.35013 | 10.21110 | 222° | 22km/h | 28149m | -13.7m/s | -47.0°C | 2.8% | 16.5hPa | 2.7V | 00:00:00 | 02:09:05 | 00:00:00 | |
| DM0DOS-11 | 2026-09-03 12:38:37 | 48.35022 | 10.21131 | 256° | 20km/h | 28190m | -13.7m/s | -46.9°C | 2.7% | 16.5hPa | 2.7V | 08:24:52 | 02:09:02 | 00:00:00 | |
| DK7TD | 2026-09-03 12:38:35 | 48.35022 | 10.21139 | 272° | 20km/h | 28204m | -13.9m/s | -47°C | 0% | 16.4hPa | 2.7V | 08:25:33 | 02:09:01 | 00:00:00 | |
| DL1XH-west | 2026-09-03 12:38:30 | 48.35008 | 10.21169 | 334° | 22km/h | 28275m | -14m/s | -46.9°C | 0% | 16.2hPa | 2.7V | 08:26:24 | 02:08:56 | 00:00:00 | |
| DJ2DS-15 | 2026-09-03 12:38:30 | 48.35008 | 10.21169 | 335° | 38km/h | 28275m | -13.9m/s | -46.9°C | 2.8% | 16.2hPa | 2.7V | 00:00:00 | 02:08:56 | 00:00:00 | |
| DM0DOS-11 | 2026-09-03 12:38:27 | 48.34985 | 10.21169 | 19° | 27km/h | 28331m | -14.4m/s | -47.3°C | 2.9% | 16.1hPa | 2.7V | 08:25:02 | 02:08:52 | 00:00:00 | |
| DF8AY | 2026-09-03 12:38:27 | 48.34991 | 10.21172 | 10° | 26km/h | 28317m | -14.1m/s | 0°C | 0% | 0hPa | 2.7V | 18:12:15 | 02:08:53 | 00:00:00 | |
| DK7TD | 2026-09-03 12:38:24 | 48.34972 | 10.21158 | 39° | 33km/h | 28360m | -14.4m/s | -47.3°C | 0% | 16.1hPa | 2.6V | 08:25:33 | 02:08:50 | 00:00:00 | |
| DL1XH-west | 2026-09-03 12:38:19 | 48.34947 | 10.21101 | 77° | 40km/h | 28432m | -14.5m/s | -47.5°C | 0% | 15.8hPa | 2.7V | 08:26:24 | 02:08:45 | 00:00:00 | |
| DO3MHA-11 | 2026-09-03 12:38:19 | 48.34947 | 10.21101 | 77° | 49km/h | 28433m | -14.4m/s | -47.4°C | 3.0% | 15.8hPa | 2.7V | 00:00:00 | 02:08:45 | 00:00:00 | |
| DM0DOS-11 | 2026-09-03 12:38:17 | 48.34947 | 10.21051 | 101° | 47km/h | 28477m | -14.8m/s | -47.3°C | 2.9% | 15.7hPa | 2.6V | 08:25:12 | 02:08:42 | 00:00:00 | |
| DF8AY | 2026-09-03 12:38:17 | 48.34945 | 10.21069 | 92° | 46km/h | 28463m | -15.1m/s | 0°C | 0% | 0hPa | 2.7V | 18:12:15 | 02:08:43 | 00:00:00 | |
| DK7TD | 2026-09-03 12:38:14 | 48.34962 | 10.21001 | 127° | 51km/h | 28523m | -15.1m/s | -46.9°C | 0% | 15.6hPa | 2.7V | 08:25:33 | 02:08:39 | 00:00:00 | |
| DJ8HS-15 | 2026-09-03 12:38:12 | 48.34970 | 10.20986 | 136° | 46km/h | 28538m | -14.7m/s | -46.8°C | 2.8% | 15.5hPa | 2.7V | 08:25:00 | 02:08:38 | 00:00:00 | |
| DM0DOS-11 | 2026-09-03 12:38:11 | 48.35044 | 10.20955 | 191° | 53km/h | 28627m | -15.1m/s | -46.4°C | 2.8% | 15.4hPa | 2.7V | 08:25:22 | 02:08:32 | 00:00:00 | |
| DL1XH-west | 2026-09-03 12:38:09 | 48.35004 | 10.20957 | 164° | 53km/h | 28582m | -14.8m/s | -46.5°C | 0% | 15.5hPa | 2.6V | 08:26:24 | 02:08:35 | 00:00:00 | |
| DF8AY | 2026-09-03 12:38:05 | 48.35056 | 10.20960 | 201° | 53km/h | 28642m | -15.3m/s | 0°C | 0% | 0hPa | 2.7V | 18:12:15 | 02:08:31 | 00:00:00 | |
| DK7TD | 2026-09-03 12:38:02 | 48.35087 | 10.20991 | 230° | 46km/h | 28688m | -15m/s | -46.3°C | 0% | 15.2hPa | 2.6V | 08:25:33 | 02:08:28 | 00:00:00 | |
| DK7TD | 2026-09-03 12:37:51 | 48.35052 | 10.21091 | 20° | 33km/h | 28855m | -15.3m/s | -45.9°C | 0% | 14.8hPa | 2.7V | 08:26:24 | 02:08:17 | 00:00:00 | |
| DF7PN | 2026-09-03 12:37:45 | 48.35032 | 10.21011 | 109° | 40km/h | 28962m | -15.2m/s | -45.4°C | 0.5% | 14.6hPa | 2.7V | 00:00:00 | 00:00:00 | 00:00:00 | |
| AZAK | 2026-09-03 12:37:43 | 48.35036 | 10.20997 | 121° | 42km/h | 28978m | -15.5m/s | -45.4°C | 0.5% | 14.6hPa | 2.7V | 08:26:00 | 00:00:00 | 00:00:00 | |
| DM0DOS-11 | 2026-09-03 12:37:41 | 48.35098 | 10.20953 | 191° | 40km/h | 29086m | -15.4m/s | -45.7°C | 2.7% | 14.3hPa | 2.7V | 08:25:52 | 02:08:02 | 00:00:00 | |
| DK7TD | 2026-09-03 12:37:41 | 48.35058 | 10.20963 | 149° | 42km/h | 29024m | -15.4m/s | -45.3°C | 0% | 14.4hPa | 2.7V | 08:26:24 | 02:08:06 | 00:00:00 | |
| DK7TD | 2026-09-03 12:37:31 | 48.35144 | 10.21019 | 249° | 49km/h | 29179m | -15.9m/s | -45°C | 0% | 14.1hPa | 2.7V | 08:26:24 | 02:07:56 | 00:00:00 | |
| DO3MHA-12 | 2026-09-03 12:37:30 | 48.35144 | 10.21019 | 249° | 47km/h | 29180m | -15.9m/s | -45.0°C | 2.6% | 14.1hPa | 2.6V | 00:00:00 | 02:07:56 | 00:00:00 | |
| DB0ND-19 | 2026-09-03 12:37:29 | 48.35148 | 10.21037 | 257° | 47km/h | 29196m | -16.1m/s | -45.0°C | 0.5% | 14.1hPa | 2.6V | 00:00:00 | 00:00:00 | 00:00:00 | |
| DM0DOS-11 | 2026-09-03 12:37:27 | 48.35148 | 10.21091 | 284° | 47km/h | 29243m | -15.3m/s | -44.8°C | 2.6% | 14hPa | 2.6V | 08:26:02 | 02:07:52 | 00:00:00 | |
| DO3MHA-11 | 2026-09-03 12:37:27 | 48.35150 | 10.21073 | 275° | 47km/h | 29228m | -15.6m/s | -44.7°C | 2.5% | 13.9hPa | 2.7V | 00:00:00 | 02:07:53 | 00:00:00 | |
| DF3TZ-5 | 2026-09-03 12:37:22 | 48.35124 | 10.21148 | 319° | 46km/h | 29304m | -15.5m/s | -44.7°C | 0.4% | 13.8hPa | 2.7V | 00:00:00 | 00:00:00 | 00:00:00 | |
| DM0DOS-11 | 2026-09-03 12:37:21 | 48.35055 | 10.21190 | 351° | 51km/h | 29397m | -15.8m/s | -44.7°C | 2.5% | 13.7hPa | 2.7V | 08:26:12 | 02:07:42 | 00:00:00 | |
| DK7TD | 2026-09-03 12:37:20 | 48.35092 | 10.21176 | 339° | 49km/h | 29350m | -15.4m/s | -44.7°C | 0% | 13.8hPa | 2.6V | 08:26:24 | 02:07:45 | 00:00:00 | |
| DM7RM-13 | 2026-09-03 12:37:19 | 48.35103 | 10.21168 | 334° | 49km/h | 29335m | -15.6m/s | -44.6°C | 0.5% | 13.8hPa | 2.7V | 08:26:00 | 00:00:00 | 00:00:00 | |
| DO3MHA-11 | 2026-09-03 12:37:17 | 48.35068 | 10.21187 | 348° | 51km/h | 29382m | -15.4m/s | -44.6°C | 2.5% | 13.6hPa | 2.7V | 08:26:00 | 02:07:43 | 00:00:00 | |
| DB0UT-7 | 2026-09-03 12:37:16 | 48.35055 | 10.21190 | 352° | 49km/h | 29397m | -15.7m/s | -44.7°C | 2.5% | 13.6hPa | 2.7V | 00:00:00 | 02:07:42 | 00:00:00 | |
| DL1XH1-15 | 2026-09-03 12:37:14 | 48.34990 | 10.21189 | 11° | 49km/h | 29475m | -15.5m/s | -44.8°C | 2.6% | 13.5hPa | 2.7V | 08:26:17 | 02:07:37 | 00:00:00 | |
| DL1XH-west | 2026-09-03 12:37:13 | 48.35016 | 10.21194 | 2° | 51km/h | 29444m | -15.6m/s | -44.8°C | 0% | 13.6hPa | 2.6V | 08:26:24 | 02:07:39 | 00:00:00 | |
| DK7TD | 2026-09-03 12:37:08 | 48.34956 | 10.21172 | 25° | 49km/h | 29521m | -15.3m/s | -44.7°C | 0% | 13.4hPa | 2.6V | 08:26:24 | 02:07:34 | 00:00:00 | |
| DF1GD-15 | 2026-09-03 12:37:07 | 48.34945 | 10.21164 | 30° | 49km/h | 29537m | -15.7m/s | -44.7°C | 0.5% | 13.4hPa | 2.6V | 08:26:00 | 00:00:00 | 00:00:00 | |
| DM0DOS-11 | 2026-09-03 12:37:07 | 48.34934 | 10.21155 | 31° | 49km/h | 29552m | -15.5m/s | -44.6°C | 2.6% | 13.3hPa | 2.6V | 08:26:22 | 02:07:32 | 00:00:00 | |
| DL1XH1-15 | 2026-09-03 12:37:04 | 48.34879 | 10.21102 | 30° | 53km/h | 29630m | -15.8m/s | -44.3°C | 2.5% | 13.2hPa | 2.6V | 08:26:27 | 02:07:27 | 00:00:00 | |
| DL1XH-west | 2026-09-03 12:37:02 | 48.34890 | 10.21112 | 32° | 53km/h | 29615m | -15.4m/s | -44.4°C | 0% | 13.2hPa | 2.6V | 08:27:15 | 02:07:28 | 00:00:00 | |
| DK7TD | 2026-09-03 12:36:57 | 48.34830 | 10.21066 | 20° | 53km/h | 29693m | -15.7m/s | -44.2°C | 0% | 13.1hPa | 2.7V | 08:27:15 | 02:07:23 | 00:00:00 | |
| DO3MHA-11 | 2026-09-03 12:36:57 | 48.34830 | 10.21066 | 21° | 46km/h | 29694m | -15.6m/s | -44.2°C | 2.5% | 13.0hPa | 2.7V | 00:00:00 | 02:07:23 | 00:00:00 | |
| DM0DOS-11 | 2026-09-03 12:36:56 | 48.34782 | 10.21050 | 4° | 46km/h | 29756m | -15.6m/s | -44.5°C | 2.5% | 12.9hPa | 2.7V | 08:26:35 | 02:07:19 | 00:00:00 | |
| KANTATE | 2026-09-03 12:36:55 | 48.34818 | 10.21060 | 17° | 51km/h | 29709m | -15.6m/s | -44.3°C | 0.4% | 13.0hPa | 2.6V | 00:00:00 | 00:00:00 | 00:00:00 | |
| DL1XH1-15 | 2026-09-03 12:36:54 | 48.34760 | 10.21050 | 356° | 44km/h | 29787m | -15.8m/s | -44.5°C | 2.5% | 12.8hPa | 2.6V | 08:26:37 | 02:07:17 | 00:00:00 | |
| DL1XH-west | 2026-09-03 12:36:52 | 48.34771 | 10.21049 | 0° | 46km/h | 29771m | -15.8m/s | -44.5°C | 0% | 12.9hPa | 2.6V | 08:27:15 | 02:07:18 | 00:00:00 | |
| DK7TD | 2026-09-03 12:36:47 | 48.34718 | 10.21061 | 344° | 38km/h | 29850m | -15.4m/s | -44.3°C | 0% | 12.8hPa | 2.6V | 08:27:15 | 02:07:13 | 00:00:00 | |
| DO3MHA-11 | 2026-09-03 12:36:47 | 48.34718 | 10.21060 | 345° | 35km/h | 29850m | -15.3m/s | -44.3°C | 2.5% | 12.7hPa | 2.6V | 00:00:00 | 02:07:13 | 00:00:00 | |
| DM0DOS-11 | 2026-09-03 12:36:46 | 48.34683 | 10.21081 | 331° | 35km/h | 29912m | -15.6m/s | -43.9°C | 2.5% | 12.6hPa | 2.7V | 08:26:45 | 02:07:09 | 00:00:00 | |
| DL1XH-west | 2026-09-03 12:36:42 | 48.34676 | 10.21088 | 329° | 35km/h | 29927m | -15.7m/s | -43.8°C | 0% | 12.6hPa | 2.7V | 08:27:15 | 02:07:08 | 00:00:00 | |
| DK7TD | 2026-09-03 12:36:36 | 48.34639 | 10.21139 | 304° | 33km/h | 30020m | -15.4m/s | -43.2°C | 0% | 12.4hPa | 2.7V | 08:27:15 | 02:07:02 | 00:00:00 | |
| DM0DOS-11 | 2026-09-03 12:36:35 | 48.34628 | 10.21171 | 290° | 33km/h | 30066m | -15.7m/s | -43.2°C | 2.5% | 12.3hPa | 2.7V | 08:26:55 | 02:06:59 | 00:00:00 | |
| DL1XH-west | 2026-09-03 12:36:32 | 48.34626 | 10.21183 | 286° | 33km/h | 30082m | -15.5m/s | -43.2°C | 0% | 12.3hPa | 2.7V | 08:27:15 | 02:06:58 | 00:00:00 | |
| DK7TD | 2026-09-03 12:36:25 | 48.34624 | 10.21278 | 259° | 38km/h | 30191m | -15.9m/s | -43.1°C | 0% | 12.1hPa | 2.7V | 08:27:15 | 02:06:51 | 00:00:00 | |
| DM0DOS-11 | 2026-09-03 12:36:24 | 48.34629 | 10.21306 | 252° | 38km/h | 30223m | -15.9m/s | -43.3°C | 2.6% | 12hPa | 2.7V | 08:27:05 | 02:06:49 | 00:00:00 | |
| DL1XH1-15 | 2026-09-03 12:36:24 | 48.34635 | 10.21334 | 248° | 38km/h | 30255m | -15.8m/s | -43.3°C | 2.5% | 12hPa | 2.6V | 08:27:07 | 02:06:47 | 00:00:00 | |
| DL1XH-west | 2026-09-03 12:36:21 | 48.34635 | 10.21334 | 249° | 38km/h | 30255m | -15.8m/s | -43.3°C | 0% | 12hPa | 2.6V | 08:27:15 | 02:06:47 | 00:00:00 | |
| OE5MMP-10 | 2026-09-03 12:36:21 | 48.34635 | 10.21334 | 249° | 37km/h | 30255m | -15.7m/s | -43.2°C | 2.5% | 11.9hPa | 2.7V | 00:00:00 | 02:06:47 | 00:00:00 | |
| DO3MHA-12 | 2026-09-03 12:36:20 | 48.34639 | 10.21347 | 247° | 37km/h | 30271m | -15.6m/s | -43.2°C | 2.5% | 11.9hPa | 2.7V | 00:00:00 | 02:06:46 | 00:00:00 | |
| DM0DOS-11 | 2026-09-03 12:36:19 | 48.34668 | 10.21432 | 242° | 35km/h | 30382m | -16.3m/s | -42.7°C | 2.4% | 11.8hPa | 2.7V | 08:27:15 | 02:06:39 | 00:00:00 | |
| DK7TD | 2026-09-03 12:36:15 | 48.34660 | 10.21408 | 241° | 35km/h | 30350m | -16.1m/s | -42.8°C | 0% | 11.8hPa | 2.6V | 08:27:15 | 02:06:41 | 00:00:00 | |
| DL1XH1-15 | 2026-09-03 12:36:13 | 48.34676 | 10.21455 | 246° | 33km/h | 30415m | -16.7m/s | -42.6°C | 2.3% | 11.7hPa | 2.7V | 08:27:17 | 02:06:37 | 00:00:00 | |
| DL1XH-west | 2026-09-03 12:36:11 | 48.34679 | 10.21467 | 249° | 33km/h | 30431m | -16.6m/s | -42.8°C | 0% | 11.7hPa | 2.6V | 08:28:06 | 02:06:36 | 00:00:00 | |
| OE5MMP-10 | 2026-09-03 12:36:11 | 48.34675 | 10.21455 | 247° | 27km/h | 30415m | -16.6m/s | -42.6°C | 2.3% | 11.6hPa | 2.7V | 08:27:00 | 02:06:37 | 00:00:00 | |
| DO3MHA-12 | 2026-09-03 12:36:10 | 48.34679 | 10.21467 | 250° | 27km/h | 30432m | -16.6m/s | -42.7°C | 2.4% | 11.6hPa | 2.6V | 08:27:00 | 02:06:36 | 00:00:00 | |
| DO3MHA-11 | 2026-09-03 12:36:07 | 48.34686 | 10.21501 | 258° | 24km/h | 30482m | -16.8m/s | -42.5°C | 2.4% | 11.5hPa | 2.7V | 00:00:00 | 02:06:33 | 00:00:00 | |
| DM0DOS-11 | 2026-09-03 12:36:05 | 48.34686 | 10.21539 | 284° | 22km/h | 30549m | -17m/s | -42.6°C | 2.4% | 11.4hPa | 2.7V | 08:27:25 | 02:06:29 | 00:00:00 | |
| DK7TD | 2026-09-03 12:36:04 | 48.34687 | 10.21531 | 276° | 24km/h | 30532m | -17m/s | -42.5°C | 0% | 11.5hPa | 2.7V | 08:28:06 | 02:06:30 | 00:00:00 | |
| DL1XH1-15 | 2026-09-03 12:36:03 | 48.34682 | 10.21554 | 306° | 22km/h | 30583m | -17.1m/s | -42.3°C | 2.4% | 11.4hPa | 2.6V | 08:27:27 | 02:06:27 | 00:00:00 | |
| DL1XH-west | 2026-09-03 12:36:00 | 48.34674 | 10.21565 | 324° | 24km/h | 30617m | -17.5m/s | -42.3°C | 0% | 11.3hPa | 2.7V | 08:28:06 | 02:06:25 | 00:00:00 | |
| DK7TD | 2026-09-03 12:35:54 | 48.34638 | 10.21593 | 336° | 24km/h | 30721m | -17.1m/s | -41.7°C | 0% | 11.1hPa | 2.7V | 08:28:06 | 02:06:19 | 00:00:00 | |
| DM0DOS-11 | 2026-09-03 12:35:53 | 48.34633 | 10.21597 | 338° | 22km/h | 30738m | -17m/s | -41.6°C | 2.3% | 11.1hPa | 2.7V | 08:27:36 | 02:06:18 | 00:00:00 | |
| DL1XH1-15 | 2026-09-03 12:35:53 | 48.34628 | 10.21599 | 341° | 18km/h | 30755m | -16.9m/s | -41.5°C | 2.2% | 11.1hPa | 2.6V | 08:27:37 | 02:06:17 | 00:00:00 | |
| DL1XH-west | 2026-09-03 12:35:49 | 48.34620 | 10.21603 | 347° | 15km/h | 30789m | -17.1m/s | -41.2°C | 0% | 11hPa | 2.6V | 08:28:06 | 02:06:15 | 00:00:00 | |
| DF3TZ-5 | 2026-09-03 12:35:49 | 48.34616 | 10.21604 | 350° | 15km/h | 30806m | -17.2m/s | -41.2°C | 0.4% | 11.0hPa | 2.7V | 00:00:00 | 00:00:00 | 00:00:00 | |
| DM0DOS-11 | 2026-09-03 12:35:47 | 48.34597 | 10.21615 | 320° | 13km/h | 30911m | -17.7m/s | -41.2°C | 2.3% | 10.8hPa | 2.7V | 08:27:46 | 02:06:08 | 00:00:00 | |
| DK7TD | 2026-09-03 12:35:43 | 48.34597 | 10.21615 | 320° | 13km/h | 30911m | -17.7m/s | -41.2°C | 0% | 10.8hPa | 2.7V | 08:28:06 | 02:06:08 | 00:00:00 | |
| DL1XH1-15 | 2026-09-03 12:35:42 | 48.34595 | 10.21618 | 312° | 13km/h | 30929m | -17.4m/s | -41.1°C | 2.3% | 10.8hPa | 2.6V | 08:27:47 | 02:06:07 | 00:00:00 | |
| DL1XH-west | 2026-09-03 12:35:39 | 48.34591 | 10.21629 | 289° | 9km/h | 30980m | -16.6m/s | -40.6°C | 0% | 10.8hPa | 2.7V | 08:28:06 | 02:06:04 | 00:00:00 | |
| AZAK | 2026-09-03 12:35:38 | 48.34590 | 10.21629 | 290° | 9km/h | 30980m | -16.6m/s | -40.6°C | 0.4% | 10.7hPa | 2.6V | 08:28:00 | 00:00:00 | 00:00:00 | |
| DM0DOS-11 | 2026-09-03 12:35:37 | 48.34590 | 10.21650 | 275° | 13km/h | 31083m | -17.2m/s | -40.1°C | 2.1% | 10.6hPa | 2.6V | 08:27:56 | 02:05:58 | 00:00:00 | |
| DK7TD | 2026-09-03 12:35:31 | 48.34590 | 10.21655 | 279° | 15km/h | 31101m | -17.3m/s | -40.1°C | 0% | 10.5hPa | 2.6V | 08:28:06 | 02:05:57 | 00:00:00 | |
| DL1XH-west | 2026-09-03 12:35:29 | 48.34588 | 10.21677 | 278° | 24km/h | 31153m | -18m/s | -39.8°C | 0% | 10.4hPa | 2.7V | 08:28:06 | 02:05:54 | 00:00:00 | |
| DL9SK-14 | 2026-09-03 12:35:28 | 48.34587 | 10.21687 | 276° | 26km/h | 31172m | -17.8m/s | -39.7°C | 0.3% | 10.4hPa | 2.7V | 00:00:00 | 00:00:00 | 00:00:00 | |
| DM0DOS-11 | 2026-09-03 12:35:27 | 48.34585 | 10.21737 | 268° | 24km/h | 31259m | -17.2m/s | -39.3°C | 2.1% | 10.3hPa | 2.7V | 08:28:06 | 02:05:48 | 00:00:00 | |
| DL6DJ-15 | 2026-09-03 12:35:27 | 48.34586 | 10.21697 | 274° | 26km/h | 31189m | -17.8m/s | -39.6°C | 0.3% | 10.4hPa | 2.7V | 00:00:00 | 00:00:00 | 00:00:00 | |
| BAUMI2-15 | 2026-09-03 12:35:26 | 48.34586 | 10.21697 | 275° | 26km/h | 31189m | -17.7m/s | -39.5°C | 2.1% | 10.3hPa | 2.7V | 00:00:00 | 02:05:52 | 00:00:00 | |
| DB0ND-19 | 2026-09-03 12:35:25 | 48.34586 | 10.21707 | 276° | 26km/h | 31207m | -17.6m/s | -39.5°C | 0.3% | 10.4hPa | 2.7V | 00:00:00 | 00:00:00 | 00:00:00 | |
| DL1XH1-15 | 2026-09-03 12:35:23 | 48.34586 | 10.21746 | 265° | 24km/h | 31276m | -17.4m/s | -39.2°C | 2.1% | 10.3hPa | 2.7V | 08:28:07 | 02:05:47 | 00:00:00 | |
| DK7TD | 2026-09-03 12:35:21 | 48.34586 | 10.21755 | 263° | 24km/h | 31294m | -17.4m/s | -39.1°C | 0% | 10.2hPa | 2.6V | 08:28:57 | 02:05:46 | 00:00:00 | |
| DL1XH-west | 2026-09-03 12:35:18 | 48.34590 | 10.21806 | 265° | 33km/h | 31383m | -17.8m/s | -38.7°C | 0% | 10.1hPa | 2.6V | 08:28:57 | 02:05:41 | 00:00:00 | |
| DF3TZ-5 | 2026-09-03 12:35:18 | 48.34588 | 10.21783 | 265° | 26km/h | 31347m | -18.1m/s | -38.9°C | 0.3% | 10.1hPa | 2.7V | 00:00:00 | 00:00:00 | 00:00:00 | |
| DO3MHA-11 | 2026-09-03 12:35:17 | 48.34588 | 10.21783 | 266° | 38km/h | 31347m | -18.0m/s | -38.8°C | 2.0% | 10.1hPa | 2.7V | 00:00:00 | 02:05:43 | 00:00:00 | |
| DL1XH1-15 | 2026-09-03 12:35:16 | 48.34597 | 10.21863 | 253° | 44km/h | 31456m | -18m/s | -38°C | 1.8% | 10hPa | 2.6V | 08:28:17 | 02:05:37 | 00:00:00 | |
| DB0UT-7 | 2026-09-03 12:35:16 | 48.34589 | 10.21794 | 263° | 47km/h | 31365m | -18.1m/s | -38.7°C | 2.0% | 10.1hPa | 2.6V | 08:28:00 | 02:05:42 | 00:00:00 | |
| DM0DOS-11 | 2026-09-03 12:35:15 | 48.34594 | 10.21848 | 257° | 40km/h | 31437m | -18.5m/s | -38.1°C | 1.9% | 10hPa | 2.7V | 08:28:16 | 02:05:38 | 00:00:00 | |
| DK7TD | 2026-09-03 12:35:11 | 48.34601 | 10.21880 | 251° | 46km/h | 31474m | -18.5m/s | -37.9°C | 0% | 9.9hPa | 2.6V | 08:28:57 | 02:05:36 | 00:00:00 | |
| DF8AY | 2026-09-03 12:35:10 | 48.34605 | 10.21896 | 247° | 46km/h | 31492m | -18.3m/s | -37.8°C | 0% | 9.9hPa | 2.6V | 08:28:57 | 02:05:35 | 00:00:00 | |
| DL1XH-west | 2026-09-03 12:35:08 | 48.34610 | 10.21912 | 242° | 46km/h | 31511m | -18.4m/s | -37.9°C | 0% | 9.9hPa | 2.7V | 08:28:57 | 02:05:34 | 00:00:00 | |
| DK5PH-5 | 2026-09-03 12:35:07 | 48.34616 | 10.21927 | 237° | 49km/h | 31529m | -18.2m/s | -37.9°C | 1.9% | 9.8hPa | 2.7V | 00:00:00 | 02:05:33 | 00:00:00 | |
| BAUMI2-15 | 2026-09-03 12:35:06 | 48.34623 | 10.21941 | 231° | 47km/h | 31547m | -18.5m/s | -38.0°C | 1.9% | 9.8hPa | 2.7V | 00:00:00 | 02:05:32 | 00:00:00 | |
| PETON7-10 | 2026-09-03 12:35:05 | 48.34630 | 10.21954 | 227° | 53km/h | 31566m | -18.6m/s | -38.0°C | 1.9% | 9.8hPa | 2.7V | 00:00:00 | 02:05:31 | 00:00:00 | |
| DM0DOS-11 | 2026-09-03 12:35:04 | 48.34658 | 10.21988 | 213° | 49km/h | 31621m | -18.6m/s | -37.8°C | 1.8% | 9.8hPa | 2.7V | 08:28:26 | 02:05:28 | 00:00:00 | |
| DL1XH1-15 | 2026-09-03 12:35:03 | 48.34669 | 10.21999 | 211° | 49km/h | 31640m | -18.5m/s | -37.8°C | 1.8% | 9.7hPa | 2.7V | 08:28:27 | 02:05:27 | 00:00:00 | |
| DK7TD | 2026-09-03 12:34:59 | 48.34692 | 10.22017 | 205° | 53km/h | 31677m | -18.5m/s | -37.9°C | 0% | 9.7hPa | 2.6V | 08:28:57 | 02:05:25 | 00:00:00 | |
| DL1XH-west | 2026-09-03 12:34:57 | 48.34717 | 10.22033 | 201° | 57km/h | 31714m | -18.1m/s | -38.1°C | 0% | 9.6hPa | 2.6V | 08:28:57 | 02:05:23 | 00:00:00 | |
| DL9SK-14 | 2026-09-03 12:34:57 | 48.34730 | 10.22040 | 200° | 55km/h | 31732m | -18.4m/s | -38.2°C | 0.3% | 9.6hPa | 2.7V | 00:00:00 | 00:00:00 | 00:00:00 | |
| DL6DJ-15 | 2026-09-03 12:34:56 | 48.34743 | 10.22047 | 200° | 55km/h | 31750m | -18.3m/s | -38.1°C | 0.3% | 9.6hPa | 2.7V | 00:00:00 | 00:00:00 | 00:00:00 | |
| DB0ND-19 | 2026-09-03 12:34:54 | 48.34756 | 10.22054 | 199° | 55km/h | 31769m | -18.8m/s | -38.0°C | 0.3% | 9.5hPa | 2.7V | 00:00:00 | 00:00:00 | 00:00:00 | |
| DL1XH1-15 | 2026-09-03 12:34:52 | 48.34795 | 10.22076 | 200° | 53km/h | 31824m | -18.7m/s | -37.6°C | 1.9% | 9.4hPa | 2.7V | 08:28:37 | 02:05:17 | 00:00:00 | |
| DK7TD | 2026-09-03 12:34:48 | 48.34831 | 10.22100 | 208° | 51km/h | 31881m | -19.1m/s | -37.5°C | 0% | 9.4hPa | 2.6V | 08:28:57 | 02:05:14 | 00:00:00 | |
| DM0DOS-11 | 2026-09-03 12:34:47 | 48.34887 | 10.22162 | 228° | 42km/h | 31994m | -18.7m/s | -37°C | 1.8% | 9.2hPa | 2.6V | 08:28:46 | 02:05:08 | 00:00:00 | |
| DL1XH-west | 2026-09-03 12:34:47 | 48.34843 | 10.22109 | 210° | 49km/h | 31900m | -19m/s | -37.5°C | 0% | 9.3hPa | 2.7V | 08:28:57 | 02:05:13 | 00:00:00 | |
| DF8AY | 2026-09-03 12:34:44 | 48.34872 | 10.22140 | 220° | 44km/h | 31957m | -18.8m/s | -37.3°C | 0% | 9.2hPa | 2.6V | 08:28:57 | 02:05:10 | 00:00:00 | |
| DL1XH1-15 | 2026-09-03 12:34:42 | 48.34893 | 10.22174 | 233° | 40km/h | 32013m | -19.1m/s | -36.9°C | 1.8% | 9.2hPa | 2.7V | 08:28:47 | 02:05:07 | 00:00:00 | |
| DK7TD | 2026-09-03 12:34:38 | 48.34911 | 10.22226 | 255° | 35km/h | 32090m | -19.6m/s | -36.7°C | 0% | 9.1hPa | 2.6V | 08:28:57 | 02:05:03 | 00:00:00 | |
| DL1XH-west | 2026-09-03 12:34:37 | 48.34913 | 10.22238 | 262° | 35km/h | 32109m | -19.2m/s | -36.7°C | 0% | 9hPa | 2.6V | 08:28:57 | 02:05:02 | 00:00:00 | |
| DF8AY | 2026-09-03 12:34:29 | 48.34899 | 10.22321 | 305° | 31km/h | 32244m | -18.9m/s | -36.5°C | 0% | 8.9hPa | 2.7V | 08:29:48 | 02:04:55 | 00:00:00 | |
| DK7TD | 2026-09-03 12:34:28 | 48.34888 | 10.22337 | 324° | 31km/h | 32281m | -18.6m/s | -36.3°C | 0% | 8.8hPa | 2.7V | 08:29:48 | 02:04:53 | 00:00:00 | |
| DO3MHA-11 | 2026-09-03 12:34:27 | 48.34888 | 10.22337 | 324° | 42km/h | 32281m | -18.5m/s | -36.3°C | 1.7% | 8.8hPa | 2.6V | 00:00:00 | 02:04:53 | 00:00:00 | |
| BAUMI2-15 | 2026-09-03 12:34:26 | 48.34881 | 10.22343 | 328° | 38km/h | 32300m | -18.4m/s | -36.2°C | 1.7% | 8.8hPa | 2.6V | 00:00:00 | 02:04:52 | 00:00:00 | |
| DL6DJ-15 | 2026-09-03 12:34:25 | 48.34865 | 10.22356 | 340° | 37km/h | 32337m | -18.4m/s | -36.3°C | 0.2% | 8.8hPa | 2.6V | 00:00:00 | 00:00:00 | 00:00:00 | |
| DB0ND-19 | 2026-09-03 12:34:23 | 48.34856 | 10.22360 | 341° | 40km/h | 32355m | -18.7m/s | -36.3°C | 0.3% | 8.7hPa | 2.6V | 00:00:00 | 00:00:00 | 00:00:00 | |
| DL1XH1-15 | 2026-09-03 12:34:22 | 48.34835 | 10.22369 | 349° | 46km/h | 32393m | -19m/s | -36.4°C | 1.7% | 8.7hPa | 2.6V | 08:29:07 | 02:04:47 | 00:00:00 | |
| DF8AY | 2026-09-03 12:34:19 | 48.34811 | 10.22376 | 351° | 49km/h | 32431m | -19.3m/s | -36.4°C | 0% | 8.6hPa | 2.7V | 08:29:48 | 02:04:45 | 00:00:00 | |
| DK7TD | 2026-09-03 12:34:16 | 48.34774 | 10.22382 | 355° | 47km/h | 32489m | -18.9m/s | -36.4°C | 0% | 8.5hPa | 2.7V | 08:29:48 | 02:04:42 | 00:00:00 | |
| DL1XH-west | 2026-09-03 12:34:15 | 48.34762 | 10.22384 | 358° | 47km/h | 32508m | -19m/s | -36.4°C | 0% | 8.5hPa | 2.7V | 08:29:48 | 02:04:41 | 00:00:00 | |
| SONDE2-11 | 2026-09-03 12:34:14 | 48.34750 | 10.22384 | 356° | 46km/h | 32526m | -18.7m/s | -36.4°C | 0.3% | 8.5hPa | 2.6V | 00:00:00 | 00:00:00 | 00:00:00 | |
| DL1XH1-15 | 2026-09-03 12:34:12 | 48.34716 | 10.22387 | 355° | 46km/h | 32583m | -18.9m/s | -36.4°C | 1.7% | 8.4hPa | 2.6V | 08:29:17 | 02:04:37 | 00:00:00 | |
| DF8AY | 2026-09-03 12:34:09 | 48.34693 | 10.22390 | 355° | 49km/h | 32621m | -18.7m/s | -36.4°C | 0% | 8.4hPa | 2.7V | 08:29:48 | 02:04:35 | 00:00:00 | |
| DK7TD | 2026-09-03 12:34:06 | 48.34654 | 10.22399 | 347° | 57km/h | 32677m | -18.5m/s | -36.3°C | 0% | 8.3hPa | 2.6V | 08:29:48 | 02:04:32 | 00:00:00 | |
| DL1XH-west | 2026-09-03 12:34:04 | 48.34625 | 10.22409 | 344° | 62km/h | 32715m | -18.8m/s | -36.3°C | 0% | 8.3hPa | 2.7V | 08:29:48 | 02:04:30 | 00:00:00 | |
| DF8AY | 2026-09-03 12:34:00 | 48.34519 | 10.22475 | 330° | 68km/h | 32852m | -20.1m/s | -36.7°C | 0% | 8.1hPa | 2.7V | 08:29:48 | 02:04:23 | 00:00:00 | |
| DK7TD | 2026-09-03 12:33:56 | 48.34504 | 10.22488 | 328° | 66km/h | 32872m | -20.5m/s | -36.8°C | 0% | 8.1hPa | 2.7V | 08:29:48 | 02:04:22 | 00:00:00 | |
| DL1XH-west | 2026-09-03 12:33:54 | 48.34477 | 10.22516 | 323° | 64km/h | 32913m | -20.5m/s | -36.7°C | 0% | 8hPa | 2.6V | 08:29:48 | 02:04:20 | 00:00:00 | |
| DF8AY | 2026-09-03 12:33:48 | 48.34403 | 10.22636 | 294° | 42km/h | 33079m | -20.8m/s | -36.9°C | 0% | 7.8hPa | 2.6V | 08:29:48 | 02:04:12 | 00:00:00 | |
| DK7TD | 2026-09-03 12:33:45 | 48.34399 | 10.22650 | 287° | 40km/h | 33100m | -20.4m/s | -36.9°C | 0% | 7.8hPa | 2.7V | 08:29:48 | 02:04:11 | 00:00:00 | |
| DF3TZ-5 | 2026-09-03 12:33:45 | 48.34397 | 10.22664 | 281° | 35km/h | 33120m | -20.6m/s | -36.9°C | 0.3% | 7.8hPa | 2.7V | 00:00:00 | 00:00:00 | 00:00:00 | |
| DL1XH-west | 2026-09-03 12:33:43 | 48.34396 | 10.22678 | 272° | 37km/h | 33141m | -20.4m/s | -36.9°C | 0% | 7.7hPa | 2.7V | 08:29:48 | 02:04:09 | 00:00:00 | |
| DO9HM | 2026-09-03 12:33:43 | 48.34395 | 10.22678 | 273° | 37km/h | 33141m | -20.4m/s | -36.8°C | 0.3% | 7.7hPa | 2.6V | 00:00:00 | 00:00:00 | 00:00:00 | |
| DL1XH1-15 | 2026-09-03 12:33:42 | 48.34398 | 10.22704 | 253° | 35km/h | 33181m | -20.3m/s | -36.7°C | 1.8% | 7.7hPa | 2.6V | 08:29:47 | 02:04:07 | 00:00:00 | |
| DF8AY | 2026-09-03 12:33:37 | 48.34429 | 10.22754 | 208° | 42km/h | 33283m | -20.9m/s | -36.5°C | 0% | 7.6hPa | 2.6V | 18:12:15 | 02:04:02 | 00:00:00 | |
| DO3MHA-11 | 2026-09-03 12:33:37 | 48.34421 | 10.22746 | 214° | 42km/h | 33263m | -20.7m/s | -36.4°C | 1.8% | 7.6hPa | 2.7V | 00:00:00 | 02:04:03 | 00:00:00 | |
| DM0DOS-11 | 2026-09-03 12:33:36 | 48.34470 | 10.22768 | 179° | 42km/h | 33368m | -21.5m/s | -36.5°C | 1.8% | 7.5hPa | 2.7V | 08:30:00 | 02:03:58 | 00:00:00 | |
| DK7TD | 2026-09-03 12:33:35 | 48.34439 | 10.22760 | 199° | 42km/h | 33304m | -21.1m/s | -36.6°C | 0% | 7.6hPa | 2.6V | 18:12:15 | 02:04:01 | 00:00:00 | |
| DL1XH-west | 2026-09-03 12:33:32 | 48.34470 | 10.22768 | 180° | 42km/h | 33368m | -21.5m/s | -36.5°C | 0% | 7.5hPa | 2.7V | 18:12:15 | 02:03:58 | 00:00:00 | |
| DF8AY | 2026-09-03 12:33:27 | 48.34526 | 10.22732 | 130° | 44km/h | 33500m | -21.9m/s | -36.3°C | 0% | 7.3hPa | 2.7V | 18:12:15 | 02:03:52 | 00:00:00 | |
| DM0DOS-11 | 2026-09-03 12:33:26 | 48.34541 | 10.22671 | 92° | 46km/h | 33585m | -20m/s | -36.2°C | 1.9% | 7.2hPa | 2.6V | 08:30:00 | 02:03:48 | 00:00:00 | |
| DL1XH1-15 | 2026-09-03 12:33:26 | 48.34541 | 10.22653 | 85° | 49km/h | 33605m | -20.1m/s | -36.1°C | 1.8% | 7.2hPa | 2.7V | 08:30:00 | 02:03:47 | 00:00:00 | |
| DK7TD | 2026-09-03 12:33:24 | 48.34537 | 10.22704 | 112° | 42km/h | 33543m | -21.2m/s | -36.2°C | 0% | 7.3hPa | 2.6V | 18:12:15 | 02:03:50 | 00:00:00 | |
| DL1XH-west | 2026-09-03 12:33:22 | 48.34541 | 10.22671 | 93° | 46km/h | 33585m | -20m/s | -36.2°C | 0% | 7.2hPa | 2.6V | 18:12:15 | 02:03:48 | 00:00:00 | |
| DJ2DS-15 | 2026-09-03 12:33:21 | 48.34541 | 10.22653 | 86° | 44km/h | 33605m | -20.0m/s | -36.1°C | 1.8% | 7.2hPa | 2.6V | 00:00:00 | 02:03:47 | 00:00:00 | |
| DO3MHA-12 | 2026-09-03 12:33:20 | 48.34540 | 10.22634 | 79° | 69km/h | 33625m | -20.7m/s | -36.0°C | 1.8% | 7.2hPa | 2.6V | 00:00:00 | 02:03:46 | 00:00:00 | |
| DO3MHA-11 | 2026-09-03 12:33:17 | 48.34526 | 10.22565 | 73° | 60km/h | 33691m | -23.7m/s | -35.6°C | 1.7% | 7.1hPa | 2.6V | 00:00:00 | 02:03:43 | 00:00:00 | |
| DL1XH1-15 | 2026-09-03 12:33:16 | 48.34497 | 10.22402 | 78° | 58km/h | 33860m | -26.9m/s | -35.8°C | 1.8% | 6.9hPa | 2.7V | 08:30:00 | 02:03:37 | 00:00:00 | |
| DF8AY | 2026-09-03 12:33:15 | 48.34515 | 10.22508 | 74° | 82km/h | 33742m | -28.5m/s | -35.6°C | 0% | 7.1hPa | 2.7V | 18:12:15 | 02:03:41 | 00:00:00 | |
| DK7TD | 2026-09-03 12:33:13 | 48.34505 | 10.22450 | 77° | 75km/h | 33801m | -30.2m/s | -35.7°C | 0% | 7hPa | 2.6V | 18:12:15 | 02:03:39 | 00:00:00 | |
| DL1XH-west | 2026-09-03 12:33:11 | 48.34497 | 10.22402 | 78° | 58km/h | 33860m | -26.9m/s | -35.8°C | 0% | 7hPa | 2.7V | 18:12:15 | 02:03:37 | 00:00:00 | |
| OE5DXL-15 | 2026-09-03 12:33:11 | 48.34495 | 10.22384 | 76° | 13km/h | 33886m | -26.5m/s | -35.6°C | 1.8% | 6.9hPa | 2.6V | 00:00:00 | 00:00:00 | 00:00:00 | |
| DO3MHA-12 | 2026-09-03 12:33:10 | 48.34495 | 10.22384 | 76° | 13km/h | 33886m | -26.5m/s | -35.6°C | 1.8% | 6.9hPa | 2.6V | 00:00:00 | 02:03:36 | 08:30:00 | |
| DO3MHA-11 | 2026-09-03 12:33:07 | 48.34490 | 10.22361 | 176° | 5km/h | 33977m | -42.7m/s | -34.4°C | 1.6% | 6.8hPa | 2.7V | 00:00:00 | 02:03:33 | 00:00:00 | |
| DL1XH1-15 | 2026-09-03 12:33:06 | 48.34488 | 10.22350 | 61° | 5km/h | 34262m | -25.3m/s | -34.1°C | 1.7% | 6.5hPa | 2.7V | 08:30:00 | 02:03:27 | 00:00:00 | |
| DF8AY | 2026-09-03 12:33:04 | 48.34490 | 10.22356 | 78° | 5km/h | 34148m | -50.5m/s | -34.3°C | 0% | 6.7hPa | 2.6V | 18:12:15 | 02:03:30 | 00:00:00 | |
| DK7TD | 2026-09-03 12:33:03 | 48.34489 | 10.22354 | 64° | 5km/h | 34194m | -42.4m/s | -34.4°C | 0% | 6.7hPa | 2.6V | 18:12:15 | 02:03:29 | 00:00:00 | |
| DF1GD-15 | 2026-09-03 12:33:02 | 48.34489 | 10.22354 | 65° | 5km/h | 34195m | -42.4m/s | -34.4°C | 0.3% | 6.6hPa | 2.6V | 00:00:00 | 00:00:00 | 00:00:00 | |
| DJ2DS-15 | 2026-09-03 12:33:01 | 48.34488 | 10.22350 | 62° | 15km/h | 34262m | -25.3m/s | -34.1°C | 1.7% | 6.5hPa | 2.6V | 00:00:00 | 02:03:27 | 00:00:00 | |
| DL1XH-west | 2026-09-03 12:33:01 | 48.34488 | 10.22350 | 62° | 5km/h | 34262m | -25.3m/s | -34.2°C | 0% | 6.6hPa | 2.7V | 18:12:15 | 02:03:27 | 00:00:00 | |
| DO3MHA-12 | 2026-09-03 12:33:00 | 48.34487 | 10.22349 | 45° | 7km/h | 34283m | -16.4m/s | -34.1°C | 1.7% | 6.5hPa | 2.6V | 00:00:00 | 02:03:26 | 00:00:00 | |
| DO3MHA-11 | 2026-09-03 12:32:57 | 48.34484 | 10.22345 | 334° | 15km/h | 34292m | 7.0m/s | -34.0°C | 1.7% | 6.4hPa | 2.6V | 00:00:00 | 02:03:23 | 00:00:00 | |
| DM0DOS-11 | 2026-09-03 12:32:56 | 48.34481 | 10.22356 | 102° | 15km/h | 34258m | 6.3m/s | -34.3°C | 1.7% | 6.5hPa | 2.6V | 08:30:00 | 02:03:17 | 00:00:00 | |
| DK7TD | 2026-09-03 12:32:53 | 48.34481 | 10.22360 | 293° | 5km/h | 34270m | 5.3m/s | -34.1°C | 0% | 6.5hPa | 2.6V | 18:12:15 | 02:03:19 | 00:00:00 | |
| DL9SK-14 | 2026-09-03 12:32:53 | 48.34481 | 10.22360 | 90° | 4km/h | 34264m | 6.2m/s | -34.2°C | 0.3% | 6.5hPa | 2.6V | 00:00:00 | 00:00:00 | 00:00:00 | |
| DL6DJ-15 | 2026-09-03 12:32:51 | 48.34481 | 10.22356 | 102° | 15km/h | 34258m | 6.4m/s | -34.3°C | 0.2% | 6.5hPa | 2.6V | 00:00:00 | 00:00:00 | 00:00:00 | |
| DB0ND-19 | 2026-09-03 12:32:50 | 48.34483 | 10.22349 | 107° | 24km/h | 34252m | 6.1m/s | -34.4°C | 0.2% | 6.6hPa | 2.6V | 00:00:00 | 00:00:00 | 00:00:00 | |
| DL1XH-west | 2026-09-03 12:32:50 | 48.34483 | 10.22349 | 108° | 26km/h | 34252m | 6.1m/s | -34.4°C | 0% | 6.6hPa | 2.7V | 18:12:15 | 02:03:16 | 00:00:00 | |
| DF8AY | 2026-09-03 12:32:46 | 48.34501 | 10.22299 | 38° | 7km/h | 34200m | 5.3m/s | -34.5°C | 0% | 6.6hPa | 2.6V | 18:12:15 | 02:03:07 | 00:00:00 | |
| DL1XH1-15 | 2026-09-03 12:32:46 | 48.34501 | 10.22299 | 38° | 7km/h | 34200m | 5.3m/s | -34.5°C | 1.8% | 6.6hPa | 2.6V | 08:30:00 | 02:03:07 | 00:00:00 | |
| DK7TD | 2026-09-03 12:32:43 | 48.34503 | 10.22301 | 79° | 2km/h | 34212m | 6m/s | -34.7°C | 0% | 6.6hPa | 2.7V | 18:12:15 | 02:03:09 | 00:00:00 | |
| DL1XH-west | 2026-09-03 12:32:39 | 48.34500 | 10.22293 | 101° | 11km/h | 34190m | 5.7m/s | -34.5°C | 0% | 6.6hPa | 2.7V | 18:12:15 | 02:03:05 | 00:00:00 | |
| NBG1-10 | 2026-09-03 12:32:37 | 48.34504 | 10.22285 | 142° | 18km/h | 34178m | 6.0m/s | -34.3°C | 1.8% | 6.6hPa | 2.7V | 00:00:00 | 02:03:03 | 00:00:00 | |
| DL1XH1-15 | 2026-09-03 12:32:36 | 48.34521 | 10.22262 | 89° | 13km/h | 34144m | 5.7m/s | -34.2°C | 1.7% | 6.7hPa | 2.7V | 08:30:00 | 02:02:57 | 00:00:00 | |
| DK7TD | 2026-09-03 12:32:32 | 48.34521 | 10.22267 | 109° | 11km/h | 34149m | 5.9m/s | -34.2°C | 0% | 6.7hPa | 2.6V | 18:12:15 | 02:02:58 | 00:00:00 | |
| DF8AY | 2026-09-03 12:32:31 | 48.34521 | 10.22258 | 85° | 13km/h | 34138m | 5.3m/s | -34.3°C | 0% | 6.6hPa | 2.7V | 18:12:15 | 02:02:56 | 00:00:00 | |
| DL1XH-west | 2026-09-03 12:32:29 | 48.34521 | 10.22253 | 95° | 13km/h | 34133m | 5.2m/s | -34.4°C | 0% | 6.7hPa | 2.6V | 18:12:15 | 02:02:55 | 00:00:00 | |
| DK7TD | 2026-09-03 12:32:21 | 48.34540 | 10.22262 | 295° | 4km/h | 34090m | 5.9m/s | -34.8°C | 0% | 6.7hPa | 2.7V | 18:12:15 | 02:02:47 | 00:00:00 | |
| DM0DOS-11 | 2026-09-03 12:32:21 | 48.34540 | 10.22262 | 295° | 2km/h | 34090m | 5.9m/s | -34.8°C | 1.8% | 6.7hPa | 2.7V | 08:30:00 | 02:02:47 | 00:00:00 | |
| DF8AY | 2026-09-03 12:32:19 | 48.34538 | 10.22257 | 70° | 18km/h | 34078m | 6.1m/s | -34.8°C | 0% | 6.7hPa | 2.7V | 18:12:15 | 02:02:45 | 00:00:00 | |
| DL1XH-west | 2026-09-03 12:32:18 | 48.34537 | 10.22249 | 83° | 24km/h | 34072m | 5.9m/s | -34.8°C | 0% | 6.7hPa | 2.6V | 18:12:15 | 02:02:44 | 00:00:00 | |
| DO3MHA-11 | 2026-09-03 12:32:17 | 48.34537 | 10.22239 | 97° | 20km/h | 34067m | 5.1m/s | -34.8°C | 1.7% | 6.7hPa | 2.6V | 00:00:00 | 02:02:43 | 00:00:00 | |
| DB0UT-7 | 2026-09-03 12:32:16 | 48.34539 | 10.22230 | 114° | 22km/h | 34062m | 4.3m/s | -34.8°C | 1.8% | 6.7hPa | 2.6V | 00:00:00 | 02:02:42 | 00:00:00 | |
| DL1XH1-15 | 2026-09-03 12:32:13 | 48.34552 | 10.22252 | 341° | 13km/h | 34019m | 4.7m/s | -34.6°C | 1.7% | 6.8hPa | 2.7V | 08:30:00 | 02:02:34 | 00:00:00 | |
| DK7TD | 2026-09-03 12:32:11 | 48.34557 | 10.22231 | 262° | 24km/h | 34034m | 5.8m/s | -34.9°C | 0% | 6.8hPa | 2.6V | 18:12:15 | 02:02:37 | 00:00:00 | |
| DF8AY | 2026-09-03 12:32:08 | 48.34549 | 10.22251 | 40° | 13km/h | 34014m | 5.7m/s | -34.6°C | 0% | 6.8hPa | 2.7V | 18:12:15 | 02:02:33 | 00:00:00 | |
| DL1XH-west | 2026-09-03 12:32:08 | 48.34552 | 10.22252 | 342° | 13km/h | 34020m | 4.7m/s | -34.6°C | 0% | 6.8hPa | 2.7V | 18:12:15 | 02:02:34 | 00:00:00 | |
| DK5PH-5 | 2026-09-03 12:32:07 | 48.34549 | 10.22251 | 40° | 24km/h | 34015m | 5.6m/s | -34.5°C | 1.7% | 6.7hPa | 2.7V | 00:00:00 | 02:02:33 | 00:00:00 | |
| DO3MHA-11 | 2026-09-03 12:32:06 | 48.34547 | 10.22245 | 78° | 22km/h | 34009m | 6.6m/s | -34.6°C | 1.7% | 6.7hPa | 2.7V | 00:00:00 | 02:02:32 | 00:00:00 | |
| OM5KV | 2026-09-03 12:32:05 | 48.34547 | 10.22245 | 79° | 20km/h | 34009m | 6.7m/s | -34.6°C | 0.2% | 6.8hPa | 2.7V | 00:00:00 | 00:00:00 | 00:00:00 | |
| NBG1-10 | 2026-09-03 12:32:04 | 48.34549 | 10.22223 | 110° | 24km/h | 33995m | 6.2m/s | -34.7°C | 1.7% | 6.7hPa | 2.7V | 00:00:00 | 02:02:30 | 00:00:00 | |
| KANTATE | 2026-09-03 12:32:03 | 48.34549 | 10.22223 | 110° | 37km/h | 33995m | 6.2m/s | -34.8°C | 0.2% | 6.8hPa | 2.7V | 00:00:00 | 00:00:00 | 00:00:00 | |
| DM0DOS-11 | 2026-09-03 12:32:01 | 48.34562 | 10.22190 | 128° | 24km/h | 33979m | 5m/s | -35.1°C | 1.7% | 6.8hPa | 2.7V | 08:30:00 | 02:02:27 | 00:00:00 | |
| DK7TD | 2026-09-03 12:32:00 | 48.34565 | 10.22184 | 131° | 15km/h | 33974m | 6.3m/s | -35.2°C | 0% | 6.8hPa | 2.6V | 18:12:15 | 02:02:26 | 00:00:00 | |
| DJ2DS-15 | 2026-09-03 12:32:00 | 48.34565 | 10.22184 | 131° | 20km/h | 33974m | 6.3m/s | -35.1°C | 1.8% | 6.8hPa | 2.6V | 00:00:00 | 02:02:26 | 00:00:00 | |
| DL1XH1-15 | 2026-09-03 12:31:59 | 48.34566 | 10.22181 | 347° | 5km/h | 33961m | 6.8m/s | -35.2°C | 1.8% | 6.8hPa | 2.6V | 08:30:00 | 02:02:24 | 00:00:00 | |
| DL1XH-west | 2026-09-03 12:31:58 | 48.34566 | 10.22181 | 348° | 5km/h | 33961m | 6.8m/s | -35.3°C | 0% | 6.8hPa | 2.6V | 18:12:15 | 02:02:24 | 00:00:00 | |
| DF8AY | 2026-09-03 12:31:55 | 48.34559 | 10.22182 | 17° | 9km/h | 33943m | 5m/s | -35.5°C | 0% | 6.8hPa | 2.7V | 18:12:15 | 02:02:21 | 00:00:00 | |
| DL1XH1-15 | 2026-09-03 12:31:53 | 48.34572 | 10.22114 | 93° | 31km/h | 33896m | 5.7m/s | -35.5°C | 1.9% | 6.9hPa | 2.7V | 08:30:00 | 02:02:13 | 00:00:00 | |
| DM0DOS-11 | 2026-09-03 12:31:51 | 48.34562 | 10.22160 | 116° | 29km/h | 33920m | 5.9m/s | -35.6°C | 1.9% | 6.9hPa | 2.7V | 08:30:00 | 02:02:17 | 00:00:00 | |
| DK7TD | 2026-09-03 12:31:50 | 48.34565 | 10.22150 | 115° | 33km/h | 33914m | 5.8m/s | -35.6°C | 0% | 6.9hPa | 2.6V | 18:12:15 | 02:02:16 | 00:00:00 | |
| DL1XH-west | 2026-09-03 12:31:48 | 48.34572 | 10.22114 | 93° | 31km/h | 33896m | 5.7m/s | -35.5°C | 0% | 6.9hPa | 2.7V | 18:12:15 | 02:02:13 | 00:00:00 | |
| PETON7-10 | 2026-09-03 12:31:47 | 48.34572 | 10.22114 | 94° | 27km/h | 33896m | 5.6m/s | -35.4°C | 1.9% | 6.8hPa | 2.7V | 00:00:00 | 00:00:00 | 00:00:00 | |
| DM0DOS-11 | 2026-09-03 12:31:46 | 48.34566 | 10.22034 | 70° | 27km/h | 33850m | 6.6m/s | -35.7°C | 1.9% | 6.9hPa | 2.7V | 08:30:00 | 02:02:05 | 00:00:00 | |
| DF8AY | 2026-09-03 12:31:44 | 48.34569 | 10.22072 | 86° | 26km/h | 33873m | 6.6m/s | -35.6°C | 0% | 6.9hPa | 2.7V | 18:12:15 | 02:02:09 | 00:00:00 | |
| DK7TD | 2026-09-03 12:31:41 | 48.34566 | 10.22034 | 70° | 27km/h | 33850m | 6.6m/s | -35.7°C | 0% | 6.9hPa | 2.7V | 18:12:15 | 02:02:05 | 00:00:00 | |
| DL1XH1-15 | 2026-09-03 12:31:41 | 48.34563 | 10.22024 | 63° | 29km/h | 33843m | 6.2m/s | -35.5°C | 1.8% | 7hPa | 2.6V | 08:30:00 | 02:02:04 | 00:00:00 | |
| DL1XH-west | 2026-09-03 12:31:36 | 48.34556 | 10.22005 | 66° | 27km/h | 33832m | 4.9m/s | -35.4°C | 0% | 7hPa | 2.7V | 18:12:15 | 02:02:02 | 00:00:00 | |
| DF8AY | 2026-09-03 12:31:35 | 48.34553 | 10.21987 | 87° | 22km/h | 33821m | 6.8m/s | -35.4°C | 0% | 7hPa | 2.7V | 18:12:15 | 02:02:00 | 00:00:00 | |
| DL1XH1-15 | 2026-09-03 12:31:33 | 48.34549 | 10.21947 | 43° | 24km/h | 33786m | 5.7m/s | -35.4°C | 1.8% | 7hPa | 2.7V | 08:30:00 | 02:01:54 | 00:00:00 | |
| DK7TD | 2026-09-03 12:31:29 | 48.34553 | 10.21953 | 54° | 20km/h | 33792m | 6.3m/s | -35.4°C | 0% | 7hPa | 2.7V | 18:12:15 | 02:01:55 | 00:00:00 | |
| DL1XH-west | 2026-09-03 12:31:26 | 48.34531 | 10.21916 | 63° | 24km/h | 33763m | 6.2m/s | -35.3°C | 0% | 7hPa | 2.7V | 18:12:15 | 02:01:50 | 00:00:00 | |
| DF8AY | 2026-09-03 12:31:24 | 48.34508 | 10.21879 | 22° | 22km/h | 33719m | 5.1m/s | -35.4°C | 0% | 7.1hPa | 2.7V | 18:12:15 | 02:01:42 | 00:00:00 | |
| DF1GD-15 | 2026-09-03 12:31:21 | 48.34526 | 10.21895 | 73° | 15km/h | 33748m | 5.0m/s | -35.4°C | 0.3% | 7.1hPa | 2.7V | 00:00:00 | 00:00:00 | 00:00:00 | |
| DJ2DS-15 | 2026-09-03 12:31:20 | 48.34525 | 10.21890 | 54° | 16km/h | 33742m | 5.4m/s | -35.4°C | 1.8% | 7.0hPa | 2.7V | 00:00:00 | 02:01:46 | 00:00:00 | |
| DL1XH1-15 | 2026-09-03 12:31:19 | 48.34518 | 10.21884 | 20° | 18km/h | 33730m | 6.3m/s | -35.6°C | 1.8% | 7.1hPa | 2.7V | 08:30:00 | 02:01:44 | 00:00:00 | |
| DK7TD | 2026-09-03 12:31:19 | 48.34522 | 10.21887 | 33° | 15km/h | 33736m | 6.3m/s | -35.5°C | 0% | 7.1hPa | 2.6V | 18:12:15 | 02:01:45 | 00:00:00 | |
| DL1XH-west | 2026-09-03 12:31:15 | 48.34500 | 10.21871 | 48° | 18km/h | 33707m | 6.7m/s | -35.6°C | 0% | 7.1hPa | 2.6V | 18:12:15 | 02:01:40 | 00:00:00 | |
| DF8AY | 2026-09-03 12:31:13 | 48.34497 | 10.21865 | 67° | 16km/h | 33701m | 6.1m/s | -35.6°C | 0% | 7.1hPa | 2.6V | 18:12:15 | 02:01:39 | 00:00:00 | |
| DK7TD | 2026-09-03 12:31:08 | 48.34489 | 10.21847 | 356° | 15km/h | 33672m | 5.6m/s | -35.5°C | 0% | 7.1hPa | 2.6V | 18:12:15 | 02:01:34 | 00:00:00 | |
| DL1XH-west | 2026-09-03 12:31:04 | 48.34471 | 10.21852 | 359° | 16km/h | 33650m | 6.3m/s | -35.9°C | 0% | 7.2hPa | 2.7V | 18:12:15 | 02:01:30 | 00:00:00 | |
| DF8AY | 2026-09-03 12:31:03 | 48.34467 | 10.21851 | 11° | 15km/h | 33644m | 5.9m/s | -36°C | 0% | 7.2hPa | 2.6V | 18:12:15 | 02:01:29 | 00:00:00 | |
| DF7PN | 2026-09-03 12:31:01 | 48.34454 | 10.21846 | 11° | 20km/h | 33628m | 6.3m/s | -36.1°C | 0.3% | 7.2hPa | 2.7V | 00:00:00 | 00:00:00 | 00:00:00 | |
| DJ2DS-15 | 2026-09-03 12:31:00 | 48.34454 | 10.21846 | 12° | 24km/h | 33628m | 6.2m/s | -36.0°C | 1.9% | 7.1hPa | 2.7V | 00:00:00 | 02:01:26 | 00:00:00 | |
| DL1XH1-15 | 2026-09-03 12:30:59 | 48.34443 | 10.21844 | 359° | 27km/h | 33615m | 5.8m/s | -36.1°C | 1.9% | 7.2hPa | 2.7V | 08:30:00 | 02:01:24 | 00:00:00 | |
| DK7TD | 2026-09-03 12:30:58 | 48.34442 | 10.21845 | 360° | 27km/h | 33615m | 5.8m/s | -36.1°C | 0% | 7.2hPa | 2.7V | 18:12:15 | 02:01:24 | 00:00:00 | |
| DL1XH-west | 2026-09-03 12:30:53 | 48.34414 | 10.21844 | 11° | 16km/h | 33587m | 5.4m/s | -35.8°C | 0% | 7.2hPa | 2.7V | 18:12:15 | 02:01:19 | 00:00:00 | |
| DF8AY | 2026-09-03 12:30:52 | 48.34409 | 10.21843 | 9° | 18km/h | 33581m | 5m/s | -35.9°C | 0% | 7.2hPa | 2.7V | 18:12:15 | 02:01:18 | 00:00:00 | |
| DJ8HS-15 | 2026-09-03 12:30:52 | 48.34409 | 10.21843 | 10° | 26km/h | 33582m | 5.0m/s | -35.8°C | 1.9% | 7.2hPa | 2.6V | 00:00:00 | 02:01:18 | 00:00:00 | |
| OE5MMP-10 | 2026-09-03 12:30:51 | 48.34404 | 10.21842 | 1° | 26km/h | 33577m | 5.2m/s | -35.9°C | 1.9% | 7.2hPa | 2.6V | 00:00:00 | 02:01:17 | 00:00:00 | |
| DM0DOS-11 | 2026-09-03 12:30:50 | 48.34391 | 10.21845 | 344° | 31km/h | 33565m | 5.8m/s | -36.2°C | 1.9% | 7.2hPa | 2.6V | 08:30:00 | 02:01:15 | 00:00:00 | |
| DK7TD | 2026-09-03 12:30:48 | 48.34375 | 10.21855 | 333° | 35km/h | 33555m | 4.3m/s | -36.1°C | 0% | 7.3hPa | 2.7V | 18:12:15 | 02:01:13 | 00:00:00 | |
| DL8DAS-14 | 2026-09-03 12:30:47 | 48.34362 | 10.21865 | 333° | 24km/h | 33545m | 5.8m/s | -35.9°C | 0.3% | 7.3hPa | 2.7V | 00:00:00 | 00:00:00 | 00:00:00 | |
| DB0UT-7 | 2026-09-03 12:30:46 | 48.34368 | 10.21860 | 332° | 18km/h | 33551m | 4.9m/s | -35.9°C | 1.9% | 7.2hPa | 2.7V | 00:00:00 | 00:00:00 | 08:30:00 | |
| PETON7-10 | 2026-09-03 12:30:45 | 48.34362 | 10.21865 | 334° | 22km/h | 33545m | 5.7m/s | -35.9°C | 1.9% | 7.2hPa | 2.6V | 00:00:00 | 00:00:00 | 00:00:00 | |
| DM0DOS-11 | 2026-09-03 12:30:43 | 48.34336 | 10.21853 | 19° | 27km/h | 33512m | 5m/s | -36.1°C | 1.9% | 7.3hPa | 2.6V | 08:30:00 | 02:01:05 | 00:00:00 | |
| DL1XH-west | 2026-09-03 12:30:43 | 48.34353 | 10.21868 | 13° | 13km/h | 33533m | 5.6m/s | -36.1°C | 0% | 7.3hPa | 2.6V | 18:12:15 | 02:01:09 | 00:00:00 | |
| DF8AY | 2026-09-03 12:30:41 | 48.34346 | 10.21862 | 40° | 20km/h | 33523m | 5.4m/s | -36.1°C | 0% | 7.3hPa | 2.7V | 18:12:15 | 02:01:07 | 00:00:00 | |
| OE5MMP-10 | 2026-09-03 12:30:41 | 48.34346 | 10.21862 | 41° | 24km/h | 33523m | 5.3m/s | -36.0°C | 1.9% | 7.3hPa | 2.7V | 00:00:00 | 02:01:07 | 00:00:00 | |
| DJ2DS-15 | 2026-09-03 12:30:40 | 48.34342 | 10.21857 | 32° | 18km/h | 33518m | 5.3m/s | -36.0°C | 1.9% | 7.3hPa | 2.7V | 00:00:00 | 02:01:06 | 00:00:00 | |
| DL1XH1-15 | 2026-09-03 12:30:39 | 48.34329 | 10.21851 | 3° | 29km/h | 33507m | 4.7m/s | -36.1°C | 1.9% | 7.3hPa | 2.6V | 08:30:00 | 02:01:04 | 00:00:00 | |
| DK7TD | 2026-09-03 12:30:37 | 48.34321 | 10.21852 | 348° | 29km/h | 33502m | 5.1m/s | -36.2°C | 0% | 7.3hPa | 2.6V | 18:12:15 | 02:01:03 | 00:00:00 | |
| DK5PH-5 | 2026-09-03 12:30:37 | 48.34321 | 10.21851 | 349° | 16km/h | 33503m | 5.0m/s | -36.2°C | 1.9% | 7.3hPa | 2.7V | 00:00:00 | 02:01:03 | 00:00:00 | |
| DO3MHA-11 | 2026-09-03 12:30:36 | 48.34314 | 10.21855 | 335° | 20km/h | 33497m | 5.7m/s | -36.1°C | 1.9% | 7.3hPa | 2.7V | 00:00:00 | 02:01:02 | 00:00:00 | |
| DO9HM | 2026-09-03 12:30:34 | 48.34308 | 10.21860 | 323° | 26km/h | 33491m | 5.8m/s | -36.0°C | 0.3% | 7.3hPa | 2.7V | 00:00:00 | 00:00:00 | 00:00:00 | |
| DL1XH1-15 | 2026-09-03 12:30:33 | 48.34285 | 10.21864 | 34° | 24km/h | 33454m | 5.1m/s | -36.2°C | 1.9% | 7.4hPa | 2.7V | 08:30:00 | 02:00:54 | 00:00:00 | |
| DL1XH-west | 2026-09-03 12:30:33 | 48.34299 | 10.21875 | 330° | 9km/h | 33475m | 4.9m/s | -36°C | 0% | 7.3hPa | 2.6V | 18:12:15 | 02:00:58 | 00:00:00 | |
| DJ8HS-15 | 2026-09-03 12:30:32 | 48.34299 | 10.21875 | 330° | 15km/h | 33476m | 4.9m/s | -36.0°C | 1.9% | 7.3hPa | 2.7V | 00:00:00 | 02:00:58 | 00:00:00 | |
| OE5MMP-10 | 2026-09-03 12:30:31 | 48.34296 | 10.21875 | 19° | 16km/h | 33470m | 5.2m/s | -36.0°C | 1.9% | 7.3hPa | 2.7V | 00:00:00 | 02:00:57 | 00:00:00 | |
| DM0DOS-11 | 2026-09-03 12:30:30 | 48.34290 | 10.21869 | 39° | 22km/h | 33459m | 5.3m/s | -36.2°C | 1.9% | 7.4hPa | 2.7V | 08:30:00 | 02:00:55 | 00:00:00 | |
| DF8AY | 2026-09-03 12:30:29 | 48.34290 | 10.21869 | 39° | 22km/h | 33459m | 5.3m/s | -36.2°C | 0% | 7.4hPa | 2.7V | 18:12:15 | 02:00:55 | 00:00:00 | |
| DK7TD | 2026-09-03 12:30:26 | 48.34274 | 10.21856 | 16° | 22km/h | 33444m | 5.5m/s | -36°C | 0% | 7.4hPa | 2.6V | 18:12:15 | 02:00:52 | 00:00:00 | |
| DO3MHA-11 | 2026-09-03 12:30:26 | 48.34274 | 10.21856 | 16° | 13km/h | 33444m | 5.4m/s | -36.0°C | 1.9% | 7.4hPa | 2.6V | 00:00:00 | 02:00:52 | 00:00:00 | |
| DM0DOS-11 | 2026-09-03 12:30:23 | 48.34256 | 10.21857 | 23° | 13km/h | 33406m | 5.3m/s | -36°C | 1.9% | 7.4hPa | 2.6V | 08:30:00 | 02:00:45 | 00:00:00 | |
| DL1XH-west | 2026-09-03 12:30:21 | 48.34256 | 10.21857 | 23° | 13km/h | 33406m | 5.4m/s | -36.1°C | 0% | 7.4hPa | 2.6V | 18:12:15 | 02:00:45 | 00:00:00 | |
| DK7TD | 2026-09-03 12:30:17 | 48.34244 | 10.21852 | 6° | 18km/h | 33390m | 5.4m/s | -36.2°C | 0% | 7.4hPa | 2.7V | 18:12:15 | 02:00:42 | 00:00:00 | |
| DF8AY | 2026-09-03 12:30:12 | 48.34231 | 10.21850 | 66° | 7km/h | 33364m | 5.6m/s | -36.4°C | 0% | 7.5hPa | 2.7V | 18:12:15 | 02:00:37 | 00:00:00 | |
| DJ8HS-15 | 2026-09-03 12:30:12 | 48.34232 | 10.21852 | 34° | 16km/h | 33370m | 5.2m/s | -36.3°C | 1.8% | 7.4hPa | 2.7V | 00:00:00 | 02:00:38 | 00:00:00 | |
| OE5MMP-10 | 2026-09-03 12:30:11 | 48.34231 | 10.21850 | 67° | 16km/h | 33364m | 5.5m/s | -36.3°C | 1.8% | 7.4hPa | 2.7V | 00:00:00 | 02:00:37 | 08:30:00 | |
| DM0DOS-11 | 2026-09-03 12:30:10 | 48.34228 | 10.21842 | 53° | 16km/h | 33353m | 5.1m/s | -36.5°C | 1.9% | 7.5hPa | 2.6V | 08:30:00 | 02:00:35 | 00:00:00 | |
| DL1XH-west | 2026-09-03 12:30:09 | 48.34228 | 10.21842 | 53° | 16km/h | 33353m | 5.1m/s | -36.5°C | 0% | 7.5hPa | 2.6V | 18:12:15 | 02:00:35 | 00:00:00 | |
| DK7TD | 2026-09-03 12:30:05 | 48.34210 | 10.21832 | 350° | 22km/h | 33332m | 5.6m/s | -36.6°C | 0% | 7.5hPa | 2.7V | 18:12:15 | 02:00:31 | 00:00:00 | |
| DF8AY | 2026-09-03 12:30:02 | 48.34199 | 10.21838 | 334° | 7km/h | 33316m | 4.9m/s | -36.5°C | 0% | 7.5hPa | 2.6V | 18:12:15 | 02:00:28 | 00:00:00 | |
| OE5MMP-10 | 2026-09-03 12:30:01 | 48.34197 | 10.21838 | 36° | 18km/h | 33312m | 5.1m/s | -36.5°C | 1.9% | 7.5hPa | 2.7V | 00:00:00 | 02:00:27 | 00:00:00 | |
| DO3MHA-12 | 2026-09-03 12:30:00 | 48.34196 | 10.21836 | 70° | 18km/h | 33306m | 5.2m/s | -36.6°C | 1.9% | 7.5hPa | 2.7V | 00:00:00 | 02:00:26 | 00:00:00 | |
| DL1XH1-15 | 2026-09-03 12:29:59 | 48.34193 | 10.21824 | 60° | 22km/h | 33295m | 5.7m/s | -36.6°C | 1.9% | 7.6hPa | 2.7V | 08:30:00 | 02:00:24 | 00:00:00 | |
| DL1XH-west | 2026-09-03 12:29:59 | 48.34193 | 10.21824 | 60° | 22km/h | 33295m | 5.7m/s | -36.7°C | 0% | 7.6hPa | 2.7V | 18:12:15 | 02:00:24 | 00:00:00 | |
| DK7TD | 2026-09-03 12:29:54 | 48.34175 | 10.21803 | 14° | 20km/h | 33273m | 5.1m/s | -36.5°C | 0% | 7.6hPa | 2.7V | 18:12:15 | 02:00:20 | 00:00:00 | |
| DF8AY | 2026-09-03 12:29:52 | 48.34167 | 10.21801 | 0° | 13km/h | 33262m | 5.5m/s | -36.3°C | 0% | 7.6hPa | 2.7V | 18:12:15 | 02:00:18 | 00:00:00 | |
| DM0DOS-11 | 2026-09-03 12:29:52 | 48.34159 | 10.21798 | 33° | 13km/h | 33246m | 5.1m/s | -36.3°C | 1.9% | 7.6hPa | 2.6V | 08:30:00 | 02:00:15 | 00:00:00 | |
| DL1XH-west | 2026-09-03 12:29:48 | 48.34152 | 10.21791 | 25° | 24km/h | 33236m | 5.6m/s | -36.4°C | 0% | 7.6hPa | 2.7V | 18:12:15 | 02:00:13 | 00:00:00 | |
| DL6DJ-15 | 2026-09-03 12:29:45 | 48.34139 | 10.21785 | 12° | 29km/h | 33225m | 5.5m/s | -36.6°C | 0.3% | 7.7hPa | 2.6V | 00:00:00 | 00:00:00 | 00:00:00 | |
| DK7TD | 2026-09-03 12:29:43 | 48.34125 | 10.21781 | 12° | 27km/h | 33214m | 5m/s | -36.4°C | 0% | 7.6hPa | 2.6V | 18:12:15 | 02:00:09 | 00:00:00 | |
| PETON7-10 | 2026-09-03 12:29:43 | 48.34125 | 10.21781 | 12° | 22km/h | 33215m | 4.9m/s | -36.4°C | 1.9% | 7.6hPa | 2.6V | 00:00:00 | 02:00:09 | 00:00:00 | |
| DM0DOS-11 | 2026-09-03 12:29:42 | 48.34105 | 10.21763 | 50° | 26km/h | 33193m | 5.1m/s | -36.8°C | 2% | 7.7hPa | 2.6V | 08:30:00 | 02:00:05 | 00:00:00 | |
| DF8AY | 2026-09-03 12:29:42 | 48.34114 | 10.21775 | 33° | 22km/h | 33204m | 5.3m/s | -36.6°C | 0% | 7.7hPa | 2.7V | 18:12:15 | 02:00:07 | 00:00:00 | |
| DL1XH-west | 2026-09-03 12:29:36 | 48.34090 | 10.21742 | 25° | 27km/h | 33178m | 5m/s | -36.7°C | 0% | 7.7hPa | 2.7V | 18:12:15 | 02:00:02 | 00:00:00 | |
| DF8AY | 2026-09-03 12:29:36 | 48.34061 | 10.21745 | 343° | 15km/h | 33151m | 4.8m/s | -36.7°C | 0% | 7.7hPa | 2.6V | 18:12:15 | 01:59:57 | 00:00:00 | |
| DO3MHA-11 | 2026-09-03 12:29:36 | 48.34090 | 10.21742 | 26° | 22km/h | 33179m | 5.0m/s | -36.6°C | 1.9% | 7.6hPa | 2.7V | 00:00:00 | 02:00:02 | 00:00:00 | |
| BAUMI2-15 | 2026-09-03 12:29:35 | 48.34083 | 10.21739 | 11° | 22km/h | 33174m | 5.6m/s | -36.7°C | 1.9% | 7.7hPa | 2.7V | 00:00:00 | 02:00:01 | 00:00:00 | |
| DL1XH1-15 | 2026-09-03 12:29:33 | 48.34053 | 10.21736 | 58° | 26km/h | 33135m | 5.9m/s | -36.8°C | 2% | 7.7hPa | 2.7V | 08:30:00 | 01:59:54 | 00:00:00 | |
| DK7TD | 2026-09-03 12:29:32 | 48.34065 | 10.21743 | 336° | 20km/h | 33156m | 5.1m/s | -36.8°C | 0% | 7.7hPa | 2.6V | 18:12:15 | 01:59:58 | 00:00:00 | |
| DM0DOS-11 | 2026-09-03 12:29:32 | 48.34056 | 10.21743 | 48° | 16km/h | 33141m | 5.7m/s | -36.7°C | 2% | 7.7hPa | 2.7V | 08:30:00 | 01:59:55 | 00:00:00 | |
| DL1XH-west | 2026-09-03 12:29:25 | 48.34038 | 10.21707 | 44° | 35km/h | 33119m | 4.6m/s | -36.9°C | 0% | 7.8hPa | 2.6V | 18:12:15 | 01:59:51 | 00:00:00 | |
| DK7TD | 2026-09-03 12:29:22 | 48.34021 | 10.21695 | 351° | 18km/h | 33103m | 5.8m/s | -36.7°C | 0% | 7.8hPa | 2.7V | 18:12:15 | 01:59:48 | 00:00:00 | |
| DM0DOS-11 | 2026-09-03 12:29:21 | 48.34012 | 10.21703 | 314° | 9km/h | 33086m | 5.3m/s | -36.7°C | 1.9% | 7.8hPa | 2.6V | 08:30:00 | 01:59:45 | 00:00:00 | |
| DF8AY | 2026-09-03 12:29:20 | 48.34000 | 10.21697 | 36° | 24km/h | 33064m | 5.7m/s | -36.9°C | 0% | 7.8hPa | 2.6V | 18:12:15 | 01:59:41 | 00:00:00 | |
| DO3MHA-12 | 2026-09-03 12:29:20 | 48.34014 | 10.21700 | 315° | 16km/h | 33092m | 5.7m/s | -36.7°C | 1.9% | 7.7hPa | 2.7V | 00:00:00 | 01:59:46 | 00:00:00 | |
| DL1XH1-15 | 2026-09-03 12:29:19 | 48.34010 | 10.21705 | 352° | 7km/h | 33081m | 5m/s | -36.7°C | 1.9% | 7.8hPa | 2.7V | 08:30:00 | 01:59:44 | 00:00:00 | |
| NBG1-10 | 2026-09-03 12:29:19 | 48.34012 | 10.21703 | 315° | 20km/h | 33086m | 5.2m/s | -36.7°C | 1.9% | 7.7hPa | 2.7V | 00:00:00 | 01:59:45 | 00:00:00 | |
| DB0UT-7 | 2026-09-03 12:29:16 | 48.34005 | 10.21701 | 34° | 22km/h | 33070m | 5.8m/s | -36.7°C | 1.9% | 7.8hPa | 2.7V | 00:00:00 | 01:59:42 | 00:00:00 | |
| DM0DOS-11 | 2026-09-03 12:29:15 | 48.33976 | 10.21672 | 35° | 9km/h | 33032m | 5.1m/s | -36.7°C | 1.9% | 7.9hPa | 2.6V | 08:30:00 | 01:59:35 | 00:00:00 | |
| DL1XH-west | 2026-09-03 12:29:15 | 48.33995 | 10.21691 | 35° | 27km/h | 33059m | 5.2m/s | -36.9°C | 0% | 7.8hPa | 2.6V | 18:12:15 | 01:59:40 | 00:00:00 | |
| DL1XH1-15 | 2026-09-03 12:29:13 | 48.33974 | 10.21670 | 31° | 9km/h | 33027m | 5.1m/s | -36.7°C | 1.9% | 7.8hPa | 2.6V | 08:30:00 | 01:59:34 | 00:00:00 | |
| DK7TD | 2026-09-03 12:29:10 | 48.33978 | 10.21674 | 32° | 11km/h | 33037m | 5.4m/s | -36.7°C | 0% | 7.8hPa | 2.7V | 18:12:15 | 01:59:36 | 00:00:00 | |
| DL1XH-west | 2026-09-03 12:29:04 | 48.33956 | 10.21667 | 352° | 29km/h | 33006m | 5.5m/s | -36.9°C | 0% | 7.9hPa | 2.7V | 18:12:15 | 01:59:30 | 00:00:00 | |
| DM0DOS-11 | 2026-09-03 12:29:01 | 48.33926 | 10.21680 | 7° | 15km/h | 32980m | 5.1m/s | -36.6°C | 1.9% | 7.9hPa | 2.7V | 08:30:00 | 01:59:25 | 00:00:00 | |
| OE5MMP-10 | 2026-09-03 12:29:01 | 48.33935 | 10.21677 | 339° | 22km/h | 32990m | 4.8m/s | -36.7°C | 2.0% | 7.9hPa | 2.7V | 00:00:00 | 01:59:27 | 00:00:00 | |
| DO3MHA-12 | 2026-09-03 12:29:00 | 48.33930 | 10.21679 | 346° | 22km/h | 32985m | 4.4m/s | -36.5°C | 1.9% | 7.9hPa | 2.7V | 00:00:00 | 01:59:26 | 00:00:00 | |
| DL1XH1-15 | 2026-09-03 12:28:59 | 48.33923 | 10.21678 | 37° | 15km/h | 32974m | 6m/s | -36.7°C | 1.9% | 7.9hPa | 2.7V | 08:30:00 | 01:59:24 | 00:00:00 | |
| DK7TD | 2026-09-03 12:28:59 | 48.33926 | 10.21680 | 8° | 15km/h | 32980m | 5.1m/s | -36.6°C | 0% | 7.9hPa | 2.7V | 18:12:15 | 01:59:25 | 00:00:00 | |
| DL1XH-west | 2026-09-03 12:28:54 | 48.33907 | 10.21656 | 20° | 24km/h | 32953m | 4.8m/s | -36.5°C | 0% | 7.9hPa | 2.7V | 18:12:15 | 01:59:20 | 00:00:00 | |
| DF8AY | 2026-09-03 12:28:49 | 48.33881 | 10.21680 | 295° | 26km/h | 32925m | 5.2m/s | -36.8°C | 0% | 8hPa | 2.6V | 18:12:15 | 01:59:15 | 00:00:00 | |
| DK7TD | 2026-09-03 12:28:48 | 48.33879 | 10.21688 | 293° | 18km/h | 32920m | 4.7m/s | -36.8°C | 0% | 8hPa | 2.7V | 18:12:15 | 01:59:14 | 00:00:00 | |
| DL1XH-west | 2026-09-03 12:28:44 | 48.33867 | 10.21689 | 30° | 22km/h | 32898m | 6.3m/s | -36.9°C | 0% | 8hPa | 2.6V | 18:12:15 | 01:59:10 | 00:00:00 | |
| PETON7-10 | 2026-09-03 12:28:43 | 48.33862 | 10.21684 | 26° | 20km/h | 32892m | 6.2m/s | -37.0°C | 2.0% | 8.0hPa | 2.6V | 00:00:00 | 00:00:00 | 00:00:00 | |
| DB0ND-19 | 2026-09-03 12:28:42 | 48.33850 | 10.21679 | 6° | 22km/h | 32879m | 5.7m/s | -37.0°C | 0.3% | 8.0hPa | 2.7V | 00:00:00 | 00:00:00 | 00:00:00 | |
| OE5MMP-10 | 2026-09-03 12:28:41 | 48.33850 | 10.21679 | 7° | 18km/h | 32880m | 5.6m/s | -36.9°C | 2.0% | 8.0hPa | 2.7V | 00:00:00 | 01:59:07 | 08:30:00 | |
| DO3MHA-12 | 2026-09-03 12:28:40 | 48.33844 | 10.21679 | 355° | 18km/h | 32874m | 5.3m/s | -36.8°C | 2.0% | 8.0hPa | 2.7V | 00:00:00 | 01:59:06 | 08:30:00 | |
| DL1XH1-15 | 2026-09-03 12:28:39 | 48.33836 | 10.21683 | 336° | 16km/h | 32863m | 6m/s | -36.7°C | 2% | 8hPa | 2.6V | 08:30:00 | 01:59:04 | 00:00:00 | |
| DK7TD | 2026-09-03 12:28:37 | 48.33832 | 10.21685 | 334° | 15km/h | 32857m | 6m/s | -36.7°C | 0% | 8.1hPa | 2.6V | 18:12:15 | 01:59:03 | 00:00:00 | |
| DK5PH-5 | 2026-09-03 12:28:37 | 48.33832 | 10.21685 | 335° | 15km/h | 32857m | 6.0m/s | -36.7°C | 1.9% | 8.0hPa | 2.6V | 00:00:00 | 01:59:03 | 00:00:00 | |
| DO3MHA-11 | 2026-09-03 12:28:36 | 48.33829 | 10.21687 | 338° | 18km/h | 32851m | 5.7m/s | -36.6°C | 1.9% | 8.0hPa | 2.7V | 00:00:00 | 01:59:02 | 00:00:00 | |
| SONCRA | 2026-09-03 12:28:34 | 48.33822 | 10.21691 | 339° | 16km/h | 32840m | 5.6m/s | -36.7°C | 0.3% | 8.1hPa | 2.7V | 00:00:00 | 00:00:00 | 00:00:00 | |
| DL1XH1-15 | 2026-09-03 12:28:33 | 48.33792 | 10.21709 | 9° | 15km/h | 32806m | 5.9m/s | -36.6°C | 1.9% | 8.1hPa | 2.7V | 08:30:00 | 01:58:54 | 00:00:00 | |
| DL1XH-west | 2026-09-03 12:28:33 | 48.33817 | 10.21694 | 335° | 20km/h | 32834m | 6.1m/s | -36.7°C | 0% | 8.1hPa | 2.6V | 18:12:15 | 01:58:59 | 00:00:00 | |
| DF8AY | 2026-09-03 12:28:32 | 48.33812 | 10.21698 | 330° | 24km/h | 32827m | 6.7m/s | -36.7°C | 0% | 8.1hPa | 2.6V | 18:12:15 | 01:58:58 | 00:00:00 | |
| DK7TD | 2026-09-03 12:28:27 | 48.33790 | 10.21707 | 44° | 13km/h | 32800m | 7.2m/s | -36.6°C | 0% | 8.2hPa | 2.6V | 18:12:15 | 01:58:53 | 00:00:00 | |
| DL1XH-west | 2026-09-03 12:28:23 | 48.33792 | 10.21690 | 153° | 7km/h | 32777m | 6.1m/s | -36.5°C | 0% | 8.2hPa | 2.7V | 18:12:15 | 01:58:49 | 00:00:00 | |
| DF8AY | 2026-09-03 12:28:21 | 48.33794 | 10.21693 | 271° | 13km/h | 32764m | 6m/s | -36.6°C | 0% | 8.2hPa | 2.6V | 18:12:15 | 01:58:47 | 00:00:00 | |
| DM0DOS-11 | 2026-09-03 12:28:21 | 48.33791 | 10.21705 | 299° | 20km/h | 32752m | 6.7m/s | -36.6°C | 1.9% | 8.2hPa | 2.6V | 08:30:00 | 01:58:45 | 00:00:00 | |
| OE5MMP-10 | 2026-09-03 12:28:21 | 48.33794 | 10.21693 | 271° | 15km/h | 32764m | 6.0m/s | -36.5°C | 1.9% | 8.1hPa | 2.7V | 00:00:00 | 01:58:47 | 00:00:00 | |
| DO3MHA-12 | 2026-09-03 12:28:20 | 48.33793 | 10.21699 | 288° | 15km/h | 32758m | 6.1m/s | -36.5°C | 1.9% | 8.2hPa | 2.7V | 00:00:00 | 01:58:46 | 00:00:00 | |
| DL1XH1-15 | 2026-09-03 12:28:19 | 48.33788 | 10.21712 | 312° | 20km/h | 32745m | 6.3m/s | -36.6°C | 1.9% | 8.2hPa | 2.7V | 08:30:00 | 01:58:44 | 00:00:00 | |
| DK7TD | 2026-09-03 12:28:16 | 48.33780 | 10.21719 | 339° | 16km/h | 32734m | 4.8m/s | -36.8°C | 0% | 8.2hPa | 2.7V | 18:12:15 | 01:58:42 | 00:00:00 | |
| DB0UT-7 | 2026-09-03 12:28:16 | 48.33780 | 10.21719 | 340° | 13km/h | 32735m | 4.7m/s | -36.7°C | 2.0% | 8.2hPa | 2.6V | 00:00:00 | 01:58:42 | 00:00:00 | |
| DM0DOS-11 | 2026-09-03 12:28:14 | 48.33779 | 10.21714 | 148° | 18km/h | 32693m | 6.5m/s | -36.6°C | 1.9% | 8.3hPa | 2.6V | 08:30:00 | 01:58:35 | 00:00:00 | |
| DL1XH-west | 2026-09-03 12:28:13 | 48.33771 | 10.21722 | 9° | 5km/h | 32718m | 6.4m/s | -36.4°C | 0% | 8.2hPa | 2.6V | 18:12:15 | 01:58:39 | 00:00:00 | |
| DF8AY | 2026-09-03 12:28:09 | 48.33779 | 10.21714 | 149° | 18km/h | 32693m | 6.5m/s | -36.6°C | 0% | 8.3hPa | 2.6V | 18:12:15 | 01:58:35 | 00:00:00 | |
| DK7TD | 2026-09-03 12:28:06 | 48.33792 | 10.21702 | 154° | 18km/h | 32675m | 4.6m/s | -36.6°C | 0% | 8.3hPa | 2.7V | 18:12:15 | 01:58:32 | 00:00:00 | |
| DL1XH-west | 2026-09-03 12:28:03 | 48.33806 | 10.21710 | 270° | 11km/h | 32648m | 4.7m/s | -36.5°C | 0% | 8.3hPa | 2.6V | 18:12:15 | 01:58:27 | 00:00:00 | |
| DM0DOS-11 | 2026-09-03 12:28:02 | 48.33804 | 10.21714 | 357° | 13km/h | 32636m | 7.1m/s | -36.6°C | 2% | 8.3hPa | 2.7V | 08:30:00 | 01:58:25 | 00:00:00 | |
| DF8AY | 2026-09-03 12:27:57 | 48.33796 | 10.21709 | 42° | 18km/h | 32624m | 4.9m/s | -36.4°C | 0% | 8.4hPa | 2.6V | 18:12:15 | 01:58:23 | 00:00:00 | |
| DK7TD | 2026-09-03 12:27:55 | 48.33793 | 10.21700 | 89° | 13km/h | 32614m | 6.1m/s | -36.6°C | 0% | 8.4hPa | 2.6V | 18:12:15 | 01:58:21 | 00:00:00 | |
| DM0DOS-11 | 2026-09-03 12:27:54 | 48.33809 | 10.21697 | 226° | 2km/h | 32579m | 6m/s | -36.5°C | 2% | 8.4hPa | 2.6V | 08:30:00 | 01:58:15 | 00:00:00 | |
| DL1XH-west | 2026-09-03 12:27:52 | 48.33801 | 10.21694 | 184° | 16km/h | 32597m | 5.1m/s | -36.7°C | 0% | 8.4hPa | 2.7V | 18:12:15 | 01:58:18 | 00:00:00 | |
| DF8AY | 2026-09-03 12:27:46 | 48.33805 | 10.21696 | 20° | 9km/h | 32563m | 5.2m/s | -36.5°C | 0% | 8.4hPa | 2.7V | 18:12:15 | 01:58:12 | 00:00:00 | |
| DK7TD | 2026-09-03 12:27:44 | 48.33802 | 10.21694 | 48° | 2km/h | 32551m | 6.1m/s | -36.5°C | 0% | 8.4hPa | 2.6V | 18:12:15 | 01:58:10 | 00:00:00 | |
| DL1XH-west | 2026-09-03 12:27:42 | 48.33803 | 10.21693 | 159° | 5km/h | 32540m | 5.4m/s | -36.5°C | 0% | 8.5hPa | 2.7V | 18:12:15 | 01:58:08 | 00:00:00 | |
| DF8AY | 2026-09-03 12:27:36 | 48.33807 | 10.21678 | 120° | 13km/h | 32505m | 5.7m/s | -36.7°C | 0% | 8.5hPa | 2.7V | 18:12:15 | 01:58:02 | 00:00:00 | |
| DK7TD | 2026-09-03 12:27:34 | 48.33812 | 10.21670 | 143° | 18km/h | 32493m | 5.8m/s | -36.7°C | 0% | 8.5hPa | 2.7V | 18:12:15 | 01:58:00 | 00:00:00 | |
| DL1XH-west | 2026-09-03 12:27:32 | 48.33819 | 10.21662 | 134° | 15km/h | 32483m | 5.2m/s | -36.7°C | 0% | 8.5hPa | 2.6V | 18:12:15 | 01:57:58 | 00:00:00 | |
| DF8AY | 2026-09-03 12:27:26 | 48.33820 | 10.21635 | 114° | 13km/h | 32449m | 6.3m/s | -36.7°C | 0% | 8.6hPa | 2.6V | 18:12:15 | 01:57:52 | 00:00:00 | |
| DK7TD | 2026-09-03 12:27:23 | 48.33830 | 10.21623 | 149° | 20km/h | 32432m | 4.9m/s | -36.8°C | 0% | 8.6hPa | 2.7V | 18:12:15 | 01:57:49 | 00:00:00 | |
| DL1XH-west | 2026-09-03 12:27:22 | 48.33834 | 10.21619 | 140° | 18km/h | 32427m | 4.9m/s | -36.9°C | 0% | 8.6hPa | 2.7V | 18:12:15 | 01:57:48 | 00:00:00 | |
| OE5MMP-10 | 2026-09-03 12:27:21 | 48.33836 | 10.21614 | 123° | 20km/h | 32422m | 6.3m/s | -36.9°C | 1.9% | 8.6hPa | 2.7V | 00:00:00 | 01:57:47 | 00:00:00 | |
| DO3MHA-12 | 2026-09-03 12:27:20 | 48.33838 | 10.21608 | 96° | 20km/h | 32415m | 6.4m/s | -37.0°C | 1.9% | 8.6hPa | 2.7V | 00:00:00 | 01:57:46 | 00:00:00 | |
| DL1XH1-15 | 2026-09-03 12:27:19 | 48.33836 | 10.21593 | 72° | 22km/h | 32403m | 5.1m/s | -37°C | 1.9% | 8.6hPa | 2.7V | 08:30:00 | 01:57:44 | 00:00:00 | |
| DF8AY | 2026-09-03 12:27:16 | 48.33834 | 10.21578 | 87° | 20km/h | 32392m | 6.5m/s | -37°C | 0% | 8.7hPa | 2.7V | 18:12:15 | 01:57:42 | 00:00:00 | |
| DK7TD | 2026-09-03 12:27:13 | 48.33838 | 10.21556 | 115° | 20km/h | 32375m | 5.6m/s | -37°C | 0% | 8.7hPa | 2.6V | 18:12:15 | 01:57:39 | 00:00:00 | |
| DL1XH-west | 2026-09-03 12:27:12 | 48.33839 | 10.21549 | 113° | 18km/h | 32369m | 6.7m/s | -36.9°C | 0% | 8.7hPa | 2.7V | 18:12:15 | 01:57:38 | 00:00:00 | |
| DJ8HS-15 | 2026-09-03 12:27:12 | 48.33839 | 10.21549 | 113° | 20km/h | 32369m | 6.7m/s | -36.9°C | 2.0% | 8.6hPa | 2.7V | 00:00:00 | 01:57:38 | 00:00:00 | |
| DM0DOS-11 | 2026-09-03 12:27:11 | 48.33844 | 10.21530 | 111° | 18km/h | 32351m | 5m/s | -36.9°C | 2% | 8.7hPa | 2.6V | 08:30:00 | 01:57:35 | 00:00:00 | |
| DF8AY | 2026-09-03 12:27:05 | 48.33858 | 10.21496 | 111° | 20km/h | 32324m | 5m/s | -37.3°C | 0% | 8.7hPa | 2.6V | 18:12:15 | 01:57:30 | 00:00:00 | |
| DK7TD | 2026-09-03 12:27:03 | 48.33859 | 10.21488 | 94° | 20km/h | 32318m | 6.8m/s | -37.3°C | 0% | 8.8hPa | 2.6V | 18:12:15 | 01:57:29 | 00:00:00 | |
| DL1XH-west | 2026-09-03 12:27:01 | 48.33857 | 10.21474 | 61° | 22km/h | 32305m | 5.7m/s | -37.3°C | 0% | 8.8hPa | 2.7V | 18:12:15 | 01:57:27 | 00:00:00 | |
| SONCRA | 2026-09-03 12:27:01 | 48.33857 | 10.21474 | 60° | 20km/h | 32305m | 5.7m/s | -37.3°C | 0.3% | 8.8hPa | 2.7V | 00:00:00 | 00:00:00 | 00:00:00 | |
| SONDE2-11 | 2026-09-03 12:27:00 | 48.33852 | 10.21460 | 67° | 18km/h | 32294m | 5.8m/s | -37.2°C | 0.3% | 8.8hPa | 2.7V | 00:00:00 | 00:00:00 | 00:00:00 | |
| DL1XH1-15 | 2026-09-03 12:26:59 | 48.33850 | 10.21453 | 83° | 16km/h | 32288m | 6.4m/s | -37.2°C | 2% | 8.8hPa | 2.7V | 08:30:00 | 01:57:24 | 00:00:00 | |
| DF8AY | 2026-09-03 12:26:53 | 48.33842 | 10.21365 | 81° | 16km/h | 32202m | 4.2m/s | -37.3°C | 0% | 8.9hPa | 2.7V | 18:12:15 | 01:57:09 | 00:00:00 | |
| DK7TD | 2026-09-03 12:26:52 | 48.33856 | 10.21417 | 76° | 16km/h | 32253m | 5.7m/s | -37.5°C | 0% | 8.8hPa | 2.6V | 18:12:15 | 01:57:18 | 00:00:00 | |
| DM0DOS-11 | 2026-09-03 12:26:52 | 48.33850 | 10.21395 | 72° | 15km/h | 32229m | 5.8m/s | -37.2°C | 2% | 8.9hPa | 2.6V | 08:30:00 | 01:57:14 | 00:00:00 | |
| DL1XH-west | 2026-09-03 12:26:51 | 48.33855 | 10.21412 | 68° | 16km/h | 32248m | 5.6m/s | -37.5°C | 0% | 8.8hPa | 2.6V | 18:12:15 | 01:57:17 | 00:00:00 | |
| DK7TD | 2026-09-03 12:26:41 | 48.33844 | 10.21353 | 125° | 18km/h | 32190m | 7.2m/s | -37.4°C | 0% | 8.9hPa | 2.6V | 18:12:15 | 01:57:07 | 00:00:00 | |
| DL1XH-west | 2026-09-03 12:26:40 | 48.33847 | 10.21347 | 139° | 22km/h | 32183m | 6.3m/s | -37.4°C | 0% | 8.9hPa | 2.6V | 18:12:15 | 01:57:06 | 00:00:00 | |
| DL1XH1-15 | 2026-09-03 12:26:40 | 48.33855 | 10.21336 | 136° | 20km/h | 32173m | 4.6m/s | -37.4°C | 2% | 8.9hPa | 2.7V | 08:30:00 | 01:57:04 | 00:00:00 | |
| DK7TD | 2026-09-03 12:26:31 | 48.33848 | 10.21296 | 77° | 11km/h | 32133m | 6.1m/s | -37.6°C | 0% | 9hPa | 2.7V | 18:12:15 | 01:56:57 | 00:00:00 | |
| DL1XH-west | 2026-09-03 12:26:30 | 48.33848 | 10.21293 | 120° | 11km/h | 32127m | 6m/s | -37.7°C | 0% | 9hPa | 2.6V | 18:12:15 | 01:56:56 | 00:00:00 | |
| DO3MHA-12 | 2026-09-03 12:26:30 | 48.33848 | 10.21293 | 121° | 13km/h | 32127m | 5.9m/s | -37.6°C | 2.0% | 8.9hPa | 2.6V | 00:00:00 | 01:56:56 | 00:00:00 | |
| SONDE2-11 | 2026-09-03 12:26:29 | 48.33853 | 10.21285 | 140° | 16km/h | 32116m | 5.8m/s | -37.8°C | 0.3% | 9.0hPa | 2.6V | 00:00:00 | 00:00:00 | 00:00:00 | |
| DO3MHA-11 | 2026-09-03 12:26:26 | 48.33860 | 10.21275 | 129° | 11km/h | 32103m | 5.7m/s | -37.5°C | 2.0% | 9.0hPa | 2.6V | 00:00:00 | 01:56:52 | 00:00:00 | |
| AZAK | 2026-09-03 12:26:25 | 48.33860 | 10.21275 | 129° | 20km/h | 32103m | 5.8m/s | -37.6°C | 0.3% | 9.0hPa | 2.6V | 00:00:00 | 00:00:00 | 00:00:00 | |
| DM0DOS-11 | 2026-09-03 12:26:21 | 48.33867 | 10.21255 | 17° | 9km/h | 32056m | 6.6m/s | -38.1°C | 2% | 9.1hPa | 2.6V | 08:30:00 | 01:56:44 | 00:00:00 | |
| DF8AY | 2026-09-03 12:26:20 | 48.33871 | 10.21248 | 186° | 20km/h | 32021m | 5.5m/s | -38.3°C | 0% | 9.2hPa | 2.6V | 18:12:15 | 01:56:38 | 00:00:00 | |
| DK7TD | 2026-09-03 12:26:20 | 48.33870 | 10.21256 | 5° | 2km/h | 32069m | 5.6m/s | -38.1°C | 0% | 9.1hPa | 2.7V | 18:12:15 | 01:56:46 | 00:00:00 | |
| DL1XH-west | 2026-09-03 12:26:19 | 48.33869 | 10.21255 | 9° | 5km/h | 32063m | 6.9m/s | -38.2°C | 0% | 9.1hPa | 2.7V | 18:12:15 | 01:56:45 | 00:00:00 | |
| DB0UT-7 | 2026-09-03 12:26:16 | 48.33863 | 10.21251 | 49° | 13km/h | 32046m | 4.2m/s | -38.0°C | 2.0% | 9.1hPa | 2.6V | 00:00:00 | 01:56:42 | 08:30:00 | |
| OE5DRO-10 | 2026-09-03 12:26:14 | 48.33864 | 10.21248 | 159° | 18km/h | 32035m | 7.1m/s | -38.2°C | 2.0% | 9.1hPa | 2.7V | 00:00:00 | 00:00:00 | 00:00:00 | |
| DJ8HS-15 | 2026-09-03 12:26:12 | 48.33871 | 10.21248 | 187° | 13km/h | 32022m | 5.5m/s | -38.3°C | 2.0% | 9.1hPa | 2.6V | 00:00:00 | 01:56:38 | 08:30:00 | |
| DM0DOS-11 | 2026-09-03 12:26:11 | 48.33887 | 10.21248 | 135° | 4km/h | 31999m | 6.3m/s | -38.4°C | 2% | 9.2hPa | 2.6V | 08:30:00 | 01:56:34 | 00:00:00 | |
| DK7TD | 2026-09-03 12:26:09 | 48.33885 | 10.21249 | 174° | 11km/h | 32005m | 6.6m/s | -38.4°C | 0% | 9.2hPa | 2.6V | 18:12:15 | 01:56:35 | 00:00:00 | |
| DL1XH-west | 2026-09-03 12:26:08 | 48.33887 | 10.21248 | 136° | 4km/h | 31999m | 6.3m/s | -38.4°C | 0% | 9.2hPa | 2.6V | 18:12:15 | 01:56:34 | 00:00:00 | |
| DL6DJ-15 | 2026-09-03 12:26:08 | 48.33887 | 10.21247 | 41° | 4km/h | 31993m | 5.9m/s | -38.4°C | 0.3% | 9.2hPa | 2.7V | 00:00:00 | 00:00:00 | 00:00:00 | |
| DB0ND-19 | 2026-09-03 12:26:07 | 48.33885 | 10.21246 | 15° | 7km/h | 31987m | 5.6m/s | -38.5°C | 0.4% | 9.2hPa | 2.7V | 00:00:00 | 00:00:00 | 00:00:00 | |
| DJ2DS-15 | 2026-09-03 12:26:06 | 48.33883 | 10.21246 | 358° | 7km/h | 31981m | 6.7m/s | -38.5°C | 0.4% | 9.2hPa | 2.7V | 00:00:00 | 00:00:00 | 00:00:00 | |
| DL1XH1-15 | 2026-09-03 12:26:01 | 48.33892 | 10.21235 | 148° | 22km/h | 31941m | 5.3m/s | -38.3°C | 2.1% | 9.2hPa | 2.7V | 08:30:00 | 01:56:24 | 00:00:00 | |
| DK7TD | 2026-09-03 12:25:59 | 48.33887 | 10.21240 | 141° | 18km/h | 31946m | 5.6m/s | -38.4°C | 0% | 9.3hPa | 2.6V | 18:12:15 | 01:56:25 | 00:00:00 | |
| DL1XH-west | 2026-09-03 12:25:57 | 48.33897 | 10.21232 | 159° | 24km/h | 31935m | 6.5m/s | -38.2°C | 0% | 9.3hPa | 2.7V | 18:12:15 | 01:56:23 | 00:00:00 | |
| DO3MHA-11 | 2026-09-03 12:25:56 | 48.33902 | 10.21229 | 170° | 16km/h | 31928m | 6.9m/s | -38.2°C | 2.1% | 9.2hPa | 2.6V | 00:00:00 | 01:56:22 | 00:00:00 | |
| OE5DRO-10 | 2026-09-03 12:25:53 | 48.33919 | 10.21227 | 170° | 22km/h | 31912m | 5.8m/s | -38.4°C | 2.1% | 9.2hPa | 2.6V | 00:00:00 | 00:00:00 | 00:00:00 | |
| DJ8HS-15 | 2026-09-03 12:25:52 | 48.33922 | 10.21225 | 148° | 22km/h | 31905m | 6.9m/s | -38.3°C | 2.1% | 9.2hPa | 2.6V | 00:00:00 | 01:56:18 | 00:00:00 | |
| DM0DOS-11 | 2026-09-03 12:25:51 | 48.33926 | 10.21208 | 121° | 11km/h | 31882m | 5.6m/s | -38.5°C | 2.1% | 9.3hPa | 2.6V | 08:30:00 | 01:56:14 | 00:00:00 | |
| DF8AY | 2026-09-03 12:25:48 | 48.33928 | 10.21205 | 152° | 13km/h | 31876m | 6m/s | -38.5°C | 0% | 9.3hPa | 2.6V | 18:12:15 | 01:56:13 | 00:00:00 | |
| DK7TD | 2026-09-03 12:25:48 | 48.33926 | 10.21208 | 122° | 11km/h | 31882m | 5.6m/s | -38.5°C | 0% | 9.3hPa | 2.6V | 18:12:15 | 01:56:14 | 00:00:00 | |
| DL1XH-west | 2026-09-03 12:25:46 | 48.33932 | 10.21203 | 167° | 20km/h | 31870m | 5.7m/s | -38.6°C | 0% | 9.3hPa | 2.7V | 18:12:15 | 01:56:12 | 00:00:00 | |
| DO3MHA-11 | 2026-09-03 12:25:46 | 48.33932 | 10.21203 | 168° | 26km/h | 31871m | 5.7m/s | -38.5°C | 2.1% | 9.3hPa | 2.7V | 00:00:00 | 01:56:12 | 00:00:00 | |
| AZAK | 2026-09-03 12:25:44 | 48.33938 | 10.21201 | 169° | 29km/h | 31865m | 5.5m/s | -38.6°C | 0.4% | 9.4hPa | 2.7V | 00:00:00 | 00:00:00 | 00:00:00 | |
| DM0DOS-11 | 2026-09-03 12:25:42 | 48.33982 | 10.21159 | 124° | 15km/h | 31824m | 6.2m/s | -38.7°C | 2.1% | 9.4hPa | 2.7V | 08:30:00 | 01:56:04 | 00:00:00 | |
| DK7TD | 2026-09-03 12:25:38 | 48.33982 | 10.21159 | 124° | 15km/h | 31824m | 6.2m/s | -38.7°C | 0% | 9.4hPa | 2.7V | 18:12:15 | 01:56:04 | 00:00:00 | |
| DF8AY | 2026-09-03 12:25:38 | 48.33984 | 10.21155 | 136° | 11km/h | 31819m | 5.7m/s | -38.6°C | 0% | 9.4hPa | 2.6V | 18:12:15 | 01:56:03 | 00:00:00 | |
| DL1XH-west | 2026-09-03 12:25:35 | 48.33990 | 10.21150 | 153° | 16km/h | 31808m | 5m/s | -38.7°C | 0% | 9.4hPa | 2.6V | 18:12:15 | 01:56:01 | 00:00:00 | |
| OE5DRO-10 | 2026-09-03 12:25:34 | 48.33994 | 10.21146 | 148° | 22km/h | 31803m | 5.9m/s | -38.7°C | 2.1% | 9.4hPa | 2.6V | 00:00:00 | 00:00:00 | 00:00:00 | |
| DJ8HS-15 | 2026-09-03 12:25:32 | 48.34006 | 10.21131 | 135° | 24km/h | 31791m | 6.2m/s | -38.6°C | 2.1% | 9.4hPa | 2.6V | 00:00:00 | 01:55:58 | 00:00:00 | |
| DM0DOS-11 | 2026-09-03 12:25:31 | 48.34027 | 10.21090 | 124° | 26km/h | 31765m | 6.4m/s | -38.4°C | 2% | 9.5hPa | 2.6V | 08:30:00 | 01:55:54 | 00:00:00 | |
| DK7TD | 2026-09-03 12:25:27 | 48.34030 | 10.21083 | 127° | 20km/h | 31759m | 5.9m/s | -38.5°C | 0% | 9.5hPa | 2.6V | 18:12:15 | 01:55:53 | 00:00:00 | |
| DL1XH-west | 2026-09-03 12:25:24 | 48.34040 | 10.21070 | 147° | 18km/h | 31741m | 6.4m/s | -38.6°C | 0% | 9.6hPa | 2.6V | 18:12:15 | 01:55:50 | 00:00:00 | |
| AZAK | 2026-09-03 12:25:24 | 48.34040 | 10.21069 | 147° | 18km/h | 31742m | 6.4m/s | -38.6°C | 0.4% | 9.6hPa | 2.6V | 00:00:00 | 00:00:00 | 00:00:00 | |
| OE5MMP-10 | 2026-09-03 12:25:21 | 48.34054 | 10.21054 | 137° | 22km/h | 31724m | 5.3m/s | -38.6°C | 2.1% | 9.5hPa | 2.6V | 00:00:00 | 01:55:47 | 00:00:00 | |
| DM0DOS-11 | 2026-09-03 12:25:20 | 48.34063 | 10.21035 | 113° | 18km/h | 31704m | 5.9m/s | -38.7°C | 2.1% | 9.6hPa | 2.6V | 08:30:00 | 01:55:44 | 00:00:00 | |
| DK7TD | 2026-09-03 12:25:17 | 48.34065 | 10.21029 | 116° | 18km/h | 31699m | 5.1m/s | -38.8°C | 0% | 9.6hPa | 2.6V | 18:12:15 | 01:55:43 | 00:00:00 | |
| DB0UT-7 | 2026-09-03 12:25:16 | 48.34067 | 10.21023 | 126° | 24km/h | 31694m | 5.8m/s | -38.7°C | 2.1% | 9.6hPa | 2.7V | 00:00:00 | 01:55:42 | 00:00:00 | |
| OE5DRO-10 | 2026-09-03 12:25:15 | 48.34070 | 10.21017 | 138° | 22km/h | 31687m | 7.0m/s | -38.7°C | 2.1% | 9.6hPa | 2.7V | 00:00:00 | 00:00:00 | 08:30:00 | |
| DL1NUX | 2026-09-03 12:25:14 | 48.34081 | 10.21008 | 156° | 26km/h | 31674m | 5.5m/s | -38.7°C | 2.2% | 9.7hPa | 2.7V | 08:30:00 | 01:55:39 | 00:00:00 | |
| DL1XH-west | 2026-09-03 12:25:14 | 48.34075 | 10.21012 | 149° | 26km/h | 31680m | 6.4m/s | -38.7°C | 0% | 9.6hPa | 2.7V | 18:12:15 | 01:55:40 | 00:00:00 | |
| DF8AY | 2026-09-03 12:25:13 | 48.34081 | 10.21008 | 156° | 26km/h | 31675m | 5.5m/s | 0°C | 0% | 9.7hPa | 2.7V | 18:12:15 | 01:55:39 | 00:00:00 | |
| DJ8HS-15 | 2026-09-03 12:25:12 | 48.34086 | 10.21004 | 161° | 24km/h | 31669m | 5.7m/s | -38.6°C | 2.2% | 9.6hPa | 2.6V | 00:00:00 | 01:55:38 | 00:00:00 | |
| DM0DOS-11 | 2026-09-03 12:25:11 | 48.34103 | 10.20995 | 147° | 15km/h | 31645m | 5.8m/s | -38.4°C | 2.1% | 9.7hPa | 2.7V | 08:30:00 | 01:55:34 | 00:00:00 | |
| DK7TD | 2026-09-03 12:25:07 | 48.34107 | 10.20991 | 143° | 18km/h | 31638m | 6.8m/s | -38.3°C | 0% | 9.7hPa | 2.7V | 18:12:15 | 01:55:33 | 00:00:00 | |
| DL1XH-west | 2026-09-03 12:25:04 | 48.34120 | 10.20973 | 137° | 27km/h | 31621m | 4.9m/s | -38.1°C | 0% | 9.7hPa | 2.6V | 18:12:15 | 01:55:30 | 00:00:00 | |
| DF8AY | 2026-09-03 12:25:02 | 48.34133 | 10.20958 | 160° | 16km/h | 31603m | 5.6m/s | 0°C | 0% | 9.8hPa | 2.6V | 18:12:15 | 01:55:27 | 00:00:00 | |
| DL1NUX | 2026-09-03 12:25:01 | 48.34164 | 10.20961 | 181° | 33km/h | 31573m | 4.9m/s | -38.1°C | 2.1% | 9.8hPa | 2.6V | 08:30:00 | 01:55:22 | 00:00:00 | |
| DK7TD | 2026-09-03 12:24:56 | 48.34164 | 10.20961 | 182° | 33km/h | 31573m | 4.9m/s | -38.1°C | 0% | 9.8hPa | 2.6V | 18:12:15 | 01:55:22 | 00:00:00 | |
| DL1XH-west | 2026-09-03 12:24:53 | 48.34186 | 10.20957 | 159° | 20km/h | 31557m | 6.6m/s | -38.1°C | 0% | 9.8hPa | 2.6V | 18:12:15 | 01:55:19 | 00:00:00 | |
| DF8AY | 2026-09-03 12:24:49 | 48.34194 | 10.20930 | 103° | 27km/h | 31532m | 7.1m/s | 0°C | 0% | 0hPa | 2.7V | 18:12:15 | 01:55:15 | 00:00:00 | |
| DK7TD | 2026-09-03 12:24:46 | 48.34204 | 10.20900 | 132° | 27km/h | 31515m | 5.1m/s | -38.4°C | 0% | 9.9hPa | 2.6V | 18:12:15 | 01:55:12 | 00:00:00 | |
| DL1XH-west | 2026-09-03 12:24:42 | 48.34224 | 10.20892 | 192° | 22km/h | 31489m | 4.8m/s | -38.7°C | 0% | 9.9hPa | 2.7V | 18:12:15 | 01:55:08 | 00:00:00 | |
| DF8AY | 2026-09-03 12:24:39 | 48.34244 | 10.20881 | 120° | 27km/h | 31467m | 6.2m/s | 0°C | 0% | 0hPa | 2.7V | 18:12:15 | 01:55:04 | 00:00:00 | |
| DK7TD | 2026-09-03 12:24:35 | 48.34249 | 10.20848 | 96° | 31km/h | 31447m | 5.6m/s | -39.2°C | 0% | 10hPa | 2.6V | 18:12:15 | 01:55:01 | 00:00:00 | |
| DL1XH-west | 2026-09-03 12:24:32 | 48.34255 | 10.20815 | 119° | 31km/h | 31431m | 6.3m/s | -39.4°C | 0% | 10hPa | 2.7V | 18:12:15 | 01:54:58 | 00:00:00 | |
| DF8AY | 2026-09-03 12:24:28 | 48.34276 | 10.20785 | 148° | 22km/h | 31408m | 5.8m/s | 0°C | 0% | 0hPa | 2.7V | 18:12:15 | 01:54:54 | 00:00:00 | |
| DK7TD | 2026-09-03 12:24:25 | 48.34283 | 10.20777 | 118° | 5km/h | 31388m | 5.7m/s | -39.3°C | 0% | 10.1hPa | 2.6V | 18:12:15 | 01:54:51 | 00:00:00 | |
| SONDE2-11 | 2026-09-03 12:24:24 | 48.34284 | 10.20775 | 103° | 7km/h | 31383m | 6.0m/s | -39.3°C | 0.4% | 10.1hPa | 2.7V | 00:00:00 | 00:00:00 | 00:00:00 | |
| DM0DOS-11 | 2026-09-03 12:24:23 | 48.34296 | 10.20730 | 122° | 27km/h | 31345m | 6.3m/s | -39.7°C | 2.2% | 10.1hPa | 2.7V | 08:30:00 | 01:54:44 | 00:00:00 | |
| DL1XH-west | 2026-09-03 12:24:22 | 48.34286 | 10.20764 | 110° | 20km/h | 31370m | 5.8m/s | -39.4°C | 0% | 10.1hPa | 2.6V | 18:12:15 | 01:54:48 | 00:00:00 | |
| DF8AY | 2026-09-03 12:24:18 | 48.34328 | 10.20684 | 142° | 22km/h | 31311m | 5.7m/s | 0°C | 0% | 0hPa | 2.7V | 18:12:15 | 01:54:38 | 00:00:00 | |
| DK7TD | 2026-09-03 12:24:15 | 48.34317 | 10.20697 | 141° | 33km/h | 31321m | 5.6m/s | -39.5°C | 0% | 10.2hPa | 2.6V | 18:12:15 | 01:54:40 | 00:00:00 | |
| DJ8HS-15 | 2026-09-03 12:24:12 | 48.34328 | 10.20684 | 142° | 27km/h | 31311m | 5.7m/s | -39.6°C | 2.2% | 10.1hPa | 2.7V | 00:00:00 | 01:54:38 | 00:00:00 | |
| DL1XH1-15 | 2026-09-03 12:24:11 | 48.34335 | 10.20668 | 98° | 15km/h | 31287m | 4.8m/s | -39.6°C | 2.2% | 10.2hPa | 2.6V | 08:30:00 | 01:54:34 | 00:00:00 | |
| DL1XH-west | 2026-09-03 12:24:11 | 48.34332 | 10.20680 | 136° | 15km/h | 31304m | 7.4m/s | -39.6°C | 0% | 10.2hPa | 2.7V | 18:12:15 | 01:54:37 | 00:00:00 | |
| DF8AY | 2026-09-03 12:24:06 | 48.34339 | 10.20653 | 120° | 29km/h | 31275m | 6.4m/s | 0°C | 0% | 0hPa | 2.7V | 18:12:15 | 01:54:32 | 00:00:00 | |
| DK7TD | 2026-09-03 12:24:04 | 48.34350 | 10.20631 | 134° | 42km/h | 31263m | 5.5m/s | -39.8°C | 0% | 10.3hPa | 2.6V | 18:12:15 | 01:54:30 | 00:00:00 | |
| DL1XH-west | 2026-09-03 12:24:01 | 48.34373 | 10.20601 | 145° | 35km/h | 31244m | 6.3m/s | -39.9°C | 0% | 10.3hPa | 2.6V | 18:12:15 | 01:54:27 | 00:00:00 | |
| OE5MMP-10 | 2026-09-03 12:24:01 | 48.34373 | 10.20601 | 145° | 31km/h | 31244m | 6.2m/s | -39.8°C | 2.2% | 10.2hPa | 2.7V | 00:00:00 | 01:54:27 | 00:00:00 | |
| DM0DOS-11 | 2026-09-03 12:24:00 | 48.34391 | 10.20582 | 141° | 27km/h | 31226m | 5.7m/s | -40.1°C | 2.2% | 10.3hPa | 2.7V | 08:30:00 | 01:54:24 | 00:00:00 | |
| DF8AY | 2026-09-03 12:23:56 | 48.34402 | 10.20568 | 137° | 31km/h | 31214m | 6.2m/s | 0°C | 0% | 0hPa | 2.6V | 18:12:15 | 01:54:22 | 00:00:00 | |
| DK7TD | 2026-09-03 12:23:54 | 48.34413 | 10.20550 | 132° | 33km/h | 31203m | 5.1m/s | -40°C | 0% | 10.4hPa | 2.7V | 18:12:15 | 01:54:20 | 00:00:00 | |
| DL1XH-west | 2026-09-03 12:23:51 | 48.34427 | 10.20524 | 122° | 26km/h | 31184m | 6.1m/s | -40.2°C | 0% | 10.4hPa | 2.6V | 18:12:15 | 01:54:17 | 00:00:00 | |
| DF8AY | 2026-09-03 12:23:46 | 48.34485 | 10.20428 | 134° | 29km/h | 31125m | 5.5m/s | 0°C | 0% | 0hPa | 2.7V | 18:12:15 | 01:54:07 | 00:00:00 | |
| DF7PN | 2026-09-03 12:23:45 | 48.34459 | 10.20464 | 137° | 42km/h | 31150m | 5.1m/s | -40.2°C | 0.4% | 10.4hPa | 2.6V | 00:00:00 | 00:00:00 | 00:00:00 | |
| DK7TD | 2026-09-03 12:23:43 | 48.34474 | 10.20444 | 139° | 35km/h | 31137m | 6.4m/s | -40.3°C | 0% | 10.5hPa | 2.6V | 18:12:15 | 01:54:09 | 00:00:00 | |
| DM0DOS-11 | 2026-09-03 12:23:41 | 48.34501 | 10.20399 | 125° | 37km/h | 31107m | 5.3m/s | -40.6°C | 2.2% | 10.5hPa | 2.7V | 08:30:00 | 01:54:04 | 00:00:00 | |
| DL1XH-west | 2026-09-03 12:23:40 | 48.34490 | 10.20420 | 130° | 31km/h | 31119m | 6.3m/s | -40.4°C | 0% | 10.5hPa | 2.6V | 18:12:15 | 01:54:06 | 00:00:00 | |
| DB0NH | 2026-09-03 12:23:40 | 48.34490 | 10.20419 | 131° | 35km/h | 31119m | 6.3m/s | -40.4°C | 2.2% | 10.4hPa | 2.6V | 00:00:00 | 01:54:06 | 08:30:00 | |
| OE5DXL-15 | 2026-09-03 12:23:39 | 48.34496 | 10.20410 | 128° | 35km/h | 31113m | 6.5m/s | -40.5°C | 2.2% | 10.5hPa | 2.6V | 00:00:00 | 00:00:00 | 08:30:00 | |
| DJ2DS-15 | 2026-09-03 12:23:38 | 48.34501 | 10.20399 | 126° | 33km/h | 31107m | 5.3m/s | -40.6°C | 2.2% | 10.5hPa | 2.7V | 00:00:00 | 01:54:04 | 00:00:00 | |
| DK5PH-5 | 2026-09-03 12:23:37 | 48.34506 | 10.20388 | 126° | 35km/h | 31102m | 5.1m/s | -40.7°C | 2.3% | 10.5hPa | 2.6V | 00:00:00 | 01:54:03 | 00:00:00 | |
| DO3MHA-11 | 2026-09-03 12:23:36 | 48.34512 | 10.20377 | 126° | 37km/h | 31096m | 6.2m/s | -40.8°C | 2.3% | 10.5hPa | 2.6V | 00:00:00 | 01:54:02 | 00:00:00 | |
| PETON7-10 | 2026-09-03 12:23:35 | 48.34516 | 10.20367 | 127° | 33km/h | 31089m | 6.9m/s | -40.8°C | 2.3% | 10.5hPa | 2.6V | 00:00:00 | 01:54:01 | 00:00:00 | |
| DL1NUX | 2026-09-03 12:23:34 | 48.34540 | 10.20322 | 124° | 38km/h | 31060m | 6.2m/s | -40.8°C | 2.3% | 10.6hPa | 2.6V | 08:30:00 | 01:53:56 | 00:00:00 | |
| DK7TD | 2026-09-03 12:23:32 | 48.34529 | 10.20342 | 130° | 29km/h | 31072m | 4.9m/s | -40.8°C | 0% | 10.6hPa | 2.7V | 18:12:15 | 01:53:58 | 00:00:00 | |
| DJ8HS-15 | 2026-09-03 12:23:32 | 48.34529 | 10.20342 | 131° | 38km/h | 31073m | 4.8m/s | -40.8°C | 2.3% | 10.5hPa | 2.6V | 00:00:00 | 01:53:58 | 00:00:00 | |
| OE5MMP-10 | 2026-09-03 12:23:31 | 48.34534 | 10.20333 | 129° | 33km/h | 31067m | 6.1m/s | -40.7°C | 2.3% | 10.5hPa | 2.6V | 00:00:00 | 01:53:57 | 00:00:00 | |
| DM0DOS-11 | 2026-09-03 12:23:30 | 48.34550 | 10.20295 | 114° | 42km/h | 31049m | 5.1m/s | -40.9°C | 2.3% | 10.6hPa | 2.6V | 08:30:00 | 01:53:54 | 00:00:00 | |
| DL1XH-west | 2026-09-03 12:23:30 | 48.34540 | 10.20322 | 125° | 38km/h | 31060m | 6.2m/s | -40.8°C | 0% | 10.6hPa | 2.6V | 18:12:15 | 01:53:56 | 00:00:00 | |
| DO3MHA-12 | 2026-09-03 12:23:30 | 48.34540 | 10.20322 | 125° | 33km/h | 31061m | 6.2m/s | -40.8°C | 2.3% | 10.5hPa | 2.6V | 00:00:00 | 01:53:56 | 00:00:00 | |
| DF1GD-15 | 2026-09-03 12:23:27 | 48.34550 | 10.20295 | 115° | 42km/h | 31050m | 5.1m/s | -40.9°C | 0.5% | 10.6hPa | 2.6V | 00:00:00 | 00:00:00 | 00:00:00 | |
| DO3MHA-11 | 2026-09-03 12:23:26 | 48.34557 | 10.20268 | 107° | 35km/h | 31038m | 6.1m/s | -40.8°C | 2.3% | 10.6hPa | 2.6V | 00:00:00 | 01:53:52 | 00:00:00 | |
| DO9HM | 2026-09-03 12:23:25 | 48.34559 | 10.20256 | 108° | 29km/h | 31032m | 5.9m/s | -40.9°C | 0.4% | 10.6hPa | 2.6V | 00:00:00 | 00:00:00 | 00:00:00 | |
| DL1XH1-15 | 2026-09-03 12:23:24 | 48.34586 | 10.20199 | 122° | 47km/h | 31000m | 5.8m/s | -41.3°C | 2.4% | 10.7hPa | 2.6V | 08:30:00 | 01:53:45 | 00:00:00 | |
| SONCRA | 2026-09-03 12:23:24 | 48.34564 | 10.20239 | 124° | 22km/h | 31022m | 4.5m/s | -41.1°C | 0.4% | 10.6hPa | 2.6V | 00:00:00 | 00:00:00 | 00:00:00 | |
| DM0DOS-11 | 2026-09-03 12:23:23 | 48.34592 | 10.20183 | 114° | 49km/h | 30994m | 5.9m/s | -41.3°C | 2.4% | 10.7hPa | 2.6V | 08:30:00 | 01:53:44 | 00:00:00 | |
| DK7TD | 2026-09-03 12:23:21 | 48.34574 | 10.20223 | 134° | 35km/h | 31011m | 5.6m/s | -41.4°C | 0% | 10.7hPa | 2.7V | 18:12:15 | 01:53:47 | 00:00:00 | |
| DL1XH-west | 2026-09-03 12:23:20 | 48.34580 | 10.20212 | 129° | 40km/h | 31005m | 5.7m/s | -41.3°C | 0% | 10.6hPa | 2.7V | 18:12:15 | 01:53:46 | 00:00:00 | |
| DO3MHA-12 | 2026-09-03 12:23:20 | 48.34580 | 10.20212 | 130° | 42km/h | 31006m | 5.7m/s | -41.3°C | 2.4% | 10.6hPa | 2.7V | 00:00:00 | 01:53:46 | 00:00:00 | |
| DJ2DS-15 | 2026-09-03 12:23:18 | 48.34592 | 10.20182 | 115° | 37km/h | 30994m | 5.9m/s | -41.2°C | 2.4% | 10.6hPa | 2.7V | 00:00:00 | 01:53:44 | 00:00:00 | |
| NBG1-10 | 2026-09-03 12:23:16 | 48.34599 | 10.20147 | 99° | 33km/h | 30982m | 5.6m/s | -41.3°C | 2.4% | 10.7hPa | 2.7V | 00:00:00 | 01:53:42 | 08:30:00 | |
| BAUMI2-15 | 2026-09-03 12:23:15 | 48.34600 | 10.20129 | 94° | 35km/h | 30977m | 5.5m/s | -41.4°C | 2.4% | 10.7hPa | 2.6V | 00:00:00 | 01:53:41 | 00:00:00 | |
| DL1NUX | 2026-09-03 12:23:14 | 48.34611 | 10.20055 | 109° | 35km/h | 30943m | 6.2m/s | -41.5°C | 2.4% | 10.8hPa | 2.6V | 08:30:00 | 01:53:35 | 00:00:00 | |
| DJ8HS-15 | 2026-09-03 12:23:12 | 48.34603 | 10.20088 | 103° | 33km/h | 30959m | 5.6m/s | -41.4°C | 2.4% | 10.7hPa | 2.7V | 00:00:00 | 01:53:38 | 08:30:00 | |
| DM0DOS-11 | 2026-09-03 12:23:11 | 48.34613 | 10.20042 | 104° | 37km/h | 30936m | 6.4m/s | -41.5°C | 2.3% | 10.8hPa | 2.7V | 08:30:00 | 01:53:34 | 00:00:00 | |
| DK7TD | 2026-09-03 12:23:11 | 48.34608 | 10.20067 | 113° | 33km/h | 30948m | 5.3m/s | -41.5°C | 0% | 10.8hPa | 2.6V | 18:12:15 | 01:53:36 | 00:00:00 | |
| DL1XH-west | 2026-09-03 12:23:09 | 48.34611 | 10.20055 | 109° | 35km/h | 30943m | 6.2m/s | -41.5°C | 0% | 10.8hPa | 2.6V | 18:12:15 | 01:53:35 | 00:00:00 | |
| DK5PH-5 | 2026-09-03 12:23:07 | 48.34615 | 10.20028 | 99° | 33km/h | 30930m | 5.8m/s | -41.4°C | 2.3% | 10.7hPa | 2.7V | 00:00:00 | 01:53:33 | 00:00:00 | |
| DO3MHA-11 | 2026-09-03 12:23:06 | 48.34616 | 10.20014 | 96° | 35km/h | 30925m | 5.3m/s | -41.3°C | 2.4% | 10.7hPa | 2.7V | 00:00:00 | 01:53:32 | 00:00:00 | |
| DO9HM | 2026-09-03 12:23:05 | 48.34617 | 10.20001 | 97° | 35km/h | 30920m | 5.5m/s | -41.4°C | 0.4% | 10.8hPa | 2.7V | 00:00:00 | 00:00:00 | 00:00:00 | |
| DL9SK-14 | 2026-09-03 12:23:03 | 48.34621 | 10.19964 | 102° | 31km/h | 30902m | 5.2m/s | -41.3°C | 0.4% | 10.8hPa | 2.7V | 00:00:00 | 00:00:00 | 00:00:00 | |
| DL8DAS-14 | 2026-09-03 12:23:02 | 48.34623 | 10.19952 | 102° | 33km/h | 30897m | 5.4m/s | -41.3°C | 0.4% | 10.9hPa | 2.7V | 00:00:00 | 00:00:00 | 00:00:00 | |
| DL1NUX | 2026-09-03 12:23:01 | 48.34629 | 10.19884 | 92° | 31km/h | 30867m | 7m/s | -41.5°C | 2.2% | 10.9hPa | 2.7V | 08:30:00 | 01:53:22 | 00:00:00 | |
| DK7TD | 2026-09-03 12:23:00 | 48.34625 | 10.19939 | 101° | 37km/h | 30890m | 7m/s | -41.4°C | 0% | 10.9hPa | 2.7V | 18:12:15 | 01:53:26 | 00:00:00 | |
| DM0DOS-11 | 2026-09-03 12:23:00 | 48.34628 | 10.19910 | 96° | 38km/h | 30879m | 4.6m/s | -41.4°C | 2.2% | 10.9hPa | 2.6V | 08:30:00 | 01:53:24 | 00:00:00 | |
| DL1XH-west | 2026-09-03 12:22:58 | 48.34628 | 10.19910 | 96° | 38km/h | 30879m | 4.6m/s | -41.4°C | 0% | 10.9hPa | 2.6V | 18:12:15 | 01:53:24 | 00:00:00 | |
| DK7TD | 2026-09-03 12:22:50 | 48.34624 | 10.19811 | 89° | 38km/h | 30826m | 4.8m/s | -41.5°C | 0% | 11hPa | 2.6V | 18:12:15 | 01:53:15 | 00:00:00 | |
| DM0DOS-11 | 2026-09-03 12:22:49 | 48.34624 | 10.19797 | 91° | 38km/h | 30821m | 5.9m/s | -41.6°C | 2.3% | 11hPa | 2.6V | 08:30:00 | 01:53:14 | 00:00:00 | |
| DL1XH-west | 2026-09-03 12:22:48 | 48.34624 | 10.19797 | 91° | 38km/h | 30821m | 5.9m/s | -41.6°C | 0% | 11hPa | 2.6V | 18:12:15 | 01:53:14 | 00:00:00 | |
| DL1XH1-15 | 2026-09-03 12:22:47 | 48.34625 | 10.19750 | 85° | 27km/h | 30798m | 5m/s | -42°C | 2.3% | 11hPa | 2.6V | 08:30:00 | 01:53:10 | 00:00:00 | |
| DB0UT-7 | 2026-09-03 12:22:46 | 48.34625 | 10.19771 | 95° | 33km/h | 30809m | 5.7m/s | -41.8°C | 2.3% | 11.0hPa | 2.6V | 00:00:00 | 00:00:00 | 00:00:00 | |
| BAUMI2-15 | 2026-09-03 12:22:45 | 48.34625 | 10.19760 | 93° | 31km/h | 30803m | 5.1m/s | -41.9°C | 2.3% | 11.0hPa | 2.6V | 00:00:00 | 01:53:11 | 00:00:00 | |
| DM0DOS-11 | 2026-09-03 12:22:43 | 48.34603 | 10.19662 | 64° | 33km/h | 30756m | 5.7m/s | -42.2°C | 2.4% | 11.1hPa | 2.6V | 08:30:00 | 01:53:03 | 00:00:00 | |
| NBG1-10 | 2026-09-03 12:22:43 | 48.34624 | 10.19739 | 80° | 31km/h | 30793m | 6.3m/s | -42.1°C | 2.3% | 11.0hPa | 2.6V | 00:00:00 | 01:53:09 | 00:00:00 | |
| DL1NUX | 2026-09-03 12:22:42 | 48.34603 | 10.19662 | 64° | 33km/h | 30756m | 5.7m/s | -42.2°C | 2.4% | 11.1hPa | 2.6V | 08:30:00 | 01:53:03 | 00:00:00 | |
| DK7TD | 2026-09-03 12:22:39 | 48.34607 | 10.19674 | 63° | 37km/h | 30762m | 6.7m/s | -42.4°C | 0% | 11.1hPa | 2.6V | 18:12:15 | 01:53:04 | 00:00:00 | |
| DL1XH-west | 2026-09-03 12:22:37 | 48.34603 | 10.19662 | 64° | 33km/h | 30756m | 5.7m/s | -42.3°C | 0% | 11.1hPa | 2.6V | 18:12:15 | 01:53:03 | 00:00:00 | |
| DK5PH-5 | 2026-09-03 12:22:37 | 48.34603 | 10.19662 | 65° | 29km/h | 30756m | 5.6m/s | -42.2°C | 2.4% | 11.0hPa | 2.6V | 00:00:00 | 01:53:03 | 08:30:00 | |
| DO3MHA-11 | 2026-09-03 12:22:36 | 48.34600 | 10.19651 | 69° | 29km/h | 30751m | 5.0m/s | -42.1°C | 2.4% | 11.0hPa | 2.7V | 00:00:00 | 01:53:02 | 00:00:00 | |
| PETON7-10 | 2026-09-03 12:22:35 | 48.34597 | 10.19639 | 72° | 31km/h | 30745m | 6.5m/s | -42.1°C | 2.4% | 11.1hPa | 2.7V | 00:00:00 | 00:00:00 | 00:00:00 | |
| DM7RM-13 | 2026-09-03 12:22:34 | 48.34595 | 10.19626 | 76° | 35km/h | 30738m | 6.3m/s | -42.1°C | 0.5% | 11.1hPa | 2.6V | 00:00:00 | 00:00:00 | 00:00:00 | |
| DM0DOS-11 | 2026-09-03 12:22:32 | 48.34582 | 10.19556 | 63° | 31km/h | 30696m | 6.7m/s | -42.2°C | 2.3% | 11.2hPa | 2.6V | 08:30:00 | 01:52:53 | 00:00:00 | |
| DK7TD | 2026-09-03 12:22:28 | 48.34582 | 10.19556 | 63° | 31km/h | 30697m | 6.7m/s | -42.2°C | 0% | 11.2hPa | 2.6V | 18:12:15 | 01:52:53 | 00:00:00 | |
| DL1XH1-15 | 2026-09-03 12:22:28 | 48.34563 | 10.19507 | 56° | 37km/h | 30674m | 6.6m/s | -42.5°C | 2.4% | 11.2hPa | 2.6V | 08:30:00 | 01:52:49 | 00:00:00 | |
| DL1XH-west | 2026-09-03 12:22:26 | 48.34578 | 10.19545 | 61° | 37km/h | 30690m | 5.7m/s | -42.2°C | 0% | 11.2hPa | 2.7V | 18:12:15 | 01:52:52 | 00:00:00 | |
| DO3MHA-11 | 2026-09-03 12:22:26 | 48.34578 | 10.19545 | 61° | 33km/h | 30691m | 5.6m/s | -42.2°C | 2.4% | 11.1hPa | 2.6V | 00:00:00 | 01:52:52 | 00:00:00 | |
| BAUMI2-15 | 2026-09-03 12:22:25 | 48.34573 | 10.19532 | 60° | 35km/h | 30685m | 5.0m/s | -42.3°C | 2.4% | 11.1hPa | 2.6V | 00:00:00 | 01:52:51 | 00:00:00 | |
| DM0DOS-11 | 2026-09-03 12:22:22 | 48.34544 | 10.19444 | 79° | 31km/h | 30638m | 5m/s | -42.5°C | 2.4% | 11.3hPa | 2.6V | 08:30:00 | 01:52:43 | 00:00:00 | |
| DK7TD | 2026-09-03 12:22:17 | 48.34544 | 10.19443 | 79° | 31km/h | 30638m | 5m/s | -42.5°C | 0% | 11.3hPa | 2.6V | 18:12:15 | 01:52:43 | 00:00:00 | |
| DB0UT-7 | 2026-09-03 12:22:16 | 48.34542 | 10.19432 | 80° | 22km/h | 30634m | 4.9m/s | -42.5°C | 2.4% | 11.2hPa | 2.7V | 00:00:00 | 01:52:42 | 00:00:00 | |
| DL1XH1-15 | 2026-09-03 12:22:15 | 48.34538 | 10.19408 | 59° | 18km/h | 30615m | 5.4m/s | -42.7°C | 2.5% | 11.3hPa | 2.7V | 08:30:00 | 01:52:39 | 00:00:00 | |
| DL1XH-west | 2026-09-03 12:22:15 | 48.34541 | 10.19423 | 78° | 24km/h | 30627m | 6.7m/s | -42.6°C | 0% | 11.3hPa | 2.6V | 18:12:15 | 01:52:41 | 00:00:00 | |
| DM7RM-13 | 2026-09-03 12:22:13 | 48.34538 | 10.19408 | 61° | 18km/h | 30615m | 5.4m/s | -42.7°C | 0.5% | 11.3hPa | 2.6V | 00:00:00 | 00:00:00 | 00:00:00 | |
| DJ8HS-15 | 2026-09-03 12:22:12 | 48.34535 | 10.19402 | 53° | 24km/h | 30610m | 5.5m/s | -42.6°C | 2.4% | 11.3hPa | 2.6V | 00:00:00 | 01:52:38 | 00:00:00 | |
| DM0DOS-11 | 2026-09-03 12:22:11 | 48.34515 | 10.19361 | 51° | 27km/h | 30581m | 6.2m/s | -42.7°C | 2.4% | 11.4hPa | 2.7V | 08:30:00 | 01:52:33 | 00:00:00 | |
| OE5MMP-10 | 2026-09-03 12:22:11 | 48.34532 | 10.19395 | 52° | 26km/h | 30603m | 6.8m/s | -42.6°C | 2.4% | 11.3hPa | 2.6V | 00:00:00 | 01:52:37 | 00:00:00 | |
| DO3MHA-12 | 2026-09-03 12:22:10 | 48.34528 | 10.19387 | 54° | 26km/h | 30597m | 5.9m/s | -42.6°C | 2.4% | 11.3hPa | 2.6V | 00:00:00 | 01:52:36 | 00:00:00 | |
| OE5DXL-15 | 2026-09-03 12:22:09 | 48.34523 | 10.19378 | 55° | 18km/h | 30592m | 4.8m/s | -42.6°C | 2.4% | 11.3hPa | 2.7V | 00:00:00 | 00:00:00 | 00:00:00 | |
| DL1XH1-15 | 2026-09-03 12:22:07 | 48.34501 | 10.19334 | 59° | 24km/h | 30557m | 6.7m/s | -42.6°C | 2.4% | 11.4hPa | 2.7V | 08:30:00 | 01:52:29 | 00:00:00 | |
| DK7TD | 2026-09-03 12:22:07 | 48.34511 | 10.19353 | 49° | 24km/h | 30574m | 6.2m/s | -42.6°C | 0% | 11.4hPa | 2.6V | 18:12:15 | 01:52:32 | 00:00:00 | |
| DL1XH-west | 2026-09-03 12:22:05 | 48.34507 | 10.19347 | 49° | 22km/h | 30568m | 5.8m/s | -42.5°C | 0% | 11.4hPa | 2.6V | 18:12:15 | 01:52:31 | 00:00:00 | |
| PETON7-10 | 2026-09-03 12:22:04 | 48.34503 | 10.19340 | 55° | 22km/h | 30563m | 5.2m/s | -42.5°C | 2.4% | 11.3hPa | 2.7V | 00:00:00 | 01:52:30 | 00:00:00 | |
| OE5DRO-10 | 2026-09-03 12:22:03 | 48.34500 | 10.19334 | 60° | 18km/h | 30557m | 6.7m/s | -42.5°C | 2.4% | 11.4hPa | 2.7V | 00:00:00 | 00:00:00 | 00:00:00 | |
| DL9SK-14 | 2026-09-03 12:22:01 | 48.34492 | 10.19309 | 63° | 22km/h | 30540m | 5.0m/s | -42.8°C | 0.5% | 11.4hPa | 2.7V | 00:00:00 | 00:00:00 | 00:00:00 | |
| DO3MHA-12 | 2026-09-03 12:22:00 | 48.34492 | 10.19309 | 64° | 22km/h | 30541m | 5.0m/s | -42.7°C | 2.5% | 11.4hPa | 2.7V | 00:00:00 | 01:52:26 | 00:00:00 | |
| DM0DOS-11 | 2026-09-03 12:21:59 | 48.34484 | 10.19293 | 34° | 15km/h | 30522m | 5.2m/s | -42.5°C | 2.4% | 11.5hPa | 2.7V | 08:30:00 | 01:52:23 | 00:00:00 | |
| DL1XH-west | 2026-09-03 12:21:55 | 48.34477 | 10.19286 | 38° | 20km/h | 30511m | 6.5m/s | -42.6°C | 0% | 11.5hPa | 2.6V | 18:12:15 | 01:52:21 | 00:00:00 | |
| DJ2DS-15 | 2026-09-03 12:21:53 | 48.34468 | 10.19273 | 47° | 26km/h | 30499m | 5.1m/s | -42.8°C | 0.5% | 11.5hPa | 2.7V | 00:00:00 | 00:00:00 | 00:00:00 | |
| DM0DOS-11 | 2026-09-03 12:21:52 | 48.34453 | 10.19240 | 101° | 13km/h | 30464m | 6.8m/s | -42.9°C | 2.5% | 11.6hPa | 2.7V | 08:30:00 | 01:52:13 | 00:00:00 | |
| DK7TD | 2026-09-03 12:21:44 | 48.34457 | 10.19226 | 119° | 11km/h | 30447m | 5.6m/s | -42.7°C | 0% | 11.6hPa | 2.6V | 18:12:15 | 01:52:10 | 00:00:00 | |
| OE5DRO-10 | 2026-09-03 12:21:44 | 48.34457 | 10.19226 | 120° | 11km/h | 30448m | 5.5m/s | -42.7°C | 2.4% | 11.6hPa | 2.6V | 00:00:00 | 00:00:00 | 00:00:00 | |
| OE9MKV-15 | 2026-09-03 12:21:43 | 48.34458 | 10.19223 | 114° | 11km/h | 30442m | 6.7m/s | -42.6°C | 2.4% | 11.6hPa | 2.6V | 00:00:00 | 01:52:09 | 00:00:00 | |
| DL1XH1-15 | 2026-09-03 12:21:41 | 48.34454 | 10.19219 | 32° | 13km/h | 30424m | 6.5m/s | -42.8°C | 2.4% | 11.7hPa | 2.7V | 08:30:00 | 01:52:06 | 00:00:00 | |
| OE5MMP-10 | 2026-09-03 12:21:41 | 48.34457 | 10.19221 | 28° | 15km/h | 30430m | 4.9m/s | -42.7°C | 2.4% | 11.6hPa | 2.7V | 00:00:00 | 01:52:07 | 00:00:00 | |
| DO3MHA-12 | 2026-09-03 12:21:40 | 48.34454 | 10.19219 | 33° | 15km/h | 30425m | 6.4m/s | -42.8°C | 2.4% | 11.6hPa | 2.7V | 00:00:00 | 01:52:06 | 00:00:00 | |
| DM0DOS-11 | 2026-09-03 12:21:39 | 48.34443 | 10.19203 | 47° | 26km/h | 30406m | 4.9m/s | -42.8°C | 2.4% | 11.7hPa | 2.6V | 08:30:00 | 01:52:03 | 00:00:00 | |
| OE5DXL-15 | 2026-09-03 12:21:39 | 48.34451 | 10.19215 | 41° | 11km/h | 30418m | 7.0m/s | -42.9°C | 2.4% | 11.6hPa | 2.6V | 00:00:00 | 00:00:00 | 00:00:00 | |
| AZAK | 2026-09-03 12:21:38 | 48.34447 | 10.19209 | 47° | 24km/h | 30411m | 5.6m/s | -43.0°C | 0.5% | 11.7hPa | 2.6V | 00:00:00 | 00:00:00 | 00:00:00 | |
| DK5PH-5 | 2026-09-03 12:21:37 | 48.34443 | 10.19203 | 48° | 9km/h | 30406m | 4.9m/s | -42.8°C | 2.4% | 11.6hPa | 2.6V | 00:00:00 | 01:52:03 | 00:00:00 | |
| DO3MHA-11 | 2026-09-03 12:21:36 | 48.34439 | 10.19196 | 48° | 11km/h | 30401m | 5.4m/s | -42.8°C | 2.4% | 11.6hPa | 2.6V | 00:00:00 | 01:52:02 | 00:00:00 | |
| DL1XH1-15 | 2026-09-03 12:21:35 | 48.34432 | 10.19178 | 109° | 9km/h | 30365m | 5.8m/s | -43.5°C | 2.6% | 11.8hPa | 2.6V | 08:30:00 | 01:51:56 | 00:00:00 | |
| DK7TD | 2026-09-03 12:21:34 | 48.34433 | 10.19187 | 42° | 11km/h | 30389m | 5.8m/s | -43°C | 0% | 11.7hPa | 2.6V | 18:12:15 | 01:52:00 | 00:00:00 | |
| DL1XH-west | 2026-09-03 12:21:33 | 48.34431 | 10.19185 | 48° | 5km/h | 30383m | 5m/s | -43.1°C | 0% | 11.7hPa | 2.6V | 18:12:15 | 01:51:59 | 00:00:00 | |
| DM0DOS-11 | 2026-09-03 12:21:32 | 48.34434 | 10.19168 | 118° | 5km/h | 30348m | 6.5m/s | -43.4°C | 2.6% | 11.8hPa | 2.7V | 08:30:00 | 01:51:53 | 00:00:00 | |
| DL1XH-west | 2026-09-03 12:21:23 | 48.34434 | 10.19161 | 70° | 11km/h | 30326m | 6.9m/s | -43.4°C | 0% | 11.8hPa | 2.6V | 18:12:15 | 01:51:49 | 00:00:00 | |
| DL1XH1-15 | 2026-09-03 12:21:21 | 48.34430 | 10.19145 | 60° | 15km/h | 30309m | 4.6m/s | -43.6°C | 2.6% | 11.9hPa | 2.7V | 08:30:00 | 01:51:46 | 00:00:00 | |
| OE5MMP-10 | 2026-09-03 12:21:21 | 48.34431 | 10.19151 | 66° | 9km/h | 30314m | 4.9m/s | -43.5°C | 2.6% | 11.8hPa | 2.6V | 00:00:00 | 01:51:47 | 00:00:00 | |
| DF3TZ-5 | 2026-09-03 12:21:20 | 48.34428 | 10.19142 | 47° | 9km/h | 30304m | 6.3m/s | -43.8°C | 0.5% | 11.8hPa | 2.6V | 00:00:00 | 00:00:00 | 00:00:00 | |
| SONDE2-11 | 2026-09-03 12:21:19 | 48.34426 | 10.19140 | 10° | 5km/h | 30298m | 6.8m/s | -43.9°C | 0.5% | 11.9hPa | 2.6V | 00:00:00 | 00:00:00 | 00:00:00 | |
| DJ2DS-15 | 2026-09-03 12:21:18 | 48.34426 | 10.19140 | 11° | 9km/h | 30298m | 6.7m/s | -43.8°C | 2.6% | 11.9hPa | 2.6V | 00:00:00 | 01:51:44 | 00:00:00 | |
| AZAK | 2026-09-03 12:21:17 | 48.34425 | 10.19140 | 322° | 7km/h | 30292m | 5.8m/s | -43.9°C | 0.5% | 11.9hPa | 2.6V | 00:00:00 | 00:00:00 | 00:00:00 | |
| DO3MHA-11 | 2026-09-03 12:21:16 | 48.34423 | 10.19142 | 305° | 9km/h | 30286m | 4.7m/s | -43.8°C | 2.6% | 11.9hPa | 2.6V | 00:00:00 | 01:51:42 | 00:00:00 | |
| DL1XH1-15 | 2026-09-03 12:21:15 | 48.34425 | 10.19130 | 109° | 11km/h | 30250m | 6.3m/s | -44.2°C | 2.7% | 12hPa | 2.7V | 08:30:00 | 01:51:36 | 00:00:00 | |
| DL1XH-west | 2026-09-03 12:21:12 | 48.34423 | 10.19139 | 105° | 11km/h | 30262m | 5.5m/s | -44°C | 0% | 12hPa | 2.6V | 18:12:15 | 01:51:38 | 00:00:00 | |
| DM7RM-13 | 2026-09-03 12:21:12 | 48.34423 | 10.19139 | 105° | 11km/h | 30262m | 5.5m/s | -44.0°C | 0.5% | 12.0hPa | 2.6V | 00:00:00 | 00:00:00 | 00:00:00 | |
| OE5MMP-10 | 2026-09-03 12:21:11 | 48.34424 | 10.19134 | 108° | 11km/h | 30257m | 6.3m/s | -44.1°C | 2.7% | 11.9hPa | 2.6V | 00:00:00 | 01:51:37 | 08:30:00 | |
| DB0NH | 2026-09-03 12:21:10 | 48.34425 | 10.19130 | 110° | 11km/h | 30250m | 6.3m/s | -44.1°C | 2.7% | 11.9hPa | 2.6V | 00:00:00 | 01:51:36 | 00:00:00 | |
| OE5DXL-15 | 2026-09-03 12:21:09 | 48.34426 | 10.19126 | 111° | 11km/h | 30244m | 5.4m/s | -44.1°C | 2.7% | 11.9hPa | 2.6V | 00:00:00 | 00:00:00 | 00:00:00 | |
| DK5PH-5 | 2026-09-03 12:21:07 | 48.34428 | 10.19118 | 105° | 13km/h | 30233m | 6.0m/s | -43.9°C | 2.6% | 12.0hPa | 2.6V | 00:00:00 | 01:51:33 | 00:00:00 | |
| DO3MHA-11 | 2026-09-03 12:21:06 | 48.34429 | 10.19113 | 103° | 7km/h | 30227m | 6.5m/s | -43.8°C | 2.7% | 12.0hPa | 2.7V | 00:00:00 | 01:51:32 | 00:00:00 | |
| DF1GD-15 | 2026-09-03 12:21:05 | 48.34429 | 10.19113 | 103° | 15km/h | 30227m | 6.6m/s | -43.9°C | 0.5% | 12.0hPa | 2.7V | 00:00:00 | 00:00:00 | 00:00:00 | |
| DH7VM-15 | 2026-09-03 12:21:04 | 48.34430 | 10.19102 | 100° | 11km/h | 30216m | 5.0m/s | -43.9°C | 0.5% | 12.0hPa | 2.7V | 00:00:00 | 00:00:00 | 00:00:00 | |
| DL1XH1-15 | 2026-09-03 12:21:03 | 48.34430 | 10.19102 | 99° | 4km/h | 30182m | 6.5m/s | -44.1°C | 2.7% | 12.1hPa | 2.7V | 08:30:00 | 01:51:24 | 00:00:00 | |
| DM0DOS-11 | 2026-09-03 12:21:02 | 48.34430 | 10.19099 | 97° | 11km/h | 30176m | 6.4m/s | -44°C | 2.7% | 12.1hPa | 2.7V | 08:30:00 | 01:51:23 | 00:00:00 | |
| DL1XH-west | 2026-09-03 12:21:01 | 48.34430 | 10.19099 | 275° | 5km/h | 30197m | 5.1m/s | -43.9°C | 0% | 12.1hPa | 2.6V | 18:12:15 | 01:51:27 | 00:00:00 | |
| DK7TD | 2026-09-03 12:20:52 | 48.34432 | 10.19064 | 94° | 9km/h | 30140m | 5.2m/s | -43.8°C | 0% | 12.2hPa | 2.6V | 18:12:15 | 01:51:17 | 00:00:00 | |
| DL1XH1-15 | 2026-09-03 12:20:51 | 48.34432 | 10.19054 | 84° | 9km/h | 30122m | 5.6m/s | -43.8°C | 2.6% | 12.2hPa | 2.7V | 08:30:00 | 01:51:14 | 00:00:00 | |
| DL1XH-west | 2026-09-03 12:20:50 | 48.34432 | 10.19061 | 92° | 9km/h | 30134m | 6.3m/s | -43.9°C | 0% | 12.2hPa | 2.6V | 18:12:15 | 01:51:16 | 00:00:00 | |
| DO3MHA-12 | 2026-09-03 12:20:50 | 48.34432 | 10.19061 | 92° | 9km/h | 30135m | 6.3m/s | -43.8°C | 2.6% | 12.1hPa | 2.7V | 00:00:00 | 01:51:16 | 00:00:00 | |
| DM0DOS-11 | 2026-09-03 12:20:49 | 48.34432 | 10.19052 | 74° | 5km/h | 30116m | 5.2m/s | -43.9°C | 2.6% | 12.2hPa | 2.7V | 08:30:00 | 01:51:13 | 00:00:00 | |
| DF3TZ-5 | 2026-09-03 12:20:49 | 48.34432 | 10.19054 | 84° | 7km/h | 30122m | 5.6m/s | -43.8°C | 0.5% | 12.2hPa | 2.6V | 00:00:00 | 00:00:00 | 00:00:00 | |
| SONCRA | 2026-09-03 12:20:48 | 48.34432 | 10.19054 | 84° | 7km/h | 30122m | 5.6m/s | -43.8°C | 0.5% | 12.2hPa | 2.6V | 00:00:00 | 00:00:00 | 00:00:00 | |
| OE5DRO-10 | 2026-09-03 12:20:47 | 48.34432 | 10.19051 | 75° | 15km/h | 30117m | 5.1m/s | -43.9°C | 2.6% | 12.2hPa | 2.6V | 00:00:00 | 00:00:00 | 00:00:00 | |
| DB0UT-7 | 2026-09-03 12:20:46 | 48.34432 | 10.19050 | 58° | 16km/h | 30111m | 6.8m/s | -43.9°C | 2.7% | 12.2hPa | 2.6V | 00:00:00 | 00:00:00 | 00:00:00 | |
| DO3MHA-11 | 2026-09-03 12:20:45 | 48.34431 | 10.19049 | 28° | 16km/h | 30104m | 5.8m/s | -43.9°C | 2.6% | 12.2hPa | 2.6V | 00:00:00 | 01:51:11 | 08:30:00 | |
| DL1XH1-15 | 2026-09-03 12:20:43 | 48.34414 | 10.19007 | 60° | 24km/h | 30063m | 6.4m/s | -43.9°C | 2.5% | 12.3hPa | 2.6V | 08:30:00 | 01:51:04 | 00:00:00 | |
| DM0DOS-11 | 2026-09-03 12:20:43 | 48.34411 | 10.19001 | 54° | 18km/h | 30057m | 6m/s | -44°C | 2.6% | 12.3hPa | 2.7V | 08:30:00 | 01:51:03 | 00:00:00 | |
| DK7TD | 2026-09-03 12:20:40 | 48.34420 | 10.19025 | 64° | 27km/h | 30074m | 5.7m/s | -43.8°C | 0% | 12.3hPa | 2.6V | 18:12:15 | 01:51:06 | 00:00:00 | |
| DL1XH-west | 2026-09-03 12:20:39 | 48.34417 | 10.19016 | 63° | 27km/h | 30069m | 5.2m/s | -43.8°C | 0% | 12.3hPa | 2.6V | 18:12:15 | 01:51:05 | 00:00:00 | |
| DK7TD | 2026-09-03 12:20:29 | 48.34401 | 10.18968 | 83° | 11km/h | 30008m | 5.5m/s | -44.2°C | 0% | 12.4hPa | 2.6V | 18:12:15 | 01:50:55 | 00:00:00 | |
| DM0DOS-11 | 2026-09-03 12:20:29 | 48.34399 | 10.18956 | 78° | 22km/h | 29997m | 6.8m/s | -44.4°C | 2.6% | 12.4hPa | 2.7V | 08:30:00 | 01:50:53 | 00:00:00 | |
| DL1XH-west | 2026-09-03 12:20:28 | 48.34400 | 10.18963 | 81° | 16km/h | 30003m | 5.1m/s | -44.3°C | 0% | 12.4hPa | 2.7V | 18:12:15 | 01:50:54 | 00:00:00 | |
| DL9SK-14 | 2026-09-03 12:20:28 | 48.34400 | 10.18956 | 78° | 20km/h | 29997m | 6.8m/s | -44.4°C | 0.5% | 12.4hPa | 2.6V | 00:00:00 | 00:00:00 | 00:00:00 | |
| DL1XH1-15 | 2026-09-03 12:20:27 | 48.34396 | 10.18937 | 71° | 29km/h | 29984m | 5.1m/s | -44.5°C | 2.6% | 12.5hPa | 2.6V | 08:30:00 | 01:50:51 | 00:00:00 | |
| DL1NUX | 2026-09-03 12:20:24 | 48.34385 | 10.18907 | 35° | 13km/h | 29961m | 5.8m/s | -44.5°C | 2.7% | 12.5hPa | 2.7V | 08:30:00 | 01:50:47 | 00:00:00 | |
| DM0DOS-11 | 2026-09-03 12:20:22 | 48.34377 | 10.18898 | 49° | 15km/h | 29938m | 5.9m/s | -44.9°C | 2.8% | 12.6hPa | 2.7V | 08:30:00 | 01:50:43 | 00:00:00 | |
| DK7TD | 2026-09-03 12:20:18 | 48.34379 | 10.18902 | 41° | 11km/h | 29944m | 6.3m/s | -44.8°C | 0% | 12.5hPa | 2.7V | 18:12:15 | 01:50:44 | 00:00:00 | |
| DL1XH-west | 2026-09-03 12:20:17 | 48.34377 | 10.18898 | 50° | 15km/h | 29938m | 5.9m/s | -44.9°C | 0% | 12.6hPa | 2.7V | 18:12:15 | 01:50:43 | 00:00:00 | |
| DL1XH1-15 | 2026-09-03 12:20:17 | 48.34372 | 10.18889 | 48° | 18km/h | 29927m | 5.5m/s | -44.8°C | 2.8% | 12.6hPa | 2.6V | 08:30:00 | 01:50:41 | 00:00:00 | |
| AZAK | 2026-09-03 12:20:17 | 48.34375 | 10.18894 | 52° | 16km/h | 29933m | 5.2m/s | -44.9°C | 0.5% | 12.6hPa | 2.7V | 00:00:00 | 00:00:00 | 00:00:00 | |
| DL1NUX | 2026-09-03 12:20:16 | 48.34360 | 10.18872 | 53° | 13km/h | 29903m | 5.3m/s | -44.8°C | 2.8% | 12.6hPa | 2.7V | 08:30:00 | 01:50:37 | 00:00:00 | |
| DB0UT-7 | 2026-09-03 12:20:16 | 48.34375 | 10.18894 | 51° | 15km/h | 29933m | 5.2m/s | -44.8°C | 2.8% | 12.5hPa | 2.6V | 00:00:00 | 01:50:42 | 00:00:00 | |
| DO3MHA-11 | 2026-09-03 12:20:15 | 48.34372 | 10.18888 | 49° | 16km/h | 29927m | 5.4m/s | -44.8°C | 2.8% | 12.5hPa | 2.6V | 00:00:00 | 01:50:41 | 00:00:00 | |
| OE9MKV-15 | 2026-09-03 12:20:13 | 48.34365 | 10.18879 | 40° | 13km/h | 29915m | 6.2m/s | -44.7°C | 2.8% | 12.5hPa | 2.7V | 00:00:00 | 01:50:39 | 08:30:00 | |
| DJ8HS-15 | 2026-09-03 12:20:12 | 48.34362 | 10.18875 | 41° | 13km/h | 29909m | 5.8m/s | -44.7°C | 2.8% | 12.6hPa | 2.7V | 00:00:00 | 01:50:38 | 08:30:00 | |
| OE5MMP-10 | 2026-09-03 12:20:11 | 48.34360 | 10.18872 | 54° | 15km/h | 29903m | 5.3m/s | -44.7°C | 2.8% | 12.6hPa | 2.7V | 00:00:00 | 01:50:37 | 00:00:00 | |
| DM0DOS-11 | 2026-09-03 12:20:10 | 48.34361 | 10.18848 | 111° | 20km/h | 29879m | 4.6m/s | -44.8°C | 2.8% | 12.7hPa | 2.7V | 08:30:00 | 01:50:33 | 00:00:00 | |
| DF7PN | 2026-09-03 12:20:10 | 48.34361 | 10.18848 | 111° | 20km/h | 29879m | 4.6m/s | -44.8°C | 0.5% | 12.7hPa | 2.7V | 00:00:00 | 00:00:00 | 00:00:00 | |
| DL1XH1-15 | 2026-09-03 12:20:08 | 48.34364 | 10.18836 | 110° | 11km/h | 29869m | 6.4m/s | -44.8°C | 2.8% | 12.7hPa | 2.7V | 08:30:00 | 01:50:31 | 00:00:00 | |
| DL1XH-west | 2026-09-03 12:20:07 | 48.34361 | 10.18848 | 112° | 20km/h | 29879m | 4.6m/s | -44.8°C | 0% | 12.7hPa | 2.7V | 18:12:15 | 01:50:33 | 00:00:00 | |
| DK5PH-5 | 2026-09-03 12:20:07 | 48.34360 | 10.18848 | 112° | 13km/h | 29880m | 4.5m/s | -44.8°C | 2.8% | 12.6hPa | 2.6V | 00:00:00 | 01:50:33 | 00:00:00 | |
| DO3MHA-11 | 2026-09-03 12:20:05 | 48.34364 | 10.18836 | 111° | 15km/h | 29869m | 6.4m/s | -44.8°C | 2.8% | 12.6hPa | 2.6V | 00:00:00 | 01:50:31 | 00:00:00 | |
| PETON7-10 | 2026-09-03 12:20:04 | 48.34364 | 10.18833 | 69° | 11km/h | 29863m | 6.2m/s | -44.8°C | 2.8% | 12.6hPa | 2.6V | 00:00:00 | 00:00:00 | 00:00:00 | |
| DF1GD-15 | 2026-09-03 12:20:03 | 48.34364 | 10.18833 | 70° | 5km/h | 29863m | 6.2m/s | -44.9°C | 0.6% | 12.7hPa | 2.6V | 00:00:00 | 00:00:00 | 00:00:00 | |
| DM0DOS-11 | 2026-09-03 12:20:02 | 48.34342 | 10.18815 | 53° | 15km/h | 29822m | 6m/s | -44.8°C | 2.8% | 12.8hPa | 2.6V | 08:30:00 | 01:50:23 | 00:00:00 | |
| DK7TD | 2026-09-03 12:19:57 | 48.34342 | 10.18815 | 53° | 15km/h | 29822m | 6m/s | -44.8°C | 0% | 12.8hPa | 2.6V | 18:12:15 | 01:50:23 | 00:00:00 | |
| DL1XH1-15 | 2026-09-03 12:19:57 | 48.34338 | 10.18808 | 51° | 7km/h | 29809m | 6.1m/s | -44.8°C | 2.8% | 12.8hPa | 2.7V | 08:30:00 | 01:50:21 | 00:00:00 | |
| DL1NUX | 2026-09-03 12:19:57 | 48.34336 | 10.18804 | 54° | 7km/h | 29798m | 5.5m/s | -44.8°C | 2.8% | 12.8hPa | 2.6V | 08:30:00 | 01:50:19 | 00:00:00 | |
| DL1XH-west | 2026-09-03 12:19:56 | 48.34340 | 10.18811 | 56° | 11km/h | 29815m | 6.7m/s | -44.8°C | 0% | 12.8hPa | 2.7V | 18:12:15 | 01:50:22 | 00:00:00 | |
| DL6DJ-15 | 2026-09-03 12:19:55 | 48.34337 | 10.18806 | 51° | 5km/h | 29804m | 5.1m/s | -44.8°C | 0.5% | 12.8hPa | 2.6V | 00:00:00 | 00:00:00 | 00:00:00 | |
| DB0ND-19 | 2026-09-03 12:19:54 | 48.34337 | 10.18806 | 51° | 5km/h | 29804m | 5.1m/s | -44.8°C | 0.5% | 12.8hPa | 2.6V | 00:00:00 | 00:00:00 | 00:00:00 | |
| OM5KV | 2026-09-03 12:19:52 | 48.34335 | 10.18801 | 60° | 9km/h | 29792m | 7.1m/s | -44.8°C | 0.5% | 12.9hPa | 2.6V | 00:00:00 | 00:00:00 | 00:00:00 | |
| OE5MMP-10 | 2026-09-03 12:19:51 | 48.34334 | 10.18797 | 58° | 13km/h | 29785m | 6.1m/s | -44.8°C | 2.7% | 12.8hPa | 2.6V | 00:00:00 | 01:50:17 | 00:00:00 | |
| DO3MHA-12 | 2026-09-03 12:19:50 | 48.34332 | 10.18793 | 52° | 13km/h | 29780m | 5.4m/s | -44.8°C | 2.8% | 12.8hPa | 2.6V | 00:00:00 | 01:50:16 | 00:00:00 | |
| DM0DOS-11 | 2026-09-03 12:19:49 | 48.34324 | 10.18787 | 11° | 13km/h | 29761m | 5.4m/s | -44.8°C | 2.7% | 12.9hPa | 2.6V | 08:30:00 | 01:50:13 | 00:00:00 | |
| PETON7-10 | 2026-09-03 12:19:49 | 48.34329 | 10.18790 | 39° | 13km/h | 29774m | 6.6m/s | -44.9°C | 2.8% | 12.8hPa | 2.6V | 00:00:00 | 01:50:15 | 00:00:00 | |
| DL1XH1-15 | 2026-09-03 12:19:48 | 48.34318 | 10.18784 | 29° | 13km/h | 29749m | 6.9m/s | -44.9°C | 2.7% | 12.9hPa | 2.6V | 08:30:00 | 01:50:11 | 00:00:00 | |
| DL1XH-west | 2026-09-03 12:19:46 | 48.34321 | 10.18785 | 16° | 13km/h | 29755m | 5.1m/s | -44.8°C | 0% | 12.9hPa | 2.6V | 18:12:15 | 01:50:12 | 00:00:00 | |
| DB0UT-7 | 2026-09-03 12:19:46 | 48.34321 | 10.18785 | 16° | 13km/h | 29756m | 5.0m/s | -44.8°C | 2.8% | 12.9hPa | 2.6V | 00:00:00 | 00:00:00 | 00:00:00 | |
| DO3MHA-11 | 2026-09-03 12:19:45 | 48.34318 | 10.18784 | 30° | 13km/h | 29750m | 6.9m/s | -44.9°C | 2.7% | 12.9hPa | 2.6V | 00:00:00 | 01:50:11 | 00:00:00 | |
| DL1NUX | 2026-09-03 12:19:44 | 48.34307 | 10.18761 | 64° | 11km/h | 29712m | 5.7m/s | -45°C | 2.7% | 13hPa | 2.7V | 08:30:00 | 01:50:05 | 00:00:00 | |
| OE9MKV-15 | 2026-09-03 12:19:43 | 48.34312 | 10.18776 | 56° | 15km/h | 29737m | 5.4m/s | -44.9°C | 2.7% | 12.9hPa | 2.6V | 00:00:00 | 01:50:09 | 00:00:00 | |
| DM0DOS-11 | 2026-09-03 12:19:42 | 48.34304 | 10.18751 | 63° | 16km/h | 29699m | 5.6m/s | -44.8°C | 2.7% | 13hPa | 2.6V | 08:30:00 | 01:50:03 | 00:00:00 | |
| OE5MMP-10 | 2026-09-03 12:19:41 | 48.34309 | 10.18768 | 61° | 13km/h | 29724m | 6.8m/s | -44.9°C | 2.7% | 12.9hPa | 2.6V | 00:00:00 | 01:50:07 | 08:30:00 | |
| DB0NH | 2026-09-03 12:19:40 | 48.34308 | 10.18764 | 63° | 16km/h | 29718m | 5.6m/s | -44.9°C | 2.8% | 12.9hPa | 2.7V | 00:00:00 | 01:50:06 | 00:00:00 | |
| OE5DXL-15 | 2026-09-03 12:19:39 | 48.34307 | 10.18761 | 65° | 15km/h | 29713m | 5.7m/s | -45.0°C | 2.8% | 13.0hPa | 2.7V | 00:00:00 | 00:00:00 | 00:00:00 | |
| DL1XH1-15 | 2026-09-03 12:19:38 | 48.34299 | 10.18742 | 42° | 15km/h | 29689m | 5.8m/s | -44.9°C | 2.7% | 13.1hPa | 2.7V | 08:30:00 | 01:50:01 | 00:00:00 | |
| DL1XH-west | 2026-09-03 12:19:36 | 48.34302 | 10.18746 | 55° | 16km/h | 29694m | 5m/s | -44.8°C | 0% | 13.1hPa | 2.6V | 18:12:15 | 01:50:02 | 00:00:00 | |
| DK7TD | 2026-09-03 12:19:35 | 48.34299 | 10.18741 | 43° | 15km/h | 29689m | 5.8m/s | -44.9°C | 0% | 13.1hPa | 2.7V | 18:12:15 | 01:50:01 | 00:00:00 | |
| AZAK | 2026-09-03 12:19:35 | 48.34299 | 10.18742 | 44° | 15km/h | 29689m | 5.8m/s | -44.9°C | 0.5% | 13.1hPa | 2.6V | 00:00:00 | 00:00:00 | 00:00:00 | |
| OM5KV | 2026-09-03 12:19:34 | 48.34296 | 10.18738 | 27° | 13km/h | 29683m | 7.1m/s | -44.9°C | 0.5% | 13.1hPa | 2.6V | 00:00:00 | 00:00:00 | 00:00:00 | |
| DJ8HS-15 | 2026-09-03 12:19:32 | 48.34290 | 10.18736 | 6° | 15km/h | 29670m | 5.0m/s | -45.1°C | 2.8% | 13.1hPa | 2.6V | 00:00:00 | 01:49:58 | 00:00:00 | |
| OE5MMP-10 | 2026-09-03 12:19:31 | 48.34286 | 10.18735 | 17° | 16km/h | 29666m | 5.0m/s | -45.1°C | 2.8% | 13.1hPa | 2.6V | 00:00:00 | 01:49:57 | 00:00:00 | |
| DO3MHA-12 | 2026-09-03 12:19:30 | 48.34282 | 10.18732 | 32° | 16km/h | 29660m | 6.6m/s | -44.9°C | 2.7% | 13.0hPa | 2.6V | 00:00:00 | 01:49:56 | 00:00:00 | |
| DM0DOS-11 | 2026-09-03 12:19:29 | 48.34270 | 10.18714 | 54° | 24km/h | 29641m | 5.1m/s | -45.1°C | 2.8% | 13.1hPa | 2.6V | 08:30:00 | 01:49:53 | 00:00:00 | |
| DL1XH1-15 | 2026-09-03 12:19:27 | 48.34264 | 10.18702 | 53° | 15km/h | 29629m | 6.4m/s | -45.2°C | 2.8% | 13.2hPa | 2.7V | 08:30:00 | 01:49:51 | 00:00:00 | |
| DL1XH-west | 2026-09-03 12:19:26 | 48.34267 | 10.18707 | 54° | 20km/h | 29635m | 6.8m/s | -45.2°C | 0% | 13.2hPa | 2.6V | 18:12:15 | 01:49:52 | 00:00:00 | |
| DK7TD | 2026-09-03 12:19:24 | 48.34263 | 10.18698 | 56° | 11km/h | 29623m | 5.9m/s | -45.3°C | 0% | 13.2hPa | 2.7V | 18:12:15 | 01:49:50 | 00:00:00 | |
| DL6DJ-15 | 2026-09-03 12:19:24 | 48.34261 | 10.18695 | 62° | 7km/h | 29617m | 5.9m/s | -45.3°C | 0.5% | 13.2hPa | 2.6V | 00:00:00 | 00:00:00 | 00:00:00 | |
| DB0ND-19 | 2026-09-03 12:19:23 | 48.34261 | 10.18695 | 62° | 7km/h | 29617m | 5.9m/s | -45.3°C | 0.5% | 13.2hPa | 2.6V | 00:00:00 | 00:00:00 | 00:00:00 | |
| DF1GD-15 | 2026-09-03 12:19:21 | 48.34260 | 10.18691 | 71° | 9km/h | 29611m | 7.0m/s | -45.2°C | 0.6% | 13.2hPa | 2.6V | 00:00:00 | 00:00:00 | 00:00:00 | |
| DL1NUX | 2026-09-03 12:19:20 | 48.34255 | 10.18680 | 0° | 7km/h | 29580m | 6.4m/s | -45.3°C | 2.8% | 13.3hPa | 2.6V | 08:30:00 | 01:49:43 | 00:00:00 | |
| DO9HM | 2026-09-03 12:19:20 | 48.34258 | 10.18684 | 70° | 9km/h | 29599m | 4.9m/s | -45.2°C | 0.6% | 13.3hPa | 2.7V | 00:00:00 | 00:00:00 | 00:00:00 | |
| OE5WHR-10 | 2026-09-03 12:19:19 | 48.34258 | 10.18682 | 55° | 13km/h | 29594m | 5.6m/s | -45.2°C | 2.8% | 13.2hPa | 2.7V | 00:00:00 | 00:00:00 | 00:00:00 | |
| DM0DOS-11 | 2026-09-03 12:19:18 | 48.34253 | 10.18680 | 11° | 9km/h | 29574m | 5.4m/s | -45.3°C | 2.9% | 13.3hPa | 2.6V | 08:30:00 | 01:49:42 | 00:00:00 | |
| DL1XH-west | 2026-09-03 12:19:15 | 48.34251 | 10.18678 | 28° | 13km/h | 29569m | 6.1m/s | -45.3°C | 0% | 13.3hPa | 2.6V | 18:12:15 | 01:49:41 | 00:00:00 | |
| DK7TD | 2026-09-03 12:19:14 | 48.34248 | 10.18675 | 42° | 16km/h | 29562m | 6.8m/s | -45.2°C | 0% | 13.3hPa | 2.7V | 18:12:15 | 01:49:40 | 00:00:00 | |
| AZAK | 2026-09-03 12:19:14 | 48.34248 | 10.18675 | 43° | 16km/h | 29563m | 6.8m/s | -45.2°C | 0.5% | 13.3hPa | 2.7V | 00:00:00 | 00:00:00 | 00:00:00 | |
| DJ8HS-15 | 2026-09-03 12:19:12 | 48.34240 | 10.18664 | 45° | 16km/h | 29551m | 5.2m/s | -45.0°C | 2.8% | 13.3hPa | 2.7V | 00:00:00 | 01:49:38 | 00:00:00 | |
| DM0DOS-11 | 2026-09-03 12:19:11 | 48.34216 | 10.18646 | 21° | 9km/h | 29515m | 6.3m/s | -45.2°C | 2.8% | 13.4hPa | 2.7V | 08:30:00 | 01:49:32 | 00:00:00 | |
| OE5MMP-10 | 2026-09-03 12:19:11 | 48.34236 | 10.18658 | 38° | 13km/h | 29545m | 6.3m/s | -45.1°C | 2.8% | 13.3hPa | 2.6V | 00:00:00 | 01:49:37 | 00:00:00 | |
| DO3MHA-12 | 2026-09-03 12:19:10 | 48.34231 | 10.18654 | 28° | 13km/h | 29539m | 6.6m/s | -45.1°C | 2.8% | 13.3hPa | 2.6V | 00:00:00 | 01:49:36 | 00:00:00 | |
| DL1NUX | 2026-09-03 12:19:09 | 48.34219 | 10.18648 | 14° | 13km/h | 29521m | 6.7m/s | -45.2°C | 2.8% | 13.4hPa | 2.7V | 08:30:00 | 01:49:33 | 00:00:00 | |
| OM5KV | 2026-09-03 12:19:09 | 48.34227 | 10.18651 | 19° | 18km/h | 29533m | 5.3m/s | -45.2°C | 0.6% | 13.4hPa | 2.7V | 00:00:00 | 00:00:00 | 00:00:00 | |
| DK5PH-5 | 2026-09-03 12:19:07 | 48.34219 | 10.18648 | 15° | 13km/h | 29522m | 6.6m/s | -45.2°C | 2.8% | 13.3hPa | 2.7V | 00:00:00 | 01:49:33 | 00:00:00 | |
| DF7PN | 2026-09-03 12:19:06 | 48.34214 | 10.18645 | 21° | 5km/h | 29509m | 5.7m/s | -45.2°C | 0.5% | 13.4hPa | 2.7V | 00:00:00 | 00:00:00 | 00:00:00 | |
| DL1XH1-15 | 2026-09-03 12:19:05 | 48.34203 | 10.18649 | 5° | 16km/h | 29480m | 6.3m/s | -45.3°C | 2.7% | 13.5hPa | 2.7V | 08:30:00 | 01:49:26 | 00:00:00 | |
| DL1XH-west | 2026-09-03 12:19:04 | 48.34213 | 10.18645 | 355° | 5km/h | 29503m | 5.2m/s | -45.3°C | 0% | 13.4hPa | 2.6V | 18:12:15 | 01:49:30 | 00:00:00 | |
| DK7TD | 2026-09-03 12:19:04 | 48.34211 | 10.18646 | 334° | 7km/h | 29497m | 7m/s | -45.3°C | 0% | 13.4hPa | 2.6V | 18:12:15 | 01:49:29 | 00:00:00 | |
| OM5KV | 2026-09-03 12:19:02 | 48.34211 | 10.18646 | 335° | 7km/h | 29498m | 7.0m/s | -45.3°C | 0.5% | 13.4hPa | 2.6V | 00:00:00 | 00:00:00 | 00:00:00 | |
| DF1GD-15 | 2026-09-03 12:19:01 | 48.34206 | 10.18649 | 350° | 13km/h | 29485m | 5.0m/s | -45.4°C | 0.6% | 13.5hPa | 2.6V | 00:00:00 | 00:00:00 | 00:00:00 | |
| DO3MHA-12 | 2026-09-03 12:19:00 | 48.34203 | 10.18649 | 6° | 18km/h | 29480m | 6.2m/s | -45.3°C | 2.7% | 13.4hPa | 2.6V | 00:00:00 | 01:49:26 | 00:00:00 | |
| DM0DOS-11 | 2026-09-03 12:18:59 | 48.34182 | 10.18635 | 24° | 24km/h | 29455m | 6.8m/s | -45.3°C | 2.7% | 13.5hPa | 2.6V | 08:30:00 | 01:49:22 | 00:00:00 | |
| DL1XH-west | 2026-09-03 12:18:53 | 48.34168 | 10.18630 | 5° | 15km/h | 29437m | 5.4m/s | -45.1°C | 0% | 13.6hPa | 2.6V | 18:12:15 | 01:49:19 | 00:00:00 | |
| DK7TD | 2026-09-03 12:18:53 | 48.34165 | 10.18629 | 11° | 11km/h | 29431m | 7m/s | -45.2°C | 0% | 13.6hPa | 2.6V | 18:12:15 | 01:49:18 | 00:00:00 | |
| NBG1-10 | 2026-09-03 12:18:52 | 48.34165 | 10.18629 | 11° | 9km/h | 29431m | 6.9m/s | -45.1°C | 2.7% | 13.5hPa | 2.7V | 00:00:00 | 01:49:18 | 00:00:00 | |
| DL1XH1-15 | 2026-09-03 12:18:51 | 48.34162 | 10.18627 | 23° | 4km/h | 29419m | 5.3m/s | -45.1°C | 2.7% | 13.6hPa | 2.7V | 08:30:00 | 01:49:16 | 00:00:00 | |
| OE5MMP-10 | 2026-09-03 12:18:51 | 48.34163 | 10.18628 | 25° | 7km/h | 29425m | 6.4m/s | -45.1°C | 2.7% | 13.5hPa | 2.6V | 00:00:00 | 01:49:17 | 00:00:00 | |
| DO3MHA-12 | 2026-09-03 12:18:50 | 48.34162 | 10.18627 | 24° | 9km/h | 29419m | 5.2m/s | -45.1°C | 2.7% | 13.6hPa | 2.6V | 00:00:00 | 01:49:16 | 00:00:00 | |
| DL1NUX | 2026-09-03 12:18:49 | 48.34161 | 10.18630 | 297° | 5km/h | 29400m | 5.4m/s | -45.1°C | 2.6% | 0hPa | 2.6V | 08:30:00 | 01:49:13 | 00:00:00 | |
| PETON7-10 | 2026-09-03 12:18:49 | 48.34161 | 10.18627 | 322° | 9km/h | 29413m | 6.4m/s | 0°C | 0% | 0hPa | 2.7V | 00:00:00 | 00:00:00 | 08:30:00 | |
| PG1ADW-2 | 2026-09-03 12:18:48 | 48.34161 | 10.18628 | 290° | 13km/h | 29406m | 6.7m/s | -45.0°C | 2.6% | 13.6hPa | 2.7V | 00:00:00 | 00:00:00 | 00:00:00 | |
| DB0UT-7 | 2026-09-03 12:18:46 | 48.34160 | 10.18631 | 336° | 11km/h | 29395m | 5.6m/s | -45.2°C | 2.6% | 13.6hPa | 2.7V | 00:00:00 | 00:00:00 | 00:00:00 | |
| DL1XH1-15 | 2026-09-03 12:18:45 | 48.34140 | 10.18624 | 349° | 16km/h | 29358m | 5.9m/s | -45.4°C | 2.6% | 13.7hPa | 2.7V | 08:30:00 | 01:49:06 | 00:00:00 | |
| SONCRA | 2026-09-03 12:18:44 | 48.34156 | 10.18630 | 28° | 11km/h | 29382m | 5.7m/s | -45.1°C | 0.5% | 13.7hPa | 2.6V | 00:00:00 | 00:00:00 | 00:00:00 | |
| DL1XH-west | 2026-09-03 12:18:43 | 48.34153 | 10.18627 | 25° | 16km/h | 29377m | 5.1m/s | -45.1°C | 0% | 13.7hPa | 2.6V | 18:12:15 | 01:49:09 | 00:00:00 | |
| DK7TD | 2026-09-03 12:18:41 | 48.34145 | 10.18624 | 4° | 18km/h | 29364m | 6.7m/s | -45.3°C | 0% | 13.7hPa | 2.6V | 18:12:15 | 01:49:07 | 00:00:00 | |
| OM5KV | 2026-09-03 12:18:41 | 48.34145 | 10.18624 | 5° | 18km/h | 29365m | 6.7m/s | -45.3°C | 0.5% | 13.7hPa | 2.7V | 00:00:00 | 00:00:00 | 00:00:00 | |
| DO3MHA-12 | 2026-09-03 12:18:40 | 48.34140 | 10.18624 | 350° | 11km/h | 29359m | 5.9m/s | -45.4°C | 2.6% | 13.7hPa | 2.7V | 00:00:00 | 01:49:06 | 00:00:00 | |
| DL1NUX | 2026-09-03 12:18:39 | 48.34132 | 10.18629 | 317° | 5km/h | 29340m | 6.4m/s | -45.8°C | 2.7% | 0hPa | 2.6V | 08:30:00 | 01:49:03 | 00:00:00 | |
| DL1XH-west | 2026-09-03 12:18:33 | 48.34135 | 10.18642 | 243° | 16km/h | 29316m | 5.5m/s | -45.8°C | 0% | 13.8hPa | 2.7V | 18:12:15 | 01:48:59 | 00:00:00 | |
| DK7TD | 2026-09-03 12:18:30 | 48.34138 | 10.18653 | 276° | 2km/h | 29299m | 6.8m/s | -45.9°C | 0% | 13.8hPa | 2.6V | 18:12:15 | 01:48:56 | 00:00:00 | |
| DO3MHA-12 | 2026-09-03 12:18:30 | 48.34138 | 10.18653 | 276° | 9km/h | 29299m | 6.7m/s | -45.9°C | 2.8% | 13.8hPa | 2.6V | 00:00:00 | 01:48:56 | 00:00:00 | |
| DM0DOS-11 | 2026-09-03 12:18:29 | 48.34129 | 10.18645 | 14° | 16km/h | 29276m | 6m/s | -45.9°C | 2.7% | 13.9hPa | 2.6V | 08:30:00 | 01:48:52 | 00:00:00 | |
| DL1XH1-15 | 2026-09-03 12:18:28 | 48.34133 | 10.18647 | 27° | 16km/h | 29281m | 4.9m/s | -45.8°C | 2.8% | 13.9hPa | 2.7V | 08:30:00 | 01:48:53 | 00:00:00 | |
| OM5KV | 2026-09-03 12:18:27 | 48.34136 | 10.18650 | 37° | 13km/h | 29287m | 5.5m/s | -45.8°C | 0.5% | 13.9hPa | 2.7V | 00:00:00 | 00:00:00 | 00:00:00 | |
| BAUMI2-15 | 2026-09-03 12:18:26 | 48.34129 | 10.18645 | 15° | 11km/h | 29276m | 5.9m/s | -45.8°C | 2.7% | 13.8hPa | 2.7V | 00:00:00 | 01:48:52 | 00:00:00 | |
| DO3MHA-11 | 2026-09-03 12:18:25 | 48.34125 | 10.18644 | 358° | 7km/h | 29270m | 6.0m/s | -45.9°C | 2.7% | 13.9hPa | 2.7V | 00:00:00 | 01:48:51 | 00:00:00 | |
| DM7RM-13 | 2026-09-03 12:18:24 | 48.34125 | 10.18644 | 358° | 15km/h | 29270m | 6.1m/s | -45.9°C | 0.6% | 13.9hPa | 2.7V | 00:00:00 | 00:00:00 | 00:00:00 | |
| OM5KV | 2026-09-03 12:18:23 | 48.34122 | 10.18645 | 337° | 13km/h | 29264m | 5.3m/s | 0°C | 0% | 13.9hPa | 2.7V | 00:00:00 | 00:00:00 | 00:00:00 | |
| DM0DOS-11 | 2026-09-03 12:18:22 | 48.34111 | 10.18652 | 343° | 15km/h | 29218m | 5.6m/s | -46.5°C | 2.7% | 14hPa | 2.7V | 08:30:00 | 01:48:42 | 00:00:00 | |
| DL1XH-west | 2026-09-03 12:18:22 | 48.34118 | 10.18650 | 304° | 5km/h | 29253m | 6.2m/s | -46°C | 0% | 14hPa | 2.7V | 18:12:15 | 01:48:48 | 00:00:00 | |
| DK7TD | 2026-09-03 12:18:20 | 48.34118 | 10.18651 | 83° | 0km/h | 29242m | 5.1m/s | -46°C | 0% | 14hPa | 2.6V | 18:12:15 | 01:48:46 | 00:00:00 | |
| DL1XH-west | 2026-09-03 12:18:12 | 48.34098 | 10.18655 | 3° | 9km/h | 29195m | 5.4m/s | -46.6°C | 0% | 14.1hPa | 2.7V | 18:12:15 | 01:48:38 | 00:00:00 | |
| DK7TD | 2026-09-03 12:18:09 | 48.34092 | 10.18659 | 309° | 13km/h | 29178m | 6.2m/s | -46.6°C | 0% | 14.1hPa | 2.6V | 18:12:15 | 01:48:35 | 00:00:00 | |
| DM0DOS-11 | 2026-09-03 12:18:09 | 48.34088 | 10.18671 | 274° | 9km/h | 29161m | 7m/s | -46.6°C | 2.9% | 14.2hPa | 2.7V | 08:30:00 | 01:48:32 | 00:00:00 | |
| DL1XH-west | 2026-09-03 12:18:01 | 48.34090 | 10.18680 | 281° | 5km/h | 29130m | 5m/s | -46.4°C | 0% | 14.2hPa | 2.7V | 18:12:15 | 01:48:27 | 00:00:00 | |
| DK7TD | 2026-09-03 12:17:58 | 48.34091 | 10.18686 | 210° | 7km/h | 29113m | 6.3m/s | -46.2°C | 0% | 14.3hPa | 2.6V | 18:12:15 | 01:48:24 | 00:00:00 | |
| DJ2DS-15 | 2026-09-03 12:17:58 | 48.34091 | 10.18686 | 210° | 11km/h | 29113m | 6.2m/s | -46.1°C | 2.8% | 14.2hPa | 2.7V | 00:00:00 | 01:48:24 | 00:00:00 | |
| DL1XH1-15 | 2026-09-03 12:17:57 | 48.34095 | 10.18690 | 221° | 11km/h | 29102m | 5.2m/s | -46.1°C | 2.8% | 14.3hPa | 2.7V | 08:30:00 | 01:48:22 | 00:00:00 | |
| DL1XH-west | 2026-09-03 12:17:51 | 48.34102 | 10.18711 | 234° | 9km/h | 29072m | 6.9m/s | -46.3°C | 0% | 14.3hPa | 2.7V | 18:12:15 | 01:48:17 | 00:00:00 | |
| OE5MMP-10 | 2026-09-03 12:17:51 | 48.34101 | 10.18711 | 234° | 11km/h | 29072m | 6.9m/s | -46.3°C | 2.9% | 14.3hPa | 2.7V | 00:00:00 | 01:48:17 | 00:00:00 | |
| DM0DOS-11 | 2026-09-03 12:17:50 | 48.34111 | 10.18716 | 190° | 9km/h | 29043m | 4.8m/s | -46.2°C | 2.8% | 14.4hPa | 2.7V | 08:30:00 | 01:48:12 | 00:00:00 | |
| DL1XH1-15 | 2026-09-03 12:17:49 | 48.34117 | 10.18717 | 176° | 13km/h | 29031m | 6.5m/s | -46.3°C | 2.8% | 14.4hPa | 2.6V | 08:30:00 | 01:48:10 | 00:00:00 | |
| DK7TD | 2026-09-03 12:17:48 | 48.34109 | 10.18715 | 197° | 7km/h | 29048m | 5.5m/s | -46.2°C | 0% | 14.4hPa | 2.7V | 18:12:15 | 01:48:13 | 00:00:00 | |
| OM5KV | 2026-09-03 12:17:48 | 48.34107 | 10.18714 | 193° | 7km/h | 29054m | 6.5m/s | 0°C | 0% | 0hPa | 2.6V | 00:00:00 | 00:00:00 | 00:00:00 | |
| NBG1-10 | 2026-09-03 12:17:46 | 48.34111 | 10.18716 | 191° | 15km/h | 29043m | 4.8m/s | -46.2°C | 2.8% | 14.4hPa | 2.6V | 00:00:00 | 01:48:12 | 00:00:00 | |
| DO3MHA-11 | 2026-09-03 12:17:45 | 48.34114 | 10.18717 | 184° | 16km/h | 29037m | 6.1m/s | -46.2°C | 2.8% | 14.4hPa | 2.6V | 00:00:00 | 01:48:11 | 08:30:00 | |
| DL1NUX | 2026-09-03 12:17:42 | 48.34140 | 10.18737 | 210° | 18km/h | 28992m | 6.3m/s | 0°C | 0% | 0hPa | 2.6V | 00:00:00 | 01:48:03 | 00:00:00 | |
| DL1XH-west | 2026-09-03 12:17:41 | 48.34127 | 10.18718 | 207° | 15km/h | 29014m | 6.4m/s | -46.5°C | 0% | 14.5hPa | 2.7V | 18:12:15 | 01:48:07 | 00:00:00 | |
| SO1NDE-10 | 2026-09-03 12:17:40 | 48.34130 | 10.18722 | 225° | 18km/h | 29008m | 6.5m/s | 0°C | 0% | 0hPa | 2.6V | 00:00:00 | 01:48:06 | 00:00:00 | |
| DJ2DS-15 | 2026-09-03 12:17:38 | 48.34137 | 10.18732 | 225° | 15km/h | 28998m | 4.2m/s | -46.7°C | 2.9% | 14.5hPa | 2.6V | 00:00:00 | 01:48:04 | 00:00:00 | |
| DK7TD | 2026-09-03 12:17:38 | 48.34140 | 10.18737 | 211° | 18km/h | 28992m | 6.3m/s | -46.7°C | 0% | 14.5hPa | 2.6V | 18:12:15 | 01:48:03 | 00:00:00 | |
| DL1XH1-15 | 2026-09-03 12:17:37 | 48.34153 | 10.18736 | 154° | 16km/h | 28974m | 5.7m/s | -46.7°C | 2.9% | 14.6hPa | 2.6V | 08:30:00 | 01:48:00 | 00:00:00 | |
| DL1XH-west | 2026-09-03 12:17:31 | 48.34162 | 10.18728 | 144° | 11km/h | 28957m | 5m/s | -46.6°C | 0% | 14.6hPa | 2.7V | 18:12:15 | 01:47:57 | 00:00:00 | |
| AZAK | 2026-09-03 12:17:31 | 48.34162 | 10.18728 | 145° | 11km/h | 28957m | 5.0m/s | -46.6°C | 0.6% | 14.6hPa | 2.7V | 00:00:00 | 00:00:00 | 00:00:00 | |
| DO3MHA-12 | 2026-09-03 12:17:30 | 48.34164 | 10.18726 | 138° | 15km/h | 28952m | 5.0m/s | -46.6°C | 2.9% | 14.6hPa | 2.7V | 00:00:00 | 01:47:56 | 00:00:00 | |
| OM5KV | 2026-09-03 12:17:29 | 48.34164 | 10.18726 | 139° | 11km/h | 28952m | 5.0m/s | 0°C | 0% | 14.6hPa | 2.7V | 00:00:00 | 00:00:00 | 00:00:00 | |
| DM0DOS-11 | 2026-09-03 12:17:28 | 48.34174 | 10.18715 | 171° | 15km/h | 28928m | 6m/s | -46.7°C | 2.9% | 14.6hPa | 2.7V | 08:30:00 | 01:47:52 | 00:00:00 | |
| DL1XH1-15 | 2026-09-03 12:17:27 | 48.34182 | 10.18717 | 198° | 18km/h | 28916m | 4.8m/s | -46.8°C | 2.9% | 14.7hPa | 2.6V | 08:30:00 | 01:47:50 | 00:00:00 | |
| DK7TD | 2026-09-03 12:17:27 | 48.34174 | 10.18715 | 172° | 15km/h | 28929m | 6m/s | -46.7°C | 0% | 14.6hPa | 2.7V | 18:12:15 | 01:47:52 | 00:00:00 | |
| DL1XH-west | 2026-09-03 12:17:20 | 48.34198 | 10.18714 | 129° | 16km/h | 28895m | 5.4m/s | -47°C | 0% | 14.8hPa | 2.7V | 18:12:15 | 01:47:46 | 00:00:00 | |
| DO3MHA-12 | 2026-09-03 12:17:20 | 48.34198 | 10.18714 | 129° | 18km/h | 28895m | 5.4m/s | -47.0°C | 2.9% | 14.7hPa | 2.7V | 00:00:00 | 01:47:46 | 00:00:00 | |
| DF1GD-15 | 2026-09-03 12:17:19 | 48.34200 | 10.18708 | 117° | 18km/h | 28890m | 5.3m/s | -47.2°C | 0.6% | 14.8hPa | 2.7V | 00:00:00 | 00:00:00 | 00:00:00 | |
| DM0DOS-11 | 2026-09-03 12:17:18 | 48.34206 | 10.18691 | 122° | 16km/h | 28872m | 5.1m/s | -47.1°C | 3% | 14.8hPa | 2.7V | 08:30:00 | 01:47:42 | 00:00:00 | |
| DJ2DS-15 | 2026-09-03 12:17:18 | 48.34202 | 10.18702 | 113° | 16km/h | 28884m | 6.1m/s | -47.2°C | 3.0% | 14.7hPa | 2.6V | 00:00:00 | 01:47:44 | 00:00:00 | |
| DL1XH1-15 | 2026-09-03 12:17:17 | 48.34211 | 10.18681 | 136° | 20km/h | 28862m | 6.7m/s | -47.3°C | 3% | 0hPa | 2.6V | 08:30:00 | 01:47:40 | 00:00:00 | |
| DK7TD | 2026-09-03 12:17:15 | 48.34208 | 10.18686 | 131° | 16km/h | 28867m | 4.9m/s | -47.2°C | 0% | 14.8hPa | 2.6V | 18:12:15 | 01:47:41 | 00:00:00 | |
| DL1XH-west | 2026-09-03 12:17:10 | 48.34232 | 10.18661 | 153° | 11km/h | 28833m | 5.4m/s | -47.4°C | 0% | 14.9hPa | 2.6V | 18:12:15 | 01:47:35 | 00:00:00 | |
| AZAK | 2026-09-03 12:17:10 | 48.34229 | 10.18663 | 157° | 16km/h | 28839m | 6.6m/s | -47.5°C | 0.6% | 14.9hPa | 2.7V | 00:00:00 | 00:00:00 | 00:00:00 | |
| DM0DOS-11 | 2026-09-03 12:17:08 | 48.34235 | 10.18650 | 88° | 16km/h | 28816m | 6.6m/s | -47.5°C | 3% | 14.9hPa | 2.7V | 08:30:00 | 01:47:32 | 00:00:00 | |
| OE5DXL-15 | 2026-09-03 12:17:08 | 48.34234 | 10.18658 | 125° | 9km/h | 28828m | 4.7m/s | -47.4°C | 3.0% | 14.8hPa | 2.6V | 00:00:00 | 00:00:00 | 00:00:00 | |
| DL1XH1-15 | 2026-09-03 12:17:07 | 48.34234 | 10.18634 | 88° | 22km/h | 28805m | 4.5m/s | -47.6°C | 3.2% | 0hPa | 2.6V | 08:30:00 | 01:47:30 | 00:00:00 | |
| DK7TD | 2026-09-03 12:17:04 | 48.34234 | 10.18634 | 88° | 22km/h | 28805m | 4.6m/s | -47.6°C | 0% | 15hPa | 2.6V | 18:12:15 | 01:47:30 | 00:00:00 | |
| DM0DOS-11 | 2026-09-03 12:17:01 | 48.34239 | 10.18603 | 127° | 9km/h | 28760m | 5.1m/s | -47.3°C | 3.1% | 15.1hPa | 2.7V | 08:30:00 | 01:47:22 | 00:00:00 | |
| DL1XH-west | 2026-09-03 12:17:00 | 48.34235 | 10.18611 | 124° | 5km/h | 28778m | 5.2m/s | -47.2°C | 0% | 15hPa | 2.6V | 18:12:15 | 01:47:25 | 00:00:00 | |
| OE5DRO-10 | 2026-09-03 12:16:59 | 48.34235 | 10.18610 | 124° | 7km/h | 28778m | 5.1m/s | -47.1°C | 3.0% | 15.0hPa | 2.6V | 00:00:00 | 00:00:00 | 00:00:00 | |
| DJ2DS-15 | 2026-09-03 12:16:58 | 48.34236 | 10.18609 | 127° | 7km/h | 28773m | 6.6m/s | -47.2°C | 3.1% | 15.0hPa | 2.6V | 00:00:00 | 01:47:24 | 00:00:00 | |
| DL1XH1-15 | 2026-09-03 12:16:57 | 48.34242 | 10.18599 | 146° | 7km/h | 28748m | 6.7m/s | -47.4°C | 3.1% | 0hPa | 2.6V | 08:30:00 | 01:47:20 | 00:00:00 | |
| DK7TD | 2026-09-03 12:16:54 | 48.34242 | 10.18599 | 147° | 7km/h | 28748m | 6.7m/s | -47.4°C | 0% | 15.1hPa | 2.6V | 18:12:15 | 01:47:20 | 00:00:00 | |
| DL1XH-west | 2026-09-03 12:16:49 | 48.34246 | 10.18585 | 83° | 11km/h | 28719m | 4.8m/s | -47.1°C | 0% | 15.2hPa | 2.6V | 18:12:15 | 01:47:15 | 00:00:00 | |
| DM0DOS-11 | 2026-09-03 12:16:49 | 48.34243 | 10.18579 | 341° | 7km/h | 28702m | 5.5m/s | -47.1°C | 2.9% | 15.2hPa | 2.7V | 08:30:00 | 01:47:12 | 00:00:00 | |
| DB0ND-19 | 2026-09-03 12:16:48 | 48.34246 | 10.18581 | 67° | 7km/h | 28714m | 5.3m/s | -47.1°C | 0.6% | 15.2hPa | 2.6V | 00:00:00 | 00:00:00 | 00:00:00 | |
| DK7TD | 2026-09-03 12:16:43 | 48.34240 | 10.18582 | 22° | 2km/h | 28686m | 6.3m/s | -47.2°C | 0% | 15.2hPa | 2.6V | 18:12:15 | 01:47:09 | 00:00:00 | |
| OE9MKV-15 | 2026-09-03 12:16:42 | 48.34240 | 10.18581 | 106° | 11km/h | 28680m | 5.7m/s | -47.2°C | 3.0% | 15.2hPa | 2.6V | 00:00:00 | 01:47:08 | 00:00:00 | |
| DM0DOS-11 | 2026-09-03 12:16:41 | 48.34253 | 10.18571 | 152° | 11km/h | 28644m | 6.7m/s | -47.4°C | 2.9% | 15.3hPa | 2.6V | 08:30:00 | 01:47:02 | 00:00:00 | |
| DL1XH-west | 2026-09-03 12:16:39 | 48.34244 | 10.18574 | 159° | 11km/h | 28662m | 6.7m/s | -47.3°C | 0% | 15.3hPa | 2.7V | 18:12:15 | 01:47:05 | 00:00:00 | |
| DK7TD | 2026-09-03 12:16:32 | 48.34259 | 10.18563 | 149° | 4km/h | 28621m | 6.2m/s | -47.5°C | 0% | 15.4hPa | 2.6V | 18:12:15 | 01:46:58 | 00:00:00 | |
| DL1XH-west | 2026-09-03 12:16:28 | 48.34261 | 10.18558 | 101° | 9km/h | 28598m | 5.3m/s | -47.5°C | 0% | 15.4hPa | 2.7V | 18:12:15 | 01:46:54 | 00:00:00 | |
| DM0DOS-11 | 2026-09-03 12:16:28 | 48.34262 | 10.18551 | 119° | 7km/h | 28588m | 5.8m/s | -47.6°C | 3% | 15.5hPa | 2.6V | 08:30:00 | 01:46:52 | 00:00:00 | |
| DK7TD | 2026-09-03 12:16:22 | 48.34274 | 10.18545 | 153° | 16km/h | 28558m | 6.6m/s | -47.6°C | 0% | 15.5hPa | 2.7V | 18:12:15 | 01:46:47 | 00:00:00 | |
| DL1XH-west | 2026-09-03 12:16:18 | 48.34284 | 10.18536 | 148° | 13km/h | 28541m | 6.7m/s | -47.6°C | 0% | 15.6hPa | 2.6V | 18:12:15 | 01:46:44 | 00:00:00 | |
| DJ2DS-15 | 2026-09-03 12:16:18 | 48.34284 | 10.18536 | 149° | 11km/h | 28541m | 6.6m/s | -47.6°C | 3.1% | 15.6hPa | 2.7V | 00:00:00 | 01:46:44 | 00:00:00 | |
| DL1XH1-15 | 2026-09-03 12:16:17 | 48.34289 | 10.18531 | 135° | 5km/h | 28523m | 6.2m/s | -47.5°C | 0% | 0hPa | 2.7V | 00:00:00 | 01:46:41 | 00:00:00 | |
| DK7TD | 2026-09-03 12:16:11 | 48.34294 | 10.18522 | 149° | 5km/h | 28500m | 6.6m/s | -47.7°C | 0% | 15.7hPa | 2.6V | 18:12:15 | 01:46:37 | 00:00:00 | |
| DO9HM | 2026-09-03 12:16:11 | 48.34294 | 10.18522 | 150° | 5km/h | 28500m | 6.6m/s | -47.7°C | 0.7% | 15.7hPa | 2.6V | 00:00:00 | 00:00:00 | 00:00:00 | |
| AZAK | 2026-09-03 12:16:10 | 48.34295 | 10.18522 | 187° | 7km/h | 28494m | 5.5m/s | -47.7°C | 0.6% | 15.7hPa | 2.6V | 00:00:00 | 00:00:00 | 00:00:00 | |
| SONCRA | 2026-09-03 12:16:09 | 48.34300 | 10.18522 | 169° | 11km/h | 28484m | 5.5m/s | -47.7°C | 0.6% | 15.7hPa | 2.6V | 00:00:00 | 00:00:00 | 00:00:00 | |
| DM0DOS-11 | 2026-09-03 12:16:08 | 48.34306 | 10.18517 | 136° | 18km/h | 28472m | 5.9m/s | -47.6°C | 3% | 15.7hPa | 2.6V | 08:30:00 | 01:46:32 | 00:00:00 | |
| DL1XH-west | 2026-09-03 12:16:08 | 48.34300 | 10.18522 | 169° | 11km/h | 28484m | 5.5m/s | -47.7°C | 0% | 15.7hPa | 2.7V | 18:12:15 | 01:46:34 | 00:00:00 | |
| OE5WHR-10 | 2026-09-03 12:16:07 | 48.34302 | 10.18520 | 151° | 16km/h | 28478m | 6.6m/s | -47.6°C | 3.1% | 15.7hPa | 2.6V | 00:00:00 | 00:00:00 | 08:30:00 | |
| OE5DXL-15 | 2026-09-03 12:16:06 | 48.34305 | 10.18517 | 137° | 16km/h | 28472m | 5.9m/s | -47.6°C | 3.0% | 15.7hPa | 2.6V | 00:00:00 | 00:00:00 | 00:00:00 | |
| DK5PH-5 | 2026-09-03 12:16:05 | 48.34308 | 10.18512 | 128° | 16km/h | 28466m | 5.4m/s | -47.6°C | 3.1% | 15.7hPa | 2.6V | 00:00:00 | 01:46:31 | 00:00:00 | |
| PETON7-10 | 2026-09-03 12:16:02 | 48.34315 | 10.18496 | 118° | 16km/h | 28449m | 5.8m/s | 0°C | 0% | 0hPa | 2.6V | 00:00:00 | 00:00:00 | 00:00:00 | |
| DM0DOS-11 | 2026-09-03 12:16:01 | 48.34325 | 10.18471 | 144° | 11km/h | 28413m | 6.5m/s | -47.3°C | 3.1% | 15.9hPa | 2.6V | 08:30:00 | 01:46:22 | 00:00:00 | |
| DK7TD | 2026-09-03 12:16:00 | 48.34318 | 10.18488 | 114° | 13km/h | 28437m | 6.7m/s | -47.6°C | 0% | 15.8hPa | 2.7V | 18:12:15 | 01:46:26 | 00:00:00 | |
| DF7PN | 2026-09-03 12:15:59 | 48.34319 | 10.18483 | 116° | 15km/h | 28431m | 6.1m/s | -47.5°C | 0.6% | 15.8hPa | 2.7V | 00:00:00 | 00:00:00 | 00:00:00 | |
| DJ2DS-15 | 2026-09-03 12:15:58 | 48.34321 | 10.18478 | 124° | 16km/h | 28425m | 5.1m/s | -47.4°C | 3.1% | 15.8hPa | 2.7V | 00:00:00 | 01:46:24 | 00:00:00 | |
| DL1XH1-15 | 2026-09-03 12:15:57 | 48.34333 | 10.18464 | 142° | 16km/h | 28396m | 6.8m/s | 0°C | 0% | 0hPa | 2.7V | 00:00:00 | 01:46:19 | 00:00:00 | |
| DL1XH-west | 2026-09-03 12:15:57 | 48.34323 | 10.18474 | 133° | 13km/h | 28419m | 6m/s | -47.4°C | 0% | 15.9hPa | 2.6V | 18:12:15 | 01:46:23 | 00:00:00 | |
| DO3MHA-11 | 2026-09-03 12:15:55 | 48.34327 | 10.18469 | 154° | 20km/h | 28407m | 5.2m/s | -47.2°C | 3.0% | 15.8hPa | 2.6V | 00:00:00 | 01:46:21 | 00:00:00 | |
| DF1GD-15 | 2026-09-03 12:15:54 | 48.34327 | 10.18469 | 154° | 11km/h | 28407m | 5.2m/s | -47.3°C | 0.7% | 15.9hPa | 2.6V | 00:00:00 | 00:00:00 | 00:00:00 | |
| DJ8HS-15 | 2026-09-03 12:15:52 | 48.34337 | 10.18459 | 136° | 20km/h | 28390m | 6.2m/s | -47.2°C | 3.0% | 15.9hPa | 2.6V | 00:00:00 | 01:46:18 | 00:00:00 | |
| DO9HM | 2026-09-03 12:15:51 | 48.34341 | 10.18453 | 132° | 24km/h | 28384m | 5.4m/s | -47.3°C | 0.7% | 16.0hPa | 2.6V | 00:00:00 | 00:00:00 | 00:00:00 | |
| DM0DOS-11 | 2026-09-03 12:15:50 | 48.34356 | 10.18417 | 110° | 22km/h | 28355m | 6.8m/s | -47.4°C | 3.1% | 16hPa | 2.6V | 08:30:00 | 01:46:12 | 00:00:00 | |
| DK7TD | 2026-09-03 12:15:49 | 48.34348 | 10.18439 | 126° | 22km/h | 28372m | 6.3m/s | -47.4°C | 0% | 16hPa | 2.7V | 18:12:15 | 01:46:15 | 00:00:00 | |
| DL1XH-west | 2026-09-03 12:15:47 | 48.34353 | 10.18425 | 114° | 20km/h | 28361m | 4.9m/s | 0°C | 0% | 16hPa | 2.6V | 18:12:15 | 01:46:13 | 00:00:00 | |
| DB0ND-19 | 2026-09-03 12:15:46 | 48.34355 | 10.18417 | 110° | 22km/h | 28356m | 6.8m/s | -47.4°C | 0.6% | 16.0hPa | 2.7V | 00:00:00 | 00:00:00 | 00:00:00 | |
| DK7TD | 2026-09-03 12:15:38 | 48.34362 | 10.18367 | 106° | 18km/h | 28309m | 6.5m/s | -46.9°C | 0% | 16.2hPa | 2.7V | 18:12:15 | 01:46:04 | 00:00:00 | |
| DM0DOS-11 | 2026-09-03 12:15:38 | 48.34366 | 10.18351 | 111° | 26km/h | 28296m | 5.4m/s | -47°C | 3% | 16.2hPa | 2.7V | 08:30:00 | 01:46:02 | 00:00:00 | |
| SONCRA | 2026-09-03 12:15:38 | 48.34364 | 10.18360 | 109° | 24km/h | 28303m | 6.0m/s | -46.9°C | 0.6% | 16.2hPa | 2.6V | 00:00:00 | 00:00:00 | 00:00:00 | |
| DL1XH1-15 | 2026-09-03 12:15:37 | 48.34373 | 10.18327 | 115° | 20km/h | 28279m | 4.9m/s | 0°C | 0% | 0hPa | 2.6V | 00:00:00 | 01:45:59 | 00:00:00 | |
| DL1XH-west | 2026-09-03 12:15:36 | 48.34366 | 10.18351 | 112° | 26km/h | 28297m | 5.4m/s | 0°C | 0% | 16.2hPa | 2.7V | 18:12:15 | 01:46:02 | 00:00:00 | |
| OE5DXL-15 | 2026-09-03 12:15:36 | 48.34366 | 10.18351 | 112° | 24km/h | 28297m | 5.4m/s | -46.9°C | 3.0% | 16.1hPa | 2.7V | 00:00:00 | 00:00:00 | 00:00:00 | |
| DO3MHA-11 | 2026-09-03 12:15:35 | 48.34368 | 10.18342 | 114° | 20km/h | 28291m | 6.3m/s | -47.0°C | 3.1% | 16.1hPa | 2.7V | 00:00:00 | 01:46:01 | 00:00:00 | |
| NBG1-10 | 2026-09-03 12:15:34 | 48.34371 | 10.18334 | 116° | 26km/h | 28285m | 6.2m/s | -47.0°C | 3.1% | 16.2hPa | 2.7V | 00:00:00 | 01:46:00 | 00:00:00 | |
| DJ8HS-15 | 2026-09-03 12:15:32 | 48.34375 | 10.18320 | 114° | 26km/h | 28274m | 5.0m/s | -46.9°C | 3.0% | 16.2hPa | 2.7V | 00:00:00 | 01:45:58 | 00:00:00 | |
| DM0DOS-11 | 2026-09-03 12:15:31 | 48.34388 | 10.18270 | 106° | 18km/h | 28233m | 4.6m/s | -47°C | 2.9% | 16.3hPa | 2.7V | 08:30:00 | 01:45:51 | 00:00:00 | |
| DK7TD | 2026-09-03 12:15:27 | 48.34385 | 10.18282 | 111° | 18km/h | 28244m | 6.5m/s | -46.9°C | 0% | 16.3hPa | 2.6V | 18:12:15 | 01:45:53 | 00:00:00 | |
| DL1XH-west | 2026-09-03 12:15:25 | 48.34388 | 10.18270 | 107° | 18km/h | 28233m | 4.6m/s | 0°C | 0% | 16.3hPa | 2.7V | 18:12:15 | 01:45:51 | 00:00:00 | |
| DK7TD | 2026-09-03 12:15:17 | 48.34393 | 10.18173 | 93° | 27km/h | 28181m | 6.3m/s | -46.9°C | 0% | 16.5hPa | 2.6V | 18:12:15 | 01:45:42 | 00:00:00 | |
| DL1XH-west | 2026-09-03 12:15:15 | 48.34394 | 10.18152 | 94° | 27km/h | 28169m | 4.9m/s | 0°C | 0% | 16.5hPa | 2.7V | 18:12:15 | 01:45:40 | 00:00:00 | |
| DO3MHA-11 | 2026-09-03 12:15:15 | 48.34393 | 10.18162 | 95° | 26km/h | 28175m | 6.0m/s | -46.8°C | 3.0% | 16.4hPa | 2.6V | 00:00:00 | 01:45:41 | 00:00:00 | |
| DF1GD-15 | 2026-09-03 12:15:13 | 48.34394 | 10.18152 | 95° | 27km/h | 28170m | 4.9m/s | -47.0°C | 0.7% | 16.5hPa | 2.7V | 00:00:00 | 00:00:00 | 00:00:00 | |
| DJ8HS-15 | 2026-09-03 12:15:12 | 48.34394 | 10.18134 | 88° | 26km/h | 28159m | 7.0m/s | -47.1°C | 3.0% | 16.5hPa | 2.7V | 00:00:00 | 01:45:38 | 00:00:00 | |
| OE5MMP-10 | 2026-09-03 12:15:11 | 48.34393 | 10.18127 | 81° | 26km/h | 28152m | 5.9m/s | -47.1°C | 3.1% | 16.5hPa | 2.6V | 00:00:00 | 01:45:37 | 08:30:00 | |
| DO3MHA-12 | 2026-09-03 12:15:10 | 48.34393 | 10.18119 | 80° | 27km/h | 28147m | 4.9m/s | -47.0°C | 3.0% | 16.5hPa | 2.6V | 00:00:00 | 01:45:36 | 08:30:00 | |
| DM0DOS-11 | 2026-09-03 12:15:09 | 48.34392 | 10.18079 | 95° | 31km/h | 28122m | 5.9m/s | -46.8°C | 3% | 16.6hPa | 2.6V | 08:30:00 | 01:45:32 | 00:00:00 | |
| DK7TD | 2026-09-03 12:15:06 | 48.34392 | 10.18079 | 96° | 31km/h | 28122m | 5.9m/s | -46.8°C | 0% | 16.6hPa | 2.6V | 18:12:15 | 01:45:32 | 00:00:00 | |
| DL1XH-west | 2026-09-03 12:15:04 | 48.34405 | 10.18019 | 109° | 27km/h | 28086m | 5m/s | 0°C | 0% | 16.7hPa | 2.6V | 18:12:15 | 01:45:26 | 00:00:00 | |
| DK7TD | 2026-09-03 12:14:55 | 48.34401 | 10.17979 | 66° | 26km/h | 28056m | 6.8m/s | -46.6°C | 0% | 16.8hPa | 2.6V | 18:12:15 | 01:45:21 | 00:00:00 | |
| DL1XH-west | 2026-09-03 12:14:51 | 48.34396 | 10.17938 | 94° | 26km/h | 28034m | 6.6m/s | 0°C | 0% | 16.8hPa | 2.6V | 18:12:15 | 01:45:17 | 00:00:00 | |
| DO3MHA-12 | 2026-09-03 12:14:50 | 48.34397 | 10.17929 | 102° | 26km/h | 28028m | 6.0m/s | -46.6°C | 2.9% | 16.8hPa | 2.6V | 00:00:00 | 01:45:16 | 00:00:00 | |
| DM0DOS-11 | 2026-09-03 12:14:47 | 48.34407 | 10.17897 | 112° | 27km/h | 28004m | 5.8m/s | -46.7°C | 2.8% | 16.9hPa | 2.6V | 08:30:00 | 01:45:12 | 00:00:00 | |
| DK7TD | 2026-09-03 12:14:44 | 48.34410 | 10.17877 | 95° | 26km/h | 27993m | 6.5m/s | -46.8°C | 0% | 16.9hPa | 2.7V | 18:12:15 | 01:45:10 | 00:00:00 | |
| DB0ND-19 | 2026-09-03 12:14:44 | 48.34410 | 10.17867 | 80° | 24km/h | 27986m | 6.5m/s | -46.8°C | 0.6% | 16.9hPa | 2.6V | 00:00:00 | 00:00:00 | 00:00:00 | |
| DM0DOS-11 | 2026-09-03 12:14:41 | 48.34400 | 10.17794 | 93° | 18km/h | 27938m | 6.1m/s | -46.7°C | 2.8% | 17.1hPa | 2.6V | 08:30:00 | 01:45:01 | 00:00:00 | |
| DL1XH-west | 2026-09-03 12:14:40 | 48.34403 | 10.17840 | 72° | 27km/h | 27968m | 6.7m/s | 0°C | 0% | 0hPa | 2.6V | 18:12:15 | 01:45:06 | 00:00:00 | |
| DK7TD | 2026-09-03 12:14:33 | 48.34401 | 10.17781 | 105° | 18km/h | 27927m | 5.1m/s | -46.7°C | 0% | 17.1hPa | 2.7V | 18:12:15 | 01:44:59 | 00:00:00 | |
| DJ8HS-15 | 2026-09-03 12:14:32 | 48.34403 | 10.17773 | 107° | 29km/h | 27922m | 6.5m/s | -46.7°C | 2.9% | 17.1hPa | 2.6V | 00:00:00 | 01:44:58 | 00:00:00 | |
| OE5MMP-10 | 2026-09-03 12:14:31 | 48.34404 | 10.17764 | 101° | 35km/h | 27916m | 5.4m/s | -46.7°C | 2.9% | 17.1hPa | 2.6V | 00:00:00 | 01:44:57 | 00:00:00 | |
| DM0DOS-11 | 2026-09-03 12:14:30 | 48.34386 | 10.17698 | 46° | 38km/h | 27880m | 5.7m/s | -46.7°C | 2.8% | 17.2hPa | 2.6V | 08:30:00 | 01:44:51 | 00:00:00 | |
| DL1XH-west | 2026-09-03 12:14:30 | 48.34404 | 10.17741 | 80° | 31km/h | 27906m | 5.2m/s | 0°C | 0% | 0hPa | 2.7V | 18:12:15 | 01:44:55 | 00:00:00 | |
| DK7TD | 2026-09-03 12:14:22 | 48.34370 | 10.17663 | 70° | 35km/h | 27863m | 4.9m/s | -46.9°C | 0% | 17.3hPa | 2.7V | 18:12:15 | 01:44:48 | 00:00:00 | |
| OE5MMP-10 | 2026-09-03 12:14:21 | 48.34368 | 10.17651 | 78° | 26km/h | 27858m | 5.1m/s | -46.9°C | 2.9% | 17.3hPa | 2.6V | 00:00:00 | 01:44:47 | 00:00:00 | |
| DM0DOS-11 | 2026-09-03 12:14:20 | 48.34362 | 10.17599 | 67° | 24km/h | 27821m | 5m/s | -46.8°C | 2.9% | 17.4hPa | 2.6V | 08:30:00 | 01:44:41 | 00:00:00 | |
| DK7TD | 2026-09-03 12:14:12 | 48.34348 | 10.17576 | 31° | 31km/h | 27805m | 7.4m/s | -46.6°C | 0% | 17.4hPa | 2.7V | 18:12:15 | 01:44:38 | 00:00:00 | |
| DJ8HS-15 | 2026-09-03 12:14:12 | 48.34348 | 10.17576 | 32° | 26km/h | 27805m | 7.3m/s | -46.5°C | 2.8% | 17.4hPa | 2.7V | 00:00:00 | 01:44:38 | 08:30:00 | |
| OE5MMP-10 | 2026-09-03 12:14:11 | 48.34341 | 10.17570 | 23° | 27km/h | 27798m | 6.1m/s | -46.5°C | 2.8% | 17.4hPa | 2.7V | 00:00:00 | 01:44:37 | 00:00:00 | |
| DO3MHA-12 | 2026-09-03 12:14:10 | 48.34333 | 10.17565 | 24° | 26km/h | 27793m | 4.5m/s | -46.6°C | 2.8% | 17.4hPa | 2.6V | 00:00:00 | 01:44:36 | 00:00:00 | |
| PG1ADW-2 | 2026-09-03 12:14:09 | 48.34326 | 10.17560 | 31° | 24km/h | 27788m | 5.0m/s | -46.7°C | 2.8% | 17.4hPa | 2.6V | 00:00:00 | 01:44:35 | 00:00:00 | |
| OE5DRO-10 | 2026-09-03 12:14:08 | 48.34319 | 10.17553 | 42° | 24km/h | 27782m | 6.6m/s | -46.8°C | 2.8% | 17.5hPa | 2.6V | 00:00:00 | 00:00:00 | 00:00:00 | |
| DO9HM | 2026-09-03 12:14:07 | 48.34314 | 10.17544 | 58° | 29km/h | 27776m | 5.9m/s | -46.9°C | 0.6% | 17.5hPa | 2.6V | 00:00:00 | 00:00:00 | 00:00:00 | |
| DM0DOS-11 | 2026-09-03 12:14:05 | 48.34309 | 10.17524 | 79° | 26km/h | 27764m | 6m/s | -46.9°C | 2.9% | 17.6hPa | 2.6V | 08:30:00 | 01:44:31 | 00:00:00 | |
| DK7TD | 2026-09-03 12:14:01 | 48.34305 | 10.17495 | 61° | 18km/h | 27741m | 6.3m/s | -46.9°C | 0% | 17.6hPa | 2.7V | 18:12:15 | 01:44:27 | 00:00:00 | |
| OE5MMP-10 | 2026-09-03 12:14:01 | 48.34305 | 10.17495 | 61° | 24km/h | 27741m | 6.2m/s | -46.9°C | 2.9% | 17.6hPa | 2.6V | 00:00:00 | 01:44:27 | 00:00:00 | |
| DM0DOS-11 | 2026-09-03 12:14:00 | 48.34273 | 10.17470 | 16° | 26km/h | 27704m | 4.4m/s | -46.8°C | 2.8% | 17.7hPa | 2.6V | 08:30:00 | 01:44:21 | 00:00:00 | |
| DL1XH-west | 2026-09-03 12:13:54 | 48.34267 | 10.17466 | 25° | 26km/h | 27699m | 6.1m/s | 0°C | 0% | 0hPa | 2.6V | 18:12:15 | 01:44:20 | 00:00:00 | |
| DK7TD | 2026-09-03 12:13:51 | 48.34254 | 10.17448 | 59° | 20km/h | 27681m | 5.3m/s | -47°C | 0% | 17.8hPa | 2.6V | 18:12:15 | 01:44:17 | 00:00:00 | |
| DL9SK-14 | 2026-09-03 12:13:44 | 48.34244 | 10.17417 | 44° | 18km/h | 27640m | 5.5m/s | -47.0°C | 0.6% | 17.9hPa | 2.6V | 00:00:00 | 00:00:00 | 00:00:00 | |
| DK7TD | 2026-09-03 12:13:40 | 48.34222 | 10.17404 | 14° | 29km/h | 27615m | 5m/s | -47.2°C | 0% | 17.9hPa | 2.6V | 18:12:15 | 01:44:06 | 00:00:00 | |
| DO3MHA-12 | 2026-09-03 12:13:40 | 48.34222 | 10.17404 | 14° | 16km/h | 27615m | 4.9m/s | -47.1°C | 2.9% | 17.9hPa | 2.6V | 00:00:00 | 01:44:06 | 08:30:00 | |
| DM7RM-13 | 2026-09-03 12:13:37 | 48.34205 | 10.17392 | 41° | 20km/h | 27598m | 5.3m/s | -46.8°C | 0.6% | 18.0hPa | 2.7V | 00:00:00 | 00:00:00 | 00:00:00 | |
| DM0DOS-11 | 2026-09-03 12:13:35 | 48.34200 | 10.17384 | 59° | 9km/h | 27585m | 6.7m/s | -46.9°C | 2.9% | 18hPa | 2.7V | 08:30:00 | 01:44:01 | 00:00:00 | |
| DO3MHA-11 | 2026-09-03 12:13:35 | 48.34200 | 10.17384 | 60° | 15km/h | 27585m | 6.6m/s | -46.9°C | 2.9% | 18.0hPa | 2.6V | 00:00:00 | 01:44:01 | 00:00:00 | |
| DF3TZ-5 | 2026-09-03 12:13:34 | 48.34199 | 10.17381 | 85° | 5km/h | 27579m | 5.4m/s | -46.9°C | -1.0% | 18.1hPa | 2.6V | 00:00:00 | 00:00:00 | 00:00:00 | |
| SONCRA | 2026-09-03 12:13:33 | 48.34199 | 10.17378 | 102° | 5km/h | 27574m | 5.2m/s | -47.0°C | 0.6% | 18.1hPa | 2.6V | 00:00:00 | 00:00:00 | 00:00:00 | |
| DJ8HS-15 | 2026-09-03 12:13:32 | 48.34199 | 10.17375 | 93° | 16km/h | 27569m | 5.8m/s | -46.9°C | 2.9% | 18.1hPa | 2.6V | 00:00:00 | 01:43:58 | 00:00:00 | |
| OE5MMP-10 | 2026-09-03 12:13:31 | 48.34199 | 10.17371 | 68° | 20km/h | 27563m | 5.0m/s | -46.9°C | 2.9% | 18.0hPa | 2.6V | 00:00:00 | 01:43:57 | 00:00:00 | |
| DM0DOS-11 | 2026-09-03 12:13:30 | 48.34170 | 10.17362 | 358° | 22km/h | 27529m | 5.4m/s | -47.2°C | 3% | 18.2hPa | 2.6V | 08:30:00 | 01:43:51 | 00:00:00 | |
| DK7TD | 2026-09-03 12:13:29 | 48.34193 | 10.17364 | 23° | 20km/h | 27552m | 5.9m/s | -47.1°C | 0% | 18.1hPa | 2.6V | 18:12:15 | 01:43:55 | 00:00:00 | |
| DK7TD | 2026-09-03 12:13:18 | 48.34149 | 10.17339 | 44° | 7km/h | 27489m | 5.3m/s | -47°C | 0% | 18.3hPa | 2.6V | 18:12:15 | 01:43:44 | 00:00:00 | |
| DK7TD | 2026-09-03 12:13:08 | 48.34111 | 10.17326 | 14° | 9km/h | 27424m | 5.4m/s | -47.2°C | 0% | 18.5hPa | 2.6V | 18:12:15 | 01:43:33 | 00:00:00 | |
| DK7TD | 2026-09-03 12:12:57 | 48.34081 | 10.17323 | 359° | 13km/h | 27365m | 5.7m/s | -47°C | 0% | 18.7hPa | 2.6V | 18:12:15 | 01:43:23 | 00:00:00 | |
| DM0DOS-11 | 2026-09-03 12:12:57 | 48.34075 | 10.17320 | 98° | 5km/h | 27336m | 5.1m/s | -47°C | 2.9% | 18.8hPa | 2.6V | 08:30:00 | 01:43:18 | 00:00:00 | |
| DK7TD | 2026-09-03 12:12:46 | 48.34078 | 10.17314 | 65° | 7km/h | 27301m | 5.6m/s | -47°C | 0% | 18.9hPa | 2.6V | 18:12:15 | 01:43:12 | 00:00:00 | |
| DB0UT-7 | 2026-09-03 12:12:46 | 48.34078 | 10.17314 | 65° | 7km/h | 27302m | 5.6m/s | -47.0°C | 3.0% | 18.8hPa | 2.6V | 00:00:00 | 00:00:00 | 08:30:00 | |
| DO3MHA-11 | 2026-09-03 12:12:45 | 48.34077 | 10.17311 | 54° | 4km/h | 27296m | 4.9m/s | -46.9°C | 3.0% | 18.8hPa | 2.7V | 00:00:00 | 01:43:11 | 00:00:00 | |
| DO9HM | 2026-09-03 12:12:44 | 48.34076 | 10.17309 | 42° | 5km/h | 27291m | 6.1m/s | -46.8°C | 0.7% | 18.9hPa | 2.6V | 00:00:00 | 00:00:00 | 00:00:00 | |
| AZAK | 2026-09-03 12:12:43 | 48.34076 | 10.17309 | 42° | 5km/h | 27291m | 6.1m/s | -46.8°C | 0.6% | 18.9hPa | 2.6V | 00:00:00 | 00:00:00 | 00:00:00 | |
| DM0DOS-11 | 2026-09-03 12:12:42 | 48.34074 | 10.17309 | 313° | 2km/h | 27278m | 5.3m/s | -46.7°C | 2.9% | 18.9hPa | 2.6V | 08:30:00 | 01:43:08 | 00:00:00 | |
| OE5MMP-10 | 2026-09-03 12:12:41 | 48.34074 | 10.17309 | 229° | 7km/h | 27274m | 5.0m/s | -46.7°C | 2.9% | 18.9hPa | 2.6V | 00:00:00 | 01:43:07 | 00:00:00 | |
| DO3MHA-12 | 2026-09-03 12:12:40 | 48.34074 | 10.17309 | 146° | 7km/h | 27268m | 6.9m/s | -46.7°C | 2.9% | 18.9hPa | 2.6V | 00:00:00 | 01:43:06 | 00:00:00 | |
| DM0DOS-11 | 2026-09-03 12:12:37 | 48.34067 | 10.17298 | 32° | 13km/h | 27221m | 5.9m/s | -46.8°C | 2.9% | 19.1hPa | 2.6V | 08:30:00 | 01:42:58 | 00:00:00 | |
| DK7TD | 2026-09-03 12:12:36 | 48.34074 | 10.17302 | 8° | 7km/h | 27238m | 4.9m/s | -46.7°C | 0% | 19hPa | 2.7V | 18:12:15 | 01:43:01 | 00:00:00 | |
| DO3MHA-11 | 2026-09-03 12:12:35 | 48.34074 | 10.17302 | 8° | 9km/h | 27238m | 4.9m/s | -46.7°C | 2.9% | 19.0hPa | 2.6V | 00:00:00 | 01:43:01 | 00:00:00 | |
| DM7RM-13 | 2026-09-03 12:12:34 | 48.34074 | 10.17302 | 9° | 7km/h | 27238m | 4.9m/s | -46.7°C | 0.6% | 19.0hPa | 2.6V | 00:00:00 | 00:00:00 | 00:00:00 | |
| OE5DRO-10 | 2026-09-03 12:12:33 | 48.34069 | 10.17300 | 24° | 11km/h | 27227m | 6.2m/s | -46.8°C | 2.9% | 19.0hPa | 2.6V | 00:00:00 | 00:00:00 | 00:00:00 | |
| DJ8HS-15 | 2026-09-03 12:12:32 | 48.34067 | 10.17298 | 33° | 11km/h | 27221m | 5.9m/s | -46.7°C | 2.9% | 19.0hPa | 2.6V | 00:00:00 | 01:42:58 | 00:00:00 | |
| OE5MMP-10 | 2026-09-03 12:12:31 | 48.34064 | 10.17295 | 31° | 9km/h | 27216m | 4.8m/s | -46.6°C | 2.9% | 19.1hPa | 2.6V | 00:00:00 | 01:42:57 | 00:00:00 | |
| DO3MHA-12 | 2026-09-03 12:12:30 | 48.34061 | 10.17293 | 20° | 7km/h | 27211m | 5.0m/s | -46.6°C | 2.9% | 19.1hPa | 2.6V | 00:00:00 | 01:42:56 | 00:00:00 | |
| PG1ADW-2 | 2026-09-03 12:12:29 | 48.34058 | 10.17292 | 4° | 9km/h | 27205m | 6.8m/s | -46.6°C | 2.9% | 19.1hPa | 2.6V | 00:00:00 | 00:00:00 | 00:00:00 | |
| DF1GD-15 | 2026-09-03 12:12:28 | 48.34059 | 10.17292 | 4° | 11km/h | 27205m | 6.8m/s | -46.7°C | 0.7% | 19.1hPa | 2.6V | 00:00:00 | 00:00:00 | 00:00:00 | |
| DM0DOS-11 | 2026-09-03 12:12:27 | 48.34052 | 10.17287 | 84° | 7km/h | 27165m | 6.1m/s | -46.7°C | 2.9% | 19.2hPa | 2.6V | 08:30:00 | 01:42:48 | 00:00:00 | |
| DK7TD | 2026-09-03 12:12:25 | 48.34052 | 10.17293 | 100° | 7km/h | 27175m | 5.4m/s | -46.7°C | 0% | 19.2hPa | 2.7V | 18:12:15 | 01:42:50 | 00:00:00 | |
| DK7TD | 2026-09-03 12:12:14 | 48.34027 | 10.17270 | 349° | 11km/h | 27113m | 4.6m/s | -46.9°C | 0% | 19.4hPa | 2.7V | 18:12:15 | 01:42:39 | 00:00:00 | |
| DM7RM-13 | 2026-09-03 12:12:14 | 48.34030 | 10.17270 | 355° | 13km/h | 27119m | 5.7m/s | -46.9°C | 0.6% | 19.4hPa | 2.7V | 00:00:00 | 00:00:00 | 00:00:00 | |
| DM0DOS-11 | 2026-09-03 12:12:12 | 48.34025 | 10.17271 | 0° | 7km/h | 27108m | 6m/s | -46.9°C | 2.9% | 19.4hPa | 2.7V | 08:30:00 | 01:42:38 | 00:00:00 | |
| DL9SK-14 | 2026-09-03 12:12:12 | 48.34023 | 10.17270 | 45° | 5km/h | 27102m | 6.0m/s | -46.9°C | 0.6% | 19.4hPa | 2.6V | 00:00:00 | 00:00:00 | 00:00:00 | |
| OE5MMP-10 | 2026-09-03 12:12:11 | 48.34023 | 10.17270 | 46° | 15km/h | 27102m | 6.0m/s | -46.8°C | 2.9% | 19.4hPa | 2.6V | 00:00:00 | 01:42:37 | 08:30:00 | |
| DO3MHA-12 | 2026-09-03 12:12:10 | 48.34023 | 10.17268 | 71° | 16km/h | 27096m | 5.1m/s | -46.9°C | 2.9% | 19.4hPa | 2.6V | 00:00:00 | 01:42:36 | 08:30:00 | |
| PG1ADW-2 | 2026-09-03 12:12:09 | 48.34022 | 10.17264 | 70° | 20km/h | 27091m | 5.3m/s | -46.9°C | 2.9% | 19.4hPa | 2.7V | 00:00:00 | 00:00:00 | 00:00:00 | |
| DF1GD-15 | 2026-09-03 12:12:08 | 48.34022 | 10.17264 | 70° | 9km/h | 27091m | 5.3m/s | -46.9°C | 0.7% | 19.5hPa | 2.7V | 00:00:00 | 00:00:00 | 00:00:00 | |
| DM0DOS-11 | 2026-09-03 12:12:07 | 48.34000 | 10.17239 | 27° | 22km/h | 27052m | 5.1m/s | -46.8°C | 2.9% | 19.6hPa | 2.7V | 08:30:00 | 01:42:28 | 00:00:00 | |
| DK7TD | 2026-09-03 12:12:03 | 48.34004 | 10.17243 | 34° | 22km/h | 27057m | 5.3m/s | -46.9°C | 0% | 19.6hPa | 2.7V | 18:12:15 | 01:42:29 | 00:00:00 | |
| AZAK | 2026-09-03 12:12:03 | 48.34004 | 10.17243 | 35° | 22km/h | 27057m | 5.3m/s | -46.9°C | 0.6% | 19.6hPa | 2.7V | 00:00:00 | 00:00:00 | 00:00:00 | |
| OE3JTB-15 | 2026-09-03 12:12:02 | 48.33999 | 10.17239 | 28° | 24km/h | 27052m | 5.1m/s | -46.8°C | 2.9% | 19.5hPa | 2.7V | 00:00:00 | 01:42:28 | 00:00:00 | |
| SONCRA | 2026-09-03 12:12:00 | 48.33988 | 10.17234 | 7° | 26km/h | 27040m | 6.6m/s | -46.9°C | 0.6% | 19.6hPa | 2.7V | 00:00:00 | 00:00:00 | 00:00:00 | |
| SONDE2-11 | 2026-09-03 12:11:59 | 48.33981 | 10.17233 | 0° | 27km/h | 27034m | 5.1m/s | -47.0°C | 0.6% | 19.7hPa | 2.7V | 00:00:00 | 00:00:00 | 00:00:00 | |
| DM0DOS-11 | 2026-09-03 12:11:57 | 48.33947 | 10.17213 | 31° | 20km/h | 26997m | 5.5m/s | -46.9°C | 2.9% | 19.8hPa | 2.7V | 08:30:00 | 01:42:18 | 00:00:00 | |
| DK7TD | 2026-09-03 12:11:52 | 48.33947 | 10.17213 | 32° | 20km/h | 26997m | 5.5m/s | -46.9°C | 0% | 19.8hPa | 2.7V | 18:12:15 | 01:42:18 | 00:00:00 | |
| DJ8HS-15 | 2026-09-03 12:11:52 | 48.33947 | 10.17213 | 32° | 22km/h | 26997m | 5.4m/s | -46.8°C | 2.9% | 19.7hPa | 2.6V | 00:00:00 | 01:42:18 | 00:00:00 | |
| OE5MMP-10 | 2026-09-03 12:11:51 | 48.33943 | 10.17209 | 27° | 22km/h | 26992m | 5.2m/s | -46.9°C | 2.9% | 19.7hPa | 2.6V | 00:00:00 | 01:42:17 | 00:00:00 | |
| DO3MHA-12 | 2026-09-03 12:11:50 | 48.33938 | 10.17206 | 26° | 22km/h | 26987m | 4.8m/s | -47.0°C | 2.9% | 19.7hPa | 2.6V | 00:00:00 | 01:42:16 | 00:00:00 | |
| PG1ADW-2 | 2026-09-03 12:11:49 | 48.33934 | 10.17202 | 30° | 22km/h | 26981m | 6.6m/s | -46.9°C | 2.9% | 19.7hPa | 2.6V | 00:00:00 | 00:00:00 | 08:30:00 | |
| DM0DOS-11 | 2026-09-03 12:11:47 | 48.33900 | 10.17179 | 26° | 26km/h | 26943m | 5.9m/s | -46.9°C | 2.9% | 19.9hPa | 2.7V | 08:30:00 | 01:42:08 | 00:00:00 | |
| DK7TD | 2026-09-03 12:11:41 | 48.33895 | 10.17174 | 38° | 24km/h | 26937m | 6.2m/s | -46.9°C | 0% | 19.9hPa | 2.7V | 18:12:15 | 01:42:07 | 00:00:00 | |
| DK7TD | 2026-09-03 12:11:31 | 48.33842 | 10.17127 | 20° | 27km/h | 26877m | 6.3m/s | -46.7°C | 0% | 20.1hPa | 2.6V | 18:12:15 | 01:41:56 | 00:00:00 | |
| DK7TD | 2026-09-03 12:11:20 | 48.33775 | 10.17095 | 13° | 27km/h | 26821m | 5.8m/s | -47.1°C | 0% | 20.3hPa | 2.7V | 18:12:15 | 01:41:46 | 00:00:00 | |
| DM0DOS-11 | 2026-09-03 12:11:20 | 48.33740 | 10.17077 | 13° | 33km/h | 26793m | 5.5m/s | -46.8°C | 2.8% | 20.4hPa | 2.7V | 08:30:00 | 01:41:41 | 00:00:00 | |
| DO3MHA-12 | 2026-09-03 12:11:20 | 48.33775 | 10.17095 | 13° | 29km/h | 26822m | 5.8m/s | -47.0°C | 2.9% | 20.2hPa | 2.7V | 00:00:00 | 01:41:46 | 00:00:00 | |
| OE5WHR-10 | 2026-09-03 12:11:19 | 48.33769 | 10.17092 | 19° | 24km/h | 26816m | 5.8m/s | 0°C | 0% | 0hPa | 2.7V | 00:00:00 | 00:00:00 | 00:00:00 | |
| OE5DRO-10 | 2026-09-03 12:11:17 | 48.33756 | 10.17084 | 22° | 26km/h | 26805m | 4.9m/s | -46.7°C | 2.8% | 20.3hPa | 2.7V | 00:00:00 | 00:00:00 | 00:00:00 | |
| DB0UT-7 | 2026-09-03 12:11:16 | 48.33748 | 10.17080 | 18° | 22km/h | 26800m | 6.5m/s | -46.7°C | 2.8% | 20.3hPa | 2.7V | 00:00:00 | 01:41:42 | 00:00:00 | |
| DO3MHA-11 | 2026-09-03 12:11:15 | 48.33740 | 10.17077 | 14° | 26km/h | 26794m | 5.5m/s | -46.7°C | 2.8% | 20.3hPa | 2.7V | 00:00:00 | 01:41:41 | 00:00:00 | |
| BAUMI2-15 | 2026-09-03 12:11:14 | 48.33732 | 10.17075 | 12° | 27km/h | 26789m | 4.7m/s | -46.8°C | 2.8% | 20.3hPa | 2.7V | 00:00:00 | 01:41:40 | 08:30:00 | |
| DJ8HS-15 | 2026-09-03 12:11:12 | 48.33718 | 10.17070 | 11° | 20km/h | 26777m | 5.7m/s | -46.9°C | 2.9% | 20.4hPa | 2.6V | 00:00:00 | 01:41:38 | 08:30:00 | |
| OE5MMP-10 | 2026-09-03 12:11:11 | 48.33712 | 10.17069 | 7° | 22km/h | 26771m | 5.1m/s | -47.0°C | 2.9% | 20.4hPa | 2.6V | 00:00:00 | 01:41:37 | 00:00:00 | |
| DM0DOS-11 | 2026-09-03 12:11:10 | 48.33679 | 10.17068 | 15° | 20km/h | 26738m | 5.8m/s | -46.8°C | 3% | 20.5hPa | 2.7V | 08:30:00 | 01:41:31 | 00:00:00 | |
| DK7TD | 2026-09-03 12:11:09 | 48.33701 | 10.17069 | 356° | 22km/h | 26760m | 6m/s | -46.9°C | 0% | 20.5hPa | 2.7V | 18:12:15 | 01:41:35 | 00:00:00 | |
| PG1ADW-2 | 2026-09-03 12:11:09 | 48.33701 | 10.17069 | 357° | 22km/h | 26760m | 6.0m/s | -46.9°C | 3.0% | 20.4hPa | 2.6V | 00:00:00 | 00:00:00 | 00:00:00 | |
| DL8DAS-14 | 2026-09-03 12:11:08 | 48.33690 | 10.17070 | 359° | 22km/h | 26750m | 4.5m/s | 0°C | -1.0% | 20.5hPa | 2.6V | 00:00:00 | 00:00:00 | 00:00:00 | |
| DB0ND-19 | 2026-09-03 12:11:07 | 48.33684 | 10.17069 | 6° | 20km/h | 26744m | 6.3m/s | -46.8°C | 0.6% | 20.5hPa | 2.6V | 00:00:00 | 00:00:00 | 00:00:00 | |
| OE5DXL-15 | 2026-09-03 12:11:06 | 48.33684 | 10.17069 | 7° | 16km/h | 26745m | 6.2m/s | -46.7°C | 2.9% | 20.5hPa | 2.6V | 00:00:00 | 00:00:00 | 00:00:00 | |
| DK5PH-5 | 2026-09-03 12:11:05 | 48.33679 | 10.17068 | 16° | 16km/h | 26739m | 5.8m/s | -46.7°C | 3.0% | 20.5hPa | 2.6V | 00:00:00 | 01:41:31 | 00:00:00 | |
| BAUMI2-15 | 2026-09-03 12:11:04 | 48.33674 | 10.17066 | 20° | 24km/h | 26733m | 4.8m/s | -46.7°C | 3.0% | 20.5hPa | 2.6V | 00:00:00 | 01:41:30 | 00:00:00 | |
| OE3JTB-15 | 2026-09-03 12:11:03 | 48.33669 | 10.17063 | 16° | 15km/h | 26729m | 4.5m/s | -46.8°C | 3.0% | 20.5hPa | 2.6V | 00:00:00 | 00:00:00 | 00:00:00 | |
| AZAK | 2026-09-03 12:11:01 | 48.33657 | 10.17061 | 358° | 27km/h | 26717m | 5.6m/s | -46.7°C | 0.6% | 20.6hPa | 2.6V | 00:00:00 | 00:00:00 | 00:00:00 | |
| DM0DOS-11 | 2026-09-03 12:11:00 | 48.33627 | 10.17068 | 28° | 13km/h | 26687m | 4.5m/s | -46.4°C | 2.9% | 20.7hPa | 2.6V | 08:30:00 | 01:41:21 | 00:00:00 | |
| DK7TD | 2026-09-03 12:10:58 | 48.33638 | 10.17068 | 342° | 22km/h | 26703m | 5.4m/s | -46.5°C | 0% | 20.7hPa | 2.7V | 18:12:15 | 01:41:24 | 00:00:00 | |
| DK7TD | 2026-09-03 12:10:47 | 48.33596 | 10.17051 | 1° | 18km/h | 26643m | 6.4m/s | -46.4°C | 0% | 20.8hPa | 2.7V | 18:12:15 | 01:41:13 | 00:00:00 | |
| DM0DOS-11 | 2026-09-03 12:10:45 | 48.33585 | 10.17052 | 356° | 20km/h | 26632m | 4.4m/s | -46.4°C | 2.7% | 20.9hPa | 2.6V | 08:30:00 | 01:41:11 | 00:00:00 | |
| DO3MHA-11 | 2026-09-03 12:10:45 | 48.33585 | 10.17051 | 357° | 13km/h | 26633m | 4.4m/s | -46.4°C | 2.7% | 20.8hPa | 2.6V | 00:00:00 | 01:41:11 | 00:00:00 | |
| DO9LL-15 | 2026-09-03 12:10:44 | 48.33580 | 10.17052 | 359° | 13km/h | 26628m | 4.6m/s | -46.5°C | 2.7% | 20.9hPa | 2.6V | 00:00:00 | 01:41:10 | 00:00:00 | |
| DJTTGO | 2026-09-03 12:10:41 | 48.33573 | 10.17051 | 44° | 5km/h | 26611m | 4.8m/s | -46.8°C | 0.6% | 21.0hPa | 2.6V | 00:00:00 | 00:00:00 | 00:00:00 | |
| DM0DOS-11 | 2026-09-03 12:10:40 | 48.33561 | 10.17042 | 24° | 11km/h | 26577m | 5.8m/s | -46.9°C | 2.9% | 21.1hPa | 2.6V | 08:30:00 | 01:41:01 | 00:00:00 | |
| DK7TD | 2026-09-03 12:10:37 | 48.33563 | 10.17044 | 19° | 11km/h | 26583m | 6.3m/s | -46.9°C | 0% | 21hPa | 2.7V | 18:12:15 | 01:41:02 | 00:00:00 | |
| DL8DAS-14 | 2026-09-03 12:10:37 | 48.33563 | 10.17044 | 19° | 11km/h | 26584m | 6.3m/s | 0°C | -1.0% | 21.0hPa | 2.7V | 00:00:00 | 00:00:00 | 00:00:00 | |
| DL6DJ-15 | 2026-09-03 12:10:36 | 48.33561 | 10.17042 | 24° | 11km/h | 26578m | 5.8m/s | -46.9°C | 0.6% | 21.1hPa | 2.7V | 00:00:00 | 00:00:00 | 00:00:00 | |
| DO3MHA-11 | 2026-09-03 12:10:35 | 48.33561 | 10.17042 | 25° | 15km/h | 26578m | 5.8m/s | -46.8°C | 2.9% | 21.0hPa | 2.7V | 00:00:00 | 01:41:01 | 00:00:00 | |
| DJ8HS-15 | 2026-09-03 12:10:32 | 48.33551 | 10.17034 | 28° | 13km/h | 26562m | 6.2m/s | -47.0°C | 2.9% | 21.1hPa | 2.7V | 00:00:00 | 01:40:58 | 00:00:00 | |
| OE5MMP-10 | 2026-09-03 12:10:31 | 48.33546 | 10.17030 | 33° | 13km/h | 26557m | 4.6m/s | -46.9°C | 2.9% | 21.1hPa | 2.7V | 00:00:00 | 01:40:57 | 00:00:00 | |
| DM0DOS-11 | 2026-09-03 12:10:30 | 48.33535 | 10.17003 | 57° | 5km/h | 26526m | 5.4m/s | -47.1°C | 2.9% | 21.2hPa | 2.7V | 08:30:00 | 01:40:51 | 00:00:00 | |
| DK7TD | 2026-09-03 12:10:26 | 48.33536 | 10.17006 | 89° | 7km/h | 26531m | 5m/s | -47.1°C | 0% | 21.2hPa | 2.7V | 18:12:15 | 01:40:52 | 00:00:00 | |
| DK7TD | 2026-09-03 12:10:15 | 48.33509 | 10.16995 | 347° | 15km/h | 26473m | 5.4m/s | -46.9°C | 0% | 21.4hPa | 2.7V | 18:12:15 | 01:40:41 | 00:00:00 | |
| OE5WHR-10 | 2026-09-03 12:10:15 | 48.33508 | 10.16995 | 348° | 13km/h | 26473m | 5.4m/s | 0°C | 0% | 0hPa | 2.6V | 00:00:00 | 00:00:00 | 00:00:00 | |
| DO9LL-15 | 2026-09-03 12:10:14 | 48.33505 | 10.16996 | 357° | 13km/h | 26468m | 5.0m/s | -46.9°C | 2.9% | 21.4hPa | 2.6V | 00:00:00 | 01:40:40 | 00:00:00 | |
| DJ8HS-15 | 2026-09-03 12:10:12 | 48.33497 | 10.16994 | 21° | 11km/h | 26457m | 5.0m/s | -47.0°C | 2.9% | 21.4hPa | 2.6V | 00:00:00 | 01:40:38 | 00:00:00 | |
| OE5MMP-10 | 2026-09-03 12:10:11 | 48.33494 | 10.16992 | 20° | 13km/h | 26452m | 4.4m/s | -47.1°C | 3.0% | 21.4hPa | 2.6V | 00:00:00 | 01:40:37 | 00:00:00 | |
| DM0DOS-11 | 2026-09-03 12:10:10 | 48.33475 | 10.16998 | 338° | 9km/h | 26418m | 5.2m/s | -47°C | 2.9% | 21.6hPa | 2.6V | 08:30:00 | 01:40:31 | 00:00:00 | |
| DK7TD | 2026-09-03 12:10:04 | 48.33473 | 10.16999 | 325° | 9km/h | 26413m | 5.1m/s | -47.1°C | 0% | 21.6hPa | 2.7V | 18:12:15 | 01:40:30 | 00:00:00 | |
| NBG1-10 | 2026-09-03 12:10:04 | 48.33473 | 10.16999 | 326° | 11km/h | 26413m | 5.0m/s | -47.0°C | 2.9% | 21.6hPa | 2.7V | 00:00:00 | 01:40:30 | 00:00:00 | |
| DF1GD-15 | 2026-09-03 12:10:03 | 48.33473 | 10.16999 | 326° | 9km/h | 26413m | 5.1m/s | -47.1°C | 0.7% | 21.6hPa | 2.6V | 00:00:00 | 00:00:00 | 00:00:00 | |
| OE5MMP-10 | 2026-09-03 12:10:01 | 48.33468 | 10.17009 | 308° | 11km/h | 26396m | 4.5m/s | -47.1°C | 3.0% | 21.6hPa | 2.6V | 00:00:00 | 01:40:27 | 00:00:00 | |
| DM0DOS-11 | 2026-09-03 12:10:00 | 48.33451 | 10.17010 | 3° | 15km/h | 26358m | 5.1m/s | -47.2°C | 3% | 21.8hPa | 2.6V | 08:30:00 | 01:40:20 | 00:00:00 | |
| DK7TD | 2026-09-03 12:09:54 | 48.33451 | 10.17010 | 4° | 15km/h | 26358m | 5.1m/s | -47.2°C | 0% | 21.8hPa | 2.6V | 18:12:15 | 01:40:20 | 00:00:00 | |
| DO3MHA-11 | 2026-09-03 12:09:54 | 48.33451 | 10.17010 | 4° | 13km/h | 26358m | 5.1m/s | -47.1°C | 3.0% | 21.7hPa | 2.6V | 00:00:00 | 01:40:20 | 00:00:00 | |
| OE5WHR-10 | 2026-09-03 12:09:53 | 48.33447 | 10.17009 | 14° | 11km/h | 26352m | 6.0m/s | 0°C | 0% | 0hPa | 2.6V | 00:00:00 | 01:40:19 | 00:00:00 | |
| DJ8HS-15 | 2026-09-03 12:09:52 | 48.33443 | 10.17007 | 25° | 11km/h | 26346m | 6.1m/s | -46.9°C | 3.0% | 21.8hPa | 2.6V | 00:00:00 | 01:40:18 | 00:00:00 | |
| OE5MMP-10 | 2026-09-03 12:09:51 | 48.33440 | 10.17004 | 28° | 9km/h | 26341m | 4.8m/s | -46.9°C | 3.0% | 21.8hPa | 2.6V | 00:00:00 | 01:40:17 | 00:00:00 | |
| DO3MHA-12 | 2026-09-03 12:09:50 | 48.33436 | 10.17001 | 23° | 9km/h | 26336m | 4.7m/s | -46.9°C | 3.0% | 21.8hPa | 2.6V | 00:00:00 | 01:40:16 | 00:00:00 | |
| DM7RM-13 | 2026-09-03 12:09:49 | 48.33433 | 10.17000 | 11° | 13km/h | 26330m | 6.4m/s | -47.0°C | 0.7% | 21.9hPa | 2.6V | 00:00:00 | 00:00:00 | 00:00:00 | |
| DM0DOS-11 | 2026-09-03 12:09:48 | 48.33423 | 10.16999 | 29° | 7km/h | 26308m | 5.4m/s | -47°C | 3% | 21.9hPa | 2.6V | 08:30:00 | 01:40:11 | 00:00:00 | |
| DF7PN | 2026-09-03 12:09:47 | 48.33425 | 10.17000 | 6° | 7km/h | 26314m | 6.2m/s | -47.1°C | 0.7% | 22.0hPa | 2.6V | 00:00:00 | 00:00:00 | 00:00:00 | |
| DK7TD | 2026-09-03 12:09:43 | 48.33421 | 10.16996 | 44° | 5km/h | 26297m | 6.2m/s | -47°C | 0% | 22hPa | 2.6V | 18:12:15 | 01:40:09 | 00:00:00 | |
| OE5MMP-10 | 2026-09-03 12:09:41 | 48.33419 | 10.16994 | 17° | 11km/h | 26286m | 5.0m/s | -46.9°C | 2.9% | 22.0hPa | 2.7V | 00:00:00 | 01:40:07 | 00:00:00 | |
| DB0NH | 2026-09-03 12:09:40 | 48.33418 | 10.16993 | 27° | 11km/h | 26281m | 4.3m/s | -46.9°C | 2.9% | 22.0hPa | 2.7V | 00:00:00 | 01:40:06 | 00:00:00 | |
| DM0DOS-11 | 2026-09-03 12:09:38 | 48.33404 | 10.16978 | 25° | 13km/h | 26253m | 6.5m/s | -47.1°C | 3% | 22.1hPa | 2.7V | 08:30:00 | 01:40:01 | 00:00:00 | |
| DK7TD | 2026-09-03 12:09:32 | 48.33397 | 10.16977 | 352° | 9km/h | 26237m | 5.1m/s | -47.1°C | 0% | 22.2hPa | 2.6V | 18:12:15 | 01:39:58 | 00:00:00 | |
| DJ8HS-15 | 2026-09-03 12:09:32 | 48.33397 | 10.16977 | 352° | 11km/h | 26238m | 5.0m/s | -47.1°C | 3.0% | 22.1hPa | 2.7V | 00:00:00 | 01:39:58 | 00:00:00 | |
| OE5MMP-10 | 2026-09-03 12:09:31 | 48.33394 | 10.16978 | 1° | 13km/h | 26232m | 6.0m/s | -47.1°C | 3.0% | 22.1hPa | 2.7V | 00:00:00 | 01:39:57 | 00:00:00 | |
| DO3MHA-12 | 2026-09-03 12:09:30 | 48.33392 | 10.16977 | 12° | 13km/h | 26226m | 5.5m/s | -47.1°C | 3.0% | 22.2hPa | 2.7V | 00:00:00 | 01:39:56 | 00:00:00 | |
| DM0DOS-11 | 2026-09-03 12:09:28 | 48.33380 | 10.16980 | 346° | 13km/h | 26199m | 4.6m/s | -47°C | 3% | 22.3hPa | 2.7V | 08:30:00 | 01:39:51 | 00:00:00 | |
| DK7TD | 2026-09-03 12:09:21 | 48.33363 | 10.16979 | 3° | 16km/h | 26176m | 6.2m/s | -47.1°C | 0% | 22.4hPa | 2.6V | 18:12:15 | 01:39:47 | 00:00:00 | |
| OE5MMP-10 | 2026-09-03 12:09:21 | 48.33362 | 10.16979 | 4° | 11km/h | 26177m | 6.1m/s | -47.0°C | 2.9% | 22.3hPa | 2.7V | 00:00:00 | 01:39:47 | 00:00:00 | |
| DO3MHA-12 | 2026-09-03 12:09:20 | 48.33359 | 10.16979 | 354° | 11km/h | 26170m | 5.9m/s | -47.0°C | 2.9% | 22.4hPa | 2.7V | 00:00:00 | 01:39:46 | 00:00:00 | |
| DM0DOS-11 | 2026-09-03 12:09:18 | 48.33346 | 10.16985 | 325° | 11km/h | 26143m | 4.7m/s | -47.1°C | 2.9% | 22.5hPa | 2.7V | 08:30:00 | 01:39:41 | 00:00:00 | |
| DK7TD | 2026-09-03 12:09:10 | 48.33337 | 10.16999 | 349° | 13km/h | 26115m | 6.2m/s | -47.2°C | 0% | 22.6hPa | 2.6V | 18:12:15 | 01:39:36 | 00:00:00 | |
| DK7TD | 2026-09-03 12:09:00 | 48.33309 | 10.16989 | 345° | 16km/h | 26061m | 5.7m/s | -47.8°C | 0% | 22.8hPa | 2.6V | 18:12:15 | 01:39:26 | 00:00:00 | |
| DO3MHA-12 | 2026-09-03 12:09:00 | 48.33309 | 10.16989 | 345° | 18km/h | 26061m | 5.7m/s | -47.7°C | 2.9% | 22.7hPa | 2.7V | 00:00:00 | 01:39:26 | 00:00:00 | |
| NBG1-10 | 2026-09-03 12:08:58 | 48.33302 | 10.16992 | 341° | 20km/h | 26050m | 4.5m/s | -47.7°C | 2.9% | 22.8hPa | 2.7V | 00:00:00 | 01:39:24 | 00:00:00 | |
| DM0DOS-11 | 2026-09-03 12:08:57 | 48.33290 | 10.16992 | 17° | 22km/h | 26033m | 5.7m/s | -48°C | 3% | 22.9hPa | 2.7V | 08:30:00 | 01:39:21 | 00:00:00 | |
| DK7TD | 2026-09-03 12:08:49 | 48.33263 | 10.16967 | 25° | 22km/h | 26002m | 5.7m/s | -48°C | 0% | 23hPa | 2.6V | 18:12:15 | 01:39:15 | 00:00:00 | |
| OE3JTB-15 | 2026-09-03 12:08:48 | 48.33257 | 10.16964 | 20° | 18km/h | 25996m | 5.8m/s | -47.8°C | 2.9% | 23.0hPa | 2.7V | 00:00:00 | 01:39:14 | 00:00:00 | |
| DM7RM-13 | 2026-09-03 12:08:46 | 48.33251 | 10.16961 | 16° | 26km/h | 25991m | 5.0m/s | -47.9°C | 0.7% | 23.1hPa | 2.7V | 00:00:00 | 00:00:00 | 00:00:00 | |
| DM0DOS-11 | 2026-09-03 12:08:45 | 48.33240 | 10.16957 | 12° | 20km/h | 25980m | 6.4m/s | -48°C | 3% | 23.1hPa | 2.7V | 08:30:00 | 01:39:11 | 00:00:00 | |
| DF7PN | 2026-09-03 12:08:45 | 48.33235 | 10.16956 | 9° | 16km/h | 25974m | 5.7m/s | -48.1°C | 0.7% | 23.1hPa | 2.7V | 00:00:00 | 00:00:00 | 00:00:00 | |
| DO3MHA-11 | 2026-09-03 12:08:44 | 48.33235 | 10.16956 | 10° | 16km/h | 25974m | 5.7m/s | -48.0°C | 3.0% | 23.1hPa | 2.7V | 00:00:00 | 01:39:10 | 08:30:00 | |
| PG1ADW-2 | 2026-09-03 12:08:43 | 48.33231 | 10.16955 | 6° | 20km/h | 25969m | 4.7m/s | -48.1°C | 3.0% | 23.1hPa | 2.6V | 00:00:00 | 01:39:09 | 08:30:00 | |
| DF1GD-15 | 2026-09-03 12:08:42 | 48.33231 | 10.16955 | 7° | 15km/h | 25969m | 4.7m/s | -48.2°C | 0.7% | 23.1hPa | 2.6V | 00:00:00 | 00:00:00 | 00:00:00 | |
| OE5MMP-10 | 2026-09-03 12:08:41 | 48.33223 | 10.16955 | 360° | 22km/h | 25957m | 5.8m/s | -48.3°C | 3.0% | 23.1hPa | 2.6V | 00:00:00 | 01:39:07 | 00:00:00 | |
| DM0DOS-11 | 2026-09-03 12:08:40 | 48.33197 | 10.16950 | 15° | 24km/h | 25925m | 6.2m/s | -48.4°C | 3.1% | 23.3hPa | 2.7V | 08:30:00 | 01:39:01 | 00:00:00 | |
| DK7TD | 2026-09-03 12:08:38 | 48.33211 | 10.16954 | 7° | 15km/h | 25941m | 6m/s | -48.6°C | 0% | 23.2hPa | 2.6V | 18:12:15 | 01:39:04 | 00:00:00 | |
| AZAK | 2026-09-03 12:08:38 | 48.33211 | 10.16954 | 8° | 15km/h | 25941m | 6.0m/s | -48.6°C | 0.7% | 23.2hPa | 2.6V | 00:00:00 | 00:00:00 | 00:00:00 | |
| OE5DXL-15 | 2026-09-03 12:08:36 | 48.33203 | 10.16952 | 14° | 18km/h | 25931m | 4.8m/s | -48.4°C | 3.1% | 23.2hPa | 2.6V | 00:00:00 | 00:00:00 | 00:00:00 | |
| DK5PH-5 | 2026-09-03 12:08:35 | 48.33197 | 10.16950 | 16° | 18km/h | 25926m | 6.1m/s | -48.4°C | 3.1% | 23.2hPa | 2.6V | 00:00:00 | 01:39:01 | 00:00:00 | |
| DL9SK-14 | 2026-09-03 12:08:34 | 48.33184 | 10.16943 | 23° | 29km/h | 25915m | 4.5m/s | -48.6°C | 0.7% | 23.3hPa | 2.6V | 00:00:00 | 00:00:00 | 00:00:00 | |
| DL6DJ-15 | 2026-09-03 12:08:32 | 48.33172 | 10.16933 | 35° | 26km/h | 25904m | 5.6m/s | -48.5°C | 0.7% | 23.4hPa | 2.6V | 00:00:00 | 00:00:00 | 00:00:00 | |
| OE5MMP-10 | 2026-09-03 12:08:31 | 48.33172 | 10.16932 | 36° | 20km/h | 25904m | 5.5m/s | -48.4°C | 3.2% | 23.3hPa | 2.6V | 00:00:00 | 01:38:57 | 00:00:00 | |
| DM0DOS-11 | 2026-09-03 12:08:30 | 48.33142 | 10.16918 | 344° | 20km/h | 25873m | 5.4m/s | -48.3°C | 3.1% | 23.5hPa | 2.6V | 08:30:00 | 01:38:51 | 00:00:00 | |
| DK7TD | 2026-09-03 12:08:27 | 48.33153 | 10.16917 | 6° | 20km/h | 25883m | 5.5m/s | -48.3°C | 0% | 23.4hPa | 2.6V | 18:12:15 | 01:38:53 | 00:00:00 | |
| DM7RM-13 | 2026-09-03 12:08:26 | 48.33153 | 10.16916 | 7° | 20km/h | 25883m | 5.5m/s | -48.3°C | 0.7% | 23.4hPa | 2.6V | 00:00:00 | 00:00:00 | 00:00:00 | |
| NBG1-10 | 2026-09-03 12:08:25 | 48.33142 | 10.16918 | 345° | 15km/h | 25873m | 5.3m/s | -48.3°C | 3.1% | 23.4hPa | 2.6V | 00:00:00 | 01:38:51 | 08:30:00 | |
| DO3MHA-11 | 2026-09-03 12:08:24 | 48.33138 | 10.16920 | 339° | 18km/h | 25867m | 6.1m/s | -48.3°C | 3.1% | 23.4hPa | 2.6V | 00:00:00 | 01:38:50 | 00:00:00 | |
| SONCRA | 2026-09-03 12:08:23 | 48.33130 | 10.16924 | 345° | 16km/h | 25857m | 4.8m/s | -48.4°C | 0.7% | 23.5hPa | 2.6V | 00:00:00 | 00:00:00 | 00:00:00 | |
| SONDE2-11 | 2026-09-03 12:08:22 | 48.33125 | 10.16926 | 351° | 20km/h | 25851m | 6.4m/s | -48.4°C | 0.7% | 23.5hPa | 2.6V | 00:00:00 | 00:00:00 | 00:00:00 | |
| OE5MMP-10 | 2026-09-03 12:08:21 | 48.33125 | 10.16926 | 352° | 16km/h | 25851m | 6.3m/s | -48.4°C | 3.1% | 23.5hPa | 2.6V | 00:00:00 | 01:38:47 | 00:00:00 | |
| DO3MHA-12 | 2026-09-03 12:08:20 | 48.33120 | 10.16926 | 359° | 16km/h | 25846m | 4.9m/s | -48.4°C | 3.1% | 23.5hPa | 2.6V | 00:00:00 | 01:38:46 | 00:00:00 | |
| DM0DOS-11 | 2026-09-03 12:08:18 | 48.33094 | 10.16920 | 359° | 15km/h | 25812m | 5.1m/s | -48.8°C | 3.1% | 23.7hPa | 2.6V | 08:30:00 | 01:38:40 | 00:00:00 | |
| DK7TD | 2026-09-03 12:08:16 | 48.33102 | 10.16922 | 16° | 15km/h | 25823m | 4.9m/s | -48.7°C | 0% | 23.6hPa | 2.6V | 18:12:15 | 01:38:42 | 00:00:00 | |
| DK7TD | 2026-09-03 12:08:06 | 48.33072 | 10.16943 | 337° | 16km/h | 25769m | 4.8m/s | -48.5°C | 0% | 23.9hPa | 2.7V | 18:12:15 | 01:38:32 | 00:00:00 | |
| OE5DXL-15 | 2026-09-03 12:08:06 | 48.33072 | 10.16943 | 338° | 7km/h | 25770m | 4.7m/s | -48.5°C | 3.1% | 23.8hPa | 2.7V | 00:00:00 | 00:00:00 | 00:00:00 | |
| DK5PH-5 | 2026-09-03 12:08:05 | 48.33068 | 10.16945 | 342° | 7km/h | 25764m | 6.0m/s | -48.5°C | 3.1% | 23.8hPa | 2.7V | 00:00:00 | 01:38:31 | 00:00:00 | |
| DO3MHA-11 | 2026-09-03 12:08:04 | 48.33065 | 10.16946 | 347° | 11km/h | 25758m | 5.4m/s | -48.5°C | 3.1% | 23.8hPa | 2.7V | 00:00:00 | 01:38:30 | 00:00:00 | |
| PG1ADW-2 | 2026-09-03 12:08:03 | 48.33062 | 10.16947 | 350° | 9km/h | 25753m | 4.9m/s | -48.5°C | 3.1% | 23.8hPa | 2.7V | 00:00:00 | 00:00:00 | 00:00:00 | |
| DL9SK-14 | 2026-09-03 12:08:02 | 48.33059 | 10.16948 | 351° | 11km/h | 25748m | 5.3m/s | -48.7°C | 0.7% | 23.9hPa | 2.7V | 00:00:00 | 00:00:00 | 00:00:00 | |
| DF1GD-15 | 2026-09-03 12:08:01 | 48.33055 | 10.16949 | 349° | 15km/h | 25742m | 6.1m/s | -48.7°C | 0.7% | 23.9hPa | 2.7V | 00:00:00 | 00:00:00 | 00:00:00 | |
| DO3MHA-12 | 2026-09-03 12:08:00 | 48.33052 | 10.16950 | 346° | 9km/h | 25737m | 4.8m/s | -48.7°C | 3.1% | 23.9hPa | 2.7V | 00:00:00 | 01:38:26 | 00:00:00 | |
| DM0DOS-11 | 2026-09-03 12:07:57 | 48.33041 | 10.16969 | 302° | 11km/h | 25700m | 4.4m/s | -48.6°C | 3.2% | 24.1hPa | 2.7V | 08:30:00 | 01:38:19 | 00:00:00 | |
| DK7TD | 2026-09-03 12:07:55 | 48.33044 | 10.16961 | 284° | 9km/h | 25710m | 6m/s | -48.7°C | 0% | 24.1hPa | 2.7V | 18:12:15 | 01:38:21 | 00:00:00 | |
| DK7TD | 2026-09-03 12:07:44 | 48.33027 | 10.16970 | 38° | 4km/h | 25652m | 5.9m/s | -48.4°C | 0% | 24.3hPa | 2.7V | 18:12:15 | 01:38:10 | 00:00:00 | |
| DO3MHA-11 | 2026-09-03 12:07:44 | 48.33027 | 10.16970 | 38° | 2km/h | 25653m | 5.9m/s | -48.4°C | 3.0% | 24.2hPa | 2.7V | 00:00:00 | 01:38:10 | 00:00:00 | |
| PG1ADW-2 | 2026-09-03 12:07:43 | 48.33026 | 10.16969 | 88° | 4km/h | 25647m | 5.1m/s | -48.5°C | 3.0% | 24.3hPa | 2.7V | 00:00:00 | 00:00:00 | 00:00:00 | |
| DF7PN | 2026-09-03 12:07:42 | 48.33026 | 10.16969 | 112° | 0km/h | 25642m | 5.1m/s | -48.6°C | 0.7% | 24.3hPa | 2.6V | 00:00:00 | 00:00:00 | 00:00:00 | |
| OE5MMP-10 | 2026-09-03 12:07:41 | 48.33026 | 10.16968 | 345° | 4km/h | 25636m | 6.0m/s | -48.6°C | 3.1% | 24.3hPa | 2.6V | 00:00:00 | 01:38:07 | 08:30:00 | |
| DF1GD-15 | 2026-09-03 12:07:40 | 48.33026 | 10.16969 | 324° | 2km/h | 25631m | 4.8m/s | -48.5°C | 0.7% | 24.4hPa | 2.6V | 00:00:00 | 00:00:00 | 00:00:00 | |
| DM0DOS-11 | 2026-09-03 12:07:37 | 48.33028 | 10.16969 | 150° | 2km/h | 25606m | 4.4m/s | -48.6°C | 3.1% | 24.4hPa | 2.6V | 08:30:00 | 01:38:01 | 00:00:00 | |
| DK7TD | 2026-09-03 12:07:33 | 48.33027 | 10.16969 | 350° | 5km/h | 25595m | 5.5m/s | -48.7°C | 0% | 24.5hPa | 2.7V | 18:12:15 | 01:37:59 | 00:00:00 | |
| OE3JTB-15 | 2026-09-03 12:07:33 | 48.33027 | 10.16969 | 351° | 7km/h | 25595m | 5.4m/s | -48.6°C | 3.1% | 24.5hPa | 2.7V | 00:00:00 | 00:00:00 | 00:00:00 | |
| DL9SK-14 | 2026-09-03 12:07:32 | 48.33024 | 10.16970 | 328° | 4km/h | 25585m | 5.9m/s | -48.8°C | 0.7% | 24.5hPa | 2.6V | 00:00:00 | 00:00:00 | 00:00:00 | |
| DJ2DS-15 | 2026-09-03 12:07:31 | 48.33024 | 10.16970 | 329° | 7km/h | 25585m | 5.9m/s | 0°C | 0% | 0hPa | 2.6V | 00:00:00 | 01:37:57 | 00:00:00 | |
| DO3MHA-12 | 2026-09-03 12:07:30 | 48.33023 | 10.16971 | 300° | 5km/h | 25579m | 5.6m/s | -48.7°C | 3.1% | 24.5hPa | 2.6V | 00:00:00 | 01:37:56 | 00:00:00 | |
| DL6DJ-15 | 2026-09-03 12:07:29 | 48.33023 | 10.16972 | 270° | 2km/h | 25574m | 4.6m/s | -48.9°C | 0.7% | 24.6hPa | 2.6V | 00:00:00 | 00:00:00 | 00:00:00 | |
| DJTTGO | 2026-09-03 12:07:28 | 48.33023 | 10.16972 | 272° | 4km/h | 25574m | 4.6m/s | -48.9°C | 0.7% | 24.6hPa | 2.6V | 00:00:00 | 00:00:00 | 00:00:00 | |
| DM0DOS-11 | 2026-09-03 12:07:27 | 48.33023 | 10.16974 | 121° | 2km/h | 25553m | 4.9m/s | -48.8°C | 3.1% | 24.6hPa | 2.6V | 08:30:00 | 01:37:51 | 00:00:00 | |
| DK7TD | 2026-09-03 12:07:23 | 48.33025 | 10.16970 | 125° | 9km/h | 25541m | 4.9m/s | -48.8°C | 0% | 24.7hPa | 2.6V | 18:12:15 | 01:37:49 | 00:00:00 | |
| DK7TD | 2026-09-03 12:07:12 | 48.33015 | 10.16937 | 346° | 4km/h | 25486m | 4.6m/s | -48.8°C | 0% | 24.9hPa | 2.6V | 18:12:15 | 01:37:38 | 00:00:00 | |
| DK7TD | 2026-09-03 12:07:01 | 48.33017 | 10.16926 | 93° | 13km/h | 25428m | 4.9m/s | -48.7°C | 0% | 25.1hPa | 2.6V | 18:12:15 | 01:37:27 | 00:00:00 | |
| DL9SK-14 | 2026-09-03 12:07:01 | 48.33017 | 10.16922 | 81° | 9km/h | 25423m | 5.3m/s | -48.7°C | 0.7% | 25.1hPa | 2.6V | 00:00:00 | 00:00:00 | 00:00:00 | |
| DL6DJ-15 | 2026-09-03 12:06:58 | 48.33016 | 10.16918 | 359° | 4km/h | 25413m | 4.1m/s | -48.8°C | 0.7% | 25.2hPa | 2.6V | 00:00:00 | 00:00:00 | 00:00:00 | |
| BAUMI2-15 | 2026-09-03 12:06:55 | 48.33014 | 10.16923 | 242° | 7km/h | 25398m | 5.1m/s | -48.6°C | 3.1% | 25.2hPa | 2.6V | 00:00:00 | 01:37:21 | 08:30:00 | |
| AZAK | 2026-09-03 12:06:54 | 48.33016 | 10.16925 | 231° | 9km/h | 25393m | 4.0m/s | -48.7°C | 0.7% | 25.3hPa | 2.6V | 00:00:00 | 00:00:00 | 00:00:00 | |
| DO3MHA-11 | 2026-09-03 12:06:53 | 48.33017 | 10.16928 | 232° | 11km/h | 25389m | 3.8m/s | -48.8°C | 3.2% | 25.2hPa | 2.6V | 00:00:00 | 01:37:19 | 00:00:00 | |
| DJ8HS-15 | 2026-09-03 12:06:52 | 48.33018 | 10.16930 | 251° | 7km/h | 25385m | 5.3m/s | -48.8°C | 3.2% | 25.2hPa | 2.6V | 00:00:00 | 01:37:18 | 00:00:00 | |
| DM0DOS-11 | 2026-09-03 12:06:51 | 48.33017 | 10.16933 | 17° | 5km/h | 25374m | 4.7m/s | -48.9°C | 3.1% | 25.3hPa | 2.6V | 08:30:00 | 01:37:16 | 00:00:00 | |
| DK7TD | 2026-09-03 12:06:50 | 48.33017 | 10.16933 | 18° | 5km/h | 25374m | 4.7m/s | -48.9°C | 0% | 25.3hPa | 2.6V | 18:12:15 | 01:37:16 | 00:00:00 | |
| DO3MHA-12 | 2026-09-03 12:06:50 | 48.33017 | 10.16932 | 18° | 9km/h | 25375m | 4.6m/s | -48.8°C | 3.1% | 25.3hPa | 2.7V | 00:00:00 | 01:37:16 | 00:00:00 | |
| NBG1-10 | 2026-09-03 12:06:46 | 48.33013 | 10.16915 | 85° | 7km/h | 25353m | 4.7m/s | -48.6°C | 3.0% | 25.4hPa | 2.7V | 00:00:00 | 01:37:12 | 00:00:00 | |
| BAUMI2-15 | 2026-09-03 12:06:45 | 48.33013 | 10.16909 | 83° | 7km/h | 25348m | 5.6m/s | -48.6°C | 3.0% | 25.4hPa | 2.6V | 00:00:00 | 01:37:11 | 00:00:00 | |
| DM7RM-13 | 2026-09-03 12:06:44 | 48.33013 | 10.16909 | 84° | 15km/h | 25348m | 5.6m/s | -48.7°C | 0.7% | 25.4hPa | 2.6V | 00:00:00 | 00:00:00 | 00:00:00 | |
| PG1ADW-2 | 2026-09-03 12:06:43 | 48.33012 | 10.16903 | 91° | 5km/h | 25338m | 4.2m/s | -48.7°C | 3.1% | 25.4hPa | 2.6V | 00:00:00 | 00:00:00 | 00:00:00 | |
| DM0DOS-11 | 2026-09-03 12:06:41 | 48.33017 | 10.16907 | 220° | 9km/h | 25316m | 4.5m/s | -48.8°C | 3.1% | 25.6hPa | 2.7V | 08:30:00 | 01:37:05 | 00:00:00 | |
| DK7TD | 2026-09-03 12:06:40 | 48.33015 | 10.16905 | 210° | 9km/h | 25321m | 4.9m/s | -48.7°C | 0% | 25.6hPa | 2.7V | 18:12:15 | 01:37:06 | 00:00:00 | |
| DO9LL-15 | 2026-09-03 12:06:39 | 48.33017 | 10.16907 | 221° | 7km/h | 25317m | 4.5m/s | -48.7°C | 3.1% | 25.5hPa | 2.7V | 00:00:00 | 01:37:05 | 00:00:00 | |
| DF1GD-15 | 2026-09-03 12:06:38 | 48.33017 | 10.16906 | 222° | 9km/h | 25317m | 4.5m/s | -48.8°C | 0.7% | 25.6hPa | 2.7V | 00:00:00 | 00:00:00 | 00:00:00 | |
| OE5DXL-15 | 2026-09-03 12:06:36 | 48.33019 | 10.16911 | 7° | 7km/h | 25302m | 4.5m/s | -48.8°C | 3.2% | 25.6hPa | 2.7V | 00:00:00 | 00:00:00 | 00:00:00 | |
| DK5PH-5 | 2026-09-03 12:06:35 | 48.33018 | 10.16910 | 77° | 7km/h | 25297m | 5.9m/s | -48.9°C | 3.2% | 25.6hPa | 2.7V | 00:00:00 | 01:37:01 | 00:00:00 | |
| DO3MHA-11 | 2026-09-03 12:06:33 | 48.33018 | 10.16904 | 92° | 5km/h | 25286m | 4.2m/s | -48.8°C | 3.1% | 25.7hPa | 2.7V | 00:00:00 | 01:36:59 | 00:00:00 | |
| DJ8HS-15 | 2026-09-03 12:06:32 | 48.33018 | 10.16900 | 84° | 7km/h | 25282m | 4.5m/s | -48.9°C | 3.1% | 25.7hPa | 2.7V | 00:00:00 | 01:36:58 | 00:00:00 | |
| DM0DOS-11 | 2026-09-03 12:06:31 | 48.33016 | 10.16893 | 127° | 0km/h | 25262m | 5.2m/s | -49.3°C | 3.1% | 25.8hPa | 2.7V | 08:30:00 | 01:36:54 | 00:00:00 | |
| DK7TD | 2026-09-03 12:06:29 | 48.33016 | 10.16894 | 34° | 2km/h | 25267m | 4.1m/s | -49.2°C | 0% | 25.8hPa | 2.6V | 18:12:15 | 01:36:55 | 00:00:00 | |
| DG1MJG | 2026-09-03 12:06:27 | 48.33017 | 10.16892 | 154° | 5km/h | 25257m | 5.6m/s | -49.1°C | 0.7% | 25.8hPa | 2.6V | 00:00:00 | 00:00:00 | 00:00:00 | |
| BAUMI2-15 | 2026-09-03 12:06:25 | 48.33019 | 10.16890 | 154° | 4km/h | 25246m | 4.6m/s | -49.0°C | 3.1% | 25.8hPa | 2.6V | 00:00:00 | 01:36:51 | 00:00:00 | |
| DM7RM-13 | 2026-09-03 12:06:24 | 48.33019 | 10.16890 | 155° | 7km/h | 25246m | 4.7m/s | -49.1°C | 0.7% | 25.8hPa | 2.6V | 00:00:00 | 00:00:00 | 00:00:00 | |
| PG1ADW-2 | 2026-09-03 12:06:23 | 48.33022 | 10.16889 | 142° | 9km/h | 25236m | 5.1m/s | -49.2°C | 3.2% | 25.8hPa | 2.6V | 00:00:00 | 00:00:00 | 00:00:00 | |
| DM0DOS-11 | 2026-09-03 12:06:21 | 48.33024 | 10.16876 | 109° | 13km/h | 25210m | 4.4m/s | -49.1°C | 3.2% | 26hPa | 2.6V | 08:30:00 | 01:36:44 | 00:00:00 | |
| DK7TD | 2026-09-03 12:06:18 | 48.33024 | 10.16876 | 109° | 13km/h | 25210m | 4.4m/s | -49.2°C | 0% | 26hPa | 2.6V | 18:12:15 | 01:36:44 | 00:00:00 | |
| DK7TD | 2026-09-03 12:06:07 | 48.33038 | 10.16846 | 105° | 9km/h | 25153m | 4.3m/s | -49.5°C | 0% | 26.2hPa | 2.6V | 18:12:15 | 01:36:33 | 00:00:00 | |
| DM0DOS-11 | 2026-09-03 12:06:06 | 48.33039 | 10.16836 | 104° | 16km/h | 25142m | 5.6m/s | -49.4°C | 3.2% | 26.3hPa | 2.7V | 08:30:00 | 01:36:31 | 00:00:00 | |
| DK7TD | 2026-09-03 12:05:57 | 48.33052 | 10.16807 | 170° | 15km/h | 25100m | 4.9m/s | -49.5°C | 0% | 26.5hPa | 2.7V | 18:12:15 | 01:36:23 | 00:00:00 | |
| DM0DOS-11 | 2026-09-03 12:05:56 | 48.33058 | 10.16807 | 188° | 11km/h | 25089m | 6m/s | -49.5°C | 3.2% | 26.5hPa | 2.6V | 08:30:00 | 01:36:21 | 00:00:00 | |
| DK7TD | 2026-09-03 12:05:47 | 48.33074 | 10.16787 | 128° | 13km/h | 25042m | 5.7m/s | -49.4°C | 0% | 26.7hPa | 2.7V | 18:12:15 | 01:36:12 | 00:00:00 | |
| DM0DOS-11 | 2026-09-03 12:05:46 | 48.33081 | 10.16774 | 131° | 15km/h | 25025m | 4.9m/s | -49.4°C | 3.2% | 26.7hPa | 2.6V | 08:30:00 | 01:36:09 | 00:00:00 | |
| DB0UT-7 | 2026-09-03 12:05:46 | 48.33074 | 10.16787 | 128° | 16km/h | 25042m | 5.6m/s | -49.3°C | 3.3% | 26.6hPa | 2.7V | 00:00:00 | 00:00:00 | 00:00:00 | |
| BAUMI2-15 | 2026-09-03 12:05:45 | 48.33076 | 10.16783 | 129° | 13km/h | 25036m | 6.0m/s | -49.3°C | 3.2% | 26.7hPa | 2.7V | 00:00:00 | 01:36:11 | 00:00:00 | |
| DM7RM-13 | 2026-09-03 12:05:43 | 48.33081 | 10.16774 | 133° | 15km/h | 25026m | 4.9m/s | -49.4°C | 0.7% | 26.7hPa | 2.7V | 00:00:00 | 00:00:00 | 00:00:00 | |
| DO3MHA-11 | 2026-09-03 12:05:42 | 48.33083 | 10.16771 | 136° | 13km/h | 25020m | 6.4m/s | -49.3°C | 3.2% | 26.7hPa | 2.7V | 00:00:00 | 01:36:08 | 08:30:00 | |
| DO3MHA-12 | 2026-09-03 12:05:40 | 48.33086 | 10.16768 | 155° | 16km/h | 25009m | 5.0m/s | -49.3°C | 3.2% | 26.8hPa | 2.6V | 00:00:00 | 01:36:06 | 00:00:00 | |
| OE5MMP-10 | 2026-09-03 12:05:39 | 48.33088 | 10.16766 | 149° | 18km/h | 25003m | 6.2m/s | -49.3°C | 3.2% | 26.8hPa | 2.6V | 00:00:00 | 01:36:05 | 00:00:00 | |
| DF1GD-15 | 2026-09-03 12:05:38 | 48.33090 | 10.16764 | 137° | 13km/h | 24997m | 5.6m/s | -49.4°C | 0.8% | 26.9hPa | 2.6V | 00:00:00 | 00:00:00 | 00:00:00 | |
| OE3JTB-15 | 2026-09-03 12:05:37 | 48.33092 | 10.16760 | 126° | 18km/h | 24992m | 4.9m/s | -49.3°C | 3.2% | 26.8hPa | 2.6V | 00:00:00 | 00:00:00 | 00:00:00 | |
| DM0DOS-11 | 2026-09-03 12:05:36 | 48.33098 | 10.16737 | 101° | 20km/h | 24970m | 4.8m/s | -49.3°C | 3.2% | 26.9hPa | 2.6V | 08:30:00 | 01:35:59 | 00:00:00 | |
| DK7TD | 2026-09-03 12:05:36 | 48.33096 | 10.16750 | 108° | 16km/h | 24980m | 6m/s | -49.4°C | 0% | 26.9hPa | 2.7V | 18:12:15 | 01:36:01 | 00:00:00 | |
| DK5PH-5 | 2026-09-03 12:05:35 | 48.33096 | 10.16749 | 108° | 18km/h | 24981m | 6.0m/s | -49.3°C | 3.2% | 26.9hPa | 2.7V | 00:00:00 | 01:36:01 | 00:00:00 | |
| DO3MHA-11 | 2026-09-03 12:05:32 | 48.33099 | 10.16729 | 104° | 16km/h | 24965m | 6.7m/s | -49.3°C | 3.2% | 27.0hPa | 2.7V | 00:00:00 | 01:35:58 | 00:00:00 | |
| AZAK | 2026-09-03 12:05:31 | 48.33101 | 10.16721 | 106° | 26km/h | 24959m | 5.4m/s | -49.4°C | 0.7% | 27.0hPa | 2.7V | 00:00:00 | 00:00:00 | 00:00:00 | |
| DO3MHA-12 | 2026-09-03 12:05:30 | 48.33102 | 10.16712 | 105° | 16km/h | 24954m | 4.5m/s | -49.3°C | 3.2% | 27.0hPa | 2.7V | 00:00:00 | 01:35:56 | 00:00:00 | |
| OE5MMP-10 | 2026-09-03 12:05:29 | 48.33103 | 10.16703 | 101° | 18km/h | 24949m | 5.0m/s | -49.2°C | 3.2% | 27.0hPa | 2.7V | 00:00:00 | 01:35:55 | 00:00:00 | |
| DL9SK-14 | 2026-09-03 12:05:28 | 48.33103 | 10.16690 | 74° | 13km/h | 24937m | 5.6m/s | -49.3°C | 0.7% | 27.1hPa | 2.7V | 00:00:00 | 00:00:00 | 00:00:00 | |
| DM0DOS-11 | 2026-09-03 12:05:26 | 48.33101 | 10.16673 | 91° | 16km/h | 24915m | 5.2m/s | -49.5°C | 3.3% | 27.2hPa | 2.7V | 08:30:00 | 01:35:49 | 00:00:00 | |
| DK7TD | 2026-09-03 12:05:24 | 48.33101 | 10.16678 | 86° | 13km/h | 24920m | 5.7m/s | -49.6°C | 0% | 27.2hPa | 2.7V | 18:12:15 | 01:35:50 | 00:00:00 | |
| PG1ADW-2 | 2026-09-03 12:05:23 | 48.33101 | 10.16673 | 92° | 20km/h | 24915m | 5.1m/s | -49.5°C | 3.3% | 27.2hPa | 2.6V | 00:00:00 | 00:00:00 | 00:00:00 | |
| DO3MHA-11 | 2026-09-03 12:05:22 | 48.33101 | 10.16666 | 91° | 24km/h | 24910m | 5.5m/s | -49.4°C | 3.3% | 27.2hPa | 2.6V | 00:00:00 | 01:35:48 | 00:00:00 | |
| DO3MHA-12 | 2026-09-03 12:05:20 | 48.33100 | 10.16649 | 88° | 22km/h | 24898m | 5.1m/s | -49.4°C | 3.3% | 27.2hPa | 2.6V | 00:00:00 | 01:35:46 | 00:00:00 | |
| OE5MMP-10 | 2026-09-03 12:05:19 | 48.33100 | 10.16638 | 93° | 20km/h | 24893m | 5.5m/s | -49.4°C | 3.3% | 27.3hPa | 2.6V | 00:00:00 | 01:35:45 | 00:00:00 | |
| DB0UT-7 | 2026-09-03 12:05:16 | 48.33104 | 10.16604 | 100° | 18km/h | 24877m | 4.6m/s | -49.4°C | 3.2% | 27.3hPa | 2.6V | 00:00:00 | 01:35:42 | 00:00:00 | |
| DM0DOS-11 | 2026-09-03 12:05:14 | 48.33101 | 10.16561 | 76° | 16km/h | 24831m | 6.8m/s | -49.6°C | 3.2% | 27.6hPa | 2.6V | 08:30:00 | 01:35:34 | 00:00:00 | |
| DK7TD | 2026-09-03 12:05:14 | 48.33104 | 10.16582 | 71° | 13km/h | 24859m | 5.4m/s | -49.5°C | 0% | 27.4hPa | 2.6V | 18:12:15 | 01:35:39 | 00:00:00 | |
| DJ8HS-15 | 2026-09-03 12:05:12 | 48.33103 | 10.16578 | 66° | 16km/h | 24854m | 5.9m/s | -49.4°C | 3.2% | 27.4hPa | 2.7V | 00:00:00 | 01:35:38 | 08:30:00 | |
| AZAK | 2026-09-03 12:05:11 | 48.33102 | 10.16575 | 75° | 9km/h | 24848m | 5.8m/s | -49.3°C | 0.7% | 27.5hPa | 2.6V | 00:00:00 | 00:00:00 | 00:00:00 | |
| BIOWL9-15 | 2026-09-03 12:05:10 | 48.33101 | 10.16566 | 81° | 13km/h | 24837m | 4.5m/s | 0°C | -1.0% | 27.5hPa | 2.6V | 00:00:00 | 00:00:00 | 00:00:00 | |
| OE5MMP-10 | 2026-09-03 12:05:09 | 48.33101 | 10.16566 | 82° | 22km/h | 24838m | 4.4m/s | -49.4°C | 3.2% | 27.5hPa | 2.6V | 00:00:00 | 01:35:35 | 00:00:00 | |
| OE3JTB-15 | 2026-09-03 12:05:08 | 48.33101 | 10.16561 | 77° | 18km/h | 24832m | 6.7m/s | -49.5°C | 3.2% | 27.5hPa | 2.6V | 00:00:00 | 01:35:34 | 00:00:00 | |
| NBG1-10 | 2026-09-03 12:05:07 | 48.33099 | 10.16554 | 78° | 18km/h | 24826m | 5.6m/s | -49.5°C | 3.2% | 27.5hPa | 2.6V | 00:00:00 | 01:35:33 | 00:00:00 | |
| OE5DXL-15 | 2026-09-03 12:05:06 | 48.33099 | 10.16545 | 85° | 18km/h | 24820m | 5.2m/s | -49.4°C | 3.2% | 27.6hPa | 2.6V | 00:00:00 | 00:00:00 | 00:00:00 | |
| DK5PH-5 | 2026-09-03 12:05:05 | 48.33098 | 10.16536 | 92° | 18km/h | 24814m | 6.6m/s | -49.5°C | 3.2% | 27.6hPa | 2.6V | 00:00:00 | 01:35:31 | 00:00:00 | |
| PG1ADW-2 | 2026-09-03 12:05:03 | 48.33100 | 10.16515 | 99° | 18km/h | 24803m | 4.7m/s | -49.5°C | 3.2% | 27.6hPa | 2.6V | 00:00:00 | 00:00:00 | 00:00:00 | |
| DM0DOS-11 | 2026-09-03 12:05:02 | 48.33099 | 10.16480 | 81° | 11km/h | 24775m | 6.5m/s | -49.6°C | 3.3% | 27.8hPa | 2.6V | 08:30:00 | 01:35:24 | 00:00:00 | |
| DK7TD | 2026-09-03 12:05:02 | 48.33101 | 10.16506 | 95° | 24km/h | 24797m | 5.9m/s | -49.5°C | 0% | 27.7hPa | 2.6V | 18:12:15 | 01:35:28 | 00:00:00 | |
| DK7TD | 2026-09-03 12:04:51 | 48.33089 | 10.16442 | 69° | 22km/h | 24737m | 6.1m/s | -49.5°C | 0% | 28hPa | 2.6V | 18:12:15 | 01:35:17 | 00:00:00 | |
| DK7TD | 2026-09-03 12:04:41 | 48.33074 | 10.16379 | 66° | 13km/h | 24683m | 4.5m/s | -49.5°C | 0% | 28.2hPa | 2.7V | 18:12:15 | 01:35:07 | 00:00:00 | |
| DO3MHA-12 | 2026-09-03 12:04:40 | 48.33072 | 10.16375 | 48° | 13km/h | 24678m | 5.4m/s | -49.6°C | 3.3% | 28.2hPa | 2.6V | 00:00:00 | 01:35:06 | 08:30:00 | |
| OE5MMP-10 | 2026-09-03 12:04:39 | 48.33069 | 10.16373 | 31° | 13km/h | 24672m | 6.2m/s | -49.6°C | 3.3% | 28.2hPa | 2.6V | 00:00:00 | 01:35:05 | 08:30:00 | |
| OE9MKV-15 | 2026-09-03 12:04:37 | 48.33062 | 10.16368 | 25° | 7km/h | 24662m | 4.3m/s | -49.7°C | 3.2% | 28.2hPa | 2.6V | 00:00:00 | 01:35:03 | 08:30:00 | |
| OE5DXL-15 | 2026-09-03 12:04:36 | 48.33059 | 10.16365 | 39° | 7km/h | 24657m | 5.1m/s | -49.8°C | 3.2% | 28.3hPa | 2.6V | 00:00:00 | 00:00:00 | 00:00:00 | |
| DF1GD-15 | 2026-09-03 12:04:35 | 48.33057 | 10.16361 | 62° | 13km/h | 24651m | 6.4m/s | -49.8°C | 0.8% | 28.3hPa | 2.6V | 00:00:00 | 00:00:00 | 00:00:00 | |
| NBG1-10 | 2026-09-03 12:04:34 | 48.33056 | 10.16356 | 89° | 7km/h | 24645m | 5.5m/s | -49.8°C | 3.2% | 28.3hPa | 2.6V | 00:00:00 | 01:35:00 | 00:00:00 | |
| DO3MHA-11 | 2026-09-03 12:04:32 | 48.33057 | 10.16347 | 110° | 9km/h | 24635m | 5.6m/s | -49.8°C | 3.2% | 28.4hPa | 2.6V | 00:00:00 | 01:34:58 | 00:00:00 | |
| DM0DOS-11 | 2026-09-03 12:04:31 | 48.33050 | 10.16329 | 37° | 11km/h | 24602m | 5.7m/s | -49.9°C | 3.2% | 28.6hPa | 2.6V | 08:30:00 | 01:34:52 | 00:00:00 | |
| DK7TD | 2026-09-03 12:04:30 | 48.33058 | 10.16341 | 70° | 7km/h | 24623m | 5.1m/s | -49.9°C | 0% | 28.5hPa | 2.7V | 18:12:15 | 01:34:56 | 00:00:00 | |
| DK7TD | 2026-09-03 12:04:20 | 48.33043 | 10.16323 | 23° | 5km/h | 24568m | 4.7m/s | -50.1°C | 0% | 28.7hPa | 2.6V | 18:12:15 | 01:34:46 | 00:00:00 | |
| DO3MHA-12 | 2026-09-03 12:04:20 | 48.33043 | 10.16323 | 23° | 7km/h | 24568m | 4.7m/s | -50.0°C | 3.3% | 28.7hPa | 2.7V | 00:00:00 | 01:34:46 | 00:00:00 | |
| OE5MMP-10 | 2026-09-03 12:04:19 | 48.33042 | 10.16323 | 7° | 7km/h | 24563m | 6.5m/s | -50.2°C | 3.4% | 28.7hPa | 2.7V | 00:00:00 | 01:34:45 | 00:00:00 | |
| DO9LL-15 | 2026-09-03 12:04:18 | 48.33042 | 10.16323 | 324° | 7km/h | 24557m | 6.2m/s | -50.2°C | 3.4% | 28.7hPa | 2.7V | 00:00:00 | 01:34:44 | 00:00:00 | |
| DB0UT-7 | 2026-09-03 12:04:16 | 48.33039 | 10.16325 | 344° | 9km/h | 24545m | 6.2m/s | -50.1°C | 3.4% | 28.8hPa | 2.7V | 00:00:00 | 01:34:42 | 00:00:00 | |
| DM0DOS-11 | 2026-09-03 12:04:15 | 48.33029 | 10.16330 | 307° | 7km/h | 24515m | 5.1m/s | -50.3°C | 3.4% | 29hPa | 2.7V | 08:30:00 | 01:34:37 | 00:00:00 | |
| DK7TD | 2026-09-03 12:04:09 | 48.33027 | 10.16333 | 332° | 5km/h | 24504m | 6.8m/s | -50.1°C | 0% | 29hPa | 2.6V | 18:12:15 | 01:34:35 | 00:00:00 | |
| DK7TD | 2026-09-03 12:03:58 | 48.33011 | 10.16371 | 286° | 13km/h | 24441m | 4.6m/s | -50.2°C | 0% | 29.3hPa | 2.7V | 18:12:15 | 01:34:24 | 00:00:00 | |
| DL9SK-14 | 2026-09-03 12:03:54 | 48.33007 | 10.16379 | 49° | 2km/h | 24418m | 6.1m/s | -50.0°C | 0.7% | 29.4hPa | 2.7V | 00:00:00 | 00:00:00 | 00:00:00 | |
| OE5DRO-10 | 2026-09-03 12:03:53 | 48.33006 | 10.16377 | 102° | 7km/h | 24411m | 6.4m/s | -50.0°C | 3.2% | 29.3hPa | 2.7V | 00:00:00 | 00:00:00 | 00:00:00 | |
| DM0DOS-11 | 2026-09-03 12:03:52 | 48.33005 | 10.16372 | 3° | 7km/h | 24383m | 5m/s | -50.2°C | 3.2% | 29.6hPa | 2.7V | 08:30:00 | 01:34:14 | 00:00:00 | |
| DK7TD | 2026-09-03 12:03:47 | 48.33003 | 10.16373 | 337° | 9km/h | 24377m | 5.8m/s | -50.3°C | 0% | 29.6hPa | 2.7V | 18:12:15 | 01:34:13 | 00:00:00 | |
| DF3TZ-5 | 2026-09-03 12:03:44 | 48.32998 | 10.16384 | 284° | 13km/h | 24360m | 5.1m/s | -50.7°C | -1.0% | 29.7hPa | 2.7V | 00:00:00 | 00:00:00 | 00:00:00 | |
| DK7TD | 2026-09-03 12:03:36 | 48.32994 | 10.16400 | 10° | 9km/h | 24314m | 5.9m/s | -51.1°C | 0.1% | 29.9hPa | 2.7V | 18:12:15 | 01:34:02 | 00:00:00 | |
| OE5DXL-15 | 2026-09-03 12:03:36 | 48.32994 | 10.16400 | 11° | 9km/h | 24314m | 5.9m/s | -51.0°C | 3.4% | 29.8hPa | 2.7V | 00:00:00 | 00:00:00 | 00:00:00 | |
| DK5PH-5 | 2026-09-03 12:03:35 | 48.32992 | 10.16399 | 7° | 7km/h | 24309m | 4.7m/s | -51.0°C | 3.4% | 29.8hPa | 2.7V | 00:00:00 | 01:34:01 | 00:00:00 | |
| DM0DOS-11 | 2026-09-03 12:03:34 | 48.32985 | 10.16409 | 294° | 4km/h | 24275m | 5.5m/s | -50.9°C | 3.5% | 30hPa | 2.7V | 08:30:00 | 01:33:55 | 00:00:00 | |
| DK7TD | 2026-09-03 12:03:26 | 48.32982 | 10.16415 | 296° | 9km/h | 24258m | 6.3m/s | -51°C | 0.1% | 30.1hPa | 2.6V | 18:12:15 | 01:33:52 | 00:00:00 | |
| DK7TD | 2026-09-03 12:03:15 | 48.32978 | 10.16436 | 232° | 7km/h | 24197m | 5.8m/s | -51.2°C | 0.2% | 30.4hPa | 2.6V | 18:12:15 | 01:33:41 | 00:00:00 | |
| DK7TD | 2026-09-03 12:03:04 | 48.32965 | 10.16450 | 217° | 7km/h | 24135m | 4.8m/s | -51.1°C | 0.1% | 30.7hPa | 2.7V | 18:12:15 | 01:33:30 | 00:00:00 | |
| BAUMI2-15 | 2026-09-03 12:03:04 | 48.32965 | 10.16449 | 218° | 5km/h | 24136m | 4.7m/s | -51.0°C | 3.5% | 30.6hPa | 2.7V | 00:00:00 | 01:33:30 | 00:00:00 | |
| DF7PN | 2026-09-03 12:03:03 | 48.32968 | 10.16452 | 200° | 4km/h | 24125m | 5.4m/s | -51.0°C | 0.8% | 30.8hPa | 2.6V | 00:00:00 | 00:00:00 | 00:00:00 | |
| DM0DOS-11 | 2026-09-03 12:03:02 | 48.32962 | 10.16467 | 311° | 18km/h | 24097m | 4.9m/s | -51.1°C | 3.5% | 30.9hPa | 2.6V | 08:30:00 | 01:33:23 | 00:00:00 | |
| DK7TD | 2026-09-03 12:02:54 | 48.32955 | 10.16479 | 291° | 9km/h | 24082m | 4.5m/s | -51°C | 0.1% | 30.9hPa | 2.7V | 18:12:15 | 01:33:20 | 00:00:00 | |
| BAUMI2-15 | 2026-09-03 12:02:54 | 48.32955 | 10.16479 | 291° | 13km/h | 24082m | 4.5m/s | -51.0°C | 3.4% | 30.9hPa | 2.7V | 00:00:00 | 01:33:20 | 00:00:00 | |
| DM0DOS-11 | 2026-09-03 12:02:52 | 48.32962 | 10.16511 | 267° | 9km/h | 24044m | 4.5m/s | -51.2°C | 3.4% | 31.1hPa | 2.7V | 08:30:00 | 01:33:13 | 00:00:00 | |
| DL6DJ-15 | 2026-09-03 12:02:50 | 48.32960 | 10.16503 | 241° | 13km/h | 24055m | 5.8m/s | -51.2°C | 0.8% | 31.1hPa | 2.6V | 00:00:00 | 00:00:00 | 00:00:00 | |
| DK7TD | 2026-09-03 12:02:43 | 48.32957 | 10.16535 | 290° | 24km/h | 24023m | 4.8m/s | -51.2°C | 0.1% | 31.3hPa | 2.6V | 18:12:15 | 01:33:09 | 00:00:00 | |
| PG1ADW-2 | 2026-09-03 12:02:43 | 48.32957 | 10.16535 | 290° | 20km/h | 24023m | 4.8m/s | -51.1°C | 3.5% | 31.2hPa | 2.6V | 00:00:00 | 00:00:00 | 08:30:00 | |
| DM0DOS-11 | 2026-09-03 12:02:42 | 48.32959 | 10.16582 | 244° | 20km/h | 23992m | 4.7m/s | -51.5°C | 3.5% | 31.4hPa | 2.7V | 08:30:00 | 01:33:03 | 00:00:00 | |
| DK7TD | 2026-09-03 12:02:32 | 48.32965 | 10.16609 | 266° | 20km/h | 23966m | 5.4m/s | -51.8°C | 0.2% | 31.5hPa | 2.6V | 18:12:15 | 01:32:58 | 00:00:00 | |
| DM0DOS-11 | 2026-09-03 12:02:32 | 48.32972 | 10.16650 | 239° | 22km/h | 23941m | 5m/s | -51.5°C | 3.6% | 31.6hPa | 2.6V | 08:30:00 | 01:32:53 | 00:00:00 | |
| DK7TD | 2026-09-03 12:02:22 | 48.32984 | 10.16682 | 231° | 15km/h | 23915m | 6.2m/s | -51.7°C | 0.2% | 31.8hPa | 2.6V | 18:12:15 | 01:32:48 | 00:00:00 | |
| DK7TD | 2026-09-03 12:02:12 | 48.33017 | 10.16741 | 240° | 24km/h | 23862m | 4.9m/s | -51.7°C | 0.2% | 32hPa | 2.7V | 18:12:15 | 01:32:38 | 00:00:00 | |
| DO3MHA-11 | 2026-09-03 12:02:12 | 48.33017 | 10.16741 | 240° | 22km/h | 23862m | 4.8m/s | -51.7°C | 3.6% | 32.0hPa | 2.7V | 00:00:00 | 01:32:38 | 00:00:00 | |
| OE3JTB-15 | 2026-09-03 12:02:11 | 48.33020 | 10.16748 | 238° | 20km/h | 23857m | 4.6m/s | -51.6°C | 3.6% | 32.0hPa | 2.6V | 00:00:00 | 01:32:37 | 00:00:00 | |
| DF1GD-15 | 2026-09-03 12:02:10 | 48.33019 | 10.16749 | 239° | 22km/h | 23857m | 4.7m/s | -51.7°C | 0.9% | 32.1hPa | 2.6V | 00:00:00 | 00:00:00 | 00:00:00 | |
| DM0DOS-11 | 2026-09-03 12:02:09 | 48.33031 | 10.16763 | 204° | 22km/h | 23842m | 4m/s | -51.5°C | 3.5% | 32.1hPa | 2.6V | 08:30:00 | 01:32:34 | 00:00:00 | |
| BAUMI2-15 | 2026-09-03 12:02:09 | 48.33027 | 10.16760 | 213° | 22km/h | 23847m | 4.6m/s | -51.5°C | 3.5% | 32.1hPa | 2.6V | 00:00:00 | 01:32:35 | 00:00:00 | |
| OE5MMP-10 | 2026-09-03 12:02:08 | 48.33031 | 10.16763 | 205° | 22km/h | 23843m | 3.9m/s | 0°C | 0% | 0hPa | 2.6V | 00:00:00 | 01:32:34 | 00:00:00 | |
| OE5DXL-15 | 2026-09-03 12:02:06 | 48.33042 | 10.16771 | 211° | 22km/h | 23832m | 5.8m/s | -51.5°C | 3.6% | 32.1hPa | 2.6V | 00:00:00 | 00:00:00 | 00:00:00 | |
| DK5PH-5 | 2026-09-03 12:02:05 | 48.33046 | 10.16776 | 217° | 22km/h | 23827m | 4.9m/s | -51.5°C | 3.5% | 32.2hPa | 2.6V | 00:00:00 | 01:32:31 | 00:00:00 | |
| DM0DOS-11 | 2026-09-03 12:02:04 | 48.33075 | 10.16808 | 223° | 22km/h | 23792m | 5m/s | -51.7°C | 3.5% | 32.4hPa | 2.6V | 08:30:00 | 01:32:24 | 00:00:00 | |
| DK7TD | 2026-09-03 12:02:01 | 48.33063 | 10.16795 | 212° | 18km/h | 23806m | 4.5m/s | -51.7°C | 0.2% | 32.3hPa | 2.7V | 18:12:15 | 01:32:27 | 00:00:00 | |
| BIOWL1-15 | 2026-09-03 12:01:56 | 48.33083 | 10.16819 | 217° | 18km/h | 23783m | 4.8m/s | -52°C | 0.2% | 32.4hPa | 2.6V | 18:12:15 | 01:32:22 | 00:00:00 | |
| DK7TD | 2026-09-03 12:01:51 | 48.33103 | 10.16826 | 186° | 18km/h | 23757m | 4.4m/s | -52°C | 0.2% | 32.6hPa | 2.6V | 18:12:15 | 01:32:17 | 00:00:00 | |
| BIOWL1-15 | 2026-09-03 12:01:45 | 48.33134 | 10.16830 | 199° | 26km/h | 23727m | 5.2m/s | -51.9°C | 0.2% | 32.7hPa | 2.7V | 18:12:15 | 01:32:11 | 00:00:00 | |
| DM0DOS-11 | 2026-09-03 12:01:44 | 48.33160 | 10.16840 | 185° | 26km/h | 23707m | 4.3m/s | -51.9°C | 3.5% | 32.8hPa | 2.7V | 08:30:00 | 01:32:07 | 00:00:00 | |
| DK7TD | 2026-09-03 12:01:40 | 48.33166 | 10.16840 | 185° | 26km/h | 23702m | 4.9m/s | -52°C | 0.1% | 32.8hPa | 2.7V | 18:12:15 | 01:32:06 | 00:00:00 | |
| DB0NH | 2026-09-03 12:01:40 | 48.33166 | 10.16840 | 185° | 16km/h | 23702m | 4.9m/s | -51.9°C | 3.5% | 32.8hPa | 2.7V | 00:00:00 | 01:32:06 | 00:00:00 | |
| BAUMI2-15 | 2026-09-03 12:01:39 | 48.33173 | 10.16841 | 185° | 24km/h | 23697m | 5.6m/s | 0°C | 0% | 0hPa | 2.7V | 00:00:00 | 01:32:05 | 00:00:00 | |
| OE5MMP-10 | 2026-09-03 12:01:38 | 48.33179 | 10.16842 | 184° | 22km/h | 23692m | 4.4m/s | 0°C | 0% | 0hPa | 2.7V | 00:00:00 | 01:32:04 | 08:30:00 | |
| OE5DXL-15 | 2026-09-03 12:01:36 | 48.33190 | 10.16841 | 167° | 15km/h | 23683m | 5.5m/s | -52.1°C | 3.6% | 32.9hPa | 2.7V | 00:00:00 | 00:00:00 | 00:00:00 | |
| DK5PH-5 | 2026-09-03 12:01:35 | 48.33195 | 10.16838 | 155° | 13km/h | 23677m | 5.7m/s | -52.0°C | 3.7% | 32.9hPa | 2.7V | 00:00:00 | 01:32:01 | 00:00:00 | |
| DM0DOS-11 | 2026-09-03 12:01:34 | 48.33214 | 10.16827 | 174° | 18km/h | 23657m | 4.1m/s | -52.1°C | 3.7% | 33.1hPa | 2.6V | 08:30:00 | 01:31:57 | 00:00:00 | |
| DK7TD | 2026-09-03 12:01:30 | 48.33219 | 10.16826 | 179° | 18km/h | 23653m | 4.5m/s | -52.2°C | 0.2% | 33.1hPa | 2.6V | 18:12:15 | 01:31:56 | 00:00:00 | |
| BIOWL1-15 | 2026-09-03 12:01:26 | 48.33239 | 10.16836 | 210° | 15km/h | 23623m | 4.6m/s | -52.2°C | 0.2% | 33.3hPa | 2.6V | 18:12:15 | 01:31:50 | 00:00:00 | |
| DK7TD | 2026-09-03 12:01:19 | 48.33258 | 10.16836 | 178° | 20km/h | 23597m | 5m/s | -52.1°C | 0.3% | 33.4hPa | 2.6V | 18:12:15 | 01:31:45 | 00:00:00 | |
| BIOWL1-15 | 2026-09-03 12:01:16 | 48.33277 | 10.16839 | 250° | 5km/h | 23563m | 5.2m/s | -52.2°C | 0.3% | 33.6hPa | 2.6V | 18:12:15 | 01:31:38 | 00:00:00 | |
| DK7TD | 2026-09-03 12:01:08 | 48.33281 | 10.16846 | 202° | 7km/h | 23543m | 4m/s | -52.2°C | 0.3% | 33.6hPa | 2.6V | 18:12:15 | 01:31:34 | 00:00:00 | |
| SONDE2-11 | 2026-09-03 12:01:07 | 48.33286 | 10.16849 | 201° | 13km/h | 23533m | 5.9m/s | 0°C | -1.0% | -1.0hPa | 2.6V | 00:00:00 | 00:00:00 | 00:00:00 | |
| OE5DXL-15 | 2026-09-03 12:01:06 | 48.33286 | 10.16849 | 202° | 11km/h | 23533m | 5.9m/s | -52.2°C | 3.7% | 33.7hPa | 2.6V | 00:00:00 | 00:00:00 | 08:30:00 | |
| DM0DOS-11 | 2026-09-03 12:01:05 | 48.33303 | 10.16857 | 228° | 9km/h | 23502m | 5.8m/s | -52.1°C | 3.7% | 33.9hPa | 2.7V | 08:30:00 | 01:31:26 | 00:00:00 | |
| BIOWL1-15 | 2026-09-03 12:01:03 | 48.33296 | 10.16853 | 188° | 13km/h | 23517m | 5.6m/s | -52.2°C | 0.3% | 0hPa | 2.6V | 18:12:15 | 01:31:29 | 00:00:00 | |
| DK7TD | 2026-09-03 12:00:57 | 48.33305 | 10.16866 | 291° | 7km/h | 23487m | 5.8m/s | -52°C | 0.2% | 34hPa | 2.6V | 18:12:15 | 01:31:23 | 00:00:00 | |
| BIOWL1-15 | 2026-09-03 12:00:52 | 48.33310 | 10.16876 | 182° | 13km/h | 23454m | 4.8m/s | -51.9°C | 0.1% | 0hPa | 2.6V | 18:12:15 | 01:31:16 | 00:00:00 | |
| DK7TD | 2026-09-03 12:00:47 | 48.33322 | 10.16879 | 195° | 18km/h | 23438m | 5.2m/s | -51.9°C | 0.2% | 34.2hPa | 2.7V | 18:12:15 | 01:31:13 | 00:00:00 | |
| DB0ND-19 | 2026-09-03 12:00:46 | 48.33327 | 10.16881 | 197° | 16km/h | 23433m | 5.0m/s | -51.9°C | 0.9% | 34.2hPa | 2.7V | 00:00:00 | 00:00:00 | 00:00:00 | |
| DL6DJ-15 | 2026-09-03 12:00:45 | 48.33330 | 10.16883 | 197° | 13km/h | 23428m | 5.8m/s | -52.0°C | 0.9% | 34.3hPa | 2.7V | 00:00:00 | 00:00:00 | 00:00:00 | |
| BIOWL1-15 | 2026-09-03 12:00:41 | 48.33338 | 10.16896 | 249° | 11km/h | 23403m | 4.4m/s | -52.3°C | 0.2% | 0hPa | 2.7V | 18:12:15 | 01:31:06 | 00:00:00 | |
| DK7TD | 2026-09-03 12:00:37 | 48.33343 | 10.16903 | 194° | 13km/h | 23388m | 4m/s | -52.5°C | 0.2% | 34.5hPa | 2.6V | 18:12:15 | 01:31:03 | 00:00:00 | |
| DM0DOS-11 | 2026-09-03 12:00:35 | 48.33363 | 10.16910 | 191° | 24km/h | 23368m | 3.9m/s | -52.4°C | 3.8% | 34.6hPa | 2.7V | 08:30:00 | 01:30:59 | 00:00:00 | |
| BIOWL1-15 | 2026-09-03 12:00:31 | 48.33403 | 10.16922 | 172° | 16km/h | 23318m | 4.7m/s | 0°C | 0% | 0hPa | 2.7V | 18:12:15 | 01:30:49 | 00:00:00 | |
| DK7TD | 2026-09-03 12:00:26 | 48.33392 | 10.16921 | 202° | 15km/h | 23333m | 4.4m/s | -52.4°C | 0.3% | 34.8hPa | 2.6V | 18:12:15 | 01:30:52 | 00:00:00 | |
| OE5MMP-10 | 2026-09-03 12:00:25 | 48.33395 | 10.16922 | 192° | 15km/h | 23328m | 6.1m/s | 0°C | 0% | 0hPa | 2.6V | 00:00:00 | 01:30:51 | 00:00:00 | |
| OE5DRO-10 | 2026-09-03 12:00:24 | 48.33399 | 10.16923 | 177° | 16km/h | 23323m | 5.0m/s | -52.3°C | 3.7% | 34.8hPa | 2.6V | 00:00:00 | 00:00:00 | 00:00:00 | |
| DM0DOS-11 | 2026-09-03 12:00:23 | 48.33422 | 10.16918 | 160° | 11km/h | 23291m | 4.5m/s | -51.9°C | 3.5% | 35hPa | 2.6V | 08:30:00 | 01:30:44 | 00:00:00 | |
| BIOWL1-15 | 2026-09-03 12:00:20 | 48.33415 | 10.16920 | 173° | 16km/h | 23302m | 4.9m/s | 0°C | 0% | 0hPa | 2.6V | 18:12:15 | 01:30:46 | 00:00:00 | |
| DK7TD | 2026-09-03 12:00:15 | 48.33430 | 10.16918 | 193° | 11km/h | 23276m | 4.4m/s | -51.9°C | 0.1% | 35.1hPa | 2.7V | 18:12:15 | 01:30:41 | 00:00:00 | |
| DB0ND-19 | 2026-09-03 12:00:15 | 48.33430 | 10.16918 | 193° | 9km/h | 23276m | 4.4m/s | -51.9°C | 0.8% | 35.1hPa | 2.6V | 00:00:00 | 00:00:00 | 00:00:00 | |
| OE5MMP-10 | 2026-09-03 12:00:14 | 48.33432 | 10.16918 | 183° | 18km/h | 23271m | 4.9m/s | 0°C | 0% | 0hPa | 2.6V | 00:00:00 | 01:30:40 | 00:00:00 | |
| DM0DOS-11 | 2026-09-03 12:00:13 | 48.33457 | 10.16903 | 151° | 20km/h | 23239m | 4.4m/s | -52.1°C | 3.6% | 35.3hPa | 2.6V | 08:30:00 | 01:30:34 | 00:00:00 | |
| DK7TD | 2026-09-03 12:00:05 | 48.33469 | 10.16890 | 142° | 16km/h | 23223m | 4.9m/s | -52.1°C | 0.2% | 35.4hPa | 2.7V | 18:12:15 | 01:30:31 | 00:00:00 | |
| OE5DRO-10 | 2026-09-03 12:00:05 | 48.33469 | 10.16890 | 142° | 20km/h | 23223m | 4.9m/s | -52.1°C | 3.6% | 35.3hPa | 2.7V | 00:00:00 | 00:00:00 | 00:00:00 | |
| DM0DOS-11 | 2026-09-03 12:00:03 | 48.33493 | 10.16864 | 146° | 22km/h | 23186m | 6m/s | -52.5°C | 3.7% | 35.6hPa | 2.7V | 08:30:00 | 01:30:24 | 00:00:00 | |
| DK7TD | 2026-09-03 11:59:54 | 48.33513 | 10.16840 | 129° | 27km/h | 23164m | 4.9m/s | -52.6°C | 0.2% | 35.7hPa | 2.6V | 18:12:15 | 01:30:20 | 00:00:00 | |
| DM0DOS-11 | 2026-09-03 11:59:53 | 48.33529 | 10.16800 | 106° | 20km/h | 23132m | 5.3m/s | -52.6°C | 3.7% | 35.9hPa | 2.6V | 08:30:00 | 01:30:14 | 00:00:00 | |
| DL9SK-14 | 2026-09-03 11:59:46 | 48.33532 | 10.16786 | 110° | 18km/h | 23122m | 6.2m/s | -52.5°C | 0.9% | 35.9hPa | 2.6V | 00:00:00 | 00:00:00 | 00:00:00 | |
| DK7TD | 2026-09-03 11:59:43 | 48.33540 | 10.16766 | 122° | 26km/h | 23106m | 6m/s | -52.7°C | 0.3% | 36hPa | 2.6V | 18:12:15 | 01:30:09 | 00:00:00 | |
| BIOWL1-15 | 2026-09-03 11:59:39 | 48.33555 | 10.16736 | 131° | 20km/h | 23086m | 4.5m/s | 0°C | 0% | 0hPa | 2.7V | 18:12:15 | 01:30:05 | 00:00:00 | |
| DK7TD | 2026-09-03 11:59:33 | 48.33562 | 10.16698 | 87° | 16km/h | 23055m | 6.3m/s | -53°C | 0.3% | 36.3hPa | 2.7V | 18:12:15 | 01:29:59 | 00:00:00 | |
| DK7TD | 2026-09-03 11:59:22 | 48.33575 | 10.16629 | 119° | 24km/h | 22997m | 4.8m/s | -53°C | 0.3% | 36.6hPa | 2.7V | 18:12:15 | 01:29:48 | 00:00:00 | |
| DO3MHA-12 | 2026-09-03 11:59:20 | 48.33580 | 10.16614 | 117° | 15km/h | 22987m | 5.9m/s | -53.1°C | 3.8% | 36.6hPa | 2.7V | 00:00:00 | 01:29:46 | 00:00:00 | |
| AZAK | 2026-09-03 11:59:19 | 48.33582 | 10.16609 | 108° | 13km/h | 22982m | 5.2m/s | -53.1°C | 0.9% | 36.7hPa | 2.7V | 00:00:00 | 00:00:00 | 00:00:00 | |
| DB0UT-7 | 2026-09-03 11:59:16 | 48.33580 | 10.16595 | 57° | 9km/h | 22965m | 5.3m/s | -53.2°C | 3.8% | 36.8hPa | 2.7V | 00:00:00 | 01:29:42 | 08:30:00 | |
| DL9SK-14 | 2026-09-03 11:59:15 | 48.33577 | 10.16590 | 49° | 15km/h | 22960m | 5.3m/s | -53.2°C | 0.9% | 36.9hPa | 2.7V | 00:00:00 | 00:00:00 | 00:00:00 | |
| DM0DOS-11 | 2026-09-03 11:59:14 | 48.33570 | 10.16561 | 113° | 15km/h | 22927m | 5.8m/s | -53°C | 3.9% | 37hPa | 2.7V | 08:30:00 | 01:29:35 | 00:00:00 | |
| DK7TD | 2026-09-03 11:59:12 | 48.33570 | 10.16577 | 66° | 13km/h | 22943m | 5.7m/s | -53°C | 0.4% | 37hPa | 2.6V | 18:12:15 | 01:29:38 | 00:00:00 | |
| DK7TD | 2026-09-03 11:59:01 | 48.33572 | 10.16544 | 6° | 11km/h | 22885m | 5.7m/s | -53°C | 0.3% | 37.3hPa | 2.6V | 18:12:15 | 01:29:27 | 00:00:00 | |
| DK7TD | 2026-09-03 11:58:50 | 48.33568 | 10.16530 | 317° | 4km/h | 22826m | 4.6m/s | -52.6°C | 0.3% | 37.6hPa | 2.7V | 18:12:15 | 01:29:16 | 00:00:00 | |
| DL9SK-14 | 2026-09-03 11:58:44 | 48.33563 | 10.16545 | 341° | 0km/h | 22794m | 4.7m/s | -52.4°C | 0.9% | 37.8hPa | 2.7V | 00:00:00 | 00:00:00 | 00:00:00 | |
| DK7TD | 2026-09-03 11:58:40 | 48.33566 | 10.16543 | 175° | 4km/h | 22773m | 4.8m/s | -52.8°C | 0.2% | 38hPa | 2.7V | 18:12:15 | 01:29:06 | 00:00:00 | |
| DK7TD | 2026-09-03 11:58:29 | 48.33578 | 10.16575 | 248° | 15km/h | 22716m | 6.3m/s | -52.8°C | 0.3% | 38.3hPa | 2.6V | 18:12:15 | 01:28:55 | 00:00:00 | |
| DO3MHA-11 | 2026-09-03 11:58:28 | 48.33580 | 10.16579 | 232° | 13km/h | 22710m | 5.4m/s | -52.7°C | 3.8% | 38.3hPa | 2.7V | 00:00:00 | 01:28:54 | 00:00:00 | |
| DM0DOS-11 | 2026-09-03 11:58:27 | 48.33584 | 10.16584 | 188° | 9km/h | 22699m | 6m/s | -52.8°C | 3.8% | 38.4hPa | 2.7V | 08:30:00 | 01:28:52 | 00:00:00 | |
| DH7VM-15 | 2026-09-03 11:58:26 | 48.33584 | 10.16584 | 190° | 9km/h | 22699m | 6.0m/s | -52.8°C | 0.9% | 38.4hPa | 2.6V | 00:00:00 | 00:00:00 | 00:00:00 | |
| DF1GD-15 | 2026-09-03 11:58:25 | 48.33584 | 10.16584 | 190° | 9km/h | 22699m | 6.0m/s | -52.8°C | 1.0% | 38.4hPa | 2.6V | 00:00:00 | 00:00:00 | 00:00:00 | |
| PG1ADW-2 | 2026-09-03 11:58:23 | 48.33590 | 10.16582 | 172° | 18km/h | 22684m | 5.1m/s | -52.7°C | 3.7% | 38.4hPa | 2.6V | 00:00:00 | 00:00:00 | 00:00:00 | |
| DM0DOS-11 | 2026-09-03 11:58:21 | 48.33618 | 10.16608 | 220° | 20km/h | 22646m | 5.5m/s | -52.6°C | 3.8% | 38.7hPa | 2.6V | 08:30:00 | 01:28:42 | 00:00:00 | |
| DK7TD | 2026-09-03 11:58:19 | 48.33607 | 10.16592 | 219° | 22km/h | 22662m | 6m/s | -52.6°C | 0.3% | 38.6hPa | 2.6V | 18:12:15 | 01:28:45 | 00:00:00 | |
| DK7TD | 2026-09-03 11:58:08 | 48.33651 | 10.16614 | 174° | 22km/h | 22605m | 5.1m/s | -52.3°C | 0.2% | 39hPa | 2.7V | 18:12:15 | 01:28:34 | 00:00:00 | |
| DO3MHA-11 | 2026-09-03 11:58:08 | 48.33651 | 10.16614 | 175° | 16km/h | 22605m | 5.1m/s | -52.3°C | 3.7% | 38.9hPa | 2.7V | 00:00:00 | 01:28:34 | 08:30:00 | |
| OE5DXL-15 | 2026-09-03 11:58:06 | 48.33662 | 10.16616 | 198° | 13km/h | 22596m | 4.4m/s | -52.2°C | 3.7% | 39.0hPa | 2.6V | 00:00:00 | 00:00:00 | 00:00:00 | |
| DF1GD-15 | 2026-09-03 11:58:05 | 48.33668 | 10.16619 | 208° | 22km/h | 22591m | 5.2m/s | -52.3°C | 0.9% | 39.0hPa | 2.6V | 00:00:00 | 00:00:00 | 00:00:00 | |
| DM0DOS-11 | 2026-09-03 11:58:04 | 48.33686 | 10.16627 | 167° | 15km/h | 22560m | 4.6m/s | -52.1°C | 3.6% | 39.2hPa | 2.6V | 08:30:00 | 01:28:25 | 00:00:00 | |
| DK7TD | 2026-09-03 11:57:58 | 48.33690 | 10.16626 | 171° | 15km/h | 22555m | 5.5m/s | -52.1°C | 0.2% | 39.3hPa | 2.6V | 18:12:15 | 01:28:24 | 00:00:00 | |
| DK7TD | 2026-09-03 11:57:48 | 48.33718 | 10.16634 | 167° | 5km/h | 22503m | 5.8m/s | -52.2°C | 0.2% | 39.6hPa | 2.6V | 18:12:15 | 01:28:14 | 00:00:00 | |
| DO3MHA-11 | 2026-09-03 11:57:48 | 48.33718 | 10.16634 | 168° | 9km/h | 22503m | 5.8m/s | -52.1°C | 3.7% | 39.5hPa | 2.7V | 00:00:00 | 01:28:14 | 00:00:00 | |
| OE3JTB-15 | 2026-09-03 11:57:47 | 48.33719 | 10.16633 | 124° | 13km/h | 22497m | 5.9m/s | -52.1°C | 3.7% | 39.6hPa | 2.7V | 00:00:00 | 01:28:13 | 00:00:00 | |
| DB0UT-7 | 2026-09-03 11:57:46 | 48.33720 | 10.16630 | 108° | 13km/h | 22492m | 4.5m/s | -52.1°C | 3.7% | 39.6hPa | 2.7V | 00:00:00 | 00:00:00 | 00:00:00 | |
| DF1GD-15 | 2026-09-03 11:57:45 | 48.33721 | 10.16626 | 101° | 11km/h | 22486m | 6.0m/s | -52.2°C | 1.0% | 39.7hPa | 2.6V | 00:00:00 | 00:00:00 | 00:00:00 | |
| PG1ADW-2 | 2026-09-03 11:57:43 | 48.33721 | 10.16618 | 99° | 15km/h | 22475m | 4.6m/s | -52.1°C | 3.7% | 39.7hPa | 2.6V | 00:00:00 | 00:00:00 | 00:00:00 | |
| DL9SK-14 | 2026-09-03 11:57:42 | 48.33723 | 10.16610 | 122° | 11km/h | 22464m | 5.2m/s | -52.0°C | 0.9% | 39.8hPa | 2.6V | 00:00:00 | 00:00:00 | 00:00:00 | |
| DM0DOS-11 | 2026-09-03 11:57:40 | 48.33736 | 10.16605 | 191° | 11km/h | 22433m | 5.7m/s | -52.3°C | 3.7% | 40hPa | 2.6V | 08:30:00 | 01:28:01 | 00:00:00 | |
| DK7TD | 2026-09-03 11:57:37 | 48.33731 | 10.16603 | 195° | 7km/h | 22444m | 4.8m/s | -52.3°C | 0.2% | 40hPa | 2.7V | 18:12:15 | 01:28:03 | 00:00:00 | |
| DK7TD | 2026-09-03 11:57:27 | 48.33767 | 10.16604 | 172° | 20km/h | 22392m | 5.2m/s | -52.2°C | 0.2% | 40.3hPa | 2.7V | 18:12:15 | 01:27:53 | 00:00:00 | |
| NBG1-10 | 2026-09-03 11:57:25 | 48.33777 | 10.16603 | 175° | 16km/h | 22383m | 4.5m/s | -52.1°C | 3.6% | 40.3hPa | 2.6V | 00:00:00 | 01:27:51 | 00:00:00 | |
| DM0DOS-11 | 2026-09-03 11:57:23 | 48.33784 | 10.16602 | 187° | 11km/h | 22372m | 5.2m/s | -52.1°C | 3.6% | 40.4hPa | 2.6V | 08:30:00 | 01:27:49 | 00:00:00 | |
| PG1ADW-2 | 2026-09-03 11:57:23 | 48.33784 | 10.16602 | 188° | 15km/h | 22372m | 5.1m/s | -52.1°C | 3.6% | 40.3hPa | 2.6V | 00:00:00 | 00:00:00 | 00:00:00 | |
| DF7PN | 2026-09-03 11:57:21 | 48.33789 | 10.16603 | 185° | 9km/h | 22362m | 5.9m/s | -52.2°C | 0.9% | 40.4hPa | 2.6V | 00:00:00 | 00:00:00 | 00:00:00 | |
| DO3MHA-12 | 2026-09-03 11:57:20 | 48.33792 | 10.16603 | 170° | 16km/h | 22356m | 4.8m/s | -52.1°C | 3.7% | 40.5hPa | 2.6V | 00:00:00 | 01:27:46 | 00:00:00 | |
| DO3MHA-11 | 2026-09-03 11:57:18 | 48.33797 | 10.16599 | 140° | 18km/h | 22347m | 5.2m/s | -52.0°C | 3.6% | 40.5hPa | 2.6V | 00:00:00 | 01:27:44 | 00:00:00 | |
| DM0DOS-11 | 2026-09-03 11:57:17 | 48.33809 | 10.16573 | 126° | 22km/h | 22319m | 4.2m/s | -52.2°C | 3.6% | 40.7hPa | 2.6V | 08:30:00 | 01:27:39 | 00:00:00 | |
| DK7TD | 2026-09-03 11:57:16 | 48.33801 | 10.16591 | 118° | 15km/h | 22336m | 5m/s | -52.3°C | 0.2% | 40.6hPa | 2.6V | 18:12:15 | 01:27:42 | 00:00:00 | |
| DB0UT-7 | 2026-09-03 11:57:16 | 48.33801 | 10.16591 | 119° | 16km/h | 22336m | 5.0m/s | -52.2°C | 3.7% | 40.6hPa | 2.6V | 00:00:00 | 01:27:42 | 00:00:00 | |
| OE5DRO-10 | 2026-09-03 11:57:14 | 48.33806 | 10.16579 | 127° | 18km/h | 22325m | 6.0m/s | -52.1°C | 3.6% | 40.7hPa | 2.6V | 00:00:00 | 00:00:00 | 00:00:00 | |
| DJ8HS-15 | 2026-09-03 11:57:12 | 48.33812 | 10.16566 | 125° | 18km/h | 22315m | 5.9m/s | -52.2°C | 3.7% | 40.7hPa | 2.6V | 00:00:00 | 01:27:38 | 00:00:00 | |
| DL9SK-14 | 2026-09-03 11:57:11 | 48.33818 | 10.16554 | 123° | 16km/h | 22304m | 4.5m/s | -52.1°C | 0.9% | 40.8hPa | 2.7V | 00:00:00 | 00:00:00 | 00:00:00 | |
| DB0NH | 2026-09-03 11:57:10 | 48.33818 | 10.16554 | 124° | 15km/h | 22304m | 4.5m/s | -52.1°C | 3.6% | 40.8hPa | 2.7V | 00:00:00 | 01:27:36 | 00:00:00 | |
| DB0ND-19 | 2026-09-03 11:57:09 | 48.33823 | 10.16544 | 136° | 16km/h | 22293m | 5.6m/s | -52.2°C | 0.9% | 40.9hPa | 2.7V | 00:00:00 | 00:00:00 | 00:00:00 | |
| DO3MHA-11 | 2026-09-03 11:57:08 | 48.33823 | 10.16544 | 137° | 16km/h | 22293m | 5.5m/s | -52.1°C | 3.6% | 40.8hPa | 2.7V | 00:00:00 | 01:27:34 | 00:00:00 | |
| DM0DOS-11 | 2026-09-03 11:57:06 | 48.33834 | 10.16523 | 113° | 15km/h | 22267m | 4.8m/s | -52°C | 3.5% | 41.1hPa | 2.7V | 08:30:00 | 01:27:29 | 00:00:00 | |
| DK7TD | 2026-09-03 11:57:06 | 48.33829 | 10.16536 | 137° | 15km/h | 22283m | 4.8m/s | -52.1°C | 0.2% | 41hPa | 2.6V | 18:12:15 | 01:27:32 | 00:00:00 | |
| DK7TD | 2026-09-03 11:56:56 | 48.33854 | 10.16484 | 143° | 18km/h | 22229m | 5.9m/s | -52.4°C | 0.2% | 41.3hPa | 2.7V | 18:12:15 | 01:27:22 | 00:00:00 | |
| DM0DOS-11 | 2026-09-03 11:56:56 | 48.33865 | 10.16472 | 137° | 16km/h | 22215m | 5.9m/s | -52.5°C | 3.7% | 41.4hPa | 2.6V | 08:30:00 | 01:27:19 | 00:00:00 | |
| OE5DRO-10 | 2026-09-03 11:56:55 | 48.33858 | 10.16480 | 148° | 15km/h | 22224m | 4.4m/s | -52.4°C | 3.7% | 41.3hPa | 2.7V | 00:00:00 | 00:00:00 | 00:00:00 | |
| DJ8HS-15 | 2026-09-03 11:56:52 | 48.33868 | 10.16468 | 125° | 13km/h | 22209m | 5.2m/s | -52.5°C | 3.7% | 41.4hPa | 2.7V | 00:00:00 | 01:27:18 | 00:00:00 | |
| DO3MHA-12 | 2026-09-03 11:56:50 | 48.33871 | 10.16459 | 117° | 13km/h | 22199m | 5.9m/s | -52.5°C | 3.7% | 41.4hPa | 2.7V | 00:00:00 | 01:27:16 | 00:00:00 | |
| OE3JTB-15 | 2026-09-03 11:56:49 | 48.33872 | 10.16456 | 117° | 11km/h | 22194m | 4.6m/s | -52.5°C | 3.7% | 41.5hPa | 2.7V | 00:00:00 | 00:00:00 | 00:00:00 | |
| DO3MHA-11 | 2026-09-03 11:56:48 | 48.33873 | 10.16452 | 109° | 13km/h | 22189m | 4.5m/s | -52.5°C | 3.7% | 41.5hPa | 2.7V | 00:00:00 | 01:27:14 | 00:00:00 | |
| DM0DOS-11 | 2026-09-03 11:56:46 | 48.33877 | 10.16432 | 129° | 13km/h | 22163m | 5m/s | -52.5°C | 3.7% | 41.7hPa | 2.7V | 08:30:00 | 01:27:09 | 00:00:00 | |
| DK7TD | 2026-09-03 11:56:45 | 48.33874 | 10.16440 | 100° | 11km/h | 22173m | 4.4m/s | -52.5°C | 0.2% | 41.7hPa | 2.7V | 18:12:15 | 01:27:11 | 00:00:00 | |
| DK7TD | 2026-09-03 11:56:35 | 48.33887 | 10.16393 | 72° | 5km/h | 22122m | 4.1m/s | -52.7°C | 0.3% | 42hPa | 2.6V | 18:12:15 | 01:27:01 | 00:00:00 | |
| DK7TD | 2026-09-03 11:56:24 | 48.33878 | 10.16359 | 89° | 9km/h | 22066m | 6.1m/s | -52.4°C | 0.2% | 42.4hPa | 2.6V | 18:12:15 | 01:26:50 | 00:00:00 | |
| PG1ADW-2 | 2026-09-03 11:56:23 | 48.33878 | 10.16356 | 95° | 4km/h | 22061m | 5.2m/s | -52.3°C | 3.7% | 42.3hPa | 2.7V | 00:00:00 | 00:00:00 | 00:00:00 | |
| DF1GD-15 | 2026-09-03 11:56:21 | 48.33878 | 10.16354 | 80° | 4km/h | 22056m | 5.1m/s | -52.2°C | 0.9% | 42.4hPa | 2.7V | 00:00:00 | 00:00:00 | 00:00:00 | |
| DM0DOS-11 | 2026-09-03 11:56:20 | 48.33875 | 10.16351 | 4° | 7km/h | 22040m | 4.1m/s | -52.3°C | 3.6% | 42.5hPa | 2.7V | 08:30:00 | 01:26:45 | 00:00:00 | |
| DK7TD | 2026-09-03 11:56:13 | 48.33872 | 10.16351 | 41° | 4km/h | 22010m | 5m/s | -52°C | 0.2% | 42.7hPa | 2.7V | 18:12:15 | 01:26:39 | 00:00:00 | |
| DJ8HS-15 | 2026-09-03 11:56:12 | 48.33871 | 10.16350 | 40° | 7km/h | 22005m | 4.5m/s | -52.0°C | 3.7% | 42.7hPa | 2.6V | 00:00:00 | 01:26:38 | 08:30:00 | |
| DO3MHA-12 | 2026-09-03 11:56:10 | 48.33871 | 10.16348 | 110° | 4km/h | 21995m | 5.4m/s | -52.2°C | 3.7% | 42.8hPa | 2.6V | 00:00:00 | 01:26:36 | 00:00:00 | |
| DL9SK-14 | 2026-09-03 11:56:09 | 48.33871 | 10.16348 | 268° | 0km/h | 21984m | 6.0m/s | -52.3°C | 0.9% | 42.9hPa | 2.7V | 00:00:00 | 00:00:00 | 00:00:00 | |
| DO3MHA-11 | 2026-09-03 11:56:08 | 48.33871 | 10.16348 | 269° | 5km/h | 21985m | 5.9m/s | -52.2°C | 3.6% | 42.9hPa | 2.7V | 00:00:00 | 01:26:34 | 00:00:00 | |
| DB0ND-19 | 2026-09-03 11:56:07 | 48.33871 | 10.16350 | 261° | 2km/h | 21975m | 4.1m/s | -52.3°C | 0.9% | 43.0hPa | 2.6V | 00:00:00 | 00:00:00 | 00:00:00 | |
| DM0DOS-11 | 2026-09-03 11:56:06 | 48.33875 | 10.16354 | 204° | 7km/h | 21958m | 5.2m/s | -52.3°C | 3.7% | 43.1hPa | 2.6V | 08:30:00 | 01:26:29 | 00:00:00 | |
| DK7TD | 2026-09-03 11:56:02 | 48.33876 | 10.16355 | 190° | 7km/h | 21952m | 6m/s | -52.3°C | 0.2% | 43.1hPa | 2.6V | 18:12:15 | 01:26:28 | 00:00:00 | |
| SONCRA | 2026-09-03 11:55:57 | 48.33887 | 10.16343 | 130° | 16km/h | 21926m | 4.7m/s | -52.2°C | 0.9% | 43.3hPa | 2.7V | 00:00:00 | 00:00:00 | 00:00:00 | |
| DM0DOS-11 | 2026-09-03 11:55:56 | 48.33895 | 10.16323 | 130° | 13km/h | 21905m | 5.7m/s | -52.3°C | 3.7% | 43.4hPa | 2.7V | 08:30:00 | 01:26:19 | 00:00:00 | |
| DK7TD | 2026-09-03 11:55:51 | 48.33898 | 10.16319 | 153° | 5km/h | 21896m | 5.4m/s | -52.2°C | 0.2% | 43.5hPa | 2.6V | 18:12:15 | 01:26:17 | 00:00:00 | |
| DF7PN | 2026-09-03 11:55:48 | 48.33901 | 10.16321 | 193° | 5km/h | 21874m | 5.3m/s | -52.1°C | 0.9% | 43.6hPa | 2.6V | 00:00:00 | 00:00:00 | 00:00:00 | |
| DB0UT-7 | 2026-09-03 11:55:46 | 48.33903 | 10.16320 | 165° | 15km/h | 21870m | 3.4m/s | -52.0°C | 3.6% | 43.6hPa | 2.6V | 00:00:00 | 00:00:00 | 00:00:00 | |
| DM0DOS-11 | 2026-09-03 11:55:45 | 48.33909 | 10.16311 | 121° | 15km/h | 21855m | 4.7m/s | -52.2°C | 3.5% | 43.8hPa | 2.6V | 08:30:00 | 01:26:09 | 00:00:00 | |
| DK7TD | 2026-09-03 11:55:41 | 48.33914 | 10.16301 | 128° | 18km/h | 21845m | 6m/s | -52.1°C | 0.2% | 43.9hPa | 2.7V | 18:12:15 | 01:26:07 | 00:00:00 | |
| DF1GD-15 | 2026-09-03 11:55:41 | 48.33914 | 10.16301 | 129° | 18km/h | 21845m | 6.0m/s | -52.1°C | 0.9% | 43.9hPa | 2.6V | 00:00:00 | 00:00:00 | 00:00:00 | |
| DO3MHA-12 | 2026-09-03 11:55:40 | 48.33917 | 10.16295 | 137° | 11km/h | 21840m | 5.1m/s | -52.2°C | 3.6% | 43.8hPa | 2.6V | 00:00:00 | 01:26:06 | 08:30:00 | |
| OE5DRO-10 | 2026-09-03 11:55:39 | 48.33920 | 10.16291 | 140° | 13km/h | 21835m | 4.0m/s | -52.2°C | 3.6% | 43.9hPa | 2.6V | 00:00:00 | 00:00:00 | 00:00:00 | |
| DL9SK-14 | 2026-09-03 11:55:38 | 48.33925 | 10.16284 | 137° | 9km/h | 21825m | 4.8m/s | -52.4°C | 0.9% | 44.0hPa | 2.6V | 00:00:00 | 00:00:00 | 00:00:00 | |
| DB0ND-19 | 2026-09-03 11:55:36 | 48.33929 | 10.16281 | 165° | 7km/h | 21815m | 5.7m/s | -52.4°C | 0.9% | 44.1hPa | 2.6V | 00:00:00 | 00:00:00 | 00:00:00 | |
| DM0DOS-11 | 2026-09-03 11:55:35 | 48.33933 | 10.16281 | 179° | 9km/h | 21804m | 4.5m/s | -52.4°C | 3.6% | 44.1hPa | 2.6V | 08:30:00 | 01:25:59 | 00:00:00 | |
| DK7TD | 2026-09-03 11:55:30 | 48.33939 | 10.16278 | 129° | 7km/h | 21789m | 4.9m/s | -52.3°C | 0.2% | 44.2hPa | 2.7V | 18:12:15 | 01:25:56 | 00:00:00 | |
| DK7TD | 2026-09-03 11:55:20 | 48.33967 | 10.16243 | 165° | 26km/h | 21739m | 4.3m/s | -53.2°C | 0.3% | 44.6hPa | 2.6V | 18:12:15 | 01:25:46 | 00:00:00 | |
| DK7TD | 2026-09-03 11:55:10 | 48.34001 | 10.16186 | 114° | 24km/h | 21688m | 5.8m/s | -53.4°C | 0.3% | 44.9hPa | 2.7V | 18:12:15 | 01:25:36 | 00:00:00 | |
| DK7TD | 2026-09-03 11:54:59 | 48.34044 | 10.16131 | 132° | 18km/h | 21632m | 4.3m/s | -53.5°C | 0.4% | 45.3hPa | 2.7V | 18:12:15 | 01:25:25 | 00:00:00 | |
| DK7TD | 2026-09-03 11:54:48 | 48.34077 | 10.16052 | 145° | 18km/h | 21575m | 5.9m/s | -53.8°C | 0.3% | 45.7hPa | 2.6V | 18:12:15 | 01:25:14 | 00:00:00 | |
| DF7PN | 2026-09-03 11:54:46 | 48.34085 | 10.16040 | 123° | 16km/h | 21560m | 5.7m/s | -54.0°C | 1.0% | 45.9hPa | 2.6V | 00:00:00 | 00:00:00 | 00:00:00 | |
| DK7TD | 2026-09-03 11:54:37 | 48.34093 | 10.15979 | 117° | 22km/h | 21519m | 4.9m/s | -54°C | 0.4% | 46.1hPa | 2.6V | 18:12:15 | 01:25:03 | 00:00:00 | |
| DK7TD | 2026-09-03 11:54:26 | 48.34109 | 10.15911 | 108° | 24km/h | 21462m | 5.8m/s | -54.2°C | 0.4% | 46.5hPa | 2.6V | 18:12:15 | 01:24:52 | 00:00:00 | |
| DK7TD | 2026-09-03 11:54:16 | 48.34124 | 10.15836 | 85° | 15km/h | 21410m | 5.2m/s | -54.1°C | 0.3% | 46.9hPa | 2.6V | 18:12:15 | 01:24:42 | 00:00:00 | |
| DK7TD | 2026-09-03 11:54:06 | 48.34133 | 10.15779 | 118° | 15km/h | 21358m | 4.8m/s | -54°C | 0.3% | 47.3hPa | 2.6V | 18:12:15 | 01:24:32 | 00:00:00 | |
| DK7TD | 2026-09-03 11:53:56 | 48.34136 | 10.15733 | 87° | 11km/h | 21306m | 6m/s | -54.1°C | 0.4% | 47.7hPa | 2.7V | 18:12:15 | 01:24:22 | 00:00:00 | |
| DK7TD | 2026-09-03 11:53:46 | 48.34135 | 10.15688 | 96° | 15km/h | 21254m | 4.8m/s | -54.2°C | 0.4% | 48.1hPa | 2.7V | 18:12:15 | 01:24:12 | 00:00:00 | |
| HARRO8 | 2026-09-03 11:53:45 | 48.34136 | 10.15675 | 105° | 18km/h | 21244m | 6.0m/s | 0°C | -1.0% | 48.1hPa | 2.6V | 00:00:00 | 00:00:00 | 00:00:00 | |
| DK7TD | 2026-09-03 11:53:36 | 48.34138 | 10.15619 | 83° | 18km/h | 21202m | 5.5m/s | -54.1°C | 0.4% | 48.5hPa | 2.6V | 18:12:15 | 01:24:02 | 00:00:00 | |
| DK7TD | 2026-09-03 11:53:25 | 48.34141 | 10.15537 | 82° | 22km/h | 21146m | 5.8m/s | -54.3°C | 0.5% | 48.9hPa | 2.7V | 18:12:15 | 01:23:51 | 00:00:00 | |
| DK7TD | 2026-09-03 11:53:14 | 48.34126 | 10.15443 | 71° | 24km/h | 21092m | 5.4m/s | -54.1°C | 0.4% | 49.3hPa | 2.7V | 18:12:15 | 01:23:40 | 00:00:00 | |
| DK7TD | 2026-09-03 11:53:04 | 48.34099 | 10.15381 | 67° | 16km/h | 21040m | 4.4m/s | -53.9°C | 0.5% | 49.7hPa | 2.6V | 18:12:15 | 01:23:30 | 00:00:00 | |
| DK7TD | 2026-09-03 11:52:53 | 48.34074 | 10.15336 | 10° | 9km/h | 20985m | 5m/s | -53.8°C | 0.4% | 50.2hPa | 2.6V | 18:12:15 | 01:23:19 | 00:00:00 | |
| SONCRA | 2026-09-03 11:52:52 | 48.34069 | 10.15334 | 24° | 7km/h | 20975m | 4.0m/s | -53.7°C | 1.0% | 50.2hPa | 2.7V | 00:00:00 | 00:00:00 | 00:00:00 | |
| DK7TD | 2026-09-03 11:52:43 | 48.34058 | 10.15311 | 69° | 9km/h | 20934m | 4.9m/s | -53.4°C | 0.3% | 50.6hPa | 2.7V | 18:12:15 | 01:23:09 | 00:00:00 | |
| DK7TD | 2026-09-03 11:52:32 | 48.34056 | 10.15288 | 84° | 15km/h | 20878m | 4.7m/s | -53.7°C | 0.3% | 51hPa | 2.6V | 18:12:15 | 01:22:58 | 00:00:00 | |
| DK7TD | 2026-09-03 11:52:22 | 48.34059 | 10.15255 | 137° | 7km/h | 20828m | 4m/s | -53.8°C | 0.3% | 51.4hPa | 2.6V | 18:12:15 | 01:22:48 | 00:00:00 | |
| DK7TD | 2026-09-03 11:52:11 | 48.34081 | 10.15191 | 115° | 11km/h | 20774m | 4.8m/s | -54.1°C | 0.4% | 51.8hPa | 2.7V | 18:12:15 | 01:22:37 | 00:00:00 | |
| DK7TD | 2026-09-03 11:52:01 | 48.34095 | 10.15146 | 121° | 20km/h | 20727m | 4.2m/s | -54.2°C | 0.3% | 52.2hPa | 2.7V | 18:12:15 | 01:22:27 | 00:00:00 | |
| DL9SK-14 | 2026-09-03 11:52:01 | 48.34098 | 10.15139 | 124° | 20km/h | 20723m | 4.1m/s | -54.4°C | 1.0% | 52.3hPa | 2.6V | 00:00:00 | 00:00:00 | 00:00:00 | |
| DO3MHA-12 | 2026-09-03 11:52:00 | 48.34097 | 10.15139 | 125° | 22km/h | 20723m | 4.0m/s | -54.3°C | 3.9% | 52.2hPa | 2.6V | 00:00:00 | 01:22:26 | 00:00:00 | |
| IW2NTF | 2026-09-03 11:51:59 | 48.34118 | 10.15103 | 133° | 22km/h | 20694m | 4.3m/s | -54.6°C | 4% | 52.5hPa | 2.6V | 08:30:00 | 01:22:20 | 00:00:00 | |
| DK7TD | 2026-09-03 11:51:50 | 48.34138 | 10.15085 | 151° | 24km/h | 20674m | 5.4m/s | -54.7°C | 0.4% | 52.7hPa | 2.7V | 18:12:15 | 01:22:16 | 00:00:00 | |
| DO9LL-15 | 2026-09-03 11:51:50 | 48.34138 | 10.15085 | 151° | 31km/h | 20674m | 5.3m/s | -54.7°C | 4.1% | 52.6hPa | 2.6V | 00:00:00 | 01:22:16 | 00:00:00 | |
| AZAK | 2026-09-03 11:51:49 | 48.34143 | 10.15080 | 144° | 24km/h | 20669m | 5.0m/s | -54.8°C | 1.1% | 52.7hPa | 2.6V | 00:00:00 | 00:00:00 | 00:00:00 | |
| DO3MHA-11 | 2026-09-03 11:51:48 | 48.34147 | 10.15074 | 139° | 27km/h | 20665m | 4.3m/s | -54.8°C | 4.1% | 52.7hPa | 2.6V | 00:00:00 | 01:22:14 | 00:00:00 | |
| DB0UT-7 | 2026-09-03 11:51:46 | 48.34156 | 10.15062 | 134° | 31km/h | 20655m | 4.0m/s | -54.9°C | 4.1% | 52.8hPa | 2.6V | 00:00:00 | 00:00:00 | 00:00:00 | |
| IW2NTF | 2026-09-03 11:51:45 | 48.34164 | 10.15046 | 123° | 29km/h | 20646m | 5.4m/s | -54.9°C | 4.2% | 52.9hPa | 2.7V | 08:30:00 | 01:22:10 | 00:00:00 | |
| DK7TD | 2026-09-03 11:51:39 | 48.34190 | 10.15004 | 149° | 27km/h | 20624m | 4m/s | -55.1°C | 0.4% | 53.1hPa | 2.7V | 18:12:15 | 01:22:05 | 00:00:00 | |
| DK7TD | 2026-09-03 11:51:29 | 48.34246 | 10.14927 | 124° | 38km/h | 20579m | 4.8m/s | -55.4°C | 0.6% | 53.5hPa | 2.6V | 18:12:15 | 01:21:55 | 00:00:00 | |
| IW2NTF | 2026-09-03 11:51:29 | 48.34270 | 10.14871 | 125° | 31km/h | 20556m | 3.9m/s | -55.5°C | 4.3% | 53.6hPa | 2.6V | 08:30:00 | 01:21:50 | 00:00:00 | |
| DK7TD | 2026-09-03 11:51:18 | 48.34298 | 10.14812 | 117° | 31km/h | 20529m | 4.1m/s | -55.5°C | 0.5% | 53.9hPa | 2.6V | 18:12:15 | 01:21:44 | 00:00:00 | |
| DO9LL-15 | 2026-09-03 11:51:18 | 48.34297 | 10.14812 | 117° | 35km/h | 20529m | 4.0m/s | -55.5°C | 4.1% | 53.9hPa | 2.6V | 00:00:00 | 01:21:44 | 00:00:00 | |
| DB0UT-7 | 2026-09-03 11:51:16 | 48.34305 | 10.14789 | 117° | 35km/h | 20520m | 3.8m/s | -55.5°C | 4.2% | 53.9hPa | 2.6V | 00:00:00 | 01:21:42 | 00:00:00 | |
| IW2NTF | 2026-09-03 11:51:15 | 48.34325 | 10.14717 | 113° | 35km/h | 20492m | 5.8m/s | -55.7°C | 4.3% | 54.2hPa | 2.6V | 08:30:00 | 01:21:36 | 00:00:00 | |
| DK7TD | 2026-09-03 11:51:07 | 48.34336 | 10.14680 | 113° | 35km/h | 20479m | 5.2m/s | -55.8°C | 0.5% | 54.3hPa | 2.7V | 18:12:15 | 01:21:33 | 00:00:00 | |
| OE5DXL-15 | 2026-09-03 11:51:06 | 48.34339 | 10.14668 | 110° | 35km/h | 20474m | 4.9m/s | -55.8°C | 4.3% | 54.3hPa | 2.6V | 00:00:00 | 00:00:00 | 00:00:00 | |
| DK5PH-5 | 2026-09-03 11:51:04 | 48.34344 | 10.14643 | 106° | 33km/h | 20465m | 5.3m/s | -55.8°C | 4.3% | 54.4hPa | 2.6V | 00:00:00 | 01:21:30 | 08:30:00 | |
| PG1ADW-2 | 2026-09-03 11:51:03 | 48.34347 | 10.14630 | 106° | 33km/h | 20459m | 5.0m/s | -55.8°C | 4.3% | 54.4hPa | 2.6V | 00:00:00 | 00:00:00 | 00:00:00 | |
| IW2NTF | 2026-09-03 11:51:02 | 48.34352 | 10.14590 | 96° | 35km/h | 20444m | 4.6m/s | -55.8°C | 4.3% | 54.6hPa | 2.6V | 08:30:00 | 01:21:26 | 00:00:00 | |
| DK7TD | 2026-09-03 11:50:57 | 48.34355 | 10.14549 | 97° | 37km/h | 20430m | 4.5m/s | -56°C | 0.6% | 54.7hPa | 2.6V | 18:12:15 | 01:21:23 | 00:00:00 | |
| DB0ND-19 | 2026-09-03 11:50:57 | 48.34356 | 10.14535 | 96° | 35km/h | 20426m | 3.8m/s | -56.0°C | 1.2% | 54.8hPa | 2.6V | 00:00:00 | 00:00:00 | 00:00:00 | |
| DL6DJ-15 | 2026-09-03 11:50:55 | 48.34357 | 10.14523 | 94° | 31km/h | 20421m | 5.5m/s | -56.1°C | 1.2% | 54.8hPa | 2.6V | 00:00:00 | 00:00:00 | 00:00:00 | |
| OE5DRO-10 | 2026-09-03 11:50:54 | 48.34357 | 10.14511 | 92° | 33km/h | 20416m | 4.7m/s | -56.1°C | 4.4% | 54.8hPa | 2.6V | 00:00:00 | 00:00:00 | 00:00:00 | |
| DJ8HS-15 | 2026-09-03 11:50:52 | 48.34358 | 10.14489 | 94° | 33km/h | 20407m | 5.6m/s | -56.2°C | 4.5% | 54.9hPa | 2.6V | 00:00:00 | 01:21:18 | 00:00:00 | |
| DO3MHA-12 | 2026-09-03 11:50:50 | 48.34359 | 10.14465 | 93° | 35km/h | 20398m | 4.7m/s | -56.1°C | 4.4% | 55.0hPa | 2.6V | 00:00:00 | 01:21:16 | 00:00:00 | |
| IW2NTF | 2026-09-03 11:50:49 | 48.34359 | 10.14441 | 88° | 31km/h | 20387m | 4.3m/s | -56.2°C | 4.5% | 55.1hPa | 2.6V | 08:30:00 | 01:21:14 | 00:00:00 | |
| DK7TD | 2026-09-03 11:50:46 | 48.34359 | 10.14416 | 93° | 33km/h | 20379m | 5m/s | -56.2°C | 0.7% | 55.1hPa | 2.6V | 18:12:15 | 01:21:12 | 00:00:00 | |
| DB0UT-7 | 2026-09-03 11:50:46 | 48.34359 | 10.14416 | 94° | 31km/h | 20379m | 5.0m/s | -56.2°C | 4.5% | 55.1hPa | 2.7V | 00:00:00 | 00:00:00 | 00:00:00 | |
| PG1ADW-2 | 2026-09-03 11:50:43 | 48.34361 | 10.14377 | 89° | 31km/h | 20366m | 5.3m/s | -56.3°C | 4.5% | 55.2hPa | 2.7V | 00:00:00 | 00:00:00 | 08:30:00 | |
| DG1MJG | 2026-09-03 11:50:41 | 48.34360 | 10.14363 | 84° | 37km/h | 20361m | 5.1m/s | -56.4°C | 1.2% | 55.3hPa | 2.6V | 00:00:00 | 00:00:00 | 00:00:00 | |
| DO3MHA-12 | 2026-09-03 11:50:40 | 48.34356 | 10.14336 | 78° | 31km/h | 20351m | 4.5m/s | -56.1°C | 4.5% | 55.4hPa | 2.6V | 00:00:00 | 01:21:06 | 00:00:00 | |
| IW2NTF | 2026-09-03 11:50:39 | 48.34353 | 10.14310 | 81° | 33km/h | 20341m | 4.2m/s | -56.2°C | 4.5% | 55.5hPa | 2.7V | 08:30:00 | 01:21:04 | 00:00:00 | |
| DK7TD | 2026-09-03 11:50:35 | 48.34350 | 10.14275 | 83° | 29km/h | 20327m | 4.1m/s | -56.2°C | 0.7% | 55.6hPa | 2.6V | 18:12:15 | 01:21:01 | 00:00:00 | |
| OE5DRO-10 | 2026-09-03 11:50:35 | 48.34350 | 10.14275 | 83° | 27km/h | 20327m | 4.1m/s | -56.1°C | 4.5% | 55.6hPa | 2.6V | 00:00:00 | 00:00:00 | 00:00:00 | |
| DK5PH-5 | 2026-09-03 11:50:34 | 48.34349 | 10.14264 | 88° | 26km/h | 20322m | 5.6m/s | -56.0°C | 4.5% | 55.6hPa | 2.6V | 00:00:00 | 01:21:00 | 00:00:00 | |
| IW2NTF | 2026-09-03 11:50:33 | 48.34342 | 10.14201 | 76° | 27km/h | 20292m | 5.6m/s | -55.9°C | 4.5% | 55.9hPa | 2.6V | 08:30:00 | 01:20:54 | 00:00:00 | |
| DK7TD | 2026-09-03 11:50:25 | 48.34337 | 10.14170 | 74° | 29km/h | 20277m | 5.4m/s | -55.8°C | 0.6% | 56.1hPa | 2.7V | 18:12:15 | 01:20:51 | 00:00:00 | |
| DO3MHA-12 | 2026-09-03 11:50:20 | 48.34332 | 10.14115 | 87° | 24km/h | 20254m | 5.4m/s | -55.6°C | 4.4% | 56.2hPa | 2.7V | 00:00:00 | 01:20:46 | 00:00:00 | |
| IW2NTF | 2026-09-03 11:50:19 | 48.34331 | 10.14095 | 82° | 24km/h | 20244m | 4.2m/s | -55.5°C | 4.4% | 56.4hPa | 2.7V | 08:30:00 | 01:20:44 | 00:00:00 | |
| DK7TD | 2026-09-03 11:50:14 | 48.34330 | 10.14063 | 83° | 20km/h | 20224m | 5.5m/s | -55.4°C | 0.6% | 56.5hPa | 2.7V | 18:12:15 | 01:20:40 | 00:00:00 | |
| DJ8HS-15 | 2026-09-03 11:50:12 | 48.34327 | 10.14047 | 76° | 22km/h | 20214m | 3.9m/s | -55.3°C | 4.4% | 56.6hPa | 2.6V | 00:00:00 | 01:20:38 | 08:30:00 | |
| DO3MHA-12 | 2026-09-03 11:50:10 | 48.34325 | 10.14029 | 87° | 26km/h | 20204m | 5.1m/s | -55.2°C | 4.3% | 56.6hPa | 2.6V | 00:00:00 | 01:20:36 | 00:00:00 | |
| IW2NTF | 2026-09-03 11:50:09 | 48.34325 | 10.14010 | 88° | 26km/h | 20195m | 5m/s | -55.2°C | 4.3% | 56.8hPa | 2.7V | 08:30:00 | 01:20:34 | 00:00:00 | |
| DO3MHA-11 | 2026-09-03 11:50:08 | 48.34325 | 10.14010 | 89° | 26km/h | 20195m | 5.0m/s | -55.1°C | 4.3% | 56.8hPa | 2.7V | 00:00:00 | 01:20:34 | 00:00:00 | |
| OE5DXL-15 | 2026-09-03 11:50:06 | 48.34324 | 10.13990 | 83° | 20km/h | 20185m | 4.7m/s | -55.0°C | 4.3% | 56.8hPa | 2.6V | 00:00:00 | 00:00:00 | 00:00:00 | |
| DO9HM | 2026-09-03 11:50:05 | 48.34324 | 10.13990 | 83° | 27km/h | 20185m | 4.8m/s | -55.1°C | 1.2% | 56.9hPa | 2.6V | 00:00:00 | 00:00:00 | 00:00:00 | |
| DK5PH-5 | 2026-09-03 11:50:04 | 48.34322 | 10.13969 | 87° | 20km/h | 20175m | 5.3m/s | -54.9°C | 4.3% | 56.9hPa | 2.6V | 00:00:00 | 01:20:30 | 00:00:00 | |
| DK7TD | 2026-09-03 11:50:04 | 48.34322 | 10.13969 | 86° | 27km/h | 20175m | 5.4m/s | -54.9°C | 0.6% | 57hPa | 2.6V | 18:12:15 | 01:20:30 | 00:00:00 | |
| PG1ADW-2 | 2026-09-03 11:50:03 | 48.34322 | 10.13959 | 85° | 20km/h | 20170m | 4.0m/s | -54.9°C | 4.3% | 57.0hPa | 2.6V | 00:00:00 | 01:20:29 | 00:00:00 | |
| KANTATE | 2026-09-03 11:50:02 | 48.34322 | 10.13959 | 85° | 27km/h | 20170m | 4.1m/s | -55.0°C | 0% | 0hPa | 2.6V | 00:00:00 | 00:00:00 | 00:00:00 | |
| DO3MHA-12 | 2026-09-03 11:50:00 | 48.34319 | 10.13932 | 83° | 20km/h | 20156m | 5.1m/s | -54.8°C | 4.3% | 57.1hPa | 2.6V | 00:00:00 | 01:20:26 | 00:00:00 | |
| IW2NTF | 2026-09-03 11:49:59 | 48.34319 | 10.13918 | 92° | 18km/h | 20145m | 4.7m/s | -54.8°C | 4.2% | 57.3hPa | 2.6V | 08:30:00 | 01:20:24 | 00:00:00 | |
| DK7TD | 2026-09-03 11:49:53 | 48.34318 | 10.13884 | 97° | 22km/h | 20120m | 5.9m/s | -54.6°C | 0.5% | 57.5hPa | 2.6V | 18:12:15 | 01:20:19 | 00:00:00 | |
| DL6DJ-15 | 2026-09-03 11:49:53 | 48.34319 | 10.13875 | 97° | 24km/h | 20114m | 4.5m/s | -54.7°C | 1.1% | 57.5hPa | 2.7V | 00:00:00 | 00:00:00 | 00:00:00 | |
| DK7TD | 2026-09-03 11:49:43 | 48.34319 | 10.13810 | 84° | 15km/h | 20068m | 5.2m/s | -54.5°C | 0.4% | 58hPa | 2.7V | 18:12:15 | 01:20:09 | 00:00:00 | |
| DK7TD | 2026-09-03 11:49:33 | 48.34320 | 10.13745 | 79° | 9km/h | 20012m | 4.7m/s | -54.5°C | 0.5% | 58.4hPa | 2.7V | 18:12:15 | 01:19:58 | 00:00:00 | |
| DJ8HS-15 | 2026-09-03 11:49:32 | 48.34320 | 10.13745 | 79° | 13km/h | 20013m | 4.7m/s | -54.4°C | 4.2% | 58.4hPa | 2.6V | 00:00:00 | 01:19:58 | 00:00:00 | |
| DM7RM-13 | 2026-09-03 11:49:31 | 48.34320 | 10.13745 | 80° | 9km/h | 20013m | 4.7m/s | -54.5°C | 1.1% | 58.4hPa | 2.6V | 00:00:00 | 00:00:00 | 00:00:00 | |
| DM0DOS-11 | 2026-09-03 11:49:28 | 48.34322 | 10.13701 | 124° | 20km/h | 19965m | 4.5m/s | -54.2°C | 4.1% | 58.9hPa | 2.6V | 08:30:00 | 01:19:49 | 00:00:00 | |
| DK7TD | 2026-09-03 11:49:22 | 48.34325 | 10.13695 | 126° | 20km/h | 19960m | 4.9m/s | -54.1°C | 0.4% | 59hPa | 2.6V | 18:12:15 | 01:19:48 | 00:00:00 | |
| DK7TD | 2026-09-03 11:49:11 | 48.34346 | 10.13651 | 116° | 15km/h | 19903m | 6.3m/s | -53.8°C | 0.3% | 59.5hPa | 2.6V | 18:12:15 | 01:19:37 | 00:00:00 | |
| DG1MJG | 2026-09-03 11:49:10 | 48.34347 | 10.13645 | 113° | 18km/h | 19897m | 5.5m/s | -53.7°C | 1.0% | 59.5hPa | 2.6V | 00:00:00 | 00:00:00 | 00:00:00 | |
| IW2NTF | 2026-09-03 11:49:09 | 48.34591 | 10.13482 | 95° | 16km/h | 19556m | 4.9m/s | -54°C | 4.1% | 62.8hPa | 2.6V | 08:30:00 | 01:18:31 | 00:00:00 | |
| DK7TD | 2026-09-03 11:49:00 | 48.34375 | 10.13605 | 193° | 13km/h | 19845m | 4.9m/s | -53.4°C | 0.3% | 60hPa | 2.6V | 18:12:15 | 01:19:26 | 00:00:00 | |
| DK7TD | 2026-09-03 11:48:50 | 48.34412 | 10.13588 | 159° | 22km/h | 19789m | 5m/s | -54°C | 0.5% | 60.5hPa | 2.7V | 18:12:15 | 01:19:16 | 00:00:00 | |
| DK7TD | 2026-09-03 11:48:39 | 48.34477 | 10.13574 | 162° | 22km/h | 19731m | 6m/s | -53.5°C | 0.5% | 61.1hPa | 2.7V | 18:12:15 | 01:19:05 | 00:00:00 | |
| DK7TD | 2026-09-03 11:48:29 | 48.34521 | 10.13552 | 183° | 18km/h | 19678m | 5.6m/s | -53.3°C | 0.3% | 61.6hPa | 2.6V | 18:12:15 | 01:18:55 | 00:00:00 | |
| DK7TD | 2026-09-03 11:48:19 | 48.34558 | 10.13525 | 145° | 15km/h | 19627m | 6.1m/s | -53.1°C | 0.2% | 62.1hPa | 2.7V | 18:12:15 | 01:18:45 | 00:00:00 | |
| DO3MHA-11 | 2026-09-03 11:48:17 | 48.34563 | 10.13520 | 159° | 13km/h | 19616m | 4.2m/s | -53.0°C | 3.6% | 62.1hPa | 2.6V | 00:00:00 | 01:18:43 | 00:00:00 | |
| DB0UT-7 | 2026-09-03 11:48:16 | 48.34565 | 10.13519 | 172° | 13km/h | 19612m | 5.0m/s | -53.2°C | 3.7% | 62.2hPa | 2.6V | 00:00:00 | 01:18:42 | 00:00:00 | |
| DM0DOS-11 | 2026-09-03 11:48:12 | 48.34590 | 10.13489 | 103° | 18km/h | 19561m | 5.7m/s | -54°C | 4% | 62.7hPa | 2.6V | 08:30:00 | 01:18:32 | 00:00:00 | |
| DK7TD | 2026-09-03 11:48:08 | 48.34587 | 10.13502 | 116° | 20km/h | 19570m | 4.7m/s | -54°C | 0.4% | 62.6hPa | 2.7V | 18:12:15 | 01:18:34 | 00:00:00 | |
| DK7TD | 2026-09-03 11:47:58 | 48.34598 | 10.13456 | 150° | 9km/h | 19521m | 5m/s | -54°C | 0.4% | 63.1hPa | 2.6V | 18:12:15 | 01:18:24 | 00:00:00 | |
| DK7TD | 2026-09-03 11:47:47 | 48.34616 | 10.13407 | 105° | 9km/h | 19467m | 4.5m/s | -53.9°C | 0.4% | 63.6hPa | 2.7V | 18:12:15 | 01:18:13 | 00:00:00 | |
| DO3MHA-11 | 2026-09-03 11:47:46 | 48.34616 | 10.13403 | 125° | 15km/h | 19463m | 3.7m/s | -53.8°C | 3.9% | 63.6hPa | 2.7V | 00:00:00 | 01:18:12 | 00:00:00 | |
| DN1GJH-1 | 2026-09-03 11:47:44 | 48.34620 | 10.13398 | 149° | 13km/h | 19453m | 5.7m/s | -53.8°C | 1.1% | 63.8hPa | 2.7V | 00:00:00 | 00:00:00 | 00:00:00 | |
| PG1ADW-2 | 2026-09-03 11:47:43 | 48.34623 | 10.13395 | 151° | 20km/h | 19447m | 5.1m/s | -53.8°C | 3.9% | 63.8hPa | 2.7V | 00:00:00 | 00:00:00 | 08:30:00 | |
| AZAK | 2026-09-03 11:47:42 | 48.34627 | 10.13392 | 153° | 16km/h | 19442m | 4.8m/s | -53.9°C | 1.1% | 63.9hPa | 2.6V | 00:00:00 | 00:00:00 | 00:00:00 | |
| IW2NTF | 2026-09-03 11:47:41 | 48.34651 | 10.13363 | 128° | 20km/h | 19406m | 6.1m/s | -53.9°C | 4% | 64.3hPa | 2.6V | 08:30:00 | 01:18:01 | 00:00:00 | |
| DK7TD | 2026-09-03 11:47:37 | 48.34644 | 10.13375 | 136° | 20km/h | 19415m | 5.1m/s | -53.8°C | 0.5% | 64.2hPa | 2.6V | 18:12:15 | 01:18:03 | 00:00:00 | |
| OE3JTB-15 | 2026-09-03 11:47:37 | 48.34644 | 10.13375 | 136° | 20km/h | 19416m | 5.1m/s | -53.8°C | 4.0% | 64.1hPa | 2.6V | 00:00:00 | 01:18:03 | 00:00:00 | |
| DO3MHA-11 | 2026-09-03 11:47:36 | 48.34648 | 10.13369 | 132° | 22km/h | 19411m | 4.1m/s | -53.8°C | 4.0% | 64.2hPa | 2.6V | 00:00:00 | 01:18:02 | 08:30:00 | |
| DK5PH-5 | 2026-09-03 11:47:34 | 48.34654 | 10.13358 | 126° | 20km/h | 19401m | 4.5m/s | -53.8°C | 3.9% | 64.3hPa | 2.6V | 00:00:00 | 01:18:00 | 00:00:00 | |
| DJ8HS-15 | 2026-09-03 11:47:32 | 48.34660 | 10.13346 | 132° | 20km/h | 19390m | 5.9m/s | -53.9°C | 3.9% | 64.4hPa | 2.6V | 00:00:00 | 01:17:58 | 00:00:00 | |
| DF7PN | 2026-09-03 11:47:31 | 48.34669 | 10.13333 | 139° | 24km/h | 19379m | 4.6m/s | -53.9°C | 1.1% | 64.5hPa | 2.6V | 00:00:00 | 00:00:00 | 00:00:00 | |
| IW2NTF | 2026-09-03 11:47:30 | 48.34695 | 10.13299 | 133° | 27km/h | 19349m | 4.8m/s | -54°C | 4% | 64.8hPa | 2.6V | 08:30:00 | 01:17:50 | 00:00:00 | |
| DK7TD | 2026-09-03 11:47:27 | 48.34682 | 10.13317 | 139° | 20km/h | 19364m | 4m/s | -53.8°C | 0.4% | 64.7hPa | 2.7V | 18:12:15 | 01:17:53 | 00:00:00 | |
| DO3MHA-11 | 2026-09-03 11:47:26 | 48.34686 | 10.13312 | 137° | 24km/h | 19360m | 5.1m/s | -53.9°C | 4.0% | 64.7hPa | 2.6V | 00:00:00 | 01:17:52 | 00:00:00 | |
| OE5DRO-10 | 2026-09-03 11:47:25 | 48.34690 | 10.13306 | 135° | 18km/h | 19354m | 5.4m/s | -53.9°C | 4.0% | 64.7hPa | 2.6V | 00:00:00 | 00:00:00 | 00:00:00 | |
| PG1ADW-2 | 2026-09-03 11:47:23 | 48.34699 | 10.13291 | 132° | 20km/h | 19345m | 4.2m/s | -54.1°C | 4.1% | 64.8hPa | 2.6V | 00:00:00 | 01:17:49 | 00:00:00 | |
| DM0DOS-11 | 2026-09-03 11:47:21 | 48.34720 | 10.13246 | 107° | 11km/h | 19305m | 5.4m/s | -54.2°C | 4% | 65.3hPa | 2.6V | 08:30:00 | 01:17:42 | 00:00:00 | |
| IW2NTF | 2026-09-03 11:47:20 | 48.34721 | 10.13240 | 126° | 9km/h | 19295m | 6.2m/s | -54°C | 4% | 65.4hPa | 2.7V | 08:30:00 | 01:17:40 | 00:00:00 | |
| DK7TD | 2026-09-03 11:47:16 | 48.34720 | 10.13246 | 108° | 11km/h | 19305m | 5.4m/s | -54.2°C | 0.4% | 65.3hPa | 2.6V | 18:12:15 | 01:17:42 | 00:00:00 | |
| DB0UT-7 | 2026-09-03 11:47:16 | 48.34720 | 10.13245 | 108° | 24km/h | 19306m | 5.3m/s | -54.1°C | 4.0% | 65.2hPa | 2.6V | 00:00:00 | 01:17:42 | 00:00:00 | |
| DH7VM-15 | 2026-09-03 11:47:13 | 48.34721 | 10.13240 | 128° | 9km/h | 19295m | 6.2m/s | -54.1°C | 1.1% | 65.4hPa | 2.6V | 00:00:00 | 00:00:00 | 00:00:00 | |
| DJ8HS-15 | 2026-09-03 11:47:12 | 48.34725 | 10.13235 | 152° | 24km/h | 19285m | 5.3m/s | -53.8°C | 3.9% | 65.5hPa | 2.6V | 00:00:00 | 01:17:38 | 08:30:00 | |
| IW2NTF | 2026-09-03 11:47:10 | 48.34753 | 10.13182 | 112° | 20km/h | 19244m | 5m/s | -54.2°C | 4% | 65.9hPa | 2.7V | 08:30:00 | 01:17:30 | 00:00:00 | |
| DK7TD | 2026-09-03 11:47:06 | 48.34747 | 10.13200 | 120° | 29km/h | 19254m | 4.6m/s | -54.1°C | 0.4% | 65.8hPa | 2.6V | 18:12:15 | 01:17:32 | 00:00:00 | |
| OE5DXL-15 | 2026-09-03 11:47:06 | 48.34747 | 10.13200 | 120° | 27km/h | 19255m | 4.5m/s | -54.0°C | 4.0% | 65.7hPa | 2.6V | 00:00:00 | 00:00:00 | 00:00:00 | |
| DK5PH-5 | 2026-09-03 11:47:04 | 48.34753 | 10.13182 | 113° | 27km/h | 19244m | 5.0m/s | -54.2°C | 4.0% | 65.9hPa | 2.6V | 00:00:00 | 01:17:30 | 00:00:00 | |
| PG1ADW-2 | 2026-09-03 11:47:03 | 48.34755 | 10.13176 | 114° | 27km/h | 19239m | 5.3m/s | -54.1°C | 4.0% | 65.9hPa | 2.6V | 00:00:00 | 00:00:00 | 00:00:00 | |
| DF1GD-15 | 2026-09-03 11:47:02 | 48.34755 | 10.13176 | 114° | 16km/h | 19239m | 5.4m/s | -54.1°C | 1.1% | 66.0hPa | 2.6V | 00:00:00 | 00:00:00 | 00:00:00 | |
| DM0DOS-11 | 2026-09-03 11:47:01 | 48.34780 | 10.13151 | 152° | 29km/h | 19204m | 5m/s | -54.3°C | 4.1% | 66.3hPa | 2.6V | 08:30:00 | 01:17:23 | 00:00:00 | |
| DK7TD | 2026-09-03 11:46:56 | 48.34786 | 10.13146 | 150° | 29km/h | 19198m | 6.2m/s | -54.3°C | 0.5% | 66.3hPa | 2.6V | 18:12:15 | 01:17:22 | 00:00:00 | |
| DO3MHA-11 | 2026-09-03 11:46:56 | 48.34786 | 10.13146 | 151° | 33km/h | 19199m | 6.2m/s | -54.3°C | 4.1% | 66.3hPa | 2.7V | 00:00:00 | 01:17:22 | 00:00:00 | |
| DO9HM | 2026-09-03 11:46:54 | 48.34792 | 10.13140 | 145° | 29km/h | 19193m | 5.0m/s | -54.3°C | 1.1% | 66.4hPa | 2.7V | 00:00:00 | 00:00:00 | 00:00:00 | |
| DN1GJH-1 | 2026-09-03 11:46:53 | 48.34798 | 10.13133 | 141° | 31km/h | 19188m | 4.4m/s | -54.3°C | 1.2% | 66.5hPa | 2.7V | 00:00:00 | 00:00:00 | 00:00:00 | |
| DJ8HS-15 | 2026-09-03 11:46:52 | 48.34810 | 10.13116 | 136° | 29km/h | 19178m | 4.4m/s | -54.2°C | 4.2% | 66.5hPa | 2.7V | 00:00:00 | 01:17:18 | 00:00:00 | |
| DM0DOS-11 | 2026-09-03 11:46:51 | 48.34847 | 10.13061 | 136° | 33km/h | 19147m | 4.7m/s | -54.1°C | 4% | 66.9hPa | 2.7V | 08:30:00 | 01:17:12 | 00:00:00 | |
| DK7TD | 2026-09-03 11:46:45 | 48.34853 | 10.13053 | 135° | 29km/h | 19141m | 5.7m/s | -54.1°C | 0.4% | 67hPa | 2.6V | 18:12:15 | 01:17:11 | 00:00:00 | |
| PG1ADW-2 | 2026-09-03 11:46:43 | 48.34862 | 10.13039 | 133° | 27km/h | 19132m | 4.8m/s | -53.9°C | 4.0% | 67.0hPa | 2.6V | 00:00:00 | 00:00:00 | 00:00:00 | |
| DF1GD-15 | 2026-09-03 11:46:42 | 48.34862 | 10.13039 | 133° | 26km/h | 19132m | 4.9m/s | -54.0°C | 1.1% | 67.1hPa | 2.7V | 00:00:00 | 00:00:00 | 00:00:00 | |
| DM0DOS-11 | 2026-09-03 11:46:41 | 48.34889 | 10.12980 | 126° | 31km/h | 19096m | 4.5m/s | -53.7°C | 3.9% | 67.4hPa | 2.7V | 08:30:00 | 01:17:02 | 00:00:00 | |
| DK7TD | 2026-09-03 11:46:35 | 48.34894 | 10.12971 | 126° | 31km/h | 19091m | 5m/s | -53.7°C | 0.4% | 67.5hPa | 2.7V | 18:12:15 | 01:17:01 | 00:00:00 | |
| DK5PH-5 | 2026-09-03 11:46:34 | 48.34898 | 10.12961 | 125° | 27km/h | 19086m | 5.4m/s | -53.6°C | 3.9% | 67.5hPa | 2.6V | 00:00:00 | 01:17:00 | 08:30:00 | |
| DJ8HS-15 | 2026-09-03 11:46:32 | 48.34906 | 10.12945 | 128° | 26km/h | 19077m | 4.4m/s | -53.6°C | 3.9% | 67.6hPa | 2.7V | 00:00:00 | 01:16:58 | 00:00:00 | |
| DO9HM | 2026-09-03 11:46:31 | 48.34910 | 10.12937 | 133° | 26km/h | 19072m | 5.4m/s | -53.6°C | 1.1% | 67.7hPa | 2.7V | 00:00:00 | 00:00:00 | 00:00:00 | |
| DO3MHA-12 | 2026-09-03 11:46:30 | 48.34915 | 10.12930 | 134° | 27km/h | 19067m | 4.4m/s | -53.5°C | 3.9% | 67.7hPa | 2.7V | 00:00:00 | 01:16:56 | 00:00:00 | |
| DF7PN | 2026-09-03 11:46:29 | 48.34923 | 10.12916 | 125° | 24km/h | 19058m | 5.8m/s | -53.5°C | 1.1% | 67.9hPa | 2.7V | 00:00:00 | 00:00:00 | 00:00:00 | |
| DJTTGO | 2026-09-03 11:46:28 | 48.34923 | 10.12916 | 127° | 24km/h | 19058m | 5.8m/s | -53.5°C | 0% | 67.9hPa | 2.7V | 00:00:00 | 00:00:00 | 00:00:00 | |
| DM0DOS-11 | 2026-09-03 11:46:26 | 48.34934 | 10.12880 | 114° | 31km/h | 19038m | 5m/s | -53.6°C | 3.8% | 68.1hPa | 2.7V | 08:30:00 | 01:16:50 | 00:00:00 | |
| DK7TD | 2026-09-03 11:46:24 | 48.34934 | 10.12880 | 114° | 31km/h | 19038m | 5m/s | -53.6°C | 0.3% | 68.1hPa | 2.7V | 18:12:15 | 01:16:50 | 00:00:00 | |
| PG1ADW-2 | 2026-09-03 11:46:23 | 48.34938 | 10.12869 | 115° | 27km/h | 19033m | 4.2m/s | -53.6°C | 3.8% | 68.1hPa | 2.6V | 00:00:00 | 00:00:00 | 00:00:00 | |
| DF1GD-15 | 2026-09-03 11:46:22 | 48.34938 | 10.12869 | 115° | 33km/h | 19033m | 4.2m/s | -53.6°C | 1.1% | 68.1hPa | 2.6V | 00:00:00 | 00:00:00 | 00:00:00 | |
| DO3MHA-12 | 2026-09-03 11:46:20 | 48.34947 | 10.12837 | 112° | 22km/h | 19019m | 4.6m/s | -53.9°C | 3.8% | 68.2hPa | 2.6V | 00:00:00 | 01:16:46 | 00:00:00 | |
| Es werden nur die letzten 3500 von 4528 Frames angezeigt. GPX/KML und Diagramme bleiben verfügbar. | |||||||||||||||